<?xml version='1.0' encoding='UTF-8'?><gpx version="1.1" creator="JPX - https://github.com/jenetics/jpx" xmlns="http://www.topografix.com/GPX/1/1"><trk><trkseg><trkpt lat="43.66960562898196" lon="12.040261118968303"><ele>436.99999999999994</ele><time>2026-05-02T14:39:56Z</time></trkpt><trkpt lat="43.66971450653532" lon="12.04027727071093"><ele>437.0</ele><time>2026-05-02T14:39:59Z</time></trkpt><trkpt lat="43.669763094354714" lon="12.040337817029522"><ele>437.0</ele><time>2026-05-02T14:40:07.001Z</time></trkpt><trkpt lat="43.669834936159965" lon="12.04035138543939"><ele>437.0</ele><time>2026-05-02T14:40:09Z</time></trkpt><trkpt lat="43.669892950397895" lon="12.04031354739456"><ele>436.99999999999994</ele><time>2026-05-02T14:40:10Z</time></trkpt><trkpt lat="43.6699641389886" lon="12.040268437100362"><ele>437.0</ele><time>2026-05-02T14:40:11Z</time></trkpt><trkpt lat="43.67003072765313" lon="12.040211273343896"><ele>436.99999999999994</ele><time>2026-05-02T14:40:12Z</time></trkpt><trkpt lat="43.670109250618296" lon="12.040147227892097"><ele>437.0</ele><time>2026-05-02T14:40:13Z</time></trkpt><trkpt lat="43.67018503682446" lon="12.040080345535463"><ele>437.0</ele><time>2026-05-02T14:40:14Z</time></trkpt><trkpt lat="43.670264457860156" lon="12.040030477333099"><ele>437.0</ele><time>2026-05-02T14:40:15Z</time></trkpt><trkpt lat="43.67033800284056" lon="12.039993770223234"><ele>436.99999999999994</ele><time>2026-05-02T14:40:16Z</time></trkpt><trkpt lat="43.67040823526695" lon="12.039951704252323"><ele>437.0</ele><time>2026-05-02T14:40:17Z</time></trkpt><trkpt lat="43.670480750519914" lon="12.039903466657291"><ele>436.8333333333333</ele><time>2026-05-02T14:40:18Z</time></trkpt><trkpt lat="43.670552545875026" lon="12.039849490685071"><ele>436.66666666666663</ele><time>2026-05-02T14:40:19Z</time></trkpt><trkpt lat="43.67063134829852" lon="12.039789181558184"><ele>436.5</ele><time>2026-05-02T14:40:20Z</time></trkpt><trkpt lat="43.67071449569902" lon="12.039725101138233"><ele>436.33333333333337</ele><time>2026-05-02T14:40:21Z</time></trkpt><trkpt lat="43.67079814473445" lon="12.039673160321032"><ele>436.1666666666667</ele><time>2026-05-02T14:40:22Z</time></trkpt><trkpt lat="43.67087647983196" lon="12.039619714703772"><ele>436.0</ele><time>2026-05-02T14:40:23Z</time></trkpt><trkpt lat="43.670957566428434" lon="12.03957164660891"><ele>436.00000000000006</ele><time>2026-05-02T14:40:24Z</time></trkpt><trkpt lat="43.67103311536111" lon="12.03951586095333"><ele>436.0</ele><time>2026-05-02T14:40:25Z</time></trkpt><trkpt lat="43.67111118663922" lon="12.03946521527238"><ele>436.0</ele><time>2026-05-02T14:40:26Z</time></trkpt><trkpt lat="43.671195592250896" lon="12.039425849956595"><ele>436.0</ele><time>2026-05-02T14:40:27Z</time></trkpt><trkpt lat="43.671282396545536" lon="12.039404581666366"><ele>436.00000000000006</ele><time>2026-05-02T14:40:28Z</time></trkpt><trkpt lat="43.67136982332393" lon="12.039381246269452"><ele>436.0</ele><time>2026-05-02T14:40:29Z</time></trkpt><trkpt lat="43.67145922836936" lon="12.039373177282775"><ele>436.00000000000006</ele><time>2026-05-02T14:40:30Z</time></trkpt><trkpt lat="43.67154697900053" lon="12.039375781378139"><ele>436.0</ele><time>2026-05-02T14:40:31Z</time></trkpt><trkpt lat="43.67163185536839" lon="12.039374298324683"><ele>436.0</ele><time>2026-05-02T14:40:32Z</time></trkpt><trkpt lat="43.671714641826256" lon="12.039373507730907"><ele>436.0</ele><time>2026-05-02T14:40:33Z</time></trkpt><trkpt lat="43.67180534465742" lon="12.03937369357175"><ele>436.00000000000006</ele><time>2026-05-02T14:40:34Z</time></trkpt><trkpt lat="43.67190023276061" lon="12.03936742400685"><ele>436.0</ele><time>2026-05-02T14:40:35Z</time></trkpt><trkpt lat="43.671995580547446" lon="12.03936120540466"><ele>436.0</ele><time>2026-05-02T14:40:36Z</time></trkpt><trkpt lat="43.67209593589446" lon="12.03935658625417"><ele>436.0</ele><time>2026-05-02T14:40:37Z</time></trkpt><trkpt lat="43.672201976954504" lon="12.039361449468744"><ele>436.0</ele><time>2026-05-02T14:40:38Z</time></trkpt><trkpt lat="43.67229415053059" lon="12.039361034682745"><ele>436.0</ele><time>2026-05-02T14:40:39Z</time></trkpt><trkpt lat="43.67238512197856" lon="12.039365154956014"><ele>436.0</ele><time>2026-05-02T14:40:40Z</time></trkpt><trkpt lat="43.67246107923923" lon="12.039360381493509"><ele>436.0</ele><time>2026-05-02T14:40:41Z</time></trkpt><trkpt lat="43.67254866777547" lon="12.039360419980978"><ele>436.0</ele><time>2026-05-02T14:40:42Z</time></trkpt><trkpt lat="43.67264641844894" lon="12.039355891936117"><ele>436.0</ele><time>2026-05-02T14:40:43Z</time></trkpt><trkpt lat="43.67274335340317" lon="12.039356088595712"><ele>436.0</ele><time>2026-05-02T14:40:44Z</time></trkpt><trkpt lat="43.67283999612635" lon="12.03935440710352"><ele>436.0</ele><time>2026-05-02T14:40:45Z</time></trkpt><trkpt lat="43.672936668719025" lon="12.0393542627518"><ele>436.4</ele><time>2026-05-02T14:40:46Z</time></trkpt><trkpt lat="43.67303470249561" lon="12.03935904937949"><ele>436.8</ele><time>2026-05-02T14:40:47Z</time></trkpt><trkpt lat="43.67313932201366" lon="12.039353495106964"><ele>437.19999999999993</ele><time>2026-05-02T14:40:48Z</time></trkpt><trkpt lat="43.67325276815492" lon="12.039346582597675"><ele>437.59999999999997</ele><time>2026-05-02T14:40:49Z</time></trkpt><trkpt lat="43.67337984259768" lon="12.039344367698037"><ele>438.0</ele><time>2026-05-02T14:40:50Z</time></trkpt><trkpt lat="43.67351066587795" lon="12.039342970570946"><ele>438.25</ele><time>2026-05-02T14:40:51Z</time></trkpt><trkpt lat="43.67363785921211" lon="12.039339760091988"><ele>438.5</ele><time>2026-05-02T14:40:52Z</time></trkpt><trkpt lat="43.67377428991367" lon="12.03933724074046"><ele>438.75</ele><time>2026-05-02T14:40:53Z</time></trkpt><trkpt lat="43.673894792302555" lon="12.03934443532418"><ele>439.0</ele><time>2026-05-02T14:40:54Z</time></trkpt><trkpt lat="43.6740043797606" lon="12.039343463926881"><ele>439.0</ele><time>2026-05-02T14:40:55Z</time></trkpt><trkpt lat="43.67411710423774" lon="12.039334264108037"><ele>439.0</ele><time>2026-05-02T14:40:56Z</time></trkpt><trkpt lat="43.674246463442266" lon="12.039293228384235"><ele>439.0</ele><time>2026-05-02T14:40:57Z</time></trkpt><trkpt lat="43.67438334259417" lon="12.039227517582361"><ele>439.0</ele><time>2026-05-02T14:40:58Z</time></trkpt><trkpt lat="43.67452472769292" lon="12.039147558923034"><ele>439.0</ele><time>2026-05-02T14:40:59Z</time></trkpt><trkpt lat="43.674678005215895" lon="12.03905923776125"><ele>439.0</ele><time>2026-05-02T14:41:00Z</time></trkpt><trkpt lat="43.674841072909686" lon="12.03897256005595"><ele>439.0</ele><time>2026-05-02T14:41:01Z</time></trkpt><trkpt lat="43.67501003374071" lon="12.038885535402418"><ele>439.0</ele><time>2026-05-02T14:41:02Z</time></trkpt><trkpt lat="43.67518707450589" lon="12.038790271608967"><ele>439.0</ele><time>2026-05-02T14:41:03Z</time></trkpt><trkpt lat="43.6753653133301" lon="12.038696318198467"><ele>439.0</ele><time>2026-05-02T14:41:04Z</time></trkpt><trkpt lat="43.6755298402632" lon="12.038613639789032"><ele>438.6666666666667</ele><time>2026-05-02T14:41:05Z</time></trkpt><trkpt lat="43.675690986646536" lon="12.038529231258563"><ele>438.33333333333337</ele><time>2026-05-02T14:41:06Z</time></trkpt><trkpt lat="43.675842741012616" lon="12.038448241382737"><ele>438.0</ele><time>2026-05-02T14:41:07Z</time></trkpt><trkpt lat="43.67597823240132" lon="12.03838036963073"><ele>438.5</ele><time>2026-05-02T14:41:08Z</time></trkpt><trkpt lat="43.676110116340396" lon="12.03831341880961"><ele>439.0</ele><time>2026-05-02T14:41:09Z</time></trkpt><trkpt lat="43.676230816026994" lon="12.038251905847321"><ele>439.5</ele><time>2026-05-02T14:41:10Z</time></trkpt><trkpt lat="43.676334450538036" lon="12.038197108118915"><ele>440.0</ele><time>2026-05-02T14:41:11Z</time></trkpt><trkpt lat="43.67642514957775" lon="12.038150529418338"><ele>440.16666666666663</ele><time>2026-05-02T14:41:12Z</time></trkpt><trkpt lat="43.676505310364206" lon="12.038116620098911"><ele>440.3333333333333</ele><time>2026-05-02T14:41:13Z</time></trkpt><trkpt lat="43.67656752229032" lon="12.038085709917947"><ele>440.5</ele><time>2026-05-02T14:41:14Z</time></trkpt><trkpt lat="43.67664255554123" lon="12.038050203449242"><ele>440.66666666666663</ele><time>2026-05-02T14:41:16Z</time></trkpt><trkpt lat="43.676721572023474" lon="12.037985187728736"><ele>440.8333333333333</ele><time>2026-05-02T14:43:00Z</time></trkpt><trkpt lat="43.67682133453599" lon="12.037929074266591"><ele>441.0</ele><time>2026-05-02T14:43:01Z</time></trkpt><trkpt lat="43.67691274223001" lon="12.0378796437536"><ele>441.6</ele><time>2026-05-02T14:43:02Z</time></trkpt><trkpt lat="43.677004074196006" lon="12.037828469945486"><ele>442.20000000000005</ele><time>2026-05-02T14:43:03Z</time></trkpt><trkpt lat="43.67710710453762" lon="12.037770672396729"><ele>442.79999999999995</ele><time>2026-05-02T14:43:04Z</time></trkpt><trkpt lat="43.67721585745174" lon="12.037717301663278"><ele>443.4</ele><time>2026-05-02T14:43:05Z</time></trkpt><trkpt lat="43.67731955628868" lon="12.037666749707402"><ele>444.0</ele><time>2026-05-02T14:43:06Z</time></trkpt><trkpt lat="43.67741711215111" lon="12.037615027142747"><ele>444.0</ele><time>2026-05-02T14:43:07Z</time></trkpt><trkpt lat="43.67750876465257" lon="12.037560270487644"><ele>444.0</ele><time>2026-05-02T14:43:08Z</time></trkpt><trkpt lat="43.67760294162598" lon="12.037510430197454"><ele>444.0</ele><time>2026-05-02T14:43:09Z</time></trkpt><trkpt lat="43.67769720884218" lon="12.037461044858905"><ele>444.0</ele><time>2026-05-02T14:43:10Z</time></trkpt><trkpt lat="43.67778745912542" lon="12.037409174416114"><ele>444.0</ele><time>2026-05-02T14:43:11Z</time></trkpt><trkpt lat="43.677872300854574" lon="12.037374062082824"><ele>446.0</ele><time>2026-05-02T14:43:12Z</time></trkpt><trkpt lat="43.67796484855996" lon="12.037325348746956"><ele>448.0</ele><time>2026-05-02T14:43:13Z</time></trkpt><trkpt lat="43.67807718513497" lon="12.037260708817149"><ele>450.0</ele><time>2026-05-02T14:43:14Z</time></trkpt><trkpt lat="43.67820245024853" lon="12.037213025496412"><ele>452.0</ele><time>2026-05-02T14:43:15Z</time></trkpt><trkpt lat="43.67832342422448" lon="12.037149219216202"><ele>452.0</ele><time>2026-05-02T14:43:16Z</time></trkpt><trkpt lat="43.67844126676975" lon="12.037090293510465"><ele>452.0</ele><time>2026-05-02T14:43:17Z</time></trkpt><trkpt lat="43.67855525607644" lon="12.037018026794016"><ele>452.0</ele><time>2026-05-02T14:43:18Z</time></trkpt><trkpt lat="43.678674239934296" lon="12.036992455143215"><ele>452.0</ele><time>2026-05-02T14:43:19Z</time></trkpt><trkpt lat="43.67878526380552" lon="12.03694792047149"><ele>451.75</ele><time>2026-05-02T14:43:20Z</time></trkpt><trkpt lat="43.67889303674384" lon="12.036880983907698"><ele>451.5</ele><time>2026-05-02T14:43:21Z</time></trkpt><trkpt lat="43.679016451874766" lon="12.036825565713308"><ele>451.25</ele><time>2026-05-02T14:43:22Z</time></trkpt><trkpt lat="43.67915893439925" lon="12.036768383065901"><ele>451.0</ele><time>2026-05-02T14:43:23Z</time></trkpt><trkpt lat="43.679311410264646" lon="12.036714604822492"><ele>450.0</ele><time>2026-05-02T14:43:24Z</time></trkpt><trkpt lat="43.67946126015982" lon="12.036674001174791"><ele>449.0</ele><time>2026-05-02T14:43:25Z</time></trkpt><trkpt lat="43.67959731438965" lon="12.036627055423711"><ele>448.0</ele><time>2026-05-02T14:43:26Z</time></trkpt><trkpt lat="43.6797474930132" lon="12.036536657262552"><ele>449.6666666666667</ele><time>2026-05-02T14:43:27Z</time></trkpt><trkpt lat="43.679931131522295" lon="12.036448699903541"><ele>451.33333333333337</ele><time>2026-05-02T14:43:28Z</time></trkpt><trkpt lat="43.68010848224113" lon="12.036437609028184"><ele>453.0</ele><time>2026-05-02T14:43:29Z</time></trkpt><trkpt lat="43.68029194447867" lon="12.036444759186475"><ele>453.0</ele><time>2026-05-02T14:43:30Z</time></trkpt><trkpt lat="43.68047779213768" lon="12.036449842845931"><ele>453.0</ele><time>2026-05-02T14:43:31Z</time></trkpt><trkpt lat="43.68064878833723" lon="12.036458521107996"><ele>453.0</ele><time>2026-05-02T14:43:32Z</time></trkpt><trkpt lat="43.680822017953254" lon="12.036471585750707"><ele>453.0</ele><time>2026-05-02T14:43:33Z</time></trkpt><trkpt lat="43.681000122141384" lon="12.03645798467879"><ele>453.0</ele><time>2026-05-02T14:43:34Z</time></trkpt><trkpt lat="43.681172106412404" lon="12.036430209240006"><ele>453.0</ele><time>2026-05-02T14:43:35Z</time></trkpt><trkpt lat="43.68131895016638" lon="12.036395458715665"><ele>452.75</ele><time>2026-05-02T14:43:36Z</time></trkpt><trkpt lat="43.68145815918748" lon="12.036365439780706"><ele>452.5</ele><time>2026-05-02T14:43:37Z</time></trkpt><trkpt lat="43.68158986418079" lon="12.036343898000469"><ele>452.25</ele><time>2026-05-02T14:43:38Z</time></trkpt><trkpt lat="43.68171959433628" lon="12.036320392033582"><ele>452.0</ele><time>2026-05-02T14:43:39Z</time></trkpt><trkpt lat="43.68184456574878" lon="12.036296324448248"><ele>452.6</ele><time>2026-05-02T14:43:40Z</time></trkpt><trkpt lat="43.68195893963329" lon="12.036271717135087"><ele>453.20000000000005</ele><time>2026-05-02T14:43:41Z</time></trkpt><trkpt lat="43.68205841429201" lon="12.036249096007795"><ele>453.8</ele><time>2026-05-02T14:43:42Z</time></trkpt><trkpt lat="43.68214715072562" lon="12.036256368789982"><ele>454.4</ele><time>2026-05-02T14:43:43Z</time></trkpt><trkpt lat="43.682218582684335" lon="12.036267957907338"><ele>455.0</ele><time>2026-05-02T14:43:44Z</time></trkpt><trkpt lat="43.6822764458537" lon="12.036380072268619"><ele>455.0</ele><time>2026-05-02T14:43:45Z</time></trkpt><trkpt lat="43.68232136484791" lon="12.03648961889329"><ele>455.0</ele><time>2026-05-02T14:43:46Z</time></trkpt><trkpt lat="43.682345221416774" lon="12.036611641549456"><ele>455.0</ele><time>2026-05-02T14:43:47Z</time></trkpt><trkpt lat="43.682337133086186" lon="12.036735912587547"><ele>455.0</ele><time>2026-05-02T14:43:48Z</time></trkpt><trkpt lat="43.68233103245091" lon="12.036854223169057"><ele>455.0</ele><time>2026-05-02T14:43:49Z</time></trkpt><trkpt lat="43.682257929053186" lon="12.036949295603058"><ele>454.2</ele><time>2026-05-02T14:43:50Z</time></trkpt><trkpt lat="43.68222278759182" lon="12.037037659503213"><ele>453.4</ele><time>2026-05-02T14:43:51Z</time></trkpt><trkpt lat="43.68219186903837" lon="12.037154768780372"><ele>452.6</ele><time>2026-05-02T14:43:52Z</time></trkpt><trkpt lat="43.68214248380332" lon="12.037278196317418"><ele>451.8</ele><time>2026-05-02T14:43:53Z</time></trkpt><trkpt lat="43.682086522469646" lon="12.037411617138284"><ele>451.0</ele><time>2026-05-02T14:43:54Z</time></trkpt><trkpt lat="43.68202555872812" lon="12.03754276063292"><ele>450.6</ele><time>2026-05-02T14:43:55Z</time></trkpt><trkpt lat="43.68195698635768" lon="12.037655823264073"><ele>450.20000000000005</ele><time>2026-05-02T14:43:56Z</time></trkpt><trkpt lat="43.68186970360011" lon="12.037721504050655"><ele>449.79999999999995</ele><time>2026-05-02T14:43:57Z</time></trkpt><trkpt lat="43.681766791021005" lon="12.03773104029082"><ele>449.4</ele><time>2026-05-02T14:43:58Z</time></trkpt><trkpt lat="43.68165373502517" lon="12.037708792111301"><ele>449.0</ele><time>2026-05-02T14:43:59Z</time></trkpt><trkpt lat="43.681525635912614" lon="12.037677294300604"><ele>448.5</ele><time>2026-05-02T14:44:00Z</time></trkpt><trkpt lat="43.68138442441212" lon="12.037651881483432"><ele>448.0</ele><time>2026-05-02T14:44:01Z</time></trkpt><trkpt lat="43.68124760612529" lon="12.037641018624326"><ele>447.5</ele><time>2026-05-02T14:44:02Z</time></trkpt><trkpt lat="43.681131209154636" lon="12.037613654936612"><ele>447.0</ele><time>2026-05-02T14:44:03Z</time></trkpt><trkpt lat="43.68104353623501" lon="12.037541582562483"><ele>447.1666666666667</ele><time>2026-05-02T14:44:04Z</time></trkpt><trkpt lat="43.680990569531765" lon="12.037454440863288"><ele>447.33333333333337</ele><time>2026-05-02T14:44:05Z</time></trkpt><trkpt lat="43.68099684362441" lon="12.037343610604278"><ele>447.5</ele><time>2026-05-02T14:44:06Z</time></trkpt><trkpt lat="43.68101143630269" lon="12.037245781530574"><ele>447.6666666666667</ele><time>2026-05-02T14:44:07Z</time></trkpt><trkpt lat="43.68105200319692" lon="12.03716278116511"><ele>447.83333333333337</ele><time>2026-05-02T14:44:08Z</time></trkpt><trkpt lat="43.68112014693633" lon="12.037106907244109"><ele>448.0</ele><time>2026-05-02T14:44:09Z</time></trkpt><trkpt lat="43.68119578337383" lon="12.03709454031802"><ele>448.0</ele><time>2026-05-02T14:44:10Z</time></trkpt><trkpt lat="43.68127466139782" lon="12.037122776242926"><ele>448.0</ele><time>2026-05-02T14:44:11Z</time></trkpt><trkpt lat="43.68137197936141" lon="12.037175207588415"><ele>448.0</ele><time>2026-05-02T14:44:12Z</time></trkpt><trkpt lat="43.68149735052781" lon="12.037227122028462"><ele>448.0</ele><time>2026-05-02T14:44:13Z</time></trkpt><trkpt lat="43.68164685101639" lon="12.037279999760006"><ele>448.0</ele><time>2026-05-02T14:44:14Z</time></trkpt><trkpt lat="43.68179463751327" lon="12.037336893479583"><ele>448.0</ele><time>2026-05-02T14:44:15Z</time></trkpt><trkpt lat="43.68195193098027" lon="12.037396102204179"><ele>448.0</ele><time>2026-05-02T14:44:16Z</time></trkpt><trkpt lat="43.68212297342781" lon="12.037455781488942"><ele>448.33333333333337</ele><time>2026-05-02T14:44:17Z</time></trkpt><trkpt lat="43.6822999681507" lon="12.037522203002847"><ele>448.66666666666663</ele><time>2026-05-02T14:44:18Z</time></trkpt><trkpt lat="43.68249037466198" lon="12.037593959327948"><ele>449.0</ele><time>2026-05-02T14:44:19Z</time></trkpt><trkpt lat="43.68268008823502" lon="12.037667891783485"><ele>448.66666666666663</ele><time>2026-05-02T14:44:20Z</time></trkpt><trkpt lat="43.6828761673011" lon="12.037749929242368"><ele>448.33333333333337</ele><time>2026-05-02T14:44:21Z</time></trkpt><trkpt lat="43.68306823710537" lon="12.037835014550641"><ele>448.0</ele><time>2026-05-02T14:44:22Z</time></trkpt><trkpt lat="43.68324223090408" lon="12.037911911944978"><ele>448.0</ele><time>2026-05-02T14:44:23Z</time></trkpt><trkpt lat="43.68340689498078" lon="12.037985676788809"><ele>448.0</ele><time>2026-05-02T14:44:24Z</time></trkpt><trkpt lat="43.68357799405978" lon="12.038059398923137"><ele>448.0</ele><time>2026-05-02T14:44:25Z</time></trkpt><trkpt lat="43.68374494547059" lon="12.038131413574165"><ele>448.6666666666667</ele><time>2026-05-02T14:44:26Z</time></trkpt><trkpt lat="43.68390124554238" lon="12.038199596794803"><ele>449.33333333333337</ele><time>2026-05-02T14:44:27Z</time></trkpt><trkpt lat="43.68405953541433" lon="12.038260700924262"><ele>450.0</ele><time>2026-05-02T14:44:28Z</time></trkpt><trkpt lat="43.68423061237682" lon="12.038313747413621"><ele>450.0</ele><time>2026-05-02T14:44:29Z</time></trkpt><trkpt lat="43.68440162574592" lon="12.038368010177038"><ele>450.0</ele><time>2026-05-02T14:44:30Z</time></trkpt><trkpt lat="43.68457656250286" lon="12.038438754512255"><ele>450.0</ele><time>2026-05-02T14:44:31Z</time></trkpt><trkpt lat="43.6847585281196" lon="12.038517448870648"><ele>451.0</ele><time>2026-05-02T14:44:32Z</time></trkpt><trkpt lat="43.68494914030714" lon="12.038591874027972"><ele>452.0</ele><time>2026-05-02T14:44:33Z</time></trkpt><trkpt lat="43.68514545151395" lon="12.038659670850283"><ele>453.0</ele><time>2026-05-02T14:44:34Z</time></trkpt><trkpt lat="43.68534822398559" lon="12.038719887167346"><ele>453.33333333333337</ele><time>2026-05-02T14:44:35Z</time></trkpt><trkpt lat="43.685555834319025" lon="12.038769655717745"><ele>453.6666666666667</ele><time>2026-05-02T14:44:36Z</time></trkpt><trkpt lat="43.68576472438962" lon="12.038802829244776"><ele>454.0</ele><time>2026-05-02T14:44:37Z</time></trkpt><trkpt lat="43.68598117328226" lon="12.038822215873337"><ele>454.33333333333337</ele><time>2026-05-02T14:44:38Z</time></trkpt><trkpt lat="43.68619755609424" lon="12.038824331100798"><ele>454.66666666666663</ele><time>2026-05-02T14:44:39Z</time></trkpt><trkpt lat="43.686415390208" lon="12.038815288007902"><ele>455.0</ele><time>2026-05-02T14:44:40Z</time></trkpt><trkpt lat="43.68663392743596" lon="12.038789191183138"><ele>455.0</ele><time>2026-05-02T14:44:41Z</time></trkpt><trkpt lat="43.686850744855086" lon="12.038752254152683"><ele>455.0</ele><time>2026-05-02T14:44:42Z</time></trkpt><trkpt lat="43.68706817848487" lon="12.0386995789395"><ele>455.0</ele><time>2026-05-02T14:44:43Z</time></trkpt><trkpt lat="43.68727712934154" lon="12.038633013227889"><ele>458.0</ele><time>2026-05-02T14:44:44Z</time></trkpt><trkpt lat="43.687482366046794" lon="12.038552868067706"><ele>461.0</ele><time>2026-05-02T14:44:45Z</time></trkpt><trkpt lat="43.687683432040764" lon="12.03846075774137"><ele>464.0</ele><time>2026-05-02T14:44:46Z</time></trkpt><trkpt lat="43.68788232024925" lon="12.03834813555682"><ele>471.3333333333333</ele><time>2026-05-02T14:44:47Z</time></trkpt><trkpt lat="43.68807886351234" lon="12.038220902053139"><ele>478.66666666666663</ele><time>2026-05-02T14:44:48Z</time></trkpt><trkpt lat="43.68827634648851" lon="12.038085926637315"><ele>486.0</ele><time>2026-05-02T14:44:49Z</time></trkpt><trkpt lat="43.68846702419389" lon="12.037934989753447"><ele>486.66666666666663</ele><time>2026-05-02T14:44:50Z</time></trkpt><trkpt lat="43.68866077808744" lon="12.037786951748435"><ele>487.3333333333333</ele><time>2026-05-02T14:44:51Z</time></trkpt><trkpt lat="43.6888403562179" lon="12.037605507535698"><ele>488.0</ele><time>2026-05-02T14:44:52Z</time></trkpt><trkpt lat="43.6890148441856" lon="12.037420179612326"><ele>488.0</ele><time>2026-05-02T14:44:53Z</time></trkpt><trkpt lat="43.68917879411268" lon="12.037245731077913"><ele>488.0</ele><time>2026-05-02T14:44:54Z</time></trkpt><trkpt lat="43.68935209754394" lon="12.037067598184557"><ele>488.0</ele><time>2026-05-02T14:44:55Z</time></trkpt><trkpt lat="43.68952231296283" lon="12.036910556333124"><ele>488.0</ele><time>2026-05-02T14:44:56Z</time></trkpt><trkpt lat="43.68969819924409" lon="12.036773408885995"><ele>488.0</ele><time>2026-05-02T14:44:57Z</time></trkpt><trkpt lat="43.68987582828566" lon="12.036648708227977"><ele>488.0</ele><time>2026-05-02T14:44:58Z</time></trkpt><trkpt lat="43.690055497880245" lon="12.036531357830542"><ele>488.0</ele><time>2026-05-02T14:44:59Z</time></trkpt><trkpt lat="43.690233641777496" lon="12.036423010970584"><ele>488.0</ele><time>2026-05-02T14:45:00Z</time></trkpt><trkpt lat="43.6904097475719" lon="12.036329750136908"><ele>488.0</ele><time>2026-05-02T14:45:01Z</time></trkpt><trkpt lat="43.69058095130735" lon="12.036252163974808"><ele>484.66666666666663</ele><time>2026-05-02T14:45:02Z</time></trkpt><trkpt lat="43.690755728998674" lon="12.036183663684175"><ele>481.33333333333337</ele><time>2026-05-02T14:45:03Z</time></trkpt><trkpt lat="43.69094027325208" lon="12.03612151312353"><ele>478.0</ele><time>2026-05-02T14:45:04Z</time></trkpt><trkpt lat="43.69112621576784" lon="12.036072983756855"><ele>478.0</ele><time>2026-05-02T14:45:05Z</time></trkpt><trkpt lat="43.69132148850176" lon="12.036033507919397"><ele>478.0</ele><time>2026-05-02T14:45:06Z</time></trkpt><trkpt lat="43.69152633982686" lon="12.035998319405653"><ele>478.0</ele><time>2026-05-02T14:45:07Z</time></trkpt><trkpt lat="43.6917281312815" lon="12.035976190129885"><ele>480.6666666666667</ele><time>2026-05-02T14:45:08Z</time></trkpt><trkpt lat="43.69193280838623" lon="12.035976655029797"><ele>483.33333333333337</ele><time>2026-05-02T14:45:09Z</time></trkpt><trkpt lat="43.69214556823121" lon="12.035988231960904"><ele>486.0</ele><time>2026-05-02T14:45:10Z</time></trkpt><trkpt lat="43.69235581780666" lon="12.03600914147889"><ele>486.0</ele><time>2026-05-02T14:45:11Z</time></trkpt><trkpt lat="43.69257067903859" lon="12.036041340579894"><ele>486.0</ele><time>2026-05-02T14:45:12Z</time></trkpt><trkpt lat="43.69278364041773" lon="12.036090658329998"><ele>486.0</ele><time>2026-05-02T14:45:13Z</time></trkpt><trkpt lat="43.692993608185496" lon="12.036157275868032"><ele>491.33333333333337</ele><time>2026-05-02T14:45:14Z</time></trkpt><trkpt lat="43.693205580070845" lon="12.036221021245975"><ele>496.6666666666667</ele><time>2026-05-02T14:45:15Z</time></trkpt><trkpt lat="43.69340913046798" lon="12.03628400644051"><ele>502.0</ele><time>2026-05-02T14:45:16Z</time></trkpt><trkpt lat="43.6936179097947" lon="12.036339035838841"><ele>507.6666666666667</ele><time>2026-05-02T14:45:17Z</time></trkpt><trkpt lat="43.69382048207885" lon="12.036380443011135"><ele>513.3333333333334</ele><time>2026-05-02T14:45:18Z</time></trkpt><trkpt lat="43.69402204753738" lon="12.036413327395064"><ele>519.0</ele><time>2026-05-02T14:45:19Z</time></trkpt><trkpt lat="43.69421539212805" lon="12.03642729331247"><ele>510.66666666666663</ele><time>2026-05-02T14:45:20Z</time></trkpt><trkpt lat="43.6944276446564" lon="12.036432635875073"><ele>502.3333333333333</ele><time>2026-05-02T14:45:21Z</time></trkpt><trkpt lat="43.69465042796791" lon="12.036432247218624"><ele>494.0</ele><time>2026-05-02T14:45:22Z</time></trkpt><trkpt lat="43.69487049577908" lon="12.03642064015045"><ele>494.0</ele><time>2026-05-02T14:45:23Z</time></trkpt><trkpt lat="43.695083548258474" lon="12.036391141473288"><ele>494.0</ele><time>2026-05-02T14:45:24Z</time></trkpt><trkpt lat="43.6952952381909" lon="12.036347515230018"><ele>494.0</ele><time>2026-05-02T14:45:25Z</time></trkpt><trkpt lat="43.695500677312104" lon="12.036290298087271"><ele>491.3333333333333</ele><time>2026-05-02T14:45:26Z</time></trkpt><trkpt lat="43.69570740263732" lon="12.036218915629705"><ele>488.66666666666663</ele><time>2026-05-02T14:45:27Z</time></trkpt><trkpt lat="43.695915617740326" lon="12.03613752406224"><ele>486.0</ele><time>2026-05-02T14:45:28Z</time></trkpt><trkpt lat="43.69612868195943" lon="12.036039486322117"><ele>480.5</ele><time>2026-05-02T14:45:29Z</time></trkpt><trkpt lat="43.69634450428626" lon="12.03592845868656"><ele>475.0</ele><time>2026-05-02T14:45:30Z</time></trkpt><trkpt lat="43.69655467356016" lon="12.035820999223741"><ele>478.0</ele><time>2026-05-02T14:45:31Z</time></trkpt><trkpt lat="43.69675065283318" lon="12.035724970537364"><ele>481.0</ele><time>2026-05-02T14:45:32Z</time></trkpt><trkpt lat="43.69692878410279" lon="12.03563630732166"><ele>484.0</ele><time>2026-05-02T14:45:33Z</time></trkpt><trkpt lat="43.697098018822736" lon="12.03555498705786"><ele>484.0</ele><time>2026-05-02T14:45:34Z</time></trkpt><trkpt lat="43.697262968497924" lon="12.035495567034548"><ele>484.0</ele><time>2026-05-02T14:45:35Z</time></trkpt><trkpt lat="43.697438559234385" lon="12.03545076480138"><ele>484.0</ele><time>2026-05-02T14:45:36Z</time></trkpt><trkpt lat="43.69763271647737" lon="12.035392556543174"><ele>482.6666666666667</ele><time>2026-05-02T14:45:37Z</time></trkpt><trkpt lat="43.6978351975089" lon="12.035306156617871"><ele>481.33333333333337</ele><time>2026-05-02T14:45:38Z</time></trkpt><trkpt lat="43.69804987277573" lon="12.035194786180195"><ele>480.0</ele><time>2026-05-02T14:45:39Z</time></trkpt><trkpt lat="43.6982705447821" lon="12.035082485014273"><ele>480.0</ele><time>2026-05-02T14:45:40Z</time></trkpt><trkpt lat="43.6984933127801" lon="12.034977187335961"><ele>480.0</ele><time>2026-05-02T14:45:41Z</time></trkpt><trkpt lat="43.69871044055638" lon="12.034873373328688"><ele>486.33333333333337</ele><time>2026-05-02T14:45:42Z</time></trkpt><trkpt lat="43.69890647155974" lon="12.034774723838277"><ele>492.6666666666667</ele><time>2026-05-02T14:45:43Z</time></trkpt><trkpt lat="43.69909110801872" lon="12.03467754414538"><ele>499.0</ele><time>2026-05-02T14:45:44Z</time></trkpt><trkpt lat="43.69926796630476" lon="12.034583674714975"><ele>495.33333333333337</ele><time>2026-05-02T14:45:45Z</time></trkpt><trkpt lat="43.69944174158283" lon="12.03448408960183"><ele>491.66666666666663</ele><time>2026-05-02T14:45:46Z</time></trkpt><trkpt lat="43.69962344890419" lon="12.034363524583945"><ele>488.0</ele><time>2026-05-02T14:45:47Z</time></trkpt><trkpt lat="43.69980530191612" lon="12.034225120619977"><ele>489.3333333333333</ele><time>2026-05-02T14:45:48Z</time></trkpt><trkpt lat="43.699987592964874" lon="12.034078766281315"><ele>490.66666666666663</ele><time>2026-05-02T14:45:49Z</time></trkpt><trkpt lat="43.700169735406874" lon="12.03391474136478"><ele>492.0</ele><time>2026-05-02T14:45:50Z</time></trkpt><trkpt lat="43.70034450467076" lon="12.0337318942638"><ele>493.5</ele><time>2026-05-02T14:45:51Z</time></trkpt><trkpt lat="43.70051835384383" lon="12.033531361205016"><ele>495.0</ele><time>2026-05-02T14:45:52Z</time></trkpt><trkpt lat="43.70068892109969" lon="12.033321710113865"><ele>494.66666666666663</ele><time>2026-05-02T14:45:53Z</time></trkpt><trkpt lat="43.700850375107485" lon="12.033108857316469"><ele>494.3333333333333</ele><time>2026-05-02T14:45:54Z</time></trkpt><trkpt lat="43.70100155376889" lon="12.032905152726672"><ele>494.0</ele><time>2026-05-02T14:45:55Z</time></trkpt><trkpt lat="43.70115146456246" lon="12.03270651191582"><ele>495.0</ele><time>2026-05-02T14:45:56Z</time></trkpt><trkpt lat="43.70130293705012" lon="12.032505323422225"><ele>496.0</ele><time>2026-05-02T14:45:57Z</time></trkpt><trkpt lat="43.701458044615464" lon="12.032304206998065"><ele>497.0</ele><time>2026-05-02T14:45:58Z</time></trkpt><trkpt lat="43.70161632561894" lon="12.03210065384469"><ele>498.0</ele><time>2026-05-02T14:45:59Z</time></trkpt><trkpt lat="43.7017757774778" lon="12.031894154931805"><ele>499.0</ele><time>2026-05-02T14:46:00Z</time></trkpt><trkpt lat="43.70193635666925" lon="12.031684203832178"><ele>500.0</ele><time>2026-05-02T14:46:01Z</time></trkpt><trkpt lat="43.7020947002792" lon="12.031473220050412"><ele>500.0</ele><time>2026-05-02T14:46:02Z</time></trkpt><trkpt lat="43.70225507228561" lon="12.031256531633824"><ele>500.0</ele><time>2026-05-02T14:46:03Z</time></trkpt><trkpt lat="43.702419506424285" lon="12.031039807261012"><ele>500.0</ele><time>2026-05-02T14:46:04Z</time></trkpt><trkpt lat="43.70258851778776" lon="12.030824558042982"><ele>500.0</ele><time>2026-05-02T14:46:05Z</time></trkpt><trkpt lat="43.702755955216276" lon="12.030609525091085"><ele>499.66666666666663</ele><time>2026-05-02T14:46:06Z</time></trkpt><trkpt lat="43.702916791030766" lon="12.030400126616364"><ele>499.33333333333337</ele><time>2026-05-02T14:46:07Z</time></trkpt><trkpt lat="43.70306514081217" lon="12.03020232547952"><ele>499.0</ele><time>2026-05-02T14:46:08Z</time></trkpt><trkpt lat="43.70321584408169" lon="12.030012730048751"><ele>498.33333333333337</ele><time>2026-05-02T14:46:09Z</time></trkpt><trkpt lat="43.70337751677399" lon="12.02983225847569"><ele>497.66666666666663</ele><time>2026-05-02T14:46:10Z</time></trkpt><trkpt lat="43.703538975498816" lon="12.029674399498337"><ele>497.0</ele><time>2026-05-02T14:46:11Z</time></trkpt><trkpt lat="43.703700294724115" lon="12.029535163618553"><ele>495.0</ele><time>2026-05-02T14:46:12Z</time></trkpt><trkpt lat="43.70386495608608" lon="12.029394067712682"><ele>493.0</ele><time>2026-05-02T14:46:13Z</time></trkpt><trkpt lat="43.704036619828194" lon="12.029256595985252"><ele>491.0</ele><time>2026-05-02T14:46:14Z</time></trkpt><trkpt lat="43.704209862615244" lon="12.02913914472336"><ele>496.0</ele><time>2026-05-02T14:46:15Z</time></trkpt><trkpt lat="43.704371840746155" lon="12.029032647559745"><ele>501.0</ele><time>2026-05-02T14:46:16Z</time></trkpt><trkpt lat="43.70454124425022" lon="12.028936908080714"><ele>506.0</ele><time>2026-05-02T14:46:17Z</time></trkpt><trkpt lat="43.70470981683113" lon="12.028849169127268"><ele>506.0</ele><time>2026-05-02T14:46:18Z</time></trkpt><trkpt lat="43.70487803246167" lon="12.028771016296037"><ele>506.0</ele><time>2026-05-02T14:46:19Z</time></trkpt><trkpt lat="43.70505079649061" lon="12.028704011344429"><ele>506.0</ele><time>2026-05-02T14:46:20Z</time></trkpt><trkpt lat="43.705216449995596" lon="12.028649244485184"><ele>508.3333333333333</ele><time>2026-05-02T14:46:21Z</time></trkpt><trkpt lat="43.7053803792023" lon="12.02860057477331"><ele>510.66666666666663</ele><time>2026-05-02T14:46:22Z</time></trkpt><trkpt lat="43.70555171539188" lon="12.028558512439016"><ele>513.0</ele><time>2026-05-02T14:46:23Z</time></trkpt><trkpt lat="43.70573457061324" lon="12.028518620861501"><ele>513.0</ele><time>2026-05-02T14:46:24Z</time></trkpt><trkpt lat="43.70592791168318" lon="12.02849298399527"><ele>513.0</ele><time>2026-05-02T14:46:25Z</time></trkpt><trkpt lat="43.706129919764464" lon="12.02847387224104"><ele>513.0</ele><time>2026-05-02T14:46:26Z</time></trkpt><trkpt lat="43.706322032155654" lon="12.028468509596284"><ele>514.3333333333334</ele><time>2026-05-02T14:46:27Z</time></trkpt><trkpt lat="43.70651562561426" lon="12.028474733285329"><ele>515.6666666666667</ele><time>2026-05-02T14:46:28Z</time></trkpt><trkpt lat="43.70670986031844" lon="12.028488222179279"><ele>517.0</ele><time>2026-05-02T14:46:29Z</time></trkpt><trkpt lat="43.70690430871639" lon="12.028511342436996"><ele>516.6666666666667</ele><time>2026-05-02T14:46:30Z</time></trkpt><trkpt lat="43.707089224962616" lon="12.02853637182925"><ele>516.3333333333334</ele><time>2026-05-02T14:46:31Z</time></trkpt><trkpt lat="43.70728038449177" lon="12.028564490498331"><ele>516.0</ele><time>2026-05-02T14:46:32Z</time></trkpt><trkpt lat="43.70747457172927" lon="12.028584834208536"><ele>516.0</ele><time>2026-05-02T14:46:33Z</time></trkpt><trkpt lat="43.70767077819733" lon="12.028608998284101"><ele>516.0</ele><time>2026-05-02T14:46:34Z</time></trkpt><trkpt lat="43.70786817278453" lon="12.028634808760605"><ele>516.0</ele><time>2026-05-02T14:46:35Z</time></trkpt><trkpt lat="43.70806669189038" lon="12.028662654734923"><ele>515.6666666666666</ele><time>2026-05-02T14:46:36Z</time></trkpt><trkpt lat="43.708263314632134" lon="12.02868886588847"><ele>515.3333333333333</ele><time>2026-05-02T14:46:37Z</time></trkpt><trkpt lat="43.708461678512585" lon="12.02871319003359"><ele>515.0</ele><time>2026-05-02T14:46:38Z</time></trkpt><trkpt lat="43.708661777936086" lon="12.02873584192373"><ele>514.0</ele><time>2026-05-02T14:46:39Z</time></trkpt><trkpt lat="43.70885841871519" lon="12.028753773181798"><ele>513.0</ele><time>2026-05-02T14:46:40Z</time></trkpt><trkpt lat="43.709055814831025" lon="12.028777856435514"><ele>512.0</ele><time>2026-05-02T14:46:41Z</time></trkpt><trkpt lat="43.70925678137942" lon="12.028807557061949"><ele>509.66666666666663</ele><time>2026-05-02T14:46:42Z</time></trkpt><trkpt lat="43.70945531959073" lon="12.028830439834914"><ele>507.33333333333337</ele><time>2026-05-02T14:46:43Z</time></trkpt><trkpt lat="43.70965831009103" lon="12.028856030481434"><ele>505.0</ele><time>2026-05-02T14:46:44Z</time></trkpt><trkpt lat="43.709859345593266" lon="12.028877137669337"><ele>505.0</ele><time>2026-05-02T14:46:45Z</time></trkpt><trkpt lat="43.71006448893039" lon="12.028901022353423"><ele>505.0</ele><time>2026-05-02T14:46:46Z</time></trkpt><trkpt lat="43.71027225032196" lon="12.028925973399952"><ele>505.0</ele><time>2026-05-02T14:46:47Z</time></trkpt><trkpt lat="43.71047849563938" lon="12.028952985350633"><ele>504.33333333333337</ele><time>2026-05-02T14:46:48Z</time></trkpt><trkpt lat="43.7106860047881" lon="12.028981113757293"><ele>503.66666666666663</ele><time>2026-05-02T14:46:49Z</time></trkpt><trkpt lat="43.71089100631982" lon="12.029007401129734"><ele>503.0</ele><time>2026-05-02T14:46:50Z</time></trkpt><trkpt lat="43.711099164008466" lon="12.029028914875276"><ele>503.0</ele><time>2026-05-02T14:46:51Z</time></trkpt><trkpt lat="43.711313035300215" lon="12.029054123955149"><ele>503.0</ele><time>2026-05-02T14:46:52Z</time></trkpt><trkpt lat="43.71153694128978" lon="12.029084013559197"><ele>503.0</ele><time>2026-05-02T14:46:53Z</time></trkpt><trkpt lat="43.71177166008543" lon="12.02911284242559"><ele>505.5</ele><time>2026-05-02T14:46:54Z</time></trkpt><trkpt lat="43.71201941339732" lon="12.029143159771825"><ele>508.0</ele><time>2026-05-02T14:46:55Z</time></trkpt><trkpt lat="43.7122642969162" lon="12.029174359597073"><ele>508.0</ele><time>2026-05-02T14:46:56Z</time></trkpt><trkpt lat="43.712505640353086" lon="12.029203627499976"><ele>508.0</ele><time>2026-05-02T14:46:57Z</time></trkpt><trkpt lat="43.712741153941415" lon="12.02923297672484"><ele>508.0</ele><time>2026-05-02T14:46:58Z</time></trkpt><trkpt lat="43.71296647807934" lon="12.029257651465146"><ele>508.0</ele><time>2026-05-02T14:46:59Z</time></trkpt><trkpt lat="43.713189369301745" lon="12.029286791962571"><ele>508.0</ele><time>2026-05-02T14:47:00Z</time></trkpt><trkpt lat="43.71341141565457" lon="12.02931559092175"><ele>508.0</ele><time>2026-05-02T14:47:01Z</time></trkpt><trkpt lat="43.713633205080555" lon="12.0293435928724"><ele>508.0</ele><time>2026-05-02T14:47:02Z</time></trkpt><trkpt lat="43.713860100954506" lon="12.029372337821906"><ele>508.0</ele><time>2026-05-02T14:47:03Z</time></trkpt><trkpt lat="43.71408560820192" lon="12.029400937077515"><ele>508.0</ele><time>2026-05-02T14:47:04Z</time></trkpt><trkpt lat="43.714313797088415" lon="12.029429763222815"><ele>508.0</ele><time>2026-05-02T14:47:05Z</time></trkpt><trkpt lat="43.71454164058171" lon="12.029455469096778"><ele>508.0</ele><time>2026-05-02T14:47:06Z</time></trkpt><trkpt lat="43.71476286310663" lon="12.029485418124029"><ele>508.0</ele><time>2026-05-02T14:47:07Z</time></trkpt><trkpt lat="43.71498774837079" lon="12.029512861506904"><ele>508.0</ele><time>2026-05-02T14:47:08Z</time></trkpt><trkpt lat="43.71520899146865" lon="12.029541028762884"><ele>508.0</ele><time>2026-05-02T14:47:09Z</time></trkpt><trkpt lat="43.71543153617929" lon="12.029571437762044"><ele>509.33333333333337</ele><time>2026-05-02T14:47:10Z</time></trkpt><trkpt lat="43.71564986732239" lon="12.029604615579663"><ele>510.66666666666663</ele><time>2026-05-02T14:47:11Z</time></trkpt><trkpt lat="43.71586401493081" lon="12.029645392890059"><ele>512.0</ele><time>2026-05-02T14:47:12Z</time></trkpt><trkpt lat="43.71607678847914" lon="12.029691089155465"><ele>514.6666666666666</ele><time>2026-05-02T14:47:13Z</time></trkpt><trkpt lat="43.716295390889535" lon="12.029739797510857"><ele>517.3333333333334</ele><time>2026-05-02T14:47:14Z</time></trkpt><trkpt lat="43.716511668108616" lon="12.029791303428734"><ele>520.0</ele><time>2026-05-02T14:47:15Z</time></trkpt><trkpt lat="43.716729664956596" lon="12.029841030647816"><ele>521.6666666666667</ele><time>2026-05-02T14:47:16Z</time></trkpt><trkpt lat="43.716947782972376" lon="12.029884451276352"><ele>523.3333333333334</ele><time>2026-05-02T14:47:17Z</time></trkpt><trkpt lat="43.71716509065642" lon="12.029929216277095"><ele>525.0</ele><time>2026-05-02T14:47:18Z</time></trkpt><trkpt lat="43.71738629969158" lon="12.029974890390108"><ele>520.5</ele><time>2026-05-02T14:47:19Z</time></trkpt><trkpt lat="43.71760876229921" lon="12.030020079702899"><ele>516.0</ele><time>2026-05-02T14:47:20Z</time></trkpt><trkpt lat="43.71783092147481" lon="12.030069629818657"><ele>514.5</ele><time>2026-05-02T14:47:21Z</time></trkpt><trkpt lat="43.71805531097375" lon="12.03011799137537"><ele>513.0</ele><time>2026-05-02T14:47:22Z</time></trkpt><trkpt lat="43.71827791829877" lon="12.030165421907718"><ele>513.0</ele><time>2026-05-02T14:47:23Z</time></trkpt><trkpt lat="43.71849052808448" lon="12.03021068307583"><ele>513.0</ele><time>2026-05-02T14:47:24Z</time></trkpt><trkpt lat="43.71870016143194" lon="12.030252958064448"><ele>513.0</ele><time>2026-05-02T14:47:25Z</time></trkpt><trkpt lat="43.71891510188691" lon="12.030298237510513"><ele>513.6666666666666</ele><time>2026-05-02T14:47:26Z</time></trkpt><trkpt lat="43.71913607749614" lon="12.030348533096944"><ele>514.3333333333333</ele><time>2026-05-02T14:47:27Z</time></trkpt><trkpt lat="43.71935365417126" lon="12.030395133143736"><ele>515.0</ele><time>2026-05-02T14:47:28Z</time></trkpt><trkpt lat="43.71957351961905" lon="12.030444651772068"><ele>516.6666666666666</ele><time>2026-05-02T14:47:29Z</time></trkpt><trkpt lat="43.71979365058188" lon="12.03049447401228"><ele>518.3333333333334</ele><time>2026-05-02T14:47:30Z</time></trkpt><trkpt lat="43.72001342880057" lon="12.030542618768688"><ele>520.0</ele><time>2026-05-02T14:47:31Z</time></trkpt><trkpt lat="43.72022264669469" lon="12.030588047079755"><ele>521.0</ele><time>2026-05-02T14:47:32Z</time></trkpt><trkpt lat="43.720414925871665" lon="12.030630449750559"><ele>522.0</ele><time>2026-05-02T14:47:33Z</time></trkpt><trkpt lat="43.72059785750777" lon="12.030665245579858"><ele>523.0</ele><time>2026-05-02T14:47:34Z</time></trkpt><trkpt lat="43.720781359602924" lon="12.03070149308076"><ele>523.0</ele><time>2026-05-02T14:47:35Z</time></trkpt><trkpt lat="43.7209673863687" lon="12.030758134538893"><ele>523.0</ele><time>2026-05-02T14:47:36Z</time></trkpt><trkpt lat="43.72115534643807" lon="12.03078751930413"><ele>523.0</ele><time>2026-05-02T14:47:37Z</time></trkpt><trkpt lat="43.72134731501281" lon="12.030823777471342"><ele>522.6666666666667</ele><time>2026-05-02T14:47:38Z</time></trkpt><trkpt lat="43.721538342052696" lon="12.030864221872077"><ele>522.3333333333334</ele><time>2026-05-02T14:47:39Z</time></trkpt><trkpt lat="43.721729509436265" lon="12.030905945131407"><ele>522.0</ele><time>2026-05-02T14:47:40Z</time></trkpt><trkpt lat="43.721925927903854" lon="12.030950441189997"><ele>522.6666666666666</ele><time>2026-05-02T14:47:41Z</time></trkpt><trkpt lat="43.72212515405725" lon="12.030993651788869"><ele>523.3333333333333</ele><time>2026-05-02T14:47:42Z</time></trkpt><trkpt lat="43.722326626011345" lon="12.031037718203907"><ele>524.0</ele><time>2026-05-02T14:47:43Z</time></trkpt><trkpt lat="43.722535957479366" lon="12.031081699943583"><ele>525.5</ele><time>2026-05-02T14:47:44Z</time></trkpt><trkpt lat="43.72275616954333" lon="12.031120930731404"><ele>527.0</ele><time>2026-05-02T14:47:45Z</time></trkpt><trkpt lat="43.72298658731946" lon="12.031165917411048"><ele>527.0</ele><time>2026-05-02T14:47:46Z</time></trkpt><trkpt lat="43.723221394000355" lon="12.031205849667744"><ele>527.0</ele><time>2026-05-02T14:47:47Z</time></trkpt><trkpt lat="43.723457871068156" lon="12.03124127583653"><ele>529.0</ele><time>2026-05-02T14:47:48Z</time></trkpt><trkpt lat="43.7237036848087" lon="12.031252082363391"><ele>531.0</ele><time>2026-05-02T14:47:49Z</time></trkpt><trkpt lat="43.72395115674472" lon="12.031237826573488"><ele>531.0</ele><time>2026-05-02T14:47:50Z</time></trkpt><trkpt lat="43.724205279772825" lon="12.031201491740795"><ele>531.0</ele><time>2026-05-02T14:47:51Z</time></trkpt><trkpt lat="43.72447032236359" lon="12.031156804857849"><ele>533.0</ele><time>2026-05-02T14:47:52Z</time></trkpt><trkpt lat="43.724739292599146" lon="12.031101219874737"><ele>535.0</ele><time>2026-05-02T14:47:53Z</time></trkpt><trkpt lat="43.725008698458275" lon="12.031025631656087"><ele>540.0</ele><time>2026-05-02T14:47:54Z</time></trkpt><trkpt lat="43.72527773954855" lon="12.030930897310915"><ele>545.0</ele><time>2026-05-02T14:47:55Z</time></trkpt><trkpt lat="43.72553119432295" lon="12.030825657747018"><ele>540.5</ele><time>2026-05-02T14:47:56Z</time></trkpt><trkpt lat="43.72578786773279" lon="12.03070305713968"><ele>536.0</ele><time>2026-05-02T14:47:57Z</time></trkpt><trkpt lat="43.72604289554453" lon="12.03055964269767"><ele>541.5</ele><time>2026-05-02T14:47:58Z</time></trkpt><trkpt lat="43.72629564818952" lon="12.030396462054995"><ele>547.0</ele><time>2026-05-02T14:47:59Z</time></trkpt><trkpt lat="43.72653912554023" lon="12.03021771108598"><ele>547.0</ele><time>2026-05-02T14:48:00Z</time></trkpt><trkpt lat="43.72677540037756" lon="12.030029119673525"><ele>547.0</ele><time>2026-05-02T14:48:01Z</time></trkpt><trkpt lat="43.72701587911374" lon="12.029839366905966"><ele>546.0</ele><time>2026-05-02T14:48:02Z</time></trkpt><trkpt lat="43.727256627223255" lon="12.029645498713048"><ele>545.0</ele><time>2026-05-02T14:48:03Z</time></trkpt><trkpt lat="43.72749975104137" lon="12.029446796121137"><ele>543.5</ele><time>2026-05-02T14:48:04Z</time></trkpt><trkpt lat="43.7277477260527" lon="12.029243503722412"><ele>542.0</ele><time>2026-05-02T14:48:05Z</time></trkpt><trkpt lat="43.727997326506" lon="12.02903857395185"><ele>542.0</ele><time>2026-05-02T14:48:06Z</time></trkpt><trkpt lat="43.728241541179536" lon="12.028833978059238"><ele>542.0</ele><time>2026-05-02T14:48:07Z</time></trkpt><trkpt lat="43.728482896830805" lon="12.028630636015448"><ele>544.0</ele><time>2026-05-02T14:48:08Z</time></trkpt><trkpt lat="43.728715409980865" lon="12.028439221722373"><ele>546.0</ele><time>2026-05-02T14:48:09Z</time></trkpt><trkpt lat="43.72893551943312" lon="12.02825440533584"><ele>546.0</ele><time>2026-05-02T14:48:10Z</time></trkpt><trkpt lat="43.72915336610243" lon="12.02807439216842"><ele>546.0</ele><time>2026-05-02T14:48:11Z</time></trkpt><trkpt lat="43.72936584205854" lon="12.027901066260785"><ele>552.5</ele><time>2026-05-02T14:48:12Z</time></trkpt><trkpt lat="43.72958391077606" lon="12.027731301900108"><ele>559.0</ele><time>2026-05-02T14:48:13Z</time></trkpt><trkpt lat="43.72981060839571" lon="12.027574904720348"><ele>559.0</ele><time>2026-05-02T14:48:14Z</time></trkpt><trkpt lat="43.73004810560693" lon="12.027435377039666"><ele>559.0</ele><time>2026-05-02T14:48:15Z</time></trkpt><trkpt lat="43.73029468060963" lon="12.027304961256657"><ele>559.0</ele><time>2026-05-02T14:48:16Z</time></trkpt><trkpt lat="43.730547958848405" lon="12.027188349244145"><ele>559.0</ele><time>2026-05-02T14:48:17Z</time></trkpt><trkpt lat="43.73080693243012" lon="12.027088193238592"><ele>558.5</ele><time>2026-05-02T14:48:18Z</time></trkpt><trkpt lat="43.73107054712279" lon="12.027002472949649"><ele>558.0</ele><time>2026-05-02T14:48:19Z</time></trkpt><trkpt lat="43.73133189501659" lon="12.026931922664824"><ele>558.0</ele><time>2026-05-02T14:48:20Z</time></trkpt><trkpt lat="43.731588777930476" lon="12.026880333452779"><ele>558.0</ele><time>2026-05-02T14:48:21Z</time></trkpt><trkpt lat="43.73184241837549" lon="12.026851538840402"><ele>551.0</ele><time>2026-05-02T14:48:22Z</time></trkpt><trkpt lat="43.73210204420299" lon="12.02683075706664"><ele>544.0</ele><time>2026-05-02T14:48:23Z</time></trkpt><trkpt lat="43.7323648019447" lon="12.026822097261947"><ele>544.0</ele><time>2026-05-02T14:48:24Z</time></trkpt><trkpt lat="43.732630573811065" lon="12.026829964488869"><ele>544.0</ele><time>2026-05-02T14:48:25Z</time></trkpt><trkpt lat="43.73289571935571" lon="12.026861417516852"><ele>543.5</ele><time>2026-05-02T14:48:26Z</time></trkpt><trkpt lat="43.73316693045905" lon="12.026908368894823"><ele>543.0</ele><time>2026-05-02T14:48:27Z</time></trkpt><trkpt lat="43.73343635993281" lon="12.026972490088452"><ele>543.5</ele><time>2026-05-02T14:48:28Z</time></trkpt><trkpt lat="43.73370521683523" lon="12.027056566717784"><ele>544.0</ele><time>2026-05-02T14:48:29Z</time></trkpt><trkpt lat="43.73397518118398" lon="12.027156391677602"><ele>544.0</ele><time>2026-05-02T14:48:30Z</time></trkpt><trkpt lat="43.73423648834478" lon="12.027273958586097"><ele>544.0</ele><time>2026-05-02T14:48:31Z</time></trkpt><trkpt lat="43.7344908130446" lon="12.027407460787988"><ele>547.0</ele><time>2026-05-02T14:48:32Z</time></trkpt><trkpt lat="43.73473486217032" lon="12.027545935074018"><ele>550.0</ele><time>2026-05-02T14:48:33Z</time></trkpt><trkpt lat="43.734956856267196" lon="12.02768021553844"><ele>550.0</ele><time>2026-05-02T14:48:34Z</time></trkpt><trkpt lat="43.735164315427646" lon="12.02780788044784"><ele>550.0</ele><time>2026-05-02T14:48:35Z</time></trkpt><trkpt lat="43.7353657590733" lon="12.027929837793634"><ele>550.0</ele><time>2026-05-02T14:48:36Z</time></trkpt><trkpt lat="43.735557801629916" lon="12.028042141694476"><ele>557.3333333333334</ele><time>2026-05-02T14:48:37Z</time></trkpt><trkpt lat="43.73575679859491" lon="12.028147945383084"><ele>564.6666666666666</ele><time>2026-05-02T14:48:38Z</time></trkpt><trkpt lat="43.735959810489426" lon="12.028238112627898"><ele>572.0</ele><time>2026-05-02T14:48:39Z</time></trkpt><trkpt lat="43.736162750592015" lon="12.028328669456512"><ele>573.6666666666666</ele><time>2026-05-02T14:48:40Z</time></trkpt><trkpt lat="43.736366763990524" lon="12.02844556353036"><ele>575.3333333333334</ele><time>2026-05-02T14:48:41Z</time></trkpt><trkpt lat="43.73657384290352" lon="12.028573036453151"><ele>577.0</ele><time>2026-05-02T14:48:42Z</time></trkpt><trkpt lat="43.736786097754006" lon="12.028705362726123"><ele>569.0</ele><time>2026-05-02T14:48:43Z</time></trkpt><trkpt lat="43.737009343430856" lon="12.028840010746206"><ele>561.0</ele><time>2026-05-02T14:48:44Z</time></trkpt><trkpt lat="43.737238267501795" lon="12.028976981898214"><ele>561.0</ele><time>2026-05-02T14:48:45Z</time></trkpt><trkpt lat="43.73746339167626" lon="12.029112288908877"><ele>561.0</ele><time>2026-05-02T14:48:46Z</time></trkpt><trkpt lat="43.737694155849645" lon="12.029249058564318"><ele>569.5</ele><time>2026-05-02T14:48:47Z</time></trkpt><trkpt lat="43.737922497193956" lon="12.02938629194554"><ele>578.0</ele><time>2026-05-02T14:48:48Z</time></trkpt><trkpt lat="43.738154311753846" lon="12.029528044246428"><ele>578.0</ele><time>2026-05-02T14:48:49Z</time></trkpt><trkpt lat="43.73838503873993" lon="12.029667589415507"><ele>578.0</ele><time>2026-05-02T14:48:50Z</time></trkpt><trkpt lat="43.73861634349972" lon="12.029807963608189"><ele>588.0</ele><time>2026-05-02T14:48:51Z</time></trkpt><trkpt lat="43.738849292393674" lon="12.029948452631961"><ele>598.0</ele><time>2026-05-02T14:48:52Z</time></trkpt><trkpt lat="43.7390770134929" lon="12.030082017096195"><ele>598.0</ele><time>2026-05-02T14:48:53Z</time></trkpt><trkpt lat="43.73929342577739" lon="12.030209230961562"><ele>598.0</ele><time>2026-05-02T14:48:54Z</time></trkpt><trkpt lat="43.73949600320797" lon="12.030333304649194"><ele>608.0</ele><time>2026-05-02T14:48:55Z</time></trkpt><trkpt lat="43.73970109504133" lon="12.030459087681246"><ele>618.0</ele><time>2026-05-02T14:48:56Z</time></trkpt><trkpt lat="43.73991986044465" lon="12.030582041525017"><ele>618.0</ele><time>2026-05-02T14:48:57Z</time></trkpt><trkpt lat="43.74013381289029" lon="12.03069618706273"><ele>618.0</ele><time>2026-05-02T14:48:58Z</time></trkpt><trkpt lat="43.74035116269304" lon="12.030803786717565"><ele>616.0</ele><time>2026-05-02T14:48:59Z</time></trkpt><trkpt lat="43.740570617148535" lon="12.030902782631479"><ele>614.0</ele><time>2026-05-02T14:49:00Z</time></trkpt><trkpt lat="43.74079781844324" lon="12.031005733760523"><ele>614.0</ele><time>2026-05-02T14:49:01Z</time></trkpt><trkpt lat="43.74102478131708" lon="12.031094617443141"><ele>614.0</ele><time>2026-05-02T14:49:02Z</time></trkpt><trkpt lat="43.741256748229915" lon="12.031172653430355"><ele>625.0</ele><time>2026-05-02T14:49:03Z</time></trkpt><trkpt lat="43.74149179896508" lon="12.031247442932095"><ele>636.0</ele><time>2026-05-02T14:49:04Z</time></trkpt><trkpt lat="43.741723681162995" lon="12.03132807876486"><ele>635.3333333333334</ele><time>2026-05-02T14:49:05Z</time></trkpt><trkpt lat="43.74194208932569" lon="12.031404944892415"><ele>634.6666666666667</ele><time>2026-05-02T14:49:06Z</time></trkpt><trkpt lat="43.74215509972598" lon="12.031478398121964"><ele>634.0</ele><time>2026-05-02T14:49:07Z</time></trkpt><trkpt lat="43.742358289372866" lon="12.031546425305809"><ele>634.0</ele><time>2026-05-02T14:49:08Z</time></trkpt><trkpt lat="43.74254972726759" lon="12.031611857905654"><ele>634.0</ele><time>2026-05-02T14:49:09Z</time></trkpt><trkpt lat="43.74274578309705" lon="12.031680550561674"><ele>634.0</ele><time>2026-05-02T14:49:10Z</time></trkpt><trkpt lat="43.74293610234282" lon="12.031749272307732"><ele>615.0</ele><time>2026-05-02T14:49:11Z</time></trkpt><trkpt lat="43.74312312636175" lon="12.03181254199617"><ele>596.0</ele><time>2026-05-02T14:49:12Z</time></trkpt><trkpt lat="43.743300388010155" lon="12.031875200866223"><ele>577.0</ele><time>2026-05-02T14:49:13Z</time></trkpt><trkpt lat="43.74347138788648" lon="12.031935360886576"><ele>578.6666666666667</ele><time>2026-05-02T14:49:14Z</time></trkpt><trkpt lat="43.74365150346619" lon="12.031996816278465"><ele>580.3333333333334</ele><time>2026-05-02T14:49:15Z</time></trkpt><trkpt lat="43.743836336539054" lon="12.032058497860458"><ele>582.0</ele><time>2026-05-02T14:49:16Z</time></trkpt><trkpt lat="43.74401667192185" lon="12.032121030300642"><ele>582.0</ele><time>2026-05-02T14:49:17Z</time></trkpt><trkpt lat="43.74419815738109" lon="12.032184514937224"><ele>582.0</ele><time>2026-05-02T14:49:18Z</time></trkpt><trkpt lat="43.74436801043604" lon="12.03224045720665"><ele>582.0</ele><time>2026-05-02T14:49:19Z</time></trkpt><trkpt lat="43.74454672308248" lon="12.032300872009426"><ele>583.3333333333334</ele><time>2026-05-02T14:49:20Z</time></trkpt><trkpt lat="43.74472401517274" lon="12.032363093868257"><ele>584.6666666666667</ele><time>2026-05-02T14:49:21Z</time></trkpt><trkpt lat="43.744905586352175" lon="12.032426058734451"><ele>586.0</ele><time>2026-05-02T14:49:22Z</time></trkpt><trkpt lat="43.74508742648592" lon="12.03248977882898"><ele>588.6666666666667</ele><time>2026-05-02T14:49:23Z</time></trkpt><trkpt lat="43.74526516018162" lon="12.032552462171614"><ele>591.3333333333334</ele><time>2026-05-02T14:49:24Z</time></trkpt><trkpt lat="43.74543125206642" lon="12.03260738067904"><ele>594.0</ele><time>2026-05-02T14:49:25Z</time></trkpt><trkpt lat="43.74559054261994" lon="12.032666662293954"><ele>594.0</ele><time>2026-05-02T14:49:26Z</time></trkpt><trkpt lat="43.745755158026064" lon="12.032725551084903"><ele>594.0</ele><time>2026-05-02T14:49:27Z</time></trkpt><trkpt lat="43.74590157555386" lon="12.032777703588714"><ele>594.0</ele><time>2026-05-02T14:49:28Z</time></trkpt><trkpt lat="43.746042048080895" lon="12.032827615709733"><ele>593.75</ele><time>2026-05-02T14:49:29Z</time></trkpt><trkpt lat="43.74618371420278" lon="12.032875776479965"><ele>593.5</ele><time>2026-05-02T14:49:30Z</time></trkpt><trkpt lat="43.74632564218628" lon="12.032927739720826"><ele>593.25</ele><time>2026-05-02T14:49:31Z</time></trkpt><trkpt lat="43.74646822335441" lon="12.032981215678483"><ele>593.0</ele><time>2026-05-02T14:49:32Z</time></trkpt><trkpt lat="43.74661020430124" lon="12.03303748847742"><ele>593.0</ele><time>2026-05-02T14:49:33Z</time></trkpt><trkpt lat="43.74674862610995" lon="12.033098959201796"><ele>593.0</ele><time>2026-05-02T14:49:34Z</time></trkpt><trkpt lat="43.746887617570145" lon="12.033164286854468"><ele>593.0</ele><time>2026-05-02T14:49:35Z</time></trkpt><trkpt lat="43.74701612269335" lon="12.03323053260863"><ele>593.0</ele><time>2026-05-02T14:49:36Z</time></trkpt><trkpt lat="43.74715496803265" lon="12.033301696342171"><ele>597.3333333333333</ele><time>2026-05-02T14:49:37Z</time></trkpt><trkpt lat="43.747299269390176" lon="12.033370890511605"><ele>601.6666666666666</ele><time>2026-05-02T14:49:38Z</time></trkpt><trkpt lat="43.747446071463976" lon="12.033454153302026"><ele>606.0</ele><time>2026-05-02T14:49:39Z</time></trkpt><trkpt lat="43.74758835537086" lon="12.03353199026668"><ele>604.6666666666666</ele><time>2026-05-02T14:49:40Z</time></trkpt><trkpt lat="43.74772589774672" lon="12.033617155647507"><ele>603.3333333333333</ele><time>2026-05-02T14:49:41Z</time></trkpt><trkpt lat="43.747864835951304" lon="12.033705738719124"><ele>602.0</ele><time>2026-05-02T14:49:42Z</time></trkpt><trkpt lat="43.74800070595732" lon="12.03379636198662"><ele>602.0</ele><time>2026-05-02T14:49:43Z</time></trkpt><trkpt lat="43.74813627247741" lon="12.03388769248214"><ele>602.0</ele><time>2026-05-02T14:49:44Z</time></trkpt><trkpt lat="43.74827246471164" lon="12.033979789775497"><ele>602.0</ele><time>2026-05-02T14:49:45Z</time></trkpt><trkpt lat="43.74840419992442" lon="12.034073046546673"><ele>601.5</ele><time>2026-05-02T14:49:46Z</time></trkpt><trkpt lat="43.74853608437681" lon="12.0341686162909"><ele>601.0</ele><time>2026-05-02T14:49:47Z</time></trkpt><trkpt lat="43.748659176784464" lon="12.034259925162342"><ele>600.5</ele><time>2026-05-02T14:49:48Z</time></trkpt><trkpt lat="43.74878262961629" lon="12.034349503403712"><ele>600.0</ele><time>2026-05-02T14:49:49Z</time></trkpt><trkpt lat="43.7489103827999" lon="12.034439252523914"><ele>600.0</ele><time>2026-05-02T14:49:50Z</time></trkpt><trkpt lat="43.74904280098702" lon="12.03453100034897"><ele>600.0</ele><time>2026-05-02T14:49:51Z</time></trkpt><trkpt lat="43.74917484709248" lon="12.034624736477124"><ele>600.0</ele><time>2026-05-02T14:49:52Z</time></trkpt><trkpt lat="43.749309316299524" lon="12.034720631078764"><ele>600.0</ele><time>2026-05-02T14:49:53Z</time></trkpt><trkpt lat="43.749446596845246" lon="12.034817958520124"><ele>603.3333333333334</ele><time>2026-05-02T14:49:54Z</time></trkpt><trkpt lat="43.74958697395334" lon="12.034911772771924"><ele>606.6666666666667</ele><time>2026-05-02T14:49:55Z</time></trkpt><trkpt lat="43.74972788014532" lon="12.035008605510166"><ele>610.0</ele><time>2026-05-02T14:49:56Z</time></trkpt><trkpt lat="43.74987199935141" lon="12.035102482509734"><ele>610.0</ele><time>2026-05-02T14:49:57Z</time></trkpt><trkpt lat="43.75001719791922" lon="12.035192095978553"><ele>610.0</ele><time>2026-05-02T14:49:58Z</time></trkpt><trkpt lat="43.75016383759968" lon="12.0352822000261"><ele>610.0</ele><time>2026-05-02T14:49:59Z</time></trkpt><trkpt lat="43.75030419940178" lon="12.035370604964607"><ele>609.6666666666667</ele><time>2026-05-02T14:50:00Z</time></trkpt><trkpt lat="43.75044603483564" lon="12.035458388818956"><ele>609.3333333333334</ele><time>2026-05-02T14:50:01Z</time></trkpt><trkpt lat="43.750586652634425" lon="12.035540829496505"><ele>609.0</ele><time>2026-05-02T14:50:02Z</time></trkpt><trkpt lat="43.75073053001588" lon="12.035616108052086"><ele>609.0</ele><time>2026-05-02T14:50:03Z</time></trkpt><trkpt lat="43.750863410593055" lon="12.035701014472933"><ele>609.0</ele><time>2026-05-02T14:50:04Z</time></trkpt><trkpt lat="43.75100632954807" lon="12.035779880251882"><ele>609.0</ele><time>2026-05-02T14:50:05Z</time></trkpt><trkpt lat="43.75114864437356" lon="12.035855227249451"><ele>610.3333333333334</ele><time>2026-05-02T14:50:06Z</time></trkpt><trkpt lat="43.75129414092974" lon="12.035931435856003"><ele>611.6666666666667</ele><time>2026-05-02T14:50:07Z</time></trkpt><trkpt lat="43.75144346304532" lon="12.036006189336343"><ele>613.0</ele><time>2026-05-02T14:50:08Z</time></trkpt><trkpt lat="43.7515926636139" lon="12.036078193078021"><ele>613.0</ele><time>2026-05-02T14:50:09Z</time></trkpt><trkpt lat="43.751744308452366" lon="12.036148642098937"><ele>613.0</ele><time>2026-05-02T14:50:10Z</time></trkpt><trkpt lat="43.75189826202499" lon="12.036218905723993"><ele>613.0</ele><time>2026-05-02T14:50:11Z</time></trkpt><trkpt lat="43.75205263179092" lon="12.036287935766367"><ele>615.6666666666667</ele><time>2026-05-02T14:50:12Z</time></trkpt><trkpt lat="43.75221500245492" lon="12.036351608706294"><ele>618.3333333333334</ele><time>2026-05-02T14:50:13Z</time></trkpt><trkpt lat="43.75238258856447" lon="12.036420836616438"><ele>621.0</ele><time>2026-05-02T14:50:14Z</time></trkpt><trkpt lat="43.75255291922273" lon="12.03648828343417"><ele>622.0</ele><time>2026-05-02T14:50:15Z</time></trkpt><trkpt lat="43.7527150348074" lon="12.036554977356031"><ele>623.0</ele><time>2026-05-02T14:50:16Z</time></trkpt><trkpt lat="43.75287019070772" lon="12.036615376499807"><ele>624.0</ele><time>2026-05-02T14:50:17Z</time></trkpt><trkpt lat="43.75302548370217" lon="12.03667229402302"><ele>624.0</ele><time>2026-05-02T14:50:18Z</time></trkpt><trkpt lat="43.75317859445127" lon="12.036726072837745"><ele>624.0</ele><time>2026-05-02T14:50:19Z</time></trkpt><trkpt lat="43.753332199476816" lon="12.036776264570854"><ele>624.0</ele><time>2026-05-02T14:50:20Z</time></trkpt><trkpt lat="43.753487662764506" lon="12.03682564206872"><ele>626.3333333333334</ele><time>2026-05-02T14:50:21Z</time></trkpt><trkpt lat="43.75364190380725" lon="12.036877711543946"><ele>628.6666666666667</ele><time>2026-05-02T14:50:22Z</time></trkpt><trkpt lat="43.75379863981648" lon="12.036924428230625"><ele>631.0</ele><time>2026-05-02T14:50:23Z</time></trkpt><trkpt lat="43.75395917380568" lon="12.03696805463335"><ele>631.0</ele><time>2026-05-02T14:50:24Z</time></trkpt><trkpt lat="43.754120067527275" lon="12.037013571830746"><ele>631.0</ele><time>2026-05-02T14:50:25Z</time></trkpt><trkpt lat="43.754281141347" lon="12.03705669710506"><ele>631.0</ele><time>2026-05-02T14:50:26Z</time></trkpt><trkpt lat="43.75443179887833" lon="12.037096795406345"><ele>643.6666666666667</ele><time>2026-05-02T14:50:27Z</time></trkpt><trkpt lat="43.754579533097505" lon="12.037137554960598"><ele>656.3333333333334</ele><time>2026-05-02T14:50:28Z</time></trkpt><trkpt lat="43.75473434622966" lon="12.037171206990127"><ele>669.0</ele><time>2026-05-02T14:50:29Z</time></trkpt><trkpt lat="43.75489060098755" lon="12.037215468190867"><ele>669.0</ele><time>2026-05-02T14:50:30Z</time></trkpt><trkpt lat="43.75504870674543" lon="12.037259444947864"><ele>669.0</ele><time>2026-05-02T14:50:31Z</time></trkpt><trkpt lat="43.755209838156475" lon="12.037302763769544"><ele>669.0</ele><time>2026-05-02T14:50:32Z</time></trkpt><trkpt lat="43.75537287123632" lon="12.037347573251713"><ele>671.3333333333334</ele><time>2026-05-02T14:50:33Z</time></trkpt><trkpt lat="43.75553775122218" lon="12.037393837097154"><ele>673.6666666666667</ele><time>2026-05-02T14:50:34Z</time></trkpt><trkpt lat="43.755703576644535" lon="12.037436869660908"><ele>676.0</ele><time>2026-05-02T14:50:35Z</time></trkpt><trkpt lat="43.75587645124345" lon="12.037483159192993"><ele>671.6666666666667</ele><time>2026-05-02T14:50:36Z</time></trkpt><trkpt lat="43.756047576753026" lon="12.037524296683477"><ele>667.3333333333334</ele><time>2026-05-02T14:50:37Z</time></trkpt><trkpt lat="43.75622112373072" lon="12.037568071336635"><ele>663.0</ele><time>2026-05-02T14:50:38Z</time></trkpt><trkpt lat="43.756398000725746" lon="12.03761566693922"><ele>663.0</ele><time>2026-05-02T14:50:39Z</time></trkpt><trkpt lat="43.75657732764518" lon="12.037661790226407"><ele>663.0</ele><time>2026-05-02T14:50:40Z</time></trkpt><trkpt lat="43.756757462897646" lon="12.037709808790996"><ele>663.0</ele><time>2026-05-02T14:50:41Z</time></trkpt><trkpt lat="43.75693755972747" lon="12.03775998758654"><ele>662.6666666666666</ele><time>2026-05-02T14:50:42Z</time></trkpt><trkpt lat="43.75711772651941" lon="12.037807651225629"><ele>662.3333333333333</ele><time>2026-05-02T14:50:43Z</time></trkpt><trkpt lat="43.75729129554341" lon="12.037855280226088"><ele>662.0</ele><time>2026-05-02T14:50:44Z</time></trkpt><trkpt lat="43.75746497478882" lon="12.037901684211239"><ele>662.0</ele><time>2026-05-02T14:50:45Z</time></trkpt><trkpt lat="43.75763448578882" lon="12.037945758111434"><ele>662.0</ele><time>2026-05-02T14:50:46Z</time></trkpt><trkpt lat="43.75779499201592" lon="12.037987825214003"><ele>662.0</ele><time>2026-05-02T14:50:47Z</time></trkpt><trkpt lat="43.757952787405806" lon="12.038033264814915"><ele>670.0</ele><time>2026-05-02T14:50:48Z</time></trkpt><trkpt lat="43.7581186562774" lon="12.03807613511435"><ele>678.0</ele><time>2026-05-02T14:50:49Z</time></trkpt><trkpt lat="43.758283672726435" lon="12.038123639294488"><ele>686.0</ele><time>2026-05-02T14:50:50Z</time></trkpt><trkpt lat="43.75845316950799" lon="12.038170541587128"><ele>691.0</ele><time>2026-05-02T14:50:51Z</time></trkpt><trkpt lat="43.758627290144084" lon="12.038216754029026"><ele>696.0</ele><time>2026-05-02T14:50:52Z</time></trkpt><trkpt lat="43.758814678305114" lon="12.03826576800303"><ele>701.0</ele><time>2026-05-02T14:50:53Z</time></trkpt><trkpt lat="43.75900535381011" lon="12.03831207512469"><ele>701.0</ele><time>2026-05-02T14:50:54Z</time></trkpt><trkpt lat="43.75920261245337" lon="12.038378766337974"><ele>701.0</ele><time>2026-05-02T14:50:55Z</time></trkpt><trkpt lat="43.75937363176469" lon="12.038410100353598"><ele>701.0</ele><time>2026-05-02T14:50:56Z</time></trkpt><trkpt lat="43.75954408648828" lon="12.038458029380543"><ele>702.0</ele><time>2026-05-02T14:50:57Z</time></trkpt><trkpt lat="43.75971426837573" lon="12.038500069828986"><ele>703.0</ele><time>2026-05-02T14:50:58Z</time></trkpt><trkpt lat="43.75988225774433" lon="12.038527077615743"><ele>704.0</ele><time>2026-05-02T14:50:59Z</time></trkpt><trkpt lat="43.760051386636015" lon="12.038545877584777"><ele>706.3333333333333</ele><time>2026-05-02T14:51:00Z</time></trkpt><trkpt lat="43.760219929989404" lon="12.038562748457249"><ele>708.6666666666666</ele><time>2026-05-02T14:51:01Z</time></trkpt><trkpt lat="43.76039113055051" lon="12.038572559844454"><ele>711.0</ele><time>2026-05-02T14:51:02Z</time></trkpt><trkpt lat="43.76056146017976" lon="12.038569163362117"><ele>711.0</ele><time>2026-05-02T14:51:03Z</time></trkpt><trkpt lat="43.76072758808906" lon="12.0385582567045"><ele>711.0</ele><time>2026-05-02T14:51:04Z</time></trkpt><trkpt lat="43.76089218104585" lon="12.038544202066804"><ele>711.0</ele><time>2026-05-02T14:51:05Z</time></trkpt><trkpt lat="43.761056265669914" lon="12.038518287487523"><ele>710.0</ele><time>2026-05-02T14:51:06Z</time></trkpt><trkpt lat="43.76121805947117" lon="12.038485332669724"><ele>709.0</ele><time>2026-05-02T14:51:07Z</time></trkpt><trkpt lat="43.76137529577274" lon="12.038445375036058"><ele>708.0</ele><time>2026-05-02T14:51:08Z</time></trkpt><trkpt lat="43.76151877278016" lon="12.038402960676601"><ele>708.0</ele><time>2026-05-02T14:51:09Z</time></trkpt><trkpt lat="43.76164727731872" lon="12.038358485118922"><ele>708.0</ele><time>2026-05-02T14:51:10Z</time></trkpt><trkpt lat="43.76177634917421" lon="12.038310609929631"><ele>708.0</ele><time>2026-05-02T14:51:11Z</time></trkpt><trkpt lat="43.76190339858517" lon="12.038246898938223"><ele>708.0</ele><time>2026-05-02T14:51:12Z</time></trkpt><trkpt lat="43.76203434677541" lon="12.038185039160398"><ele>709.5999999999999</ele><time>2026-05-02T14:51:13Z</time></trkpt><trkpt lat="43.76215711303245" lon="12.038123590232377"><ele>711.1999999999999</ele><time>2026-05-02T14:51:14Z</time></trkpt><trkpt lat="43.76226262383423" lon="12.03807981433085"><ele>712.8</ele><time>2026-05-02T14:51:15Z</time></trkpt><trkpt lat="43.762363038371724" lon="12.038043802066207"><ele>714.4</ele><time>2026-05-02T14:51:16Z</time></trkpt><trkpt lat="43.76246011031163" lon="12.03800001767729"><ele>716.0</ele><time>2026-05-02T14:51:17Z</time></trkpt><trkpt lat="43.762571705002536" lon="12.03794238549061"><ele>716.0</ele><time>2026-05-02T14:51:18Z</time></trkpt><trkpt lat="43.762691013944625" lon="12.037876026296045"><ele>716.0</ele><time>2026-05-02T14:51:19Z</time></trkpt><trkpt lat="43.762817183066765" lon="12.03779705468902"><ele>716.0</ele><time>2026-05-02T14:51:20Z</time></trkpt><trkpt lat="43.76295021288915" lon="12.037710169686456"><ele>716.0</ele><time>2026-05-02T14:51:21Z</time></trkpt><trkpt lat="43.763086829381734" lon="12.037623627683665"><ele>716.0</ele><time>2026-05-02T14:51:22Z</time></trkpt><trkpt lat="43.76322640875662" lon="12.03753435788449"><ele>716.0</ele><time>2026-05-02T14:51:23Z</time></trkpt><trkpt lat="43.76336374912574" lon="12.037441976717554"><ele>716.0</ele><time>2026-05-02T14:51:24Z</time></trkpt><trkpt lat="43.76349747684139" lon="12.037349555765472"><ele>717.25</ele><time>2026-05-02T14:51:25Z</time></trkpt><trkpt lat="43.76362718991035" lon="12.03725365278022"><ele>718.5</ele><time>2026-05-02T14:51:26Z</time></trkpt><trkpt lat="43.76375114860343" lon="12.037156009996083"><ele>719.75</ele><time>2026-05-02T14:51:27Z</time></trkpt><trkpt lat="43.763871089353756" lon="12.037058351303024"><ele>721.0</ele><time>2026-05-02T14:51:28Z</time></trkpt><trkpt lat="43.7639944546264" lon="12.036957293079583"><ele>721.0</ele><time>2026-05-02T14:51:29Z</time></trkpt><trkpt lat="43.764108032008544" lon="12.036854571794233"><ele>721.0</ele><time>2026-05-02T14:51:30Z</time></trkpt><trkpt lat="43.764220695001136" lon="12.036749756128344"><ele>721.0</ele><time>2026-05-02T14:51:31Z</time></trkpt><trkpt lat="43.76433450654726" lon="12.036644297419533"><ele>721.0</ele><time>2026-05-02T14:51:32Z</time></trkpt><trkpt lat="43.76446231181249" lon="12.036525953495238"><ele>722.0</ele><time>2026-05-02T14:51:33Z</time></trkpt><trkpt lat="43.76460185484544" lon="12.036380370427633"><ele>723.0</ele><time>2026-05-02T14:51:34Z</time></trkpt><trkpt lat="43.76475415958824" lon="12.036212051760781"><ele>724.0</ele><time>2026-05-02T14:51:35Z</time></trkpt><trkpt lat="43.76491496819292" lon="12.036023311046092"><ele>724.0</ele><time>2026-05-02T14:51:36Z</time></trkpt><trkpt lat="43.76507304106008" lon="12.035824216159831"><ele>724.0</ele><time>2026-05-02T14:51:37Z</time></trkpt><trkpt lat="43.76522989986161" lon="12.035607812749145"><ele>724.0</ele><time>2026-05-02T14:51:38Z</time></trkpt><trkpt lat="43.76538692112194" lon="12.035376049311129"><ele>724.5</ele><time>2026-05-02T14:51:39Z</time></trkpt><trkpt lat="43.76553951605091" lon="12.035143866680377"><ele>725.0</ele><time>2026-05-02T14:51:40Z</time></trkpt><trkpt lat="43.76568948825145" lon="12.034902717768697"><ele>725.0</ele><time>2026-05-02T14:51:41Z</time></trkpt><trkpt lat="43.765841799647525" lon="12.034642820756984"><ele>725.0</ele><time>2026-05-02T14:51:42Z</time></trkpt><trkpt lat="43.765993990885676" lon="12.034375355013047"><ele>722.0</ele><time>2026-05-02T14:51:43Z</time></trkpt><trkpt lat="43.76614398605479" lon="12.034114781988443"><ele>719.0</ele><time>2026-05-02T14:51:44Z</time></trkpt><trkpt lat="43.766293648186085" lon="12.033845928795403"><ele>719.0</ele><time>2026-05-02T14:51:45Z</time></trkpt><trkpt lat="43.76644488667971" lon="12.033567952629918"><ele>719.0</ele><time>2026-05-02T14:51:46Z</time></trkpt><trkpt lat="43.76660022250086" lon="12.033290129288428"><ele>715.0</ele><time>2026-05-02T14:51:47Z</time></trkpt><trkpt lat="43.766757733881136" lon="12.033015364830467"><ele>711.0</ele><time>2026-05-02T14:51:48Z</time></trkpt><trkpt lat="43.766919790585334" lon="12.0327394581018"><ele>710.0</ele><time>2026-05-02T14:51:49Z</time></trkpt><trkpt lat="43.767083876441646" lon="12.03246826159431"><ele>709.0</ele><time>2026-05-02T14:51:50Z</time></trkpt><trkpt lat="43.76724544961898" lon="12.032199667239329"><ele>709.0</ele><time>2026-05-02T14:51:51Z</time></trkpt><trkpt lat="43.76740063212674" lon="12.031932027612427"><ele>709.0</ele><time>2026-05-02T14:51:52Z</time></trkpt><trkpt lat="43.767555831212555" lon="12.031658413988554"><ele>722.5</ele><time>2026-05-02T14:51:53Z</time></trkpt><trkpt lat="43.767701317372456" lon="12.031371869436978"><ele>736.0</ele><time>2026-05-02T14:51:54Z</time></trkpt><trkpt lat="43.767836281573295" lon="12.03106572348206"><ele>742.0</ele><time>2026-05-02T14:51:55Z</time></trkpt><trkpt lat="43.767956009238304" lon="12.030747558812683"><ele>748.0</ele><time>2026-05-02T14:51:56Z</time></trkpt><trkpt lat="43.7680574662508" lon="12.030418242351073"><ele>748.0</ele><time>2026-05-02T14:51:57Z</time></trkpt><trkpt lat="43.76814398496557" lon="12.030087214600494"><ele>748.0</ele><time>2026-05-02T14:51:58Z</time></trkpt><trkpt lat="43.76822500648463" lon="12.029748198403416"><ele>748.5</ele><time>2026-05-02T14:51:59Z</time></trkpt><trkpt lat="43.76828862968094" lon="12.029406400652041"><ele>749.0</ele><time>2026-05-02T14:52:00Z</time></trkpt><trkpt lat="43.768336502996796" lon="12.029052807072748"><ele>749.0</ele><time>2026-05-02T14:52:01Z</time></trkpt><trkpt lat="43.76837244226149" lon="12.02869798201865"><ele>749.0</ele><time>2026-05-02T14:52:02Z</time></trkpt><trkpt lat="43.76840024264574" lon="12.028338290821917"><ele>749.0</ele><time>2026-05-02T14:52:03Z</time></trkpt><trkpt lat="43.76841845013254" lon="12.027980557452548"><ele>749.0</ele><time>2026-05-02T14:52:04Z</time></trkpt><trkpt lat="43.76843666786898" lon="12.027639210670992"><ele>749.5</ele><time>2026-05-02T14:52:05Z</time></trkpt><trkpt lat="43.768460980704795" lon="12.027322507193823"><ele>750.0</ele><time>2026-05-02T14:52:06Z</time></trkpt><trkpt lat="43.76848394903169" lon="12.027015283766827"><ele>750.0</ele><time>2026-05-02T14:52:07Z</time></trkpt><trkpt lat="43.76850668871128" lon="12.026713736636788"><ele>750.0</ele><time>2026-05-02T14:52:08Z</time></trkpt><trkpt lat="43.76854311965565" lon="12.026412722480357"><ele>750.0</ele><time>2026-05-02T14:52:09Z</time></trkpt><trkpt lat="43.76859343646311" lon="12.026112890533238"><ele>760.5</ele><time>2026-05-02T14:52:10Z</time></trkpt><trkpt lat="43.768654048852795" lon="12.025805152275053"><ele>771.0</ele><time>2026-05-02T14:52:11Z</time></trkpt><trkpt lat="43.768728561843446" lon="12.025488151693745"><ele>771.0</ele><time>2026-05-02T14:52:12Z</time></trkpt><trkpt lat="43.768817973824355" lon="12.025167460113877"><ele>771.0</ele><time>2026-05-02T14:52:13Z</time></trkpt><trkpt lat="43.76892542411294" lon="12.02485022815498"><ele>764.5</ele><time>2026-05-02T14:52:14Z</time></trkpt><trkpt lat="43.76904473818686" lon="12.024549871678918"><ele>758.0</ele><time>2026-05-02T14:52:15Z</time></trkpt><trkpt lat="43.76917220534745" lon="12.024253156987971"><ele>755.0</ele><time>2026-05-02T14:52:16Z</time></trkpt><trkpt lat="43.769311487582286" lon="12.023968736061082"><ele>752.0</ele><time>2026-05-02T14:52:17Z</time></trkpt><trkpt lat="43.769469604085856" lon="12.023690242250813"><ele>757.0</ele><time>2026-05-02T14:52:18Z</time></trkpt><trkpt lat="43.76964270624782" lon="12.023424890222875"><ele>762.0</ele><time>2026-05-02T14:52:19Z</time></trkpt><trkpt lat="43.76982836749745" lon="12.023166590120496"><ele>762.0</ele><time>2026-05-02T14:52:20Z</time></trkpt><trkpt lat="43.77002757578583" lon="12.022916768684388"><ele>762.0</ele><time>2026-05-02T14:52:21Z</time></trkpt><trkpt lat="43.770236026708744" lon="12.02268451106523"><ele>767.5</ele><time>2026-05-02T14:52:22Z</time></trkpt><trkpt lat="43.7704557795334" lon="12.022469773772706"><ele>773.0</ele><time>2026-05-02T14:52:23Z</time></trkpt><trkpt lat="43.77068689679562" lon="12.02227280978977"><ele>773.0</ele><time>2026-05-02T14:52:24Z</time></trkpt><trkpt lat="43.770927142239344" lon="12.0220938132645"><ele>773.0</ele><time>2026-05-02T14:52:25Z</time></trkpt><trkpt lat="43.771155449885406" lon="12.021946610071742"><ele>778.5</ele><time>2026-05-02T14:52:26Z</time></trkpt><trkpt lat="43.77138985532914" lon="12.02180675075144"><ele>784.0</ele><time>2026-05-02T14:52:27Z</time></trkpt><trkpt lat="43.771632891092544" lon="12.021662682129712"><ele>782.5</ele><time>2026-05-02T14:52:28Z</time></trkpt><trkpt lat="43.771890281231386" lon="12.021514874010908"><ele>781.0</ele><time>2026-05-02T14:52:29Z</time></trkpt><trkpt lat="43.772154384343075" lon="12.021365494249698"><ele>781.0</ele><time>2026-05-02T14:52:30Z</time></trkpt><trkpt lat="43.772413995826035" lon="12.021214978299815"><ele>781.0</ele><time>2026-05-02T14:52:31Z</time></trkpt><trkpt lat="43.77267087309917" lon="12.02106991705683"><ele>785.0</ele><time>2026-05-02T14:52:32Z</time></trkpt><trkpt lat="43.772928432341075" lon="12.020927934612478"><ele>789.0</ele><time>2026-05-02T14:52:33Z</time></trkpt><trkpt lat="43.77318526797532" lon="12.0207831482022"><ele>792.0</ele><time>2026-05-02T14:52:34Z</time></trkpt><trkpt lat="43.773437395872996" lon="12.020639369782131"><ele>795.0</ele><time>2026-05-02T14:52:35Z</time></trkpt><trkpt lat="43.77368808938363" lon="12.020501383459617"><ele>795.5</ele><time>2026-05-02T14:52:36Z</time></trkpt><trkpt lat="43.77393124887202" lon="12.020370704420062"><ele>796.0</ele><time>2026-05-02T14:52:37Z</time></trkpt><trkpt lat="43.77417201813625" lon="12.020243338734987"><ele>794.5</ele><time>2026-05-02T14:52:38Z</time></trkpt><trkpt lat="43.77441289207163" lon="12.020116256169967"><ele>793.0</ele><time>2026-05-02T14:52:39Z</time></trkpt><trkpt lat="43.77465580861874" lon="12.019993447172029"><ele>796.5</ele><time>2026-05-02T14:52:40Z</time></trkpt><trkpt lat="43.77489877900411" lon="12.019869057608586"><ele>800.0</ele><time>2026-05-02T14:52:41Z</time></trkpt><trkpt lat="43.775130903430366" lon="12.019749549243098"><ele>801.5</ele><time>2026-05-02T14:52:42Z</time></trkpt><trkpt lat="43.77534834473537" lon="12.019636049019065"><ele>803.0</ele><time>2026-05-02T14:52:43Z</time></trkpt><trkpt lat="43.77555950573058" lon="12.019519428947719"><ele>803.0</ele><time>2026-05-02T14:52:44Z</time></trkpt><trkpt lat="43.77577242526818" lon="12.019395394511236"><ele>803.0</ele><time>2026-05-02T14:52:45Z</time></trkpt><trkpt lat="43.7760020992419" lon="12.01924590980974"><ele>811.5</ele><time>2026-05-02T14:52:46Z</time></trkpt><trkpt lat="43.77624114846759" lon="12.019090723381067"><ele>820.0</ele><time>2026-05-02T14:52:47Z</time></trkpt><trkpt lat="43.77647489587122" lon="12.018937178707564"><ele>820.0</ele><time>2026-05-02T14:52:48Z</time></trkpt><trkpt lat="43.776707444389665" lon="12.018780778843011"><ele>820.0</ele><time>2026-05-02T14:52:49Z</time></trkpt><trkpt lat="43.77694879364601" lon="12.018648074407821"><ele>820.0</ele><time>2026-05-02T14:52:50Z</time></trkpt><trkpt lat="43.77718843216623" lon="12.018509284480427"><ele>820.0</ele><time>2026-05-02T14:52:51Z</time></trkpt><trkpt lat="43.777448150997934" lon="12.018361482047148"><ele>829.5</ele><time>2026-05-02T14:52:52.07Z</time></trkpt><trkpt lat="43.77768979761183" lon="12.018226803599164"><ele>839.0</ele><time>2026-05-02T14:52:53.062Z</time></trkpt><trkpt lat="43.777932818051525" lon="12.018092657719894"><ele>849.0</ele><time>2026-05-02T14:52:54.062Z</time></trkpt><trkpt lat="43.77983147217778" lon="12.017110904387007"><ele>843.0</ele><time>2026-05-02T14:52:57.816Z</time></trkpt><trkpt lat="43.78058590132344" lon="12.016694423652014"><ele>832.0</ele><time>2026-05-02T14:52:58.819Z</time></trkpt><trkpt lat="43.78133562161218" lon="12.016272253929253"><ele>818.0</ele><time>2026-05-02T14:52:59.819Z</time></trkpt><trkpt lat="43.78208603939442" lon="12.015847357431692"><ele>795.0</ele><time>2026-05-02T14:53:00.82Z</time></trkpt><trkpt lat="43.782835501714914" lon="12.015423001929243"><ele>779.0</ele><time>2026-05-02T14:53:01.82Z</time></trkpt><trkpt lat="43.78377975189705" lon="12.014718052064707"><ele>779.0</ele><time>2026-05-02T14:53:18Z</time></trkpt><trkpt lat="43.78407931141128" lon="12.014673364533406"><ele>779.0</ele><time>2026-05-02T14:53:19Z</time></trkpt><trkpt lat="43.78433757328899" lon="12.01450490457763"><ele>777.5</ele><time>2026-05-02T14:53:20Z</time></trkpt><trkpt lat="43.78458718150596" lon="12.014335136314838"><ele>776.0</ele><time>2026-05-02T14:53:21Z</time></trkpt><trkpt lat="43.78482593146181" lon="12.014151110123466"><ele>775.5</ele><time>2026-05-02T14:53:22Z</time></trkpt><trkpt lat="43.78505805185734" lon="12.013956006434903"><ele>775.0</ele><time>2026-05-02T14:53:23Z</time></trkpt><trkpt lat="43.78528561594419" lon="12.013746796861701"><ele>771.5</ele><time>2026-05-02T14:53:24Z</time></trkpt><trkpt lat="43.78551008249215" lon="12.013532687472399"><ele>768.0</ele><time>2026-05-02T14:53:25Z</time></trkpt><trkpt lat="43.785726537020125" lon="12.01331870132556"><ele>771.0</ele><time>2026-05-02T14:53:26Z</time></trkpt><trkpt lat="43.78592906112952" lon="12.013098224408004"><ele>774.0</ele><time>2026-05-02T14:53:27Z</time></trkpt><trkpt lat="43.78612505783506" lon="12.012863324574305"><ele>774.0</ele><time>2026-05-02T14:53:28Z</time></trkpt><trkpt lat="43.78631453812247" lon="12.0126181148685"><ele>774.0</ele><time>2026-05-02T14:53:29Z</time></trkpt><trkpt lat="43.78650259856249" lon="12.012359249281204"><ele>773.5</ele><time>2026-05-02T14:53:30Z</time></trkpt><trkpt lat="43.78668677447871" lon="12.012092168795089"><ele>773.0</ele><time>2026-05-02T14:53:31Z</time></trkpt><trkpt lat="43.7868706277366" lon="12.011824831245871"><ele>773.0</ele><time>2026-05-02T14:53:32Z</time></trkpt><trkpt lat="43.78706610437937" lon="12.011559105277097"><ele>773.0</ele><time>2026-05-02T14:53:33Z</time></trkpt><trkpt lat="43.787254051860074" lon="12.011290607379932"><ele>773.0</ele><time>2026-05-02T14:53:34Z</time></trkpt><trkpt lat="43.78745684317027" lon="12.01100179530914"><ele>773.0</ele><time>2026-05-02T14:53:35.067Z</time></trkpt><trkpt lat="43.787896051392856" lon="12.01008464000846"><ele>752.0</ele><time>2026-05-02T14:53:38Z</time></trkpt><trkpt lat="43.78804707008679" lon="12.009764105682946"><ele>731.0</ele><time>2026-05-02T14:53:39Z</time></trkpt><trkpt lat="43.7881710175235" lon="12.00939188801997"><ele>730.5</ele><time>2026-05-02T14:53:40Z</time></trkpt><trkpt lat="43.788339152413776" lon="12.009015307643516"><ele>730.0</ele><time>2026-05-02T14:53:41Z</time></trkpt><trkpt lat="43.788511641646494" lon="12.008614808012096"><ele>728.5</ele><time>2026-05-02T14:53:42Z</time></trkpt><trkpt lat="43.788695565160864" lon="12.008218695296458"><ele>727.0</ele><time>2026-05-02T14:53:43Z</time></trkpt><trkpt lat="43.788914300950346" lon="12.007799410819006"><ele>722.0</ele><time>2026-05-02T14:53:44Z</time></trkpt><trkpt lat="43.78911343386501" lon="12.007382913582244"><ele>717.0</ele><time>2026-05-02T14:53:45Z</time></trkpt><trkpt lat="43.789317800798315" lon="12.00696683429015"><ele>728.0</ele><time>2026-05-02T14:53:46Z</time></trkpt><trkpt lat="43.78952231742839" lon="12.006552514515672"><ele>739.0</ele><time>2026-05-02T14:53:47Z</time></trkpt><trkpt lat="43.789723442775845" lon="12.006141218158264"><ele>733.0</ele><time>2026-05-02T14:53:48Z</time></trkpt><trkpt lat="43.78990993642493" lon="12.005760352707165"><ele>727.0</ele><time>2026-05-02T14:53:49Z</time></trkpt><trkpt lat="43.790085259262185" lon="12.005398765754288"><ele>730.5</ele><time>2026-05-02T14:53:50Z</time></trkpt><trkpt lat="43.790260406761426" lon="12.005034618194758"><ele>734.0</ele><time>2026-05-02T14:53:51Z</time></trkpt><trkpt lat="43.79044053227568" lon="12.00467318253049"><ele>734.0</ele><time>2026-05-02T14:53:52Z</time></trkpt><trkpt lat="43.790615552431824" lon="12.004336098158776"><ele>734.0</ele><time>2026-05-02T14:53:53Z</time></trkpt><trkpt lat="43.790790010814874" lon="12.004027837681974"><ele>737.0</ele><time>2026-05-02T14:53:54Z</time></trkpt><trkpt lat="43.790970882561936" lon="12.003738794498586"><ele>740.0</ele><time>2026-05-02T14:53:55Z</time></trkpt><trkpt lat="43.79116370382607" lon="12.003465202284742"><ele>768.0</ele><time>2026-05-02T14:53:56Z</time></trkpt><trkpt lat="43.79134845970815" lon="12.003214807230437"><ele>796.0</ele><time>2026-05-02T14:53:57Z</time></trkpt><trkpt lat="43.791533733950374" lon="12.002971612023117"><ele>796.0</ele><time>2026-05-02T14:53:58Z</time></trkpt><trkpt lat="43.791723216600175" lon="12.0027225062911"><ele>796.0</ele><time>2026-05-02T14:53:59Z</time></trkpt><trkpt lat="43.79190306299768" lon="12.002470493423639"><ele>793.5</ele><time>2026-05-02T14:54:00Z</time></trkpt><trkpt lat="43.79210404908067" lon="12.00223616858829"><ele>791.0</ele><time>2026-05-02T14:54:01Z</time></trkpt><trkpt lat="43.79230536017543" lon="12.001981195808385"><ele>791.0</ele><time>2026-05-02T14:54:02.065Z</time></trkpt><trkpt lat="43.792489102035134" lon="12.001753579914196"><ele>791.0</ele><time>2026-05-02T14:54:03.063Z</time></trkpt><trkpt lat="43.79267463738138" lon="12.001526072355345"><ele>700.0</ele><time>2026-05-02T14:54:04.064Z</time></trkpt><trkpt lat="43.79389931165389" lon="12.000113857070147"><ele>700.0</ele><time>2026-05-02T14:54:10Z</time></trkpt><trkpt lat="43.79407633998982" lon="11.999892653985976"><ele>700.0</ele><time>2026-05-02T14:54:11Z</time></trkpt><trkpt lat="43.794280541640326" lon="11.999662419199376"><ele>693.0</ele><time>2026-05-02T14:54:12Z</time></trkpt><trkpt lat="43.794468439942825" lon="11.999421870633887"><ele>686.0</ele><time>2026-05-02T14:54:13Z</time></trkpt><trkpt lat="43.79467430561022" lon="11.999189318462832"><ele>687.0</ele><time>2026-05-02T14:54:14Z</time></trkpt><trkpt lat="43.794853520001546" lon="11.998961462063935"><ele>688.0</ele><time>2026-05-02T14:54:15Z</time></trkpt><trkpt lat="43.79504577056442" lon="11.998726748545122"><ele>697.0</ele><time>2026-05-02T14:54:16Z</time></trkpt><trkpt lat="43.795229250191916" lon="11.998494995759044"><ele>706.0</ele><time>2026-05-02T14:54:17Z</time></trkpt><trkpt lat="43.79541050897371" lon="11.99827151648059"><ele>708.0</ele><time>2026-05-02T14:54:18Z</time></trkpt><trkpt lat="43.79558339030473" lon="11.998060307826913"><ele>710.0</ele><time>2026-05-02T14:54:19Z</time></trkpt><trkpt lat="43.79575132381727" lon="11.997854429235217"><ele>710.0</ele><time>2026-05-02T14:54:20Z</time></trkpt><trkpt lat="43.79591538850926" lon="11.997648850110632"><ele>710.0</ele><time>2026-05-02T14:54:21Z</time></trkpt><trkpt lat="43.79607913572341" lon="11.997454048731441"><ele>710.0</ele><time>2026-05-02T14:54:22Z</time></trkpt><trkpt lat="43.796244173151464" lon="11.997271593509895"><ele>711.6666666666666</ele><time>2026-05-02T14:54:23Z</time></trkpt><trkpt lat="43.79640660468792" lon="11.997095613495253"><ele>713.3333333333334</ele><time>2026-05-02T14:54:24Z</time></trkpt><trkpt lat="43.796558053234016" lon="11.996917501912735"><ele>715.0</ele><time>2026-05-02T14:54:25Z</time></trkpt><trkpt lat="43.79669729824931" lon="11.996743299858435"><ele>713.5</ele><time>2026-05-02T14:54:26Z</time></trkpt><trkpt lat="43.79682500530672" lon="11.996582530215745"><ele>712.0</ele><time>2026-05-02T14:54:27Z</time></trkpt><trkpt lat="43.796936094833555" lon="11.99643782380481"><ele>710.5</ele><time>2026-05-02T14:54:28Z</time></trkpt><trkpt lat="43.79702520695224" lon="11.996328025265221"><ele>709.0</ele><time>2026-05-02T14:54:29Z</time></trkpt><trkpt lat="43.797095769143155" lon="11.996249331623586"><ele>709.0</ele><time>2026-05-02T14:54:30Z</time></trkpt><trkpt lat="43.79715742554465" lon="11.99621185403668"><ele>709.0</ele><time>2026-05-02T14:54:31Z</time></trkpt><trkpt lat="43.797255801657094" lon="11.996206506584544"><ele>709.0</ele><time>2026-05-02T14:54:33Z</time></trkpt><trkpt lat="43.79732787150175" lon="11.996215965139994"><ele>709.0</ele><time>2026-05-02T14:54:36Z</time></trkpt><trkpt lat="43.79726823991114" lon="11.996244216598061"><ele>709.0</ele><time>2026-05-02T14:58:07Z</time></trkpt><trkpt lat="43.797284726332904" lon="11.99648092687724"><ele>709.0</ele><time>2026-05-02T14:58:08Z</time></trkpt><trkpt lat="43.79725253351772" lon="11.996654331451802"><ele>709.0</ele><time>2026-05-02T14:58:10Z</time></trkpt><trkpt lat="43.79719352420753" lon="11.996780546044358"><ele>709.0</ele><time>2026-05-02T14:58:12Z</time></trkpt><trkpt lat="43.797140690982836" lon="11.996863108314933"><ele>709.0</ele><time>2026-05-02T14:58:15Z</time></trkpt><trkpt lat="43.79720452911029" lon="11.996806928054799"><ele>709.0</ele><time>2026-05-02T14:58:23Z</time></trkpt><trkpt lat="43.797236689672026" lon="11.99671567522719"><ele>709.0000000000001</ele><time>2026-05-02T14:58:25Z</time></trkpt><trkpt lat="43.79726113696258" lon="11.996615985283508"><ele>709.0</ele><time>2026-05-02T14:58:27Z</time></trkpt><trkpt lat="43.797291565576096" lon="11.9965251563425"><ele>709.0</ele><time>2026-05-02T14:58:29Z</time></trkpt><trkpt lat="43.797277641468135" lon="11.996435819184994"><ele>709.0</ele><time>2026-05-02T14:58:31Z</time></trkpt><trkpt lat="43.79729127731305" lon="11.996348514123985"><ele>709.0</ele><time>2026-05-02T14:58:34Z</time></trkpt><trkpt lat="43.797317819130484" lon="11.996263276608238"><ele>709.0000000000001</ele><time>2026-05-02T15:06:39Z</time></trkpt><trkpt lat="43.79733226696254" lon="11.996174291830101"><ele>709.0</ele><time>2026-05-02T15:06:40Z</time></trkpt><trkpt lat="43.7974871857889" lon="11.996080289422098"><ele>709.0</ele><time>2026-05-02T15:06:41Z</time></trkpt><trkpt lat="43.797548019263445" lon="11.99600647201313"><ele>709.0</ele><time>2026-05-02T15:06:42Z</time></trkpt><trkpt lat="43.79760921495397" lon="11.995939646726114"><ele>709.0</ele><time>2026-05-02T15:06:43Z</time></trkpt><trkpt lat="43.79767401470458" lon="11.99588083510094"><ele>709.0</ele><time>2026-05-02T15:06:44Z</time></trkpt><trkpt lat="43.79773993564079" lon="11.995834287224492"><ele>709.0</ele><time>2026-05-02T15:06:45Z</time></trkpt><trkpt lat="43.79780597034796" lon="11.995796927107504"><ele>709.0</ele><time>2026-05-02T15:06:46Z</time></trkpt><trkpt lat="43.79787816998992" lon="11.995764770872809"><ele>708.8000000000001</ele><time>2026-05-02T15:06:47Z</time></trkpt><trkpt lat="43.79795952465896" lon="11.9957352089941"><ele>708.6</ele><time>2026-05-02T15:06:48Z</time></trkpt><trkpt lat="43.79804442957558" lon="11.995695526696633"><ele>708.4</ele><time>2026-05-02T15:06:49Z</time></trkpt><trkpt lat="43.79814447197007" lon="11.995641139272406"><ele>708.2</ele><time>2026-05-02T15:06:50Z</time></trkpt><trkpt lat="43.79825479246177" lon="11.995572457753129"><ele>708.0</ele><time>2026-05-02T15:06:51Z</time></trkpt><trkpt lat="43.798375997094105" lon="11.995487913890305"><ele>708.0</ele><time>2026-05-02T15:06:52Z</time></trkpt><trkpt lat="43.79849723517048" lon="11.99537977329204"><ele>708.0</ele><time>2026-05-02T15:06:53Z</time></trkpt><trkpt lat="43.79862592554542" lon="11.995227794220725"><ele>708.0</ele><time>2026-05-02T15:06:54Z</time></trkpt><trkpt lat="43.79874029601164" lon="11.995077116675049"><ele>704.0</ele><time>2026-05-02T15:06:55Z</time></trkpt><trkpt lat="43.79883515253605" lon="11.994902484708081"><ele>700.0</ele><time>2026-05-02T15:06:56Z</time></trkpt><trkpt lat="43.79891477076765" lon="11.994724441227486"><ele>696.0</ele><time>2026-05-02T15:06:57Z</time></trkpt><trkpt lat="43.79898060014878" lon="11.994574461515283"><ele>692.0</ele><time>2026-05-02T15:06:58Z</time></trkpt><trkpt lat="43.79901876479694" lon="11.994433932848551"><ele>692.0</ele><time>2026-05-02T15:06:59Z</time></trkpt><trkpt lat="43.79901881040531" lon="11.994286546415001"><ele>692.0</ele><time>2026-05-02T15:07:00Z</time></trkpt><trkpt lat="43.79897712236303" lon="11.994129735330453"><ele>692.0</ele><time>2026-05-02T15:07:01Z</time></trkpt><trkpt lat="43.798906643969495" lon="11.993941856183454"><ele>692.0</ele><time>2026-05-02T15:07:02Z</time></trkpt><trkpt lat="43.79885928778178" lon="11.993725170662225"><ele>692.6666666666666</ele><time>2026-05-02T15:07:03Z</time></trkpt><trkpt lat="43.79885243779908" lon="11.99348486209665"><ele>693.3333333333334</ele><time>2026-05-02T15:07:04Z</time></trkpt><trkpt lat="43.798860508125614" lon="11.993222298768499"><ele>694.0</ele><time>2026-05-02T15:07:05Z</time></trkpt><trkpt lat="43.79887701486763" lon="11.992946825740173"><ele>694.0</ele><time>2026-05-02T15:07:06Z</time></trkpt><trkpt lat="43.79889597853368" lon="11.992698743200075"><ele>694.0</ele><time>2026-05-02T15:07:07Z</time></trkpt><trkpt lat="43.79892175825844" lon="11.992475550532674"><ele>694.0</ele><time>2026-05-02T15:07:08Z</time></trkpt><trkpt lat="43.79899063070005" lon="11.992283195693295"><ele>690.3333333333334</ele><time>2026-05-02T15:07:09Z</time></trkpt><trkpt lat="43.799062688845105" lon="11.9920753094633"><ele>686.6666666666666</ele><time>2026-05-02T15:07:10Z</time></trkpt><trkpt lat="43.79914388603872" lon="11.991849691559146"><ele>683.0</ele><time>2026-05-02T15:07:11Z</time></trkpt><trkpt lat="43.79926189959732" lon="11.9916500302761"><ele>689.0</ele><time>2026-05-02T15:07:12Z</time></trkpt><trkpt lat="43.79939109810088" lon="11.991494797781531"><ele>695.0</ele><time>2026-05-02T15:07:13Z</time></trkpt><trkpt lat="43.79948262384615" lon="11.991359321188183"><ele>701.0</ele><time>2026-05-02T15:07:14Z</time></trkpt><trkpt lat="43.79953598774175" lon="11.991166555474097"><ele>701.0</ele><time>2026-05-02T15:07:15Z</time></trkpt><trkpt lat="43.79953445580748" lon="11.990946386645126"><ele>701.0</ele><time>2026-05-02T15:07:16Z</time></trkpt><trkpt lat="43.79949897266676" lon="11.990704163154316"><ele>701.0</ele><time>2026-05-02T15:07:17Z</time></trkpt><trkpt lat="43.799495973517736" lon="11.990490099798544"><ele>697.5</ele><time>2026-05-02T15:07:18Z</time></trkpt><trkpt lat="43.79954940374738" lon="11.990337473599235"><ele>694.0</ele><time>2026-05-02T15:07:19Z</time></trkpt><trkpt lat="43.79960897500574" lon="11.990235872622641"><ele>690.5</ele><time>2026-05-02T15:07:20Z</time></trkpt><trkpt lat="43.799732116652564" lon="11.990235615034058"><ele>687.0</ele><time>2026-05-02T15:07:21Z</time></trkpt><trkpt lat="43.799846042967985" lon="11.990176405761613"><ele>687.0</ele><time>2026-05-02T15:07:22Z</time></trkpt><trkpt lat="43.79994233248444" lon="11.990057352789082"><ele>687.0</ele><time>2026-05-02T15:07:23Z</time></trkpt><trkpt lat="43.800039120670114" lon="11.989884365155207"><ele>687.0</ele><time>2026-05-02T15:07:24Z</time></trkpt><trkpt lat="43.800126174798876" lon="11.989667103783715"><ele>680.6666666666666</ele><time>2026-05-02T15:07:25Z</time></trkpt><trkpt lat="43.80017306527353" lon="11.989455424991837"><ele>674.3333333333333</ele><time>2026-05-02T15:07:26Z</time></trkpt><trkpt lat="43.800173876527786" lon="11.989228422141718"><ele>668.0</ele><time>2026-05-02T15:07:27Z</time></trkpt><trkpt lat="43.800138606997095" lon="11.988977147566548"><ele>668.0</ele><time>2026-05-02T15:07:28Z</time></trkpt><trkpt lat="43.80008159511288" lon="11.988732776901141"><ele>668.0</ele><time>2026-05-02T15:07:29Z</time></trkpt><trkpt lat="43.80004324890162" lon="11.988481441923915"><ele>668.0</ele><time>2026-05-02T15:07:30Z</time></trkpt><trkpt lat="43.80003774136968" lon="11.988243367390584"><ele>668.6666666666666</ele><time>2026-05-02T15:07:31Z</time></trkpt><trkpt lat="43.80004068569189" lon="11.988024710830778"><ele>669.3333333333334</ele><time>2026-05-02T15:07:32Z</time></trkpt><trkpt lat="43.800019193404424" lon="11.987808404479816"><ele>670.0</ele><time>2026-05-02T15:07:33Z</time></trkpt><trkpt lat="43.7999522077748" lon="11.987571160209889"><ele>672.0</ele><time>2026-05-02T15:07:34Z</time></trkpt><trkpt lat="43.79988956311663" lon="11.98734036500122"><ele>674.0</ele><time>2026-05-02T15:07:35Z</time></trkpt><trkpt lat="43.79982856876114" lon="11.987124105087334"><ele>676.0</ele><time>2026-05-02T15:07:36Z</time></trkpt><trkpt lat="43.79972935015365" lon="11.986918148191362"><ele>676.0</ele><time>2026-05-02T15:07:37Z</time></trkpt><trkpt lat="43.79959604945718" lon="11.986742181218606"><ele>676.0</ele><time>2026-05-02T15:07:38Z</time></trkpt><trkpt lat="43.79944685900434" lon="11.986610895082787"><ele>676.0</ele><time>2026-05-02T15:07:39Z</time></trkpt><trkpt lat="43.79932747116373" lon="11.986498310485391"><ele>674.0</ele><time>2026-05-02T15:07:40Z</time></trkpt><trkpt lat="43.79924080479759" lon="11.986369006758043"><ele>672.0</ele><time>2026-05-02T15:07:41Z</time></trkpt><trkpt lat="43.79918720893973" lon="11.986217599280991"><ele>670.0</ele><time>2026-05-02T15:07:42Z</time></trkpt><trkpt lat="43.79916346018924" lon="11.986026444393554"><ele>668.0</ele><time>2026-05-02T15:07:43Z</time></trkpt><trkpt lat="43.79917135532497" lon="11.985785193303661"><ele>668.0</ele><time>2026-05-02T15:07:44Z</time></trkpt><trkpt lat="43.79918246949706" lon="11.98552862288095"><ele>668.0</ele><time>2026-05-02T15:07:45Z</time></trkpt><trkpt lat="43.79917685570365" lon="11.985305962633959"><ele>668.0</ele><time>2026-05-02T15:07:46Z</time></trkpt><trkpt lat="43.79915179462957" lon="11.98511498948206"><ele>672.0</ele><time>2026-05-02T15:07:47Z</time></trkpt><trkpt lat="43.79908231083701" lon="11.984942885658139"><ele>676.0</ele><time>2026-05-02T15:07:48Z</time></trkpt><trkpt lat="43.79895352569536" lon="11.984768667200637"><ele>680.0</ele><time>2026-05-02T15:07:49Z</time></trkpt><trkpt lat="43.79881163761342" lon="11.984572771573541"><ele>680.0</ele><time>2026-05-02T15:07:50Z</time></trkpt><trkpt lat="43.798722414971905" lon="11.984326064490752"><ele>680.0</ele><time>2026-05-02T15:07:51Z</time></trkpt><trkpt lat="43.798615885646" lon="11.984116157485118"><ele>680.0</ele><time>2026-05-02T15:07:52Z</time></trkpt><trkpt lat="43.79848788799701" lon="11.983944816590693"><ele>672.75</ele><time>2026-05-02T15:07:53Z</time></trkpt><trkpt lat="43.798368512937834" lon="11.98380070432017"><ele>665.5</ele><time>2026-05-02T15:07:54Z</time></trkpt><trkpt lat="43.79827431044261" lon="11.983666216425402"><ele>658.25</ele><time>2026-05-02T15:07:55Z</time></trkpt><trkpt lat="43.7982157605035" lon="11.98352327542485"><ele>651.0</ele><time>2026-05-02T15:07:56Z</time></trkpt><trkpt lat="43.798223659721806" lon="11.983340510385162"><ele>651.0</ele><time>2026-05-02T15:07:57Z</time></trkpt><trkpt lat="43.798234841278735" lon="11.98311301506666"><ele>651.0</ele><time>2026-05-02T15:07:58Z</time></trkpt><trkpt lat="43.798278652542635" lon="11.98285003781854"><ele>651.0</ele><time>2026-05-02T15:07:59Z</time></trkpt><trkpt lat="43.79830684681159" lon="11.982605392658229"><ele>650.25</ele><time>2026-05-02T15:08:00Z</time></trkpt><trkpt lat="43.79832888261701" lon="11.98240395102439"><ele>649.5</ele><time>2026-05-02T15:08:01Z</time></trkpt><trkpt lat="43.798309345284686" lon="11.982243073401659"><ele>648.75</ele><time>2026-05-02T15:08:02Z</time></trkpt><trkpt lat="43.79821994792278" lon="11.982120605287841"><ele>648.0</ele><time>2026-05-02T15:08:03Z</time></trkpt><trkpt lat="43.798120426746166" lon="11.982002554228343"><ele>648.0</ele><time>2026-05-02T15:08:04Z</time></trkpt><trkpt lat="43.79802020022354" lon="11.981931185563123"><ele>648.0</ele><time>2026-05-02T15:08:05Z</time></trkpt><trkpt lat="43.797975782868065" lon="11.981822128217955"><ele>648.0</ele><time>2026-05-02T15:08:06Z</time></trkpt><trkpt lat="43.79798424666308" lon="11.981694406007037"><ele>648.0</ele><time>2026-05-02T15:08:07Z</time></trkpt><trkpt lat="43.79805990020289" lon="11.981572250117223"><ele>648.0</ele><time>2026-05-02T15:08:08Z</time></trkpt><trkpt lat="43.79812064512465" lon="11.981397609885816"><ele>649.0</ele><time>2026-05-02T15:08:09Z</time></trkpt><trkpt lat="43.79826229192633" lon="11.98128202323352"><ele>650.0</ele><time>2026-05-02T15:08:10Z</time></trkpt><trkpt lat="43.79842059684283" lon="11.981130377193"><ele>651.0</ele><time>2026-05-02T15:08:11Z</time></trkpt><trkpt lat="43.798571515448685" lon="11.980948303537714"><ele>653.3333333333334</ele><time>2026-05-02T15:08:12Z</time></trkpt><trkpt lat="43.79873099114702" lon="11.980749231773764"><ele>655.6666666666667</ele><time>2026-05-02T15:08:13Z</time></trkpt><trkpt lat="43.798876206040376" lon="11.980512098820073"><ele>658.0</ele><time>2026-05-02T15:08:14Z</time></trkpt><trkpt lat="43.79900624713601" lon="11.980270709651348"><ele>658.0</ele><time>2026-05-02T15:08:15Z</time></trkpt><trkpt lat="43.79912555192919" lon="11.980066550074836"><ele>658.0</ele><time>2026-05-02T15:08:16Z</time></trkpt><trkpt lat="43.79922147527353" lon="11.979908732500002"><ele>658.0</ele><time>2026-05-02T15:08:17Z</time></trkpt><trkpt lat="43.79930287797611" lon="11.979806860704906"><ele>658.0</ele><time>2026-05-02T15:08:18Z</time></trkpt><trkpt lat="43.799418225542844" lon="11.979790101536846"><ele>656.0</ele><time>2026-05-02T15:08:19Z</time></trkpt><trkpt lat="43.79956127642246" lon="11.979817234190978"><ele>654.0</ele><time>2026-05-02T15:08:20Z</time></trkpt><trkpt lat="43.79975222244325" lon="11.97985528483565"><ele>652.0</ele><time>2026-05-02T15:08:21Z</time></trkpt><trkpt lat="43.79992423434516" lon="11.979813893553587"><ele>652.0</ele><time>2026-05-02T15:08:22Z</time></trkpt><trkpt lat="43.80014063304243" lon="11.979789977904977"><ele>652.0</ele><time>2026-05-02T15:08:23Z</time></trkpt><trkpt lat="43.80038328837173" lon="11.979717966989993"><ele>655.6666666666667</ele><time>2026-05-02T15:08:24Z</time></trkpt><trkpt lat="43.80059284575731" lon="11.979640110815545"><ele>659.3333333333334</ele><time>2026-05-02T15:08:25Z</time></trkpt><trkpt lat="43.80078755274725" lon="11.97957583130095"><ele>663.0</ele><time>2026-05-02T15:08:26Z</time></trkpt><trkpt lat="43.80099083769474" lon="11.979543187661216"><ele>662.6666666666666</ele><time>2026-05-02T15:08:27Z</time></trkpt><trkpt lat="43.80118676791855" lon="11.97954794920326"><ele>662.3333333333333</ele><time>2026-05-02T15:08:28Z</time></trkpt><trkpt lat="43.80138023769702" lon="11.979590585563056"><ele>662.0</ele><time>2026-05-02T15:08:29Z</time></trkpt><trkpt lat="43.80157183973746" lon="11.979567009469267"><ele>662.0</ele><time>2026-05-02T15:08:30Z</time></trkpt><trkpt lat="43.80175174331917" lon="11.979523982693582"><ele>662.0</ele><time>2026-05-02T15:08:31Z</time></trkpt><trkpt lat="43.80195460605405" lon="11.97937014266311"><ele>662.0</ele><time>2026-05-02T15:08:32Z</time></trkpt><trkpt lat="43.80216710069927" lon="11.979251945513862"><ele>651.6666666666666</ele><time>2026-05-02T15:08:33Z</time></trkpt><trkpt lat="43.80233213869987" lon="11.9791174277482"><ele>641.3333333333334</ele><time>2026-05-02T15:08:34Z</time></trkpt><trkpt lat="43.80245466208715" lon="11.978994165860453"><ele>631.0</ele><time>2026-05-02T15:08:35Z</time></trkpt><trkpt lat="43.802561597800775" lon="11.978911898109763"><ele>631.0</ele><time>2026-05-02T15:08:36Z</time></trkpt><trkpt lat="43.802655814218205" lon="11.978875536624741"><ele>631.0</ele><time>2026-05-02T15:08:37Z</time></trkpt><trkpt lat="43.802734636528236" lon="11.978880798498919"><ele>631.0</ele><time>2026-05-02T15:08:38Z</time></trkpt><trkpt lat="43.802797073262944" lon="11.979021743144251"><ele>631.0</ele><time>2026-05-02T15:08:39Z</time></trkpt><trkpt lat="43.80290950874904" lon="11.979110946369364"><ele>631.0</ele><time>2026-05-02T15:08:40Z</time></trkpt><trkpt lat="43.80303015085204" lon="11.979139241978512"><ele>631.3333333333334</ele><time>2026-05-02T15:08:41Z</time></trkpt><trkpt lat="43.80319406927642" lon="11.979090853544408"><ele>631.6666666666666</ele><time>2026-05-02T15:08:42Z</time></trkpt><trkpt lat="43.80335999081161" lon="11.979095612331305"><ele>632.0</ele><time>2026-05-02T15:08:43Z</time></trkpt><trkpt lat="43.80348138648861" lon="11.979165113397336"><ele>631.25</ele><time>2026-05-02T15:08:44Z</time></trkpt><trkpt lat="43.8035909166256" lon="11.979204931424848"><ele>630.5</ele><time>2026-05-02T15:08:45Z</time></trkpt><trkpt lat="43.80373832964968" lon="11.97912538124847"><ele>629.75</ele><time>2026-05-02T15:08:46Z</time></trkpt><trkpt lat="43.80389341333045" lon="11.979021160165626"><ele>629.0</ele><time>2026-05-02T15:08:47Z</time></trkpt><trkpt lat="43.804079036090165" lon="11.978920220694427"><ele>629.0</ele><time>2026-05-02T15:08:48Z</time></trkpt><trkpt lat="43.80425947879621" lon="11.978802131652111"><ele>629.0</ele><time>2026-05-02T15:08:49Z</time></trkpt><trkpt lat="43.80441677410539" lon="11.97867579901053"><ele>629.0</ele><time>2026-05-02T15:08:50Z</time></trkpt><trkpt lat="43.804537181259995" lon="11.978543127088379"><ele>633.4</ele><time>2026-05-02T15:08:51Z</time></trkpt><trkpt lat="43.80464181907508" lon="11.97844296297177"><ele>637.8</ele><time>2026-05-02T15:08:52Z</time></trkpt><trkpt lat="43.80473335659506" lon="11.978405144602196"><ele>642.1999999999999</ele><time>2026-05-02T15:08:53Z</time></trkpt><trkpt lat="43.804818967572096" lon="11.978424483674482"><ele>646.5999999999999</ele><time>2026-05-02T15:08:54Z</time></trkpt><trkpt lat="43.80491341054309" lon="11.978518516157811"><ele>651.0</ele><time>2026-05-02T15:08:55Z</time></trkpt><trkpt lat="43.80507656881554" lon="11.978604505148601"><ele>648.0</ele><time>2026-05-02T15:08:56Z</time></trkpt><trkpt lat="43.80526963832637" lon="11.978634044082249"><ele>645.0</ele><time>2026-05-02T15:08:57Z</time></trkpt><trkpt lat="43.8054704304844" lon="11.9786699507907"><ele>642.0</ele><time>2026-05-02T15:08:58Z</time></trkpt><trkpt lat="43.805667317783865" lon="11.978707929693195"><ele>642.0</ele><time>2026-05-02T15:08:59Z</time></trkpt><trkpt lat="43.80584046457086" lon="11.978718860328142"><ele>642.0</ele><time>2026-05-02T15:09:00Z</time></trkpt><trkpt lat="43.80598713551451" lon="11.978733381872498"><ele>642.0</ele><time>2026-05-02T15:09:01Z</time></trkpt><trkpt lat="43.80611457324482" lon="11.978729434710056"><ele>642.0</ele><time>2026-05-02T15:09:02Z</time></trkpt><trkpt lat="43.80620313653219" lon="11.97859784473849"><ele>630.6666666666666</ele><time>2026-05-02T15:09:03Z</time></trkpt><trkpt lat="43.80625710280872" lon="11.978430018113741"><ele>619.3333333333333</ele><time>2026-05-02T15:09:04Z</time></trkpt><trkpt lat="43.80629081636832" lon="11.978222098628093"><ele>608.0</ele><time>2026-05-02T15:09:05Z</time></trkpt><trkpt lat="43.80633212538144" lon="11.977991163624093"><ele>609.6666666666666</ele><time>2026-05-02T15:09:06Z</time></trkpt><trkpt lat="43.80638476271606" lon="11.977764996730858"><ele>611.3333333333334</ele><time>2026-05-02T15:09:07Z</time></trkpt><trkpt lat="43.80643084864491" lon="11.977564532261814"><ele>613.0</ele><time>2026-05-02T15:09:08Z</time></trkpt><trkpt lat="43.8064285845381" lon="11.977353436988837"><ele>613.0</ele><time>2026-05-02T15:09:09Z</time></trkpt><trkpt lat="43.80638105731666" lon="11.977110686742574"><ele>613.0</ele><time>2026-05-02T15:09:10Z</time></trkpt><trkpt lat="43.80632757126233" lon="11.976839779316629"><ele>613.0</ele><time>2026-05-02T15:09:11Z</time></trkpt><trkpt lat="43.80628885910151" lon="11.976566642609763"><ele>616.3333333333334</ele><time>2026-05-02T15:09:12Z</time></trkpt><trkpt lat="43.8062514997416" lon="11.976288371379168"><ele>619.6666666666666</ele><time>2026-05-02T15:09:13Z</time></trkpt><trkpt lat="43.80621323113667" lon="11.976029482915408"><ele>623.0</ele><time>2026-05-02T15:09:14Z</time></trkpt><trkpt lat="43.806164864468485" lon="11.975806593578646"><ele>623.0</ele><time>2026-05-02T15:09:15Z</time></trkpt><trkpt lat="43.80610104252541" lon="11.975605669053591"><ele>623.0</ele><time>2026-05-02T15:09:16Z</time></trkpt><trkpt lat="43.806059564705876" lon="11.975435743699249"><ele>623.0</ele><time>2026-05-02T15:09:17Z</time></trkpt><trkpt lat="43.80604331931977" lon="11.975293700302359"><ele>623.0</ele><time>2026-05-02T15:09:18Z</time></trkpt><trkpt lat="43.80605266259506" lon="11.975168725992253"><ele>623.0</ele><time>2026-05-02T15:09:19Z</time></trkpt><trkpt lat="43.80611067273616" lon="11.97507692850403"><ele>623.0</ele><time>2026-05-02T15:09:20Z</time></trkpt><trkpt lat="43.80617087918478" lon="11.974984849977464"><ele>623.0</ele><time>2026-05-02T15:09:21Z</time></trkpt><trkpt lat="43.8062468683265" lon="11.974889838981417"><ele>623.0</ele><time>2026-05-02T15:09:22Z</time></trkpt><trkpt lat="43.806334876447806" lon="11.974811823991478"><ele>623.0</ele><time>2026-05-02T15:09:23Z</time></trkpt><trkpt lat="43.806436113832945" lon="11.974784256207453"><ele>618.5</ele><time>2026-05-02T15:09:24Z</time></trkpt><trkpt lat="43.80655852126166" lon="11.97476343057887"><ele>614.0</ele><time>2026-05-02T15:09:25Z</time></trkpt><trkpt lat="43.8066884875221" lon="11.974712595490116"><ele>609.5</ele><time>2026-05-02T15:09:26Z</time></trkpt><trkpt lat="43.80680664435189" lon="11.974632189658779"><ele>605.0</ele><time>2026-05-02T15:09:27Z</time></trkpt><trkpt lat="43.806880588733485" lon="11.974470364797833"><ele>615.0</ele><time>2026-05-02T15:09:28Z</time></trkpt><trkpt lat="43.80693088890598" lon="11.974289614242354"><ele>625.0</ele><time>2026-05-02T15:09:29Z</time></trkpt><trkpt lat="43.80693925796595" lon="11.974061929866535"><ele>635.0</ele><time>2026-05-02T15:09:30Z</time></trkpt><trkpt lat="43.806922726217785" lon="11.973849035254936"><ele>635.0</ele><time>2026-05-02T15:09:31Z</time></trkpt><trkpt lat="43.80686400773428" lon="11.973686332539582"><ele>635.0</ele><time>2026-05-02T15:09:32Z</time></trkpt><trkpt lat="43.80675541355433" lon="11.973515335514156"><ele>635.0</ele><time>2026-05-02T15:09:33Z</time></trkpt><trkpt lat="43.806624686056345" lon="11.973349987271835"><ele>624.25</ele><time>2026-05-02T15:09:34Z</time></trkpt><trkpt lat="43.8064982692547" lon="11.973199727490138"><ele>613.5</ele><time>2026-05-02T15:09:35Z</time></trkpt><trkpt lat="43.80638996463868" lon="11.973073107892727"><ele>602.75</ele><time>2026-05-02T15:09:36Z</time></trkpt><trkpt lat="43.8062989281359" lon="11.972977303791104"><ele>592.0</ele><time>2026-05-02T15:09:37Z</time></trkpt><trkpt lat="43.80623860401672" lon="11.972880558067436"><ele>592.0</ele><time>2026-05-02T15:09:38Z</time></trkpt><trkpt lat="43.80622394185402" lon="11.9727508082886"><ele>592.0</ele><time>2026-05-02T15:09:39Z</time></trkpt><trkpt lat="43.80626234356028" lon="11.972613973127984"><ele>592.0</ele><time>2026-05-02T15:09:40Z</time></trkpt><trkpt lat="43.80637949915087" lon="11.972504919229372"><ele>592.0</ele><time>2026-05-02T15:09:41Z</time></trkpt><trkpt lat="43.806516719919145" lon="11.972351291777503"><ele>590.0</ele><time>2026-05-02T15:09:42Z</time></trkpt><trkpt lat="43.806658827398444" lon="11.972183650477978"><ele>588.0</ele><time>2026-05-02T15:09:43Z</time></trkpt><trkpt lat="43.806810313179014" lon="11.972019070970637"><ele>586.0</ele><time>2026-05-02T15:09:44Z</time></trkpt><trkpt lat="43.80694420449986" lon="11.971866438959468"><ele>592.0</ele><time>2026-05-02T15:09:45Z</time></trkpt><trkpt lat="43.807056661944706" lon="11.971711164920006"><ele>598.0</ele><time>2026-05-02T15:09:46Z</time></trkpt><trkpt lat="43.80712690150492" lon="11.971507897866115"><ele>604.0</ele><time>2026-05-02T15:09:47Z</time></trkpt><trkpt lat="43.80716111098332" lon="11.97123847522997"><ele>604.0</ele><time>2026-05-02T15:09:48Z</time></trkpt><trkpt lat="43.80717462461421" lon="11.970943116421763"><ele>604.0</ele><time>2026-05-02T15:09:49Z</time></trkpt><trkpt lat="43.80720208993415" lon="11.970639327170728"><ele>604.0</ele><time>2026-05-02T15:09:50Z</time></trkpt><trkpt lat="43.80723045276926" lon="11.970371482588188"><ele>601.6666666666667</ele><time>2026-05-02T15:09:51Z</time></trkpt><trkpt lat="43.80724504052672" lon="11.970145655687874"><ele>599.3333333333334</ele><time>2026-05-02T15:09:52Z</time></trkpt><trkpt lat="43.807242705188834" lon="11.969947281818525"><ele>597.0</ele><time>2026-05-02T15:09:53Z</time></trkpt><trkpt lat="43.807205964327665" lon="11.969754335562996"><ele>596.0</ele><time>2026-05-02T15:09:54Z</time></trkpt><trkpt lat="43.80713331293608" lon="11.969552862607646"><ele>595.0</ele><time>2026-05-02T15:09:55Z</time></trkpt><trkpt lat="43.80706201675735" lon="11.96935020054202"><ele>594.0</ele><time>2026-05-02T15:09:56Z</time></trkpt><trkpt lat="43.80704300831084" lon="11.969156423364092"><ele>591.0</ele><time>2026-05-02T15:09:57Z</time></trkpt><trkpt lat="43.80705912127461" lon="11.969012649692639"><ele>588.0</ele><time>2026-05-02T15:09:58Z</time></trkpt><trkpt lat="43.807143387168914" lon="11.968907885187358"><ele>585.0</ele><time>2026-05-02T15:09:59Z</time></trkpt><trkpt lat="43.80724941471137" lon="11.968807935268744"><ele>582.0</ele><time>2026-05-02T15:10:00Z</time></trkpt><trkpt lat="43.80740136489623" lon="11.96876695359286"><ele>582.0</ele><time>2026-05-02T15:10:01Z</time></trkpt><trkpt lat="43.80758908471369" lon="11.96874668968565"><ele>582.0</ele><time>2026-05-02T15:10:02Z</time></trkpt><trkpt lat="43.80779708550511" lon="11.968733043451367"><ele>582.0</ele><time>2026-05-02T15:10:03Z</time></trkpt><trkpt lat="43.8080105747805" lon="11.968684536165417"><ele>587.6666666666666</ele><time>2026-05-02T15:10:04Z</time></trkpt><trkpt lat="43.80822365128379" lon="11.968637129246142"><ele>593.3333333333333</ele><time>2026-05-02T15:10:05Z</time></trkpt><trkpt lat="43.80841848042004" lon="11.968626615675213"><ele>599.0</ele><time>2026-05-02T15:10:06Z</time></trkpt><trkpt lat="43.80859516989525" lon="11.968649895228264"><ele>601.3333333333333</ele><time>2026-05-02T15:10:07Z</time></trkpt><trkpt lat="43.80877103241649" lon="11.968652026549107"><ele>603.6666666666666</ele><time>2026-05-02T15:10:08Z</time></trkpt><trkpt lat="43.808915913565976" lon="11.968573630186452"><ele>606.0</ele><time>2026-05-02T15:10:09Z</time></trkpt><trkpt lat="43.80904040664498" lon="11.968454791595397"><ele>606.0</ele><time>2026-05-02T15:10:10Z</time></trkpt><trkpt lat="43.809181597609346" lon="11.968369060165534"><ele>606.0</ele><time>2026-05-02T15:10:11Z</time></trkpt><trkpt lat="43.80932438481462" lon="11.968331349592457"><ele>606.0</ele><time>2026-05-02T15:10:12Z</time></trkpt><trkpt lat="43.80950194101368" lon="11.96828151105372"><ele>610.3333333333334</ele><time>2026-05-02T15:10:13Z</time></trkpt><trkpt lat="43.809658623698866" lon="11.96828322593717"><ele>614.6666666666667</ele><time>2026-05-02T15:10:14Z</time></trkpt><trkpt lat="43.809819106562884" lon="11.968313339029566"><ele>619.0</ele><time>2026-05-02T15:10:15Z</time></trkpt><trkpt lat="43.809988565597756" lon="11.968362682227468"><ele>622.6666666666667</ele><time>2026-05-02T15:10:16Z</time></trkpt><trkpt lat="43.81016685856237" lon="11.968368552952848"><ele>626.3333333333334</ele><time>2026-05-02T15:10:17Z</time></trkpt><trkpt lat="43.81035609910885" lon="11.968300493550071"><ele>630.0</ele><time>2026-05-02T15:10:18Z</time></trkpt><trkpt lat="43.81055859391218" lon="11.968206470377659"><ele>617.3333333333334</ele><time>2026-05-02T15:10:19Z</time></trkpt><trkpt lat="43.810767489037346" lon="11.968097479379908"><ele>604.6666666666667</ele><time>2026-05-02T15:10:20Z</time></trkpt><trkpt lat="43.81095533947272" lon="11.967989269763008"><ele>592.0</ele><time>2026-05-02T15:10:21Z</time></trkpt><trkpt lat="43.811112615755476" lon="11.967898973590954"><ele>592.0</ele><time>2026-05-02T15:10:22Z</time></trkpt><trkpt lat="43.81124514721742" lon="11.967830018239626"><ele>592.0</ele><time>2026-05-02T15:10:23Z</time></trkpt><trkpt lat="43.81136847618229" lon="11.967789289694535"><ele>592.0</ele><time>2026-05-02T15:10:24Z</time></trkpt><trkpt lat="43.811497775890146" lon="11.9678051260588"><ele>592.0</ele><time>2026-05-02T15:10:25Z</time></trkpt><trkpt lat="43.81163266249951" lon="11.96787359928591"><ele>592.0</ele><time>2026-05-02T15:10:26Z</time></trkpt><trkpt lat="43.81178268449966" lon="11.96800259760206"><ele>592.0</ele><time>2026-05-02T15:10:27Z</time></trkpt><trkpt lat="43.811963455290446" lon="11.968116012214278"><ele>592.0</ele><time>2026-05-02T15:10:28Z</time></trkpt><trkpt lat="43.81217936668716" lon="11.968192151479371"><ele>588.3333333333334</ele><time>2026-05-02T15:10:29Z</time></trkpt><trkpt lat="43.81238796652998" lon="11.968257831733146"><ele>584.6666666666666</ele><time>2026-05-02T15:10:30Z</time></trkpt><trkpt lat="43.812583688044974" lon="11.968350801289747"><ele>581.0</ele><time>2026-05-02T15:10:31Z</time></trkpt><trkpt lat="43.81277763078593" lon="11.968464550987196"><ele>581.0</ele><time>2026-05-02T15:10:32Z</time></trkpt><trkpt lat="43.81297091997405" lon="11.968581427292522"><ele>581.0</ele><time>2026-05-02T15:10:33Z</time></trkpt><trkpt lat="43.81315026456949" lon="11.968683226849052"><ele>581.0</ele><time>2026-05-02T15:10:34Z</time></trkpt><trkpt lat="43.81330424361424" lon="11.968758908639419"><ele>581.0</ele><time>2026-05-02T15:10:35Z</time></trkpt><trkpt lat="43.81345340272307" lon="11.968757194400387"><ele>581.0</ele><time>2026-05-02T15:10:36Z</time></trkpt><trkpt lat="43.81359566599225" lon="11.968700508686126"><ele>581.0</ele><time>2026-05-02T15:10:37Z</time></trkpt><trkpt lat="43.81375823698428" lon="11.968582184813773"><ele>581.6666666666666</ele><time>2026-05-02T15:10:38Z</time></trkpt><trkpt lat="43.81393821425924" lon="11.968487499576701"><ele>582.3333333333334</ele><time>2026-05-02T15:10:39Z</time></trkpt><trkpt lat="43.81408893144501" lon="11.968398157110448"><ele>583.0</ele><time>2026-05-02T15:10:40Z</time></trkpt><trkpt lat="43.81424523964657" lon="11.96839551496217"><ele>586.3333333333334</ele><time>2026-05-02T15:10:41Z</time></trkpt><trkpt lat="43.81442549576469" lon="11.96840452120951"><ele>589.6666666666666</ele><time>2026-05-02T15:10:42Z</time></trkpt><trkpt lat="43.814557741623105" lon="11.968326858991896"><ele>593.0</ele><time>2026-05-02T15:10:43Z</time></trkpt><trkpt lat="43.81469355949324" lon="11.968220281797462"><ele>585.3333333333333</ele><time>2026-05-02T15:10:44Z</time></trkpt><trkpt lat="43.814802860510774" lon="11.968037133919179"><ele>577.6666666666666</ele><time>2026-05-02T15:10:45Z</time></trkpt><trkpt lat="43.81489633840002" lon="11.967827023184418"><ele>570.0</ele><time>2026-05-02T15:10:46Z</time></trkpt><trkpt lat="43.8150062328563" lon="11.967593390505877"><ele>565.6666666666666</ele><time>2026-05-02T15:10:47Z</time></trkpt><trkpt lat="43.81507262458928" lon="11.967362507730844"><ele>561.3333333333333</ele><time>2026-05-02T15:10:48Z</time></trkpt><trkpt lat="43.815109472634184" lon="11.967131179696201"><ele>557.0</ele><time>2026-05-02T15:10:49Z</time></trkpt><trkpt lat="43.815128257153354" lon="11.966916432907686"><ele>557.0</ele><time>2026-05-02T15:10:50Z</time></trkpt><trkpt lat="43.81514842361945" lon="11.966729763297078"><ele>557.0</ele><time>2026-05-02T15:10:51Z</time></trkpt><trkpt lat="43.81520455194218" lon="11.966560561932686"><ele>557.0</ele><time>2026-05-02T15:10:52Z</time></trkpt><trkpt lat="43.81530487489728" lon="11.966476894428515"><ele>557.0</ele><time>2026-05-02T15:10:53Z</time></trkpt><trkpt lat="43.815415798589584" lon="11.966423134854635"><ele>556.75</ele><time>2026-05-02T15:10:54Z</time></trkpt><trkpt lat="43.815532705711135" lon="11.966453678840383"><ele>556.5</ele><time>2026-05-02T15:10:55Z</time></trkpt><trkpt lat="43.815673698144536" lon="11.96653484910099"><ele>556.25</ele><time>2026-05-02T15:10:56Z</time></trkpt><trkpt lat="43.815831282402236" lon="11.966622182537156"><ele>556.0</ele><time>2026-05-02T15:10:57Z</time></trkpt><trkpt lat="43.815966714826615" lon="11.966712720188328"><ele>559.0</ele><time>2026-05-02T15:10:58Z</time></trkpt><trkpt lat="43.81609733515318" lon="11.966731360866964"><ele>562.0</ele><time>2026-05-02T15:10:59Z</time></trkpt><trkpt lat="43.81621969037773" lon="11.966654356552782"><ele>565.0</ele><time>2026-05-02T15:11:00Z</time></trkpt><trkpt lat="43.816343406156996" lon="11.966513694850885"><ele>568.0</ele><time>2026-05-02T15:11:01Z</time></trkpt><trkpt lat="43.81645003512699" lon="11.966378221624577"><ele>568.0</ele><time>2026-05-02T15:11:02Z</time></trkpt><trkpt lat="43.816496571583805" lon="11.96622835076369"><ele>568.0</ele><time>2026-05-02T15:11:03Z</time></trkpt><trkpt lat="43.81648155748983" lon="11.966078878642799"><ele>568.0</ele><time>2026-05-02T15:11:04Z</time></trkpt><trkpt lat="43.81641583503625" lon="11.965926791451533"><ele>568.0</ele><time>2026-05-02T15:11:05Z</time></trkpt><trkpt lat="43.816324622506094" lon="11.965724309379597"><ele>563.6666666666667</ele><time>2026-05-02T15:11:06Z</time></trkpt><trkpt lat="43.816241955067525" lon="11.965478275102011"><ele>559.3333333333334</ele><time>2026-05-02T15:11:07Z</time></trkpt><trkpt lat="43.816157443626054" lon="11.965228834597808"><ele>555.0</ele><time>2026-05-02T15:11:08Z</time></trkpt><trkpt lat="43.81604801022257" lon="11.964964481817796"><ele>555.6666666666666</ele><time>2026-05-02T15:11:09Z</time></trkpt><trkpt lat="43.8159369070975" lon="11.964709939424274"><ele>556.3333333333333</ele><time>2026-05-02T15:11:10Z</time></trkpt><trkpt lat="43.815849264716675" lon="11.964499298922577"><ele>557.0</ele><time>2026-05-02T15:11:11Z</time></trkpt><trkpt lat="43.81578579306548" lon="11.964328337867167"><ele>558.0</ele><time>2026-05-02T15:11:12Z</time></trkpt><trkpt lat="43.81573014226243" lon="11.964157455305322"><ele>559.0</ele><time>2026-05-02T15:11:13Z</time></trkpt><trkpt lat="43.81569072283691" lon="11.963966002788272"><ele>560.0</ele><time>2026-05-02T15:11:14Z</time></trkpt><trkpt lat="43.815681401097095" lon="11.96376736403803"><ele>561.0</ele><time>2026-05-02T15:11:15Z</time></trkpt><trkpt lat="43.8156987330226" lon="11.963575741309228"><ele>561.0</ele><time>2026-05-02T15:11:16Z</time></trkpt><trkpt lat="43.81576614123614" lon="11.963381577520249"><ele>561.0</ele><time>2026-05-02T15:11:17Z</time></trkpt><trkpt lat="43.81587696433966" lon="11.963206454914134"><ele>561.0</ele><time>2026-05-02T15:11:18Z</time></trkpt><trkpt lat="43.81599417689886" lon="11.963018144890778"><ele>558.5</ele><time>2026-05-02T15:11:19Z</time></trkpt><trkpt lat="43.81612282303856" lon="11.96289624404621"><ele>556.0</ele><time>2026-05-02T15:11:20Z</time></trkpt><trkpt lat="43.81627860057185" lon="11.962958868465243"><ele>553.5</ele><time>2026-05-02T15:11:21Z</time></trkpt><trkpt lat="43.81637774626082" lon="11.962907231295873"><ele>551.0</ele><time>2026-05-02T15:11:22Z</time></trkpt><trkpt lat="43.816486122409785" lon="11.962830282074284"><ele>551.0</ele><time>2026-05-02T15:11:23Z</time></trkpt><trkpt lat="43.81658285267991" lon="11.962696123439263"><ele>551.0</ele><time>2026-05-02T15:11:24Z</time></trkpt><trkpt lat="43.81670901810931" lon="11.962529527168885"><ele>551.0</ele><time>2026-05-02T15:11:25Z</time></trkpt><trkpt lat="43.81684992825541" lon="11.962357740823604"><ele>542.5</ele><time>2026-05-02T15:11:26Z</time></trkpt><trkpt lat="43.817043383481824" lon="11.962184544989023"><ele>534.0</ele><time>2026-05-02T15:11:27Z</time></trkpt><trkpt lat="43.817239275049694" lon="11.962003078501853"><ele>534.0</ele><time>2026-05-02T15:11:28Z</time></trkpt><trkpt lat="43.81742844133561" lon="11.961808533832068"><ele>534.0</ele><time>2026-05-02T15:11:29Z</time></trkpt><trkpt lat="43.817619531222284" lon="11.961650655985707"><ele>533.6666666666666</ele><time>2026-05-02T15:11:30Z</time></trkpt><trkpt lat="43.81781988963045" lon="11.961563414936133"><ele>533.3333333333333</ele><time>2026-05-02T15:11:31Z</time></trkpt><trkpt lat="43.81801028501657" lon="11.961458388444703"><ele>533.0</ele><time>2026-05-02T15:11:32Z</time></trkpt><trkpt lat="43.81820064216819" lon="11.96138833512114"><ele>533.0</ele><time>2026-05-02T15:11:33Z</time></trkpt><trkpt lat="43.81838864939667" lon="11.961349395210886"><ele>533.0</ele><time>2026-05-02T15:11:34Z</time></trkpt><trkpt lat="43.81855186028113" lon="11.96128655212842"><ele>533.0</ele><time>2026-05-02T15:11:35Z</time></trkpt><trkpt lat="43.81870733797793" lon="11.961248774087192"><ele>532.75</ele><time>2026-05-02T15:11:36Z</time></trkpt><trkpt lat="43.81885954073999" lon="11.961204808399723"><ele>532.5</ele><time>2026-05-02T15:11:37Z</time></trkpt><trkpt lat="43.81897004934844" lon="11.961117447575633"><ele>532.25</ele><time>2026-05-02T15:11:38Z</time></trkpt><trkpt lat="43.81900742787248" lon="11.96095598346872"><ele>532.0</ele><time>2026-05-02T15:11:39Z</time></trkpt><trkpt lat="43.81901518055591" lon="11.960795013164224"><ele>530.5</ele><time>2026-05-02T15:11:40Z</time></trkpt><trkpt lat="43.819028982384616" lon="11.960646590194708"><ele>529.0</ele><time>2026-05-02T15:11:41Z</time></trkpt><trkpt lat="43.81906121053616" lon="11.960470847357175"><ele>527.5</ele><time>2026-05-02T15:11:42Z</time></trkpt><trkpt lat="43.8191023234284" lon="11.960190780736019"><ele>526.0</ele><time>2026-05-02T15:11:43Z</time></trkpt><trkpt lat="43.819132698147264" lon="11.959981476503108"><ele>525.5</ele><time>2026-05-02T15:11:44Z</time></trkpt><trkpt lat="43.819166212228915" lon="11.959797638539"><ele>525.0</ele><time>2026-05-02T15:11:45Z</time></trkpt><trkpt lat="43.81921256401089" lon="11.95962666996999"><ele>524.5</ele><time>2026-05-02T15:11:46Z</time></trkpt><trkpt lat="43.81928215424084" lon="11.959480556768161"><ele>524.0</ele><time>2026-05-02T15:11:47Z</time></trkpt><trkpt lat="43.81937444147085" lon="11.959373011004265"><ele>524.0</ele><time>2026-05-02T15:11:48Z</time></trkpt><trkpt lat="43.819481040558436" lon="11.95929103869291"><ele>524.0</ele><time>2026-05-02T15:11:49Z</time></trkpt><trkpt lat="43.81960369957973" lon="11.959237095445287"><ele>524.0</ele><time>2026-05-02T15:11:50Z</time></trkpt><trkpt lat="43.81973102633348" lon="11.959237327312104"><ele>524.0</ele><time>2026-05-02T15:11:51Z</time></trkpt><trkpt lat="43.81985903614398" lon="11.959301196648443"><ele>524.0</ele><time>2026-05-02T15:11:52Z</time></trkpt><trkpt lat="43.820018275671366" lon="11.959343832948504"><ele>524.0</ele><time>2026-05-02T15:11:53Z</time></trkpt><trkpt lat="43.82016319072625" lon="11.95943655601323"><ele>524.0</ele><time>2026-05-02T15:11:54Z</time></trkpt><trkpt lat="43.82030940494264" lon="11.959493968993488"><ele>525.25</ele><time>2026-05-02T15:11:55Z</time></trkpt><trkpt lat="43.82043715113134" lon="11.959495953576699"><ele>526.5</ele><time>2026-05-02T15:11:56Z</time></trkpt><trkpt lat="43.820557816535256" lon="11.959486258500283"><ele>527.75</ele><time>2026-05-02T15:11:57Z</time></trkpt><trkpt lat="43.82063640890807" lon="11.959394347961542"><ele>529.0</ele><time>2026-05-02T15:11:58Z</time></trkpt><trkpt lat="43.820739175300574" lon="11.959252505654144"><ele>525.25</ele><time>2026-05-02T15:11:59Z</time></trkpt><trkpt lat="43.82078789084182" lon="11.959048297276393"><ele>521.5</ele><time>2026-05-02T15:12:00Z</time></trkpt><trkpt lat="43.82079728374993" lon="11.95885320889266"><ele>517.75</ele><time>2026-05-02T15:12:01Z</time></trkpt><trkpt lat="43.82080619965164" lon="11.95868677121411"><ele>514.0</ele><time>2026-05-02T15:12:02Z</time></trkpt><trkpt lat="43.82083234777319" lon="11.958489002142878"><ele>514.5</ele><time>2026-05-02T15:12:03Z</time></trkpt><trkpt lat="43.82084928204534" lon="11.95828679156956"><ele>515.0</ele><time>2026-05-02T15:12:04Z</time></trkpt><trkpt lat="43.82090856725409" lon="11.958111402814199"><ele>515.5</ele><time>2026-05-02T15:12:05Z</time></trkpt><trkpt lat="43.82101717145175" lon="11.957968206587449"><ele>516.0</ele><time>2026-05-02T15:12:06Z</time></trkpt><trkpt lat="43.82115953362999" lon="11.957864800033708"><ele>514.3333333333334</ele><time>2026-05-02T15:12:07Z</time></trkpt><trkpt lat="43.821315622392945" lon="11.957831531676803"><ele>512.6666666666667</ele><time>2026-05-02T15:12:08Z</time></trkpt><trkpt lat="43.82148384858798" lon="11.957871292055342"><ele>511.0</ele><time>2026-05-02T15:12:09Z</time></trkpt><trkpt lat="43.82166362496527" lon="11.9579291964616"><ele>511.0</ele><time>2026-05-02T15:12:10Z</time></trkpt><trkpt lat="43.82185459692767" lon="11.958000928055206"><ele>511.0</ele><time>2026-05-02T15:12:11Z</time></trkpt><trkpt lat="43.822046725687485" lon="11.958001698879105"><ele>511.0</ele><time>2026-05-02T15:12:12Z</time></trkpt><trkpt lat="43.82225123681738" lon="11.957938427933465"><ele>511.0</ele><time>2026-05-02T15:12:13Z</time></trkpt><trkpt lat="43.822454737846016" lon="11.95784475501966"><ele>511.0</ele><time>2026-05-02T15:12:14Z</time></trkpt><trkpt lat="43.822653658908585" lon="11.957770703052145"><ele>511.0</ele><time>2026-05-02T15:12:15Z</time></trkpt><trkpt lat="43.82282904362239" lon="11.957708955321776"><ele>509.6666666666667</ele><time>2026-05-02T15:12:16Z</time></trkpt><trkpt lat="43.82299755953689" lon="11.957653080584148"><ele>508.33333333333337</ele><time>2026-05-02T15:12:17Z</time></trkpt><trkpt lat="43.823146721664926" lon="11.957609664626503"><ele>507.0</ele><time>2026-05-02T15:12:18Z</time></trkpt><trkpt lat="43.82328652850599" lon="11.957573827756118"><ele>507.0</ele><time>2026-05-02T15:12:19Z</time></trkpt><trkpt lat="43.823408798560514" lon="11.957553308217772"><ele>507.0</ele><time>2026-05-02T15:12:20Z</time></trkpt><trkpt lat="43.823509996991106" lon="11.957541085581573"><ele>507.0</ele><time>2026-05-02T15:12:21Z</time></trkpt><trkpt lat="43.82359064742342" lon="11.957534989313674"><ele>507.0</ele><time>2026-05-02T15:12:22Z</time></trkpt><trkpt lat="43.82365510314487" lon="11.957542105853632"><ele>507.0</ele><time>2026-05-02T15:12:23Z</time></trkpt><trkpt lat="43.82373252863507" lon="11.95754769445305"><ele>507.0</ele><time>2026-05-02T15:12:25Z</time></trkpt><trkpt lat="43.82380849931839" lon="11.957502092630445"><ele>512.8000000000001</ele><time>2026-05-02T15:12:32Z</time></trkpt><trkpt lat="43.82380604028432" lon="11.95735410991201"><ele>518.6</ele><time>2026-05-02T15:12:33Z</time></trkpt><trkpt lat="43.82379667077407" lon="11.95724322788104"><ele>524.4000000000001</ele><time>2026-05-02T15:12:34Z</time></trkpt><trkpt lat="43.82380565139914" lon="11.957099090780066"><ele>530.2</ele><time>2026-05-02T15:12:35Z</time></trkpt><trkpt lat="43.82380558461066" lon="11.956933733280849"><ele>536.0</ele><time>2026-05-02T15:12:36Z</time></trkpt><trkpt lat="43.823800074667865" lon="11.956735408154653"><ele>540.0</ele><time>2026-05-02T15:12:37Z</time></trkpt><trkpt lat="43.82378015022362" lon="11.956546217238941"><ele>544.0</ele><time>2026-05-02T15:12:38Z</time></trkpt><trkpt lat="43.82374706902048" lon="11.956331809464581"><ele>548.0</ele><time>2026-05-02T15:12:39Z</time></trkpt><trkpt lat="43.82372281393945" lon="11.956099187810407"><ele>547.3333333333333</ele><time>2026-05-02T15:12:40Z</time></trkpt><trkpt lat="43.823735121107795" lon="11.955867322714768"><ele>546.6666666666666</ele><time>2026-05-02T15:12:41Z</time></trkpt><trkpt lat="43.823763452442655" lon="11.95561175023116"><ele>546.0</ele><time>2026-05-02T15:12:42Z</time></trkpt><trkpt lat="43.823838411317055" lon="11.955342004816869"><ele>546.0</ele><time>2026-05-02T15:12:43Z</time></trkpt><trkpt lat="43.82388410595639" lon="11.955099095065346"><ele>546.0</ele><time>2026-05-02T15:12:44Z</time></trkpt><trkpt lat="43.82387860208619" lon="11.954853936425085"><ele>546.0</ele><time>2026-05-02T15:12:45Z</time></trkpt><trkpt lat="43.82384118480322" lon="11.954569450795878"><ele>545.3333333333334</ele><time>2026-05-02T15:12:46Z</time></trkpt><trkpt lat="43.82381765457298" lon="11.954274245225967"><ele>544.6666666666667</ele><time>2026-05-02T15:12:47Z</time></trkpt><trkpt lat="43.8238377564604" lon="11.953972606661662"><ele>544.0</ele><time>2026-05-02T15:12:48Z</time></trkpt><trkpt lat="43.823854686847504" lon="11.95370978660385"><ele>545.0</ele><time>2026-05-02T15:12:49Z</time></trkpt><trkpt lat="43.823848272406764" lon="11.953484329317767"><ele>546.0</ele><time>2026-05-02T15:12:50Z</time></trkpt><trkpt lat="43.82382443868383" lon="11.95328464260468"><ele>547.0</ele><time>2026-05-02T15:12:51Z</time></trkpt><trkpt lat="43.82376790276496" lon="11.95313848774618"><ele>548.0</ele><time>2026-05-02T15:12:52Z</time></trkpt><trkpt lat="43.823687917978454" lon="11.953061250473272"><ele>549.5</ele><time>2026-05-02T15:12:53Z</time></trkpt><trkpt lat="43.823577318282275" lon="11.953054760345005"><ele>551.0</ele><time>2026-05-02T15:12:54Z</time></trkpt><trkpt lat="43.823461399673" lon="11.953070591233274"><ele>552.5</ele><time>2026-05-02T15:12:55Z</time></trkpt><trkpt lat="43.823348112738024" lon="11.953145427050533"><ele>554.0</ele><time>2026-05-02T15:12:56Z</time></trkpt><trkpt lat="43.823216580463416" lon="11.953231182948079"><ele>547.0</ele><time>2026-05-02T15:12:57Z</time></trkpt><trkpt lat="43.82309586378883" lon="11.953300017946543"><ele>540.0</ele><time>2026-05-02T15:12:58Z</time></trkpt><trkpt lat="43.822899988526096" lon="11.953394736098094"><ele>533.0</ele><time>2026-05-02T15:12:59Z</time></trkpt><trkpt lat="43.82276560625132" lon="11.953472753434594"><ele>532.1666666666666</ele><time>2026-05-02T15:13:00Z</time></trkpt><trkpt lat="43.82268456368042" lon="11.953536507389586"><ele>531.3333333333333</ele><time>2026-05-02T15:13:01Z</time></trkpt><trkpt lat="43.82262258803937" lon="11.953629728675137"><ele>530.5</ele><time>2026-05-02T15:13:02Z</time></trkpt><trkpt lat="43.822616391373074" lon="11.95375183668284"><ele>529.6666666666666</ele><time>2026-05-02T15:13:03Z</time></trkpt><trkpt lat="43.822617173506515" lon="11.953862712405753"><ele>528.8333333333334</ele><time>2026-05-02T15:13:04Z</time></trkpt><trkpt lat="43.82265514552743" lon="11.95396197059626"><ele>528.0</ele><time>2026-05-02T15:13:05Z</time></trkpt><trkpt lat="43.822879108780555" lon="11.95409767274613"><ele>530.0</ele><time>2026-05-02T15:13:06Z</time></trkpt><trkpt lat="43.82302526189096" lon="11.9542065944725"><ele>532.0</ele><time>2026-05-02T15:13:07Z</time></trkpt><trkpt lat="43.823125860418656" lon="11.954331851745883"><ele>534.0</ele><time>2026-05-02T15:13:08Z</time></trkpt><trkpt lat="43.82312564338948" lon="11.954492225039576"><ele>536.0</ele><time>2026-05-02T15:13:09Z</time></trkpt><trkpt lat="43.823128151070904" lon="11.954634045276698"><ele>536.0</ele><time>2026-05-02T15:13:10Z</time></trkpt><trkpt lat="43.82310114822987" lon="11.954842138887223"><ele>536.0</ele><time>2026-05-02T15:13:11Z</time></trkpt><trkpt lat="43.823025202431694" lon="11.955048050638805"><ele>536.0</ele><time>2026-05-02T15:13:12Z</time></trkpt><trkpt lat="43.8230012717129" lon="11.955292658840087"><ele>536.3333333333333</ele><time>2026-05-02T15:13:13Z</time></trkpt><trkpt lat="43.822971236554224" lon="11.955567776152744"><ele>536.6666666666666</ele><time>2026-05-02T15:13:14Z</time></trkpt><trkpt lat="43.82293705526174" lon="11.9558859831536"><ele>537.0</ele><time>2026-05-02T15:13:15Z</time></trkpt><trkpt lat="43.82295913854048" lon="11.956114135635199"><ele>535.5</ele><time>2026-05-02T15:13:16Z</time></trkpt><trkpt lat="43.82298205014593" lon="11.95634254170089"><ele>534.0</ele><time>2026-05-02T15:13:17Z</time></trkpt><trkpt lat="43.82296458165239" lon="11.9565295269254"><ele>532.5</ele><time>2026-05-02T15:13:18Z</time></trkpt><trkpt lat="43.822945440753585" lon="11.95665905689168"><ele>531.0</ele><time>2026-05-02T15:13:19Z</time></trkpt><trkpt lat="43.82290972696401" lon="11.95675945336784"><ele>531.5</ele><time>2026-05-02T15:13:20Z</time></trkpt><trkpt lat="43.822857670795514" lon="11.956828280162807"><ele>532.0</ele><time>2026-05-02T15:13:21Z</time></trkpt><trkpt lat="43.82272342169201" lon="11.956775954001637"><ele>532.5</ele><time>2026-05-02T15:13:22Z</time></trkpt><trkpt lat="43.822567182489486" lon="11.956816072834734"><ele>533.0</ele><time>2026-05-02T15:13:23Z</time></trkpt><trkpt lat="43.82239368875522" lon="11.956871112209331"><ele>533.0</ele><time>2026-05-02T15:13:24Z</time></trkpt><trkpt lat="43.822202156336665" lon="11.95692190905254"><ele>533.0</ele><time>2026-05-02T15:13:25Z</time></trkpt><trkpt lat="43.822005896847344" lon="11.956956668239856"><ele>533.0</ele><time>2026-05-02T15:13:26Z</time></trkpt><trkpt lat="43.82184714923067" lon="11.95703848552712"><ele>534.75</ele><time>2026-05-02T15:13:27Z</time></trkpt><trkpt lat="43.821727922661005" lon="11.95710197389331"><ele>536.5</ele><time>2026-05-02T15:13:28Z</time></trkpt><trkpt lat="43.82163936682708" lon="11.957171579617485"><ele>538.25</ele><time>2026-05-02T15:13:29Z</time></trkpt><trkpt lat="43.82151228165074" lon="11.957127429947088"><ele>540.0</ele><time>2026-05-02T15:13:31Z</time></trkpt><trkpt lat="43.821398697806586" lon="11.957063256141009"><ele>540.0</ele><time>2026-05-02T15:13:32Z</time></trkpt><trkpt lat="43.82124254918092" lon="11.957042208264665"><ele>540.0</ele><time>2026-05-02T15:13:33Z</time></trkpt><trkpt lat="43.821080613150215" lon="11.956995876760157"><ele>540.0</ele><time>2026-05-02T15:13:34Z</time></trkpt><trkpt lat="43.82091454962171" lon="11.956980093903448"><ele>540.5</ele><time>2026-05-02T15:13:34.999Z</time></trkpt><trkpt lat="43.8207756914218" lon="11.956956443174919"><ele>541.0</ele><time>2026-05-02T15:13:35.999Z</time></trkpt><trkpt lat="43.82066395654749" lon="11.956893878607088"><ele>541.5</ele><time>2026-05-02T15:13:36.999Z</time></trkpt><trkpt lat="43.82059769404661" lon="11.95677354399489"><ele>542.0</ele><time>2026-05-02T15:13:37.999Z</time></trkpt><trkpt lat="43.82059043331939" lon="11.9565905209136"><ele>554.3333333333333</ele><time>2026-05-02T15:13:39Z</time></trkpt><trkpt lat="43.82057756375723" lon="11.956380427558646"><ele>566.6666666666666</ele><time>2026-05-02T15:13:40Z</time></trkpt><trkpt lat="43.82058088929264" lon="11.956116691085386"><ele>579.0</ele><time>2026-05-02T15:13:41Z</time></trkpt><trkpt lat="43.82056827888196" lon="11.955856000407925"><ele>587.0</ele><time>2026-05-02T15:13:42Z</time></trkpt><trkpt lat="43.82055820442144" lon="11.955648251127677"><ele>595.0</ele><time>2026-05-02T15:13:43Z</time></trkpt><trkpt lat="43.82053878745466" lon="11.95546554386149"><ele>603.0</ele><time>2026-05-02T15:13:44Z</time></trkpt><trkpt lat="43.820490798318055" lon="11.955302879269771"><ele>611.0</ele><time>2026-05-02T15:13:45Z</time></trkpt><trkpt lat="43.82040393947292" lon="11.955189664847579"><ele>611.0</ele><time>2026-05-02T15:13:46Z</time></trkpt><trkpt lat="43.82029490213079" lon="11.955153489326861"><ele>611.0</ele><time>2026-05-02T15:13:47Z</time></trkpt><trkpt lat="43.820186637994986" lon="11.955156775795173"><ele>611.0</ele><time>2026-05-02T15:13:48Z</time></trkpt><trkpt lat="43.82009220007881" lon="11.955166374855821"><ele>611.0</ele><time>2026-05-02T15:13:49Z</time></trkpt><trkpt lat="43.82002137318075" lon="11.955130932738278"><ele>611.0</ele><time>2026-05-02T15:13:50Z</time></trkpt><trkpt lat="43.819985019219345" lon="11.955040212731921"><ele>607.0</ele><time>2026-05-02T15:13:51Z</time></trkpt><trkpt lat="43.819985795670796" lon="11.954912649433025"><ele>603.0</ele><time>2026-05-02T15:13:52Z</time></trkpt><trkpt lat="43.82000552517867" lon="11.954777796337615"><ele>599.0</ele><time>2026-05-02T15:13:53Z</time></trkpt><trkpt lat="43.820012746183195" lon="11.954650947633755"><ele>595.0</ele><time>2026-05-02T15:13:54Z</time></trkpt><trkpt lat="43.819986416721505" lon="11.954535072688257"><ele>591.0</ele><time>2026-05-02T15:13:55Z</time></trkpt><trkpt lat="43.81990861349972" lon="11.954410927011867"><ele>591.0</ele><time>2026-05-02T15:13:56Z</time></trkpt><trkpt lat="43.81977482337328" lon="11.954304022798949"><ele>591.0</ele><time>2026-05-02T15:13:57Z</time></trkpt><trkpt lat="43.81963194507942" lon="11.95418830351193"><ele>591.0</ele><time>2026-05-02T15:13:58Z</time></trkpt><trkpt lat="43.819532696776065" lon="11.954101212138475"><ele>591.0</ele><time>2026-05-02T15:13:59Z</time></trkpt><trkpt lat="43.81946613770279" lon="11.954093553485766"><ele>588.0</ele><time>2026-05-02T15:14:00Z</time></trkpt><trkpt lat="43.81938397549607" lon="11.954198612106646"><ele>585.0</ele><time>2026-05-02T15:14:01Z</time></trkpt><trkpt lat="43.81928533571364" lon="11.954292175718034"><ele>582.0</ele><time>2026-05-02T15:14:02Z</time></trkpt><trkpt lat="43.81920611554112" lon="11.95439938268428"><ele>579.0</ele><time>2026-05-02T15:14:03Z</time></trkpt><trkpt lat="43.819152384110396" lon="11.954469401494821"><ele>576.0</ele><time>2026-05-02T15:14:04Z</time></trkpt><trkpt lat="43.819086537193115" lon="11.954523296942183"><ele>576.0</ele><time>2026-05-02T15:14:05Z</time></trkpt><trkpt lat="43.81901620592007" lon="11.954522470162804"><ele>576.0</ele><time>2026-05-02T15:14:06Z</time></trkpt><trkpt lat="43.818945093139874" lon="11.954482619584578"><ele>576.0</ele><time>2026-05-02T15:14:07Z</time></trkpt><trkpt lat="43.81889734819304" lon="11.95436067734533"><ele>576.0</ele><time>2026-05-02T15:14:08Z</time></trkpt><trkpt lat="43.81888471675046" lon="11.95420497588633"><ele>576.0</ele><time>2026-05-02T15:14:09Z</time></trkpt><trkpt lat="43.81893780667372" lon="11.954030835763255"><ele>584.6666666666666</ele><time>2026-05-02T15:14:10Z</time></trkpt><trkpt lat="43.81898782710795" lon="11.953807277016882"><ele>593.3333333333333</ele><time>2026-05-02T15:14:11Z</time></trkpt><trkpt lat="43.81902283905693" lon="11.953569167218212"><ele>602.0</ele><time>2026-05-02T15:14:12Z</time></trkpt><trkpt lat="43.81906071838362" lon="11.953393723432523"><ele>607.25</ele><time>2026-05-02T15:14:13Z</time></trkpt><trkpt lat="43.81907695791865" lon="11.953255827071256"><ele>612.5</ele><time>2026-05-02T15:14:14Z</time></trkpt><trkpt lat="43.81906206617388" lon="11.95310253853416"><ele>617.75</ele><time>2026-05-02T15:14:15Z</time></trkpt><trkpt lat="43.819022439419804" lon="11.952926774385558"><ele>623.0</ele><time>2026-05-02T15:14:16Z</time></trkpt><trkpt lat="43.81897824575323" lon="11.952705186976694"><ele>623.0</ele><time>2026-05-02T15:14:17Z</time></trkpt><trkpt lat="43.81892955312289" lon="11.952544785135062"><ele>623.0</ele><time>2026-05-02T15:14:18Z</time></trkpt><trkpt lat="43.818864767116494" lon="11.952418679483479"><ele>623.0</ele><time>2026-05-02T15:14:19Z</time></trkpt><trkpt lat="43.81880107959537" lon="11.952307173999955"><ele>623.0</ele><time>2026-05-02T15:14:20Z</time></trkpt><trkpt lat="43.81874358934557" lon="11.952212274521795"><ele>623.0</ele><time>2026-05-02T15:14:21Z</time></trkpt><trkpt lat="43.818671103984755" lon="11.952144870634388"><ele>623.25</ele><time>2026-05-02T15:14:22Z</time></trkpt><trkpt lat="43.81856721019875" lon="11.952134885342373"><ele>623.5</ele><time>2026-05-02T15:14:23Z</time></trkpt><trkpt lat="43.818457785001854" lon="11.952202608159325"><ele>623.75</ele><time>2026-05-02T15:14:24Z</time></trkpt><trkpt lat="43.81837296703412" lon="11.95232806056921"><ele>624.0</ele><time>2026-05-02T15:14:25Z</time></trkpt><trkpt lat="43.81829155572935" lon="11.952475030477627"><ele>618.6</ele><time>2026-05-02T15:14:26Z</time></trkpt><trkpt lat="43.81820245677886" lon="11.952600714013261"><ele>613.2</ele><time>2026-05-02T15:14:27Z</time></trkpt><trkpt lat="43.81812077646619" lon="11.952689176358325"><ele>607.8000000000001</ele><time>2026-05-02T15:14:28Z</time></trkpt><trkpt lat="43.81803846506685" lon="11.952739714875568"><ele>602.4</ele><time>2026-05-02T15:14:29Z</time></trkpt><trkpt lat="43.817959854913354" lon="11.952738012555645"><ele>597.0</ele><time>2026-05-02T15:14:30Z</time></trkpt><trkpt lat="43.81789992745754" lon="11.952655956520708"><ele>603.75</ele><time>2026-05-02T15:14:31Z</time></trkpt><trkpt lat="43.81787591099946" lon="11.95253477691925"><ele>610.5</ele><time>2026-05-02T15:14:32Z</time></trkpt><trkpt lat="43.81792021293113" lon="11.95239386484851"><ele>617.25</ele><time>2026-05-02T15:14:33Z</time></trkpt><trkpt lat="43.81789273547264" lon="11.95222246760433"><ele>624.0</ele><time>2026-05-02T15:14:34Z</time></trkpt><trkpt lat="43.817860951282555" lon="11.952042818917178"><ele>624.0</ele><time>2026-05-02T15:14:35Z</time></trkpt><trkpt lat="43.817771511777835" lon="11.951855395439747"><ele>624.0</ele><time>2026-05-02T15:14:36Z</time></trkpt><trkpt lat="43.817709769362494" lon="11.951675731527741"><ele>624.0</ele><time>2026-05-02T15:14:37Z</time></trkpt><trkpt lat="43.8176561772882" lon="11.951533453321384"><ele>624.0</ele><time>2026-05-02T15:14:38Z</time></trkpt><trkpt lat="43.817592386077834" lon="11.951474009084077"><ele>627.25</ele><time>2026-05-02T15:14:39Z</time></trkpt><trkpt lat="43.8174901901485" lon="11.951476298082314"><ele>630.5</ele><time>2026-05-02T15:14:40Z</time></trkpt><trkpt lat="43.81739314305778" lon="11.951531755991"><ele>633.75</ele><time>2026-05-02T15:14:41Z</time></trkpt><trkpt lat="43.817341934780856" lon="11.951665327673009"><ele>637.0</ele><time>2026-05-02T15:14:42Z</time></trkpt><trkpt lat="43.81728616619818" lon="11.95183855781314"><ele>630.5</ele><time>2026-05-02T15:14:43Z</time></trkpt><trkpt lat="43.8172045838952" lon="11.95200343820328"><ele>624.0</ele><time>2026-05-02T15:14:44Z</time></trkpt><trkpt lat="43.8171065252211" lon="11.952090792037389"><ele>617.5</ele><time>2026-05-02T15:14:45Z</time></trkpt><trkpt lat="43.816986756949944" lon="11.952091737751964"><ele>611.0</ele><time>2026-05-02T15:14:46Z</time></trkpt><trkpt lat="43.81686506731374" lon="11.95205792115035"><ele>617.5</ele><time>2026-05-02T15:14:47Z</time></trkpt><trkpt lat="43.816752809648875" lon="11.95205465204224"><ele>624.0</ele><time>2026-05-02T15:14:48Z</time></trkpt><trkpt lat="43.816665588906645" lon="11.952190840552808"><ele>630.5</ele><time>2026-05-02T15:14:49Z</time></trkpt><trkpt lat="43.816627863638" lon="11.952373199127692"><ele>637.0</ele><time>2026-05-02T15:14:50Z</time></trkpt><trkpt lat="43.816630241237284" lon="11.952515295919415"><ele>631.4</ele><time>2026-05-02T15:14:51Z</time></trkpt><trkpt lat="43.816657981172675" lon="11.95268585627525"><ele>625.8000000000001</ele><time>2026-05-02T15:14:52Z</time></trkpt><trkpt lat="43.8166428377535" lon="11.952828042962729"><ele>620.2</ele><time>2026-05-02T15:14:53Z</time></trkpt><trkpt lat="43.816625287104344" lon="11.952936978869863"><ele>614.6</ele><time>2026-05-02T15:14:54Z</time></trkpt><trkpt lat="43.81654232382312" lon="11.952985539221629"><ele>609.0</ele><time>2026-05-02T15:14:55Z</time></trkpt><trkpt lat="43.81643796467416" lon="11.952952706975056"><ele>609.0</ele><time>2026-05-02T15:14:56Z</time></trkpt><trkpt lat="43.81632421902206" lon="11.952832488186468"><ele>609.0</ele><time>2026-05-02T15:14:57Z</time></trkpt><trkpt lat="43.816179001109965" lon="11.952713261293969"><ele>609.0</ele><time>2026-05-02T15:14:58Z</time></trkpt><trkpt lat="43.8160196144913" lon="11.95256312387607"><ele>618.3333333333334</ele><time>2026-05-02T15:14:59Z</time></trkpt><trkpt lat="43.815903096373134" lon="11.952373249968536"><ele>627.6666666666667</ele><time>2026-05-02T15:15:00Z</time></trkpt><trkpt lat="43.815802870219954" lon="11.952171832038347"><ele>637.0</ele><time>2026-05-02T15:15:01Z</time></trkpt><trkpt lat="43.81569806052965" lon="11.952031680253864"><ele>637.0</ele><time>2026-05-02T15:15:02Z</time></trkpt><trkpt lat="43.815572531318075" lon="11.951942779527748"><ele>637.0</ele><time>2026-05-02T15:15:03Z</time></trkpt><trkpt lat="43.815467072567344" lon="11.951841957379585"><ele>637.0</ele><time>2026-05-02T15:15:04Z</time></trkpt><trkpt lat="43.81540547983879" lon="11.951689550302575"><ele>637.0</ele><time>2026-05-02T15:15:05Z</time></trkpt><trkpt lat="43.81535328361484" lon="11.95155961517828"><ele>643.0</ele><time>2026-05-02T15:15:06Z</time></trkpt><trkpt lat="43.81531762626492" lon="11.95143373562924"><ele>649.0</ele><time>2026-05-02T15:15:07Z</time></trkpt><trkpt lat="43.81532193293412" lon="11.951265053172724"><ele>655.0</ele><time>2026-05-02T15:15:08Z</time></trkpt><trkpt lat="43.81538534617898" lon="11.951074287502347"><ele>661.0</ele><time>2026-05-02T15:15:09Z</time></trkpt><trkpt lat="43.81545441402632" lon="11.950854772690619"><ele>664.6666666666667</ele><time>2026-05-02T15:15:10Z</time></trkpt><trkpt lat="43.815503740808914" lon="11.950630586695103"><ele>668.3333333333334</ele><time>2026-05-02T15:15:11Z</time></trkpt><trkpt lat="43.81556321898921" lon="11.950436946418503"><ele>672.0</ele><time>2026-05-02T15:15:12Z</time></trkpt><trkpt lat="43.81559429644698" lon="11.950257895456524"><ele>672.0</ele><time>2026-05-02T15:15:13Z</time></trkpt><trkpt lat="43.815566886447584" lon="11.950046967905253"><ele>672.0</ele><time>2026-05-02T15:15:14Z</time></trkpt><trkpt lat="43.81549074554221" lon="11.94980703363462"><ele>672.0</ele><time>2026-05-02T15:15:15Z</time></trkpt><trkpt lat="43.81539287482945" lon="11.949553425470906"><ele>676.3333333333334</ele><time>2026-05-02T15:15:16Z</time></trkpt><trkpt lat="43.81532444380075" lon="11.949281895826475"><ele>680.6666666666667</ele><time>2026-05-02T15:15:17Z</time></trkpt><trkpt lat="43.815240499320325" lon="11.949013165144716"><ele>685.0</ele><time>2026-05-02T15:15:18Z</time></trkpt><trkpt lat="43.81518585613332" lon="11.948709285704545"><ele>672.0</ele><time>2026-05-02T15:15:19Z</time></trkpt><trkpt lat="43.81512802233515" lon="11.948384783458007"><ele>659.0</ele><time>2026-05-02T15:15:20Z</time></trkpt><trkpt lat="43.815063731101354" lon="11.948092922426511"><ele>659.0</ele><time>2026-05-02T15:15:21Z</time></trkpt><trkpt lat="43.81500868932053" lon="11.947822243553622"><ele>659.0</ele><time>2026-05-02T15:15:22Z</time></trkpt><trkpt lat="43.81496954044036" lon="11.947580130211163"><ele>659.0</ele><time>2026-05-02T15:15:23Z</time></trkpt><trkpt lat="43.81495111850114" lon="11.947408701189659"><ele>659.0</ele><time>2026-05-02T15:15:24Z</time></trkpt><trkpt lat="43.814946370734326" lon="11.947286801799194"><ele>659.0</ele><time>2026-05-02T15:15:25Z</time></trkpt><trkpt lat="43.81504442011954" lon="11.947210579245043"><ele>659.0</ele><time>2026-05-02T15:15:27Z</time></trkpt><trkpt lat="43.81510037239094" lon="11.94725637770348"><ele>659.0</ele><time>2026-05-02T15:15:28Z</time></trkpt><trkpt lat="43.815139378971075" lon="11.947366234910325"><ele>659.0</ele><time>2026-05-02T15:15:29Z</time></trkpt><trkpt lat="43.815127944761144" lon="11.94754674133856"><ele>677.0</ele><time>2026-05-02T15:15:30Z</time></trkpt><trkpt lat="43.815172933739305" lon="11.947749563375544"><ele>695.0</ele><time>2026-05-02T15:15:31Z</time></trkpt><trkpt lat="43.81521947204464" lon="11.947966520132034"><ele>713.0</ele><time>2026-05-02T15:15:32Z</time></trkpt><trkpt lat="43.81526197995891" lon="11.948224402489927"><ele>709.0</ele><time>2026-05-02T15:15:33Z</time></trkpt><trkpt lat="43.815332206411284" lon="11.948474569506264"><ele>705.0</ele><time>2026-05-02T15:15:34Z</time></trkpt><trkpt lat="43.81538536214085" lon="11.948745957944542"><ele>701.0</ele><time>2026-05-02T15:15:35Z</time></trkpt><trkpt lat="43.81543916144017" lon="11.949016330580067"><ele>697.0</ele><time>2026-05-02T15:15:36Z</time></trkpt><trkpt lat="43.81549094352211" lon="11.949227316355994"><ele>693.0</ele><time>2026-05-02T15:15:36.999Z</time></trkpt><trkpt lat="43.81555785723563" lon="11.949368698188186"><ele>689.0</ele><time>2026-05-02T15:15:37.999Z</time></trkpt><trkpt lat="43.81566197946174" lon="11.94944304951208"><ele>685.0</ele><time>2026-05-02T15:15:38.999Z</time></trkpt><trkpt lat="43.815795467513425" lon="11.949479092969172"><ele>685.0</ele><time>2026-05-02T15:15:39.999Z</time></trkpt><trkpt lat="43.815895079625136" lon="11.9495830464125"><ele>685.0</ele><time>2026-05-02T15:15:40.999Z</time></trkpt><trkpt lat="43.81592601278929" lon="11.949729924141927"><ele>685.0</ele><time>2026-05-02T15:15:41.999Z</time></trkpt><trkpt lat="43.81595030053304" lon="11.949920702783903"><ele>685.0</ele><time>2026-05-02T15:15:42.999Z</time></trkpt><trkpt lat="43.81599377031891" lon="11.950142185973856"><ele>689.3333333333334</ele><time>2026-05-02T15:15:44Z</time></trkpt><trkpt lat="43.816033740411555" lon="11.95038652452928"><ele>693.6666666666666</ele><time>2026-05-02T15:15:45Z</time></trkpt><trkpt lat="43.816082778248614" lon="11.95065838161451"><ele>698.0</ele><time>2026-05-02T15:15:46Z</time></trkpt><trkpt lat="43.81612247639832" lon="11.950911609289301"><ele>692.2</ele><time>2026-05-02T15:15:47Z</time></trkpt><trkpt lat="43.81615662823814" lon="11.951112804330135"><ele>686.4</ele><time>2026-05-02T15:15:48Z</time></trkpt><trkpt lat="43.8161933750104" lon="11.951259958311779"><ele>680.6</ele><time>2026-05-02T15:15:49Z</time></trkpt><trkpt lat="43.816218395224745" lon="11.951360828480713"><ele>674.8000000000001</ele><time>2026-05-02T15:15:50Z</time></trkpt><trkpt lat="43.81630047029541" lon="11.951399807271926"><ele>669.0</ele><time>2026-05-02T15:15:51Z</time></trkpt><trkpt lat="43.81638408658919" lon="11.95132276387039"><ele>669.0</ele><time>2026-05-02T15:15:52Z</time></trkpt><trkpt lat="43.816414046449275" lon="11.951204789272987"><ele>669.0</ele><time>2026-05-02T15:15:53Z</time></trkpt><trkpt lat="43.81638873775941" lon="11.951056675705999"><ele>669.0</ele><time>2026-05-02T15:15:54Z</time></trkpt><trkpt lat="43.81634089329413" lon="11.950889659852637"><ele>669.0</ele><time>2026-05-02T15:15:55Z</time></trkpt><trkpt lat="43.81629664912819" lon="11.950692027072508"><ele>678.6666666666666</ele><time>2026-05-02T15:15:56Z</time></trkpt><trkpt lat="43.81626773387765" lon="11.950438667864413"><ele>688.3333333333333</ele><time>2026-05-02T15:15:57Z</time></trkpt><trkpt lat="43.81626002405389" lon="11.95018216205939"><ele>698.0</ele><time>2026-05-02T15:15:58Z</time></trkpt><trkpt lat="43.81626322874881" lon="11.949914498244521"><ele>706.3333333333333</ele><time>2026-05-02T15:15:59Z</time></trkpt><trkpt lat="43.81628088131765" lon="11.949645239998183"><ele>714.6666666666666</ele><time>2026-05-02T15:16:00Z</time></trkpt><trkpt lat="43.81628311195642" lon="11.949411633970373"><ele>723.0</ele><time>2026-05-02T15:16:01Z</time></trkpt><trkpt lat="43.816221871504226" lon="11.949171779189852"><ele>715.6666666666666</ele><time>2026-05-02T15:16:02Z</time></trkpt><trkpt lat="43.81610888623245" lon="11.948961299340652"><ele>708.3333333333333</ele><time>2026-05-02T15:16:03Z</time></trkpt><trkpt lat="43.81598640165476" lon="11.948819743570617"><ele>701.0</ele><time>2026-05-02T15:16:04Z</time></trkpt><trkpt lat="43.815937214416294" lon="11.948639713660112"><ele>701.0</ele><time>2026-05-02T15:16:05Z</time></trkpt><trkpt lat="43.81592309270621" lon="11.9484485057016"><ele>701.0</ele><time>2026-05-02T15:16:06Z</time></trkpt><trkpt lat="43.81594217895815" lon="11.948232852076496"><ele>701.0</ele><time>2026-05-02T15:16:07Z</time></trkpt><trkpt lat="43.815970467677744" lon="11.947970123837278"><ele>732.5</ele><time>2026-05-02T15:16:08Z</time></trkpt><trkpt lat="43.815988741899716" lon="11.947667330066619"><ele>764.0</ele><time>2026-05-02T15:16:09Z</time></trkpt><trkpt lat="43.81603381377485" lon="11.947345715845637"><ele>766.3333333333333</ele><time>2026-05-02T15:16:10Z</time></trkpt><trkpt lat="43.816049412780956" lon="11.947065903608506"><ele>768.6666666666666</ele><time>2026-05-02T15:16:11Z</time></trkpt><trkpt lat="43.81609007125545" lon="11.946818987787319"><ele>771.0</ele><time>2026-05-02T15:16:12Z</time></trkpt><trkpt lat="43.81609092743059" lon="11.946602066136522"><ele>773.3333333333333</ele><time>2026-05-02T15:16:13Z</time></trkpt><trkpt lat="43.816044858426714" lon="11.946385716843821"><ele>775.6666666666666</ele><time>2026-05-02T15:16:14Z</time></trkpt><trkpt lat="43.81597729772442" lon="11.94614462621652"><ele>778.0</ele><time>2026-05-02T15:16:15Z</time></trkpt><trkpt lat="43.81588144993222" lon="11.94589198051845"><ele>765.0</ele><time>2026-05-02T15:16:16Z</time></trkpt><trkpt lat="43.81579263179441" lon="11.94567083792378"><ele>752.0</ele><time>2026-05-02T15:16:17Z</time></trkpt><trkpt lat="43.8157337590195" lon="11.945495725012872"><ele>739.0</ele><time>2026-05-02T15:16:18Z</time></trkpt><trkpt lat="43.81568275107775" lon="11.945302886402299"><ele>739.0</ele><time>2026-05-02T15:16:19Z</time></trkpt><trkpt lat="43.81565478699667" lon="11.945068682759022"><ele>739.0</ele><time>2026-05-02T15:16:20Z</time></trkpt><trkpt lat="43.8156544202609" lon="11.94478808965124"><ele>739.0</ele><time>2026-05-02T15:16:21Z</time></trkpt><trkpt lat="43.81566647068212" lon="11.944493154404"><ele>743.6666666666667</ele><time>2026-05-02T15:16:22Z</time></trkpt><trkpt lat="43.81566235754362" lon="11.944187638256713"><ele>748.3333333333334</ele><time>2026-05-02T15:16:23Z</time></trkpt><trkpt lat="43.815644268968185" lon="11.94387280161766"><ele>753.0</ele><time>2026-05-02T15:16:24Z</time></trkpt><trkpt lat="43.81562248599994" lon="11.94358640313333"><ele>752.6666666666666</ele><time>2026-05-02T15:16:25Z</time></trkpt><trkpt lat="43.81558965717151" lon="11.943332636047577"><ele>752.3333333333333</ele><time>2026-05-02T15:16:26Z</time></trkpt><trkpt lat="43.81552520816727" lon="11.943093286677989"><ele>752.0</ele><time>2026-05-02T15:16:27Z</time></trkpt><trkpt lat="43.81543839445601" lon="11.942882139737968"><ele>752.0</ele><time>2026-05-02T15:16:28Z</time></trkpt><trkpt lat="43.81531301184725" lon="11.942701760464741"><ele>752.0</ele><time>2026-05-02T15:16:29Z</time></trkpt><trkpt lat="43.81515352239395" lon="11.942542217791393"><ele>752.0</ele><time>2026-05-02T15:16:30Z</time></trkpt><trkpt lat="43.81501461728663" lon="11.942385658022975"><ele>751.3333333333333</ele><time>2026-05-02T15:16:31Z</time></trkpt><trkpt lat="43.81490542428977" lon="11.942239340961477"><ele>750.6666666666666</ele><time>2026-05-02T15:16:32Z</time></trkpt><trkpt lat="43.814809567900724" lon="11.942050668683038"><ele>750.0</ele><time>2026-05-02T15:16:33Z</time></trkpt><trkpt lat="43.81474718104031" lon="11.941805931745254"><ele>757.0</ele><time>2026-05-02T15:16:34Z</time></trkpt><trkpt lat="43.814717717299594" lon="11.941527890648064"><ele>764.0</ele><time>2026-05-02T15:16:35Z</time></trkpt><trkpt lat="43.81472427938" lon="11.941243024255147"><ele>771.0</ele><time>2026-05-02T15:16:36Z</time></trkpt><trkpt lat="43.81470507897947" lon="11.940994154053348"><ele>774.0</ele><time>2026-05-02T15:16:37Z</time></trkpt><trkpt lat="43.814646566389" lon="11.940785382382739"><ele>777.0</ele><time>2026-05-02T15:16:38Z</time></trkpt><trkpt lat="43.81460001075339" lon="11.940609144994921"><ele>780.0</ele><time>2026-05-02T15:16:39Z</time></trkpt><trkpt lat="43.81460688243716" lon="11.940411374498646"><ele>783.0</ele><time>2026-05-02T15:16:40Z</time></trkpt><trkpt lat="43.81465940048846" lon="11.940183548851836"><ele>783.3333333333333</ele><time>2026-05-02T15:16:41Z</time></trkpt><trkpt lat="43.814737745262434" lon="11.939938604319286"><ele>783.6666666666666</ele><time>2026-05-02T15:16:42Z</time></trkpt><trkpt lat="43.8147825333507" lon="11.939733897650115"><ele>784.0</ele><time>2026-05-02T15:16:43Z</time></trkpt><trkpt lat="43.81478451719962" lon="11.939555538479881"><ele>784.0</ele><time>2026-05-02T15:16:44Z</time></trkpt><trkpt lat="43.814720421156544" lon="11.93936521966267"><ele>784.0</ele><time>2026-05-02T15:16:45Z</time></trkpt><trkpt lat="43.8146219493472" lon="11.93912993107823"><ele>784.0</ele><time>2026-05-02T15:16:46Z</time></trkpt><trkpt lat="43.814535689452605" lon="11.938868898631904"><ele>785.0</ele><time>2026-05-02T15:16:47Z</time></trkpt><trkpt lat="43.814460086997485" lon="11.938602734045817"><ele>786.0</ele><time>2026-05-02T15:16:48Z</time></trkpt><trkpt lat="43.814397436261544" lon="11.938331327059892"><ele>787.0</ele><time>2026-05-02T15:16:49Z</time></trkpt><trkpt lat="43.81434155421503" lon="11.938086297609175"><ele>786.5</ele><time>2026-05-02T15:16:50Z</time></trkpt><trkpt lat="43.81429646688" lon="11.937884862895425"><ele>786.0</ele><time>2026-05-02T15:16:51Z</time></trkpt><trkpt lat="43.8142428972957" lon="11.937697940223595"><ele>785.5</ele><time>2026-05-02T15:16:52Z</time></trkpt><trkpt lat="43.814149046194345" lon="11.937568420374898"><ele>785.0</ele><time>2026-05-02T15:16:53Z</time></trkpt><trkpt lat="43.81399626298173" lon="11.937456710328336"><ele>785.0</ele><time>2026-05-02T15:16:54Z</time></trkpt><trkpt lat="43.81382810866594" lon="11.937326131807865"><ele>785.0</ele><time>2026-05-02T15:16:55Z</time></trkpt><trkpt lat="43.81365094049305" lon="11.937178450009219"><ele>785.0</ele><time>2026-05-02T15:16:56Z</time></trkpt><trkpt lat="43.81349708544697" lon="11.937049229001037"><ele>781.6666666666667</ele><time>2026-05-02T15:16:57Z</time></trkpt><trkpt lat="43.81333728706818" lon="11.936998113679062"><ele>778.3333333333333</ele><time>2026-05-02T15:16:58Z</time></trkpt><trkpt lat="43.81315396256334" lon="11.937020432481301"><ele>775.0</ele><time>2026-05-02T15:16:59Z</time></trkpt><trkpt lat="43.812965176522184" lon="11.937092889374489"><ele>775.0</ele><time>2026-05-02T15:17:00Z</time></trkpt><trkpt lat="43.812810276549044" lon="11.937144779194803"><ele>775.0</ele><time>2026-05-02T15:17:01Z</time></trkpt><trkpt lat="43.812683793489526" lon="11.937161188236702"><ele>775.0</ele><time>2026-05-02T15:17:02Z</time></trkpt><trkpt lat="43.81258106026135" lon="11.93713128757147"><ele>775.0</ele><time>2026-05-02T15:17:03Z</time></trkpt><trkpt lat="43.81250868564181" lon="11.937041517130648"><ele>774.0</ele><time>2026-05-02T15:17:04Z</time></trkpt><trkpt lat="43.81248716589969" lon="11.936894089675084"><ele>773.0</ele><time>2026-05-02T15:17:05Z</time></trkpt><trkpt lat="43.81249525884436" lon="11.936708390368574"><ele>772.0</ele><time>2026-05-02T15:17:06Z</time></trkpt><trkpt lat="43.812519359355164" lon="11.936485748205076"><ele>771.0</ele><time>2026-05-02T15:17:07Z</time></trkpt><trkpt lat="43.81252066165856" lon="11.936236489793895"><ele>776.6666666666667</ele><time>2026-05-02T15:17:08Z</time></trkpt><trkpt lat="43.81246835823255" lon="11.936016293247695"><ele>782.3333333333334</ele><time>2026-05-02T15:17:09Z</time></trkpt><trkpt lat="43.81237939651208" lon="11.935813097962225"><ele>788.0</ele><time>2026-05-02T15:17:10Z</time></trkpt><trkpt lat="43.81224440683967" lon="11.935609613398288"><ele>796.3333333333334</ele><time>2026-05-02T15:17:11Z</time></trkpt><trkpt lat="43.81210393782318" lon="11.935414653316448"><ele>804.6666666666667</ele><time>2026-05-02T15:17:12Z</time></trkpt><trkpt lat="43.81199617607304" lon="11.935261917345692"><ele>813.0</ele><time>2026-05-02T15:17:13Z</time></trkpt><trkpt lat="43.81190321603598" lon="11.935164462296477"><ele>807.5</ele><time>2026-05-02T15:17:14Z</time></trkpt><trkpt lat="43.81179914382953" lon="11.935162751089974"><ele>802.0</ele><time>2026-05-02T15:17:15Z</time></trkpt><trkpt lat="43.811679621823004" lon="11.935235629587371"><ele>796.5</ele><time>2026-05-02T15:17:16Z</time></trkpt><trkpt lat="43.81158069896646" lon="11.935382458166492"><ele>791.0</ele><time>2026-05-02T15:17:17Z</time></trkpt><trkpt lat="43.81148982662002" lon="11.935555028230757"><ele>791.0</ele><time>2026-05-02T15:17:18Z</time></trkpt><trkpt lat="43.81139196320292" lon="11.935678972354362"><ele>791.0</ele><time>2026-05-02T15:17:19Z</time></trkpt><trkpt lat="43.81127855276913" lon="11.935746761269542"><ele>791.0</ele><time>2026-05-02T15:17:20Z</time></trkpt><trkpt lat="43.81116149395476" lon="11.93573888677829"><ele>791.0</ele><time>2026-05-02T15:17:21Z</time></trkpt><trkpt lat="43.811066238186704" lon="11.93568593002269"><ele>793.3333333333334</ele><time>2026-05-02T15:17:22Z</time></trkpt><trkpt lat="43.8109829936905" lon="11.935558940092783"><ele>795.6666666666667</ele><time>2026-05-02T15:17:23Z</time></trkpt><trkpt lat="43.81086732416737" lon="11.935399313932312"><ele>798.0</ele><time>2026-05-02T15:17:24Z</time></trkpt><trkpt lat="43.81074205436814" lon="11.935243756978437"><ele>798.0</ele><time>2026-05-02T15:17:25Z</time></trkpt><trkpt lat="43.81064496666451" lon="11.935123132050206"><ele>798.0</ele><time>2026-05-02T15:17:26Z</time></trkpt><trkpt lat="43.81056035485037" lon="11.935006489437407"><ele>798.0</ele><time>2026-05-02T15:17:27Z</time></trkpt><trkpt lat="43.81046963328235" lon="11.934842387391557"><ele>798.0</ele><time>2026-05-02T15:17:28Z</time></trkpt><trkpt lat="43.81045236172928" lon="11.934716878260016"><ele>803.5</ele><time>2026-05-02T15:17:29Z</time></trkpt><trkpt lat="43.81052567338735" lon="11.934632562217374"><ele>809.0</ele><time>2026-05-02T15:17:30Z</time></trkpt><trkpt lat="43.81061869299354" lon="11.934568502428698"><ele>814.5</ele><time>2026-05-02T15:17:31Z</time></trkpt><trkpt lat="43.81073950364941" lon="11.934453263525759"><ele>820.0</ele><time>2026-05-02T15:17:31.999Z</time></trkpt><trkpt lat="43.810873860820614" lon="11.934303667082242"><ele>830.6666666666666</ele><time>2026-05-02T15:17:32.999Z</time></trkpt><trkpt lat="43.81100462833926" lon="11.934100621845829"><ele>841.3333333333333</ele><time>2026-05-02T15:17:33.999Z</time></trkpt><trkpt lat="43.811129531014664" lon="11.933883132116678"><ele>852.0</ele><time>2026-05-02T15:17:34.999Z</time></trkpt><trkpt lat="43.81122654500121" lon="11.933630628162621"><ele>855.3333333333333</ele><time>2026-05-02T15:17:35.999Z</time></trkpt><trkpt lat="43.81129552668389" lon="11.933384535226446"><ele>858.6666666666666</ele><time>2026-05-02T15:17:36.999Z</time></trkpt><trkpt lat="43.811329178364474" lon="11.933162203133833"><ele>862.0</ele><time>2026-05-02T15:17:37.999Z</time></trkpt><trkpt lat="43.81131274676902" lon="11.932946999703878"><ele>862.0</ele><time>2026-05-02T15:17:38.999Z</time></trkpt><trkpt lat="43.811291432773" lon="11.932714428042209"><ele>862.0</ele><time>2026-05-02T15:17:39.999Z</time></trkpt><trkpt lat="43.81120531990327" lon="11.932504260479826"><ele>862.0</ele><time>2026-05-02T15:17:40.999Z</time></trkpt><trkpt lat="43.81109760881481" lon="11.93234481409455"><ele>865.0</ele><time>2026-05-02T15:17:41.999Z</time></trkpt><trkpt lat="43.81099245646218" lon="11.932166821703774"><ele>868.0</ele><time>2026-05-02T15:17:42.999Z</time></trkpt><trkpt lat="43.810904254245806" lon="11.931953134667046"><ele>871.0</ele><time>2026-05-02T15:17:43.999Z</time></trkpt><trkpt lat="43.81086525232794" lon="11.931714093646605"><ele>860.0</ele><time>2026-05-02T15:17:44.999Z</time></trkpt><trkpt lat="43.81084756795676" lon="11.931432291939498"><ele>849.0</ele><time>2026-05-02T15:17:45.999Z</time></trkpt><trkpt lat="43.810836402066286" lon="11.931111165704749"><ele>838.0</ele><time>2026-05-02T15:17:46.999Z</time></trkpt><trkpt lat="43.81082385524346" lon="11.930891268673536"><ele>837.5</ele><time>2026-05-02T15:17:47.999Z</time></trkpt><trkpt lat="43.810836264051765" lon="11.93071504325322"><ele>837.0</ele><time>2026-05-02T15:17:49Z</time></trkpt><trkpt lat="43.81088717727363" lon="11.930603352374948"><ele>836.5</ele><time>2026-05-02T15:17:50Z</time></trkpt><trkpt lat="43.81101891773712" lon="11.930506975686113"><ele>836.0</ele><time>2026-05-02T15:17:51Z</time></trkpt><trkpt lat="43.81114296335128" lon="11.930360573535463"><ele>847.0</ele><time>2026-05-02T15:17:52Z</time></trkpt><trkpt lat="43.81127573018205" lon="11.930222856920729"><ele>858.0</ele><time>2026-05-02T15:17:53Z</time></trkpt><trkpt lat="43.81139209046749" lon="11.93001785864206"><ele>869.0</ele><time>2026-05-02T15:17:54Z</time></trkpt><trkpt lat="43.81150681848861" lon="11.929796985835516"><ele>869.0</ele><time>2026-05-02T15:17:55Z</time></trkpt><trkpt lat="43.811599864048134" lon="11.929626942869248"><ele>869.0</ele><time>2026-05-02T15:17:56Z</time></trkpt><trkpt lat="43.811666724821485" lon="11.929468146676552"><ele>869.0</ele><time>2026-05-02T15:17:57Z</time></trkpt><trkpt lat="43.811675473042754" lon="11.929290502677455"><ele>869.0</ele><time>2026-05-02T15:17:58Z</time></trkpt><trkpt lat="43.81162319057235" lon="11.929097918485754"><ele>866.0</ele><time>2026-05-02T15:17:59Z</time></trkpt><trkpt lat="43.81157893730174" lon="11.92891956293339"><ele>863.0</ele><time>2026-05-02T15:18:00Z</time></trkpt><trkpt lat="43.81159629565452" lon="11.928761550750336"><ele>860.0</ele><time>2026-05-02T15:18:01Z</time></trkpt><trkpt lat="43.811712263956025" lon="11.928655716322263"><ele>857.0</ele><time>2026-05-02T15:18:02Z</time></trkpt><trkpt lat="43.81181002654971" lon="11.928479905899216"><ele>869.6666666666667</ele><time>2026-05-02T15:18:03Z</time></trkpt><trkpt lat="43.81189352745386" lon="11.928267299615253"><ele>882.3333333333333</ele><time>2026-05-02T15:18:04Z</time></trkpt><trkpt lat="43.8119527256898" lon="11.92799683555507"><ele>895.0</ele><time>2026-05-02T15:18:05Z</time></trkpt><trkpt lat="43.81205798470148" lon="11.927811214911292"><ele>895.0</ele><time>2026-05-02T15:18:06Z</time></trkpt><trkpt lat="43.812148509663324" lon="11.92765033433987"><ele>895.0</ele><time>2026-05-02T15:18:07Z</time></trkpt><trkpt lat="43.8122123241504" lon="11.927484643079888"><ele>895.0</ele><time>2026-05-02T15:18:08Z</time></trkpt><trkpt lat="43.81225836097322" lon="11.927326735454542"><ele>895.0</ele><time>2026-05-02T15:18:09Z</time></trkpt><trkpt lat="43.81225989336207" lon="11.927137719931496"><ele>893.0</ele><time>2026-05-02T15:18:10Z</time></trkpt><trkpt lat="43.81227340733432" lon="11.926927112258"><ele>891.0</ele><time>2026-05-02T15:18:11Z</time></trkpt><trkpt lat="43.81223777935698" lon="11.926738338379925"><ele>889.0</ele><time>2026-05-02T15:18:12Z</time></trkpt><trkpt lat="43.8122131855371" lon="11.92659145358433"><ele>887.0</ele><time>2026-05-02T15:18:13Z</time></trkpt><trkpt lat="43.81215922311235" lon="11.926491337049328"><ele>887.0000000000001</ele><time>2026-05-02T15:18:14Z</time></trkpt><trkpt lat="43.812090510261605" lon="11.926436814297043"><ele>887.0</ele><time>2026-05-02T15:18:15Z</time></trkpt><trkpt lat="43.81202187763973" lon="11.926415294668528"><ele>887.0</ele><time>2026-05-02T15:18:16Z</time></trkpt><trkpt lat="43.811947561955066" lon="11.926412564698998"><ele>887.0</ele><time>2026-05-02T15:18:17Z</time></trkpt><trkpt lat="43.81186751631212" lon="11.926463117344062"><ele>887.0000000000001</ele><time>2026-05-02T15:18:18Z</time></trkpt><trkpt lat="43.811818955453234" lon="11.92655599314896"><ele>887.0</ele><time>2026-05-02T15:18:19Z</time></trkpt><trkpt lat="43.81179036750576" lon="11.926670756866908"><ele>880.8333333333334</ele><time>2026-05-02T15:18:20Z</time></trkpt><trkpt lat="43.81175080735641" lon="11.926764262500981"><ele>874.6666666666667</ele><time>2026-05-02T15:18:21Z</time></trkpt><trkpt lat="43.811709679576666" lon="11.926858154416234"><ele>868.5</ele><time>2026-05-02T15:18:22Z</time></trkpt><trkpt lat="43.81163918029097" lon="11.926934242238186"><ele>862.3333333333333</ele><time>2026-05-02T15:18:23Z</time></trkpt><trkpt lat="43.811550392871055" lon="11.926986472456319"><ele>856.1666666666666</ele><time>2026-05-02T15:18:24Z</time></trkpt><trkpt lat="43.811456904564935" lon="11.926999151596306"><ele>850.0</ele><time>2026-05-02T15:18:25Z</time></trkpt><trkpt lat="43.81137015519002" lon="11.926992229453404"><ele>849.9999999999999</ele><time>2026-05-02T15:18:26Z</time></trkpt><trkpt lat="43.8112923146359" lon="11.926962163901994"><ele>850.0</ele><time>2026-05-02T15:18:27Z</time></trkpt><trkpt lat="43.81122944162283" lon="11.92687997945477"><ele>850.0</ele><time>2026-05-02T15:18:28Z</time></trkpt><trkpt lat="43.811191575157196" lon="11.926779040787048"><ele>850.0</ele><time>2026-05-02T15:18:29Z</time></trkpt><trkpt lat="43.811145717708975" lon="11.926654535316716"><ele>849.9999999999999</ele><time>2026-05-02T15:18:30Z</time></trkpt><trkpt lat="43.8110974543045" lon="11.926547834296917"><ele>850.0</ele><time>2026-05-02T15:18:31Z</time></trkpt><trkpt lat="43.811041707923906" lon="11.926435996404493"><ele>854.5</ele><time>2026-05-02T15:18:32Z</time></trkpt><trkpt lat="43.8109793490601" lon="11.926281110250345"><ele>859.0</ele><time>2026-05-02T15:18:33Z</time></trkpt><trkpt lat="43.81091733452327" lon="11.926112433576312"><ele>863.5</ele><time>2026-05-02T15:18:34Z</time></trkpt><trkpt lat="43.81081842697761" lon="11.925941974017707"><ele>868.0</ele><time>2026-05-02T15:18:36Z</time></trkpt><trkpt lat="43.81077245285965" lon="11.925812979266048"><ele>872.4</ele><time>2026-05-02T15:18:37Z</time></trkpt><trkpt lat="43.81075202588107" lon="11.925678069125034"><ele>876.8</ele><time>2026-05-02T15:18:38Z</time></trkpt><trkpt lat="43.81074527487474" lon="11.925573839467841"><ele>881.2</ele><time>2026-05-02T15:18:39Z</time></trkpt><trkpt lat="43.81071055551483" lon="11.925483375086028"><ele>885.6</ele><time>2026-05-02T15:18:40Z</time></trkpt><trkpt lat="43.81062667077584" lon="11.925401448190552"><ele>890.0</ele><time>2026-05-02T15:18:41Z</time></trkpt><trkpt lat="43.81050932149511" lon="11.925368251030116"><ele>890.0</ele><time>2026-05-02T15:18:42Z</time></trkpt><trkpt lat="43.810387544883675" lon="11.925418535360638"><ele>890.0</ele><time>2026-05-02T15:18:43Z</time></trkpt><trkpt lat="43.81028620854964" lon="11.925535655914539"><ele>890.0</ele><time>2026-05-02T15:18:44Z</time></trkpt><trkpt lat="43.81019829745407" lon="11.92563101570412"><ele>890.0</ele><time>2026-05-02T15:18:45Z</time></trkpt><trkpt lat="43.810085597439844" lon="11.925647046856149"><ele>886.75</ele><time>2026-05-02T15:18:46Z</time></trkpt><trkpt lat="43.81000965070739" lon="11.925597737729742"><ele>883.5</ele><time>2026-05-02T15:18:47Z</time></trkpt><trkpt lat="43.80994518122067" lon="11.925474192190642"><ele>880.25</ele><time>2026-05-02T15:18:48Z</time></trkpt><trkpt lat="43.809876851301226" lon="11.925291871180667"><ele>877.0</ele><time>2026-05-02T15:18:49Z</time></trkpt><trkpt lat="43.80981798613541" lon="11.925089471620844"><ele>880.3333333333333</ele><time>2026-05-02T15:18:50Z</time></trkpt><trkpt lat="43.80973703347091" lon="11.924878727841396"><ele>883.6666666666667</ele><time>2026-05-02T15:18:51Z</time></trkpt><trkpt lat="43.80963575007292" lon="11.92464996465104"><ele>887.0</ele><time>2026-05-02T15:18:52Z</time></trkpt><trkpt lat="43.80955573331231" lon="11.924420570212385"><ele>887.0</ele><time>2026-05-02T15:18:53Z</time></trkpt><trkpt lat="43.809482226508095" lon="11.924253690760583"><ele>887.0</ele><time>2026-05-02T15:18:54Z</time></trkpt><trkpt lat="43.80939463714934" lon="11.924107138161801"><ele>887.0</ele><time>2026-05-02T15:18:55Z</time></trkpt><trkpt lat="43.809275585375" lon="11.924015866910159"><ele>887.0</ele><time>2026-05-02T15:18:56Z</time></trkpt><trkpt lat="43.809133075545525" lon="11.92399453794686"><ele>888.6666666666667</ele><time>2026-05-02T15:18:57Z</time></trkpt><trkpt lat="43.80897216141794" lon="11.924063938192361"><ele>890.3333333333333</ele><time>2026-05-02T15:18:58Z</time></trkpt><trkpt lat="43.80881951849462" lon="11.924185037366264"><ele>892.0</ele><time>2026-05-02T15:18:59Z</time></trkpt><trkpt lat="43.80869625382919" lon="11.924305980125043"><ele>892.0</ele><time>2026-05-02T15:19:00Z</time></trkpt><trkpt lat="43.808610493401744" lon="11.924381905748616"><ele>892.0</ele><time>2026-05-02T15:19:01Z</time></trkpt><trkpt lat="43.80854448877769" lon="11.924404169569975"><ele>892.0</ele><time>2026-05-02T15:19:02Z</time></trkpt><trkpt lat="43.808492912642166" lon="11.924272878195941"><ele>892.0</ele><time>2026-05-02T15:19:04Z</time></trkpt><trkpt lat="43.808532982183564" lon="11.924180652321654"><ele>892.0</ele><time>2026-05-02T15:19:05Z</time></trkpt><trkpt lat="43.808657199611716" lon="11.924136507413074"><ele>892.0</ele><time>2026-05-02T15:19:06Z</time></trkpt><trkpt lat="43.80877182479616" lon="11.924050054462208"><ele>892.0</ele><time>2026-05-02T15:19:07Z</time></trkpt><trkpt lat="43.808910881820786" lon="11.92392455929781"><ele>892.0</ele><time>2026-05-02T15:19:08Z</time></trkpt><trkpt lat="43.80906281241072" lon="11.923797428989024"><ele>892.0</ele><time>2026-05-02T15:19:09Z</time></trkpt><trkpt lat="43.809196777420965" lon="11.92373380779115"><ele>892.0</ele><time>2026-05-02T15:19:10Z</time></trkpt><trkpt lat="43.80932360822621" lon="11.923711988652599"><ele>892.0</ele><time>2026-05-02T15:19:11Z</time></trkpt><trkpt lat="43.80943738516793" lon="11.923750652515148"><ele>892.0</ele><time>2026-05-02T15:19:12Z</time></trkpt><trkpt lat="43.80957072093137" lon="11.923824902900588"><ele>896.0</ele><time>2026-05-02T15:19:13Z</time></trkpt><trkpt lat="43.80973492231585" lon="11.923913724380723"><ele>900.0</ele><time>2026-05-02T15:19:14Z</time></trkpt><trkpt lat="43.80993118203996" lon="11.924008744139321"><ele>904.0</ele><time>2026-05-02T15:19:15Z</time></trkpt><trkpt lat="43.81013071518209" lon="11.924136988894157"><ele>904.0</ele><time>2026-05-02T15:19:16Z</time></trkpt><trkpt lat="43.81033389329422" lon="11.92425589673303"><ele>904.0</ele><time>2026-05-02T15:19:17Z</time></trkpt><trkpt lat="43.81051417119551" lon="11.924385026894656"><ele>904.0</ele><time>2026-05-02T15:19:18Z</time></trkpt><trkpt lat="43.81065618719585" lon="11.92453708952629"><ele>904.0</ele><time>2026-05-02T15:19:19Z</time></trkpt><trkpt lat="43.81080079313644" lon="11.924696644881955"><ele>904.0</ele><time>2026-05-02T15:19:20Z</time></trkpt><trkpt lat="43.81092310912569" lon="11.924857136025475"><ele>904.0</ele><time>2026-05-02T15:19:21Z</time></trkpt><trkpt lat="43.81101367689453" lon="11.924962897022368"><ele>904.8333333333333</ele><time>2026-05-02T15:19:22Z</time></trkpt><trkpt lat="43.81108189954984" lon="11.925025625459588"><ele>905.6666666666666</ele><time>2026-05-02T15:19:23Z</time></trkpt><trkpt lat="43.811144870018275" lon="11.925048761306385"><ele>906.5</ele><time>2026-05-02T15:19:24Z</time></trkpt><trkpt lat="43.81122741172099" lon="11.924983215715583"><ele>907.3333333333333</ele><time>2026-05-02T15:19:25Z</time></trkpt><trkpt lat="43.81127313142377" lon="11.924866368213944"><ele>908.1666666666666</ele><time>2026-05-02T15:19:26Z</time></trkpt><trkpt lat="43.81127886150836" lon="11.924719624505535"><ele>909.0</ele><time>2026-05-02T15:19:26.999Z</time></trkpt><trkpt lat="43.81122596843722" lon="11.924566024374139"><ele>909.0</ele><time>2026-05-02T15:19:27.999Z</time></trkpt><trkpt lat="43.811128907635556" lon="11.924395015113477"><ele>909.0</ele><time>2026-05-02T15:19:28.999Z</time></trkpt><trkpt lat="43.81103233873092" lon="11.924219095191095"><ele>909.0</ele><time>2026-05-02T15:19:29.999Z</time></trkpt><trkpt lat="43.81097923599127" lon="11.924040548654213"><ele>910.5</ele><time>2026-05-02T15:19:30.999Z</time></trkpt><trkpt lat="43.81094238543393" lon="11.92389963525083"><ele>912.0</ele><time>2026-05-02T15:19:31.999Z</time></trkpt><trkpt lat="43.8109301324249" lon="11.923759824268195"><ele>913.5</ele><time>2026-05-02T15:19:32.999Z</time></trkpt><trkpt lat="43.81099159582644" lon="11.923618224938258"><ele>915.0</ele><time>2026-05-02T15:19:33.999Z</time></trkpt><trkpt lat="43.8111272359643" lon="11.923535390752146"><ele>915.0</ele><time>2026-05-02T15:19:34.999Z</time></trkpt><trkpt lat="43.81128562525137" lon="11.923413405750054"><ele>915.0</ele><time>2026-05-02T15:19:35.999Z</time></trkpt><trkpt lat="43.81145231389805" lon="11.923256824420912"><ele>915.0</ele><time>2026-05-02T15:19:36.999Z</time></trkpt><trkpt lat="43.81163005108436" lon="11.923114987834857"><ele>918.0</ele><time>2026-05-02T15:19:37.999Z</time></trkpt><trkpt lat="43.81178606987219" lon="11.922994922187579"><ele>921.0</ele><time>2026-05-02T15:19:38.999Z</time></trkpt><trkpt lat="43.81191839425257" lon="11.922876338010177"><ele>924.0</ele><time>2026-05-02T15:19:39.999Z</time></trkpt><trkpt lat="43.81203392055865" lon="11.922766288851943"><ele>920.75</ele><time>2026-05-02T15:19:40.999Z</time></trkpt><trkpt lat="43.81211558334493" lon="11.922647767279795"><ele>917.5</ele><time>2026-05-02T15:19:41.999Z</time></trkpt><trkpt lat="43.8121693730273" lon="11.922478053405388"><ele>914.25</ele><time>2026-05-02T15:19:42.999Z</time></trkpt><trkpt lat="43.81217065019952" lon="11.922261134024831"><ele>911.0</ele><time>2026-05-02T15:19:43.999Z</time></trkpt><trkpt lat="43.81213944676731" lon="11.922027734765239"><ele>911.0</ele><time>2026-05-02T15:19:44.999Z</time></trkpt><trkpt lat="43.81207874397251" lon="11.921783179358291"><ele>911.0</ele><time>2026-05-02T15:19:45.999Z</time></trkpt><trkpt lat="43.81205527492563" lon="11.9215643295985"><ele>911.0</ele><time>2026-05-02T15:19:46.999Z</time></trkpt><trkpt lat="43.812096248587714" lon="11.92136008758722"><ele>913.75</ele><time>2026-05-02T15:19:47.999Z</time></trkpt><trkpt lat="43.812117667059894" lon="11.921173238005723"><ele>916.5</ele><time>2026-05-02T15:19:48.999Z</time></trkpt><trkpt lat="43.812117374134104" lon="11.921008103453413"><ele>919.25</ele><time>2026-05-02T15:19:49.999Z</time></trkpt><trkpt lat="43.81206246598898" lon="11.920843654530819"><ele>922.0</ele><time>2026-05-02T15:19:50.999Z</time></trkpt><trkpt lat="43.81195226050921" lon="11.92066728444945"><ele>922.6666666666666</ele><time>2026-05-02T15:19:51.999Z</time></trkpt><trkpt lat="43.811824345693694" lon="11.920480392157982"><ele>923.3333333333333</ele><time>2026-05-02T15:19:52.999Z</time></trkpt><trkpt lat="43.811726527379946" lon="11.92032374781298"><ele>924.0</ele><time>2026-05-02T15:19:53.999Z</time></trkpt><trkpt lat="43.81166699889799" lon="11.920167006775664"><ele>931.5</ele><time>2026-05-02T15:19:55Z</time></trkpt><trkpt lat="43.811619544065465" lon="11.92002217626909"><ele>939.0</ele><time>2026-05-02T15:19:56Z</time></trkpt><trkpt lat="43.81159795193716" lon="11.919871001549755"><ele>946.5</ele><time>2026-05-02T15:19:57Z</time></trkpt><trkpt lat="43.81163313356903" lon="11.919676861601111"><ele>954.0</ele><time>2026-05-02T15:19:58Z</time></trkpt><trkpt lat="43.81173072658002" lon="11.919470791404867"><ele>949.0</ele><time>2026-05-02T15:19:59Z</time></trkpt><trkpt lat="43.811832622483564" lon="11.919205887645495"><ele>944.0</ele><time>2026-05-02T15:20:00Z</time></trkpt><trkpt lat="43.81195045765562" lon="11.918944907035828"><ele>939.0</ele><time>2026-05-02T15:20:01Z</time></trkpt><trkpt lat="43.81206390608267" lon="11.918675229894342"><ele>945.5</ele><time>2026-05-02T15:20:02Z</time></trkpt><trkpt lat="43.81217814991287" lon="11.9183905736063"><ele>952.0</ele><time>2026-05-02T15:20:03Z</time></trkpt><trkpt lat="43.81229231163055" lon="11.918123518763071"><ele>952.0</ele><time>2026-05-02T15:20:04Z</time></trkpt><trkpt lat="43.812410558127326" lon="11.917900807852174"><ele>952.0</ele><time>2026-05-02T15:20:05Z</time></trkpt><trkpt lat="43.81251675960739" lon="11.917698605681661"><ele>952.0</ele><time>2026-05-02T15:20:06Z</time></trkpt><trkpt lat="43.81264615951246" lon="11.917563939747966"><ele>953.5</ele><time>2026-05-02T15:20:07Z</time></trkpt><trkpt lat="43.812794118147636" lon="11.917517270386844"><ele>955.0</ele><time>2026-05-02T15:20:08Z</time></trkpt><trkpt lat="43.81293025022422" lon="11.91753702425851"><ele>956.5</ele><time>2026-05-02T15:20:09Z</time></trkpt><trkpt lat="43.81307523892977" lon="11.917619031850002"><ele>958.0</ele><time>2026-05-02T15:20:10Z</time></trkpt><trkpt lat="43.813245208077724" lon="11.917727134371024"><ele>958.0</ele><time>2026-05-02T15:20:11Z</time></trkpt><trkpt lat="43.81340777314944" lon="11.91786410912601"><ele>958.0</ele><time>2026-05-02T15:20:12Z</time></trkpt><trkpt lat="43.8135602542417" lon="11.91794742375382"><ele>958.0</ele><time>2026-05-02T15:20:13Z</time></trkpt><trkpt lat="43.813672554360544" lon="11.917969954257883"><ele>958.0</ele><time>2026-05-02T15:20:14Z</time></trkpt><trkpt lat="43.81378207739904" lon="11.91793925497751"><ele>958.0</ele><time>2026-05-02T15:20:15Z</time></trkpt><trkpt lat="43.81385503260934" lon="11.917825415288231"><ele>958.0</ele><time>2026-05-02T15:20:16Z</time></trkpt><trkpt lat="43.81389599684089" lon="11.91767286040041"><ele>958.0</ele><time>2026-05-02T15:20:17Z</time></trkpt><trkpt lat="43.81386956468707" lon="11.917479981684815"><ele>960.0</ele><time>2026-05-02T15:20:18Z</time></trkpt><trkpt lat="43.81380611564132" lon="11.91732619009798"><ele>962.0</ele><time>2026-05-02T15:20:19Z</time></trkpt><trkpt lat="43.81372074982064" lon="11.917181854022951"><ele>964.0</ele><time>2026-05-02T15:20:20Z</time></trkpt><trkpt lat="43.81369228452046" lon="11.917055888233426"><ele>966.0</ele><time>2026-05-02T15:20:21Z</time></trkpt><trkpt lat="43.81370553473645" lon="11.916909658319174"><ele>966.0</ele><time>2026-05-02T15:20:22Z</time></trkpt><trkpt lat="43.81380608354944" lon="11.916812476199917"><ele>966.0</ele><time>2026-05-02T15:20:23Z</time></trkpt><trkpt lat="43.813925589650935" lon="11.916752677398776"><ele>966.0</ele><time>2026-05-02T15:20:24Z</time></trkpt><trkpt lat="43.81409416147687" lon="11.91671364663569"><ele>966.0</ele><time>2026-05-02T15:20:25Z</time></trkpt><trkpt lat="43.81430019404848" lon="11.916660824977411"><ele>968.6666666666667</ele><time>2026-05-02T15:20:26Z</time></trkpt><trkpt lat="43.81450204933461" lon="11.916634596205375"><ele>971.3333333333334</ele><time>2026-05-02T15:20:27Z</time></trkpt><trkpt lat="43.814661949259715" lon="11.916573609564502"><ele>974.0</ele><time>2026-05-02T15:20:28Z</time></trkpt><trkpt lat="43.81478240657751" lon="11.916444606498079"><ele>974.0</ele><time>2026-05-02T15:20:29Z</time></trkpt><trkpt lat="43.81486781154838" lon="11.916256259157734"><ele>974.0</ele><time>2026-05-02T15:20:30Z</time></trkpt><trkpt lat="43.814935606871494" lon="11.916027749814848"><ele>974.0</ele><time>2026-05-02T15:20:31Z</time></trkpt><trkpt lat="43.814984542172766" lon="11.915779918779542"><ele>979.0</ele><time>2026-05-02T15:20:32Z</time></trkpt><trkpt lat="43.815086267057765" lon="11.915585074713743"><ele>984.0</ele><time>2026-05-02T15:20:33Z</time></trkpt><trkpt lat="43.81522263716646" lon="11.9154206925311"><ele>989.0</ele><time>2026-05-02T15:20:34Z</time></trkpt><trkpt lat="43.81539219771384" lon="11.915288742409052"><ele>989.0</ele><time>2026-05-02T15:20:35Z</time></trkpt><trkpt lat="43.81556957721532" lon="11.915209418737026"><ele>989.0</ele><time>2026-05-02T15:20:36Z</time></trkpt><trkpt lat="43.81574104847566" lon="11.915185766641603"><ele>989.0</ele><time>2026-05-02T15:20:37Z</time></trkpt><trkpt lat="43.81589454423306" lon="11.915136932195278"><ele>989.0</ele><time>2026-05-02T15:20:38Z</time></trkpt><trkpt lat="43.81600762269004" lon="11.915111583739378"><ele>989.0000000000001</ele><time>2026-05-02T15:20:39Z</time></trkpt><trkpt lat="43.81608869636354" lon="11.915050997757346"><ele>989.0000000000001</ele><time>2026-05-02T15:20:40Z</time></trkpt><trkpt lat="43.81612473754862" lon="11.914946099296191"><ele>989.0</ele><time>2026-05-02T15:20:41Z</time></trkpt><trkpt lat="43.816102674587334" lon="11.914833063756674"><ele>989.0</ele><time>2026-05-02T15:20:42Z</time></trkpt><trkpt lat="43.81603595618024" lon="11.91474441802796"><ele>991.75</ele><time>2026-05-02T15:20:43Z</time></trkpt><trkpt lat="43.815927574516955" lon="11.914724142738184"><ele>994.5</ele><time>2026-05-02T15:20:44Z</time></trkpt><trkpt lat="43.81578435738284" lon="11.91481046005457"><ele>997.25</ele><time>2026-05-02T15:20:45Z</time></trkpt><trkpt lat="43.81563062289506" lon="11.914852008079844"><ele>1000.0</ele><time>2026-05-02T15:20:46Z</time></trkpt><trkpt lat="43.815464066629" lon="11.91489112223124"><ele>1000.0</ele><time>2026-05-02T15:20:47Z</time></trkpt><trkpt lat="43.815293055298305" lon="11.914925740192023"><ele>1000.0</ele><time>2026-05-02T15:20:48Z</time></trkpt><trkpt lat="43.815103989673695" lon="11.915001755577078"><ele>1000.0</ele><time>2026-05-02T15:20:49Z</time></trkpt><trkpt lat="43.814913142018405" lon="11.915112087099123"><ele>997.3333333333333</ele><time>2026-05-02T15:20:50Z</time></trkpt><trkpt lat="43.81475110781228" lon="11.915229748858334"><ele>994.6666666666667</ele><time>2026-05-02T15:20:51Z</time></trkpt><trkpt lat="43.814611913985296" lon="11.915349456877273"><ele>992.0</ele><time>2026-05-02T15:20:52Z</time></trkpt><trkpt lat="43.81452976921094" lon="11.915527420387015"><ele>992.0</ele><time>2026-05-02T15:20:53Z</time></trkpt><trkpt lat="43.81448290670362" lon="11.91570320622071"><ele>992.0</ele><time>2026-05-02T15:20:54Z</time></trkpt><trkpt lat="43.81442167682473" lon="11.915833588804036"><ele>992.0</ele><time>2026-05-02T15:20:55Z</time></trkpt><trkpt lat="43.81433376786778" lon="11.915887340232569"><ele>992.0</ele><time>2026-05-02T15:20:56Z</time></trkpt><trkpt lat="43.81421159719438" lon="11.915882444236072"><ele>1000.6666666666667</ele><time>2026-05-02T15:20:57Z</time></trkpt><trkpt lat="43.814055042393484" lon="11.915840048841012"><ele>1009.3333333333333</ele><time>2026-05-02T15:20:58Z</time></trkpt><trkpt lat="43.81387495717834" lon="11.91580618104883"><ele>1018.0</ele><time>2026-05-02T15:20:59Z</time></trkpt><trkpt lat="43.81368077553335" lon="11.91577005765539"><ele>1020.3333333333333</ele><time>2026-05-02T15:21:00Z</time></trkpt><trkpt lat="43.81347915496891" lon="11.915735507039148"><ele>1022.6666666666667</ele><time>2026-05-02T15:21:01Z</time></trkpt><trkpt lat="43.81327645200099" lon="11.915701603323402"><ele>1025.0</ele><time>2026-05-02T15:21:02Z</time></trkpt><trkpt lat="43.81308964602446" lon="11.915695048844661"><ele>1025.0</ele><time>2026-05-02T15:21:03Z</time></trkpt><trkpt lat="43.81292528278266" lon="11.915731909955408"><ele>1025.0</ele><time>2026-05-02T15:21:04Z</time></trkpt><trkpt lat="43.81277139112968" lon="11.91580502067324"><ele>1025.0</ele><time>2026-05-02T15:21:05Z</time></trkpt><trkpt lat="43.81266223701639" lon="11.915955562593624"><ele>1020.5</ele><time>2026-05-02T15:21:06Z</time></trkpt><trkpt lat="43.81257251829589" lon="11.916094090153578"><ele>1016.0</ele><time>2026-05-02T15:21:07Z</time></trkpt><trkpt lat="43.81248123816956" lon="11.916182205679037"><ele>1011.5</ele><time>2026-05-02T15:21:08Z</time></trkpt><trkpt lat="43.81236527882193" lon="11.916182176968697"><ele>1007.0</ele><time>2026-05-02T15:21:09Z</time></trkpt><trkpt lat="43.81224205175817" lon="11.916132829904258"><ele>1007.0</ele><time>2026-05-02T15:21:10Z</time></trkpt><trkpt lat="43.8120809788326" lon="11.916063009723677"><ele>1007.0</ele><time>2026-05-02T15:21:11Z</time></trkpt><trkpt lat="43.811929871655984" lon="11.916006477890225"><ele>1007.0</ele><time>2026-05-02T15:21:12Z</time></trkpt><trkpt lat="43.811786533392166" lon="11.915995782798314"><ele>1010.0</ele><time>2026-05-02T15:21:13Z</time></trkpt><trkpt lat="43.8116643020863" lon="11.916091964897214"><ele>1013.0</ele><time>2026-05-02T15:21:14Z</time></trkpt><trkpt lat="43.81153071713638" lon="11.916230750050584"><ele>1016.0</ele><time>2026-05-02T15:21:15Z</time></trkpt><trkpt lat="43.811392352969435" lon="11.9162522801445"><ele>1019.0</ele><time>2026-05-02T15:21:16Z</time></trkpt><trkpt lat="43.81119161264518" lon="11.91627208692708"><ele>1019.0</ele><time>2026-05-02T15:21:17Z</time></trkpt><trkpt lat="43.811002689505784" lon="11.916320616156339"><ele>1019.0</ele><time>2026-05-02T15:21:18Z</time></trkpt><trkpt lat="43.81088186201883" lon="11.916461194955463"><ele>1019.0</ele><time>2026-05-02T15:21:19Z</time></trkpt><trkpt lat="43.81085230506388" lon="11.916616613198535"><ele>1022.0</ele><time>2026-05-02T15:21:20Z</time></trkpt><trkpt lat="43.81086374973272" lon="11.916795210982635"><ele>1025.0</ele><time>2026-05-02T15:21:21Z</time></trkpt><trkpt lat="43.81087966054075" lon="11.91696484799124"><ele>1028.0</ele><time>2026-05-02T15:21:22Z</time></trkpt><trkpt lat="43.81084312479994" lon="11.917110463727457"><ele>1031.0</ele><time>2026-05-02T15:21:23Z</time></trkpt><trkpt lat="43.810712555698544" lon="11.917129254352306"><ele>1031.0</ele><time>2026-05-02T15:21:24Z</time></trkpt><trkpt lat="43.81061173858992" lon="11.917182848264346"><ele>1031.0</ele><time>2026-05-02T15:21:25Z</time></trkpt><trkpt lat="43.8104572852697" lon="11.917239704768084"><ele>1031.0</ele><time>2026-05-02T15:21:25.999Z</time></trkpt><trkpt lat="43.81033242364317" lon="11.917303824501635"><ele>1031.0</ele><time>2026-05-02T15:21:26.999Z</time></trkpt><trkpt lat="43.81024436173222" lon="11.917433205943128"><ele>1026.3333333333335</ele><time>2026-05-02T15:21:27.999Z</time></trkpt><trkpt lat="43.81019361536507" lon="11.917602100047276"><ele>1021.6666666666667</ele><time>2026-05-02T15:21:28.999Z</time></trkpt><trkpt lat="43.810168238630425" lon="11.917829228969806"><ele>1017.0</ele><time>2026-05-02T15:21:29.999Z</time></trkpt><trkpt lat="43.81024168268405" lon="11.91805759583918"><ele>1017.0</ele><time>2026-05-02T15:21:30.999Z</time></trkpt><trkpt lat="43.810302481336116" lon="11.918197578033606"><ele>1017.0</ele><time>2026-05-02T15:21:31.999Z</time></trkpt><trkpt lat="43.81032455371033" lon="11.918347661951266"><ele>1017.0</ele><time>2026-05-02T15:21:32.999Z</time></trkpt><trkpt lat="43.81025966039857" lon="11.918438467508802"><ele>1017.0</ele><time>2026-05-02T15:21:33.999Z</time></trkpt><trkpt lat="43.810177318797216" lon="11.918528705041506"><ele>1017.0</ele><time>2026-05-02T15:21:34.999Z</time></trkpt><trkpt lat="43.81004818177894" lon="11.918685404972328"><ele>1030.6666666666667</ele><time>2026-05-02T15:21:35.999Z</time></trkpt><trkpt lat="43.809971293949616" lon="11.918956916677823"><ele>1044.3333333333335</ele><time>2026-05-02T15:21:36.999Z</time></trkpt><trkpt lat="43.80986391613206" lon="11.919153062659001"><ele>1058.0</ele><time>2026-05-02T15:21:37.999Z</time></trkpt><trkpt lat="43.809757378538826" lon="11.919279196086325"><ele>1058.0</ele><time>2026-05-02T15:21:38.999Z</time></trkpt><trkpt lat="43.80975048817059" lon="11.919409953155883"><ele>1058.0</ele><time>2026-05-02T15:21:39.999Z</time></trkpt><trkpt lat="43.809781804552244" lon="11.919530532734374"><ele>1058.0</ele><time>2026-05-02T15:21:40.999Z</time></trkpt><trkpt lat="43.809847464123564" lon="11.919690623971784"><ele>1058.0</ele><time>2026-05-02T15:21:41.999Z</time></trkpt><trkpt lat="43.809902659418675" lon="11.919884485642305"><ele>1058.0</ele><time>2026-05-02T15:21:42.999Z</time></trkpt><trkpt lat="43.80992174650542" lon="11.920042292272647"><ele>1058.0</ele><time>2026-05-02T15:21:43.999Z</time></trkpt><trkpt lat="43.809906545110856" lon="11.920166576145007"><ele>1058.0</ele><time>2026-05-02T15:21:44.999Z</time></trkpt><trkpt lat="43.80983902474576" lon="11.920231961429673"><ele>1058.0</ele><time>2026-05-02T15:21:45.999Z</time></trkpt><trkpt lat="43.809729847147736" lon="11.920292240954444"><ele>1058.0</ele><time>2026-05-02T15:21:46.999Z</time></trkpt><trkpt lat="43.80958057907835" lon="11.920362913404787"><ele>1059.0</ele><time>2026-05-02T15:21:47.999Z</time></trkpt><trkpt lat="43.809392160832644" lon="11.92048744822172"><ele>1060.0</ele><time>2026-05-02T15:21:48.999Z</time></trkpt><trkpt lat="43.809225970816854" lon="11.920561124341885"><ele>1061.0</ele><time>2026-05-02T15:21:49.999Z</time></trkpt><trkpt lat="43.80909887667698" lon="11.920624904694169"><ele>1061.0</ele><time>2026-05-02T15:21:50.999Z</time></trkpt><trkpt lat="43.808972977919815" lon="11.920650871654527"><ele>1061.0</ele><time>2026-05-02T15:21:51.999Z</time></trkpt><trkpt lat="43.80888769876175" lon="11.920647678525642"><ele>1061.0</ele><time>2026-05-02T15:21:52.999Z</time></trkpt><trkpt lat="43.80881222557866" lon="11.92058636467643"><ele>1061.0</ele><time>2026-05-02T15:21:53.999Z</time></trkpt><trkpt lat="43.80877015228415" lon="11.920458919175598"><ele>1061.0</ele><time>2026-05-02T15:21:54.999Z</time></trkpt><trkpt lat="43.8087652441137" lon="11.92032026866428"><ele>1061.0</ele><time>2026-05-02T15:21:55.999Z</time></trkpt><trkpt lat="43.808764753933964" lon="11.920088377745648"><ele>1061.0</ele><time>2026-05-02T15:21:56.999Z</time></trkpt><trkpt lat="43.80873734589345" lon="11.919821518831506"><ele>1061.0</ele><time>2026-05-02T15:21:57.999Z</time></trkpt><trkpt lat="43.80873621012947" lon="11.919588334900746"><ele>1071.6666666666667</ele><time>2026-05-02T15:21:58.999Z</time></trkpt><trkpt lat="43.808727932283844" lon="11.919327089582076"><ele>1082.3333333333333</ele><time>2026-05-02T15:22:00Z</time></trkpt><trkpt lat="43.80871765520351" lon="11.919074837929664"><ele>1093.0</ele><time>2026-05-02T15:22:01Z</time></trkpt><trkpt lat="43.80870850827864" lon="11.918833036334403"><ele>1099.0</ele><time>2026-05-02T15:22:02Z</time></trkpt><trkpt lat="43.80869606844699" lon="11.918600751058271"><ele>1105.0</ele><time>2026-05-02T15:22:03Z</time></trkpt><trkpt lat="43.80871135840503" lon="11.918406353677678"><ele>1111.0</ele><time>2026-05-02T15:22:04Z</time></trkpt><trkpt lat="43.80872170361188" lon="11.918199422808378"><ele>1112.6666666666665</ele><time>2026-05-02T15:22:05Z</time></trkpt><trkpt lat="43.80876723982459" lon="11.917971484068193"><ele>1114.3333333333333</ele><time>2026-05-02T15:22:06Z</time></trkpt><trkpt lat="43.80880554365271" lon="11.917745298499957"><ele>1116.0</ele><time>2026-05-02T15:22:07Z</time></trkpt><trkpt lat="43.808838941212294" lon="11.917555891033784"><ele>1117.0</ele><time>2026-05-02T15:22:08Z</time></trkpt><trkpt lat="43.80884785546616" lon="11.917369012117764"><ele>1118.0</ele><time>2026-05-02T15:22:09Z</time></trkpt><trkpt lat="43.80883599750107" lon="11.91721790070364"><ele>1119.0</ele><time>2026-05-02T15:22:10Z</time></trkpt><trkpt lat="43.808755297266764" lon="11.917090944832834"><ele>1120.0</ele><time>2026-05-02T15:22:11Z</time></trkpt><trkpt lat="43.80862760563344" lon="11.916997836244423"><ele>1120.75</ele><time>2026-05-02T15:22:12Z</time></trkpt><trkpt lat="43.808478625444124" lon="11.916946910133188"><ele>1121.5</ele><time>2026-05-02T15:22:13Z</time></trkpt><trkpt lat="43.80835547233748" lon="11.916854311127054"><ele>1122.25</ele><time>2026-05-02T15:22:14Z</time></trkpt><trkpt lat="43.808289033886375" lon="11.91668389450226"><ele>1123.0</ele><time>2026-05-02T15:22:15Z</time></trkpt><trkpt lat="43.80819795341139" lon="11.916504044067"><ele>1123.0</ele><time>2026-05-02T15:22:16Z</time></trkpt><trkpt lat="43.808116121418266" lon="11.916358586411619"><ele>1123.0</ele><time>2026-05-02T15:22:17Z</time></trkpt><trkpt lat="43.8079966539795" lon="11.916283798069845"><ele>1123.0</ele><time>2026-05-02T15:22:18Z</time></trkpt><trkpt lat="43.80783084820793" lon="11.916272316453075"><ele>1123.0</ele><time>2026-05-02T15:22:19Z</time></trkpt><trkpt lat="43.807655759216026" lon="11.916318768792882"><ele>1117.6666666666665</ele><time>2026-05-02T15:22:20Z</time></trkpt><trkpt lat="43.80749696320593" lon="11.91633860284776"><ele>1112.3333333333333</ele><time>2026-05-02T15:22:21Z</time></trkpt><trkpt lat="43.80734480885587" lon="11.916295400555564"><ele>1107.0</ele><time>2026-05-02T15:22:22Z</time></trkpt><trkpt lat="43.807189783736945" lon="11.91619702054579"><ele>1107.0</ele><time>2026-05-02T15:22:23Z</time></trkpt><trkpt lat="43.80706374342324" lon="11.916109258878658"><ele>1107.0</ele><time>2026-05-02T15:22:24Z</time></trkpt><trkpt lat="43.80695900129621" lon="11.916093848795022"><ele>1107.0</ele><time>2026-05-02T15:22:25Z</time></trkpt><trkpt lat="43.80681833760688" lon="11.916121880379768"><ele>1107.0</ele><time>2026-05-02T15:22:26Z</time></trkpt><trkpt lat="43.80670277734215" lon="11.916240239887914"><ele>1109.0</ele><time>2026-05-02T15:22:27Z</time></trkpt><trkpt lat="43.806606823809076" lon="11.916418007641159"><ele>1111.0</ele><time>2026-05-02T15:22:28Z</time></trkpt><trkpt lat="43.80651771209498" lon="11.916574984887003"><ele>1113.0</ele><time>2026-05-02T15:22:29Z</time></trkpt><trkpt lat="43.80643732529837" lon="11.916699482566946"><ele>1115.0</ele><time>2026-05-02T15:22:30Z</time></trkpt><trkpt lat="43.80633827632639" lon="11.916735739089232"><ele>1115.6</ele><time>2026-05-02T15:22:31Z</time></trkpt><trkpt lat="43.80620593326647" lon="11.916800124405174"><ele>1116.2</ele><time>2026-05-02T15:22:32Z</time></trkpt><trkpt lat="43.80608870916597" lon="11.916808984149284"><ele>1116.8</ele><time>2026-05-02T15:22:33Z</time></trkpt><trkpt lat="43.80600726910063" lon="11.91677500754279"><ele>1117.4</ele><time>2026-05-02T15:22:34Z</time></trkpt><trkpt lat="43.805944117448476" lon="11.916657846605155"><ele>1118.0</ele><time>2026-05-02T15:22:35Z</time></trkpt><trkpt lat="43.80588802449398" lon="11.91649339919925"><ele>1118.0</ele><time>2026-05-02T15:22:36Z</time></trkpt><trkpt lat="43.80582506444994" lon="11.916273569153025"><ele>1118.0</ele><time>2026-05-02T15:22:37Z</time></trkpt><trkpt lat="43.805760740485674" lon="11.916036802865174"><ele>1118.0</ele><time>2026-05-02T15:22:38Z</time></trkpt><trkpt lat="43.80569544008284" lon="11.91578538802035"><ele>1124.5</ele><time>2026-05-02T15:22:39Z</time></trkpt><trkpt lat="43.80564579920099" lon="11.915578782331432"><ele>1131.0</ele><time>2026-05-02T15:22:40Z</time></trkpt><trkpt lat="43.80558814954062" lon="11.915476535774108"><ele>1137.5</ele><time>2026-05-02T15:22:41Z</time></trkpt><trkpt lat="43.80545144414061" lon="11.915390198329138"><ele>1144.0</ele><time>2026-05-02T15:22:42Z</time></trkpt><trkpt lat="43.80529223518709" lon="11.915341368313783"><ele>1137.3333333333333</ele><time>2026-05-02T15:22:43Z</time></trkpt><trkpt lat="43.80511747632325" lon="11.915318351945206"><ele>1130.6666666666667</ele><time>2026-05-02T15:22:44Z</time></trkpt><trkpt lat="43.804934256556955" lon="11.915312079721614"><ele>1124.0</ele><time>2026-05-02T15:22:45Z</time></trkpt><trkpt lat="43.80476498591735" lon="11.915328402918838"><ele>1124.0</ele><time>2026-05-02T15:22:46Z</time></trkpt><trkpt lat="43.8046288007305" lon="11.915356651122982"><ele>1124.0</ele><time>2026-05-02T15:22:47Z</time></trkpt><trkpt lat="43.80449420338362" lon="11.915477185201949"><ele>1124.0</ele><time>2026-05-02T15:22:48Z</time></trkpt><trkpt lat="43.80437157565997" lon="11.915685237760636"><ele>1131.6666666666667</ele><time>2026-05-02T15:22:49Z</time></trkpt><trkpt lat="43.80421220282762" lon="11.915852357895409"><ele>1139.3333333333333</ele><time>2026-05-02T15:22:50Z</time></trkpt><trkpt lat="43.804049857977944" lon="11.916000492355963"><ele>1147.0</ele><time>2026-05-02T15:22:51Z</time></trkpt><trkpt lat="43.803894322101264" lon="11.916109800583015"><ele>1131.0</ele><time>2026-05-02T15:22:52Z</time></trkpt><trkpt lat="43.80375615180398" lon="11.91622956687471"><ele>1115.0</ele><time>2026-05-02T15:22:53Z</time></trkpt><trkpt lat="43.80364685107246" lon="11.916369347705476"><ele>1099.0</ele><time>2026-05-02T15:22:54Z</time></trkpt><trkpt lat="43.8035385721827" lon="11.916510130847673"><ele>1103.8</ele><time>2026-05-02T15:22:55Z</time></trkpt><trkpt lat="43.80344738833566" lon="11.916623233645149"><ele>1108.6000000000001</ele><time>2026-05-02T15:22:56Z</time></trkpt><trkpt lat="43.80334490827781" lon="11.916710776663793"><ele>1113.4</ele><time>2026-05-02T15:22:57Z</time></trkpt><trkpt lat="43.80325941535638" lon="11.916678514195373"><ele>1118.2</ele><time>2026-05-02T15:22:58Z</time></trkpt><trkpt lat="43.803161600330846" lon="11.91662136998494"><ele>1123.0</ele><time>2026-05-02T15:22:59Z</time></trkpt><trkpt lat="43.8031608816034" lon="11.916422831117933"><ele>1123.0</ele><time>2026-05-02T15:23:01Z</time></trkpt><trkpt lat="43.80314597084233" lon="11.916267602359124"><ele>1123.0</ele><time>2026-05-02T15:23:02Z</time></trkpt><trkpt lat="43.80313563583459" lon="11.916101353210184"><ele>1123.0</ele><time>2026-05-02T15:23:03Z</time></trkpt><trkpt lat="43.803119884327295" lon="11.915907252880125"><ele>1123.0</ele><time>2026-05-02T15:23:04Z</time></trkpt><trkpt lat="43.80314903183895" lon="11.915725279256234"><ele>1129.25</ele><time>2026-05-02T15:23:05Z</time></trkpt><trkpt lat="43.803180483601125" lon="11.915540699354807"><ele>1135.5</ele><time>2026-05-02T15:23:06Z</time></trkpt><trkpt lat="43.803258318110956" lon="11.915368563716939"><ele>1141.75</ele><time>2026-05-02T15:23:07Z</time></trkpt><trkpt lat="43.80332015165709" lon="11.915214112046803"><ele>1148.0</ele><time>2026-05-02T15:23:08Z</time></trkpt><trkpt lat="43.8033474072853" lon="11.91503706584033"><ele>1148.25</ele><time>2026-05-02T15:23:09Z</time></trkpt><trkpt lat="43.80336473804604" lon="11.914865612748425"><ele>1148.5</ele><time>2026-05-02T15:23:10Z</time></trkpt><trkpt lat="43.80336858060109" lon="11.914686007618133"><ele>1148.75</ele><time>2026-05-02T15:23:11Z</time></trkpt><trkpt lat="43.803371601032985" lon="11.91451860561194"><ele>1149.0</ele><time>2026-05-02T15:23:12Z</time></trkpt><trkpt lat="43.80338157671532" lon="11.9143466374251"><ele>1152.25</ele><time>2026-05-02T15:23:13Z</time></trkpt><trkpt lat="43.80338759231571" lon="11.914162064090993"><ele>1155.5</ele><time>2026-05-02T15:23:14Z</time></trkpt><trkpt lat="43.8033805268265" lon="11.913999593086217"><ele>1158.75</ele><time>2026-05-02T15:23:15Z</time></trkpt><trkpt lat="43.80333624698097" lon="11.913842440216515"><ele>1162.0</ele><time>2026-05-02T15:23:16Z</time></trkpt><trkpt lat="43.80323471411332" lon="11.913712221439106"><ele>1162.0</ele><time>2026-05-02T15:23:17Z</time></trkpt><trkpt lat="43.80309269755928" lon="11.913615296763503"><ele>1162.0</ele><time>2026-05-02T15:23:18Z</time></trkpt><trkpt lat="43.80292323106359" lon="11.913544289462813"><ele>1162.0</ele><time>2026-05-02T15:23:19Z</time></trkpt><trkpt lat="43.8027359777251" lon="11.913494508362843"><ele>1170.3333333333333</ele><time>2026-05-02T15:23:20Z</time></trkpt><trkpt lat="43.80256326851168" lon="11.913410399606871"><ele>1178.6666666666667</ele><time>2026-05-02T15:23:21Z</time></trkpt><trkpt lat="43.802412946119006" lon="11.913345648920163"><ele>1187.0</ele><time>2026-05-02T15:23:22Z</time></trkpt><trkpt lat="43.802236077991424" lon="11.913339925112155"><ele>1187.0</ele><time>2026-05-02T15:23:23Z</time></trkpt><trkpt lat="43.802041527309164" lon="11.913378101941676"><ele>1187.0</ele><time>2026-05-02T15:23:24Z</time></trkpt><trkpt lat="43.801864650133126" lon="11.913342844709788"><ele>1187.0</ele><time>2026-05-02T15:23:25Z</time></trkpt><trkpt lat="43.80169433507425" lon="11.913321355262699"><ele>1185.6666666666667</ele><time>2026-05-02T15:23:26Z</time></trkpt><trkpt lat="43.80150454271869" lon="11.913341986395984"><ele>1184.3333333333333</ele><time>2026-05-02T15:23:27Z</time></trkpt><trkpt lat="43.80131426081261" lon="11.913412910915158"><ele>1183.0</ele><time>2026-05-02T15:23:28Z</time></trkpt><trkpt lat="43.80112637929136" lon="11.913537030947722"><ele>1174.3333333333333</ele><time>2026-05-02T15:23:29Z</time></trkpt><trkpt lat="43.80095230594666" lon="11.91361955204265"><ele>1165.6666666666667</ele><time>2026-05-02T15:23:30Z</time></trkpt><trkpt lat="43.80079260421069" lon="11.913692075215769"><ele>1157.0</ele><time>2026-05-02T15:23:31Z</time></trkpt><trkpt lat="43.80061984952557" lon="11.913733587218712"><ele>1157.0</ele><time>2026-05-02T15:23:32Z</time></trkpt><trkpt lat="43.800457293461946" lon="11.91371231714936"><ele>1157.0</ele><time>2026-05-02T15:23:32.999Z</time></trkpt><trkpt lat="43.80025554771333" lon="11.913681747432538"><ele>1157.0</ele><time>2026-05-02T15:23:33.999Z</time></trkpt><trkpt lat="43.80007365163511" lon="11.913689399105687"><ele>1158.3333333333335</ele><time>2026-05-02T15:23:34.999Z</time></trkpt><trkpt lat="43.799909681467625" lon="11.913703445629395"><ele>1159.6666666666667</ele><time>2026-05-02T15:23:35.999Z</time></trkpt><trkpt lat="43.79973883620361" lon="11.913719457157816"><ele>1161.0</ele><time>2026-05-02T15:23:36.999Z</time></trkpt><trkpt lat="43.7995931799057" lon="11.91375079584873"><ele>1161.0</ele><time>2026-05-02T15:23:37.999Z</time></trkpt><trkpt lat="43.799461534519004" lon="11.913777853107389"><ele>1161.0</ele><time>2026-05-02T15:23:38.999Z</time></trkpt><trkpt lat="43.79934714177952" lon="11.913838780396395"><ele>1161.0</ele><time>2026-05-02T15:23:39.999Z</time></trkpt><trkpt lat="43.799258295286016" lon="11.913925588290448"><ele>1161.0</ele><time>2026-05-02T15:23:40.999Z</time></trkpt><trkpt lat="43.799206329366015" lon="11.91405270037708"><ele>1158.0</ele><time>2026-05-02T15:23:41.999Z</time></trkpt><trkpt lat="43.79917838175466" lon="11.914229136693471"><ele>1155.0</ele><time>2026-05-02T15:23:42.999Z</time></trkpt><trkpt lat="43.799152035067834" lon="11.914339064497375"><ele>1152.0</ele><time>2026-05-02T15:23:43.999Z</time></trkpt><trkpt lat="43.79911434640302" lon="11.91443386886573"><ele>1149.0</ele><time>2026-05-02T15:23:44.999Z</time></trkpt><trkpt lat="43.799041178506215" lon="11.914489492684831"><ele>1146.0</ele><time>2026-05-02T15:23:45.999Z</time></trkpt><trkpt lat="43.79892826629212" lon="11.914452212823761"><ele>1146.0</ele><time>2026-05-02T15:23:46.999Z</time></trkpt><trkpt lat="43.79878867270857" lon="11.914433545646734"><ele>1146.0</ele><time>2026-05-02T15:23:47.999Z</time></trkpt><trkpt lat="43.798686281908644" lon="11.914439191003812"><ele>1146.0</ele><time>2026-05-02T15:23:48.999Z</time></trkpt><trkpt lat="43.79857872059566" lon="11.914481703652246"><ele>1146.0</ele><time>2026-05-02T15:23:49.999Z</time></trkpt><trkpt lat="43.79843861861326" lon="11.914530742707178"><ele>1154.0</ele><time>2026-05-02T15:23:50.999Z</time></trkpt><trkpt lat="43.79830499255201" lon="11.914703880495503"><ele>1162.0</ele><time>2026-05-02T15:23:51.999Z</time></trkpt><trkpt lat="43.79815240305468" lon="11.914774120833275"><ele>1170.0</ele><time>2026-05-02T15:23:52.999Z</time></trkpt><trkpt lat="43.79802313209769" lon="11.914888264311777"><ele>1170.0</ele><time>2026-05-02T15:23:53.999Z</time></trkpt><trkpt lat="43.79790938778949" lon="11.91502996813675"><ele>1170.0</ele><time>2026-05-02T15:23:54.999Z</time></trkpt><trkpt lat="43.797824444570544" lon="11.915150358692657"><ele>1170.0</ele><time>2026-05-02T15:23:55.999Z</time></trkpt><trkpt lat="43.797720779557864" lon="11.91521349840236"><ele>1170.0</ele><time>2026-05-02T15:23:56.999Z</time></trkpt><trkpt lat="43.79761414387078" lon="11.915204440515252"><ele>1170.8</ele><time>2026-05-02T15:23:57.999Z</time></trkpt><trkpt lat="43.79752127348056" lon="11.915136591632658"><ele>1171.6</ele><time>2026-05-02T15:23:58.999Z</time></trkpt><trkpt lat="43.79746176506612" lon="11.915001916865288"><ele>1172.4</ele><time>2026-05-02T15:23:59.999Z</time></trkpt><trkpt lat="43.797468773611655" lon="11.914884122643693"><ele>1173.2</ele><time>2026-05-02T15:24:00.999Z</time></trkpt><trkpt lat="43.79747391424944" lon="11.914741595714645"><ele>1174.0</ele><time>2026-05-02T15:24:02.999Z</time></trkpt><trkpt lat="43.79737580515488" lon="11.91483235864851"><ele>1174.0</ele><time>2026-05-02T15:24:07Z</time></trkpt><trkpt lat="43.79742155857127" lon="11.914895842641846"><ele>1174.0</ele><time>2026-05-02T15:24:10Z</time></trkpt><trkpt lat="43.79742127775813" lon="11.914770458784568"><ele>1174.0</ele><time>2026-05-02T15:24:33Z</time></trkpt><trkpt lat="43.79747242800356" lon="11.914836920592464"><ele>1174.0</ele><time>2026-05-02T15:26:04.999Z</time></trkpt><trkpt lat="43.7975330148978" lon="11.914875660533623"><ele>1174.0</ele><time>2026-05-02T15:26:10.999Z</time></trkpt><trkpt lat="43.79746552919394" lon="11.91486859703145"><ele>1174.0</ele><time>2026-05-02T15:26:53Z</time></trkpt><trkpt lat="43.797432134546405" lon="11.914764421209044"><ele>1174.0</ele><time>2026-05-02T15:27:21Z</time></trkpt><trkpt lat="43.797495096355526" lon="11.914654074286235"><ele>1174.0</ele><time>2026-05-02T15:30:35Z</time></trkpt><trkpt lat="43.797514057167824" lon="11.914570696148628"><ele>1174.0</ele><time>2026-05-02T15:30:36Z</time></trkpt><trkpt lat="43.79752878085054" lon="11.914466530098926"><ele>1174.0</ele><time>2026-05-02T15:30:37Z</time></trkpt><trkpt lat="43.797542894028076" lon="11.914363961512018"><ele>1174.0</ele><time>2026-05-02T15:30:38Z</time></trkpt><trkpt lat="43.79755286884127" lon="11.914264116651498"><ele>1174.0</ele><time>2026-05-02T15:30:39Z</time></trkpt><trkpt lat="43.797538908505786" lon="11.914166184479939"><ele>1174.0</ele><time>2026-05-02T15:30:40Z</time></trkpt><trkpt lat="43.79751295166799" lon="11.914075282858208"><ele>1174.0</ele><time>2026-05-02T15:30:41Z</time></trkpt><trkpt lat="43.79743198091606" lon="11.913945298925114"><ele>1176.6000000000001</ele><time>2026-05-02T15:30:43Z</time></trkpt><trkpt lat="43.79728706319463" lon="11.913893811296974"><ele>1179.2</ele><time>2026-05-02T15:30:45Z</time></trkpt><trkpt lat="43.797184251457345" lon="11.913897596729587"><ele>1181.8000000000002</ele><time>2026-05-02T15:30:46Z</time></trkpt><trkpt lat="43.79708120775653" lon="11.913892145512046"><ele>1184.4</ele><time>2026-05-02T15:30:47Z</time></trkpt><trkpt lat="43.79699936428764" lon="11.913833861418855"><ele>1187.0</ele><time>2026-05-02T15:30:48Z</time></trkpt><trkpt lat="43.796937298491905" lon="11.913737110141692"><ele>1187.0</ele><time>2026-05-02T15:30:49Z</time></trkpt><trkpt lat="43.79686252299008" lon="11.913628766610799"><ele>1187.0</ele><time>2026-05-02T15:30:50Z</time></trkpt><trkpt lat="43.796804684088606" lon="11.91347346631599"><ele>1187.0</ele><time>2026-05-02T15:30:51Z</time></trkpt><trkpt lat="43.79676048543609" lon="11.91328404556067"><ele>1187.0</ele><time>2026-05-02T15:30:52Z</time></trkpt><trkpt lat="43.796742231366316" lon="11.913081431433572"><ele>1184.3333333333335</ele><time>2026-05-02T15:30:53Z</time></trkpt><trkpt lat="43.79672724327016" lon="11.912851810107995"><ele>1181.6666666666667</ele><time>2026-05-02T15:30:54Z</time></trkpt><trkpt lat="43.79670819227245" lon="11.912658327487181"><ele>1179.0</ele><time>2026-05-02T15:30:55Z</time></trkpt><trkpt lat="43.79664573480339" lon="11.91246455725039"><ele>1179.0</ele><time>2026-05-02T15:30:56Z</time></trkpt><trkpt lat="43.79656549580923" lon="11.912273720358753"><ele>1179.0</ele><time>2026-05-02T15:30:57Z</time></trkpt><trkpt lat="43.79647048045096" lon="11.912085428441575"><ele>1179.0</ele><time>2026-05-02T15:30:58Z</time></trkpt><trkpt lat="43.79639999533027" lon="11.911890930289452"><ele>1179.5</ele><time>2026-05-02T15:30:59Z</time></trkpt><trkpt lat="43.796357326844834" lon="11.911703758725269"><ele>1180.0</ele><time>2026-05-02T15:31:00Z</time></trkpt><trkpt lat="43.796313107550375" lon="11.911524692366395"><ele>1180.5</ele><time>2026-05-02T15:31:01Z</time></trkpt><trkpt lat="43.79627242122369" lon="11.911377293430876"><ele>1181.0</ele><time>2026-05-02T15:31:02Z</time></trkpt><trkpt lat="43.79623477917938" lon="11.911228982810357"><ele>1181.0</ele><time>2026-05-02T15:31:03Z</time></trkpt><trkpt lat="43.79622023361933" lon="11.911108853391683"><ele>1181.0</ele><time>2026-05-02T15:31:04Z</time></trkpt><trkpt lat="43.79625939806529" lon="11.911006051387313"><ele>1181.0</ele><time>2026-05-02T15:31:05Z</time></trkpt><trkpt lat="43.79631119493074" lon="11.91093246591841"><ele>1181.0</ele><time>2026-05-02T15:31:06Z</time></trkpt><trkpt lat="43.796406092592456" lon="11.9109344711387"><ele>1181.0</ele><time>2026-05-02T15:31:07Z</time></trkpt><trkpt lat="43.796509815970545" lon="11.910927136315225"><ele>1181.0</ele><time>2026-05-02T15:31:08Z</time></trkpt><trkpt lat="43.796654330794986" lon="11.910887900066685"><ele>1181.0</ele><time>2026-05-02T15:31:09Z</time></trkpt><trkpt lat="43.79681415246629" lon="11.910873777506186"><ele>1181.0</ele><time>2026-05-02T15:31:10Z</time></trkpt><trkpt lat="43.796961809006454" lon="11.910843369324207"><ele>1181.0</ele><time>2026-05-02T15:31:11Z</time></trkpt><trkpt lat="43.79707140484101" lon="11.91078965815284"><ele>1181.0</ele><time>2026-05-02T15:31:12Z</time></trkpt><trkpt lat="43.79714865681766" lon="11.910711207369697"><ele>1181.0</ele><time>2026-05-02T15:31:13Z</time></trkpt><trkpt lat="43.79721256891153" lon="11.910621305788402"><ele>1181.0</ele><time>2026-05-02T15:31:14Z</time></trkpt><trkpt lat="43.797272208645396" lon="11.91050108925267"><ele>1181.0</ele><time>2026-05-02T15:31:16Z</time></trkpt><trkpt lat="43.79736263161804" lon="11.910374902463051"><ele>1181.0</ele><time>2026-05-02T15:31:18Z</time></trkpt><trkpt lat="43.79742651707486" lon="11.910306517251566"><ele>1181.0</ele><time>2026-05-02T15:31:19Z</time></trkpt><trkpt lat="43.79749980826828" lon="11.910240324417657"><ele>1181.0</ele><time>2026-05-02T15:31:20Z</time></trkpt><trkpt lat="43.797566455155696" lon="11.910159627163315"><ele>1181.0</ele><time>2026-05-02T15:31:21Z</time></trkpt><trkpt lat="43.797639338038096" lon="11.910078056196523"><ele>1181.0</ele><time>2026-05-02T15:31:22Z</time></trkpt><trkpt lat="43.79770684166081" lon="11.910010024114953"><ele>1181.0</ele><time>2026-05-02T15:31:23Z</time></trkpt><trkpt lat="43.79777339699152" lon="11.90994173248006"><ele>1181.0</ele><time>2026-05-02T15:31:24Z</time></trkpt><trkpt lat="43.797833070729304" lon="11.909883515190208"><ele>1181.0</ele><time>2026-05-02T15:31:25Z</time></trkpt><trkpt lat="43.797888812537344" lon="11.909827890188954"><ele>1181.1666666666667</ele><time>2026-05-02T15:31:26Z</time></trkpt><trkpt lat="43.79794744385443" lon="11.909775191744163"><ele>1181.3333333333335</ele><time>2026-05-02T15:31:27Z</time></trkpt><trkpt lat="43.79801463455339" lon="11.909703100386736"><ele>1181.5</ele><time>2026-05-02T15:31:28Z</time></trkpt><trkpt lat="43.79809585025853" lon="11.90963762780901"><ele>1181.6666666666667</ele><time>2026-05-02T15:31:29Z</time></trkpt><trkpt lat="43.798171777671975" lon="11.909576457054127"><ele>1181.8333333333333</ele><time>2026-05-02T15:31:29.999Z</time></trkpt><trkpt lat="43.7982344062344" lon="11.909502820602354"><ele>1182.0</ele><time>2026-05-02T15:31:30.999Z</time></trkpt><trkpt lat="43.79827912715663" lon="11.909423582426633"><ele>1182.0</ele><time>2026-05-02T15:31:31.999Z</time></trkpt><trkpt lat="43.79830443665465" lon="11.909325001250908"><ele>1182.0</ele><time>2026-05-02T15:31:32.999Z</time></trkpt><trkpt lat="43.79830421533724" lon="11.909224625169854"><ele>1182.0</ele><time>2026-05-02T15:31:33.999Z</time></trkpt><trkpt lat="43.79829048515102" lon="11.909110883850436"><ele>1182.0</ele><time>2026-05-02T15:31:34.999Z</time></trkpt><trkpt lat="43.798254040006434" lon="11.908997642813098"><ele>1182.0</ele><time>2026-05-02T15:31:35.999Z</time></trkpt><trkpt lat="43.7982367040613" lon="11.908887148775142"><ele>1182.0</ele><time>2026-05-02T15:31:36.999Z</time></trkpt><trkpt lat="43.79820462262587" lon="11.908761814200906"><ele>1180.5</ele><time>2026-05-02T15:31:37.999Z</time></trkpt><trkpt lat="43.798164408274104" lon="11.908653698357337"><ele>1179.0</ele><time>2026-05-02T15:31:38.999Z</time></trkpt><trkpt lat="43.798130497944314" lon="11.908553859897394"><ele>1177.5</ele><time>2026-05-02T15:31:39.999Z</time></trkpt><trkpt lat="43.79811665939864" lon="11.90845707943945"><ele>1176.0</ele><time>2026-05-02T15:31:40.999Z</time></trkpt><trkpt lat="43.7981298060601" lon="11.908367631999448"><ele>1174.5</ele><time>2026-05-02T15:31:41.999Z</time></trkpt><trkpt lat="43.79817281100522" lon="11.908284711554762"><ele>1173.0</ele><time>2026-05-02T15:31:42.999Z</time></trkpt><trkpt lat="43.79821195049887" lon="11.908155160106551"><ele>1171.75</ele><time>2026-05-02T15:31:43.999Z</time></trkpt><trkpt lat="43.79823281346542" lon="11.907998267616618"><ele>1170.5</ele><time>2026-05-02T15:31:44.999Z</time></trkpt><trkpt lat="43.79820969802943" lon="11.907821748279266"><ele>1169.25</ele><time>2026-05-02T15:31:45.999Z</time></trkpt><trkpt lat="43.798190273580715" lon="11.90766929689213"><ele>1168.0</ele><time>2026-05-02T15:31:46.999Z</time></trkpt><trkpt lat="43.79817503089878" lon="11.907530905490267"><ele>1166.6</ele><time>2026-05-02T15:31:47.999Z</time></trkpt><trkpt lat="43.79817314741486" lon="11.907402346553376"><ele>1165.1999999999998</ele><time>2026-05-02T15:31:48.999Z</time></trkpt><trkpt lat="43.798189149579024" lon="11.907281883300648"><ele>1163.8</ele><time>2026-05-02T15:31:49.999Z</time></trkpt><trkpt lat="43.7982296931864" lon="11.90715567123705"><ele>1162.3999999999999</ele><time>2026-05-02T15:31:50.999Z</time></trkpt><trkpt lat="43.798294694717434" lon="11.907003446853684"><ele>1161.0</ele><time>2026-05-02T15:31:51.999Z</time></trkpt><trkpt lat="43.79835933355136" lon="11.906840212208994"><ele>1159.5</ele><time>2026-05-02T15:31:52.999Z</time></trkpt><trkpt lat="43.798411098854025" lon="11.906649585749967"><ele>1158.0</ele><time>2026-05-02T15:31:53.999Z</time></trkpt><trkpt lat="43.798413207680746" lon="11.906440836744652"><ele>1156.5</ele><time>2026-05-02T15:31:54.999Z</time></trkpt><trkpt lat="43.79839789990103" lon="11.906251506587305"><ele>1155.0</ele><time>2026-05-02T15:31:55.999Z</time></trkpt><trkpt lat="43.79836424310292" lon="11.906076410049602"><ele>1155.75</ele><time>2026-05-02T15:31:56.999Z</time></trkpt><trkpt lat="43.79834136696081" lon="11.905910176457688"><ele>1156.5</ele><time>2026-05-02T15:31:57.999Z</time></trkpt><trkpt lat="43.798290062537035" lon="11.905760365544426"><ele>1157.25</ele><time>2026-05-02T15:31:58.999Z</time></trkpt><trkpt lat="43.79818912783921" lon="11.905601237163724"><ele>1158.0</ele><time>2026-05-02T15:31:59.999Z</time></trkpt><trkpt lat="43.7980710372423" lon="11.905448668039615"><ele>1158.0</ele><time>2026-05-02T15:32:00.999Z</time></trkpt><trkpt lat="43.79794493612983" lon="11.905316852100988"><ele>1158.0</ele><time>2026-05-02T15:32:01.999Z</time></trkpt><trkpt lat="43.79784911256782" lon="11.905173585185437"><ele>1158.0</ele><time>2026-05-02T15:32:02.999Z</time></trkpt><trkpt lat="43.797747101292344" lon="11.905069193413373"><ele>1158.0</ele><time>2026-05-02T15:32:03.999Z</time></trkpt><trkpt lat="43.797660277094025" lon="11.90494285342019"><ele>1150.5</ele><time>2026-05-02T15:32:04.999Z</time></trkpt><trkpt lat="43.797578805200665" lon="11.904820546967228"><ele>1143.0</ele><time>2026-05-02T15:32:05.999Z</time></trkpt><trkpt lat="43.79750475297003" lon="11.904697150060565"><ele>1135.5</ele><time>2026-05-02T15:32:06.999Z</time></trkpt><trkpt lat="43.79742593563673" lon="11.904579113984413"><ele>1128.0</ele><time>2026-05-02T15:32:07.999Z</time></trkpt><trkpt lat="43.79733327721026" lon="11.90449134162051"><ele>1128.0</ele><time>2026-05-02T15:32:08.999Z</time></trkpt><trkpt lat="43.79723939203204" lon="11.904433147331407"><ele>1128.0</ele><time>2026-05-02T15:32:09.999Z</time></trkpt><trkpt lat="43.79714087888475" lon="11.90439705244475"><ele>1128.0</ele><time>2026-05-02T15:32:10.999Z</time></trkpt><trkpt lat="43.79708591441566" lon="11.9043248439147"><ele>1128.0</ele><time>2026-05-02T15:32:11.999Z</time></trkpt><trkpt lat="43.79706069568403" lon="11.904223458460821"><ele>1128.0</ele><time>2026-05-02T15:32:12.999Z</time></trkpt><trkpt lat="43.79708436416656" lon="11.904094261654402"><ele>1129.4</ele><time>2026-05-02T15:32:13.999Z</time></trkpt><trkpt lat="43.797122602794" lon="11.90394967011474"><ele>1130.8</ele><time>2026-05-02T15:32:14.999Z</time></trkpt><trkpt lat="43.79717247363626" lon="11.903825621893596"><ele>1132.2</ele><time>2026-05-02T15:32:15.999Z</time></trkpt><trkpt lat="43.797248445808286" lon="11.903740387554025"><ele>1133.6</ele><time>2026-05-02T15:32:16.999Z</time></trkpt><trkpt lat="43.79734514614224" lon="11.9037118540291"><ele>1135.0</ele><time>2026-05-02T15:32:17.999Z</time></trkpt><trkpt lat="43.79746285372074" lon="11.903725529587621"><ele>1135.0</ele><time>2026-05-02T15:32:18.999Z</time></trkpt><trkpt lat="43.79759065768229" lon="11.903706214125348"><ele>1135.0</ele><time>2026-05-02T15:32:19.999Z</time></trkpt><trkpt lat="43.7977079909461" lon="11.903596097913184"><ele>1135.0</ele><time>2026-05-02T15:32:20.999Z</time></trkpt><trkpt lat="43.797816771069904" lon="11.90347818862591"><ele>1135.0</ele><time>2026-05-02T15:32:21.999Z</time></trkpt><trkpt lat="43.79790118114537" lon="11.903369936948414"><ele>1139.75</ele><time>2026-05-02T15:32:22.999Z</time></trkpt><trkpt lat="43.79795668980308" lon="11.903242197496084"><ele>1144.5</ele><time>2026-05-02T15:32:23.999Z</time></trkpt><trkpt lat="43.797955600993554" lon="11.903113929219106"><ele>1149.25</ele><time>2026-05-02T15:32:24.999Z</time></trkpt><trkpt lat="43.797924473758854" lon="11.902961636833368"><ele>1154.0</ele><time>2026-05-02T15:32:25.999Z</time></trkpt><trkpt lat="43.79785512473618" lon="11.902800664474105"><ele>1154.0</ele><time>2026-05-02T15:32:26.999Z</time></trkpt><trkpt lat="43.79779757248892" lon="11.902637934811736"><ele>1154.0</ele><time>2026-05-02T15:32:27.999Z</time></trkpt><trkpt lat="43.79775970634922" lon="11.902461814978281"><ele>1154.0</ele><time>2026-05-02T15:32:28.999Z</time></trkpt><trkpt lat="43.79770555415668" lon="11.902362844031252"><ele>1154.0</ele><time>2026-05-02T15:32:30Z</time></trkpt><trkpt lat="43.797692850337775" lon="11.902222073141047"><ele>1152.5</ele><time>2026-05-02T15:32:31Z</time></trkpt><trkpt lat="43.79768900542402" lon="11.902055895189651"><ele>1151.0</ele><time>2026-05-02T15:32:32Z</time></trkpt><trkpt lat="43.7976959643729" lon="11.90186243325988"><ele>1149.5</ele><time>2026-05-02T15:32:33Z</time></trkpt><trkpt lat="43.797706516265926" lon="11.901650317295983"><ele>1148.0</ele><time>2026-05-02T15:32:34Z</time></trkpt><trkpt lat="43.79770350170734" lon="11.901437965637385"><ele>1136.0</ele><time>2026-05-02T15:32:35Z</time></trkpt><trkpt lat="43.79766800260378" lon="11.901239492109532"><ele>1124.0</ele><time>2026-05-02T15:32:36Z</time></trkpt><trkpt lat="43.79758151396984" lon="11.901028592139607"><ele>1112.0</ele><time>2026-05-02T15:32:37Z</time></trkpt><trkpt lat="43.79749725190278" lon="11.900824687772463"><ele>1112.0</ele><time>2026-05-02T15:32:38Z</time></trkpt><trkpt lat="43.79743998225426" lon="11.900616399194078"><ele>1112.0</ele><time>2026-05-02T15:32:39Z</time></trkpt><trkpt lat="43.797394376500954" lon="11.900415458160296"><ele>1112.0</ele><time>2026-05-02T15:32:40Z</time></trkpt><trkpt lat="43.79735618008016" lon="11.900225993398763"><ele>1111.25</ele><time>2026-05-02T15:32:41Z</time></trkpt><trkpt lat="43.79733976143123" lon="11.900049391722963"><ele>1110.5</ele><time>2026-05-02T15:32:42Z</time></trkpt><trkpt lat="43.797357493062236" lon="11.899876912767478"><ele>1109.75</ele><time>2026-05-02T15:32:43Z</time></trkpt><trkpt lat="43.79737372697676" lon="11.89971414839568"><ele>1109.0</ele><time>2026-05-02T15:32:44Z</time></trkpt><trkpt lat="43.79733822141804" lon="11.899558293452559"><ele>1109.0</ele><time>2026-05-02T15:32:45Z</time></trkpt><trkpt lat="43.79724650741149" lon="11.89944263073847"><ele>1109.0</ele><time>2026-05-02T15:32:46Z</time></trkpt><trkpt lat="43.797119456831425" lon="11.899366003734027"><ele>1109.0</ele><time>2026-05-02T15:32:47Z</time></trkpt><trkpt lat="43.79697958241215" lon="11.899320464111398"><ele>1109.0</ele><time>2026-05-02T15:32:48Z</time></trkpt><trkpt lat="43.79688621071524" lon="11.899283715049055"><ele>1109.2</ele><time>2026-05-02T15:32:49Z</time></trkpt><trkpt lat="43.79683732617982" lon="11.899203554246268"><ele>1109.4</ele><time>2026-05-02T15:32:50Z</time></trkpt><trkpt lat="43.79681262870043" lon="11.899105744116769"><ele>1109.6</ele><time>2026-05-02T15:32:51Z</time></trkpt><trkpt lat="43.796835530567435" lon="11.898988115726914"><ele>1109.8</ele><time>2026-05-02T15:32:52Z</time></trkpt><trkpt lat="43.796918461650456" lon="11.898889230519796"><ele>1110.0</ele><time>2026-05-02T15:32:53Z</time></trkpt><trkpt lat="43.797010444030754" lon="11.898756037509179"><ele>1110.0</ele><time>2026-05-02T15:32:54Z</time></trkpt><trkpt lat="43.79707281348957" lon="11.898657153908717"><ele>1110.0</ele><time>2026-05-02T15:32:55Z</time></trkpt><trkpt lat="43.79712555987903" lon="11.898560343552294"><ele>1110.0</ele><time>2026-05-02T15:32:56Z</time></trkpt><trkpt lat="43.79714212478857" lon="11.89845240306315"><ele>1110.0</ele><time>2026-05-02T15:32:57Z</time></trkpt><trkpt lat="43.79709786734322" lon="11.898332625156005"><ele>1110.0</ele><time>2026-05-02T15:32:58Z</time></trkpt><trkpt lat="43.79701564127569" lon="11.898239824620083"><ele>1110.0</ele><time>2026-05-02T15:32:59Z</time></trkpt><trkpt lat="43.79689601271665" lon="11.898184574608406"><ele>1110.0</ele><time>2026-05-02T15:33:00Z</time></trkpt><trkpt lat="43.7967617092743" lon="11.89813155155846"><ele>1110.0</ele><time>2026-05-02T15:33:01Z</time></trkpt><trkpt lat="43.7966223866232" lon="11.898079501023616"><ele>1110.0</ele><time>2026-05-02T15:33:02Z</time></trkpt><trkpt lat="43.79648605627148" lon="11.898022878541703"><ele>1106.25</ele><time>2026-05-02T15:33:03Z</time></trkpt><trkpt lat="43.796394441846154" lon="11.897950621051788"><ele>1102.5</ele><time>2026-05-02T15:33:04Z</time></trkpt><trkpt lat="43.796263072683494" lon="11.89789728495737"><ele>1098.75</ele><time>2026-05-02T15:33:05Z</time></trkpt><trkpt lat="43.79612581035924" lon="11.897844774488647"><ele>1095.0</ele><time>2026-05-02T15:33:06Z</time></trkpt><trkpt lat="43.795978081198264" lon="11.897776907083058"><ele>1092.3333333333333</ele><time>2026-05-02T15:33:07Z</time></trkpt><trkpt lat="43.79584175781817" lon="11.897643050758345"><ele>1089.6666666666665</ele><time>2026-05-02T15:33:08Z</time></trkpt><trkpt lat="43.7956904725742" lon="11.897503349039063"><ele>1087.0</ele><time>2026-05-02T15:33:09Z</time></trkpt><trkpt lat="43.79552731779514" lon="11.897373276938273"><ele>1087.0</ele><time>2026-05-02T15:33:10Z</time></trkpt><trkpt lat="43.795379701755124" lon="11.897227219880001"><ele>1087.0</ele><time>2026-05-02T15:33:11Z</time></trkpt><trkpt lat="43.79523312930541" lon="11.89708953813414"><ele>1087.0</ele><time>2026-05-02T15:33:12Z</time></trkpt><trkpt lat="43.795087284225296" lon="11.896953438434595"><ele>1081.0</ele><time>2026-05-02T15:33:13Z</time></trkpt><trkpt lat="43.79494406243051" lon="11.896818840388748"><ele>1075.0</ele><time>2026-05-02T15:33:14Z</time></trkpt><trkpt lat="43.794818324974756" lon="11.896681965712895"><ele>1069.0</ele><time>2026-05-02T15:33:15Z</time></trkpt><trkpt lat="43.79469264298593" lon="11.896533315560093"><ele>1069.0</ele><time>2026-05-02T15:33:16Z</time></trkpt><trkpt lat="43.79456311008445" lon="11.89635687903603"><ele>1069.0</ele><time>2026-05-02T15:33:17Z</time></trkpt><trkpt lat="43.794436687596054" lon="11.89617008385939"><ele>1069.0</ele><time>2026-05-02T15:33:18Z</time></trkpt><trkpt lat="43.79432230380211" lon="11.895989181677304"><ele>1061.0</ele><time>2026-05-02T15:33:19Z</time></trkpt><trkpt lat="43.79421799585323" lon="11.895804923824183"><ele>1053.0</ele><time>2026-05-02T15:33:20Z</time></trkpt><trkpt lat="43.79412378855077" lon="11.895622734118131"><ele>1045.0</ele><time>2026-05-02T15:33:21Z</time></trkpt><trkpt lat="43.794043158258106" lon="11.89542792092858"><ele>1045.0</ele><time>2026-05-02T15:33:22Z</time></trkpt><trkpt lat="43.79399642813174" lon="11.895217538029325"><ele>1045.0</ele><time>2026-05-02T15:33:23Z</time></trkpt><trkpt lat="43.793947864839204" lon="11.895016453029504"><ele>1045.0</ele><time>2026-05-02T15:33:24Z</time></trkpt><trkpt lat="43.79390991410399" lon="11.894812502608325"><ele>1051.0</ele><time>2026-05-02T15:33:25Z</time></trkpt><trkpt lat="43.793890388706146" lon="11.89460146245404"><ele>1057.0</ele><time>2026-05-02T15:33:26Z</time></trkpt><trkpt lat="43.79387356873983" lon="11.894398482307256"><ele>1063.0</ele><time>2026-05-02T15:33:27Z</time></trkpt><trkpt lat="43.79385653546286" lon="11.894185561736752"><ele>1063.0</ele><time>2026-05-02T15:33:28Z</time></trkpt><trkpt lat="43.79382711986791" lon="11.893965786661784"><ele>1063.0</ele><time>2026-05-02T15:33:29Z</time></trkpt><trkpt lat="43.79377721740386" lon="11.893752517911603"><ele>1063.0</ele><time>2026-05-02T15:33:29.999Z</time></trkpt><trkpt lat="43.79374242551845" lon="11.893578982939083"><ele>1063.0</ele><time>2026-05-02T15:33:30.999Z</time></trkpt><trkpt lat="43.793718010190716" lon="11.893429518459035"><ele>1063.0</ele><time>2026-05-02T15:33:31.999Z</time></trkpt><trkpt lat="43.79370577021034" lon="11.893279729416452"><ele>1063.0</ele><time>2026-05-02T15:33:32.999Z</time></trkpt><trkpt lat="43.793732997732356" lon="11.893135015000306"><ele>1063.0</ele><time>2026-05-02T15:33:33.999Z</time></trkpt><trkpt lat="43.79381108610271" lon="11.893001138177189"><ele>1063.3333333333333</ele><time>2026-05-02T15:33:34.999Z</time></trkpt><trkpt lat="43.79391036168229" lon="11.892834080254444"><ele>1063.6666666666667</ele><time>2026-05-02T15:33:35.999Z</time></trkpt><trkpt lat="43.79401646851645" lon="11.89265460627956"><ele>1064.0</ele><time>2026-05-02T15:33:36.999Z</time></trkpt><trkpt lat="43.79410377825657" lon="11.892490388894554"><ele>1060.5</ele><time>2026-05-02T15:33:37.999Z</time></trkpt><trkpt lat="43.794175078503756" lon="11.892361261960865"><ele>1057.0</ele><time>2026-05-02T15:33:38.999Z</time></trkpt><trkpt lat="43.79425273128343" lon="11.892247715465427"><ele>1053.5</ele><time>2026-05-02T15:33:39.999Z</time></trkpt><trkpt lat="43.79433969037345" lon="11.892149114239718"><ele>1050.0</ele><time>2026-05-02T15:33:40.999Z</time></trkpt><trkpt lat="43.79444051181107" lon="11.892095514263078"><ele>1050.0</ele><time>2026-05-02T15:33:41.999Z</time></trkpt><trkpt lat="43.79454127680475" lon="11.892150812712087"><ele>1050.0</ele><time>2026-05-02T15:33:42.999Z</time></trkpt><trkpt lat="43.79462596158916" lon="11.892247558157532"><ele>1050.0</ele><time>2026-05-02T15:33:43.999Z</time></trkpt><trkpt lat="43.7947437417916" lon="11.892348776459002"><ele>1050.0</ele><time>2026-05-02T15:33:44.999Z</time></trkpt><trkpt lat="43.79488292052209" lon="11.892448335412114"><ele>1050.0</ele><time>2026-05-02T15:33:45.999Z</time></trkpt><trkpt lat="43.795001517170796" lon="11.892560306346105"><ele>1050.0</ele><time>2026-05-02T15:33:46.999Z</time></trkpt><trkpt lat="43.795111308482156" lon="11.892664215171346"><ele>1050.0</ele><time>2026-05-02T15:33:47.999Z</time></trkpt><trkpt lat="43.795211185616196" lon="11.892744184084115"><ele>1050.0</ele><time>2026-05-02T15:33:48.999Z</time></trkpt><trkpt lat="43.79529888493266" lon="11.892827397223941"><ele>1050.3333333333333</ele><time>2026-05-02T15:33:49.999Z</time></trkpt><trkpt lat="43.79537171534389" lon="11.892912222194244"><ele>1050.6666666666667</ele><time>2026-05-02T15:33:50.999Z</time></trkpt><trkpt lat="43.79542566190577" lon="11.892973690458911"><ele>1051.0</ele><time>2026-05-02T15:33:51.999Z</time></trkpt><trkpt lat="43.79549111797777" lon="11.892961588272444"><ele>1051.3333333333335</ele><time>2026-05-02T15:33:52.999Z</time></trkpt><trkpt lat="43.79555975313072" lon="11.892933614611314"><ele>1051.6666666666667</ele><time>2026-05-02T15:33:53.999Z</time></trkpt><trkpt lat="43.79559117423696" lon="11.892829941911128"><ele>1052.0</ele><time>2026-05-02T15:33:54.999Z</time></trkpt><trkpt lat="43.79557954772975" lon="11.892723914926535"><ele>1052.0</ele><time>2026-05-02T15:33:55.999Z</time></trkpt><trkpt lat="43.79549136833823" lon="11.892651647169094"><ele>1052.0</ele><time>2026-05-02T15:33:56.999Z</time></trkpt><trkpt lat="43.79540703743152" lon="11.892597469208797"><ele>1052.0</ele><time>2026-05-02T15:33:57.999Z</time></trkpt><trkpt lat="43.79531321520762" lon="11.892527498470985"><ele>1052.0</ele><time>2026-05-02T15:33:58.999Z</time></trkpt><trkpt lat="43.795228064576015" lon="11.892453723896802"><ele>1052.0</ele><time>2026-05-02T15:33:59.999Z</time></trkpt><trkpt lat="43.79511887537892" lon="11.89232651356076"><ele>1051.5</ele><time>2026-05-02T15:34:00.999Z</time></trkpt><trkpt lat="43.795016924579684" lon="11.892193416077902"><ele>1051.0</ele><time>2026-05-02T15:34:01.999Z</time></trkpt><trkpt lat="43.79492670648786" lon="11.892058096254793"><ele>1050.5</ele><time>2026-05-02T15:34:02.999Z</time></trkpt><trkpt lat="43.7948259549355" lon="11.891919916551212"><ele>1050.0</ele><time>2026-05-02T15:34:03.999Z</time></trkpt><trkpt lat="43.79472822930831" lon="11.891773929656956"><ele>1045.25</ele><time>2026-05-02T15:34:04.999Z</time></trkpt><trkpt lat="43.794627275112866" lon="11.891624775491271"><ele>1040.5</ele><time>2026-05-02T15:34:05.999Z</time></trkpt><trkpt lat="43.79453739262441" lon="11.891483425931803"><ele>1035.75</ele><time>2026-05-02T15:34:06.999Z</time></trkpt><trkpt lat="43.794440270578285" lon="11.89136776607813"><ele>1031.0</ele><time>2026-05-02T15:34:07.999Z</time></trkpt><trkpt lat="43.79433370616228" lon="11.891278918896754"><ele>1031.0</ele><time>2026-05-02T15:34:08.999Z</time></trkpt><trkpt lat="43.79421339671469" lon="11.891257834211213"><ele>1031.0</ele><time>2026-05-02T15:34:09.999Z</time></trkpt><trkpt lat="43.794081029969405" lon="11.891313463808313"><ele>1031.0</ele><time>2026-05-02T15:34:10.999Z</time></trkpt><trkpt lat="43.793961421902196" lon="11.891372648279466"><ele>1031.0</ele><time>2026-05-02T15:34:11.999Z</time></trkpt><trkpt lat="43.79385799924852" lon="11.891428275007534"><ele>1031.0</ele><time>2026-05-02T15:34:12.999Z</time></trkpt><trkpt lat="43.7937843887576" lon="11.891522785709336"><ele>1031.0</ele><time>2026-05-02T15:34:13.999Z</time></trkpt><trkpt lat="43.793747248610416" lon="11.89162619005285"><ele>1031.0</ele><time>2026-05-02T15:34:14.999Z</time></trkpt><trkpt lat="43.79369429244017" lon="11.891751054335991"><ele>1031.0</ele><time>2026-05-02T15:34:16.999Z</time></trkpt><trkpt lat="43.79361236345431" lon="11.89168510245064"><ele>1031.0</ele><time>2026-05-02T15:34:18.999Z</time></trkpt><trkpt lat="43.793658712903074" lon="11.891527965396788"><ele>1031.0</ele><time>2026-05-02T15:34:20.999Z</time></trkpt><trkpt lat="43.79371226270179" lon="11.891404851853057"><ele>1031.0</ele><time>2026-05-02T15:34:21.999Z</time></trkpt><trkpt lat="43.79377231511367" lon="11.891254447216374"><ele>1031.0</ele><time>2026-05-02T15:34:22.999Z</time></trkpt><trkpt lat="43.79386092195142" lon="11.891104022294892"><ele>1031.0</ele><time>2026-05-02T15:34:23.999Z</time></trkpt><trkpt lat="43.79397669367658" lon="11.890995922172964"><ele>1028.0</ele><time>2026-05-02T15:34:24.999Z</time></trkpt><trkpt lat="43.79407751626231" lon="11.890893776091968"><ele>1025.0</ele><time>2026-05-02T15:34:25.999Z</time></trkpt><trkpt lat="43.79415459833379" lon="11.890793809517803"><ele>1021.9999999999999</ele><time>2026-05-02T15:34:26.999Z</time></trkpt><trkpt lat="43.79423116249244" lon="11.890729047823655"><ele>1019.0</ele><time>2026-05-02T15:34:27.999Z</time></trkpt><trkpt lat="43.79432365831458" lon="11.890704059896436"><ele>1016.0</ele><time>2026-05-02T15:34:28.999Z</time></trkpt><trkpt lat="43.794407169541785" lon="11.890743082498524"><ele>1017.25</ele><time>2026-05-02T15:34:29.999Z</time></trkpt><trkpt lat="43.79446245112446" lon="11.890856030752104"><ele>1018.5</ele><time>2026-05-02T15:34:30.999Z</time></trkpt><trkpt lat="43.79454118541494" lon="11.890995823914759"><ele>1019.75</ele><time>2026-05-02T15:34:31.999Z</time></trkpt><trkpt lat="43.79463869852256" lon="11.891138382246446"><ele>1021.0</ele><time>2026-05-02T15:34:32.999Z</time></trkpt><trkpt lat="43.79476829323129" lon="11.89128091854429"><ele>1021.0</ele><time>2026-05-02T15:34:33.999Z</time></trkpt><trkpt lat="43.79488189935473" lon="11.891407607533559"><ele>1021.0</ele><time>2026-05-02T15:34:34.999Z</time></trkpt><trkpt lat="43.79500780717285" lon="11.891536569120852"><ele>1021.0</ele><time>2026-05-02T15:34:36Z</time></trkpt><trkpt lat="43.79511481538287" lon="11.891660823546797"><ele>1021.0</ele><time>2026-05-02T15:34:37Z</time></trkpt><trkpt lat="43.79521347944636" lon="11.891797238734236"><ele>1019.0</ele><time>2026-05-02T15:34:38Z</time></trkpt><trkpt lat="43.79532160357204" lon="11.891911948516942"><ele>1017.0</ele><time>2026-05-02T15:34:39Z</time></trkpt><trkpt lat="43.79545327300955" lon="11.891995528015663"><ele>1015.0</ele><time>2026-05-02T15:34:40Z</time></trkpt><trkpt lat="43.79557448991224" lon="11.892049037626602"><ele>1013.0</ele><time>2026-05-02T15:34:41Z</time></trkpt><trkpt lat="43.79567700249395" lon="11.892114802785272"><ele>1013.0</ele><time>2026-05-02T15:34:42Z</time></trkpt><trkpt lat="43.7957571627569" lon="11.892249249400379"><ele>1013.0</ele><time>2026-05-02T15:34:43Z</time></trkpt><trkpt lat="43.795848522090466" lon="11.892407484694033"><ele>1013.0</ele><time>2026-05-02T15:34:44Z</time></trkpt><trkpt lat="43.79596512003207" lon="11.892551049155541"><ele>1013.0</ele><time>2026-05-02T15:34:45Z</time></trkpt><trkpt lat="43.796099324927624" lon="11.892704660863272"><ele>1012.6666666666667</ele><time>2026-05-02T15:34:46Z</time></trkpt><trkpt lat="43.796221835204456" lon="11.89284518296015"><ele>1012.3333333333333</ele><time>2026-05-02T15:34:47Z</time></trkpt><trkpt lat="43.79635160127751" lon="11.892987126618163"><ele>1012.0</ele><time>2026-05-02T15:34:48Z</time></trkpt><trkpt lat="43.79647696833141" lon="11.893114068338884"><ele>1012.0</ele><time>2026-05-02T15:34:49Z</time></trkpt><trkpt lat="43.796602538821325" lon="11.893226399668542"><ele>1012.0</ele><time>2026-05-02T15:34:50Z</time></trkpt><trkpt lat="43.796730877800194" lon="11.893324768183524"><ele>1012.0</ele><time>2026-05-02T15:34:51Z</time></trkpt><trkpt lat="43.79685242290478" lon="11.89340993718517"><ele>1012.0</ele><time>2026-05-02T15:34:52Z</time></trkpt><trkpt lat="43.79698607006968" lon="11.893487155280939"><ele>1009.0</ele><time>2026-05-02T15:34:53Z</time></trkpt><trkpt lat="43.79711056223871" lon="11.893539520768153"><ele>1006.0</ele><time>2026-05-02T15:34:54Z</time></trkpt><trkpt lat="43.7972260771809" lon="11.893564059164179"><ele>1003.0</ele><time>2026-05-02T15:34:55Z</time></trkpt><trkpt lat="43.79734961242637" lon="11.893492486532933"><ele>1000.0</ele><time>2026-05-02T15:34:56Z</time></trkpt><trkpt lat="43.797452059501346" lon="11.893360584418769"><ele>998.1666666666666</ele><time>2026-05-02T15:34:57Z</time></trkpt><trkpt lat="43.797537336222895" lon="11.893257879084715"><ele>996.3333333333333</ele><time>2026-05-02T15:34:58Z</time></trkpt><trkpt lat="43.797606668549435" lon="11.89317250637603"><ele>994.5</ele><time>2026-05-02T15:34:59Z</time></trkpt><trkpt lat="43.79763586390893" lon="11.89306365075978"><ele>992.6666666666667</ele><time>2026-05-02T15:35:00Z</time></trkpt><trkpt lat="43.797651293307226" lon="11.892970517752268"><ele>990.8333333333334</ele><time>2026-05-02T15:35:01Z</time></trkpt><trkpt lat="43.79762382033473" lon="11.892863258154089"><ele>989.0</ele><time>2026-05-02T15:35:02Z</time></trkpt><trkpt lat="43.797546256099054" lon="11.892780434147783"><ele>989.0</ele><time>2026-05-02T15:35:03Z</time></trkpt><trkpt lat="43.79743319405929" lon="11.892716829166098"><ele>989.0</ele><time>2026-05-02T15:35:04Z</time></trkpt><trkpt lat="43.7973132967105" lon="11.892698195346929"><ele>989.0</ele><time>2026-05-02T15:35:05Z</time></trkpt><trkpt lat="43.797200158260544" lon="11.892692705141803"><ele>989.0</ele><time>2026-05-02T15:35:06Z</time></trkpt><trkpt lat="43.79709165987173" lon="11.892657297496298"><ele>989.0</ele><time>2026-05-02T15:35:07Z</time></trkpt><trkpt lat="43.79699269535923" lon="11.892590741978172"><ele>989.0000000000001</ele><time>2026-05-02T15:35:08Z</time></trkpt><trkpt lat="43.79689771395862" lon="11.892508637877457"><ele>989.0000000000001</ele><time>2026-05-02T15:35:09Z</time></trkpt><trkpt lat="43.79680687375347" lon="11.892417123684837"><ele>989.0</ele><time>2026-05-02T15:35:10Z</time></trkpt><trkpt lat="43.796738883895266" lon="11.892296353282752"><ele>989.0</ele><time>2026-05-02T15:35:11Z</time></trkpt><trkpt lat="43.796685745419836" lon="11.892146107383798"><ele>988.6666666666667</ele><time>2026-05-02T15:35:12Z</time></trkpt><trkpt lat="43.79665964935229" lon="11.891951431218951"><ele>988.3333333333333</ele><time>2026-05-02T15:35:13Z</time></trkpt><trkpt lat="43.796652871519576" lon="11.891734980793595"><ele>988.0</ele><time>2026-05-02T15:35:14Z</time></trkpt><trkpt lat="43.79663758144201" lon="11.891520965160131"><ele>986.5</ele><time>2026-05-02T15:35:15Z</time></trkpt><trkpt lat="43.79662148498458" lon="11.89131575128927"><ele>985.0</ele><time>2026-05-02T15:35:16Z</time></trkpt><trkpt lat="43.79661388993614" lon="11.891115786689173"><ele>983.5</ele><time>2026-05-02T15:35:17Z</time></trkpt><trkpt lat="43.79660980611271" lon="11.890915690043672"><ele>982.0</ele><time>2026-05-02T15:35:18Z</time></trkpt><trkpt lat="43.7965989315451" lon="11.890718816674987"><ele>981.25</ele><time>2026-05-02T15:35:19Z</time></trkpt><trkpt lat="43.796600128877344" lon="11.89052584109991"><ele>980.5</ele><time>2026-05-02T15:35:20Z</time></trkpt><trkpt lat="43.79660554412125" lon="11.890330271291145"><ele>979.75</ele><time>2026-05-02T15:35:21Z</time></trkpt><trkpt lat="43.79661345982567" lon="11.890143854761801"><ele>979.0</ele><time>2026-05-02T15:35:22Z</time></trkpt><trkpt lat="43.79661882764983" lon="11.88994548070971"><ele>977.0</ele><time>2026-05-02T15:35:23Z</time></trkpt><trkpt lat="43.796615842752644" lon="11.889749885753666"><ele>975.0</ele><time>2026-05-02T15:35:24Z</time></trkpt><trkpt lat="43.79662683601812" lon="11.889545753779458"><ele>973.0</ele><time>2026-05-02T15:35:25Z</time></trkpt><trkpt lat="43.796635383418106" lon="11.88934250918913"><ele>971.0</ele><time>2026-05-02T15:35:26Z</time></trkpt><trkpt lat="43.79664566309594" lon="11.889134923275456"><ele>971.0</ele><time>2026-05-02T15:35:27Z</time></trkpt><trkpt lat="43.79664870023989" lon="11.888933578246055"><ele>971.0</ele><time>2026-05-02T15:35:28Z</time></trkpt><trkpt lat="43.79665793210114" lon="11.888747548628237"><ele>971.0</ele><time>2026-05-02T15:35:29Z</time></trkpt><trkpt lat="43.79666017949979" lon="11.888562350765657"><ele>971.0</ele><time>2026-05-02T15:35:30Z</time></trkpt><trkpt lat="43.796650850505564" lon="11.888386572228308"><ele>971.0</ele><time>2026-05-02T15:35:31Z</time></trkpt><trkpt lat="43.79662176185858" lon="11.88823100675434"><ele>970.9999999999999</ele><time>2026-05-02T15:35:32Z</time></trkpt><trkpt lat="43.79656312055081" lon="11.888097391944866"><ele>970.9999999999999</ele><time>2026-05-02T15:35:33Z</time></trkpt><trkpt lat="43.79651249458696" lon="11.888010186135721"><ele>971.0</ele><time>2026-05-02T15:35:34Z</time></trkpt><trkpt lat="43.79646507480825" lon="11.887923017683772"><ele>971.0</ele><time>2026-05-02T15:35:35Z</time></trkpt><trkpt lat="43.796391964178795" lon="11.887896517316618"><ele>971.0</ele><time>2026-05-02T15:35:36Z</time></trkpt><trkpt lat="43.79630455656443" lon="11.887926820377682"><ele>970.9999999999999</ele><time>2026-05-02T15:35:37Z</time></trkpt><trkpt lat="43.79625090658026" lon="11.888042876676247"><ele>970.9999999999999</ele><time>2026-05-02T15:35:38Z</time></trkpt><trkpt lat="43.79625395202995" lon="11.888185456776409"><ele>971.0</ele><time>2026-05-02T15:35:39Z</time></trkpt><trkpt lat="43.79628926919464" lon="11.88831500173788"><ele>971.0</ele><time>2026-05-02T15:35:40Z</time></trkpt><trkpt lat="43.79631242826505" lon="11.888469310587867"><ele>971.0</ele><time>2026-05-02T15:35:41Z</time></trkpt><trkpt lat="43.79632175202517" lon="11.888639108836824"><ele>971.0</ele><time>2026-05-02T15:35:42Z</time></trkpt><trkpt lat="43.796304130224335" lon="11.88879386731897"><ele>971.0</ele><time>2026-05-02T15:35:43Z</time></trkpt><trkpt lat="43.7962496869353" lon="11.888957365370759"><ele>971.0</ele><time>2026-05-02T15:35:44Z</time></trkpt><trkpt lat="43.796203467051654" lon="11.889105677817987"><ele>971.0</ele><time>2026-05-02T15:35:45Z</time></trkpt><trkpt lat="43.79615459073597" lon="11.889266265081009"><ele>971.0</ele><time>2026-05-02T15:35:46Z</time></trkpt><trkpt lat="43.79610059683686" lon="11.889447946224308"><ele>971.0</ele><time>2026-05-02T15:35:47Z</time></trkpt><trkpt lat="43.796049995584625" lon="11.889618945113385"><ele>971.0</ele><time>2026-05-02T15:35:48Z</time></trkpt><trkpt lat="43.79600129949918" lon="11.88978240461933"><ele>968.0</ele><time>2026-05-02T15:35:49Z</time></trkpt><trkpt lat="43.79595452689161" lon="11.88993574989803"><ele>964.9999999999999</ele><time>2026-05-02T15:35:50Z</time></trkpt><trkpt lat="43.79591127124387" lon="11.890077564630037"><ele>961.9999999999999</ele><time>2026-05-02T15:35:51Z</time></trkpt><trkpt lat="43.79587751365155" lon="11.890192539957283"><ele>959.0</ele><time>2026-05-02T15:35:52Z</time></trkpt><trkpt lat="43.795849101351486" lon="11.890290915736282"><ele>956.0</ele><time>2026-05-02T15:35:52.999Z</time></trkpt><trkpt lat="43.79577188076056" lon="11.890377970149727"><ele>956.0</ele><time>2026-05-02T15:35:54.999Z</time></trkpt><trkpt lat="43.795704293228766" lon="11.890329958353128"><ele>956.0</ele><time>2026-05-02T15:35:55.999Z</time></trkpt><trkpt lat="43.79565622674365" lon="11.890185834104527"><ele>956.0</ele><time>2026-05-02T15:35:57.999Z</time></trkpt><trkpt lat="43.79566324320222" lon="11.890018836429322"><ele>956.0</ele><time>2026-05-02T15:35:58.999Z</time></trkpt><trkpt lat="43.79565879924773" lon="11.889821958305387"><ele>953.5</ele><time>2026-05-02T15:35:59.999Z</time></trkpt><trkpt lat="43.795637489969494" lon="11.88963209974813"><ele>951.0</ele><time>2026-05-02T15:36:00.999Z</time></trkpt><trkpt lat="43.79563854915057" lon="11.88943537283398"><ele>948.5</ele><time>2026-05-02T15:36:01.999Z</time></trkpt><trkpt lat="43.79563285949419" lon="11.889258172549827"><ele>946.0</ele><time>2026-05-02T15:36:02.999Z</time></trkpt><trkpt lat="43.79562834775868" lon="11.889086788980727"><ele>946.0</ele><time>2026-05-02T15:36:03.999Z</time></trkpt><trkpt lat="43.79562848828634" lon="11.88892022990162"><ele>946.0</ele><time>2026-05-02T15:36:04.999Z</time></trkpt><trkpt lat="43.79562350720091" lon="11.888755747154846"><ele>946.0</ele><time>2026-05-02T15:36:05.999Z</time></trkpt><trkpt lat="43.79561678801982" lon="11.88858688719281"><ele>946.0</ele><time>2026-05-02T15:36:06.999Z</time></trkpt><trkpt lat="43.795600967431795" lon="11.888408861319617"><ele>946.5</ele><time>2026-05-02T15:36:07.999Z</time></trkpt><trkpt lat="43.79557442779112" lon="11.888219717058119"><ele>947.0</ele><time>2026-05-02T15:36:08.999Z</time></trkpt><trkpt lat="43.79552549341747" lon="11.88802315096557"><ele>947.5</ele><time>2026-05-02T15:36:09.999Z</time></trkpt><trkpt lat="43.795442879166764" lon="11.887851056536503"><ele>948.0</ele><time>2026-05-02T15:36:10.999Z</time></trkpt><trkpt lat="43.79535688876091" lon="11.887707413786996"><ele>950.25</ele><time>2026-05-02T15:36:11.999Z</time></trkpt><trkpt lat="43.79527804130656" lon="11.887555581149034"><ele>952.5</ele><time>2026-05-02T15:36:12.999Z</time></trkpt><trkpt lat="43.7952609884399" lon="11.88737840654056"><ele>954.75</ele><time>2026-05-02T15:36:13.999Z</time></trkpt><trkpt lat="43.79523032367983" lon="11.887196312339427"><ele>957.0</ele><time>2026-05-02T15:36:14.999Z</time></trkpt><trkpt lat="43.79520972950561" lon="11.887000865759227"><ele>943.0</ele><time>2026-05-02T15:36:15.999Z</time></trkpt><trkpt lat="43.79517054767929" lon="11.886779790794051"><ele>929.0</ele><time>2026-05-02T15:36:16.999Z</time></trkpt><trkpt lat="43.79511963372949" lon="11.886567412091253"><ele>915.0</ele><time>2026-05-02T15:36:17.999Z</time></trkpt><trkpt lat="43.79506575637899" lon="11.886367853692443"><ele>915.0</ele><time>2026-05-02T15:36:18.999Z</time></trkpt><trkpt lat="43.795023646496354" lon="11.886183875138853"><ele>915.0</ele><time>2026-05-02T15:36:19.999Z</time></trkpt><trkpt lat="43.79497559440411" lon="11.885990583227484"><ele>915.0</ele><time>2026-05-02T15:36:20.999Z</time></trkpt><trkpt lat="43.79491017606483" lon="11.885810242534873"><ele>915.0</ele><time>2026-05-02T15:36:21.999Z</time></trkpt><trkpt lat="43.79481384295079" lon="11.885655362380774"><ele>916.75</ele><time>2026-05-02T15:36:22.999Z</time></trkpt><trkpt lat="43.79471160054192" lon="11.885513187889641"><ele>918.5</ele><time>2026-05-02T15:36:23.999Z</time></trkpt><trkpt lat="43.79462316009937" lon="11.885381109773348"><ele>920.25</ele><time>2026-05-02T15:36:24.999Z</time></trkpt><trkpt lat="43.79454477878013" lon="11.88526219857556"><ele>922.0</ele><time>2026-05-02T15:36:25.999Z</time></trkpt><trkpt lat="43.79446428944527" lon="11.885170275916593"><ele>922.0</ele><time>2026-05-02T15:36:26.999Z</time></trkpt><trkpt lat="43.79438545616352" lon="11.885105176472303"><ele>922.0</ele><time>2026-05-02T15:36:27.999Z</time></trkpt><trkpt lat="43.794315132180586" lon="11.885016047210586"><ele>922.0</ele><time>2026-05-02T15:36:28.999Z</time></trkpt><trkpt lat="43.79426649998246" lon="11.884914003030062"><ele>922.0</ele><time>2026-05-02T15:36:29.999Z</time></trkpt><trkpt lat="43.79426254929892" lon="11.884792378204086"><ele>922.0</ele><time>2026-05-02T15:36:30.999Z</time></trkpt><trkpt lat="43.794304603039876" lon="11.884666936610564"><ele>923.5</ele><time>2026-05-02T15:36:31.999Z</time></trkpt><trkpt lat="43.79437545329665" lon="11.884546812072761"><ele>925.0</ele><time>2026-05-02T15:36:32.999Z</time></trkpt><trkpt lat="43.794464853126655" lon="11.884409404451867"><ele>926.5</ele><time>2026-05-02T15:36:33.999Z</time></trkpt><trkpt lat="43.79456211111662" lon="11.884271721331702"><ele>928.0</ele><time>2026-05-02T15:36:34.999Z</time></trkpt><trkpt lat="43.794643349156026" lon="11.88414574737578"><ele>922.75</ele><time>2026-05-02T15:36:35.999Z</time></trkpt><trkpt lat="43.79473337642894" lon="11.884028677710326"><ele>917.5</ele><time>2026-05-02T15:36:36.999Z</time></trkpt><trkpt lat="43.79484010873333" lon="11.883948662983176"><ele>912.25</ele><time>2026-05-02T15:36:37.999Z</time></trkpt><trkpt lat="43.794956384031764" lon="11.883893202093432"><ele>907.0</ele><time>2026-05-02T15:36:38.999Z</time></trkpt><trkpt lat="43.79507415527345" lon="11.88384717997347"><ele>909.5</ele><time>2026-05-02T15:36:39.999Z</time></trkpt><trkpt lat="43.79519283425161" lon="11.883823396571115"><ele>912.0</ele><time>2026-05-02T15:36:41Z</time></trkpt><trkpt lat="43.79531187247658" lon="11.883868788672403"><ele>914.5</ele><time>2026-05-02T15:36:42Z</time></trkpt><trkpt lat="43.7954293828765" lon="11.883897110968002"><ele>917.0</ele><time>2026-05-02T15:36:43Z</time></trkpt><trkpt lat="43.79551948769678" lon="11.883944042649633"><ele>917.0000000000001</ele><time>2026-05-02T15:36:44Z</time></trkpt><trkpt lat="43.79559910197663" lon="11.883945691328682"><ele>917.0</ele><time>2026-05-02T15:36:45Z</time></trkpt><trkpt lat="43.795669604405866" lon="11.88389912642688"><ele>917.0</ele><time>2026-05-02T15:36:46Z</time></trkpt><trkpt lat="43.795714740559504" lon="11.88380576045862"><ele>917.0</ele><time>2026-05-02T15:36:47Z</time></trkpt><trkpt lat="43.79572737991875" lon="11.883688735988882"><ele>917.0000000000001</ele><time>2026-05-02T15:36:48Z</time></trkpt><trkpt lat="43.79570663799843" lon="11.883561262606579"><ele>917.0</ele><time>2026-05-02T15:36:49Z</time></trkpt><trkpt lat="43.79565343018613" lon="11.88344094889969"><ele>915.0</ele><time>2026-05-02T15:36:50Z</time></trkpt><trkpt lat="43.79557155721206" lon="11.883322611416203"><ele>913.0</ele><time>2026-05-02T15:36:51Z</time></trkpt><trkpt lat="43.7954909432751" lon="11.883179198448788"><ele>911.0</ele><time>2026-05-02T15:36:52Z</time></trkpt><trkpt lat="43.795407823936976" lon="11.883014386490153"><ele>909.0</ele><time>2026-05-02T15:36:53Z</time></trkpt><trkpt lat="43.79534312137074" lon="11.88283880002515"><ele>909.0</ele><time>2026-05-02T15:36:54Z</time></trkpt><trkpt lat="43.79525760064187" lon="11.882675429038704"><ele>909.0</ele><time>2026-05-02T15:36:55Z</time></trkpt><trkpt lat="43.79516718241595" lon="11.882504554918796"><ele>909.0</ele><time>2026-05-02T15:36:56Z</time></trkpt><trkpt lat="43.79508027712163" lon="11.882328805096641"><ele>903.0</ele><time>2026-05-02T15:36:57Z</time></trkpt><trkpt lat="43.79499875564974" lon="11.882156354411768"><ele>897.0</ele><time>2026-05-02T15:36:58Z</time></trkpt><trkpt lat="43.7949065910216" lon="11.881998354998254"><ele>891.0</ele><time>2026-05-02T15:36:59Z</time></trkpt><trkpt lat="43.79483194858571" lon="11.881832106751322"><ele>885.0</ele><time>2026-05-02T15:37:00Z</time></trkpt><trkpt lat="43.79474236902701" lon="11.88171900272906"><ele>885.0</ele><time>2026-05-02T15:37:01Z</time></trkpt><trkpt lat="43.79461833783259" lon="11.881679216389054"><ele>885.0</ele><time>2026-05-02T15:37:02Z</time></trkpt><trkpt lat="43.794489204155745" lon="11.881701775197286"><ele>885.0</ele><time>2026-05-02T15:37:03Z</time></trkpt><trkpt lat="43.7943719693779" lon="11.881741092604056"><ele>885.0</ele><time>2026-05-02T15:37:04Z</time></trkpt><trkpt lat="43.794251776050515" lon="11.881759532156579"><ele>879.75</ele><time>2026-05-02T15:37:05Z</time></trkpt><trkpt lat="43.79413505628474" lon="11.881768073807496"><ele>874.5</ele><time>2026-05-02T15:37:06Z</time></trkpt><trkpt lat="43.794028357754115" lon="11.881774784719562"><ele>869.25</ele><time>2026-05-02T15:37:07Z</time></trkpt><trkpt lat="43.79391655704078" lon="11.88176055165225"><ele>864.0</ele><time>2026-05-02T15:37:08Z</time></trkpt><trkpt lat="43.79381739331746" lon="11.881679145848846"><ele>864.0</ele><time>2026-05-02T15:37:09Z</time></trkpt><trkpt lat="43.793739766327406" lon="11.881558999157743"><ele>864.0000000000001</ele><time>2026-05-02T15:37:10Z</time></trkpt><trkpt lat="43.79368518602185" lon="11.881431251758695"><ele>864.0000000000001</ele><time>2026-05-02T15:37:11Z</time></trkpt><trkpt lat="43.793618136874066" lon="11.881325573305542"><ele>864.0</ele><time>2026-05-02T15:37:12Z</time></trkpt><trkpt lat="43.79356673000129" lon="11.881208665544268"><ele>864.0</ele><time>2026-05-02T15:37:13Z</time></trkpt><trkpt lat="43.793531089901286" lon="11.881080376067647"><ele>864.0</ele><time>2026-05-02T15:37:14Z</time></trkpt><trkpt lat="43.7935127068422" lon="11.880942331126594"><ele>864.0000000000001</ele><time>2026-05-02T15:37:15Z</time></trkpt><trkpt lat="43.79351943933825" lon="11.880803249421179"><ele>864.0000000000001</ele><time>2026-05-02T15:37:16Z</time></trkpt><trkpt lat="43.79353278507588" lon="11.880664951617229"><ele>864.0</ele><time>2026-05-02T15:37:17Z</time></trkpt><trkpt lat="43.79354105305192" lon="11.88053004189934"><ele>864.0</ele><time>2026-05-02T15:37:18Z</time></trkpt><trkpt lat="43.79354705898451" lon="11.88037856405447"><ele>864.0</ele><time>2026-05-02T15:37:19Z</time></trkpt><trkpt lat="43.79355126986941" lon="11.88022387441575"><ele>864.0000000000001</ele><time>2026-05-02T15:37:20Z</time></trkpt><trkpt lat="43.79355894385378" lon="11.880069066237963"><ele>864.0000000000001</ele><time>2026-05-02T15:37:21Z</time></trkpt><trkpt lat="43.79356875261642" lon="11.879921656413304"><ele>864.0</ele><time>2026-05-02T15:37:22Z</time></trkpt><trkpt lat="43.79358349169563" lon="11.87977988117581"><ele>864.0</ele><time>2026-05-02T15:37:23Z</time></trkpt><trkpt lat="43.793601724835334" lon="11.879657521237103"><ele>864.0</ele><time>2026-05-02T15:37:24Z</time></trkpt><trkpt lat="43.79362279745676" lon="11.879536193773404"><ele>864.0000000000001</ele><time>2026-05-02T15:37:25Z</time></trkpt><trkpt lat="43.79364118409083" lon="11.879413563330857"><ele>864.0000000000001</ele><time>2026-05-02T15:37:26Z</time></trkpt><trkpt lat="43.79366282490907" lon="11.879291882901725"><ele>864.0</ele><time>2026-05-02T15:37:27Z</time></trkpt><trkpt lat="43.79369678537212" lon="11.879166156488413"><ele>864.0</ele><time>2026-05-02T15:37:28Z</time></trkpt><trkpt lat="43.79374586276369" lon="11.879038986315845"><ele>861.75</ele><time>2026-05-02T15:37:29Z</time></trkpt><trkpt lat="43.79380849275574" lon="11.87892046789097"><ele>859.5</ele><time>2026-05-02T15:37:30Z</time></trkpt><trkpt lat="43.79387935872446" lon="11.87879814361564"><ele>857.25</ele><time>2026-05-02T15:37:31Z</time></trkpt><trkpt lat="43.79396494734158" lon="11.878674930793357"><ele>855.0</ele><time>2026-05-02T15:37:32Z</time></trkpt><trkpt lat="43.79405076668401" lon="11.878564558953219"><ele>855.0</ele><time>2026-05-02T15:37:33Z</time></trkpt><trkpt lat="43.79414002554169" lon="11.878487540851959"><ele>855.0</ele><time>2026-05-02T15:37:34Z</time></trkpt><trkpt lat="43.79420198825508" lon="11.878396952714567"><ele>855.0</ele><time>2026-05-02T15:37:35Z</time></trkpt><trkpt lat="43.79427417330707" lon="11.87833374574387"><ele>855.0</ele><time>2026-05-02T15:37:36Z</time></trkpt><trkpt lat="43.79434722430085" lon="11.878270875754172"><ele>855.0</ele><time>2026-05-02T15:37:37Z</time></trkpt><trkpt lat="43.794415633103796" lon="11.87820679909894"><ele>855.0</ele><time>2026-05-02T15:37:38Z</time></trkpt><trkpt lat="43.79447095646906" lon="11.878133694322527"><ele>855.0</ele><time>2026-05-02T15:37:40Z</time></trkpt><trkpt lat="43.794561369675" lon="11.878038041331472"><ele>855.0</ele><time>2026-05-02T15:37:41Z</time></trkpt><trkpt lat="43.794652463354254" lon="11.877895399976584"><ele>855.0</ele><time>2026-05-02T15:37:43Z</time></trkpt><trkpt lat="43.79467266473542" lon="11.877764039166285"><ele>855.0</ele><time>2026-05-02T15:37:44Z</time></trkpt><trkpt lat="43.794684387334016" lon="11.877632332007881"><ele>855.0</ele><time>2026-05-02T15:37:45Z</time></trkpt><trkpt lat="43.79468662587327" lon="11.877485692315812"><ele>851.8</ele><time>2026-05-02T15:37:46Z</time></trkpt><trkpt lat="43.79468493040421" lon="11.87734170346818"><ele>848.6</ele><time>2026-05-02T15:37:47Z</time></trkpt><trkpt lat="43.7946805707367" lon="11.8771946578673"><ele>845.4000000000001</ele><time>2026-05-02T15:37:48Z</time></trkpt><trkpt lat="43.79466804907196" lon="11.877050468149756"><ele>842.2</ele><time>2026-05-02T15:37:49Z</time></trkpt><trkpt lat="43.79462333028879" lon="11.876909234411238"><ele>839.0</ele><time>2026-05-02T15:37:50Z</time></trkpt><trkpt lat="43.79455739451485" lon="11.876773107044778"><ele>837.6666666666667</ele><time>2026-05-02T15:37:51Z</time></trkpt><trkpt lat="43.794449362177296" lon="11.876668706257167"><ele>836.3333333333333</ele><time>2026-05-02T15:37:52Z</time></trkpt><trkpt lat="43.79430137992964" lon="11.876570193546298"><ele>835.0</ele><time>2026-05-02T15:37:53Z</time></trkpt><trkpt lat="43.79413468509919" lon="11.876484325164062"><ele>838.0</ele><time>2026-05-02T15:37:54Z</time></trkpt><trkpt lat="43.79398122057626" lon="11.876394767525841"><ele>841.0</ele><time>2026-05-02T15:37:55Z</time></trkpt><trkpt lat="43.79383788469911" lon="11.876305986983425"><ele>844.0</ele><time>2026-05-02T15:37:56Z</time></trkpt><trkpt lat="43.79369802317586" lon="11.876212510635328"><ele>844.0</ele><time>2026-05-02T15:37:57Z</time></trkpt><trkpt lat="43.7935441731212" lon="11.876111004916558"><ele>844.0</ele><time>2026-05-02T15:37:58Z</time></trkpt><trkpt lat="43.79339434430701" lon="11.876007270129115"><ele>844.0</ele><time>2026-05-02T15:37:59Z</time></trkpt><trkpt lat="43.79325484652263" lon="11.875932831406217"><ele>844.5</ele><time>2026-05-02T15:38:00Z</time></trkpt><trkpt lat="43.793115659565345" lon="11.87589606524285"><ele>845.0</ele><time>2026-05-02T15:38:00.999Z</time></trkpt><trkpt lat="43.792973723436326" lon="11.87591075063754"><ele>845.5</ele><time>2026-05-02T15:38:01.999Z</time></trkpt><trkpt lat="43.79284300124871" lon="11.87599497303477"><ele>846.0</ele><time>2026-05-02T15:38:02.999Z</time></trkpt><trkpt lat="43.7927446302511" lon="11.876149519769168"><ele>848.0</ele><time>2026-05-02T15:38:03.999Z</time></trkpt><trkpt lat="43.792660871237004" lon="11.876355172515726"><ele>850.0</ele><time>2026-05-02T15:38:04.999Z</time></trkpt><trkpt lat="43.792569319857826" lon="11.876520711549462"><ele>852.0</ele><time>2026-05-02T15:38:05.999Z</time></trkpt><trkpt lat="43.79245924648649" lon="11.876661183989713"><ele>852.0</ele><time>2026-05-02T15:38:06.999Z</time></trkpt><trkpt lat="43.792338256061456" lon="11.876718986540721"><ele>852.0</ele><time>2026-05-02T15:38:07.999Z</time></trkpt><trkpt lat="43.79217610901058" lon="11.876809898916683"><ele>852.0</ele><time>2026-05-02T15:38:08.999Z</time></trkpt><trkpt lat="43.79200508840935" lon="11.87693231579305"><ele>848.6666666666667</ele><time>2026-05-02T15:38:09.999Z</time></trkpt><trkpt lat="43.791852674694404" lon="11.87707240259287"><ele>845.3333333333334</ele><time>2026-05-02T15:38:10.999Z</time></trkpt><trkpt lat="43.791728466369406" lon="11.877209866668215"><ele>842.0</ele><time>2026-05-02T15:38:11.999Z</time></trkpt><trkpt lat="43.7916290872328" lon="11.87735350772435"><ele>842.0</ele><time>2026-05-02T15:38:12.999Z</time></trkpt><trkpt lat="43.79155355278659" lon="11.877500479861203"><ele>842.0</ele><time>2026-05-02T15:38:13.999Z</time></trkpt><trkpt lat="43.79147099099666" lon="11.877606461109426"><ele>842.0</ele><time>2026-05-02T15:38:14.999Z</time></trkpt><trkpt lat="43.79136823348658" lon="11.877611298169043"><ele>842.0</ele><time>2026-05-02T15:38:15.999Z</time></trkpt><trkpt lat="43.7912541642025" lon="11.877623156912653"><ele>839.75</ele><time>2026-05-02T15:38:16.999Z</time></trkpt><trkpt lat="43.79109566947114" lon="11.877642499447363"><ele>837.5</ele><time>2026-05-02T15:38:17.999Z</time></trkpt><trkpt lat="43.79096089336863" lon="11.877657774726611"><ele>835.25</ele><time>2026-05-02T15:38:18.999Z</time></trkpt><trkpt lat="43.790846822229014" lon="11.877636683901192"><ele>833.0</ele><time>2026-05-02T15:38:19.999Z</time></trkpt><trkpt lat="43.7907267295781" lon="11.877535772065954"><ele>833.0</ele><time>2026-05-02T15:38:20.999Z</time></trkpt><trkpt lat="43.79057462213542" lon="11.877409255837057"><ele>833.0</ele><time>2026-05-02T15:38:21.999Z</time></trkpt><trkpt lat="43.79042160042578" lon="11.877345427749672"><ele>833.0</ele><time>2026-05-02T15:38:22.999Z</time></trkpt><trkpt lat="43.79027453287769" lon="11.877285167998528"><ele>827.25</ele><time>2026-05-02T15:38:23.999Z</time></trkpt><trkpt lat="43.79014532648591" lon="11.87720769492852"><ele>821.5</ele><time>2026-05-02T15:38:24.999Z</time></trkpt><trkpt lat="43.790023032744905" lon="11.87707725059319"><ele>815.75</ele><time>2026-05-02T15:38:25.999Z</time></trkpt><trkpt lat="43.78993357076398" lon="11.876928921274754"><ele>810.0</ele><time>2026-05-02T15:38:26.999Z</time></trkpt><trkpt lat="43.78987011092357" lon="11.876798483332397"><ele>813.5</ele><time>2026-05-02T15:38:27.999Z</time></trkpt><trkpt lat="43.78987629093005" lon="11.87665377679688"><ele>817.0</ele><time>2026-05-02T15:38:28.999Z</time></trkpt><trkpt lat="43.78989797009349" lon="11.876476105024047"><ele>820.5</ele><time>2026-05-02T15:38:29.999Z</time></trkpt><trkpt lat="43.78994262942856" lon="11.876221479143231"><ele>824.0</ele><time>2026-05-02T15:38:30.999Z</time></trkpt><trkpt lat="43.789984837728696" lon="11.876017213742154"><ele>825.75</ele><time>2026-05-02T15:38:31.999Z</time></trkpt><trkpt lat="43.79001040096609" lon="11.875843044305483"><ele>827.5</ele><time>2026-05-02T15:38:32.999Z</time></trkpt><trkpt lat="43.78999365946226" lon="11.875701058558299"><ele>829.25</ele><time>2026-05-02T15:38:33.999Z</time></trkpt><trkpt lat="43.78991363252097" lon="11.875548982138605"><ele>831.0</ele><time>2026-05-02T15:38:34.999Z</time></trkpt><trkpt lat="43.78977480715944" lon="11.875384514367223"><ele>831.0</ele><time>2026-05-02T15:38:35.999Z</time></trkpt><trkpt lat="43.78961738047946" lon="11.875205544604585"><ele>831.0</ele><time>2026-05-02T15:38:36.999Z</time></trkpt><trkpt lat="43.789486816908294" lon="11.87504220561746"><ele>831.0</ele><time>2026-05-02T15:38:37.999Z</time></trkpt><trkpt lat="43.789374639807136" lon="11.874866507006786"><ele>825.3333333333333</ele><time>2026-05-02T15:38:38.999Z</time></trkpt><trkpt lat="43.78929604731624" lon="11.874654107404842"><ele>819.6666666666666</ele><time>2026-05-02T15:38:39.999Z</time></trkpt><trkpt lat="43.789245705249485" lon="11.874438637787504"><ele>814.0</ele><time>2026-05-02T15:38:40.999Z</time></trkpt><trkpt lat="43.78919556483724" lon="11.874257814227391"><ele>814.0</ele><time>2026-05-02T15:38:41.999Z</time></trkpt><trkpt lat="43.78909954048974" lon="11.87413088537691"><ele>814.0</ele><time>2026-05-02T15:38:42.999Z</time></trkpt><trkpt lat="43.78897197309913" lon="11.874045385344864"><ele>814.0</ele><time>2026-05-02T15:38:43.999Z</time></trkpt><trkpt lat="43.788790080115014" lon="11.873993783956987"><ele>814.0</ele><time>2026-05-02T15:38:44.999Z</time></trkpt><trkpt lat="43.788570794763785" lon="11.873928002336674"><ele>814.0</ele><time>2026-05-02T15:38:45.999Z</time></trkpt><trkpt lat="43.788396159729324" lon="11.873848787803173"><ele>814.0</ele><time>2026-05-02T15:38:47Z</time></trkpt><trkpt lat="43.788233529157374" lon="11.873749727811678"><ele>812.0</ele><time>2026-05-02T15:38:48Z</time></trkpt><trkpt lat="43.788090504570604" lon="11.873617335149918"><ele>810.0</ele><time>2026-05-02T15:38:49Z</time></trkpt><trkpt lat="43.787991530306925" lon="11.873443581546697"><ele>808.0</ele><time>2026-05-02T15:38:50Z</time></trkpt><trkpt lat="43.78791946586583" lon="11.873228249820789"><ele>808.0</ele><time>2026-05-02T15:38:51Z</time></trkpt><trkpt lat="43.78788392048832" lon="11.872969319182129"><ele>808.0</ele><time>2026-05-02T15:38:52Z</time></trkpt><trkpt lat="43.787840318310494" lon="11.872698864599245"><ele>808.0</ele><time>2026-05-02T15:38:53Z</time></trkpt><trkpt lat="43.787810644938546" lon="11.872446355052718"><ele>811.0</ele><time>2026-05-02T15:38:54Z</time></trkpt><trkpt lat="43.787779910195226" lon="11.872239129466223"><ele>814.0</ele><time>2026-05-02T15:38:55Z</time></trkpt><trkpt lat="43.787761607637194" lon="11.87204793427279"><ele>817.0</ele><time>2026-05-02T15:38:56Z</time></trkpt><trkpt lat="43.78776866983268" lon="11.871869368360398"><ele>820.0</ele><time>2026-05-02T15:38:57Z</time></trkpt><trkpt lat="43.787825934268945" lon="11.871686834280824"><ele>821.0</ele><time>2026-05-02T15:38:58Z</time></trkpt><trkpt lat="43.78787738346437" lon="11.871466822703772"><ele>822.0</ele><time>2026-05-02T15:38:59Z</time></trkpt><trkpt lat="43.7879013671894" lon="11.8712272227471"><ele>823.0</ele><time>2026-05-02T15:39:00Z</time></trkpt><trkpt lat="43.78788018177239" lon="11.871007463603481"><ele>825.0</ele><time>2026-05-02T15:39:01Z</time></trkpt><trkpt lat="43.787821181947535" lon="11.870806539374302"><ele>827.0</ele><time>2026-05-02T15:39:02Z</time></trkpt><trkpt lat="43.78772258386791" lon="11.870611698961536"><ele>829.0</ele><time>2026-05-02T15:39:03Z</time></trkpt><trkpt lat="43.78758744327742" lon="11.870451836157162"><ele>813.6666666666666</ele><time>2026-05-02T15:39:04Z</time></trkpt><trkpt lat="43.787417971803116" lon="11.870318566353596"><ele>798.3333333333333</ele><time>2026-05-02T15:39:05Z</time></trkpt><trkpt lat="43.78722210489685" lon="11.870226622359025"><ele>783.0</ele><time>2026-05-02T15:39:06Z</time></trkpt><trkpt lat="43.78705204558993" lon="11.87016763143199"><ele>783.0</ele><time>2026-05-02T15:39:07Z</time></trkpt><trkpt lat="43.786900033882354" lon="11.870169238600429"><ele>783.0</ele><time>2026-05-02T15:39:08Z</time></trkpt><trkpt lat="43.78677860137885" lon="11.87017074413433"><ele>783.0</ele><time>2026-05-02T15:39:09Z</time></trkpt><trkpt lat="43.78669212868993" lon="11.870138095832768"><ele>783.0</ele><time>2026-05-02T15:39:10Z</time></trkpt><trkpt lat="43.78663779133486" lon="11.870009177373404"><ele>782.25</ele><time>2026-05-02T15:39:11Z</time></trkpt><trkpt lat="43.786549520605114" lon="11.86985148927934"><ele>781.5</ele><time>2026-05-02T15:39:12Z</time></trkpt><trkpt lat="43.786463818947865" lon="11.869675308268683"><ele>780.75</ele><time>2026-05-02T15:39:13Z</time></trkpt><trkpt lat="43.78636780113792" lon="11.869577629228914"><ele>780.0</ele><time>2026-05-02T15:39:14Z</time></trkpt><trkpt lat="43.78624950701325" lon="11.869545448170207"><ele>780.0</ele><time>2026-05-02T15:39:15Z</time></trkpt><trkpt lat="43.786128186008305" lon="11.869556498680506"><ele>780.0</ele><time>2026-05-02T15:39:16Z</time></trkpt><trkpt lat="43.78601311842138" lon="11.869511110290507"><ele>780.0</ele><time>2026-05-02T15:39:17Z</time></trkpt><trkpt lat="43.78594085695363" lon="11.869422888682163"><ele>780.0</ele><time>2026-05-02T15:39:18Z</time></trkpt><trkpt lat="43.78590998316762" lon="11.86925325992726"><ele>777.6666666666667</ele><time>2026-05-02T15:39:19Z</time></trkpt><trkpt lat="43.78583706664023" lon="11.8690695732911"><ele>775.3333333333334</ele><time>2026-05-02T15:39:20Z</time></trkpt><trkpt lat="43.78572409606183" lon="11.868912072598112"><ele>773.0</ele><time>2026-05-02T15:39:21Z</time></trkpt><trkpt lat="43.785555363298016" lon="11.868826861541214"><ele>773.0</ele><time>2026-05-02T15:39:22Z</time></trkpt><trkpt lat="43.78535903040477" lon="11.868816172652958"><ele>773.0</ele><time>2026-05-02T15:39:23Z</time></trkpt><trkpt lat="43.78516364986239" lon="11.868846315735844"><ele>773.0</ele><time>2026-05-02T15:39:24Z</time></trkpt><trkpt lat="43.7850162946016" lon="11.868868562858962"><ele>768.25</ele><time>2026-05-02T15:39:25Z</time></trkpt><trkpt lat="43.784887732270704" lon="11.868898194614134"><ele>763.5</ele><time>2026-05-02T15:39:26Z</time></trkpt><trkpt lat="43.78477241098794" lon="11.868861564707267"><ele>758.75</ele><time>2026-05-02T15:39:27Z</time></trkpt><trkpt lat="43.784683396247715" lon="11.868793389517398"><ele>754.0</ele><time>2026-05-02T15:39:28Z</time></trkpt><trkpt lat="43.784576065369976" lon="11.868667964842354"><ele>754.0</ele><time>2026-05-02T15:39:29Z</time></trkpt><trkpt lat="43.784468069517224" lon="11.868510708775167"><ele>754.0</ele><time>2026-05-02T15:39:30Z</time></trkpt><trkpt lat="43.7843667190331" lon="11.868439298006221"><ele>754.0</ele><time>2026-05-02T15:39:31Z</time></trkpt><trkpt lat="43.78421670453705" lon="11.868425830248468"><ele>754.0</ele><time>2026-05-02T15:39:32Z</time></trkpt><trkpt lat="43.78403871675344" lon="11.868502059848307"><ele>751.6666666666667</ele><time>2026-05-02T15:39:33Z</time></trkpt><trkpt lat="43.783843395893655" lon="11.868583694527779"><ele>749.3333333333334</ele><time>2026-05-02T15:39:34Z</time></trkpt><trkpt lat="43.78364030706158" lon="11.868626719611562"><ele>747.0</ele><time>2026-05-02T15:39:35Z</time></trkpt><trkpt lat="43.78345401900893" lon="11.868711183111923"><ele>747.0</ele><time>2026-05-02T15:39:36Z</time></trkpt><trkpt lat="43.78327794839149" lon="11.86880595314656"><ele>747.0</ele><time>2026-05-02T15:39:37Z</time></trkpt><trkpt lat="43.7831149191968" lon="11.868862333688291"><ele>747.0</ele><time>2026-05-02T15:39:38Z</time></trkpt><trkpt lat="43.78297811943496" lon="11.868991919182601"><ele>747.0</ele><time>2026-05-02T15:39:39Z</time></trkpt><trkpt lat="43.782842634398875" lon="11.869067581146435"><ele>747.0</ele><time>2026-05-02T15:39:40Z</time></trkpt><trkpt lat="43.78268310754055" lon="11.869072507415243"><ele>747.0</ele><time>2026-05-02T15:39:41Z</time></trkpt><trkpt lat="43.782516797913104" lon="11.869072276102546"><ele>752.0</ele><time>2026-05-02T15:39:42Z</time></trkpt><trkpt lat="43.78235775998886" lon="11.869143894343143"><ele>757.0</ele><time>2026-05-02T15:39:43Z</time></trkpt><trkpt lat="43.78220912135017" lon="11.869263279521581"><ele>762.0</ele><time>2026-05-02T15:39:44Z</time></trkpt><trkpt lat="43.78203468900406" lon="11.869385020739943"><ele>753.0</ele><time>2026-05-02T15:39:45Z</time></trkpt><trkpt lat="43.7818698472628" lon="11.869451372274627"><ele>744.0</ele><time>2026-05-02T15:39:46Z</time></trkpt><trkpt lat="43.78171736132778" lon="11.869540689017022"><ele>735.0</ele><time>2026-05-02T15:39:47Z</time></trkpt><trkpt lat="43.7815666488041" lon="11.869579705121286"><ele>735.0</ele><time>2026-05-02T15:39:48Z</time></trkpt><trkpt lat="43.78140943181042" lon="11.869559758809736"><ele>735.0</ele><time>2026-05-02T15:39:49Z</time></trkpt><trkpt lat="43.78124807592539" lon="11.869562594240094"><ele>735.0</ele><time>2026-05-02T15:39:50Z</time></trkpt><trkpt lat="43.78110811941378" lon="11.869529760354496"><ele>734.25</ele><time>2026-05-02T15:39:51Z</time></trkpt><trkpt lat="43.780968314067515" lon="11.869496199973586"><ele>733.5</ele><time>2026-05-02T15:39:52Z</time></trkpt><trkpt lat="43.780841511701844" lon="11.86938182120966"><ele>732.75</ele><time>2026-05-02T15:39:53Z</time></trkpt><trkpt lat="43.7807132127199" lon="11.86929842159782"><ele>732.0</ele><time>2026-05-02T15:39:54Z</time></trkpt><trkpt lat="43.78060674673301" lon="11.869260651605973"><ele>732.0</ele><time>2026-05-02T15:39:55Z</time></trkpt><trkpt lat="43.78050635319236" lon="11.869311008840345"><ele>732.0</ele><time>2026-05-02T15:39:56Z</time></trkpt><trkpt lat="43.78041888501867" lon="11.869443671636851"><ele>732.0</ele><time>2026-05-02T15:39:57Z</time></trkpt><trkpt lat="43.78032921503456" lon="11.869538651471693"><ele>732.0</ele><time>2026-05-02T15:39:58Z</time></trkpt><trkpt lat="43.78020232269679" lon="11.8695529278424"><ele>731.6666666666666</ele><time>2026-05-02T15:39:59Z</time></trkpt><trkpt lat="43.780054094612844" lon="11.869500017481764"><ele>731.3333333333333</ele><time>2026-05-02T15:40:00Z</time></trkpt><trkpt lat="43.77990029882995" lon="11.869410718771922"><ele>731.0</ele><time>2026-05-02T15:40:01Z</time></trkpt><trkpt lat="43.77970083525737" lon="11.869414689367485"><ele>731.0</ele><time>2026-05-02T15:40:02Z</time></trkpt><trkpt lat="43.77947824930821" lon="11.869442815736726"><ele>731.0</ele><time>2026-05-02T15:40:03Z</time></trkpt><trkpt lat="43.77929297257345" lon="11.86944703733855"><ele>731.0</ele><time>2026-05-02T15:40:04Z</time></trkpt><trkpt lat="43.779145138969795" lon="11.869415503294686"><ele>730.25</ele><time>2026-05-02T15:40:05Z</time></trkpt><trkpt lat="43.77901616012372" lon="11.869372741993807"><ele>729.5</ele><time>2026-05-02T15:40:06Z</time></trkpt><trkpt lat="43.778887766059334" lon="11.869351014102635"><ele>728.75</ele><time>2026-05-02T15:40:06.999Z</time></trkpt><trkpt lat="43.77881510641267" lon="11.869220741532025"><ele>728.0</ele><time>2026-05-02T15:40:07.999Z</time></trkpt><trkpt lat="43.778707945348565" lon="11.869108017533915"><ele>737.6666666666666</ele><time>2026-05-02T15:40:08.999Z</time></trkpt><trkpt lat="43.778595528633794" lon="11.869035706176007"><ele>747.3333333333334</ele><time>2026-05-02T15:40:09.999Z</time></trkpt><trkpt lat="43.77842784302778" lon="11.869056839913883"><ele>757.0</ele><time>2026-05-02T15:40:10.999Z</time></trkpt><trkpt lat="43.77823338779674" lon="11.869110147261303"><ele>757.0</ele><time>2026-05-02T15:40:11.999Z</time></trkpt><trkpt lat="43.778052753815054" lon="11.86915812855903"><ele>757.0</ele><time>2026-05-02T15:40:12.999Z</time></trkpt><trkpt lat="43.77787818690024" lon="11.869166024567365"><ele>757.0</ele><time>2026-05-02T15:40:13.999Z</time></trkpt><trkpt lat="43.77770151352966" lon="11.869114136058801"><ele>757.3333333333334</ele><time>2026-05-02T15:40:14.999Z</time></trkpt><trkpt lat="43.77752275425073" lon="11.869118446472594"><ele>757.6666666666666</ele><time>2026-05-02T15:40:15.999Z</time></trkpt><trkpt lat="43.777345889915914" lon="11.86918717564098"><ele>758.0</ele><time>2026-05-02T15:40:16.999Z</time></trkpt><trkpt lat="43.777166465193915" lon="11.869306901991848"><ele>745.6666666666666</ele><time>2026-05-02T15:40:17.999Z</time></trkpt><trkpt lat="43.7770108901077" lon="11.869442758743855"><ele>733.3333333333334</ele><time>2026-05-02T15:40:18.999Z</time></trkpt><trkpt lat="43.776878512004394" lon="11.869543071859626"><ele>721.0</ele><time>2026-05-02T15:40:19.999Z</time></trkpt><trkpt lat="43.77676690364122" lon="11.86962125473559"><ele>721.0</ele><time>2026-05-02T15:40:20.999Z</time></trkpt><trkpt lat="43.77666605256199" lon="11.869675948736631"><ele>721.0</ele><time>2026-05-02T15:40:21.999Z</time></trkpt><trkpt lat="43.77656742134214" lon="11.869688357145733"><ele>721.0</ele><time>2026-05-02T15:40:22.999Z</time></trkpt><trkpt lat="43.77647532540383" lon="11.86965531015625"><ele>721.0</ele><time>2026-05-02T15:40:23.999Z</time></trkpt><trkpt lat="43.776414094372356" lon="11.86954454218637"><ele>721.0</ele><time>2026-05-02T15:40:24.999Z</time></trkpt><trkpt lat="43.77636752738898" lon="11.869374227412838"><ele>732.6666666666667</ele><time>2026-05-02T15:40:25.999Z</time></trkpt><trkpt lat="43.7763424021516" lon="11.86914494680908"><ele>744.3333333333334</ele><time>2026-05-02T15:40:26.999Z</time></trkpt><trkpt lat="43.77633161037787" lon="11.868901140080634"><ele>756.0</ele><time>2026-05-02T15:40:27.999Z</time></trkpt><trkpt lat="43.77630542876975" lon="11.868713066625046"><ele>756.0</ele><time>2026-05-02T15:40:28.999Z</time></trkpt><trkpt lat="43.77624195925563" lon="11.868597267958418"><ele>756.0</ele><time>2026-05-02T15:40:29.999Z</time></trkpt><trkpt lat="43.776132811280085" lon="11.868532956054354"><ele>756.0</ele><time>2026-05-02T15:40:30.999Z</time></trkpt><trkpt lat="43.7759662884256" lon="11.868519633409772"><ele>756.0</ele><time>2026-05-02T15:40:31.999Z</time></trkpt><trkpt lat="43.77585304791167" lon="11.86839060021654"><ele>756.75</ele><time>2026-05-02T15:40:32.999Z</time></trkpt><trkpt lat="43.77570029856865" lon="11.868304124307036"><ele>757.5</ele><time>2026-05-02T15:40:33.999Z</time></trkpt><trkpt lat="43.77557242509128" lon="11.868249800070197"><ele>758.25</ele><time>2026-05-02T15:40:34.999Z</time></trkpt><trkpt lat="43.77544213024207" lon="11.868320124286772"><ele>759.0</ele><time>2026-05-02T15:40:35.999Z</time></trkpt><trkpt lat="43.77531443711735" lon="11.86836097546271"><ele>759.0</ele><time>2026-05-02T15:40:36.999Z</time></trkpt><trkpt lat="43.77520849616418" lon="11.868334369592068"><ele>759.0</ele><time>2026-05-02T15:40:37.999Z</time></trkpt><trkpt lat="43.77513330483303" lon="11.868234464825857"><ele>759.0</ele><time>2026-05-02T15:40:38.999Z</time></trkpt><trkpt lat="43.77505607526562" lon="11.86810753334163"><ele>759.0</ele><time>2026-05-02T15:40:39.999Z</time></trkpt><trkpt lat="43.774996607697815" lon="11.867998400434395"><ele>759.0</ele><time>2026-05-02T15:40:40.999Z</time></trkpt><trkpt lat="43.77492811102989" lon="11.8679195467571"><ele>761.6666666666666</ele><time>2026-05-02T15:40:41.999Z</time></trkpt><trkpt lat="43.77486690014879" lon="11.867871644498553"><ele>764.3333333333333</ele><time>2026-05-02T15:40:42.999Z</time></trkpt><trkpt lat="43.774779081863464" lon="11.867797893703703"><ele>767.0</ele><time>2026-05-02T15:40:44.999Z</time></trkpt><trkpt lat="43.77471662996754" lon="11.867740479535366"><ele>769.6666666666666</ele><time>2026-05-02T15:40:46.999Z</time></trkpt><trkpt lat="43.77465781973978" lon="11.867696050107643"><ele>772.3333333333333</ele><time>2026-05-02T15:40:49.999Z</time></trkpt><trkpt lat="43.77458532345618" lon="11.86761645736991"><ele>775.0</ele><time>2026-05-02T15:41:05Z</time></trkpt><trkpt lat="43.77449863935628" lon="11.867551353409603"><ele>775.0</ele><time>2026-05-02T15:41:06Z</time></trkpt><trkpt lat="43.77442296366132" lon="11.867487449173874"><ele>775.0</ele><time>2026-05-02T15:41:07Z</time></trkpt><trkpt lat="43.774336675262376" lon="11.867438657484266"><ele>775.0</ele><time>2026-05-02T15:41:08Z</time></trkpt><trkpt lat="43.774234229352075" lon="11.867419218235515"><ele>775.0</ele><time>2026-05-02T15:41:09Z</time></trkpt><trkpt lat="43.77413244061863" lon="11.867413000594759"><ele>775.0</ele><time>2026-05-02T15:41:10Z</time></trkpt><trkpt lat="43.77403254266838" lon="11.867471121015672"><ele>771.2</ele><time>2026-05-02T15:41:11Z</time></trkpt><trkpt lat="43.773930357135" lon="11.867499188516108"><ele>767.4</ele><time>2026-05-02T15:41:12Z</time></trkpt><trkpt lat="43.77381935820917" lon="11.86747796193464"><ele>763.5999999999999</ele><time>2026-05-02T15:41:13Z</time></trkpt><trkpt lat="43.7736959432807" lon="11.867493589315036"><ele>759.8</ele><time>2026-05-02T15:41:14Z</time></trkpt><trkpt lat="43.77361516796467" lon="11.86755321051702"><ele>756.0</ele><time>2026-05-02T15:41:15Z</time></trkpt><trkpt lat="43.773528595535396" lon="11.867623881762707"><ele>752.0</ele><time>2026-05-02T15:41:16Z</time></trkpt><trkpt lat="43.773438354349025" lon="11.867646881707385"><ele>748.0</ele><time>2026-05-02T15:41:17Z</time></trkpt><trkpt lat="43.773360191115295" lon="11.867652044383258"><ele>744.0</ele><time>2026-05-02T15:41:18Z</time></trkpt><trkpt lat="43.773297007315975" lon="11.867560174554608"><ele>740.0</ele><time>2026-05-02T15:41:19Z</time></trkpt><trkpt lat="43.773224778345956" lon="11.867426123360069"><ele>736.0</ele><time>2026-05-02T15:41:20Z</time></trkpt><trkpt lat="43.77311641108665" lon="11.86726964932446"><ele>736.0</ele><time>2026-05-02T15:41:21Z</time></trkpt><trkpt lat="43.773026182768824" lon="11.867137859953017"><ele>736.0</ele><time>2026-05-02T15:41:22Z</time></trkpt><trkpt lat="43.772964822489264" lon="11.866973722579989"><ele>736.0</ele><time>2026-05-02T15:41:23Z</time></trkpt><trkpt lat="43.77290905931762" lon="11.866820165882395"><ele>736.0</ele><time>2026-05-02T15:41:24Z</time></trkpt><trkpt lat="43.772824584616444" lon="11.866704934273109"><ele>734.8</ele><time>2026-05-02T15:41:25Z</time></trkpt><trkpt lat="43.772744216422936" lon="11.866608631793362"><ele>733.5999999999999</ele><time>2026-05-02T15:41:26Z</time></trkpt><trkpt lat="43.77266754159067" lon="11.866516379790443"><ele>732.4</ele><time>2026-05-02T15:41:27Z</time></trkpt><trkpt lat="43.772642897886925" lon="11.86637527479149"><ele>731.2</ele><time>2026-05-02T15:41:28Z</time></trkpt><trkpt lat="43.772596518525674" lon="11.866240256667224"><ele>730.0</ele><time>2026-05-02T15:41:29Z</time></trkpt><trkpt lat="43.772550520821554" lon="11.86609730739958"><ele>730.0</ele><time>2026-05-02T15:41:30Z</time></trkpt><trkpt lat="43.772447318007394" lon="11.866001715622994"><ele>730.0</ele><time>2026-05-02T15:41:31Z</time></trkpt><trkpt lat="43.77229642995021" lon="11.86594927542386"><ele>730.0</ele><time>2026-05-02T15:41:32Z</time></trkpt><trkpt lat="43.77214835273635" lon="11.865927451126641"><ele>730.0</ele><time>2026-05-02T15:41:33Z</time></trkpt><trkpt lat="43.7720308219392" lon="11.865933612124788"><ele>730.0</ele><time>2026-05-02T15:41:34Z</time></trkpt><trkpt lat="43.77191886515153" lon="11.86596097317963"><ele>730.0</ele><time>2026-05-02T15:41:35Z</time></trkpt><trkpt lat="43.771826164544066" lon="11.865989470718302"><ele>730.0</ele><time>2026-05-02T15:41:36Z</time></trkpt><trkpt lat="43.771736264104334" lon="11.865959528075924"><ele>730.0</ele><time>2026-05-02T15:41:37Z</time></trkpt><trkpt lat="43.77167047086046" lon="11.865858346271757"><ele>730.0</ele><time>2026-05-02T15:41:38Z</time></trkpt><trkpt lat="43.771658329986046" lon="11.865691230652072"><ele>727.0</ele><time>2026-05-02T15:41:39Z</time></trkpt><trkpt lat="43.77160184606242" lon="11.865491623559649"><ele>724.0</ele><time>2026-05-02T15:41:40Z</time></trkpt><trkpt lat="43.77156229292862" lon="11.865255194899355"><ele>721.0</ele><time>2026-05-02T15:41:41Z</time></trkpt><trkpt lat="43.771489952152066" lon="11.865072331319086"><ele>727.5</ele><time>2026-05-02T15:41:42Z</time></trkpt><trkpt lat="43.771424759644944" lon="11.864903598500348"><ele>734.0</ele><time>2026-05-02T15:41:43Z</time></trkpt><trkpt lat="43.771381110919435" lon="11.864717413958346"><ele>740.5</ele><time>2026-05-02T15:41:44Z</time></trkpt><trkpt lat="43.77137064858927" lon="11.864525093720923"><ele>747.0</ele><time>2026-05-02T15:41:45Z</time></trkpt><trkpt lat="43.77136139446879" lon="11.86436022880702"><ele>750.25</ele><time>2026-05-02T15:41:46Z</time></trkpt><trkpt lat="43.771315916968675" lon="11.8642154185974"><ele>753.5</ele><time>2026-05-02T15:41:47Z</time></trkpt><trkpt lat="43.77120211718681" lon="11.86409081255528"><ele>756.75</ele><time>2026-05-02T15:41:48Z</time></trkpt><trkpt lat="43.77104874231527" lon="11.863979026353215"><ele>760.0</ele><time>2026-05-02T15:41:49Z</time></trkpt><trkpt lat="43.77092625652366" lon="11.86386024370763"><ele>749.25</ele><time>2026-05-02T15:41:50Z</time></trkpt><trkpt lat="43.77084774801656" lon="11.863716315143805"><ele>738.5</ele><time>2026-05-02T15:41:51Z</time></trkpt><trkpt lat="43.77082524839511" lon="11.863546654963066"><ele>727.75</ele><time>2026-05-02T15:41:52Z</time></trkpt><trkpt lat="43.77079274684204" lon="11.86335489161223"><ele>717.0</ele><time>2026-05-02T15:41:53Z</time></trkpt><trkpt lat="43.77077714008679" lon="11.863158874635653"><ele>717.0</ele><time>2026-05-02T15:41:54Z</time></trkpt><trkpt lat="43.770805418270704" lon="11.862996265705293"><ele>717.0</ele><time>2026-05-02T15:41:55Z</time></trkpt><trkpt lat="43.7708790699968" lon="11.862824655652949"><ele>717.0</ele><time>2026-05-02T15:41:56Z</time></trkpt><trkpt lat="43.770962464955566" lon="11.862588918522857"><ele>723.6666666666666</ele><time>2026-05-02T15:41:57Z</time></trkpt><trkpt lat="43.77103841355539" lon="11.862342574124016"><ele>730.3333333333333</ele><time>2026-05-02T15:41:58Z</time></trkpt><trkpt lat="43.771111824076776" lon="11.862122690188096"><ele>737.0</ele><time>2026-05-02T15:41:59Z</time></trkpt><trkpt lat="43.771167555765594" lon="11.861926078204919"><ele>736.75</ele><time>2026-05-02T15:42:00Z</time></trkpt><trkpt lat="43.77117881207356" lon="11.861725485200989"><ele>736.5</ele><time>2026-05-02T15:42:01Z</time></trkpt><trkpt lat="43.771162423074145" lon="11.861521097537914"><ele>736.25</ele><time>2026-05-02T15:42:02Z</time></trkpt><trkpt lat="43.771152850667406" lon="11.861328676159633"><ele>736.0</ele><time>2026-05-02T15:42:03Z</time></trkpt><trkpt lat="43.771184247988685" lon="11.861157205744812"><ele>736.0</ele><time>2026-05-02T15:42:04Z</time></trkpt><trkpt lat="43.77127529039691" lon="11.861027754002095"><ele>736.0</ele><time>2026-05-02T15:42:05Z</time></trkpt><trkpt lat="43.7713368413772" lon="11.86086787927329"><ele>736.0</ele><time>2026-05-02T15:42:05.999Z</time></trkpt><trkpt lat="43.77140410788898" lon="11.860710772188568"><ele>736.0</ele><time>2026-05-02T15:42:06.999Z</time></trkpt><trkpt lat="43.771428067776505" lon="11.860563517523714"><ele>731.8</ele><time>2026-05-02T15:42:07.999Z</time></trkpt><trkpt lat="43.771417134670614" lon="11.860425135021803"><ele>727.5999999999999</ele><time>2026-05-02T15:42:08.999Z</time></trkpt><trkpt lat="43.77138609065007" lon="11.86029060098265"><ele>723.4</ele><time>2026-05-02T15:42:09.999Z</time></trkpt><trkpt lat="43.77136665380465" lon="11.860152335791883"><ele>719.2</ele><time>2026-05-02T15:42:10.999Z</time></trkpt><trkpt lat="43.77137659644334" lon="11.859991260186577"><ele>715.0</ele><time>2026-05-02T15:42:11.999Z</time></trkpt><trkpt lat="43.77143172205946" lon="11.859824974898723"><ele>711.3333333333334</ele><time>2026-05-02T15:42:12.999Z</time></trkpt><trkpt lat="43.771524475232106" lon="11.859651147796773"><ele>707.6666666666666</ele><time>2026-05-02T15:42:13.999Z</time></trkpt><trkpt lat="43.77161074509659" lon="11.85947250089751"><ele>704.0</ele><time>2026-05-02T15:42:14.999Z</time></trkpt><trkpt lat="43.771667165124484" lon="11.85928000547661"><ele>699.3333333333333</ele><time>2026-05-02T15:42:15.999Z</time></trkpt><trkpt lat="43.77169228172813" lon="11.859048904049821"><ele>694.6666666666666</ele><time>2026-05-02T15:42:16.999Z</time></trkpt><trkpt lat="43.771681785214334" lon="11.858786738730874"><ele>690.0</ele><time>2026-05-02T15:42:17.999Z</time></trkpt><trkpt lat="43.77171392189994" lon="11.858535443714397"><ele>685.0</ele><time>2026-05-02T15:42:18.999Z</time></trkpt><trkpt lat="43.7717660897725" lon="11.858305818863718"><ele>680.0</ele><time>2026-05-02T15:42:19.999Z</time></trkpt><trkpt lat="43.77181238348259" lon="11.858070636769247"><ele>675.0</ele><time>2026-05-02T15:42:20.999Z</time></trkpt><trkpt lat="43.771887133956255" lon="11.85784502850505"><ele>681.25</ele><time>2026-05-02T15:42:21.999Z</time></trkpt><trkpt lat="43.77195405049085" lon="11.857632156916322"><ele>687.5</ele><time>2026-05-02T15:42:22.999Z</time></trkpt><trkpt lat="43.77200846781851" lon="11.857449186253797"><ele>693.75</ele><time>2026-05-02T15:42:23.999Z</time></trkpt><trkpt lat="43.772049994512585" lon="11.857287307619071"><ele>700.0</ele><time>2026-05-02T15:42:24.999Z</time></trkpt><trkpt lat="43.77205304443016" lon="11.857127861209124"><ele>700.0</ele><time>2026-05-02T15:42:25.999Z</time></trkpt><trkpt lat="43.77200183720492" lon="11.856979641360399"><ele>700.0</ele><time>2026-05-02T15:42:26.999Z</time></trkpt><trkpt lat="43.771901324900945" lon="11.856843467969105"><ele>700.0</ele><time>2026-05-02T15:42:27.999Z</time></trkpt><trkpt lat="43.77176664493898" lon="11.856698071969973"><ele>700.0</ele><time>2026-05-02T15:42:28.999Z</time></trkpt><trkpt lat="43.77164755392383" lon="11.856558916779722"><ele>691.8</ele><time>2026-05-02T15:42:29.999Z</time></trkpt><trkpt lat="43.771566340471416" lon="11.85644728188131"><ele>683.6</ele><time>2026-05-02T15:42:30.999Z</time></trkpt><trkpt lat="43.771503158567796" lon="11.856290859950496"><ele>675.4000000000001</ele><time>2026-05-02T15:42:31.999Z</time></trkpt><trkpt lat="43.771502433791056" lon="11.856177999702677"><ele>667.2</ele><time>2026-05-02T15:42:32.999Z</time></trkpt><trkpt lat="43.77155234231254" lon="11.856092300126129"><ele>659.0</ele><time>2026-05-02T15:42:33.999Z</time></trkpt><trkpt lat="43.77163277494025" lon="11.856034323837928"><ele>659.0</ele><time>2026-05-02T15:42:34.999Z</time></trkpt><trkpt lat="43.77174609832499" lon="11.856011051703309"><ele>659.0</ele><time>2026-05-02T15:42:35.999Z</time></trkpt><trkpt lat="43.77190476072647" lon="11.855973947587104"><ele>659.0</ele><time>2026-05-02T15:42:36.999Z</time></trkpt><trkpt lat="43.77205160090894" lon="11.855915225063928"><ele>659.0</ele><time>2026-05-02T15:42:37.999Z</time></trkpt><trkpt lat="43.77216989832745" lon="11.855833229983398"><ele>663.5</ele><time>2026-05-02T15:42:38.999Z</time></trkpt><trkpt lat="43.772258233035814" lon="11.85569860631992"><ele>668.0</ele><time>2026-05-02T15:42:39.999Z</time></trkpt><trkpt lat="43.77228522557444" lon="11.855525322910022"><ele>672.5</ele><time>2026-05-02T15:42:40.999Z</time></trkpt><trkpt lat="43.772251054706054" lon="11.855355881142325"><ele>677.0</ele><time>2026-05-02T15:42:41.999Z</time></trkpt><trkpt lat="43.77215897645345" lon="11.85517258238352"><ele>678.0</ele><time>2026-05-02T15:42:42.999Z</time></trkpt><trkpt lat="43.77202923670036" lon="11.854946796482434"><ele>679.0</ele><time>2026-05-02T15:42:43.999Z</time></trkpt><trkpt lat="43.77189647984224" lon="11.854694070875125"><ele>680.0</ele><time>2026-05-02T15:42:44.999Z</time></trkpt><trkpt lat="43.77175792221469" lon="11.854425387821781"><ele>664.0</ele><time>2026-05-02T15:42:45.999Z</time></trkpt><trkpt lat="43.771630529888654" lon="11.854126734675095"><ele>648.0</ele><time>2026-05-02T15:42:46.999Z</time></trkpt><trkpt lat="43.77152203259027" lon="11.853841312033431"><ele>648.0</ele><time>2026-05-02T15:42:47.999Z</time></trkpt><trkpt lat="43.771430178798774" lon="11.853570949740936"><ele>648.0</ele><time>2026-05-02T15:42:48.999Z</time></trkpt><trkpt lat="43.77134992057406" lon="11.853329793062327"><ele>648.0</ele><time>2026-05-02T15:42:49.999Z</time></trkpt><trkpt lat="43.7712796607753" lon="11.853113073775324"><ele>649.75</ele><time>2026-05-02T15:42:50.999Z</time></trkpt><trkpt lat="43.771218139812824" lon="11.852924529201918"><ele>651.5</ele><time>2026-05-02T15:42:51.999Z</time></trkpt><trkpt lat="43.77118499689366" lon="11.85274305766703"><ele>653.25</ele><time>2026-05-02T15:42:52.999Z</time></trkpt><trkpt lat="43.77115865406609" lon="11.852581532098098"><ele>655.0</ele><time>2026-05-02T15:42:53.999Z</time></trkpt><trkpt lat="43.77117410248607" lon="11.852447202196013"><ele>655.6666666666667</ele><time>2026-05-02T15:42:54.999Z</time></trkpt><trkpt lat="43.77123918310077" lon="11.852293440552744"><ele>656.3333333333334</ele><time>2026-05-02T15:42:55.999Z</time></trkpt><trkpt lat="43.77129762882274" lon="11.852053360681284"><ele>657.0</ele><time>2026-05-02T15:42:56.999Z</time></trkpt><trkpt lat="43.77133507308293" lon="11.851828334725148"><ele>651.75</ele><time>2026-05-02T15:42:57.999Z</time></trkpt><trkpt lat="43.771401351403185" lon="11.851670743213962"><ele>646.5</ele><time>2026-05-02T15:42:59Z</time></trkpt><trkpt lat="43.77148208507261" lon="11.851542621217035"><ele>641.25</ele><time>2026-05-02T15:43:00Z</time></trkpt><trkpt lat="43.771609740461265" lon="11.851457339018761"><ele>636.0</ele><time>2026-05-02T15:43:01Z</time></trkpt><trkpt lat="43.77175692702178" lon="11.85132586266698"><ele>638.6666666666666</ele><time>2026-05-02T15:43:02Z</time></trkpt><trkpt lat="43.77187777150737" lon="11.85119544368049"><ele>641.3333333333333</ele><time>2026-05-02T15:43:03Z</time></trkpt><trkpt lat="43.77198297921396" lon="11.851043180890848"><ele>644.0</ele><time>2026-05-02T15:43:04Z</time></trkpt><trkpt lat="43.772111352136825" lon="11.850895295419933"><ele>644.0</ele><time>2026-05-02T15:43:05Z</time></trkpt><trkpt lat="43.772256366434604" lon="11.850750621340959"><ele>644.0</ele><time>2026-05-02T15:43:06Z</time></trkpt><trkpt lat="43.77235590327151" lon="11.850597406680839"><ele>644.0</ele><time>2026-05-02T15:43:07Z</time></trkpt><trkpt lat="43.77240975307171" lon="11.850407157143495"><ele>644.0</ele><time>2026-05-02T15:43:08Z</time></trkpt><trkpt lat="43.77241464498043" lon="11.850203673913711"><ele>644.0</ele><time>2026-05-02T15:43:09Z</time></trkpt><trkpt lat="43.772383115482675" lon="11.85002140602583"><ele>644.0</ele><time>2026-05-02T15:43:10Z</time></trkpt><trkpt lat="43.77224119550799" lon="11.84983499861755"><ele>637.6666666666666</ele><time>2026-05-02T15:43:11Z</time></trkpt><trkpt lat="43.77208921901692" lon="11.849638228987885"><ele>631.3333333333334</ele><time>2026-05-02T15:43:12Z</time></trkpt><trkpt lat="43.77195780229646" lon="11.849428414333824"><ele>625.0</ele><time>2026-05-02T15:43:13Z</time></trkpt><trkpt lat="43.771845563606455" lon="11.849259740230648"><ele>616.25</ele><time>2026-05-02T15:43:14Z</time></trkpt><trkpt lat="43.771774910635656" lon="11.84908770441925"><ele>607.5</ele><time>2026-05-02T15:43:15Z</time></trkpt><trkpt lat="43.77176308975419" lon="11.848895550090866"><ele>598.75</ele><time>2026-05-02T15:43:16Z</time></trkpt><trkpt lat="43.77174440045566" lon="11.84868399080747"><ele>590.0</ele><time>2026-05-02T15:43:17Z</time></trkpt><trkpt lat="43.771769930040485" lon="11.848480755439239"><ele>589.6666666666666</ele><time>2026-05-02T15:43:18Z</time></trkpt><trkpt lat="43.771799770546906" lon="11.848239583812958"><ele>589.3333333333334</ele><time>2026-05-02T15:43:19Z</time></trkpt><trkpt lat="43.77183810887203" lon="11.84798000884933"><ele>589.0</ele><time>2026-05-02T15:43:20Z</time></trkpt><trkpt lat="43.77183826240406" lon="11.84772736038442"><ele>591.6666666666667</ele><time>2026-05-02T15:43:21Z</time></trkpt><trkpt lat="43.7718164789296" lon="11.847490730416508"><ele>594.3333333333334</ele><time>2026-05-02T15:43:22Z</time></trkpt><trkpt lat="43.77176221291135" lon="11.847267617334358"><ele>597.0</ele><time>2026-05-02T15:43:23Z</time></trkpt><trkpt lat="43.77168216427076" lon="11.847062803028928"><ele>597.0</ele><time>2026-05-02T15:43:24Z</time></trkpt><trkpt lat="43.77158431074568" lon="11.84688486143154"><ele>597.0</ele><time>2026-05-02T15:43:25Z</time></trkpt><trkpt lat="43.771474385490066" lon="11.846766016800842"><ele>597.0</ele><time>2026-05-02T15:43:26Z</time></trkpt><trkpt lat="43.77133934056785" lon="11.846717009506397"><ele>597.0</ele><time>2026-05-02T15:43:27Z</time></trkpt><trkpt lat="43.77120491668494" lon="11.846710736885909"><ele>602.0</ele><time>2026-05-02T15:43:28Z</time></trkpt><trkpt lat="43.771111769342866" lon="11.846663990447531"><ele>607.0</ele><time>2026-05-02T15:43:29Z</time></trkpt><trkpt lat="43.77106108317122" lon="11.846556964166787"><ele>612.0</ele><time>2026-05-02T15:43:30Z</time></trkpt><trkpt lat="43.77106998457206" lon="11.846369624914885"><ele>617.0</ele><time>2026-05-02T15:43:31Z</time></trkpt><trkpt lat="43.771038169860134" lon="11.846172305221776"><ele>607.0</ele><time>2026-05-02T15:43:32Z</time></trkpt><trkpt lat="43.770991643382786" lon="11.845958638370448"><ele>597.0</ele><time>2026-05-02T15:43:33Z</time></trkpt><trkpt lat="43.77087066382172" lon="11.845743390220347"><ele>587.0</ele><time>2026-05-02T15:43:34Z</time></trkpt><trkpt lat="43.770702008606236" lon="11.845532367284461"><ele>587.0</ele><time>2026-05-02T15:43:35Z</time></trkpt><trkpt lat="43.77053448321378" lon="11.845276961894665"><ele>587.0</ele><time>2026-05-02T15:43:36Z</time></trkpt><trkpt lat="43.770395645216524" lon="11.844939138024339"><ele>594.5</ele><time>2026-05-02T15:43:37Z</time></trkpt><trkpt lat="43.77025862450607" lon="11.844667712160588"><ele>602.0</ele><time>2026-05-02T15:43:38Z</time></trkpt><trkpt lat="43.77013420122318" lon="11.844414479945735"><ele>594.0</ele><time>2026-05-02T15:43:39Z</time></trkpt><trkpt lat="43.769990947041194" lon="11.84421295142158"><ele>586.0</ele><time>2026-05-02T15:43:40Z</time></trkpt><trkpt lat="43.76982213224175" lon="11.844057519480975"><ele>578.0</ele><time>2026-05-02T15:43:41Z</time></trkpt><trkpt lat="43.7696822659607" lon="11.843912074150445"><ele>578.0</ele><time>2026-05-02T15:43:42Z</time></trkpt><trkpt lat="43.76958130636455" lon="11.843788496602372"><ele>578.0</ele><time>2026-05-02T15:43:43Z</time></trkpt><trkpt lat="43.76951247717582" lon="11.843649283327109"><ele>578.0</ele><time>2026-05-02T15:43:44Z</time></trkpt><trkpt lat="43.769491030270984" lon="11.843430415021714"><ele>578.0</ele><time>2026-05-02T15:43:45Z</time></trkpt><trkpt lat="43.769442093488706" lon="11.843153601636702"><ele>572.0</ele><time>2026-05-02T15:43:46Z</time></trkpt><trkpt lat="43.76937649947466" lon="11.842880487604452"><ele>566.0</ele><time>2026-05-02T15:43:47Z</time></trkpt><trkpt lat="43.769279016496746" lon="11.842666717419114"><ele>560.0</ele><time>2026-05-02T15:43:48Z</time></trkpt><trkpt lat="43.76918176411517" lon="11.84248460360191"><ele>560.0</ele><time>2026-05-02T15:43:49Z</time></trkpt><trkpt lat="43.76913200272717" lon="11.84228828050271"><ele>560.0</ele><time>2026-05-02T15:43:50Z</time></trkpt><trkpt lat="43.76909389994776" lon="11.842083546320023"><ele>560.0</ele><time>2026-05-02T15:43:51Z</time></trkpt><trkpt lat="43.769081458189554" lon="11.841878982675643"><ele>562.75</ele><time>2026-05-02T15:43:52Z</time></trkpt><trkpt lat="43.769069532413035" lon="11.841694311457092"><ele>565.5</ele><time>2026-05-02T15:43:53Z</time></trkpt><trkpt lat="43.76907781130951" lon="11.841541769715752"><ele>568.25</ele><time>2026-05-02T15:43:54Z</time></trkpt><trkpt lat="43.76904165106635" lon="11.841410260381632"><ele>571.0</ele><time>2026-05-02T15:43:55Z</time></trkpt><trkpt lat="43.76896473401721" lon="11.841306603756289"><ele>571.0</ele><time>2026-05-02T15:43:56Z</time></trkpt><trkpt lat="43.76882697835061" lon="11.841259903143488"><ele>571.0</ele><time>2026-05-02T15:43:57Z</time></trkpt><trkpt lat="43.76864371192894" lon="11.841250981880941"><ele>571.0</ele><time>2026-05-02T15:43:58Z</time></trkpt><trkpt lat="43.768448235355976" lon="11.841224399824831"><ele>562.3333333333334</ele><time>2026-05-02T15:43:59Z</time></trkpt><trkpt lat="43.768249165684374" lon="11.841167631676186"><ele>553.6666666666666</ele><time>2026-05-02T15:44:00Z</time></trkpt><trkpt lat="43.76806083567991" lon="11.841151663421657"><ele>545.0</ele><time>2026-05-02T15:44:01Z</time></trkpt><trkpt lat="43.76787925721799" lon="11.841125700061392"><ele>545.0</ele><time>2026-05-02T15:44:02Z</time></trkpt><trkpt lat="43.767698365387304" lon="11.841103045884156"><ele>545.0</ele><time>2026-05-02T15:44:03Z</time></trkpt><trkpt lat="43.76753242425619" lon="11.84107868918237"><ele>545.0</ele><time>2026-05-02T15:44:04Z</time></trkpt><trkpt lat="43.76738939572825" lon="11.841011215577938"><ele>545.0</ele><time>2026-05-02T15:44:05Z</time></trkpt><trkpt lat="43.76727619435949" lon="11.84091501640001"><ele>545.0</ele><time>2026-05-02T15:44:06Z</time></trkpt><trkpt lat="43.767205595881265" lon="11.840767893922635"><ele>545.0</ele><time>2026-05-02T15:44:06.999Z</time></trkpt><trkpt lat="43.76718933717262" lon="11.840566697463995"><ele>545.0</ele><time>2026-05-02T15:44:07.999Z</time></trkpt><trkpt lat="43.767142050530786" lon="11.840330687181789"><ele>546.6666666666666</ele><time>2026-05-02T15:44:08.999Z</time></trkpt><trkpt lat="43.76711593045593" lon="11.840043176074502"><ele>548.3333333333334</ele><time>2026-05-02T15:44:09.999Z</time></trkpt><trkpt lat="43.76709603304335" lon="11.83975228929999"><ele>550.0</ele><time>2026-05-02T15:44:10.999Z</time></trkpt><trkpt lat="43.76708580676617" lon="11.839482221126433"><ele>549.0</ele><time>2026-05-02T15:44:11.999Z</time></trkpt><trkpt lat="43.76708111974416" lon="11.83922796140069"><ele>548.0</ele><time>2026-05-02T15:44:12.999Z</time></trkpt><trkpt lat="43.76707926249699" lon="11.838973631906638"><ele>547.0</ele><time>2026-05-02T15:44:13.999Z</time></trkpt><trkpt lat="43.767053192919086" lon="11.838740150906396"><ele>547.0</ele><time>2026-05-02T15:44:14.999Z</time></trkpt><trkpt lat="43.76698210909647" lon="11.83851147201003"><ele>547.0</ele><time>2026-05-02T15:44:15.999Z</time></trkpt><trkpt lat="43.76687585060404" lon="11.838315519742212"><ele>547.0</ele><time>2026-05-02T15:44:16.999Z</time></trkpt><trkpt lat="43.76680451192622" lon="11.838168787216949"><ele>539.5</ele><time>2026-05-02T15:44:17.999Z</time></trkpt><trkpt lat="43.76674275853151" lon="11.838003041932579"><ele>532.0</ele><time>2026-05-02T15:44:18.999Z</time></trkpt><trkpt lat="43.76669893920468" lon="11.837858482046931"><ele>524.5</ele><time>2026-05-02T15:44:19.999Z</time></trkpt><trkpt lat="43.766729535902606" lon="11.837695734311504"><ele>517.0</ele><time>2026-05-02T15:44:20.999Z</time></trkpt><trkpt lat="43.766772787158565" lon="11.837555308741099"><ele>521.3333333333334</ele><time>2026-05-02T15:44:21.999Z</time></trkpt><trkpt lat="43.7668732026197" lon="11.837441751083963"><ele>525.6666666666666</ele><time>2026-05-02T15:44:22.999Z</time></trkpt><trkpt lat="43.76700993784146" lon="11.837342050349493"><ele>530.0</ele><time>2026-05-02T15:44:23.999Z</time></trkpt><trkpt lat="43.7671697504225" lon="11.837257707113649"><ele>530.0</ele><time>2026-05-02T15:44:24.999Z</time></trkpt><trkpt lat="43.76730984336154" lon="11.837159863351236"><ele>530.0</ele><time>2026-05-02T15:44:25.999Z</time></trkpt><trkpt lat="43.76742455935219" lon="11.837081840804267"><ele>530.0</ele><time>2026-05-02T15:44:26.999Z</time></trkpt><trkpt lat="43.76750171409868" lon="11.836988527726405"><ele>530.0</ele><time>2026-05-02T15:44:27.999Z</time></trkpt><trkpt lat="43.767545540813295" lon="11.836862562375833"><ele>525.25</ele><time>2026-05-02T15:44:28.999Z</time></trkpt><trkpt lat="43.76752716939923" lon="11.836718921474876"><ele>520.5</ele><time>2026-05-02T15:44:29.999Z</time></trkpt><trkpt lat="43.76746272906584" lon="11.836571382658896"><ele>515.75</ele><time>2026-05-02T15:44:30.999Z</time></trkpt><trkpt lat="43.76736335276946" lon="11.836406167338396"><ele>511.0</ele><time>2026-05-02T15:44:31.999Z</time></trkpt><trkpt lat="43.76726898320006" lon="11.836242193900615"><ele>511.0</ele><time>2026-05-02T15:44:32.999Z</time></trkpt><trkpt lat="43.76715880441667" lon="11.836127689947308"><ele>511.0</ele><time>2026-05-02T15:44:33.999Z</time></trkpt><trkpt lat="43.76703816123504" lon="11.836061480003798"><ele>511.0</ele><time>2026-05-02T15:44:34.999Z</time></trkpt><trkpt lat="43.766887289132086" lon="11.836052294861277"><ele>511.0</ele><time>2026-05-02T15:44:35.999Z</time></trkpt><trkpt lat="43.766715407379316" lon="11.836069855107262"><ele>508.6666666666667</ele><time>2026-05-02T15:44:36.999Z</time></trkpt><trkpt lat="43.766518372440785" lon="11.836099939966212"><ele>506.33333333333337</ele><time>2026-05-02T15:44:37.999Z</time></trkpt><trkpt lat="43.76630078393971" lon="11.836134641811768"><ele>504.0</ele><time>2026-05-02T15:44:38.999Z</time></trkpt><trkpt lat="43.76610178576741" lon="11.83619022169767"><ele>507.0</ele><time>2026-05-02T15:44:39.999Z</time></trkpt><trkpt lat="43.76590403298608" lon="11.836309925468464"><ele>510.0</ele><time>2026-05-02T15:44:40.999Z</time></trkpt><trkpt lat="43.76572085549792" lon="11.836438478157978"><ele>513.0</ele><time>2026-05-02T15:44:41.999Z</time></trkpt><trkpt lat="43.76555358567978" lon="11.83647657173104"><ele>513.0</ele><time>2026-05-02T15:44:42.999Z</time></trkpt><trkpt lat="43.765390886981116" lon="11.836485814964867"><ele>513.0</ele><time>2026-05-02T15:44:43.999Z</time></trkpt><trkpt lat="43.76519726709611" lon="11.836503357747704"><ele>513.0</ele><time>2026-05-02T15:44:44.999Z</time></trkpt><trkpt lat="43.76498949981751" lon="11.83646176779191"><ele>514.0</ele><time>2026-05-02T15:44:45.999Z</time></trkpt><trkpt lat="43.764803721331" lon="11.836418669052664"><ele>515.0</ele><time>2026-05-02T15:44:46.999Z</time></trkpt><trkpt lat="43.76461897573119" lon="11.836425055534203"><ele>516.0</ele><time>2026-05-02T15:44:47.999Z</time></trkpt><trkpt lat="43.76444615267886" lon="11.836479975323204"><ele>515.6666666666666</ele><time>2026-05-02T15:44:48.999Z</time></trkpt><trkpt lat="43.76428314923686" lon="11.836524150800972"><ele>515.3333333333333</ele><time>2026-05-02T15:44:49.999Z</time></trkpt><trkpt lat="43.76413580193815" lon="11.836558543694183"><ele>515.0</ele><time>2026-05-02T15:44:50.999Z</time></trkpt><trkpt lat="43.76399386050406" lon="11.836533833659916"><ele>515.0</ele><time>2026-05-02T15:44:51.999Z</time></trkpt><trkpt lat="43.76386011872849" lon="11.836522723968145"><ele>515.0</ele><time>2026-05-02T15:44:52.999Z</time></trkpt><trkpt lat="43.763734794737914" lon="11.836442005846258"><ele>515.0</ele><time>2026-05-02T15:44:53.999Z</time></trkpt><trkpt lat="43.763617259172705" lon="11.83634340043375"><ele>515.0</ele><time>2026-05-02T15:44:54.999Z</time></trkpt><trkpt lat="43.76347615765138" lon="11.836219772883744"><ele>517.0</ele><time>2026-05-02T15:44:55.999Z</time></trkpt><trkpt lat="43.763365308302674" lon="11.83608334627831"><ele>519.0</ele><time>2026-05-02T15:44:56.999Z</time></trkpt><trkpt lat="43.76326411925774" lon="11.835937632009324"><ele>521.0</ele><time>2026-05-02T15:44:57.999Z</time></trkpt><trkpt lat="43.7631620862474" lon="11.835783532993064"><ele>523.0</ele><time>2026-05-02T15:44:58.999Z</time></trkpt><trkpt lat="43.76305681290012" lon="11.835642299899622"><ele>523.0</ele><time>2026-05-02T15:44:59.999Z</time></trkpt><trkpt lat="43.76294649082682" lon="11.835523101133726"><ele>523.0</ele><time>2026-05-02T15:45:00.999Z</time></trkpt><trkpt lat="43.762813913954105" lon="11.835426681971947"><ele>523.0</ele><time>2026-05-02T15:45:01.999Z</time></trkpt><trkpt lat="43.76267804209216" lon="11.835364698796324"><ele>523.0</ele><time>2026-05-02T15:45:02.999Z</time></trkpt><trkpt lat="43.76253547058836" lon="11.835342471469865"><ele>517.5</ele><time>2026-05-02T15:45:04Z</time></trkpt><trkpt lat="43.76240517623865" lon="11.835350273836196"><ele>512.0</ele><time>2026-05-02T15:45:05Z</time></trkpt><trkpt lat="43.76226511194503" lon="11.835372581254639"><ele>506.5</ele><time>2026-05-02T15:45:06Z</time></trkpt><trkpt lat="43.76213872954209" lon="11.835396858802152"><ele>501.0</ele><time>2026-05-02T15:45:07Z</time></trkpt><trkpt lat="43.762021635884096" lon="11.835401739767608"><ele>501.0</ele><time>2026-05-02T15:45:08Z</time></trkpt><trkpt lat="43.761911925588755" lon="11.835417896661067"><ele>501.0</ele><time>2026-05-02T15:45:09Z</time></trkpt><trkpt lat="43.76180923939544" lon="11.835413260183968"><ele>501.0</ele><time>2026-05-02T15:45:10Z</time></trkpt><trkpt lat="43.76170873081214" lon="11.835378872789438"><ele>501.0</ele><time>2026-05-02T15:45:11Z</time></trkpt><trkpt lat="43.76162886014299" lon="11.83528343019463"><ele>501.0</ele><time>2026-05-02T15:45:12Z</time></trkpt><trkpt lat="43.76157942166829" lon="11.83512774671067"><ele>503.0</ele><time>2026-05-02T15:45:13Z</time></trkpt><trkpt lat="43.76150937289088" lon="11.834975285005696"><ele>505.0</ele><time>2026-05-02T15:45:14Z</time></trkpt><trkpt lat="43.761450296779095" lon="11.834826038565442"><ele>507.0</ele><time>2026-05-02T15:45:15Z</time></trkpt><trkpt lat="43.76137752968689" lon="11.834698301016571"><ele>509.0</ele><time>2026-05-02T15:45:16Z</time></trkpt><trkpt lat="43.76129169104261" lon="11.834576359995662"><ele>509.0</ele><time>2026-05-02T15:45:17Z</time></trkpt><trkpt lat="43.76120231936563" lon="11.834463292998171"><ele>509.0</ele><time>2026-05-02T15:45:18Z</time></trkpt><trkpt lat="43.76111492545394" lon="11.83432886413681"><ele>509.0</ele><time>2026-05-02T15:45:19Z</time></trkpt><trkpt lat="43.761041239514846" lon="11.834126838252882"><ele>509.0</ele><time>2026-05-02T15:45:20Z</time></trkpt><trkpt lat="43.760949295047055" lon="11.833872796964299"><ele>507.0</ele><time>2026-05-02T15:45:21Z</time></trkpt><trkpt lat="43.76083951148916" lon="11.833602631100263"><ele>505.0</ele><time>2026-05-02T15:45:22Z</time></trkpt><trkpt lat="43.76074458252748" lon="11.833304023779815"><ele>505.0</ele><time>2026-05-02T15:45:23Z</time></trkpt><trkpt lat="43.760641289318556" lon="11.832999158317524"><ele>505.0</ele><time>2026-05-02T15:45:24Z</time></trkpt><trkpt lat="43.76054559006614" lon="11.832721057421066"><ele>509.6666666666667</ele><time>2026-05-02T15:45:25Z</time></trkpt><trkpt lat="43.76045503637295" lon="11.832453657975483"><ele>514.3333333333334</ele><time>2026-05-02T15:45:26Z</time></trkpt><trkpt lat="43.76034959614397" lon="11.83219273133554"><ele>519.0</ele><time>2026-05-02T15:45:27Z</time></trkpt><trkpt lat="43.76021665979859" lon="11.831937252666272"><ele>509.5</ele><time>2026-05-02T15:45:28Z</time></trkpt><trkpt lat="43.76005173424953" lon="11.831704212196236"><ele>500.0</ele><time>2026-05-02T15:45:29Z</time></trkpt><trkpt lat="43.75986916052499" lon="11.831480461355678"><ele>500.0</ele><time>2026-05-02T15:45:30Z</time></trkpt><trkpt lat="43.75968460731762" lon="11.831288816432206"><ele>500.0</ele><time>2026-05-02T15:45:31Z</time></trkpt><trkpt lat="43.75949227051494" lon="11.831140568757117"><ele>499.3333333333333</ele><time>2026-05-02T15:45:32Z</time></trkpt><trkpt lat="43.75929619493479" lon="11.831035471431132"><ele>498.66666666666663</ele><time>2026-05-02T15:45:33Z</time></trkpt><trkpt lat="43.75910643128738" lon="11.830936125683605"><ele>498.0</ele><time>2026-05-02T15:45:34Z</time></trkpt><trkpt lat="43.758938381311246" lon="11.83081155735604"><ele>498.0</ele><time>2026-05-02T15:45:35Z</time></trkpt><trkpt lat="43.75880287836946" lon="11.83061633866121"><ele>498.0</ele><time>2026-05-02T15:45:36Z</time></trkpt><trkpt lat="43.75868040200715" lon="11.830460894493735"><ele>498.0</ele><time>2026-05-02T15:45:37Z</time></trkpt><trkpt lat="43.75853698703188" lon="11.830272095446539"><ele>495.0</ele><time>2026-05-02T15:45:38Z</time></trkpt><trkpt lat="43.75834836756054" lon="11.830187112535095"><ele>492.0</ele><time>2026-05-02T15:45:39Z</time></trkpt><trkpt lat="43.75811711767732" lon="11.830139507397172"><ele>489.0</ele><time>2026-05-02T15:45:40Z</time></trkpt><trkpt lat="43.75787798815497" lon="11.830106953448581"><ele>484.66666666666663</ele><time>2026-05-02T15:45:41Z</time></trkpt><trkpt lat="43.757663171174244" lon="11.830068876662835"><ele>480.3333333333333</ele><time>2026-05-02T15:45:42Z</time></trkpt><trkpt lat="43.757470581262005" lon="11.83002288953609"><ele>476.0</ele><time>2026-05-02T15:45:43Z</time></trkpt><trkpt lat="43.75730296660804" lon="11.829930423208507"><ele>476.0</ele><time>2026-05-02T15:45:44Z</time></trkpt><trkpt lat="43.7571555622295" lon="11.829808010006683"><ele>476.0</ele><time>2026-05-02T15:45:45Z</time></trkpt><trkpt lat="43.75702275614493" lon="11.829637848748625"><ele>476.0</ele><time>2026-05-02T15:45:46Z</time></trkpt><trkpt lat="43.75691067843114" lon="11.829479994987182"><ele>473.66666666666663</ele><time>2026-05-02T15:45:47Z</time></trkpt><trkpt lat="43.756849670237884" lon="11.829297634193228"><ele>471.33333333333337</ele><time>2026-05-02T15:45:48Z</time></trkpt><trkpt lat="43.756847412064616" lon="11.82907592397117"><ele>469.0</ele><time>2026-05-02T15:45:49Z</time></trkpt><trkpt lat="43.756831308354336" lon="11.828863990327953"><ele>469.0</ele><time>2026-05-02T15:45:50Z</time></trkpt><trkpt lat="43.756807942848255" lon="11.828666594681549"><ele>469.0</ele><time>2026-05-02T15:45:51Z</time></trkpt><trkpt lat="43.75673141140049" lon="11.828490351954223"><ele>469.0</ele><time>2026-05-02T15:45:52Z</time></trkpt><trkpt lat="43.756589279248914" lon="11.828342299756946"><ele>471.33333333333337</ele><time>2026-05-02T15:45:53Z</time></trkpt><trkpt lat="43.75641032175358" lon="11.828207981975359"><ele>473.66666666666663</ele><time>2026-05-02T15:45:54Z</time></trkpt><trkpt lat="43.75620077725367" lon="11.828081462159702"><ele>476.0</ele><time>2026-05-02T15:45:55Z</time></trkpt><trkpt lat="43.755971854754755" lon="11.82795028196653"><ele>468.5</ele><time>2026-05-02T15:45:56Z</time></trkpt><trkpt lat="43.75574128114999" lon="11.827810131970729"><ele>461.0</ele><time>2026-05-02T15:45:57Z</time></trkpt><trkpt lat="43.75551107335416" lon="11.827654718945709"><ele>461.5</ele><time>2026-05-02T15:45:58Z</time></trkpt><trkpt lat="43.75528095501173" lon="11.827469394386354"><ele>462.0</ele><time>2026-05-02T15:45:59Z</time></trkpt><trkpt lat="43.75506689120819" lon="11.827278540877652"><ele>462.0</ele><time>2026-05-02T15:46:00Z</time></trkpt><trkpt lat="43.754854339624316" lon="11.827119601724442"><ele>462.0</ele><time>2026-05-02T15:46:00.999Z</time></trkpt><trkpt lat="43.75464890536052" lon="11.826999925600813"><ele>462.0</ele><time>2026-05-02T15:46:01.999Z</time></trkpt><trkpt lat="43.75444285334123" lon="11.826885527087184"><ele>462.0</ele><time>2026-05-02T15:46:02.999Z</time></trkpt><trkpt lat="43.75425008453741" lon="11.826749497762414"><ele>462.0</ele><time>2026-05-02T15:46:03.999Z</time></trkpt><trkpt lat="43.75407446464964" lon="11.826561087546175"><ele>460.66666666666663</ele><time>2026-05-02T15:46:04.999Z</time></trkpt><trkpt lat="43.75389816776549" lon="11.82638289686485"><ele>459.3333333333333</ele><time>2026-05-02T15:46:05.999Z</time></trkpt><trkpt lat="43.75373448235385" lon="11.826204330931457"><ele>458.0</ele><time>2026-05-02T15:46:06.999Z</time></trkpt><trkpt lat="43.75355459044327" lon="11.826070250578182"><ele>457.3333333333333</ele><time>2026-05-02T15:46:07.999Z</time></trkpt><trkpt lat="43.75335850487932" lon="11.825994772585346"><ele>456.66666666666663</ele><time>2026-05-02T15:46:08.999Z</time></trkpt><trkpt lat="43.753165381636094" lon="11.825969279489653"><ele>456.0</ele><time>2026-05-02T15:46:09.999Z</time></trkpt><trkpt lat="43.75298227020647" lon="11.82594148659893"><ele>456.0</ele><time>2026-05-02T15:46:10.999Z</time></trkpt><trkpt lat="43.75281151404286" lon="11.825888301021202"><ele>456.0</ele><time>2026-05-02T15:46:11.999Z</time></trkpt><trkpt lat="43.752648794199864" lon="11.825808569408476"><ele>456.0</ele><time>2026-05-02T15:46:12.999Z</time></trkpt><trkpt lat="43.75249298149835" lon="11.825726061690423"><ele>454.0</ele><time>2026-05-02T15:46:13.999Z</time></trkpt><trkpt lat="43.75234749383673" lon="11.825649087272094"><ele>452.0</ele><time>2026-05-02T15:46:14.999Z</time></trkpt><trkpt lat="43.75221285000107" lon="11.825560225261414"><ele>450.0</ele><time>2026-05-02T15:46:15.999Z</time></trkpt><trkpt lat="43.75209457267192" lon="11.825448183259354"><ele>448.0</ele><time>2026-05-02T15:46:16.999Z</time></trkpt><trkpt lat="43.751984336219024" lon="11.825328974249782"><ele>448.0</ele><time>2026-05-02T15:46:17.999Z</time></trkpt><trkpt lat="43.75187949751359" lon="11.825195708699598"><ele>448.0</ele><time>2026-05-02T15:46:18.999Z</time></trkpt><trkpt lat="43.751769135352845" lon="11.82505038518145"><ele>448.0</ele><time>2026-05-02T15:46:19.999Z</time></trkpt><trkpt lat="43.7516606005051" lon="11.824877638995439"><ele>447.6666666666667</ele><time>2026-05-02T15:46:20.999Z</time></trkpt><trkpt lat="43.751536922585444" lon="11.824719804620235"><ele>447.33333333333337</ele><time>2026-05-02T15:46:21.999Z</time></trkpt><trkpt lat="43.75140991929989" lon="11.824565969903464"><ele>447.0</ele><time>2026-05-02T15:46:22.999Z</time></trkpt><trkpt lat="43.75128346672295" lon="11.824442592496528"><ele>447.0</ele><time>2026-05-02T15:46:23.999Z</time></trkpt><trkpt lat="43.75118509939233" lon="11.82431435732272"><ele>447.0</ele><time>2026-05-02T15:46:24.999Z</time></trkpt><trkpt lat="43.751087656648565" lon="11.824203164118183"><ele>447.0</ele><time>2026-05-02T15:46:25.999Z</time></trkpt><trkpt lat="43.750995108766595" lon="11.824101765227494"><ele>447.0</ele><time>2026-05-02T15:46:26.999Z</time></trkpt><trkpt lat="43.750910045278154" lon="11.823999289396438"><ele>445.6</ele><time>2026-05-02T15:46:27.999Z</time></trkpt><trkpt lat="43.75082780981671" lon="11.823903361404986"><ele>444.20000000000005</ele><time>2026-05-02T15:46:28.999Z</time></trkpt><trkpt lat="43.75074814663075" lon="11.82381270026703"><ele>442.8</ele><time>2026-05-02T15:46:29.999Z</time></trkpt><trkpt lat="43.75066707654165" lon="11.823724946445383"><ele>441.4</ele><time>2026-05-02T15:46:30.999Z</time></trkpt><trkpt lat="43.750582014189135" lon="11.823634121523481"><ele>440.0</ele><time>2026-05-02T15:46:31.999Z</time></trkpt><trkpt lat="43.750489586048154" lon="11.823527864539182"><ele>440.75</ele><time>2026-05-02T15:46:32.999Z</time></trkpt><trkpt lat="43.75038088905501" lon="11.823421047572731"><ele>441.5</ele><time>2026-05-02T15:46:33.999Z</time></trkpt><trkpt lat="43.75026793665566" lon="11.823297659271864"><ele>442.25</ele><time>2026-05-02T15:46:34.999Z</time></trkpt><trkpt lat="43.75015943779577" lon="11.823169607071586"><ele>443.0</ele><time>2026-05-02T15:46:35.999Z</time></trkpt><trkpt lat="43.75005648772168" lon="11.82305417428836"><ele>441.0</ele><time>2026-05-02T15:46:36.999Z</time></trkpt><trkpt lat="43.74995649667129" lon="11.82293493247606"><ele>439.0</ele><time>2026-05-02T15:46:37.999Z</time></trkpt><trkpt lat="43.74986368237054" lon="11.822817698422986"><ele>437.0</ele><time>2026-05-02T15:46:38.999Z</time></trkpt><trkpt lat="43.749777415556444" lon="11.822693642339832"><ele>435.0</ele><time>2026-05-02T15:46:39.999Z</time></trkpt><trkpt lat="43.74971647334731" lon="11.822561530134667"><ele>435.0</ele><time>2026-05-02T15:46:40.999Z</time></trkpt><trkpt lat="43.74966864690436" lon="11.822419539718432"><ele>435.0</ele><time>2026-05-02T15:46:41.999Z</time></trkpt><trkpt lat="43.749628798511836" lon="11.82228882465984"><ele>435.0</ele><time>2026-05-02T15:46:42.999Z</time></trkpt><trkpt lat="43.74957371738625" lon="11.822146086896026"><ele>435.0</ele><time>2026-05-02T15:46:43.999Z</time></trkpt><trkpt lat="43.74950369472795" lon="11.82200124939385"><ele>435.0</ele><time>2026-05-02T15:46:44.999Z</time></trkpt><trkpt lat="43.749412521758295" lon="11.82186493006086"><ele>435.0</ele><time>2026-05-02T15:46:45.999Z</time></trkpt><trkpt lat="43.74930732876607" lon="11.82172787847899"><ele>435.0</ele><time>2026-05-02T15:46:46.999Z</time></trkpt><trkpt lat="43.74919400458893" lon="11.821594820874806"><ele>435.0</ele><time>2026-05-02T15:46:47.999Z</time></trkpt><trkpt lat="43.74908904180763" lon="11.821461287317867"><ele>435.0</ele><time>2026-05-02T15:46:48.999Z</time></trkpt><trkpt lat="43.74898529225696" lon="11.82133532411724"><ele>435.0</ele><time>2026-05-02T15:46:49.999Z</time></trkpt><trkpt lat="43.74887961639593" lon="11.82120005565618"><ele>435.0</ele><time>2026-05-02T15:46:50.999Z</time></trkpt><trkpt lat="43.74877740754736" lon="11.821067269110875"><ele>435.0</ele><time>2026-05-02T15:46:51.999Z</time></trkpt><trkpt lat="43.748685476295826" lon="11.820942310816141"><ele>435.0</ele><time>2026-05-02T15:46:52.999Z</time></trkpt><trkpt lat="43.748597678354805" lon="11.82083078768502"><ele>435.0</ele><time>2026-05-02T15:46:53.999Z</time></trkpt><trkpt lat="43.748514472430415" lon="11.820725380393657"><ele>435.0</ele><time>2026-05-02T15:46:54.999Z</time></trkpt><trkpt lat="43.7484249521895" lon="11.820616951484762"><ele>435.0</ele><time>2026-05-02T15:46:55.999Z</time></trkpt><trkpt lat="43.74832632515851" lon="11.82050113611716"><ele>436.25</ele><time>2026-05-02T15:46:56.999Z</time></trkpt><trkpt lat="43.74822032035609" lon="11.820391754277692"><ele>437.5</ele><time>2026-05-02T15:46:57.999Z</time></trkpt><trkpt lat="43.74809595355887" lon="11.820279450759422"><ele>438.75</ele><time>2026-05-02T15:46:58.999Z</time></trkpt><trkpt lat="43.74795751913926" lon="11.820154054670658"><ele>440.0</ele><time>2026-05-02T15:46:59.999Z</time></trkpt><trkpt lat="43.74780888956398" lon="11.820019449894136"><ele>437.0</ele><time>2026-05-02T15:47:00.999Z</time></trkpt><trkpt lat="43.747653015940976" lon="11.819877866536173"><ele>434.0</ele><time>2026-05-02T15:47:01.999Z</time></trkpt><trkpt lat="43.74749002430358" lon="11.819727913181001"><ele>431.0</ele><time>2026-05-02T15:47:02.999Z</time></trkpt><trkpt lat="43.74731733062138" lon="11.819569475668825"><ele>431.0</ele><time>2026-05-02T15:47:03.999Z</time></trkpt><trkpt lat="43.74715451238943" lon="11.81941515059781"><ele>431.0</ele><time>2026-05-02T15:47:04.999Z</time></trkpt><trkpt lat="43.74699853147657" lon="11.819269698146936"><ele>431.0</ele><time>2026-05-02T15:47:05.999Z</time></trkpt><trkpt lat="43.74683641425602" lon="11.819121281978257"><ele>429.0</ele><time>2026-05-02T15:47:06.999Z</time></trkpt><trkpt lat="43.74667381111958" lon="11.818974904666408"><ele>427.0</ele><time>2026-05-02T15:47:07.999Z</time></trkpt><trkpt lat="43.746516512872354" lon="11.818838308956606"><ele>425.0</ele><time>2026-05-02T15:47:09Z</time></trkpt><trkpt lat="43.746366783226634" lon="11.818713818458203"><ele>425.0</ele><time>2026-05-02T15:47:10Z</time></trkpt><trkpt lat="43.74621737386462" lon="11.818606659551552"><ele>425.0</ele><time>2026-05-02T15:47:11Z</time></trkpt><trkpt lat="43.74607285818076" lon="11.81851764122589"><ele>425.0</ele><time>2026-05-02T15:47:12Z</time></trkpt><trkpt lat="43.7459400540609" lon="11.818423761841595"><ele>424.3333333333333</ele><time>2026-05-02T15:47:13Z</time></trkpt><trkpt lat="43.74582443897819" lon="11.818295210060604"><ele>423.66666666666663</ele><time>2026-05-02T15:47:14Z</time></trkpt><trkpt lat="43.74571465970195" lon="11.818099698719646"><ele>423.0</ele><time>2026-05-02T15:47:15Z</time></trkpt><trkpt lat="43.745585522904136" lon="11.817911383414424"><ele>423.0</ele><time>2026-05-02T15:47:16Z</time></trkpt><trkpt lat="43.74542623536301" lon="11.817745876301174"><ele>423.0</ele><time>2026-05-02T15:47:17Z</time></trkpt><trkpt lat="43.745241168697206" lon="11.817599384206776"><ele>423.0</ele><time>2026-05-02T15:47:18Z</time></trkpt><trkpt lat="43.745048275596844" lon="11.817463830063213"><ele>423.0</ele><time>2026-05-02T15:47:19Z</time></trkpt><trkpt lat="43.744863066933796" lon="11.817338751626975"><ele>423.0</ele><time>2026-05-02T15:47:20Z</time></trkpt><trkpt lat="43.74467695830475" lon="11.81720301675675"><ele>423.0</ele><time>2026-05-02T15:47:21Z</time></trkpt><trkpt lat="43.74450179407583" lon="11.817051630052008"><ele>422.0</ele><time>2026-05-02T15:47:22Z</time></trkpt><trkpt lat="43.74434085969872" lon="11.81690476677544"><ele>421.0</ele><time>2026-05-02T15:47:23Z</time></trkpt><trkpt lat="43.744192249908984" lon="11.816761014380912"><ele>420.0</ele><time>2026-05-02T15:47:24Z</time></trkpt><trkpt lat="43.7440593693259" lon="11.8166031299535"><ele>420.0</ele><time>2026-05-02T15:47:25Z</time></trkpt><trkpt lat="43.74394641519891" lon="11.816419679985861"><ele>420.0</ele><time>2026-05-02T15:47:26Z</time></trkpt><trkpt lat="43.74385395306708" lon="11.816172487585447"><ele>420.0</ele><time>2026-05-02T15:47:27Z</time></trkpt><trkpt lat="43.7437665111844" lon="11.815923115092057"><ele>420.33333333333337</ele><time>2026-05-02T15:47:28Z</time></trkpt><trkpt lat="43.74368161303043" lon="11.815702641813068"><ele>420.6666666666667</ele><time>2026-05-02T15:47:29Z</time></trkpt><trkpt lat="43.74359161189805" lon="11.815494778302076"><ele>421.0</ele><time>2026-05-02T15:47:30Z</time></trkpt><trkpt lat="43.743475987405674" lon="11.815294505103953"><ele>422.6666666666667</ele><time>2026-05-02T15:47:31Z</time></trkpt><trkpt lat="43.74333085457997" lon="11.815105461602025"><ele>424.33333333333337</ele><time>2026-05-02T15:47:32Z</time></trkpt><trkpt lat="43.743170040721544" lon="11.814916239256526"><ele>426.0</ele><time>2026-05-02T15:47:33Z</time></trkpt><trkpt lat="43.743008827098" lon="11.814740689205662"><ele>426.0</ele><time>2026-05-02T15:47:34Z</time></trkpt><trkpt lat="43.742867154615155" lon="11.814593742029269"><ele>426.0</ele><time>2026-05-02T15:47:35Z</time></trkpt><trkpt lat="43.742733255303364" lon="11.81446399088155"><ele>426.0</ele><time>2026-05-02T15:47:36Z</time></trkpt><trkpt lat="43.74258666319641" lon="11.814370517638197"><ele>424.66666666666663</ele><time>2026-05-02T15:47:37Z</time></trkpt><trkpt lat="43.742418202135774" lon="11.814312158344817"><ele>423.3333333333333</ele><time>2026-05-02T15:47:38Z</time></trkpt><trkpt lat="43.742225629823466" lon="11.81427733562071"><ele>422.0</ele><time>2026-05-02T15:47:39Z</time></trkpt><trkpt lat="43.74203053885946" lon="11.814240021127118"><ele>420.0</ele><time>2026-05-02T15:47:40Z</time></trkpt><trkpt lat="43.74181803397436" lon="11.814184962265099"><ele>418.0</ele><time>2026-05-02T15:47:41Z</time></trkpt><trkpt lat="43.74160146803681" lon="11.814127708185753"><ele>416.0</ele><time>2026-05-02T15:47:42Z</time></trkpt><trkpt lat="43.741375230429924" lon="11.814070407544026"><ele>416.0</ele><time>2026-05-02T15:47:43Z</time></trkpt><trkpt lat="43.74116290850569" lon="11.814017485903234"><ele>416.0</ele><time>2026-05-02T15:47:44Z</time></trkpt><trkpt lat="43.740970950605146" lon="11.813966167644388"><ele>416.0</ele><time>2026-05-02T15:47:45Z</time></trkpt><trkpt lat="43.74079428143288" lon="11.813917011674326"><ele>415.25</ele><time>2026-05-02T15:47:46Z</time></trkpt><trkpt lat="43.740632269561665" lon="11.813873761242048"><ele>414.5</ele><time>2026-05-02T15:47:47Z</time></trkpt><trkpt lat="43.74049042320813" lon="11.813835027903425"><ele>413.75</ele><time>2026-05-02T15:47:48Z</time></trkpt><trkpt lat="43.74035600818554" lon="11.81380146214977"><ele>413.0</ele><time>2026-05-02T15:47:49Z</time></trkpt><trkpt lat="43.74022844209175" lon="11.813767733682786"><ele>412.79999999999995</ele><time>2026-05-02T15:47:50Z</time></trkpt><trkpt lat="43.74011613484931" lon="11.813735986655775"><ele>412.6</ele><time>2026-05-02T15:47:51Z</time></trkpt><trkpt lat="43.74001542745986" lon="11.813707340053838"><ele>412.4</ele><time>2026-05-02T15:47:52Z</time></trkpt><trkpt lat="43.739922015105826" lon="11.813687299167904"><ele>412.20000000000005</ele><time>2026-05-02T15:47:53Z</time></trkpt><trkpt lat="43.7398355330695" lon="11.813666360692082"><ele>412.0</ele><time>2026-05-02T15:47:53.999Z</time></trkpt><trkpt lat="43.73974948134205" lon="11.813642508687126"><ele>412.0</ele><time>2026-05-02T15:47:54.999Z</time></trkpt><trkpt lat="43.73966150515904" lon="11.813622046785309"><ele>412.0</ele><time>2026-05-02T15:47:55.999Z</time></trkpt><trkpt lat="43.73955673273344" lon="11.813595192486133"><ele>412.0</ele><time>2026-05-02T15:47:56.999Z</time></trkpt><trkpt lat="43.73945510814975" lon="11.813562820298696"><ele>412.0</ele><time>2026-05-02T15:47:57.999Z</time></trkpt><trkpt lat="43.73933080513878" lon="11.813521273223715"><ele>412.0</ele><time>2026-05-02T15:47:58.999Z</time></trkpt><trkpt lat="43.7391902932001" lon="11.81349081739617"><ele>411.33333333333337</ele><time>2026-05-02T15:47:59.999Z</time></trkpt><trkpt lat="43.73904178947422" lon="11.813464333099633"><ele>410.66666666666663</ele><time>2026-05-02T15:48:00.999Z</time></trkpt><trkpt lat="43.738877145382446" lon="11.813423177067188"><ele>410.0</ele><time>2026-05-02T15:48:01.999Z</time></trkpt><trkpt lat="43.73870298940413" lon="11.813368159266972"><ele>409.3333333333333</ele><time>2026-05-02T15:48:02.999Z</time></trkpt><trkpt lat="43.73851790595523" lon="11.81332439724591"><ele>408.66666666666663</ele><time>2026-05-02T15:48:03.999Z</time></trkpt><trkpt lat="43.73835598574169" lon="11.813277387072048"><ele>408.0</ele><time>2026-05-02T15:48:04.999Z</time></trkpt><trkpt lat="43.738195388547" lon="11.813235510851332"><ele>408.0</ele><time>2026-05-02T15:48:05.999Z</time></trkpt><trkpt lat="43.73803950946008" lon="11.813204917942"><ele>408.0</ele><time>2026-05-02T15:48:06.999Z</time></trkpt><trkpt lat="43.737875171634855" lon="11.813176121961577"><ele>408.0</ele><time>2026-05-02T15:48:07.999Z</time></trkpt><trkpt lat="43.73770465619167" lon="11.813133150511813"><ele>407.33333333333337</ele><time>2026-05-02T15:48:08.999Z</time></trkpt><trkpt lat="43.73753781226651" lon="11.813082660417255"><ele>406.6666666666667</ele><time>2026-05-02T15:48:09.999Z</time></trkpt><trkpt lat="43.73737919611308" lon="11.813029070393435"><ele>406.0</ele><time>2026-05-02T15:48:10.999Z</time></trkpt><trkpt lat="43.73721952941907" lon="11.8129848698707"><ele>406.0</ele><time>2026-05-02T15:48:11.999Z</time></trkpt><trkpt lat="43.73706892833593" lon="11.812941034223638"><ele>406.0</ele><time>2026-05-02T15:48:12.999Z</time></trkpt><trkpt lat="43.73692398710413" lon="11.812900748611991"><ele>406.0</ele><time>2026-05-02T15:48:13.999Z</time></trkpt><trkpt lat="43.736783695745466" lon="11.812868446115697"><ele>406.0</ele><time>2026-05-02T15:48:14.999Z</time></trkpt><trkpt lat="43.736652257663344" lon="11.81283982808965"><ele>405.50000000000006</ele><time>2026-05-02T15:48:15.999Z</time></trkpt><trkpt lat="43.73653900631975" lon="11.812815541931583"><ele>405.0</ele><time>2026-05-02T15:48:16.999Z</time></trkpt><trkpt lat="43.73643949138325" lon="11.812791697578904"><ele>404.5</ele><time>2026-05-02T15:48:17.999Z</time></trkpt><trkpt lat="43.73635190952107" lon="11.812778688810067"><ele>404.0</ele><time>2026-05-02T15:48:18.999Z</time></trkpt><trkpt lat="43.73628376015418" lon="11.812760588728544"><ele>403.50000000000006</ele><time>2026-05-02T15:48:19.999Z</time></trkpt><trkpt lat="43.73622401217688" lon="11.812703975745096"><ele>403.0</ele><time>2026-05-02T15:48:21.999Z</time></trkpt><trkpt lat="43.73625306557829" lon="11.81250229158851"><ele>403.0</ele><time>2026-05-02T15:48:22.999Z</time></trkpt><trkpt lat="43.73627477171918" lon="11.812350913481948"><ele>403.0</ele><time>2026-05-02T15:48:23.999Z</time></trkpt><trkpt lat="43.73631946711243" lon="11.812185990315461"><ele>403.0</ele><time>2026-05-02T15:48:24.999Z</time></trkpt><trkpt lat="43.736376698061015" lon="11.811998113553024"><ele>403.0</ele><time>2026-05-02T15:48:25.999Z</time></trkpt><trkpt lat="43.73642968852494" lon="11.81179033988622"><ele>403.0</ele><time>2026-05-02T15:48:26.999Z</time></trkpt><trkpt lat="43.73648526202657" lon="11.811567679790189"><ele>403.0</ele><time>2026-05-02T15:48:27.999Z</time></trkpt><trkpt lat="43.73655194745676" lon="11.81132478469664"><ele>403.0</ele><time>2026-05-02T15:48:28.999Z</time></trkpt><trkpt lat="43.7366166829284" lon="11.81106250675664"><ele>402.0</ele><time>2026-05-02T15:48:29.999Z</time></trkpt><trkpt lat="43.73667769350514" lon="11.810803920812791"><ele>401.0</ele><time>2026-05-02T15:48:30.999Z</time></trkpt><trkpt lat="43.73674160866215" lon="11.810562324432173"><ele>400.0</ele><time>2026-05-02T15:48:31.999Z</time></trkpt><trkpt lat="43.736797309425384" lon="11.810320840599633"><ele>399.6666666666667</ele><time>2026-05-02T15:48:32.999Z</time></trkpt><trkpt lat="43.736865773165405" lon="11.810073846325555"><ele>399.33333333333337</ele><time>2026-05-02T15:48:33.999Z</time></trkpt><trkpt lat="43.7369325497636" lon="11.809810347663104"><ele>399.0</ele><time>2026-05-02T15:48:34.999Z</time></trkpt><trkpt lat="43.73699848416684" lon="11.809531302401226"><ele>400.0</ele><time>2026-05-02T15:48:35.999Z</time></trkpt><trkpt lat="43.73707227994749" lon="11.809252153826678"><ele>401.0</ele><time>2026-05-02T15:48:36.999Z</time></trkpt><trkpt lat="43.73714887927253" lon="11.808966708345336"><ele>402.0</ele><time>2026-05-02T15:48:37.999Z</time></trkpt><trkpt lat="43.73722262761858" lon="11.80869450574908"><ele>401.33333333333337</ele><time>2026-05-02T15:48:38.999Z</time></trkpt><trkpt lat="43.73729518295585" lon="11.80842343515936"><ele>400.6666666666667</ele><time>2026-05-02T15:48:39.999Z</time></trkpt><trkpt lat="43.73736769500948" lon="11.808135588336851"><ele>400.0</ele><time>2026-05-02T15:48:40.999Z</time></trkpt><trkpt lat="43.73744481642785" lon="11.807838879552937"><ele>399.0</ele><time>2026-05-02T15:48:41.999Z</time></trkpt><trkpt lat="43.73752436811777" lon="11.807538549588473"><ele>398.0</ele><time>2026-05-02T15:48:42.999Z</time></trkpt><trkpt lat="43.7376023143537" lon="11.807229622859523"><ele>398.0</ele><time>2026-05-02T15:48:43.999Z</time></trkpt><trkpt lat="43.73768029217446" lon="11.806919494976182"><ele>398.0</ele><time>2026-05-02T15:48:44.999Z</time></trkpt><trkpt lat="43.73775657235726" lon="11.806618376738419"><ele>400.0</ele><time>2026-05-02T15:48:45.999Z</time></trkpt><trkpt lat="43.73782679854997" lon="11.806342535075443"><ele>402.0</ele><time>2026-05-02T15:48:46.999Z</time></trkpt><trkpt lat="43.73790772127331" lon="11.80609092215259"><ele>404.0</ele><time>2026-05-02T15:48:47.999Z</time></trkpt><trkpt lat="43.73797680049956" lon="11.805796649034889"><ele>404.3333333333333</ele><time>2026-05-02T15:48:48.999Z</time></trkpt><trkpt lat="43.738052135717034" lon="11.80551092190557"><ele>404.66666666666663</ele><time>2026-05-02T15:48:49.999Z</time></trkpt><trkpt lat="43.73812853860844" lon="11.80521992096191"><ele>405.0</ele><time>2026-05-02T15:48:50.999Z</time></trkpt><trkpt lat="43.73820567820049" lon="11.804930914170834"><ele>406.0</ele><time>2026-05-02T15:48:51.999Z</time></trkpt><trkpt lat="43.73827901213105" lon="11.804642586338696"><ele>407.0</ele><time>2026-05-02T15:48:52.999Z</time></trkpt><trkpt lat="43.73835230619372" lon="11.804361076950904"><ele>408.0</ele><time>2026-05-02T15:48:53.999Z</time></trkpt><trkpt lat="43.73842617914085" lon="11.804081898756179"><ele>408.66666666666663</ele><time>2026-05-02T15:48:54.999Z</time></trkpt><trkpt lat="43.7384951464407" lon="11.803811053943697"><ele>409.3333333333333</ele><time>2026-05-02T15:48:55.999Z</time></trkpt><trkpt lat="43.73857090161148" lon="11.803542984047887"><ele>410.0</ele><time>2026-05-02T15:48:56.999Z</time></trkpt><trkpt lat="43.73866181178556" lon="11.803269690038233"><ele>414.0</ele><time>2026-05-02T15:48:57.999Z</time></trkpt><trkpt lat="43.7387696509927" lon="11.802983490715546"><ele>418.0</ele><time>2026-05-02T15:48:58.999Z</time></trkpt><trkpt lat="43.73889491043424" lon="11.802694530757059"><ele>418.0</ele><time>2026-05-02T15:48:59.999Z</time></trkpt><trkpt lat="43.73901524191258" lon="11.802403619881671"><ele>418.0</ele><time>2026-05-02T15:49:00.999Z</time></trkpt><trkpt lat="43.73913056927402" lon="11.802112800004124"><ele>415.5</ele><time>2026-05-02T15:49:01.999Z</time></trkpt><trkpt lat="43.73924554280799" lon="11.801824321124945"><ele>413.0</ele><time>2026-05-02T15:49:02.999Z</time></trkpt><trkpt lat="43.73935399093766" lon="11.801554086772425"><ele>415.3333333333333</ele><time>2026-05-02T15:49:03.999Z</time></trkpt><trkpt lat="43.739454541137654" lon="11.801306508516323"><ele>417.66666666666663</ele><time>2026-05-02T15:49:04.999Z</time></trkpt><trkpt lat="43.73954514505549" lon="11.801068489304106"><ele>420.0</ele><time>2026-05-02T15:49:05.999Z</time></trkpt><trkpt lat="43.73961528353559" lon="11.80083418624446"><ele>420.0</ele><time>2026-05-02T15:49:06.999Z</time></trkpt><trkpt lat="43.73964935870134" lon="11.800567860579136"><ele>420.0</ele><time>2026-05-02T15:49:07.999Z</time></trkpt><trkpt lat="43.73964382680465" lon="11.800265606706938"><ele>420.0</ele><time>2026-05-02T15:49:08.999Z</time></trkpt><trkpt lat="43.73961654673222" lon="11.79993395580606"><ele>418.5</ele><time>2026-05-02T15:49:09.999Z</time></trkpt><trkpt lat="43.73960028314929" lon="11.799599348124778"><ele>417.0</ele><time>2026-05-02T15:49:10.999Z</time></trkpt><trkpt lat="43.73958864022096" lon="11.799293964425773"><ele>417.0</ele><time>2026-05-02T15:49:11.999Z</time></trkpt><trkpt lat="43.73958222397185" lon="11.799017821702224"><ele>417.0</ele><time>2026-05-02T15:49:12.999Z</time></trkpt><trkpt lat="43.73957474708363" lon="11.798759966264674"><ele>417.0</ele><time>2026-05-02T15:49:13.999Z</time></trkpt><trkpt lat="43.739546735230036" lon="11.798534049275423"><ele>416.66666666666663</ele><time>2026-05-02T15:49:15Z</time></trkpt><trkpt lat="43.73947920432319" lon="11.798336414205883"><ele>416.3333333333333</ele><time>2026-05-02T15:49:16Z</time></trkpt><trkpt lat="43.73936819766381" lon="11.798169955109648"><ele>416.0</ele><time>2026-05-02T15:49:17Z</time></trkpt><trkpt lat="43.73922470467068" lon="11.798034515038934"><ele>416.0</ele><time>2026-05-02T15:49:18Z</time></trkpt><trkpt lat="43.73905774773965" lon="11.797958867356519"><ele>416.0</ele><time>2026-05-02T15:49:19Z</time></trkpt><trkpt lat="43.73885097709564" lon="11.797948998345548"><ele>416.0</ele><time>2026-05-02T15:49:20Z</time></trkpt><trkpt lat="43.73862416919669" lon="11.797968781029082"><ele>417.0</ele><time>2026-05-02T15:49:21Z</time></trkpt><trkpt lat="43.738378967747465" lon="11.797978118852635"><ele>418.0</ele><time>2026-05-02T15:49:22Z</time></trkpt><trkpt lat="43.738154722782916" lon="11.797977618827446"><ele>418.0</ele><time>2026-05-02T15:49:23Z</time></trkpt><trkpt lat="43.73795498543092" lon="11.79797903904944"><ele>418.0</ele><time>2026-05-02T15:49:24Z</time></trkpt><trkpt lat="43.73777348387336" lon="11.797980516443824"><ele>418.0</ele><time>2026-05-02T15:49:25Z</time></trkpt><trkpt lat="43.73760803411542" lon="11.797955842383837"><ele>419.0</ele><time>2026-05-02T15:49:26Z</time></trkpt><trkpt lat="43.73746681777992" lon="11.797887841606611"><ele>420.0</ele><time>2026-05-02T15:49:27Z</time></trkpt><trkpt lat="43.7373666505148" lon="11.797755739802357"><ele>421.0</ele><time>2026-05-02T15:49:28Z</time></trkpt><trkpt lat="43.737277832099224" lon="11.797608517000272"><ele>422.0</ele><time>2026-05-02T15:49:29Z</time></trkpt><trkpt lat="43.73720532339313" lon="11.797404162651286"><ele>424.66666666666663</ele><time>2026-05-02T15:49:30Z</time></trkpt><trkpt lat="43.737205491479585" lon="11.797165574767808"><ele>427.33333333333337</ele><time>2026-05-02T15:49:31Z</time></trkpt><trkpt lat="43.7371911795785" lon="11.796905811968882"><ele>430.0</ele><time>2026-05-02T15:49:32Z</time></trkpt><trkpt lat="43.7372010819247" lon="11.796610719147012"><ele>430.33333333333337</ele><time>2026-05-02T15:49:33Z</time></trkpt><trkpt lat="43.73719155747378" lon="11.796331671934832"><ele>430.66666666666663</ele><time>2026-05-02T15:49:34Z</time></trkpt><trkpt lat="43.73715017142334" lon="11.796077979903142"><ele>431.0</ele><time>2026-05-02T15:49:35Z</time></trkpt><trkpt lat="43.73706831192132" lon="11.795821291136512"><ele>431.0</ele><time>2026-05-02T15:49:36Z</time></trkpt><trkpt lat="43.73695065518723" lon="11.795533392056797"><ele>431.0</ele><time>2026-05-02T15:49:37Z</time></trkpt><trkpt lat="43.7368292401718" lon="11.79522150465244"><ele>428.0</ele><time>2026-05-02T15:49:38Z</time></trkpt><trkpt lat="43.73670630859193" lon="11.794901542780488"><ele>425.0</ele><time>2026-05-02T15:49:39Z</time></trkpt><trkpt lat="43.736583493687185" lon="11.794572861285483"><ele>427.0</ele><time>2026-05-02T15:49:40Z</time></trkpt><trkpt lat="43.736464712991065" lon="11.794239167265712"><ele>429.0</ele><time>2026-05-02T15:49:41Z</time></trkpt><trkpt lat="43.7363460171343" lon="11.793913544155771"><ele>429.0</ele><time>2026-05-02T15:49:42Z</time></trkpt><trkpt lat="43.7362405495877" lon="11.793612987482817"><ele>429.0</ele><time>2026-05-02T15:49:43Z</time></trkpt><trkpt lat="43.73614689350597" lon="11.793337746989913"><ele>429.0</ele><time>2026-05-02T15:49:44Z</time></trkpt><trkpt lat="43.73606036162066" lon="11.793082138099212"><ele>429.0</ele><time>2026-05-02T15:49:45Z</time></trkpt><trkpt lat="43.73598421361447" lon="11.792868272934374"><ele>429.0</ele><time>2026-05-02T15:49:46Z</time></trkpt><trkpt lat="43.735903870589475" lon="11.792665537777316"><ele>426.66666666666663</ele><time>2026-05-02T15:49:47Z</time></trkpt><trkpt lat="43.73578963493954" lon="11.792487058434647"><ele>424.3333333333333</ele><time>2026-05-02T15:49:48Z</time></trkpt><trkpt lat="43.73563052148186" lon="11.792334429786106"><ele>422.0</ele><time>2026-05-02T15:49:49Z</time></trkpt><trkpt lat="43.735428060359254" lon="11.792219155989992"><ele>421.0</ele><time>2026-05-02T15:49:50Z</time></trkpt><trkpt lat="43.73519568970522" lon="11.792113205236916"><ele>420.0</ele><time>2026-05-02T15:49:50.999Z</time></trkpt><trkpt lat="43.73494783987439" lon="11.791993435029221"><ele>420.0</ele><time>2026-05-02T15:49:51.999Z</time></trkpt><trkpt lat="43.73468331678014" lon="11.791859587908851"><ele>420.0</ele><time>2026-05-02T15:49:52.999Z</time></trkpt><trkpt lat="43.73442188666011" lon="11.791722120296251"><ele>419.5</ele><time>2026-05-02T15:49:53.999Z</time></trkpt><trkpt lat="43.73415849228845" lon="11.791580739221718"><ele>419.0</ele><time>2026-05-02T15:49:54.999Z</time></trkpt><trkpt lat="43.73388879904689" lon="11.791437438491245"><ele>419.0</ele><time>2026-05-02T15:49:55.999Z</time></trkpt><trkpt lat="43.733606575433775" lon="11.791290024819375"><ele>419.0</ele><time>2026-05-02T15:49:56.999Z</time></trkpt><trkpt lat="43.733321168132434" lon="11.791143802140507"><ele>420.0</ele><time>2026-05-02T15:49:57.999Z</time></trkpt><trkpt lat="43.73303236295031" lon="11.790993153340727"><ele>421.0</ele><time>2026-05-02T15:49:58.999Z</time></trkpt><trkpt lat="43.73275138466561" lon="11.790837105785833"><ele>417.5</ele><time>2026-05-02T15:49:59.999Z</time></trkpt><trkpt lat="43.73248551905354" lon="11.790692068886939"><ele>414.0</ele><time>2026-05-02T15:50:00.999Z</time></trkpt><trkpt lat="43.73224684453009" lon="11.790565810830461"><ele>414.0</ele><time>2026-05-02T15:50:01.999Z</time></trkpt><trkpt lat="43.73202140080704" lon="11.790450925770667"><ele>414.0</ele><time>2026-05-02T15:50:02.999Z</time></trkpt><trkpt lat="43.73181379227477" lon="11.790341415685722"><ele>414.0</ele><time>2026-05-02T15:50:03.999Z</time></trkpt><trkpt lat="43.73161388311614" lon="11.790240850075763"><ele>414.0</ele><time>2026-05-02T15:50:04.999Z</time></trkpt><trkpt lat="43.73143486937256" lon="11.790140254418539"><ele>414.0</ele><time>2026-05-02T15:50:05.999Z</time></trkpt><trkpt lat="43.73127073567479" lon="11.790032242533167"><ele>414.0</ele><time>2026-05-02T15:50:06.999Z</time></trkpt><trkpt lat="43.73112556534434" lon="11.789902579434338"><ele>414.0</ele><time>2026-05-02T15:50:07.999Z</time></trkpt><trkpt lat="43.730992895521545" lon="11.789750179516357"><ele>414.0</ele><time>2026-05-02T15:50:08.999Z</time></trkpt><trkpt lat="43.73086255933153" lon="11.789554110164488"><ele>413.66666666666663</ele><time>2026-05-02T15:50:09.999Z</time></trkpt><trkpt lat="43.73073226750671" lon="11.789332680520332"><ele>413.3333333333333</ele><time>2026-05-02T15:50:10.999Z</time></trkpt><trkpt lat="43.73060440180482" lon="11.789101316047015"><ele>413.0</ele><time>2026-05-02T15:50:11.999Z</time></trkpt><trkpt lat="43.73047133204192" lon="11.78886356215903"><ele>413.0</ele><time>2026-05-02T15:50:12.999Z</time></trkpt><trkpt lat="43.73033089804409" lon="11.78862593585708"><ele>413.0</ele><time>2026-05-02T15:50:13.999Z</time></trkpt><trkpt lat="43.73018729754303" lon="11.78839111664254"><ele>413.0</ele><time>2026-05-02T15:50:14.999Z</time></trkpt><trkpt lat="43.7300497467547" lon="11.788153789075695"><ele>411.0</ele><time>2026-05-02T15:50:15.999Z</time></trkpt><trkpt lat="43.72991665680459" lon="11.78791772235546"><ele>409.0</ele><time>2026-05-02T15:50:16.999Z</time></trkpt><trkpt lat="43.72978600965544" lon="11.787692083127858"><ele>407.0</ele><time>2026-05-02T15:50:17.999Z</time></trkpt><trkpt lat="43.729639111265755" lon="11.787472660873961"><ele>406.5</ele><time>2026-05-02T15:50:18.999Z</time></trkpt><trkpt lat="43.72946648370309" lon="11.787270612866935"><ele>406.0</ele><time>2026-05-02T15:50:19.999Z</time></trkpt><trkpt lat="43.7292779681155" lon="11.787079754398743"><ele>404.5</ele><time>2026-05-02T15:50:20.999Z</time></trkpt><trkpt lat="43.72908163145038" lon="11.786888152716276"><ele>403.0</ele><time>2026-05-02T15:50:21.999Z</time></trkpt><trkpt lat="43.72887612057954" lon="11.786686341524122"><ele>401.5</ele><time>2026-05-02T15:50:22.999Z</time></trkpt><trkpt lat="43.72867415284389" lon="11.786482316698224"><ele>400.0</ele><time>2026-05-02T15:50:23.999Z</time></trkpt><trkpt lat="43.72847701709674" lon="11.786288274844834"><ele>400.0</ele><time>2026-05-02T15:50:24.999Z</time></trkpt><trkpt lat="43.728285142422635" lon="11.78609102888664"><ele>400.0</ele><time>2026-05-02T15:50:25.999Z</time></trkpt><trkpt lat="43.72809457833083" lon="11.785899734943218"><ele>397.5</ele><time>2026-05-02T15:50:26.999Z</time></trkpt><trkpt lat="43.72790473098286" lon="11.785708440654172"><ele>395.0</ele><time>2026-05-02T15:50:27.999Z</time></trkpt><trkpt lat="43.727716028151974" lon="11.785516768102111"><ele>394.66666666666663</ele><time>2026-05-02T15:50:28.999Z</time></trkpt><trkpt lat="43.727535930236854" lon="11.785331306179874"><ele>394.33333333333337</ele><time>2026-05-02T15:50:29.999Z</time></trkpt><trkpt lat="43.72736062019165" lon="11.785146845895072"><ele>394.0</ele><time>2026-05-02T15:50:30.999Z</time></trkpt><trkpt lat="43.727187768822475" lon="11.784973977560961"><ele>392.6666666666667</ele><time>2026-05-02T15:50:31.999Z</time></trkpt><trkpt lat="43.72702002505652" lon="11.784804570135643"><ele>391.33333333333337</ele><time>2026-05-02T15:50:32.999Z</time></trkpt><trkpt lat="43.72684076176438" lon="11.784649310590005"><ele>390.0</ele><time>2026-05-02T15:50:33.999Z</time></trkpt><trkpt lat="43.72664713632021" lon="11.784527219789606"><ele>389.66666666666663</ele><time>2026-05-02T15:50:34.999Z</time></trkpt><trkpt lat="43.7264414672979" lon="11.784421689706639"><ele>389.3333333333333</ele><time>2026-05-02T15:50:35.999Z</time></trkpt><trkpt lat="43.72623104352708" lon="11.784333260675655"><ele>389.0</ele><time>2026-05-02T15:50:36.999Z</time></trkpt><trkpt lat="43.72601409464947" lon="11.784250011419248"><ele>387.0</ele><time>2026-05-02T15:50:37.999Z</time></trkpt><trkpt lat="43.725796127178434" lon="11.784160596410722"><ele>385.0</ele><time>2026-05-02T15:50:38.999Z</time></trkpt><trkpt lat="43.725582745625964" lon="11.784068521320513"><ele>385.0</ele><time>2026-05-02T15:50:39.999Z</time></trkpt><trkpt lat="43.725376815011465" lon="11.783981205000687"><ele>385.0</ele><time>2026-05-02T15:50:40.999Z</time></trkpt><trkpt lat="43.72517377067768" lon="11.783894941800334"><ele>385.0</ele><time>2026-05-02T15:50:41.999Z</time></trkpt><trkpt lat="43.724972529216906" lon="11.78380031634"><ele>385.33333333333337</ele><time>2026-05-02T15:50:42.999Z</time></trkpt><trkpt lat="43.72478814049671" lon="11.78367373182562"><ele>385.66666666666663</ele><time>2026-05-02T15:50:43.999Z</time></trkpt><trkpt lat="43.72461815649217" lon="11.783515517147638"><ele>386.0</ele><time>2026-05-02T15:50:44.999Z</time></trkpt><trkpt lat="43.7244548253773" lon="11.783321830669164"><ele>381.66666666666663</ele><time>2026-05-02T15:50:45.999Z</time></trkpt><trkpt lat="43.724293771234066" lon="11.78310720206066"><ele>377.3333333333333</ele><time>2026-05-02T15:50:46.999Z</time></trkpt><trkpt lat="43.72413363372957" lon="11.782887477309783"><ele>373.0</ele><time>2026-05-02T15:50:47.999Z</time></trkpt><trkpt lat="43.72396898128258" lon="11.782664826758577"><ele>373.0</ele><time>2026-05-02T15:50:48.999Z</time></trkpt><trkpt lat="43.72380634652068" lon="11.782453435512602"><ele>373.0</ele><time>2026-05-02T15:50:49.999Z</time></trkpt><trkpt lat="43.72365498465912" lon="11.782241305905453"><ele>373.0</ele><time>2026-05-02T15:50:50.999Z</time></trkpt><trkpt lat="43.723503005399486" lon="11.782035717793775"><ele>370.0</ele><time>2026-05-02T15:50:51.999Z</time></trkpt><trkpt lat="43.723364647106145" lon="11.781854988366444"><ele>367.0</ele><time>2026-05-02T15:50:52.999Z</time></trkpt><trkpt lat="43.723261550608385" lon="11.781681132443362"><ele>364.0</ele><time>2026-05-02T15:50:53.999Z</time></trkpt><trkpt lat="43.723190343485314" lon="11.781504013750741"><ele>364.0</ele><time>2026-05-02T15:50:54.999Z</time></trkpt><trkpt lat="43.72314717186016" lon="11.78130932559653"><ele>364.0</ele><time>2026-05-02T15:50:55.999Z</time></trkpt><trkpt lat="43.72313744555866" lon="11.781112775212986"><ele>364.0</ele><time>2026-05-02T15:50:56.999Z</time></trkpt><trkpt lat="43.72315055212999" lon="11.78091057529248"><ele>364.0</ele><time>2026-05-02T15:50:57.999Z</time></trkpt><trkpt lat="43.72322348729355" lon="11.780731318285772"><ele>364.66666666666663</ele><time>2026-05-02T15:50:58.999Z</time></trkpt><trkpt lat="43.72331065281101" lon="11.780557802197281"><ele>365.3333333333333</ele><time>2026-05-02T15:50:59.999Z</time></trkpt><trkpt lat="43.723437884682234" lon="11.780422101009806"><ele>366.0</ele><time>2026-05-02T15:51:00.999Z</time></trkpt><trkpt lat="43.72358867910518" lon="11.780256949948921"><ele>362.0</ele><time>2026-05-02T15:51:01.999Z</time></trkpt><trkpt lat="43.72374598530341" lon="11.780086429503262"><ele>358.0</ele><time>2026-05-02T15:51:02.999Z</time></trkpt><trkpt lat="43.723886921150296" lon="11.779906609711874"><ele>354.0</ele><time>2026-05-02T15:51:03.999Z</time></trkpt><trkpt lat="43.72403294072403" lon="11.779748414460174"><ele>354.0</ele><time>2026-05-02T15:51:04.999Z</time></trkpt><trkpt lat="43.72416879680139" lon="11.779591868396812"><ele>354.0</ele><time>2026-05-02T15:51:05.999Z</time></trkpt><trkpt lat="43.72427133052426" lon="11.779429202683238"><ele>354.0</ele><time>2026-05-02T15:51:06.999Z</time></trkpt><trkpt lat="43.72432963593804" lon="11.779234219516583"><ele>351.0</ele><time>2026-05-02T15:51:07.999Z</time></trkpt><trkpt lat="43.7243499683924" lon="11.779016434245703"><ele>348.0</ele><time>2026-05-02T15:51:08.999Z</time></trkpt><trkpt lat="43.72433448778658" lon="11.778772612383644"><ele>345.0</ele><time>2026-05-02T15:51:09.999Z</time></trkpt><trkpt lat="43.724273872456465" lon="11.778526864997575"><ele>344.3333333333333</ele><time>2026-05-02T15:51:10.999Z</time></trkpt><trkpt lat="43.72417491119545" lon="11.778292409633714"><ele>343.66666666666663</ele><time>2026-05-02T15:51:11.999Z</time></trkpt><trkpt lat="43.72406361111473" lon="11.778064077066173"><ele>343.0</ele><time>2026-05-02T15:51:12.999Z</time></trkpt><trkpt lat="43.72396064150764" lon="11.777843439436976"><ele>342.66666666666663</ele><time>2026-05-02T15:51:13.999Z</time></trkpt><trkpt lat="43.723883495811386" lon="11.777633931528163"><ele>342.3333333333333</ele><time>2026-05-02T15:51:14.999Z</time></trkpt><trkpt lat="43.723813692076206" lon="11.777437314612726"><ele>342.0</ele><time>2026-05-02T15:51:15.999Z</time></trkpt><trkpt lat="43.723746104151886" lon="11.777249592686392"><ele>342.0</ele><time>2026-05-02T15:51:16.999Z</time></trkpt><trkpt lat="43.72367040681079" lon="11.777054900845643"><ele>342.0</ele><time>2026-05-02T15:51:17.999Z</time></trkpt><trkpt lat="43.723590797479325" lon="11.776851179055955"><ele>342.0</ele><time>2026-05-02T15:51:18.999Z</time></trkpt><trkpt lat="43.72351346748384" lon="11.776650579479366"><ele>342.0</ele><time>2026-05-02T15:51:19.999Z</time></trkpt><trkpt lat="43.72343947769312" lon="11.776456692208084"><ele>342.0</ele><time>2026-05-02T15:51:20.999Z</time></trkpt><trkpt lat="43.72337191362672" lon="11.776276341226398"><ele>342.0</ele><time>2026-05-02T15:51:21.999Z</time></trkpt><trkpt lat="43.72331764719933" lon="11.776104802338926"><ele>342.0</ele><time>2026-05-02T15:51:22.999Z</time></trkpt><trkpt lat="43.723297960901846" lon="11.77594313470165"><ele>341.6</ele><time>2026-05-02T15:51:23.999Z</time></trkpt><trkpt lat="43.723311358261505" lon="11.775798118932833"><ele>341.20000000000005</ele><time>2026-05-02T15:51:24.999Z</time></trkpt><trkpt lat="43.723278790587095" lon="11.775706926298023"><ele>340.8</ele><time>2026-05-02T15:51:25.999Z</time></trkpt><trkpt lat="43.72340016723184" lon="11.775587929944088"><ele>340.4</ele><time>2026-05-02T15:51:26.999Z</time></trkpt><trkpt lat="43.723464655506874" lon="11.775511961722929"><ele>340.0</ele><time>2026-05-02T15:51:27.999Z</time></trkpt><trkpt lat="43.723531602961195" lon="11.775415339490031"><ele>340.5</ele><time>2026-05-02T15:51:28.999Z</time></trkpt><trkpt lat="43.723681258294555" lon="11.775400905836259"><ele>341.0</ele><time>2026-05-02T15:51:29.999Z</time></trkpt><trkpt lat="43.72382314439338" lon="11.775352023828486"><ele>341.5</ele><time>2026-05-02T15:51:30.999Z</time></trkpt><trkpt lat="43.723945116618765" lon="11.775314345738403"><ele>342.0</ele><time>2026-05-02T15:51:31.999Z</time></trkpt><trkpt lat="43.72404419854339" lon="11.775274615421246"><ele>342.0</ele><time>2026-05-02T15:51:32.999Z</time></trkpt><trkpt lat="43.7241261661219" lon="11.77526175812153"><ele>342.0</ele><time>2026-05-02T15:51:33.999Z</time></trkpt><trkpt lat="43.72422102574766" lon="11.775229233789856"><ele>342.0</ele><time>2026-05-02T15:51:35.999Z</time></trkpt><trkpt lat="43.72430176117323" lon="11.775201058478448"><ele>342.0</ele><time>2026-05-02T15:51:38.999Z</time></trkpt><trkpt lat="43.72430795448628" lon="11.774996711050058"><ele>342.0</ele><time>2026-05-02T15:51:41.999Z</time></trkpt><trkpt lat="43.72440317311578" lon="11.775005833555149"><ele>342.0</ele><time>2026-05-02T15:57:43.999Z</time></trkpt><trkpt lat="43.72450603578371" lon="11.775129836899264"><ele>342.0</ele><time>2026-05-02T15:57:46.999Z</time></trkpt><trkpt lat="43.724553000002985" lon="11.775004203923755"><ele>342.0</ele><time>2026-05-02T15:57:50.999Z</time></trkpt><trkpt lat="43.724647599035066" lon="11.775081263802962"><ele>342.0</ele><time>2026-05-02T15:58:24.999Z</time></trkpt><trkpt lat="43.72472468408014" lon="11.775054714056012"><ele>342.0</ele><time>2026-05-02T15:58:25.999Z</time></trkpt><trkpt lat="43.72484055281966" lon="11.775014808838122"><ele>342.0</ele><time>2026-05-02T15:58:26.999Z</time></trkpt><trkpt lat="43.72495462836502" lon="11.774957083659572"><ele>342.0</ele><time>2026-05-02T15:58:27.999Z</time></trkpt><trkpt lat="43.725080719580454" lon="11.774918155896293"><ele>342.0</ele><time>2026-05-02T15:58:28.999Z</time></trkpt><trkpt lat="43.72520036236838" lon="11.774871678394941"><ele>342.0</ele><time>2026-05-02T15:58:29.999Z</time></trkpt><trkpt lat="43.72531579853505" lon="11.774821612257762"><ele>342.0</ele><time>2026-05-02T15:58:30.999Z</time></trkpt><trkpt lat="43.72542757015416" lon="11.774774415923234"><ele>342.0</ele><time>2026-05-02T15:58:31.999Z</time></trkpt><trkpt lat="43.72554792416002" lon="11.774722363169495"><ele>342.0</ele><time>2026-05-02T15:58:32.999Z</time></trkpt><trkpt lat="43.725660867960244" lon="11.774671470619275"><ele>342.0</ele><time>2026-05-02T15:58:33.999Z</time></trkpt><trkpt lat="43.725765212336086" lon="11.77462231916042"><ele>342.0</ele><time>2026-05-02T15:58:34.999Z</time></trkpt><trkpt lat="43.72587229306855" lon="11.77455938854392"><ele>342.0</ele><time>2026-05-02T15:58:35.999Z</time></trkpt><trkpt lat="43.72598549144231" lon="11.774456135530873"><ele>342.0</ele><time>2026-05-02T15:58:36.999Z</time></trkpt><trkpt lat="43.72609570002853" lon="11.774310002687695"><ele>342.0</ele><time>2026-05-02T15:58:37.999Z</time></trkpt><trkpt lat="43.72619676716057" lon="11.774153861463766"><ele>343.75</ele><time>2026-05-02T15:58:38.999Z</time></trkpt><trkpt lat="43.726275287895895" lon="11.774017578774137"><ele>345.5</ele><time>2026-05-02T15:58:39.999Z</time></trkpt><trkpt lat="43.72635119796458" lon="11.773868346179599"><ele>347.25</ele><time>2026-05-02T15:58:40.999Z</time></trkpt><trkpt lat="43.7264317280668" lon="11.773726938076845"><ele>349.0</ele><time>2026-05-02T15:58:41.999Z</time></trkpt><trkpt lat="43.72650297889147" lon="11.773594648795314"><ele>347.2</ele><time>2026-05-02T15:58:42.999Z</time></trkpt><trkpt lat="43.7265660471561" lon="11.773478331819456"><ele>345.4</ele><time>2026-05-02T15:58:43.999Z</time></trkpt><trkpt lat="43.72662347306699" lon="11.773357448281386"><ele>343.6</ele><time>2026-05-02T15:58:44.999Z</time></trkpt><trkpt lat="43.726677196325866" lon="11.773247769129496"><ele>341.8</ele><time>2026-05-02T15:58:45.999Z</time></trkpt><trkpt lat="43.72671697322988" lon="11.773135081970011"><ele>340.0</ele><time>2026-05-02T15:58:46.999Z</time></trkpt><trkpt lat="43.72674750368301" lon="11.773027346283342"><ele>340.0</ele><time>2026-05-02T15:58:47.999Z</time></trkpt><trkpt lat="43.72677717838907" lon="11.772927914713133"><ele>340.0</ele><time>2026-05-02T15:58:48.999Z</time></trkpt><trkpt lat="43.726846146250814" lon="11.772779925226688"><ele>340.0</ele><time>2026-05-02T15:58:50.999Z</time></trkpt><trkpt lat="43.72696237919829" lon="11.772688659715447"><ele>340.0</ele><time>2026-05-02T15:58:52.999Z</time></trkpt><trkpt lat="43.72701995646919" lon="11.772623392135557"><ele>340.0</ele><time>2026-05-02T15:58:53.999Z</time></trkpt><trkpt lat="43.727028907726435" lon="11.772480856209627"><ele>340.6</ele><time>2026-05-02T15:58:55.999Z</time></trkpt><trkpt lat="43.726998108592745" lon="11.772344356890322"><ele>341.2</ele><time>2026-05-02T15:58:57.999Z</time></trkpt><trkpt lat="43.726999004386506" lon="11.772193367660828"><ele>341.79999999999995</ele><time>2026-05-02T15:58:59.999Z</time></trkpt><trkpt lat="43.72702691980072" lon="11.772055712283446"><ele>342.4</ele><time>2026-05-02T15:59:01.999Z</time></trkpt><trkpt lat="43.727067873482135" lon="11.771924268116418"><ele>343.0</ele><time>2026-05-02T15:59:03.999Z</time></trkpt><trkpt lat="43.72709577764181" lon="11.771815553951976"><ele>343.59999999999997</ele><time>2026-05-02T15:59:05.999Z</time></trkpt><trkpt lat="43.72713560582921" lon="11.771673424693617"><ele>344.2</ele><time>2026-05-02T15:59:07.999Z</time></trkpt><trkpt lat="43.72715845555534" lon="11.771589191702198"><ele>344.8</ele><time>2026-05-02T15:59:08.999Z</time></trkpt><trkpt lat="43.727194833564546" lon="11.77144247327033"><ele>345.4</ele><time>2026-05-02T15:59:10.999Z</time></trkpt><trkpt lat="43.72722972793973" lon="11.771266267173747"><ele>346.0</ele><time>2026-05-02T15:59:12.999Z</time></trkpt><trkpt lat="43.727271005371065" lon="11.771159418794552"><ele>346.0</ele><time>2026-05-02T15:59:13.999Z</time></trkpt><trkpt lat="43.72730699626452" lon="11.771038333590843"><ele>346.0</ele><time>2026-05-02T15:59:14.999Z</time></trkpt><trkpt lat="43.72733894543555" lon="11.77090671318137"><ele>346.0</ele><time>2026-05-02T15:59:15.999Z</time></trkpt><trkpt lat="43.72737231562076" lon="11.7707917926352"><ele>346.0</ele><time>2026-05-02T15:59:16.999Z</time></trkpt><trkpt lat="43.72741971386921" lon="11.770695167007029"><ele>346.0</ele><time>2026-05-02T15:59:17.999Z</time></trkpt><trkpt lat="43.727462886267524" lon="11.77058437803232"><ele>345.6</ele><time>2026-05-02T15:59:18.999Z</time></trkpt><trkpt lat="43.72753503052087" lon="11.770481713955244"><ele>345.20000000000005</ele><time>2026-05-02T15:59:19.999Z</time></trkpt><trkpt lat="43.72760754100538" lon="11.770352368366241"><ele>344.79999999999995</ele><time>2026-05-02T15:59:20.999Z</time></trkpt><trkpt lat="43.727670600989015" lon="11.770216631783331"><ele>344.4</ele><time>2026-05-02T15:59:21.999Z</time></trkpt><trkpt lat="43.72773439381522" lon="11.770115245794894"><ele>344.0</ele><time>2026-05-02T15:59:22.999Z</time></trkpt><trkpt lat="43.72779475621317" lon="11.770017859553203"><ele>345.5</ele><time>2026-05-02T15:59:23.999Z</time></trkpt><trkpt lat="43.727846327214465" lon="11.76992928847479"><ele>347.0</ele><time>2026-05-02T15:59:24.999Z</time></trkpt><trkpt lat="43.72789531633555" lon="11.769833348926815"><ele>348.5</ele><time>2026-05-02T15:59:25.999Z</time></trkpt><trkpt lat="43.72795107598418" lon="11.769741799890609"><ele>350.0</ele><time>2026-05-02T15:59:26.999Z</time></trkpt><trkpt lat="43.7280048583583" lon="11.769657874049557"><ele>351.5</ele><time>2026-05-02T15:59:27.999Z</time></trkpt><trkpt lat="43.728046760525295" lon="11.769587224398801"><ele>353.0</ele><time>2026-05-02T15:59:28.999Z</time></trkpt><trkpt lat="43.728086217140444" lon="11.769517638584382"><ele>353.0</ele><time>2026-05-02T15:59:29.999Z</time></trkpt><trkpt lat="43.72816249350696" lon="11.769383975054609"><ele>353.0</ele><time>2026-05-02T15:59:31.999Z</time></trkpt><trkpt lat="43.7282080976429" lon="11.76931196455679"><ele>353.0</ele><time>2026-05-02T15:59:32.999Z</time></trkpt><trkpt lat="43.72825120975083" lon="11.769237972438273"><ele>353.0</ele><time>2026-05-02T15:59:33.999Z</time></trkpt><trkpt lat="43.72829276814854" lon="11.769166934382415"><ele>353.0</ele><time>2026-05-02T15:59:34.999Z</time></trkpt><trkpt lat="43.72833716533067" lon="11.769093557521575"><ele>353.0</ele><time>2026-05-02T15:59:35.999Z</time></trkpt><trkpt lat="43.72840112329257" lon="11.769023988539715"><ele>353.1666666666667</ele><time>2026-05-02T15:59:36.999Z</time></trkpt><trkpt lat="43.72844374457405" lon="11.768940531862775"><ele>353.33333333333337</ele><time>2026-05-02T15:59:37.999Z</time></trkpt><trkpt lat="43.72848452330808" lon="11.768873237165428"><ele>353.5</ele><time>2026-05-02T15:59:38.999Z</time></trkpt><trkpt lat="43.728536312470666" lon="11.768799246867813"><ele>353.6666666666667</ele><time>2026-05-02T15:59:39.999Z</time></trkpt><trkpt lat="43.72861669328151" lon="11.768757234812517"><ele>353.8333333333333</ele><time>2026-05-02T15:59:40.999Z</time></trkpt><trkpt lat="43.72869990521048" lon="11.768698197736164"><ele>354.0</ele><time>2026-05-02T15:59:41.999Z</time></trkpt><trkpt lat="43.72879405376098" lon="11.768628743188518"><ele>354.0</ele><time>2026-05-02T15:59:42.999Z</time></trkpt><trkpt lat="43.7289033192265" lon="11.76855117013762"><ele>354.0</ele><time>2026-05-02T15:59:43.999Z</time></trkpt><trkpt lat="43.72901164743551" lon="11.768474412760169"><ele>354.0</ele><time>2026-05-02T15:59:44.999Z</time></trkpt><trkpt lat="43.72911179563374" lon="11.768403678345795"><ele>354.0</ele><time>2026-05-02T15:59:45.999Z</time></trkpt><trkpt lat="43.72920377578751" lon="11.76831949156903"><ele>351.75</ele><time>2026-05-02T15:59:46.999Z</time></trkpt><trkpt lat="43.72930952199693" lon="11.76825095904126"><ele>349.5</ele><time>2026-05-02T15:59:47.999Z</time></trkpt><trkpt lat="43.729415329519874" lon="11.768174759241978"><ele>347.25</ele><time>2026-05-02T15:59:48.999Z</time></trkpt><trkpt lat="43.72952531987394" lon="11.768093966747895"><ele>345.0</ele><time>2026-05-02T15:59:49.999Z</time></trkpt><trkpt lat="43.72963653242699" lon="11.768008789419213"><ele>345.0</ele><time>2026-05-02T15:59:50.999Z</time></trkpt><trkpt lat="43.72975316473195" lon="11.767915471022341"><ele>345.0</ele><time>2026-05-02T15:59:51.999Z</time></trkpt><trkpt lat="43.72987662159774" lon="11.767819081559297"><ele>345.0</ele><time>2026-05-02T15:59:52.999Z</time></trkpt><trkpt lat="43.73001367754383" lon="11.767732738251615"><ele>345.0</ele><time>2026-05-02T15:59:53.999Z</time></trkpt><trkpt lat="43.730144115068974" lon="11.767657781168591"><ele>345.0</ele><time>2026-05-02T15:59:54.999Z</time></trkpt><trkpt lat="43.730263465049276" lon="11.767583075224433"><ele>345.0</ele><time>2026-05-02T15:59:55.999Z</time></trkpt><trkpt lat="43.730388817862725" lon="11.767499960071657"><ele>345.0</ele><time>2026-05-02T15:59:56.999Z</time></trkpt><trkpt lat="43.73051656731133" lon="11.7674081231049"><ele>345.0</ele><time>2026-05-02T15:59:57.999Z</time></trkpt><trkpt lat="43.73064141179676" lon="11.76731229078021"><ele>345.0</ele><time>2026-05-02T15:59:58.999Z</time></trkpt><trkpt lat="43.73075179142491" lon="11.767226385652133"><ele>345.0</ele><time>2026-05-02T15:59:59.999Z</time></trkpt><trkpt lat="43.730855977038765" lon="11.767140368932536"><ele>345.0</ele><time>2026-05-02T16:00:00.999Z</time></trkpt><trkpt lat="43.73096223487238" lon="11.76707166228379"><ele>345.0</ele><time>2026-05-02T16:00:01.999Z</time></trkpt><trkpt lat="43.73108514345309" lon="11.766982637007995"><ele>345.3333333333333</ele><time>2026-05-02T16:00:02.999Z</time></trkpt><trkpt lat="43.73122703080158" lon="11.766908686304443"><ele>345.66666666666663</ele><time>2026-05-02T16:00:03.999Z</time></trkpt><trkpt lat="43.731370172272875" lon="11.766779236196923"><ele>346.0</ele><time>2026-05-02T16:00:04.999Z</time></trkpt><trkpt lat="43.731515405324295" lon="11.766682119312401"><ele>346.0</ele><time>2026-05-02T16:00:05.999Z</time></trkpt><trkpt lat="43.731643326856144" lon="11.766578441379266"><ele>346.0</ele><time>2026-05-02T16:00:06.999Z</time></trkpt><trkpt lat="43.73176151463595" lon="11.766477923388315"><ele>346.0</ele><time>2026-05-02T16:00:07.999Z</time></trkpt><trkpt lat="43.73186784711119" lon="11.766372091542971"><ele>346.0</ele><time>2026-05-02T16:00:08.999Z</time></trkpt><trkpt lat="43.73194625498346" lon="11.766252718992757"><ele>345.75</ele><time>2026-05-02T16:00:09.999Z</time></trkpt><trkpt lat="43.73199625972891" lon="11.766115790840077"><ele>345.5</ele><time>2026-05-02T16:00:10.999Z</time></trkpt><trkpt lat="43.73202654695209" lon="11.76595549643756"><ele>345.25</ele><time>2026-05-02T16:00:11.999Z</time></trkpt><trkpt lat="43.73206098532341" lon="11.765772979732182"><ele>345.0</ele><time>2026-05-02T16:00:12.999Z</time></trkpt><trkpt lat="43.73210523521451" lon="11.765583088399552"><ele>345.0</ele><time>2026-05-02T16:00:13.999Z</time></trkpt><trkpt lat="43.732153099323405" lon="11.76539059571678"><ele>345.0</ele><time>2026-05-02T16:00:14.999Z</time></trkpt><trkpt lat="43.73220022296196" lon="11.765196502164104"><ele>345.0</ele><time>2026-05-02T16:00:15.999Z</time></trkpt><trkpt lat="43.73224228120039" lon="11.76501640711456"><ele>345.0</ele><time>2026-05-02T16:00:16.999Z</time></trkpt><trkpt lat="43.732283044551785" lon="11.764834746681824"><ele>345.0</ele><time>2026-05-02T16:00:17.999Z</time></trkpt><trkpt lat="43.73232705702786" lon="11.764651441958556"><ele>345.0</ele><time>2026-05-02T16:00:19Z</time></trkpt><trkpt lat="43.73237719170421" lon="11.764466429451343"><ele>345.0</ele><time>2026-05-02T16:00:20Z</time></trkpt><trkpt lat="43.73242622193369" lon="11.76428438773072"><ele>345.0</ele><time>2026-05-02T16:00:21Z</time></trkpt><trkpt lat="43.73247080911532" lon="11.764108847211228"><ele>345.0</ele><time>2026-05-02T16:00:22Z</time></trkpt><trkpt lat="43.73251525131986" lon="11.763925628562133"><ele>345.0</ele><time>2026-05-02T16:00:23Z</time></trkpt><trkpt lat="43.73255503046609" lon="11.763744402339915"><ele>345.0</ele><time>2026-05-02T16:00:24Z</time></trkpt><trkpt lat="43.73259570300306" lon="11.763574525801308"><ele>345.0</ele><time>2026-05-02T16:00:25Z</time></trkpt><trkpt lat="43.73263745129605" lon="11.763402800642563"><ele>344.75</ele><time>2026-05-02T16:00:26Z</time></trkpt><trkpt lat="43.73268333789426" lon="11.763241867509974"><ele>344.5</ele><time>2026-05-02T16:00:27Z</time></trkpt><trkpt lat="43.73272989371394" lon="11.763088285625756"><ele>344.25</ele><time>2026-05-02T16:00:28Z</time></trkpt><trkpt lat="43.73277944626116" lon="11.762932037187916"><ele>344.0</ele><time>2026-05-02T16:00:29Z</time></trkpt><trkpt lat="43.73281913079443" lon="11.76278227289732"><ele>345.25</ele><time>2026-05-02T16:00:30Z</time></trkpt><trkpt lat="43.73285588352283" lon="11.762619210566404"><ele>346.5</ele><time>2026-05-02T16:00:31Z</time></trkpt><trkpt lat="43.7329037338202" lon="11.76243789571118"><ele>347.75</ele><time>2026-05-02T16:00:32Z</time></trkpt><trkpt lat="43.73294921332492" lon="11.762255744513892"><ele>349.0</ele><time>2026-05-02T16:00:33Z</time></trkpt><trkpt lat="43.73300029244954" lon="11.762055333693334"><ele>348.75</ele><time>2026-05-02T16:00:34Z</time></trkpt><trkpt lat="43.7330530798018" lon="11.761854149993908"><ele>348.5</ele><time>2026-05-02T16:00:35Z</time></trkpt><trkpt lat="43.73310481405482" lon="11.761659599142444"><ele>348.25</ele><time>2026-05-02T16:00:36Z</time></trkpt><trkpt lat="43.73315577759694" lon="11.761478149014689"><ele>348.0</ele><time>2026-05-02T16:00:37Z</time></trkpt><trkpt lat="43.733216224643776" lon="11.76130060760449"><ele>348.0</ele><time>2026-05-02T16:00:38Z</time></trkpt><trkpt lat="43.733301000107154" lon="11.761108565413824"><ele>348.0</ele><time>2026-05-02T16:00:39Z</time></trkpt><trkpt lat="43.73343644353019" lon="11.760935870944053"><ele>348.0</ele><time>2026-05-02T16:00:40Z</time></trkpt><trkpt lat="43.73354439433217" lon="11.760719187106927"><ele>349.3333333333333</ele><time>2026-05-02T16:00:41Z</time></trkpt><trkpt lat="43.73365550031332" lon="11.760544221961583"><ele>350.66666666666663</ele><time>2026-05-02T16:00:42Z</time></trkpt><trkpt lat="43.73375642484091" lon="11.760378390368063"><ele>352.0</ele><time>2026-05-02T16:00:43Z</time></trkpt><trkpt lat="43.733850526326904" lon="11.760221379566898"><ele>351.3333333333333</ele><time>2026-05-02T16:00:44Z</time></trkpt><trkpt lat="43.7339306046655" lon="11.76005707629366"><ele>350.6666666666667</ele><time>2026-05-02T16:00:45Z</time></trkpt><trkpt lat="43.733999168136734" lon="11.759857944126734"><ele>350.0</ele><time>2026-05-02T16:00:46Z</time></trkpt><trkpt lat="43.73405470766007" lon="11.75961301898427"><ele>350.0</ele><time>2026-05-02T16:00:47Z</time></trkpt><trkpt lat="43.734135309086646" lon="11.759351604637281"><ele>350.0</ele><time>2026-05-02T16:00:48Z</time></trkpt><trkpt lat="43.73420076580142" lon="11.759068146867357"><ele>350.0</ele><time>2026-05-02T16:00:49Z</time></trkpt><trkpt lat="43.73427619412837" lon="11.758804049428022"><ele>350.0</ele><time>2026-05-02T16:00:50Z</time></trkpt><trkpt lat="43.73437372504646" lon="11.758560806607429"><ele>350.0</ele><time>2026-05-02T16:00:51Z</time></trkpt><trkpt lat="43.734454488365444" lon="11.758310614056429"><ele>350.0</ele><time>2026-05-02T16:00:52Z</time></trkpt><trkpt lat="43.73456830213301" lon="11.75810416140697"><ele>351.6666666666667</ele><time>2026-05-02T16:00:53Z</time></trkpt><trkpt lat="43.73467771520709" lon="11.75791678937142"><ele>353.3333333333333</ele><time>2026-05-02T16:00:54Z</time></trkpt><trkpt lat="43.73479943350591" lon="11.757742594909379"><ele>355.0</ele><time>2026-05-02T16:00:55Z</time></trkpt><trkpt lat="43.73492463350301" lon="11.757560361662739"><ele>355.66666666666663</ele><time>2026-05-02T16:00:56Z</time></trkpt><trkpt lat="43.73503508872732" lon="11.757342567736405"><ele>356.3333333333333</ele><time>2026-05-02T16:00:57Z</time></trkpt><trkpt lat="43.735140630823885" lon="11.757106532000455"><ele>357.0</ele><time>2026-05-02T16:00:58Z</time></trkpt><trkpt lat="43.73522982412828" lon="11.756858829418539"><ele>357.0</ele><time>2026-05-02T16:00:59Z</time></trkpt><trkpt lat="43.73533443677518" lon="11.75661824609935"><ele>357.0</ele><time>2026-05-02T16:01:00Z</time></trkpt><trkpt lat="43.73547720875152" lon="11.756422835781642"><ele>357.0</ele><time>2026-05-02T16:01:01Z</time></trkpt><trkpt lat="43.73561138771462" lon="11.756232608646817"><ele>357.0</ele><time>2026-05-02T16:01:02Z</time></trkpt><trkpt lat="43.735728528143945" lon="11.756064186201431"><ele>357.0</ele><time>2026-05-02T16:01:03Z</time></trkpt><trkpt lat="43.73583831949804" lon="11.75589522806494"><ele>357.0</ele><time>2026-05-02T16:01:04Z</time></trkpt><trkpt lat="43.73593104313564" lon="11.75571488183177"><ele>357.0</ele><time>2026-05-02T16:01:05Z</time></trkpt><trkpt lat="43.73601476712365" lon="11.755532022466404"><ele>357.0</ele><time>2026-05-02T16:01:05.999Z</time></trkpt><trkpt lat="43.736090982149" lon="11.755358247268445"><ele>357.0</ele><time>2026-05-02T16:01:06.999Z</time></trkpt><trkpt lat="43.736160298907556" lon="11.755196098150362"><ele>357.0</ele><time>2026-05-02T16:01:07.999Z</time></trkpt><trkpt lat="43.736230166806116" lon="11.755049049678549"><ele>357.0</ele><time>2026-05-02T16:01:08.999Z</time></trkpt><trkpt lat="43.73630184670012" lon="11.754924728950726"><ele>357.0</ele><time>2026-05-02T16:01:09.999Z</time></trkpt><trkpt lat="43.736383142462124" lon="11.754796366921925"><ele>357.0</ele><time>2026-05-02T16:01:10.999Z</time></trkpt><trkpt lat="43.73649139229633" lon="11.75468622956478"><ele>357.0</ele><time>2026-05-02T16:01:11.999Z</time></trkpt><trkpt lat="43.73659815123114" lon="11.754555895477205"><ele>357.0</ele><time>2026-05-02T16:01:12.999Z</time></trkpt><trkpt lat="43.73671107400107" lon="11.754419031036996"><ele>357.0</ele><time>2026-05-02T16:01:13.999Z</time></trkpt><trkpt lat="43.73682246581204" lon="11.754286591639834"><ele>357.0</ele><time>2026-05-02T16:01:14.999Z</time></trkpt><trkpt lat="43.73693848954871" lon="11.754150228211666"><ele>357.0</ele><time>2026-05-02T16:01:15.999Z</time></trkpt><trkpt lat="43.737061684007806" lon="11.753999520418692"><ele>357.5</ele><time>2026-05-02T16:01:16.999Z</time></trkpt><trkpt lat="43.73716047586617" lon="11.753839455566613"><ele>358.0</ele><time>2026-05-02T16:01:17.999Z</time></trkpt><trkpt lat="43.737255947255406" lon="11.75371035465672"><ele>358.5</ele><time>2026-05-02T16:01:18.999Z</time></trkpt><trkpt lat="43.73733880174841" lon="11.753575968002226"><ele>359.0</ele><time>2026-05-02T16:01:19.999Z</time></trkpt><trkpt lat="43.737417978707505" lon="11.753450720520394"><ele>358.79999999999995</ele><time>2026-05-02T16:01:20.999Z</time></trkpt><trkpt lat="43.73749152912081" lon="11.75334605973412"><ele>358.59999999999997</ele><time>2026-05-02T16:01:21.999Z</time></trkpt><trkpt lat="43.73756292489222" lon="11.753247079710265"><ele>358.4</ele><time>2026-05-02T16:01:22.999Z</time></trkpt><trkpt lat="43.73763246723521" lon="11.753167263665272"><ele>358.2</ele><time>2026-05-02T16:01:23.999Z</time></trkpt><trkpt lat="43.73770714921168" lon="11.753107633882731"><ele>358.0</ele><time>2026-05-02T16:01:24.999Z</time></trkpt><trkpt lat="43.73778503395325" lon="11.753076674863557"><ele>358.0</ele><time>2026-05-02T16:01:25.999Z</time></trkpt><trkpt lat="43.737874092862256" lon="11.753065096248422"><ele>358.0</ele><time>2026-05-02T16:01:26.999Z</time></trkpt><trkpt lat="43.73799304902594" lon="11.753066985430218"><ele>358.0</ele><time>2026-05-02T16:01:27.999Z</time></trkpt><trkpt lat="43.73810119997379" lon="11.753052314631809"><ele>358.0</ele><time>2026-05-02T16:01:28.999Z</time></trkpt><trkpt lat="43.738172723357785" lon="11.752984315616729"><ele>358.0</ele><time>2026-05-02T16:01:29.999Z</time></trkpt><trkpt lat="43.73820572409382" lon="11.752875703663914"><ele>358.0</ele><time>2026-05-02T16:01:30.999Z</time></trkpt><trkpt lat="43.73819747276149" lon="11.752754446725778"><ele>358.0</ele><time>2026-05-02T16:01:31.999Z</time></trkpt><trkpt lat="43.73815960586564" lon="11.752636490822717"><ele>358.0</ele><time>2026-05-02T16:01:32.999Z</time></trkpt><trkpt lat="43.73807988552483" lon="11.752542480568026"><ele>358.0</ele><time>2026-05-02T16:01:33.999Z</time></trkpt><trkpt lat="43.737978936927185" lon="11.752460890290813"><ele>358.0</ele><time>2026-05-02T16:01:34.999Z</time></trkpt><trkpt lat="43.73784501782689" lon="11.752506978607945"><ele>357.75</ele><time>2026-05-02T16:01:35.999Z</time></trkpt><trkpt lat="43.73775277506833" lon="11.752309658369148"><ele>357.5</ele><time>2026-05-02T16:01:36.999Z</time></trkpt><trkpt lat="43.737689446200854" lon="11.752143906771742"><ele>357.25</ele><time>2026-05-02T16:01:37.999Z</time></trkpt><trkpt lat="43.73766067955519" lon="11.751955504588206"><ele>357.0</ele><time>2026-05-02T16:01:38.999Z</time></trkpt><trkpt lat="43.737704666995576" lon="11.751754886506292"><ele>357.3333333333333</ele><time>2026-05-02T16:01:39.999Z</time></trkpt><trkpt lat="43.73773021879786" lon="11.75151895418999"><ele>357.66666666666663</ele><time>2026-05-02T16:01:40.999Z</time></trkpt><trkpt lat="43.73779775094751" lon="11.751257041716023"><ele>358.0</ele><time>2026-05-02T16:01:41.999Z</time></trkpt><trkpt lat="43.7378530345804" lon="11.750981775846634"><ele>357.66666666666663</ele><time>2026-05-02T16:01:42.999Z</time></trkpt><trkpt lat="43.737900063224956" lon="11.750704825437403"><ele>357.3333333333333</ele><time>2026-05-02T16:01:43.999Z</time></trkpt><trkpt lat="43.73796032641876" lon="11.750399932155373"><ele>357.0</ele><time>2026-05-02T16:01:44.999Z</time></trkpt><trkpt lat="43.73802168384141" lon="11.750093373299434"><ele>357.0</ele><time>2026-05-02T16:01:45.999Z</time></trkpt><trkpt lat="43.73808348344886" lon="11.749780056047793"><ele>357.0</ele><time>2026-05-02T16:01:46.999Z</time></trkpt><trkpt lat="43.73815312799826" lon="11.749458728087783"><ele>355.5</ele><time>2026-05-02T16:01:47.999Z</time></trkpt><trkpt lat="43.73824199194361" lon="11.74913403330216"><ele>354.0</ele><time>2026-05-02T16:01:48.999Z</time></trkpt><trkpt lat="43.738347409835725" lon="11.748793023902113"><ele>354.0</ele><time>2026-05-02T16:01:49.999Z</time></trkpt><trkpt lat="43.73846393305242" lon="11.748423254831762"><ele>354.0</ele><time>2026-05-02T16:01:50.999Z</time></trkpt><trkpt lat="43.73857462196443" lon="11.748041437371779"><ele>354.0</ele><time>2026-05-02T16:01:51.999Z</time></trkpt><trkpt lat="43.73868643142688" lon="11.747653373008548"><ele>354.0</ele><time>2026-05-02T16:01:52.999Z</time></trkpt><trkpt lat="43.73880428489479" lon="11.747249075870814"><ele>354.5</ele><time>2026-05-02T16:01:53.999Z</time></trkpt><trkpt lat="43.73892147883348" lon="11.746845600884726"><ele>355.0</ele><time>2026-05-02T16:01:54.999Z</time></trkpt><trkpt lat="43.739041646547506" lon="11.746437851002167"><ele>355.0</ele><time>2026-05-02T16:01:55.999Z</time></trkpt><trkpt lat="43.739149229884156" lon="11.746060902089745"><ele>355.0</ele><time>2026-05-02T16:01:56.999Z</time></trkpt><trkpt lat="43.73925207686256" lon="11.745690317799339"><ele>355.0</ele><time>2026-05-02T16:01:57.999Z</time></trkpt><trkpt lat="43.739375823403876" lon="11.745314075915694"><ele>355.0</ele><time>2026-05-02T16:01:58.999Z</time></trkpt><trkpt lat="43.739490163769354" lon="11.74492859165138"><ele>355.0</ele><time>2026-05-02T16:01:59.999Z</time></trkpt><trkpt lat="43.73959796710473" lon="11.744529337964881"><ele>355.0</ele><time>2026-05-02T16:02:00.999Z</time></trkpt><trkpt lat="43.73972355535289" lon="11.744138895571096"><ele>354.5</ele><time>2026-05-02T16:02:01.999Z</time></trkpt><trkpt lat="43.73984175746985" lon="11.74374399629485"><ele>354.0</ele><time>2026-05-02T16:02:02.999Z</time></trkpt><trkpt lat="43.739949334917384" lon="11.743380139759173"><ele>353.5</ele><time>2026-05-02T16:02:04Z</time></trkpt><trkpt lat="43.74004647567851" lon="11.743054341379858"><ele>353.0</ele><time>2026-05-02T16:02:05Z</time></trkpt><trkpt lat="43.740137139250294" lon="11.74274402366644"><ele>353.0</ele><time>2026-05-02T16:02:06Z</time></trkpt><trkpt lat="43.740224140938295" lon="11.742444883995606"><ele>353.0</ele><time>2026-05-02T16:02:07Z</time></trkpt><trkpt lat="43.74030627817145" lon="11.742159519595413"><ele>352.6666666666667</ele><time>2026-05-02T16:02:08Z</time></trkpt><trkpt lat="43.740391771425585" lon="11.741874071603883"><ele>352.3333333333333</ele><time>2026-05-02T16:02:09Z</time></trkpt><trkpt lat="43.740474100893806" lon="11.741611793105559"><ele>352.0</ele><time>2026-05-02T16:02:10Z</time></trkpt><trkpt lat="43.740551569821555" lon="11.74135994235061"><ele>352.0</ele><time>2026-05-02T16:02:11Z</time></trkpt><trkpt lat="43.74061604535523" lon="11.741133197466098"><ele>352.0</ele><time>2026-05-02T16:02:12Z</time></trkpt><trkpt lat="43.74065509022628" lon="11.740927686940775"><ele>352.0</ele><time>2026-05-02T16:02:13Z</time></trkpt><trkpt lat="43.74066495577584" lon="11.740719661992825"><ele>351.75</ele><time>2026-05-02T16:02:14Z</time></trkpt><trkpt lat="43.740635024214924" lon="11.740526109376518"><ele>351.5</ele><time>2026-05-02T16:02:15Z</time></trkpt><trkpt lat="43.74058862860559" lon="11.740332648152325"><ele>351.25</ele><time>2026-05-02T16:02:16Z</time></trkpt><trkpt lat="43.740550142732864" lon="11.740148086260943"><ele>351.0</ele><time>2026-05-02T16:02:17Z</time></trkpt><trkpt lat="43.740534989265356" lon="11.73997975186446"><ele>351.0</ele><time>2026-05-02T16:02:18Z</time></trkpt><trkpt lat="43.740553203375704" lon="11.739815806842737"><ele>351.0</ele><time>2026-05-02T16:02:19Z</time></trkpt><trkpt lat="43.740611646414905" lon="11.739651323230925"><ele>351.0</ele><time>2026-05-02T16:02:20Z</time></trkpt><trkpt lat="43.740711979222084" lon="11.739503950954285"><ele>351.0</ele><time>2026-05-02T16:02:21Z</time></trkpt><trkpt lat="43.74084204795424" lon="11.739349212557492"><ele>351.3333333333333</ele><time>2026-05-02T16:02:22Z</time></trkpt><trkpt lat="43.74099885400872" lon="11.739181750203242"><ele>351.66666666666663</ele><time>2026-05-02T16:02:23Z</time></trkpt><trkpt lat="43.741170040831854" lon="11.73901189519203"><ele>352.0</ele><time>2026-05-02T16:02:24Z</time></trkpt><trkpt lat="43.74133764026285" lon="11.738849968599236"><ele>352.3333333333333</ele><time>2026-05-02T16:02:25Z</time></trkpt><trkpt lat="43.741489033568875" lon="11.738699975434056"><ele>352.6666666666667</ele><time>2026-05-02T16:02:26Z</time></trkpt><trkpt lat="43.741640219633126" lon="11.73854275830475"><ele>353.0</ele><time>2026-05-02T16:02:27Z</time></trkpt><trkpt lat="43.741777114645494" lon="11.738397290713026"><ele>353.5</ele><time>2026-05-02T16:02:28Z</time></trkpt><trkpt lat="43.74189581136562" lon="11.738275486733555"><ele>354.0</ele><time>2026-05-02T16:02:29Z</time></trkpt><trkpt lat="43.74199037419493" lon="11.738176030447148"><ele>354.5</ele><time>2026-05-02T16:02:30Z</time></trkpt><trkpt lat="43.74207875731443" lon="11.738078625419405"><ele>355.0</ele><time>2026-05-02T16:02:31Z</time></trkpt><trkpt lat="43.742174560551575" lon="11.738007119826193"><ele>355.0</ele><time>2026-05-02T16:02:32Z</time></trkpt><trkpt lat="43.74226631458721" lon="11.737913303438631"><ele>355.0</ele><time>2026-05-02T16:02:33Z</time></trkpt><trkpt lat="43.74237604004367" lon="11.737802811018932"><ele>355.0</ele><time>2026-05-02T16:02:34Z</time></trkpt><trkpt lat="43.74250750833034" lon="11.737670598302744"><ele>355.0</ele><time>2026-05-02T16:02:35Z</time></trkpt><trkpt lat="43.742655405425694" lon="11.737506205199159"><ele>354.66666666666663</ele><time>2026-05-02T16:02:36Z</time></trkpt><trkpt lat="43.742815128922636" lon="11.737357137308647"><ele>354.3333333333333</ele><time>2026-05-02T16:02:37Z</time></trkpt><trkpt lat="43.74295069946211" lon="11.737176254028649"><ele>354.0</ele><time>2026-05-02T16:02:38Z</time></trkpt><trkpt lat="43.74306453557272" lon="11.73698555221401"><ele>355.0</ele><time>2026-05-02T16:02:39Z</time></trkpt><trkpt lat="43.743143835152146" lon="11.736747883532122"><ele>356.0</ele><time>2026-05-02T16:02:40Z</time></trkpt><trkpt lat="43.74318352530672" lon="11.736479905777012"><ele>357.0</ele><time>2026-05-02T16:02:41Z</time></trkpt><trkpt lat="43.74318746233578" lon="11.736196882764531"><ele>359.0</ele><time>2026-05-02T16:02:42Z</time></trkpt><trkpt lat="43.743167003674564" lon="11.735941926180272"><ele>361.0</ele><time>2026-05-02T16:02:43Z</time></trkpt><trkpt lat="43.7431623437339" lon="11.735719993824878"><ele>363.0</ele><time>2026-05-02T16:02:44Z</time></trkpt><trkpt lat="43.743198797315564" lon="11.735522089143469"><ele>363.0</ele><time>2026-05-02T16:02:45Z</time></trkpt><trkpt lat="43.74327032655714" lon="11.735343979301339"><ele>363.0</ele><time>2026-05-02T16:02:46Z</time></trkpt><trkpt lat="43.743366789103675" lon="11.735148953580497"><ele>363.0</ele><time>2026-05-02T16:02:47Z</time></trkpt><trkpt lat="43.74345686002429" lon="11.734927738103389"><ele>364.0</ele><time>2026-05-02T16:02:48Z</time></trkpt><trkpt lat="43.74353404129683" lon="11.734720418841714"><ele>365.0</ele><time>2026-05-02T16:02:49Z</time></trkpt><trkpt lat="43.74361692334562" lon="11.734518800411838"><ele>366.0</ele><time>2026-05-02T16:02:50Z</time></trkpt><trkpt lat="43.74370930220042" lon="11.734291034192372"><ele>369.0</ele><time>2026-05-02T16:02:51Z</time></trkpt><trkpt lat="43.74379957840335" lon="11.734053318646989"><ele>372.0</ele><time>2026-05-02T16:02:52Z</time></trkpt><trkpt lat="43.743889023218465" lon="11.733804107507817"><ele>375.0</ele><time>2026-05-02T16:02:53Z</time></trkpt><trkpt lat="43.743973213454545" lon="11.733557198963478"><ele>376.0</ele><time>2026-05-02T16:02:54Z</time></trkpt><trkpt lat="43.744056568795" lon="11.733304195430913"><ele>377.0</ele><time>2026-05-02T16:02:55Z</time></trkpt><trkpt lat="43.7441395609513" lon="11.73305272583416"><ele>378.0</ele><time>2026-05-02T16:02:56Z</time></trkpt><trkpt lat="43.74422613542525" lon="11.732813662967555"><ele>377.3333333333333</ele><time>2026-05-02T16:02:57Z</time></trkpt><trkpt lat="43.74431976141957" lon="11.732576626347857"><ele>376.66666666666663</ele><time>2026-05-02T16:02:58Z</time></trkpt><trkpt lat="43.744424163521394" lon="11.732336125879568"><ele>376.0</ele><time>2026-05-02T16:02:59Z</time></trkpt><trkpt lat="43.744522665705624" lon="11.732105933846897"><ele>381.0</ele><time>2026-05-02T16:03:00Z</time></trkpt><trkpt lat="43.744620471508156" lon="11.731897501810314"><ele>386.0</ele><time>2026-05-02T16:03:01Z</time></trkpt><trkpt lat="43.74471805718414" lon="11.73168926432413"><ele>391.0</ele><time>2026-05-02T16:03:02Z</time></trkpt><trkpt lat="43.74481805021322" lon="11.731474867454583"><ele>391.0</ele><time>2026-05-02T16:03:03Z</time></trkpt><trkpt lat="43.74491372375942" lon="11.731249417731105"><ele>391.0</ele><time>2026-05-02T16:03:04Z</time></trkpt><trkpt lat="43.74499081233063" lon="11.731020243466869"><ele>391.0</ele><time>2026-05-02T16:03:05Z</time></trkpt><trkpt lat="43.74505401924492" lon="11.730778470236203"><ele>389.6666666666667</ele><time>2026-05-02T16:03:06Z</time></trkpt><trkpt lat="43.745109407042825" lon="11.73052048928149"><ele>388.33333333333337</ele><time>2026-05-02T16:03:07Z</time></trkpt><trkpt lat="43.745169239401065" lon="11.730245683007194"><ele>387.0</ele><time>2026-05-02T16:03:08Z</time></trkpt><trkpt lat="43.74523053790752" lon="11.729966055154312"><ele>391.0</ele><time>2026-05-02T16:03:09Z</time></trkpt><trkpt lat="43.74529508204558" lon="11.729705343330787"><ele>395.0</ele><time>2026-05-02T16:03:10Z</time></trkpt><trkpt lat="43.74535449354473" lon="11.729473768235268"><ele>399.0</ele><time>2026-05-02T16:03:11Z</time></trkpt><trkpt lat="43.74544413082328" lon="11.729259797911512"><ele>399.0</ele><time>2026-05-02T16:03:12Z</time></trkpt><trkpt lat="43.74555413494942" lon="11.729055565650526"><ele>399.0</ele><time>2026-05-02T16:03:13Z</time></trkpt><trkpt lat="43.74567898211751" lon="11.728893257767322"><ele>399.0</ele><time>2026-05-02T16:03:14Z</time></trkpt><trkpt lat="43.745830116747584" lon="11.728733476815261"><ele>399.0</ele><time>2026-05-02T16:03:15Z</time></trkpt><trkpt lat="43.74599265330606" lon="11.728565514247446"><ele>399.0</ele><time>2026-05-02T16:03:16Z</time></trkpt><trkpt lat="43.74615228478546" lon="11.728365273441803"><ele>399.0</ele><time>2026-05-02T16:03:17Z</time></trkpt><trkpt lat="43.746305912635876" lon="11.728131403060985"><ele>402.5</ele><time>2026-05-02T16:03:18Z</time></trkpt><trkpt lat="43.746452035919674" lon="11.727877838409558"><ele>406.0</ele><time>2026-05-02T16:03:19Z</time></trkpt><trkpt lat="43.746584398405346" lon="11.727642306652914"><ele>406.0</ele><time>2026-05-02T16:03:20Z</time></trkpt><trkpt lat="43.746696413308236" lon="11.727434893423434"><ele>406.0</ele><time>2026-05-02T16:03:21Z</time></trkpt><trkpt lat="43.74679644329982" lon="11.727249128330152"><ele>406.0</ele><time>2026-05-02T16:03:22Z</time></trkpt><trkpt lat="43.74689165109247" lon="11.727071777202067"><ele>408.0</ele><time>2026-05-02T16:03:23Z</time></trkpt><trkpt lat="43.74697937184015" lon="11.726911874023717"><ele>410.0</ele><time>2026-05-02T16:03:24Z</time></trkpt><trkpt lat="43.74706371146537" lon="11.726767323542022"><ele>412.0</ele><time>2026-05-02T16:03:25Z</time></trkpt><trkpt lat="43.747165815130444" lon="11.726622384427337"><ele>414.0</ele><time>2026-05-02T16:03:26Z</time></trkpt><trkpt lat="43.74728017276225" lon="11.726513331917447"><ele>414.0</ele><time>2026-05-02T16:03:27Z</time></trkpt><trkpt lat="43.747414042648806" lon="11.726440487304766"><ele>414.0</ele><time>2026-05-02T16:03:28Z</time></trkpt><trkpt lat="43.74755973958968" lon="11.72644696735348"><ele>414.0</ele><time>2026-05-02T16:03:29Z</time></trkpt><trkpt lat="43.747722707409665" lon="11.72641012819514"><ele>416.0</ele><time>2026-05-02T16:03:30Z</time></trkpt><trkpt lat="43.74789477857861" lon="11.726384404630151"><ele>418.0</ele><time>2026-05-02T16:03:31Z</time></trkpt><trkpt lat="43.748055489910364" lon="11.726266880809442"><ele>420.0</ele><time>2026-05-02T16:03:32Z</time></trkpt><trkpt lat="43.74820411307605" lon="11.726146315296814"><ele>419.75</ele><time>2026-05-02T16:03:33Z</time></trkpt><trkpt lat="43.7483315641681" lon="11.726041482539866"><ele>419.5</ele><time>2026-05-02T16:03:34Z</time></trkpt><trkpt lat="43.748466334543565" lon="11.72596589175689"><ele>419.25</ele><time>2026-05-02T16:03:35Z</time></trkpt><trkpt lat="43.74860550129305" lon="11.725939156313899"><ele>419.0</ele><time>2026-05-02T16:03:36Z</time></trkpt><trkpt lat="43.748736449189735" lon="11.725953311950805"><ele>419.0</ele><time>2026-05-02T16:03:37Z</time></trkpt><trkpt lat="43.7488560337147" lon="11.725962352120613"><ele>419.0</ele><time>2026-05-02T16:03:38Z</time></trkpt><trkpt lat="43.748963993641425" lon="11.72595906463552"><ele>419.0</ele><time>2026-05-02T16:03:39Z</time></trkpt><trkpt lat="43.74905670513553" lon="11.725835496604189"><ele>419.0</ele><time>2026-05-02T16:03:40Z</time></trkpt><trkpt lat="43.749147819385634" lon="11.725710556004064"><ele>419.0</ele><time>2026-05-02T16:03:41Z</time></trkpt><trkpt lat="43.749235080740384" lon="11.72558986588239"><ele>419.0</ele><time>2026-05-02T16:03:42Z</time></trkpt><trkpt lat="43.74930991332219" lon="11.725489212100253"><ele>419.0</ele><time>2026-05-02T16:03:43Z</time></trkpt><trkpt lat="43.74938259166651" lon="11.725394584109472"><ele>419.0</ele><time>2026-05-02T16:03:44Z</time></trkpt><trkpt lat="43.74946038497499" lon="11.725292829460706"><ele>419.0</ele><time>2026-05-02T16:03:45Z</time></trkpt><trkpt lat="43.749540732279755" lon="11.72518403380917"><ele>420.0</ele><time>2026-05-02T16:03:46Z</time></trkpt><trkpt lat="43.74964172668773" lon="11.72507401204647"><ele>421.0</ele><time>2026-05-02T16:03:47Z</time></trkpt><trkpt lat="43.74971960311355" lon="11.72495932831099"><ele>422.0</ele><time>2026-05-02T16:03:48Z</time></trkpt><trkpt lat="43.749795587400875" lon="11.724855974595394"><ele>423.0</ele><time>2026-05-02T16:03:49Z</time></trkpt><trkpt lat="43.74987561673676" lon="11.724745944720931"><ele>423.0</ele><time>2026-05-02T16:03:50Z</time></trkpt><trkpt lat="43.74994950277875" lon="11.724639511212226"><ele>423.0</ele><time>2026-05-02T16:03:51Z</time></trkpt><trkpt lat="43.75002208435272" lon="11.724566322623799"><ele>423.0</ele><time>2026-05-02T16:03:52Z</time></trkpt><trkpt lat="43.75010607223996" lon="11.724490460892955"><ele>423.0</ele><time>2026-05-02T16:03:53Z</time></trkpt><trkpt lat="43.75020709969566" lon="11.724390064643506"><ele>423.0</ele><time>2026-05-02T16:03:54Z</time></trkpt><trkpt lat="43.75033447287018" lon="11.724295733522844"><ele>424.0</ele><time>2026-05-02T16:03:55Z</time></trkpt><trkpt lat="43.7504565036808" lon="11.724186485255117"><ele>425.0</ele><time>2026-05-02T16:03:56Z</time></trkpt><trkpt lat="43.750573148825964" lon="11.724104669778995"><ele>426.0</ele><time>2026-05-02T16:03:57Z</time></trkpt><trkpt lat="43.75068011198863" lon="11.723996840788594"><ele>427.0</ele><time>2026-05-02T16:03:58Z</time></trkpt><trkpt lat="43.750798364325576" lon="11.723909159611303"><ele>427.0</ele><time>2026-05-02T16:03:59Z</time></trkpt><trkpt lat="43.75091331409037" lon="11.723831839238924"><ele>427.0</ele><time>2026-05-02T16:04:00Z</time></trkpt><trkpt lat="43.75102622217057" lon="11.723749507574356"><ele>427.0</ele><time>2026-05-02T16:04:01Z</time></trkpt><trkpt lat="43.75114605772947" lon="11.723676225544748"><ele>427.0</ele><time>2026-05-02T16:04:02Z</time></trkpt><trkpt lat="43.75126952224791" lon="11.72359829609763"><ele>426.5</ele><time>2026-05-02T16:04:03Z</time></trkpt><trkpt lat="43.75139276653803" lon="11.723502149502401"><ele>426.0</ele><time>2026-05-02T16:04:04Z</time></trkpt><trkpt lat="43.751525917927204" lon="11.723407671709777"><ele>425.5</ele><time>2026-05-02T16:04:05Z</time></trkpt><trkpt lat="43.75166751828814" lon="11.723311778962248"><ele>425.0</ele><time>2026-05-02T16:04:06Z</time></trkpt><trkpt lat="43.751819138621876" lon="11.72321040236471"><ele>423.0</ele><time>2026-05-02T16:04:07Z</time></trkpt><trkpt lat="43.751959959980695" lon="11.72311191079311"><ele>421.0</ele><time>2026-05-02T16:04:08Z</time></trkpt><trkpt lat="43.752092497947906" lon="11.72302233746807"><ele>419.0</ele><time>2026-05-02T16:04:09Z</time></trkpt><trkpt lat="43.752234423604044" lon="11.722929502557834"><ele>419.0</ele><time>2026-05-02T16:04:10Z</time></trkpt><trkpt lat="43.75237744821469" lon="11.72282757304183"><ele>419.0</ele><time>2026-05-02T16:04:11Z</time></trkpt><trkpt lat="43.75251319045335" lon="11.722696885513566"><ele>419.0</ele><time>2026-05-02T16:04:12Z</time></trkpt><trkpt lat="43.75263178740592" lon="11.722537784214397"><ele>420.66666666666663</ele><time>2026-05-02T16:04:13Z</time></trkpt><trkpt lat="43.752687562749266" lon="11.722286420319248"><ele>422.33333333333337</ele><time>2026-05-02T16:04:14Z</time></trkpt><trkpt lat="43.75274302212549" lon="11.722027708485287"><ele>424.0</ele><time>2026-05-02T16:04:15Z</time></trkpt><trkpt lat="43.75279973852105" lon="11.72178263469378"><ele>427.25</ele><time>2026-05-02T16:04:16Z</time></trkpt><trkpt lat="43.75287061009069" lon="11.721591084162613"><ele>430.5</ele><time>2026-05-02T16:04:17Z</time></trkpt><trkpt lat="43.75296430234689" lon="11.721458039102247"><ele>433.75</ele><time>2026-05-02T16:04:18Z</time></trkpt><trkpt lat="43.75310170558603" lon="11.72139465034913"><ele>437.0</ele><time>2026-05-02T16:04:19Z</time></trkpt><trkpt lat="43.753228539739574" lon="11.721271110123075"><ele>437.0</ele><time>2026-05-02T16:04:20Z</time></trkpt><trkpt lat="43.75337844113448" lon="11.721124661607574"><ele>437.0</ele><time>2026-05-02T16:04:21Z</time></trkpt><trkpt lat="43.7534983127938" lon="11.720926696453795"><ele>437.0</ele><time>2026-05-02T16:04:22Z</time></trkpt><trkpt lat="43.75357767775301" lon="11.720701667930706"><ele>438.75</ele><time>2026-05-02T16:04:23Z</time></trkpt><trkpt lat="43.75363842135773" lon="11.7204870294531"><ele>440.5</ele><time>2026-05-02T16:04:24Z</time></trkpt><trkpt lat="43.753688794392374" lon="11.720298616813652"><ele>442.25</ele><time>2026-05-02T16:04:25Z</time></trkpt><trkpt lat="43.75375219755931" lon="11.720138456548323"><ele>444.0</ele><time>2026-05-02T16:04:26Z</time></trkpt><trkpt lat="43.753862223567126" lon="11.720030804162384"><ele>444.0</ele><time>2026-05-02T16:04:27Z</time></trkpt><trkpt lat="43.75399177330497" lon="11.71993400135627"><ele>444.0</ele><time>2026-05-02T16:04:28Z</time></trkpt><trkpt lat="43.75414339035484" lon="11.719885685480861"><ele>444.0</ele><time>2026-05-02T16:04:29Z</time></trkpt><trkpt lat="43.75432017757495" lon="11.71982386857034"><ele>446.66666666666663</ele><time>2026-05-02T16:04:30Z</time></trkpt><trkpt lat="43.75451308552713" lon="11.719788678193801"><ele>449.3333333333333</ele><time>2026-05-02T16:04:31Z</time></trkpt><trkpt lat="43.75469047963069" lon="11.719733117160407"><ele>452.0</ele><time>2026-05-02T16:04:32Z</time></trkpt><trkpt lat="43.75485296353969" lon="11.71964274186757"><ele>452.0</ele><time>2026-05-02T16:04:33Z</time></trkpt><trkpt lat="43.75499769646651" lon="11.719475230474728"><ele>452.0</ele><time>2026-05-02T16:04:34Z</time></trkpt><trkpt lat="43.75514806643636" lon="11.719254315911945"><ele>452.0</ele><time>2026-05-02T16:04:35Z</time></trkpt><trkpt lat="43.755293502165905" lon="11.719031359731192"><ele>455.0</ele><time>2026-05-02T16:04:36Z</time></trkpt><trkpt lat="43.75542347198406" lon="11.718801307371962"><ele>458.0</ele><time>2026-05-02T16:04:37Z</time></trkpt><trkpt lat="43.7555108116933" lon="11.71857622642397"><ele>461.0</ele><time>2026-05-02T16:04:38Z</time></trkpt><trkpt lat="43.75555191742142" lon="11.718352661481756"><ele>461.3333333333333</ele><time>2026-05-02T16:04:39Z</time></trkpt><trkpt lat="43.75558773908193" lon="11.718148236188744"><ele>461.66666666666663</ele><time>2026-05-02T16:04:40Z</time></trkpt><trkpt lat="43.75566520228439" lon="11.717981379354848"><ele>462.0</ele><time>2026-05-02T16:04:41Z</time></trkpt><trkpt lat="43.75579540595654" lon="11.717831926247003"><ele>460.33333333333337</ele><time>2026-05-02T16:04:42Z</time></trkpt><trkpt lat="43.75595572397161" lon="11.717687270618171"><ele>458.6666666666667</ele><time>2026-05-02T16:04:43Z</time></trkpt><trkpt lat="43.75614660377011" lon="11.71758346328336"><ele>457.0</ele><time>2026-05-02T16:04:44Z</time></trkpt><trkpt lat="43.75635691052641" lon="11.717490673988666"><ele>460.6666666666667</ele><time>2026-05-02T16:04:45Z</time></trkpt><trkpt lat="43.75654158223364" lon="11.717410155804174"><ele>464.33333333333337</ele><time>2026-05-02T16:04:46Z</time></trkpt><trkpt lat="43.75671269456363" lon="11.717363445493447"><ele>468.0</ele><time>2026-05-02T16:04:47Z</time></trkpt><trkpt lat="43.756900802471264" lon="11.717386585483085"><ele>471.66666666666663</ele><time>2026-05-02T16:04:48Z</time></trkpt><trkpt lat="43.7571053471255" lon="11.717413360073799"><ele>475.3333333333333</ele><time>2026-05-02T16:04:49Z</time></trkpt><trkpt lat="43.75729862282304" lon="11.717376794073067"><ele>479.0</ele><time>2026-05-02T16:04:50Z</time></trkpt><trkpt lat="43.757487131551954" lon="11.717258746765953"><ele>479.0</ele><time>2026-05-02T16:04:51Z</time></trkpt><trkpt lat="43.75768281729323" lon="11.717112188617259"><ele>479.0</ele><time>2026-05-02T16:04:52Z</time></trkpt><trkpt lat="43.75788550208244" lon="11.716980579974956"><ele>479.0</ele><time>2026-05-02T16:04:53Z</time></trkpt><trkpt lat="43.7580755017424" lon="11.716847820373584"><ele>482.0</ele><time>2026-05-02T16:04:54Z</time></trkpt><trkpt lat="43.758247953849185" lon="11.71668038961027"><ele>485.0</ele><time>2026-05-02T16:04:55Z</time></trkpt><trkpt lat="43.75839576113517" lon="11.716467864632303"><ele>488.0</ele><time>2026-05-02T16:04:56Z</time></trkpt><trkpt lat="43.75852273989402" lon="11.716272595853049"><ele>492.0</ele><time>2026-05-02T16:04:57Z</time></trkpt><trkpt lat="43.75863336616544" lon="11.716059791999966"><ele>496.0</ele><time>2026-05-02T16:04:58Z</time></trkpt><trkpt lat="43.75871357977785" lon="11.715847394841921"><ele>500.0</ele><time>2026-05-02T16:04:59Z</time></trkpt><trkpt lat="43.75876299463066" lon="11.71565497950847"><ele>500.0</ele><time>2026-05-02T16:05:00Z</time></trkpt><trkpt lat="43.758775821032835" lon="11.71545818957566"><ele>500.0</ele><time>2026-05-02T16:05:01Z</time></trkpt><trkpt lat="43.75874464262347" lon="11.715235253485965"><ele>500.0</ele><time>2026-05-02T16:05:02Z</time></trkpt><trkpt lat="43.75869791939761" lon="11.714992031624378"><ele>500.66666666666663</ele><time>2026-05-02T16:05:03Z</time></trkpt><trkpt lat="43.75865837464027" lon="11.714772830826973"><ele>501.33333333333337</ele><time>2026-05-02T16:05:04Z</time></trkpt><trkpt lat="43.75864406228373" lon="11.714563487523607"><ele>502.0</ele><time>2026-05-02T16:05:05Z</time></trkpt><trkpt lat="43.7586968822918" lon="11.714337555876224"><ele>502.0</ele><time>2026-05-02T16:05:06Z</time></trkpt><trkpt lat="43.75873016317331" lon="11.714063111660458"><ele>502.0</ele><time>2026-05-02T16:05:07Z</time></trkpt><trkpt lat="43.758778674111504" lon="11.71381479916635"><ele>502.0</ele><time>2026-05-02T16:05:08Z</time></trkpt><trkpt lat="43.75882124104099" lon="11.713602622106167"><ele>499.6666666666667</ele><time>2026-05-02T16:05:09Z</time></trkpt><trkpt lat="43.7588959851186" lon="11.713416206858584"><ele>497.33333333333337</ele><time>2026-05-02T16:05:10Z</time></trkpt><trkpt lat="43.75903830853232" lon="11.713267451726528"><ele>495.0</ele><time>2026-05-02T16:05:11Z</time></trkpt><trkpt lat="43.759158079641644" lon="11.713071385271753"><ele>495.0</ele><time>2026-05-02T16:05:12Z</time></trkpt><trkpt lat="43.759268596629866" lon="11.712847846045069"><ele>495.0</ele><time>2026-05-02T16:05:13Z</time></trkpt><trkpt lat="43.759349320262565" lon="11.712555365539044"><ele>495.0</ele><time>2026-05-02T16:05:14Z</time></trkpt><trkpt lat="43.759417038859965" lon="11.712245488123399"><ele>497.0</ele><time>2026-05-02T16:05:15Z</time></trkpt><trkpt lat="43.759481883450896" lon="11.711965830012064"><ele>499.0</ele><time>2026-05-02T16:05:16Z</time></trkpt><trkpt lat="43.75955217359957" lon="11.711706623988142"><ele>501.0</ele><time>2026-05-02T16:05:17Z</time></trkpt><trkpt lat="43.75963756416852" lon="11.711448462541036"><ele>501.0</ele><time>2026-05-02T16:05:18Z</time></trkpt><trkpt lat="43.75973569642511" lon="11.71118408317573"><ele>501.0</ele><time>2026-05-02T16:05:19Z</time></trkpt><trkpt lat="43.75983748227937" lon="11.71091862219993"><ele>501.0</ele><time>2026-05-02T16:05:20Z</time></trkpt><trkpt lat="43.759928854389734" lon="11.710675262661438"><ele>499.66666666666663</ele><time>2026-05-02T16:05:21Z</time></trkpt><trkpt lat="43.760012242063816" lon="11.710454674275143"><ele>498.3333333333333</ele><time>2026-05-02T16:05:22Z</time></trkpt><trkpt lat="43.760108170385" lon="11.710258406851516"><ele>497.0</ele><time>2026-05-02T16:05:23Z</time></trkpt><trkpt lat="43.760225711713105" lon="11.710080258965835"><ele>500.3333333333333</ele><time>2026-05-02T16:05:24Z</time></trkpt><trkpt lat="43.76035639155601" lon="11.709920916604917"><ele>503.66666666666663</ele><time>2026-05-02T16:05:25Z</time></trkpt><trkpt lat="43.76047907325826" lon="11.709772518972668"><ele>507.0</ele><time>2026-05-02T16:05:26Z</time></trkpt><trkpt lat="43.760615714042" lon="11.709649606645788"><ele>507.0</ele><time>2026-05-02T16:05:27Z</time></trkpt><trkpt lat="43.760788114809536" lon="11.70953567355324"><ele>507.0</ele><time>2026-05-02T16:05:28Z</time></trkpt><trkpt lat="43.76098557564294" lon="11.709431298513126"><ele>507.0</ele><time>2026-05-02T16:05:29Z</time></trkpt><trkpt lat="43.76118817625095" lon="11.709313925241002"><ele>508.33333333333337</ele><time>2026-05-02T16:05:30Z</time></trkpt><trkpt lat="43.76139148419073" lon="11.709227405462562"><ele>509.6666666666667</ele><time>2026-05-02T16:05:31Z</time></trkpt><trkpt lat="43.76160347680333" lon="11.709174417499181"><ele>511.0</ele><time>2026-05-02T16:05:32Z</time></trkpt><trkpt lat="43.761827680253035" lon="11.70913410479001"><ele>513.0</ele><time>2026-05-02T16:05:33Z</time></trkpt><trkpt lat="43.762029819955494" lon="11.709082780134612"><ele>515.0</ele><time>2026-05-02T16:05:34Z</time></trkpt><trkpt lat="43.762204437230615" lon="11.70902688353998"><ele>517.0</ele><time>2026-05-02T16:05:35Z</time></trkpt><trkpt lat="43.76233962671088" lon="11.708942785829514"><ele>517.0</ele><time>2026-05-02T16:05:36Z</time></trkpt><trkpt lat="43.76245322712328" lon="11.708800114681983"><ele>517.0</ele><time>2026-05-02T16:05:37Z</time></trkpt><trkpt lat="43.76254775801865" lon="11.708588179880559"><ele>517.0</ele><time>2026-05-02T16:05:38Z</time></trkpt><trkpt lat="43.76262155895846" lon="11.708325427118579"><ele>517.6666666666667</ele><time>2026-05-02T16:05:39Z</time></trkpt><trkpt lat="43.762683680752176" lon="11.708077389621279"><ele>518.3333333333334</ele><time>2026-05-02T16:05:40Z</time></trkpt><trkpt lat="43.76275054105718" lon="11.707877465270153"><ele>519.0</ele><time>2026-05-02T16:05:41Z</time></trkpt><trkpt lat="43.76284138425776" lon="11.707697667491036"><ele>522.6666666666666</ele><time>2026-05-02T16:05:42Z</time></trkpt><trkpt lat="43.76297248352577" lon="11.707515023303902"><ele>526.3333333333333</ele><time>2026-05-02T16:05:43Z</time></trkpt><trkpt lat="43.76312524043758" lon="11.707314388121839"><ele>530.0</ele><time>2026-05-02T16:05:44Z</time></trkpt><trkpt lat="43.76326333811919" lon="11.707103143103641"><ele>527.6666666666666</ele><time>2026-05-02T16:05:45Z</time></trkpt><trkpt lat="43.76340310391195" lon="11.706894156003512"><ele>525.3333333333334</ele><time>2026-05-02T16:05:46Z</time></trkpt><trkpt lat="43.763545227964705" lon="11.706698863663094"><ele>523.0</ele><time>2026-05-02T16:05:47Z</time></trkpt><trkpt lat="43.76369728371466" lon="11.706512638350956"><ele>523.3333333333334</ele><time>2026-05-02T16:05:48Z</time></trkpt><trkpt lat="43.763887980410544" lon="11.706360510623906"><ele>523.6666666666666</ele><time>2026-05-02T16:05:49Z</time></trkpt><trkpt lat="43.764079870050594" lon="11.7061897291733"><ele>524.0</ele><time>2026-05-02T16:05:50Z</time></trkpt><trkpt lat="43.76428487871758" lon="11.706027279102365"><ele>532.0</ele><time>2026-05-02T16:05:51Z</time></trkpt><trkpt lat="43.764498096557624" lon="11.705847373453642"><ele>540.0</ele><time>2026-05-02T16:05:52Z</time></trkpt><trkpt lat="43.76471688506354" lon="11.705662368814322"><ele>540.0</ele><time>2026-05-02T16:05:53Z</time></trkpt><trkpt lat="43.76492239219241" lon="11.705491811255886"><ele>540.0</ele><time>2026-05-02T16:05:54Z</time></trkpt><trkpt lat="43.765114174907644" lon="11.705322628716019"><ele>543.0</ele><time>2026-05-02T16:05:55Z</time></trkpt><trkpt lat="43.76530491193942" lon="11.705141840097044"><ele>546.0</ele><time>2026-05-02T16:05:56Z</time></trkpt><trkpt lat="43.76548711662497" lon="11.704929492925361"><ele>546.0</ele><time>2026-05-02T16:05:57Z</time></trkpt><trkpt lat="43.76563661317366" lon="11.704709294980097"><ele>546.0</ele><time>2026-05-02T16:05:58Z</time></trkpt><trkpt lat="43.76576425713484" lon="11.704491850800057"><ele>546.0</ele><time>2026-05-02T16:05:59Z</time></trkpt><trkpt lat="43.76586753190155" lon="11.704266038603333"><ele>546.0</ele><time>2026-05-02T16:06:00Z</time></trkpt><trkpt lat="43.765937803970395" lon="11.704024871784803"><ele>546.0</ele><time>2026-05-02T16:06:01.001Z</time></trkpt><trkpt lat="43.765973931739275" lon="11.703765353813196"><ele>546.0</ele><time>2026-05-02T16:06:02.001Z</time></trkpt><trkpt lat="43.76596895909784" lon="11.703522366365528"><ele>547.0</ele><time>2026-05-02T16:06:03.001Z</time></trkpt><trkpt lat="43.76596116090192" lon="11.70332452067967"><ele>548.0</ele><time>2026-05-02T16:06:04.001Z</time></trkpt><trkpt lat="43.76597253273975" lon="11.703162969088824"><ele>549.0</ele><time>2026-05-02T16:06:05.001Z</time></trkpt><trkpt lat="43.766032445082466" lon="11.703058702135783"><ele>550.0</ele><time>2026-05-02T16:06:06.001Z</time></trkpt><trkpt lat="43.76608806650139" lon="11.702942383346526"><ele>552.25</ele><time>2026-05-02T16:06:07.001Z</time></trkpt><trkpt lat="43.76620980970601" lon="11.70284968638471"><ele>554.5</ele><time>2026-05-02T16:06:08.001Z</time></trkpt><trkpt lat="43.76635427069454" lon="11.702788508084236"><ele>556.75</ele><time>2026-05-02T16:06:09.001Z</time></trkpt><trkpt lat="43.7664850217297" lon="11.702782772211988"><ele>559.0</ele><time>2026-05-02T16:06:10.001Z</time></trkpt><trkpt lat="43.76660037173418" lon="11.702874351423374"><ele>559.0</ele><time>2026-05-02T16:06:11.001Z</time></trkpt><trkpt lat="43.76674333364145" lon="11.702962030705715"><ele>559.0</ele><time>2026-05-02T16:06:12.001Z</time></trkpt><trkpt lat="43.76693146293172" lon="11.703016983031166"><ele>559.0</ele><time>2026-05-02T16:06:13.001Z</time></trkpt><trkpt lat="43.767131948326984" lon="11.703059919618614"><ele>559.0</ele><time>2026-05-02T16:06:14.001Z</time></trkpt><trkpt lat="43.76734436123055" lon="11.703008160049357"><ele>559.0</ele><time>2026-05-02T16:06:15.001Z</time></trkpt><trkpt lat="43.767557467915026" lon="11.70291977570626"><ele>559.0</ele><time>2026-05-02T16:06:16.001Z</time></trkpt><trkpt lat="43.76776601682329" lon="11.702758885867809"><ele>561.5</ele><time>2026-05-02T16:06:17.001Z</time></trkpt><trkpt lat="43.76796605963598" lon="11.702528768537501"><ele>564.0</ele><time>2026-05-02T16:06:18.001Z</time></trkpt><trkpt lat="43.76817156882797" lon="11.702284988549994"><ele>564.0</ele><time>2026-05-02T16:06:19.001Z</time></trkpt><trkpt lat="43.76837767784798" lon="11.70204289363436"><ele>564.0</ele><time>2026-05-02T16:06:20Z</time></trkpt><trkpt lat="43.76858554474461" lon="11.701807686915886"><ele>562.5</ele><time>2026-05-02T16:06:21Z</time></trkpt><trkpt lat="43.76879542529111" lon="11.701568931697114"><ele>561.0</ele><time>2026-05-02T16:06:22Z</time></trkpt><trkpt lat="43.76899717177706" lon="11.701325239907153"><ele>561.0</ele><time>2026-05-02T16:06:23Z</time></trkpt><trkpt lat="43.76918077522188" lon="11.701093206308773"><ele>561.0</ele><time>2026-05-02T16:06:24Z</time></trkpt><trkpt lat="43.76934799742483" lon="11.700881045746128"><ele>561.6666666666666</ele><time>2026-05-02T16:06:25Z</time></trkpt><trkpt lat="43.7695044366246" lon="11.700680166594529"><ele>562.3333333333333</ele><time>2026-05-02T16:06:26Z</time></trkpt><trkpt lat="43.769638363994915" lon="11.700488437695745"><ele>563.0</ele><time>2026-05-02T16:06:27Z</time></trkpt><trkpt lat="43.76974295848207" lon="11.70030164845505"><ele>566.0</ele><time>2026-05-02T16:06:28Z</time></trkpt><trkpt lat="43.76982620192455" lon="11.70007916861575"><ele>569.0</ele><time>2026-05-02T16:06:29Z</time></trkpt><trkpt lat="43.769902951458256" lon="11.699814737931417"><ele>572.0</ele><time>2026-05-02T16:06:30Z</time></trkpt><trkpt lat="43.769980071829885" lon="11.699578129520248"><ele>574.3333333333333</ele><time>2026-05-02T16:06:31Z</time></trkpt><trkpt lat="43.77005699580382" lon="11.699354781319641"><ele>576.6666666666666</ele><time>2026-05-02T16:06:32Z</time></trkpt><trkpt lat="43.770131190475595" lon="11.699169194430318"><ele>579.0</ele><time>2026-05-02T16:06:33Z</time></trkpt><trkpt lat="43.77021834418621" lon="11.699002341855913"><ele>579.3333333333334</ele><time>2026-05-02T16:06:34Z</time></trkpt><trkpt lat="43.77032085060284" lon="11.698869016516634"><ele>579.6666666666667</ele><time>2026-05-02T16:06:35Z</time></trkpt><trkpt lat="43.77044766763567" lon="11.698761273885241"><ele>580.0</ele><time>2026-05-02T16:06:36Z</time></trkpt><trkpt lat="43.770593731634825" lon="11.698611021673814"><ele>582.6666666666667</ele><time>2026-05-02T16:06:37Z</time></trkpt><trkpt lat="43.77074069710298" lon="11.698436957315526"><ele>585.3333333333334</ele><time>2026-05-02T16:06:38Z</time></trkpt><trkpt lat="43.7708923838213" lon="11.69826004775144"><ele>588.0</ele><time>2026-05-02T16:06:39Z</time></trkpt><trkpt lat="43.77101160865678" lon="11.698058364747277"><ele>588.6666666666666</ele><time>2026-05-02T16:06:40Z</time></trkpt><trkpt lat="43.771090421829314" lon="11.697819274455068"><ele>589.3333333333333</ele><time>2026-05-02T16:06:41Z</time></trkpt><trkpt lat="43.7711181381685" lon="11.697560467402493"><ele>590.0</ele><time>2026-05-02T16:06:42Z</time></trkpt><trkpt lat="43.77109923807579" lon="11.697297557334357"><ele>592.3333333333333</ele><time>2026-05-02T16:06:43Z</time></trkpt><trkpt lat="43.77104131302722" lon="11.697020860687587"><ele>594.6666666666666</ele><time>2026-05-02T16:06:44Z</time></trkpt><trkpt lat="43.77098876412647" lon="11.696777491820757"><ele>597.0</ele><time>2026-05-02T16:06:45Z</time></trkpt><trkpt lat="43.77099558126368" lon="11.696570798903855"><ele>600.3333333333334</ele><time>2026-05-02T16:06:46Z</time></trkpt><trkpt lat="43.77103447944223" lon="11.696375384834457"><ele>603.6666666666667</ele><time>2026-05-02T16:06:47Z</time></trkpt><trkpt lat="43.771091534808505" lon="11.696135777476144"><ele>607.0</ele><time>2026-05-02T16:06:48Z</time></trkpt><trkpt lat="43.77116449105725" lon="11.695871334105346"><ele>610.6666666666667</ele><time>2026-05-02T16:06:49Z</time></trkpt><trkpt lat="43.77123770496786" lon="11.69560133072038"><ele>614.3333333333334</ele><time>2026-05-02T16:06:50Z</time></trkpt><trkpt lat="43.77129894419201" lon="11.695356290354395"><ele>618.0</ele><time>2026-05-02T16:06:51Z</time></trkpt><trkpt lat="43.771331526179026" lon="11.695126138972263"><ele>618.5</ele><time>2026-05-02T16:06:52Z</time></trkpt><trkpt lat="43.77135259772511" lon="11.694917323544171"><ele>619.0</ele><time>2026-05-02T16:06:53Z</time></trkpt><trkpt lat="43.7713874109324" lon="11.694745539077141"><ele>619.5</ele><time>2026-05-02T16:06:54Z</time></trkpt><trkpt lat="43.77145887752333" lon="11.694593020939939"><ele>620.0</ele><time>2026-05-02T16:06:55Z</time></trkpt><trkpt lat="43.77159146302321" lon="11.694484712134594"><ele>620.3333333333333</ele><time>2026-05-02T16:06:56Z</time></trkpt><trkpt lat="43.771733757573095" lon="11.694332058978848"><ele>620.6666666666666</ele><time>2026-05-02T16:06:57Z</time></trkpt><trkpt lat="43.77188858627539" lon="11.69417661765635"><ele>621.0</ele><time>2026-05-02T16:06:58Z</time></trkpt><trkpt lat="43.772026532229596" lon="11.693988683962333"><ele>625.3333333333334</ele><time>2026-05-02T16:06:59Z</time></trkpt><trkpt lat="43.77212812440987" lon="11.693776927086468"><ele>629.6666666666667</ele><time>2026-05-02T16:07:00Z</time></trkpt><trkpt lat="43.772187106075926" lon="11.69357207278159"><ele>634.0</ele><time>2026-05-02T16:07:01Z</time></trkpt><trkpt lat="43.77221196940838" lon="11.693394806512332"><ele>634.0</ele><time>2026-05-02T16:07:02Z</time></trkpt><trkpt lat="43.772259062710475" lon="11.693256725452983"><ele>634.0</ele><time>2026-05-02T16:07:03Z</time></trkpt><trkpt lat="43.77234244990992" lon="11.693186557561813"><ele>634.0</ele><time>2026-05-02T16:07:04Z</time></trkpt><trkpt lat="43.77244300646501" lon="11.69319434976595"><ele>634.0</ele><time>2026-05-02T16:07:05Z</time></trkpt><trkpt lat="43.77253504566316" lon="11.693252240781677"><ele>634.0</ele><time>2026-05-02T16:07:06Z</time></trkpt><trkpt lat="43.772586552399076" lon="11.693377832587565"><ele>634.0</ele><time>2026-05-02T16:07:07Z</time></trkpt><trkpt lat="43.77257522307185" lon="11.693542863256123"><ele>634.0</ele><time>2026-05-02T16:07:08Z</time></trkpt><trkpt lat="43.77255193341109" lon="11.69372926549634"><ele>634.0</ele><time>2026-05-02T16:07:09Z</time></trkpt><trkpt lat="43.7725009170362" lon="11.693943945923944"><ele>634.0</ele><time>2026-05-02T16:07:10Z</time></trkpt><trkpt lat="43.7725073398426" lon="11.69411511881516"><ele>634.25</ele><time>2026-05-02T16:07:11Z</time></trkpt><trkpt lat="43.77257297905697" lon="11.694259599549913"><ele>634.5</ele><time>2026-05-02T16:07:12Z</time></trkpt><trkpt lat="43.77265682612151" lon="11.694359263380536"><ele>634.75</ele><time>2026-05-02T16:07:13Z</time></trkpt><trkpt lat="43.77275467260253" lon="11.694431193163393"><ele>635.0</ele><time>2026-05-02T16:07:14Z</time></trkpt><trkpt lat="43.77290521126494" lon="11.694451967971323"><ele>639.0</ele><time>2026-05-02T16:07:15Z</time></trkpt><trkpt lat="43.773090679357125" lon="11.694474820463075"><ele>643.0</ele><time>2026-05-02T16:07:16Z</time></trkpt><trkpt lat="43.77325041848946" lon="11.694537334039728"><ele>647.0</ele><time>2026-05-02T16:07:17Z</time></trkpt><trkpt lat="43.77332667160215" lon="11.694681751926696"><ele>647.0</ele><time>2026-05-02T16:07:18Z</time></trkpt><trkpt lat="43.7733744354085" lon="11.694834513007653"><ele>647.0</ele><time>2026-05-02T16:07:19Z</time></trkpt><trkpt lat="43.77338763148047" lon="11.69503499225663"><ele>647.0</ele><time>2026-05-02T16:07:20Z</time></trkpt><trkpt lat="43.77342961095205" lon="11.695222903727544"><ele>647.0</ele><time>2026-05-02T16:07:21Z</time></trkpt><trkpt lat="43.77347388043954" lon="11.695347745031299"><ele>649.2</ele><time>2026-05-02T16:07:22Z</time></trkpt><trkpt lat="43.77354845948608" lon="11.69539596377981"><ele>651.4000000000001</ele><time>2026-05-02T16:07:23Z</time></trkpt><trkpt lat="43.773636501053545" lon="11.695381856549732"><ele>653.5999999999999</ele><time>2026-05-02T16:07:24Z</time></trkpt><trkpt lat="43.77372230068529" lon="11.695305544035286"><ele>655.8</ele><time>2026-05-02T16:07:25Z</time></trkpt><trkpt lat="43.77380837539823" lon="11.695171993634638"><ele>658.0</ele><time>2026-05-02T16:07:26Z</time></trkpt><trkpt lat="43.77390631023042" lon="11.69501098243918"><ele>659.0</ele><time>2026-05-02T16:07:27Z</time></trkpt><trkpt lat="43.77402288287753" lon="11.694817960029997"><ele>660.0</ele><time>2026-05-02T16:07:28Z</time></trkpt><trkpt lat="43.77412958551107" lon="11.694593983059235"><ele>661.0</ele><time>2026-05-02T16:07:29Z</time></trkpt><trkpt lat="43.77420856702054" lon="11.694351105114436"><ele>662.8</ele><time>2026-05-02T16:07:30Z</time></trkpt><trkpt lat="43.77429101217201" lon="11.694161705150563"><ele>664.5999999999999</ele><time>2026-05-02T16:07:31Z</time></trkpt><trkpt lat="43.774340136921246" lon="11.694023347108221"><ele>666.4</ele><time>2026-05-02T16:07:32Z</time></trkpt><trkpt lat="43.77441062032994" lon="11.693956174163258"><ele>668.2</ele><time>2026-05-02T16:07:33Z</time></trkpt><trkpt lat="43.77449430518002" lon="11.693953461224458"><ele>670.0</ele><time>2026-05-02T16:07:34Z</time></trkpt><trkpt lat="43.77456634539528" lon="11.694026626493697"><ele>672.5</ele><time>2026-05-02T16:07:35Z</time></trkpt><trkpt lat="43.77460936293344" lon="11.69415666115034"><ele>675.0</ele><time>2026-05-02T16:07:36Z</time></trkpt><trkpt lat="43.77459621816186" lon="11.694304535350044"><ele>677.5</ele><time>2026-05-02T16:07:37Z</time></trkpt><trkpt lat="43.77451170827046" lon="11.694455788046994"><ele>680.0</ele><time>2026-05-02T16:07:38Z</time></trkpt><trkpt lat="43.774465389556724" lon="11.694682068439613"><ele>682.0</ele><time>2026-05-02T16:07:39Z</time></trkpt><trkpt lat="43.77441130617243" lon="11.69493579522155"><ele>684.0</ele><time>2026-05-02T16:07:40Z</time></trkpt><trkpt lat="43.774374205029275" lon="11.695219236636857"><ele>686.0</ele><time>2026-05-02T16:07:41Z</time></trkpt><trkpt lat="43.77434767350472" lon="11.695529443701375"><ele>672.0</ele><time>2026-05-02T16:07:42Z</time></trkpt><trkpt lat="43.77433217980501" lon="11.695860198416325"><ele>658.0</ele><time>2026-05-02T16:07:43Z</time></trkpt><trkpt lat="43.774318588820385" lon="11.696159559893152"><ele>657.6666666666667</ele><time>2026-05-02T16:07:44Z</time></trkpt><trkpt lat="43.77429687173451" lon="11.696421526060135"><ele>657.3333333333334</ele><time>2026-05-02T16:07:45Z</time></trkpt><trkpt lat="43.77428170327563" lon="11.696659654336733"><ele>657.0</ele><time>2026-05-02T16:07:46Z</time></trkpt><trkpt lat="43.77430055245377" lon="11.69687316826312"><ele>660.6666666666666</ele><time>2026-05-02T16:07:47Z</time></trkpt><trkpt lat="43.77436728006478" lon="11.697068594472482"><ele>664.3333333333333</ele><time>2026-05-02T16:07:48Z</time></trkpt><trkpt lat="43.77447279808331" lon="11.69726976019621"><ele>668.0</ele><time>2026-05-02T16:07:49Z</time></trkpt><trkpt lat="43.77459628003692" lon="11.69741517345087"><ele>668.0</ele><time>2026-05-02T16:07:50Z</time></trkpt><trkpt lat="43.774726562246194" lon="11.697509618588143"><ele>668.0</ele><time>2026-05-02T16:07:51Z</time></trkpt><trkpt lat="43.7748740910804" lon="11.697524475160169"><ele>668.0</ele><time>2026-05-02T16:07:52Z</time></trkpt><trkpt lat="43.7750248645835" lon="11.697468030463499"><ele>668.0</ele><time>2026-05-02T16:07:53Z</time></trkpt><trkpt lat="43.7751653631516" lon="11.697351510539667"><ele>668.0</ele><time>2026-05-02T16:07:54Z</time></trkpt><trkpt lat="43.77529169222076" lon="11.697170817061792"><ele>668.0</ele><time>2026-05-02T16:07:55Z</time></trkpt><trkpt lat="43.77543971887464" lon="11.697048636588928"><ele>665.3333333333333</ele><time>2026-05-02T16:07:56Z</time></trkpt><trkpt lat="43.775604930154174" lon="11.696982117508337"><ele>662.6666666666666</ele><time>2026-05-02T16:07:57Z</time></trkpt><trkpt lat="43.77573367722556" lon="11.696894378184775"><ele>660.0</ele><time>2026-05-02T16:07:58Z</time></trkpt><trkpt lat="43.77582162043322" lon="11.696747444524147"><ele>665.6666666666666</ele><time>2026-05-02T16:07:59Z</time></trkpt><trkpt lat="43.77588466407579" lon="11.696547097643565"><ele>671.3333333333333</ele><time>2026-05-02T16:08:00Z</time></trkpt><trkpt lat="43.775894363204486" lon="11.696312357905555"><ele>677.0</ele><time>2026-05-02T16:08:01Z</time></trkpt><trkpt lat="43.77586621481342" lon="11.696055416526464"><ele>680.0</ele><time>2026-05-02T16:08:02Z</time></trkpt><trkpt lat="43.77582804516464" lon="11.69577518812088"><ele>683.0</ele><time>2026-05-02T16:08:03Z</time></trkpt><trkpt lat="43.775779259225054" lon="11.695508660574518"><ele>686.0</ele><time>2026-05-02T16:08:04Z</time></trkpt><trkpt lat="43.77569730589662" lon="11.69528460343568"><ele>687.6666666666666</ele><time>2026-05-02T16:08:05Z</time></trkpt><trkpt lat="43.77562502494782" lon="11.695074269537908"><ele>689.3333333333334</ele><time>2026-05-02T16:08:06Z</time></trkpt><trkpt lat="43.775593536437086" lon="11.69482275594131"><ele>691.0</ele><time>2026-05-02T16:08:07.001Z</time></trkpt><trkpt lat="43.775591880354064" lon="11.694554457326934"><ele>693.0</ele><time>2026-05-02T16:08:08.001Z</time></trkpt><trkpt lat="43.7756041569012" lon="11.694317012470979"><ele>695.0</ele><time>2026-05-02T16:08:09.001Z</time></trkpt><trkpt lat="43.77563975922122" lon="11.694090807828779"><ele>697.0</ele><time>2026-05-02T16:08:10.001Z</time></trkpt><trkpt lat="43.7757055239546" lon="11.693865345857711"><ele>697.0</ele><time>2026-05-02T16:08:11.001Z</time></trkpt><trkpt lat="43.77578652473815" lon="11.693618051546025"><ele>697.0</ele><time>2026-05-02T16:08:12.001Z</time></trkpt><trkpt lat="43.775903370503194" lon="11.693418059575711"><ele>697.0</ele><time>2026-05-02T16:08:13.001Z</time></trkpt><trkpt lat="43.776026762060575" lon="11.693224878382738"><ele>699.3333333333334</ele><time>2026-05-02T16:08:14.001Z</time></trkpt><trkpt lat="43.77613140795158" lon="11.693029973806642"><ele>701.6666666666666</ele><time>2026-05-02T16:08:15.001Z</time></trkpt><trkpt lat="43.77623149387014" lon="11.692861914844675"><ele>704.0</ele><time>2026-05-02T16:08:16.001Z</time></trkpt><trkpt lat="43.77631130053141" lon="11.69270954371134"><ele>705.0</ele><time>2026-05-02T16:08:17.001Z</time></trkpt><trkpt lat="43.77638275232921" lon="11.692563841612525"><ele>706.0</ele><time>2026-05-02T16:08:18.001Z</time></trkpt><trkpt lat="43.7764196949344" lon="11.692422457476617"><ele>707.0</ele><time>2026-05-02T16:08:19.001Z</time></trkpt><trkpt lat="43.77641194496826" lon="11.692259648717782"><ele>708.0</ele><time>2026-05-02T16:08:20.001Z</time></trkpt><trkpt lat="43.77639454920023" lon="11.692097803251373"><ele>708.0</ele><time>2026-05-02T16:08:21.001Z</time></trkpt><trkpt lat="43.77632827328948" lon="11.69196004868412"><ele>708.0</ele><time>2026-05-02T16:08:22.001Z</time></trkpt><trkpt lat="43.77623129354478" lon="11.691872231810656"><ele>708.0</ele><time>2026-05-02T16:08:23.001Z</time></trkpt><trkpt lat="43.77609702318315" lon="11.691797947173871"><ele>708.0</ele><time>2026-05-02T16:08:24Z</time></trkpt><trkpt lat="43.775955203050835" lon="11.691697027207162"><ele>707.75</ele><time>2026-05-02T16:08:25Z</time></trkpt><trkpt lat="43.77585636742625" lon="11.691540918984197"><ele>707.5</ele><time>2026-05-02T16:08:26Z</time></trkpt><trkpt lat="43.77576517015431" lon="11.691406086004301"><ele>707.25</ele><time>2026-05-02T16:08:27Z</time></trkpt><trkpt lat="43.77568607840541" lon="11.691292560792231"><ele>707.0</ele><time>2026-05-02T16:08:28Z</time></trkpt><trkpt lat="43.77559272019814" lon="11.691234822386441"><ele>707.0</ele><time>2026-05-02T16:08:29Z</time></trkpt><trkpt lat="43.775484567752066" lon="11.691271152168458"><ele>707.0</ele><time>2026-05-02T16:08:30Z</time></trkpt><trkpt lat="43.77538740849668" lon="11.691368497903563"><ele>707.0</ele><time>2026-05-02T16:08:31Z</time></trkpt><trkpt lat="43.77530694212559" lon="11.691456521349807"><ele>707.0</ele><time>2026-05-02T16:08:32Z</time></trkpt><trkpt lat="43.775231701887094" lon="11.69151319810206"><ele>707.0</ele><time>2026-05-02T16:08:33Z</time></trkpt><trkpt lat="43.77514614605232" lon="11.691569225528953"><ele>706.5</ele><time>2026-05-02T16:08:34Z</time></trkpt><trkpt lat="43.775042413145535" lon="11.691509095408563"><ele>706.0</ele><time>2026-05-02T16:08:35Z</time></trkpt><trkpt lat="43.77494924046971" lon="11.69144149333603"><ele>705.5</ele><time>2026-05-02T16:08:36Z</time></trkpt><trkpt lat="43.774901459328284" lon="11.691297079922562"><ele>705.0</ele><time>2026-05-02T16:08:37Z</time></trkpt><trkpt lat="43.77485959395052" lon="11.691095963138823"><ele>708.0</ele><time>2026-05-02T16:08:38Z</time></trkpt><trkpt lat="43.77482167299966" lon="11.690879354634273"><ele>711.0</ele><time>2026-05-02T16:08:39Z</time></trkpt><trkpt lat="43.77478610264679" lon="11.690703118665272"><ele>714.0</ele><time>2026-05-02T16:08:40Z</time></trkpt><trkpt lat="43.77475953019912" lon="11.690546257763973"><ele>717.0</ele><time>2026-05-02T16:08:41Z</time></trkpt><trkpt lat="43.77473901822106" lon="11.690390145575604"><ele>719.6666666666666</ele><time>2026-05-02T16:08:42Z</time></trkpt><trkpt lat="43.774711814212445" lon="11.690209080624191"><ele>722.3333333333333</ele><time>2026-05-02T16:08:43Z</time></trkpt><trkpt lat="43.77469887757555" lon="11.68999217032229"><ele>725.0</ele><time>2026-05-02T16:08:44Z</time></trkpt><trkpt lat="43.774696021900304" lon="11.689738043897053"><ele>725.0</ele><time>2026-05-02T16:08:45Z</time></trkpt><trkpt lat="43.77469838924166" lon="11.689465212378883"><ele>725.0</ele><time>2026-05-02T16:08:46Z</time></trkpt><trkpt lat="43.77470131320829" lon="11.689189596858302"><ele>725.0</ele><time>2026-05-02T16:08:47Z</time></trkpt><trkpt lat="43.7747090326012" lon="11.688923351206023"><ele>729.0</ele><time>2026-05-02T16:08:48Z</time></trkpt><trkpt lat="43.77470550873903" lon="11.688681286493757"><ele>733.0</ele><time>2026-05-02T16:08:49Z</time></trkpt><trkpt lat="43.77469110085673" lon="11.688455967879525"><ele>737.0</ele><time>2026-05-02T16:08:50Z</time></trkpt><trkpt lat="43.774690657899555" lon="11.688231699093258"><ele>738.0</ele><time>2026-05-02T16:08:51Z</time></trkpt><trkpt lat="43.77471784412969" lon="11.688024870403247"><ele>739.0</ele><time>2026-05-02T16:08:52Z</time></trkpt><trkpt lat="43.77477536764944" lon="11.68781746127131"><ele>740.0</ele><time>2026-05-02T16:08:53Z</time></trkpt><trkpt lat="43.77486705759782" lon="11.687603385025287"><ele>737.6666666666666</ele><time>2026-05-02T16:08:54Z</time></trkpt><trkpt lat="43.77499409126645" lon="11.687402310472"><ele>735.3333333333334</ele><time>2026-05-02T16:08:55Z</time></trkpt><trkpt lat="43.77507613117808" lon="11.687206907803622"><ele>733.0</ele><time>2026-05-02T16:08:56Z</time></trkpt><trkpt lat="43.775098176087965" lon="11.687007734971747"><ele>732.25</ele><time>2026-05-02T16:08:57Z</time></trkpt><trkpt lat="43.77505927415826" lon="11.686806813079835"><ele>731.5</ele><time>2026-05-02T16:08:58Z</time></trkpt><trkpt lat="43.775023635532655" lon="11.686629197889122"><ele>730.75</ele><time>2026-05-02T16:08:59Z</time></trkpt><trkpt lat="43.77503414635216" lon="11.686480106184803"><ele>730.0</ele><time>2026-05-02T16:09:00Z</time></trkpt><trkpt lat="43.77510809902869" lon="11.68634057515229"><ele>735.0</ele><time>2026-05-02T16:09:01Z</time></trkpt><trkpt lat="43.775242674257214" lon="11.686204767550404"><ele>740.0</ele><time>2026-05-02T16:09:02Z</time></trkpt><trkpt lat="43.77538003950405" lon="11.686033480935054"><ele>745.0</ele><time>2026-05-02T16:09:03Z</time></trkpt><trkpt lat="43.77554145580534" lon="11.685876967549108"><ele>745.0</ele><time>2026-05-02T16:09:04Z</time></trkpt><trkpt lat="43.775715702664144" lon="11.685723490978924"><ele>745.0</ele><time>2026-05-02T16:09:05Z</time></trkpt><trkpt lat="43.775903150650755" lon="11.685590394440736"><ele>745.0</ele><time>2026-05-02T16:09:06Z</time></trkpt><trkpt lat="43.77612039686909" lon="11.68552143148442"><ele>748.0</ele><time>2026-05-02T16:09:07Z</time></trkpt><trkpt lat="43.77632737219257" lon="11.685424131769295"><ele>751.0</ele><time>2026-05-02T16:09:08Z</time></trkpt><trkpt lat="43.77652642769518" lon="11.685319519891518"><ele>754.0</ele><time>2026-05-02T16:09:09Z</time></trkpt><trkpt lat="43.776686536638955" lon="11.685179326212095"><ele>754.0</ele><time>2026-05-02T16:09:10Z</time></trkpt><trkpt lat="43.77679330983405" lon="11.684984430895454"><ele>754.0</ele><time>2026-05-02T16:09:11Z</time></trkpt><trkpt lat="43.776879118112866" lon="11.684727529038028"><ele>754.0</ele><time>2026-05-02T16:09:12Z</time></trkpt><trkpt lat="43.77696939871823" lon="11.684469720065374"><ele>760.0</ele><time>2026-05-02T16:09:13Z</time></trkpt><trkpt lat="43.777116329415186" lon="11.684295386370207"><ele>766.0</ele><time>2026-05-02T16:09:14Z</time></trkpt><trkpt lat="43.777254829886516" lon="11.684112297668529"><ele>772.0</ele><time>2026-05-02T16:09:15Z</time></trkpt><trkpt lat="43.77734939369836" lon="11.68387668191885"><ele>770.6666666666666</ele><time>2026-05-02T16:09:16Z</time></trkpt><trkpt lat="43.77743003523994" lon="11.683585571123322"><ele>769.3333333333333</ele><time>2026-05-02T16:09:17Z</time></trkpt><trkpt lat="43.77752240224228" lon="11.683320325408475"><ele>768.0</ele><time>2026-05-02T16:09:18Z</time></trkpt><trkpt lat="43.77763279057259" lon="11.683102447597143"><ele>773.0</ele><time>2026-05-02T16:09:19Z</time></trkpt><trkpt lat="43.777732248856616" lon="11.682920650265338"><ele>778.0</ele><time>2026-05-02T16:09:20Z</time></trkpt><trkpt lat="43.77782355013519" lon="11.682728945708895"><ele>783.0</ele><time>2026-05-02T16:09:21Z</time></trkpt><trkpt lat="43.77791525547815" lon="11.682501109924628"><ele>783.0</ele><time>2026-05-02T16:09:22Z</time></trkpt><trkpt lat="43.77800391064227" lon="11.682257606145367"><ele>783.0</ele><time>2026-05-02T16:09:23Z</time></trkpt><trkpt lat="43.77805811105103" lon="11.68201729664149"><ele>783.0</ele><time>2026-05-02T16:09:24Z</time></trkpt><trkpt lat="43.77806162576609" lon="11.681746135467664"><ele>783.0</ele><time>2026-05-02T16:09:25Z</time></trkpt><trkpt lat="43.77802863986661" lon="11.681450494056682"><ele>783.0</ele><time>2026-05-02T16:09:26Z</time></trkpt><trkpt lat="43.77797889252205" lon="11.681123138427866"><ele>786.5</ele><time>2026-05-02T16:09:27Z</time></trkpt><trkpt lat="43.777925204110105" lon="11.68078947277892"><ele>790.0</ele><time>2026-05-02T16:09:28Z</time></trkpt><trkpt lat="43.77787780607578" lon="11.680488181561927"><ele>794.0</ele><time>2026-05-02T16:09:29Z</time></trkpt><trkpt lat="43.77783922666225" lon="11.680212980264681"><ele>798.0</ele><time>2026-05-02T16:09:30Z</time></trkpt><trkpt lat="43.77780752688895" lon="11.679950494797666"><ele>802.0</ele><time>2026-05-02T16:09:31Z</time></trkpt><trkpt lat="43.77779955969625" lon="11.679694550112401"><ele>803.0</ele><time>2026-05-02T16:09:32Z</time></trkpt><trkpt lat="43.77781819215132" lon="11.679429686413993"><ele>804.0</ele><time>2026-05-02T16:09:33Z</time></trkpt><trkpt lat="43.777854928625366" lon="11.67917900388159"><ele>805.0</ele><time>2026-05-02T16:09:34Z</time></trkpt><trkpt lat="43.77790943941023" lon="11.678959710509957"><ele>805.0</ele><time>2026-05-02T16:09:35Z</time></trkpt><trkpt lat="43.777973067989" lon="11.67879017096886"><ele>805.0</ele><time>2026-05-02T16:09:36Z</time></trkpt><trkpt lat="43.77804608250276" lon="11.678668801774752"><ele>805.0</ele><time>2026-05-02T16:09:37Z</time></trkpt><trkpt lat="43.77816169497018" lon="11.67864178246267"><ele>805.0</ele><time>2026-05-02T16:09:38Z</time></trkpt><trkpt lat="43.778288769591654" lon="11.67861683182266"><ele>802.6666666666666</ele><time>2026-05-02T16:09:39Z</time></trkpt><trkpt lat="43.77845690712757" lon="11.678567697723018"><ele>800.3333333333333</ele><time>2026-05-02T16:09:40Z</time></trkpt><trkpt lat="43.77865160503363" lon="11.678539057163238"><ele>798.0</ele><time>2026-05-02T16:09:41Z</time></trkpt><trkpt lat="43.77883069543784" lon="11.678505337949312"><ele>802.75</ele><time>2026-05-02T16:09:42Z</time></trkpt><trkpt lat="43.778978602030804" lon="11.678447112355203"><ele>807.5</ele><time>2026-05-02T16:09:43Z</time></trkpt><trkpt lat="43.779082964545644" lon="11.678324735805136"><ele>812.25</ele><time>2026-05-02T16:09:44Z</time></trkpt><trkpt lat="43.77916066575832" lon="11.67814544316727"><ele>817.0</ele><time>2026-05-02T16:09:45Z</time></trkpt><trkpt lat="43.7792135446481" lon="11.677909877891645"><ele>816.3333333333333</ele><time>2026-05-02T16:09:46Z</time></trkpt><trkpt lat="43.779255785175614" lon="11.677636634300361"><ele>815.6666666666667</ele><time>2026-05-02T16:09:47Z</time></trkpt><trkpt lat="43.77930425127684" lon="11.677348505080456"><ele>815.0</ele><time>2026-05-02T16:09:48Z</time></trkpt><trkpt lat="43.77936522741665" lon="11.677060719845967"><ele>826.0</ele><time>2026-05-02T16:09:49Z</time></trkpt><trkpt lat="43.77943340552293" lon="11.67676851124984"><ele>837.0</ele><time>2026-05-02T16:09:50Z</time></trkpt><trkpt lat="43.77949446697932" lon="11.676460181518635"><ele>837.0</ele><time>2026-05-02T16:09:51Z</time></trkpt><trkpt lat="43.77954283727753" lon="11.676138604058393"><ele>837.0</ele><time>2026-05-02T16:09:52Z</time></trkpt><trkpt lat="43.77958136068635" lon="11.67580711387983"><ele>838.5</ele><time>2026-05-02T16:09:53Z</time></trkpt><trkpt lat="43.77961741468297" lon="11.675463089885135"><ele>840.0</ele><time>2026-05-02T16:09:54Z</time></trkpt><trkpt lat="43.77966346854225" lon="11.675130958110866"><ele>840.6666666666667</ele><time>2026-05-02T16:09:55Z</time></trkpt><trkpt lat="43.77972157561111" lon="11.674842505604342"><ele>841.3333333333334</ele><time>2026-05-02T16:09:56Z</time></trkpt><trkpt lat="43.77978632066556" lon="11.67457759115326"><ele>842.0</ele><time>2026-05-02T16:09:57Z</time></trkpt><trkpt lat="43.77985116340104" lon="11.674346080066044"><ele>843.3333333333334</ele><time>2026-05-02T16:09:58Z</time></trkpt><trkpt lat="43.779880864427874" lon="11.674099603844518"><ele>844.6666666666667</ele><time>2026-05-02T16:09:59Z</time></trkpt><trkpt lat="43.77986399271472" lon="11.673863255261406"><ele>846.0</ele><time>2026-05-02T16:10:00Z</time></trkpt><trkpt lat="43.779840022374394" lon="11.673665594875475"><ele>846.75</ele><time>2026-05-02T16:10:01Z</time></trkpt><trkpt lat="43.77984564270628" lon="11.673508744042683"><ele>847.5</ele><time>2026-05-02T16:10:02Z</time></trkpt><trkpt lat="43.77989928660116" lon="11.673399098842316"><ele>848.25</ele><time>2026-05-02T16:10:03Z</time></trkpt><trkpt lat="43.78000280934244" lon="11.673296230371864"><ele>849.0</ele><time>2026-05-02T16:10:04Z</time></trkpt><trkpt lat="43.78013575145476" lon="11.673217336476522"><ele>854.0</ele><time>2026-05-02T16:10:05Z</time></trkpt><trkpt lat="43.78030369163749" lon="11.673166135786362"><ele>859.0</ele><time>2026-05-02T16:10:06Z</time></trkpt><trkpt lat="43.78046395118746" lon="11.673083732818268"><ele>864.0</ele><time>2026-05-02T16:10:07Z</time></trkpt><trkpt lat="43.78057731019309" lon="11.672919972641445"><ele>862.3333333333333</ele><time>2026-05-02T16:10:08Z</time></trkpt><trkpt lat="43.7806755903214" lon="11.672692531082536"><ele>860.6666666666666</ele><time>2026-05-02T16:10:09Z</time></trkpt><trkpt lat="43.78078292363492" lon="11.672432750663837"><ele>859.0</ele><time>2026-05-02T16:10:10Z</time></trkpt><trkpt lat="43.78090402446869" lon="11.6721643921387"><ele>870.5</ele><time>2026-05-02T16:10:11Z</time></trkpt><trkpt lat="43.781027036297985" lon="11.671894357656978"><ele>882.0</ele><time>2026-05-02T16:10:12Z</time></trkpt><trkpt lat="43.781143314727444" lon="11.671613038455567"><ele>882.0</ele><time>2026-05-02T16:10:13Z</time></trkpt><trkpt lat="43.7812485868014" lon="11.671323826292955"><ele>882.0</ele><time>2026-05-02T16:10:14Z</time></trkpt><trkpt lat="43.78133210800379" lon="11.67101320247989"><ele>882.0</ele><time>2026-05-02T16:10:15Z</time></trkpt><trkpt lat="43.781386150005105" lon="11.670700554891972"><ele>882.0</ele><time>2026-05-02T16:10:16Z</time></trkpt><trkpt lat="43.781430166600174" lon="11.670427527448291"><ele>882.0</ele><time>2026-05-02T16:10:17Z</time></trkpt><trkpt lat="43.78147975923382" lon="11.670180790759924"><ele>883.0</ele><time>2026-05-02T16:10:18Z</time></trkpt><trkpt lat="43.78150029128489" lon="11.669937317511389"><ele>884.0</ele><time>2026-05-02T16:10:19Z</time></trkpt><trkpt lat="43.781488905480906" lon="11.669693967822129"><ele>885.0</ele><time>2026-05-02T16:10:20Z</time></trkpt><trkpt lat="43.78144047347599" lon="11.669447814833681"><ele>890.0</ele><time>2026-05-02T16:10:21Z</time></trkpt><trkpt lat="43.78136206929007" lon="11.669202180967192"><ele>895.0</ele><time>2026-05-02T16:10:22Z</time></trkpt><trkpt lat="43.78128523894081" lon="11.66899531886177"><ele>900.0</ele><time>2026-05-02T16:10:23Z</time></trkpt><trkpt lat="43.781231143951544" lon="11.66879626310644"><ele>902.3333333333333</ele><time>2026-05-02T16:10:24Z</time></trkpt><trkpt lat="43.781221309198756" lon="11.66855489116274"><ele>904.6666666666666</ele><time>2026-05-02T16:10:25Z</time></trkpt><trkpt lat="43.781240694957226" lon="11.668277218105219"><ele>907.0</ele><time>2026-05-02T16:10:26Z</time></trkpt><trkpt lat="43.78125722195947" lon="11.667996619142505"><ele>907.6666666666666</ele><time>2026-05-02T16:10:27Z</time></trkpt><trkpt lat="43.7812619117494" lon="11.667760169351325"><ele>908.3333333333333</ele><time>2026-05-02T16:10:28Z</time></trkpt><trkpt lat="43.78122942654874" lon="11.66754751363518"><ele>909.0</ele><time>2026-05-02T16:10:29Z</time></trkpt><trkpt lat="43.78115021592126" lon="11.667345208058329"><ele>909.0</ele><time>2026-05-02T16:10:30Z</time></trkpt><trkpt lat="43.781022495563384" lon="11.667135957854128"><ele>909.0</ele><time>2026-05-02T16:10:31Z</time></trkpt><trkpt lat="43.780899905873945" lon="11.666933140056715"><ele>909.0</ele><time>2026-05-02T16:10:32Z</time></trkpt><trkpt lat="43.780814926720765" lon="11.666742516332468"><ele>906.6666666666667</ele><time>2026-05-02T16:10:33Z</time></trkpt><trkpt lat="43.7808090509204" lon="11.66653641848425"><ele>904.3333333333334</ele><time>2026-05-02T16:10:34Z</time></trkpt><trkpt lat="43.78082034300831" lon="11.666302298652484"><ele>902.0</ele><time>2026-05-02T16:10:35Z</time></trkpt><trkpt lat="43.78082912404103" lon="11.66602728711448"><ele>902.0</ele><time>2026-05-02T16:10:36Z</time></trkpt><trkpt lat="43.780847079918914" lon="11.665752963698973"><ele>902.0</ele><time>2026-05-02T16:10:37Z</time></trkpt><trkpt lat="43.780867500340285" lon="11.665516751942466"><ele>902.0</ele><time>2026-05-02T16:10:38Z</time></trkpt><trkpt lat="43.78093398989675" lon="11.665313978721143"><ele>911.3333333333334</ele><time>2026-05-02T16:10:39Z</time></trkpt><trkpt lat="43.78102081379562" lon="11.665081849027985"><ele>920.6666666666667</ele><time>2026-05-02T16:10:40Z</time></trkpt><trkpt lat="43.78113640728221" lon="11.664838120524808"><ele>930.0</ele><time>2026-05-02T16:10:41Z</time></trkpt><trkpt lat="43.78124546131427" lon="11.66459487896401"><ele>929.3333333333333</ele><time>2026-05-02T16:10:42Z</time></trkpt><trkpt lat="43.78134644201591" lon="11.664344111462984"><ele>928.6666666666666</ele><time>2026-05-02T16:10:43Z</time></trkpt><trkpt lat="43.78147478789446" lon="11.664098970747743"><ele>928.0</ele><time>2026-05-02T16:10:44Z</time></trkpt><trkpt lat="43.781565324620935" lon="11.663856910930324"><ele>928.0</ele><time>2026-05-02T16:10:45Z</time></trkpt><trkpt lat="43.78166770238134" lon="11.66367394292199"><ele>928.0</ele><time>2026-05-02T16:10:46Z</time></trkpt><trkpt lat="43.781748754855535" lon="11.663476216628181"><ele>928.0</ele><time>2026-05-02T16:10:47Z</time></trkpt><trkpt lat="43.78179321607311" lon="11.66323471151696"><ele>928.6666666666666</ele><time>2026-05-02T16:10:48Z</time></trkpt><trkpt lat="43.78180235304566" lon="11.662963363708135"><ele>929.3333333333333</ele><time>2026-05-02T16:10:49Z</time></trkpt><trkpt lat="43.78178005815224" lon="11.662713971549895"><ele>930.0</ele><time>2026-05-02T16:10:50Z</time></trkpt><trkpt lat="43.78172517452855" lon="11.662475269312825"><ele>930.0</ele><time>2026-05-02T16:10:51Z</time></trkpt><trkpt lat="43.78166782063802" lon="11.662206501385015"><ele>930.0</ele><time>2026-05-02T16:10:52Z</time></trkpt><trkpt lat="43.781611173806816" lon="11.661933312520299"><ele>930.0</ele><time>2026-05-02T16:10:53Z</time></trkpt><trkpt lat="43.78154530107612" lon="11.661695839193305"><ele>931.75</ele><time>2026-05-02T16:10:54Z</time></trkpt><trkpt lat="43.78147908447122" lon="11.661489189827872"><ele>933.5</ele><time>2026-05-02T16:10:55Z</time></trkpt><trkpt lat="43.78142332066085" lon="11.661310935885908"><ele>935.25</ele><time>2026-05-02T16:10:56Z</time></trkpt><trkpt lat="43.78138795525173" lon="11.661137390496291"><ele>937.0</ele><time>2026-05-02T16:10:57Z</time></trkpt><trkpt lat="43.78141681134757" lon="11.660963626466017"><ele>938.6666666666666</ele><time>2026-05-02T16:10:58Z</time></trkpt><trkpt lat="43.781490897370055" lon="11.660757580772538"><ele>940.3333333333333</ele><time>2026-05-02T16:10:59Z</time></trkpt><trkpt lat="43.781582743332095" lon="11.660531637109727"><ele>942.0</ele><time>2026-05-02T16:11:00Z</time></trkpt><trkpt lat="43.781636902032396" lon="11.66031689488353"><ele>943.3333333333333</ele><time>2026-05-02T16:11:01Z</time></trkpt><trkpt lat="43.781638975376445" lon="11.660084672793806"><ele>944.6666666666666</ele><time>2026-05-02T16:11:02Z</time></trkpt><trkpt lat="43.78159478412746" lon="11.659824244484762"><ele>946.0</ele><time>2026-05-02T16:11:03Z</time></trkpt><trkpt lat="43.78153114401389" lon="11.659584562130767"><ele>947.3333333333333</ele><time>2026-05-02T16:11:04Z</time></trkpt><trkpt lat="43.78148976665084" lon="11.659360179841734"><ele>948.6666666666667</ele><time>2026-05-02T16:11:05Z</time></trkpt><trkpt lat="43.78147089017161" lon="11.659105680152102"><ele>950.0</ele><time>2026-05-02T16:11:06Z</time></trkpt><trkpt lat="43.78147181072532" lon="11.658832189073067"><ele>950.6666666666667</ele><time>2026-05-02T16:11:07Z</time></trkpt><trkpt lat="43.781468672959996" lon="11.658534672779957"><ele>951.3333333333333</ele><time>2026-05-02T16:11:08Z</time></trkpt><trkpt lat="43.781463702019195" lon="11.658247878683063"><ele>952.0</ele><time>2026-05-02T16:11:09Z</time></trkpt><trkpt lat="43.78145989588543" lon="11.657976779622723"><ele>949.3333333333333</ele><time>2026-05-02T16:11:10Z</time></trkpt><trkpt lat="43.78146725384389" lon="11.657739517975143"><ele>946.6666666666667</ele><time>2026-05-02T16:11:11Z</time></trkpt><trkpt lat="43.781505395877396" lon="11.657529901150038"><ele>944.0</ele><time>2026-05-02T16:11:12Z</time></trkpt><trkpt lat="43.78159299290685" lon="11.6573342953103"><ele>944.0</ele><time>2026-05-02T16:11:13Z</time></trkpt><trkpt lat="43.78173892850501" lon="11.657167472847538"><ele>944.0</ele><time>2026-05-02T16:11:14Z</time></trkpt><trkpt lat="43.78192090038935" lon="11.657010645384037"><ele>944.0</ele><time>2026-05-02T16:11:15Z</time></trkpt><trkpt lat="43.78210642159083" lon="11.656855311048728"><ele>944.3333333333334</ele><time>2026-05-02T16:11:16Z</time></trkpt><trkpt lat="43.782252840231244" lon="11.65671611212115"><ele>944.6666666666667</ele><time>2026-05-02T16:11:17Z</time></trkpt><trkpt lat="43.78236748303226" lon="11.656583466993848"><ele>945.0</ele><time>2026-05-02T16:11:18Z</time></trkpt><trkpt lat="43.78245343343867" lon="11.656438547542002"><ele>945.0</ele><time>2026-05-02T16:11:19Z</time></trkpt><trkpt lat="43.78250208340986" lon="11.656257896312288"><ele>945.0</ele><time>2026-05-02T16:11:20Z</time></trkpt><trkpt lat="43.78252951705011" lon="11.656052608389988"><ele>945.0</ele><time>2026-05-02T16:11:21Z</time></trkpt><trkpt lat="43.78253275356325" lon="11.655840427697719"><ele>945.0</ele><time>2026-05-02T16:11:22Z</time></trkpt><trkpt lat="43.78251124501514" lon="11.655634031767125"><ele>944.0</ele><time>2026-05-02T16:11:23Z</time></trkpt><trkpt lat="43.78245963535048" lon="11.655428467934042"><ele>943.0</ele><time>2026-05-02T16:11:24Z</time></trkpt><trkpt lat="43.782377130220134" lon="11.655236555251085"><ele>942.0</ele><time>2026-05-02T16:11:25Z</time></trkpt><trkpt lat="43.78224929177965" lon="11.655065845883193"><ele>941.6666666666667</ele><time>2026-05-02T16:11:26Z</time></trkpt><trkpt lat="43.78208372595974" lon="11.654876868001043"><ele>941.3333333333334</ele><time>2026-05-02T16:11:27Z</time></trkpt><trkpt lat="43.781909657075396" lon="11.65466416323351"><ele>941.0</ele><time>2026-05-02T16:11:28Z</time></trkpt><trkpt lat="43.781744315583644" lon="11.654443761440982"><ele>941.0</ele><time>2026-05-02T16:11:29Z</time></trkpt><trkpt lat="43.78160510423344" lon="11.654238308293213"><ele>941.0</ele><time>2026-05-02T16:11:30Z</time></trkpt><trkpt lat="43.78149617122371" lon="11.654040547649569"><ele>941.0</ele><time>2026-05-02T16:11:31Z</time></trkpt><trkpt lat="43.78142849493586" lon="11.653827015876264"><ele>945.0</ele><time>2026-05-02T16:11:32Z</time></trkpt><trkpt lat="43.781400520172554" lon="11.653585009215046"><ele>949.0</ele><time>2026-05-02T16:11:33Z</time></trkpt><trkpt lat="43.781398422320954" lon="11.653330709892918"><ele>953.0</ele><time>2026-05-02T16:11:34Z</time></trkpt><trkpt lat="43.78136380000697" lon="11.653094982831343"><ele>953.0</ele><time>2026-05-02T16:11:35Z</time></trkpt><trkpt lat="43.781274546840386" lon="11.652854062761895"><ele>953.0</ele><time>2026-05-02T16:11:36Z</time></trkpt><trkpt lat="43.78119823274888" lon="11.652633996689982"><ele>953.0</ele><time>2026-05-02T16:11:37Z</time></trkpt><trkpt lat="43.78119183273948" lon="11.652409611173532"><ele>954.3333333333334</ele><time>2026-05-02T16:11:38Z</time></trkpt><trkpt lat="43.78121453128406" lon="11.652159362536976"><ele>955.6666666666667</ele><time>2026-05-02T16:11:39Z</time></trkpt><trkpt lat="43.781242308579685" lon="11.651862762401674"><ele>957.0</ele><time>2026-05-02T16:11:40Z</time></trkpt><trkpt lat="43.78127655008905" lon="11.651568678661878"><ele>957.3333333333333</ele><time>2026-05-02T16:11:41Z</time></trkpt><trkpt lat="43.781301834756164" lon="11.651320523566326"><ele>957.6666666666666</ele><time>2026-05-02T16:11:42Z</time></trkpt><trkpt lat="43.78134484346418" lon="11.65112516294174"><ele>958.0</ele><time>2026-05-02T16:11:43Z</time></trkpt><trkpt lat="43.78143906537145" lon="11.650981383327737"><ele>954.0</ele><time>2026-05-02T16:11:44Z</time></trkpt><trkpt lat="43.78156690842077" lon="11.65083295983912"><ele>950.0</ele><time>2026-05-02T16:11:45Z</time></trkpt><trkpt lat="43.78171345822085" lon="11.650680991863275"><ele>946.0</ele><time>2026-05-02T16:11:46Z</time></trkpt><trkpt lat="43.78190327323047" lon="11.65054519926793"><ele>945.6666666666666</ele><time>2026-05-02T16:11:47Z</time></trkpt><trkpt lat="43.78210893290998" lon="11.650415008629192"><ele>945.3333333333333</ele><time>2026-05-02T16:11:48Z</time></trkpt><trkpt lat="43.78229776239577" lon="11.65025402059989"><ele>945.0</ele><time>2026-05-02T16:11:49Z</time></trkpt><trkpt lat="43.782453044909055" lon="11.650091240399327"><ele>945.0</ele><time>2026-05-02T16:11:50Z</time></trkpt><trkpt lat="43.7825949450102" lon="11.64994786404325"><ele>945.0</ele><time>2026-05-02T16:11:51Z</time></trkpt><trkpt lat="43.78274507507802" lon="11.649870912223369"><ele>945.0</ele><time>2026-05-02T16:11:52Z</time></trkpt><trkpt lat="43.782891956218286" lon="11.649812961997345"><ele>948.25</ele><time>2026-05-02T16:11:53Z</time></trkpt><trkpt lat="43.78303509481997" lon="11.649781183215545"><ele>951.5</ele><time>2026-05-02T16:11:54Z</time></trkpt><trkpt lat="43.783174076302544" lon="11.649760020492186"><ele>954.75</ele><time>2026-05-02T16:11:55Z</time></trkpt><trkpt lat="43.78332239525944" lon="11.64972169967653"><ele>958.0</ele><time>2026-05-02T16:11:56Z</time></trkpt><trkpt lat="43.783470976273875" lon="11.649733039401339"><ele>957.25</ele><time>2026-05-02T16:11:57Z</time></trkpt><trkpt lat="43.78360939150153" lon="11.64973564154444"><ele>956.5</ele><time>2026-05-02T16:11:58Z</time></trkpt><trkpt lat="43.783732579200006" lon="11.649766198734094"><ele>955.75</ele><time>2026-05-02T16:11:59Z</time></trkpt><trkpt lat="43.783856808864975" lon="11.64981826580739"><ele>955.0</ele><time>2026-05-02T16:12:00Z</time></trkpt><trkpt lat="43.783991199062285" lon="11.64989421077996"><ele>955.0</ele><time>2026-05-02T16:12:01Z</time></trkpt><trkpt lat="43.78414976722935" lon="11.649982436235566"><ele>955.0</ele><time>2026-05-02T16:12:02Z</time></trkpt><trkpt lat="43.78432488418458" lon="11.650079869224793"><ele>955.0</ele><time>2026-05-02T16:12:03Z</time></trkpt><trkpt lat="43.78451584783557" lon="11.650185608435816"><ele>955.0</ele><time>2026-05-02T16:12:04Z</time></trkpt><trkpt lat="43.78469674584897" lon="11.650284874184608"><ele>955.0</ele><time>2026-05-02T16:12:05Z</time></trkpt><trkpt lat="43.784869232391394" lon="11.650373801213258"><ele>955.0</ele><time>2026-05-02T16:12:06Z</time></trkpt><trkpt lat="43.78502606294054" lon="11.650475297331644"><ele>955.0</ele><time>2026-05-02T16:12:07Z</time></trkpt><trkpt lat="43.7851787997649" lon="11.650534271043608"><ele>955.0</ele><time>2026-05-02T16:12:08Z</time></trkpt><trkpt lat="43.78532714861399" lon="11.65056839570525"><ele>955.0</ele><time>2026-05-02T16:12:09Z</time></trkpt><trkpt lat="43.785465263746794" lon="11.650582403931574"><ele>955.0</ele><time>2026-05-02T16:12:10Z</time></trkpt><trkpt lat="43.78559961118938" lon="11.650563579990962"><ele>955.3333333333333</ele><time>2026-05-02T16:12:11Z</time></trkpt><trkpt lat="43.7857342328999" lon="11.650503746471818"><ele>955.6666666666667</ele><time>2026-05-02T16:12:12Z</time></trkpt><trkpt lat="43.78587832441043" lon="11.650382849242604"><ele>956.0</ele><time>2026-05-02T16:12:13Z</time></trkpt><trkpt lat="43.78603956516669" lon="11.650229442225026"><ele>956.0</ele><time>2026-05-02T16:12:14Z</time></trkpt><trkpt lat="43.786210474468405" lon="11.650086511208086"><ele>956.0</ele><time>2026-05-02T16:12:15Z</time></trkpt><trkpt lat="43.78635869940108" lon="11.64995278200784"><ele>956.0</ele><time>2026-05-02T16:12:16Z</time></trkpt><trkpt lat="43.78646615554331" lon="11.649779621734318"><ele>956.0</ele><time>2026-05-02T16:12:17Z</time></trkpt><trkpt lat="43.786543462951435" lon="11.649563239715082"><ele>956.0</ele><time>2026-05-02T16:12:18Z</time></trkpt><trkpt lat="43.78660004983725" lon="11.649288824562083"><ele>956.0</ele><time>2026-05-02T16:12:19Z</time></trkpt><trkpt lat="43.78662395783109" lon="11.648982984468628"><ele>953.5</ele><time>2026-05-02T16:12:20Z</time></trkpt><trkpt lat="43.78661318352979" lon="11.648653886295662"><ele>951.0</ele><time>2026-05-02T16:12:21Z</time></trkpt><trkpt lat="43.78658121210337" lon="11.648336602059716"><ele>950.0</ele><time>2026-05-02T16:12:22Z</time></trkpt><trkpt lat="43.7865598704983" lon="11.648049218744484"><ele>949.0</ele><time>2026-05-02T16:12:23Z</time></trkpt><trkpt lat="43.786572730238866" lon="11.647784276848034"><ele>948.0</ele><time>2026-05-02T16:12:24Z</time></trkpt><trkpt lat="43.7866255821601" lon="11.647508989258284"><ele>947.5</ele><time>2026-05-02T16:12:25Z</time></trkpt><trkpt lat="43.78671937954595" lon="11.64720391489831"><ele>947.0</ele><time>2026-05-02T16:12:26Z</time></trkpt><trkpt lat="43.78683288232973" lon="11.646896961349833"><ele>956.0</ele><time>2026-05-02T16:12:27Z</time></trkpt><trkpt lat="43.78693320455919" lon="11.646559797973627"><ele>965.0</ele><time>2026-05-02T16:12:28Z</time></trkpt><trkpt lat="43.78703904840797" lon="11.646200485155783"><ele>963.5</ele><time>2026-05-02T16:12:29Z</time></trkpt><trkpt lat="43.78715592102123" lon="11.645837787835232"><ele>962.0</ele><time>2026-05-02T16:12:30Z</time></trkpt><trkpt lat="43.78727695289892" lon="11.645514462760241"><ele>960.3333333333334</ele><time>2026-05-02T16:12:31Z</time></trkpt><trkpt lat="43.78738906385" lon="11.64522914294332"><ele>958.6666666666667</ele><time>2026-05-02T16:12:32Z</time></trkpt><trkpt lat="43.78748187992812" lon="11.644970962829461"><ele>957.0</ele><time>2026-05-02T16:12:33Z</time></trkpt><trkpt lat="43.787521489686846" lon="11.644737082829646"><ele>957.0</ele><time>2026-05-02T16:12:34Z</time></trkpt><trkpt lat="43.787498878951844" lon="11.64452277988852"><ele>957.0</ele><time>2026-05-02T16:12:35Z</time></trkpt><trkpt lat="43.78743498347265" lon="11.64430092343018"><ele>957.0</ele><time>2026-05-02T16:12:36Z</time></trkpt><trkpt lat="43.78730912700432" lon="11.644058447651648"><ele>958.3333333333333</ele><time>2026-05-02T16:12:37Z</time></trkpt><trkpt lat="43.787190006649126" lon="11.643782089733648"><ele>959.6666666666666</ele><time>2026-05-02T16:12:38Z</time></trkpt><trkpt lat="43.78709040082706" lon="11.643528882423064"><ele>961.0</ele><time>2026-05-02T16:12:39Z</time></trkpt><trkpt lat="43.78703109593171" lon="11.643275017132899"><ele>961.6666666666666</ele><time>2026-05-02T16:12:40Z</time></trkpt><trkpt lat="43.787016219484755" lon="11.64298678070184"><ele>962.3333333333333</ele><time>2026-05-02T16:12:41Z</time></trkpt><trkpt lat="43.78700236049226" lon="11.642666726357012"><ele>963.0</ele><time>2026-05-02T16:12:42Z</time></trkpt><trkpt lat="43.78701477756632" lon="11.642385069712224"><ele>962.3333333333333</ele><time>2026-05-02T16:12:43Z</time></trkpt><trkpt lat="43.787047587389225" lon="11.642134785841728"><ele>961.6666666666666</ele><time>2026-05-02T16:12:44Z</time></trkpt><trkpt lat="43.78711591203548" lon="11.641857428624698"><ele>961.0</ele><time>2026-05-02T16:12:45Z</time></trkpt><trkpt lat="43.78718553721317" lon="11.641571741128885"><ele>961.0</ele><time>2026-05-02T16:12:46Z</time></trkpt><trkpt lat="43.78725272289635" lon="11.641329010895518"><ele>961.0</ele><time>2026-05-02T16:12:47Z</time></trkpt><trkpt lat="43.78729957763833" lon="11.641119104004995"><ele>961.0</ele><time>2026-05-02T16:12:48Z</time></trkpt><trkpt lat="43.78731066945464" lon="11.64092066932167"><ele>962.6666666666666</ele><time>2026-05-02T16:12:49Z</time></trkpt><trkpt lat="43.78726881120901" lon="11.640706927030672"><ele>964.3333333333333</ele><time>2026-05-02T16:12:50Z</time></trkpt><trkpt lat="43.787189023896936" lon="11.640500391899455"><ele>966.0</ele><time>2026-05-02T16:12:51Z</time></trkpt><trkpt lat="43.78707969252646" lon="11.640323052560207"><ele>965.75</ele><time>2026-05-02T16:12:52Z</time></trkpt><trkpt lat="43.786990453182014" lon="11.640173228835252"><ele>965.5</ele><time>2026-05-02T16:12:53Z</time></trkpt><trkpt lat="43.7869442114929" lon="11.640024640282471"><ele>965.25</ele><time>2026-05-02T16:12:54Z</time></trkpt><trkpt lat="43.78694542997462" lon="11.639880307630959"><ele>965.0</ele><time>2026-05-02T16:12:55Z</time></trkpt><trkpt lat="43.787006179683225" lon="11.639739380549065"><ele>965.0</ele><time>2026-05-02T16:12:56Z</time></trkpt><trkpt lat="43.787140358216774" lon="11.63965625766353"><ele>965.0</ele><time>2026-05-02T16:12:57Z</time></trkpt><trkpt lat="43.787295257595964" lon="11.63960334931264"><ele>965.0</ele><time>2026-05-02T16:12:58Z</time></trkpt><trkpt lat="43.78747319743262" lon="11.639526621395472"><ele>965.0</ele><time>2026-05-02T16:12:59Z</time></trkpt><trkpt lat="43.78764507312227" lon="11.639474769987169"><ele>965.0</ele><time>2026-05-02T16:13:00Z</time></trkpt><trkpt lat="43.78777476362481" lon="11.639374072390265"><ele>965.0</ele><time>2026-05-02T16:13:01Z</time></trkpt><trkpt lat="43.787866131807284" lon="11.639215509400502"><ele>963.0</ele><time>2026-05-02T16:13:02Z</time></trkpt><trkpt lat="43.78792209030837" lon="11.638987328787916"><ele>961.0</ele><time>2026-05-02T16:13:03Z</time></trkpt><trkpt lat="43.78796577478979" lon="11.638709332056342"><ele>959.0</ele><time>2026-05-02T16:13:04Z</time></trkpt><trkpt lat="43.787983322197434" lon="11.638392816931814"><ele>959.0</ele><time>2026-05-02T16:13:05Z</time></trkpt><trkpt lat="43.78799535997163" lon="11.638082342251355"><ele>959.0</ele><time>2026-05-02T16:13:06Z</time></trkpt><trkpt lat="43.78796676417003" lon="11.637762724896884"><ele>961.3333333333334</ele><time>2026-05-02T16:13:07Z</time></trkpt><trkpt lat="43.78794151404118" lon="11.637455107017388"><ele>963.6666666666667</ele><time>2026-05-02T16:13:08Z</time></trkpt><trkpt lat="43.787939701270844" lon="11.637170448639855"><ele>966.0</ele><time>2026-05-02T16:13:09Z</time></trkpt><trkpt lat="43.787956485930785" lon="11.636890487397018"><ele>967.6666666666667</ele><time>2026-05-02T16:13:10Z</time></trkpt><trkpt lat="43.78796269246293" lon="11.636646645419173"><ele>969.3333333333334</ele><time>2026-05-02T16:13:11Z</time></trkpt><trkpt lat="43.787972596237864" lon="11.636408178015996"><ele>971.0</ele><time>2026-05-02T16:13:12Z</time></trkpt><trkpt lat="43.78794866892323" lon="11.636166546872161"><ele>970.3333333333334</ele><time>2026-05-02T16:13:13Z</time></trkpt><trkpt lat="43.78790661816969" lon="11.635947093468257"><ele>969.6666666666667</ele><time>2026-05-02T16:13:14Z</time></trkpt><trkpt lat="43.78787804189869" lon="11.635727776772631"><ele>969.0</ele><time>2026-05-02T16:13:15Z</time></trkpt><trkpt lat="43.78789488060886" lon="11.635478505524707"><ele>966.6666666666667</ele><time>2026-05-02T16:13:16Z</time></trkpt><trkpt lat="43.78793802173653" lon="11.635239058061043"><ele>964.3333333333334</ele><time>2026-05-02T16:13:17Z</time></trkpt><trkpt lat="43.787994970487205" lon="11.635035993464262"><ele>962.0</ele><time>2026-05-02T16:13:18Z</time></trkpt><trkpt lat="43.78808242632228" lon="11.634831354423357"><ele>962.0</ele><time>2026-05-02T16:13:19Z</time></trkpt><trkpt lat="43.788210387565286" lon="11.63463070463663"><ele>962.0</ele><time>2026-05-02T16:13:20Z</time></trkpt><trkpt lat="43.788339909960136" lon="11.634435219652609"><ele>962.0</ele><time>2026-05-02T16:13:21Z</time></trkpt><trkpt lat="43.78842184789551" lon="11.634224904569736"><ele>959.6666666666667</ele><time>2026-05-02T16:13:22Z</time></trkpt><trkpt lat="43.78845843736438" lon="11.633965130820846"><ele>957.3333333333333</ele><time>2026-05-02T16:13:23Z</time></trkpt><trkpt lat="43.78845765408251" lon="11.633664872235824"><ele>955.0</ele><time>2026-05-02T16:13:24Z</time></trkpt><trkpt lat="43.7884251935558" lon="11.633344879270794"><ele>954.5</ele><time>2026-05-02T16:13:25Z</time></trkpt><trkpt lat="43.78838223175749" lon="11.632997566076378"><ele>954.0</ele><time>2026-05-02T16:13:26Z</time></trkpt><trkpt lat="43.788340305915625" lon="11.632651408981175"><ele>956.3333333333333</ele><time>2026-05-02T16:13:27Z</time></trkpt><trkpt lat="43.78831220589067" lon="11.632345801324643"><ele>958.6666666666666</ele><time>2026-05-02T16:13:28Z</time></trkpt><trkpt lat="43.7882787787907" lon="11.632072095716419"><ele>961.0</ele><time>2026-05-02T16:13:29Z</time></trkpt><trkpt lat="43.78822785756333" lon="11.631839067589699"><ele>962.0</ele><time>2026-05-02T16:13:30Z</time></trkpt><trkpt lat="43.788162019278325" lon="11.631631169069326"><ele>963.0</ele><time>2026-05-02T16:13:31Z</time></trkpt><trkpt lat="43.78805979347969" lon="11.631488493386733"><ele>964.0</ele><time>2026-05-02T16:13:32Z</time></trkpt><trkpt lat="43.7879247057209" lon="11.631398812460453"><ele>964.0</ele><time>2026-05-02T16:13:33Z</time></trkpt><trkpt lat="43.78777928655188" lon="11.631307739832407"><ele>964.0</ele><time>2026-05-02T16:13:34Z</time></trkpt><trkpt lat="43.78764286503916" lon="11.631205442848762"><ele>964.0</ele><time>2026-05-02T16:13:35Z</time></trkpt><trkpt lat="43.78754769860769" lon="11.631106583533702"><ele>964.0</ele><time>2026-05-02T16:13:36Z</time></trkpt><trkpt lat="43.7874443572857" lon="11.630989953063985"><ele>965.8000000000001</ele><time>2026-05-02T16:13:37Z</time></trkpt><trkpt lat="43.78737379534837" lon="11.630905584430412"><ele>967.6000000000001</ele><time>2026-05-02T16:13:38Z</time></trkpt><trkpt lat="43.787314817155796" lon="11.630819131604422"><ele>969.4</ele><time>2026-05-02T16:13:39Z</time></trkpt><trkpt lat="43.78726563762803" lon="11.630722384618727"><ele>971.2</ele><time>2026-05-02T16:13:40Z</time></trkpt><trkpt lat="43.78723902521768" lon="11.630578665123213"><ele>973.0</ele><time>2026-05-02T16:13:41Z</time></trkpt><trkpt lat="43.78726846908948" lon="11.63040341018382"><ele>973.75</ele><time>2026-05-02T16:13:42Z</time></trkpt><trkpt lat="43.78730297914122" lon="11.630233064270376"><ele>974.5</ele><time>2026-05-02T16:13:43Z</time></trkpt><trkpt lat="43.7873557540112" lon="11.630079060884492"><ele>975.25</ele><time>2026-05-02T16:13:44Z</time></trkpt><trkpt lat="43.78742042831319" lon="11.629948278373917"><ele>976.0</ele><time>2026-05-02T16:13:45Z</time></trkpt><trkpt lat="43.78749733829417" lon="11.629835944302624"><ele>976.0</ele><time>2026-05-02T16:13:46Z</time></trkpt><trkpt lat="43.787579559931" lon="11.629738435065512"><ele>975.9999999999999</ele><time>2026-05-02T16:13:47Z</time></trkpt><trkpt lat="43.78766375167167" lon="11.629643858252294"><ele>975.9999999999999</ele><time>2026-05-02T16:13:48Z</time></trkpt><trkpt lat="43.787726654590635" lon="11.629534904496111"><ele>976.0</ele><time>2026-05-02T16:13:49Z</time></trkpt><trkpt lat="43.78779632399974" lon="11.62943459301654"><ele>976.0</ele><time>2026-05-02T16:13:50Z</time></trkpt><trkpt lat="43.78784363051391" lon="11.629302819895349"><ele>975.25</ele><time>2026-05-02T16:13:51Z</time></trkpt><trkpt lat="43.787848185099286" lon="11.629143488207362"><ele>974.5</ele><time>2026-05-02T16:13:52Z</time></trkpt><trkpt lat="43.78780434908565" lon="11.628994668333371"><ele>973.75</ele><time>2026-05-02T16:13:53Z</time></trkpt><trkpt lat="43.7877247428798" lon="11.628881110563036"><ele>973.0</ele><time>2026-05-02T16:13:54Z</time></trkpt><trkpt lat="43.787636385890416" lon="11.628800041867958"><ele>973.0</ele><time>2026-05-02T16:13:55Z</time></trkpt><trkpt lat="43.787556336511265" lon="11.628731902090273"><ele>973.0</ele><time>2026-05-02T16:13:56Z</time></trkpt><trkpt lat="43.787478643128395" lon="11.628664170798839"><ele>973.0</ele><time>2026-05-02T16:13:57Z</time></trkpt><trkpt lat="43.78742267895134" lon="11.628576396551875"><ele>973.0</ele><time>2026-05-02T16:13:58Z</time></trkpt><trkpt lat="43.78741042866691" lon="11.6284430294304"><ele>973.0</ele><time>2026-05-02T16:13:59Z</time></trkpt><trkpt lat="43.787451484186334" lon="11.628289373452677"><ele>974.5</ele><time>2026-05-02T16:14:00Z</time></trkpt><trkpt lat="43.78755326618443" lon="11.628169783738942"><ele>976.0</ele><time>2026-05-02T16:14:01Z</time></trkpt><trkpt lat="43.78764630883149" lon="11.628087261832386"><ele>977.5</ele><time>2026-05-02T16:14:02Z</time></trkpt><trkpt lat="43.78775265825515" lon="11.62803347782606"><ele>979.0</ele><time>2026-05-02T16:14:03Z</time></trkpt><trkpt lat="43.78786691429463" lon="11.628005115940706"><ele>979.8000000000001</ele><time>2026-05-02T16:14:04Z</time></trkpt><trkpt lat="43.787960288777434" lon="11.627954065150455"><ele>980.6000000000001</ele><time>2026-05-02T16:14:05Z</time></trkpt><trkpt lat="43.78803453127157" lon="11.627946415048095"><ele>981.4</ele><time>2026-05-02T16:14:06Z</time></trkpt><trkpt lat="43.78810693893519" lon="11.627840019826154"><ele>982.2</ele><time>2026-05-02T16:14:07Z</time></trkpt><trkpt lat="43.78813421647412" lon="11.627701233221652"><ele>983.0</ele><time>2026-05-02T16:14:08Z</time></trkpt><trkpt lat="43.78810865545488" lon="11.627528563713986"><ele>983.0</ele><time>2026-05-02T16:14:09Z</time></trkpt><trkpt lat="43.78802493474354" lon="11.627380269154026"><ele>983.0</ele><time>2026-05-02T16:14:10Z</time></trkpt><trkpt lat="43.78790714759303" lon="11.627248669491552"><ele>983.0</ele><time>2026-05-02T16:14:11Z</time></trkpt><trkpt lat="43.787804415582244" lon="11.627096291905508"><ele>983.0</ele><time>2026-05-02T16:14:12Z</time></trkpt><trkpt lat="43.78772795616256" lon="11.626921898701776"><ele>976.3333333333334</ele><time>2026-05-02T16:14:13Z</time></trkpt><trkpt lat="43.78766138158508" lon="11.626747752792363"><ele>969.6666666666667</ele><time>2026-05-02T16:14:14Z</time></trkpt><trkpt lat="43.787568122500595" lon="11.626582108542278"><ele>963.0</ele><time>2026-05-02T16:14:15Z</time></trkpt><trkpt lat="43.78744612488439" lon="11.626443385568505"><ele>963.0</ele><time>2026-05-02T16:14:16Z</time></trkpt><trkpt lat="43.787321180557576" lon="11.626318527357228"><ele>963.0</ele><time>2026-05-02T16:14:17Z</time></trkpt><trkpt lat="43.787240241795814" lon="11.62616592904085"><ele>963.0</ele><time>2026-05-02T16:14:18Z</time></trkpt><trkpt lat="43.787160630627696" lon="11.626012149576257"><ele>963.0</ele><time>2026-05-02T16:14:19Z</time></trkpt><trkpt lat="43.78709201598773" lon="11.625850271528005"><ele>962.75</ele><time>2026-05-02T16:14:20Z</time></trkpt><trkpt lat="43.78704050127462" lon="11.625682045724007"><ele>962.5</ele><time>2026-05-02T16:14:21Z</time></trkpt><trkpt lat="43.787011438490424" lon="11.625511113626448"><ele>962.25</ele><time>2026-05-02T16:14:22Z</time></trkpt><trkpt lat="43.78699680728313" lon="11.625348557756027"><ele>962.0</ele><time>2026-05-02T16:14:23Z</time></trkpt><trkpt lat="43.78698968557462" lon="11.625184467855377"><ele>959.25</ele><time>2026-05-02T16:14:24Z</time></trkpt><trkpt lat="43.787059714917234" lon="11.625037405913279"><ele>956.5</ele><time>2026-05-02T16:14:25.001Z</time></trkpt><trkpt lat="43.78712372144989" lon="11.624871529908754"><ele>953.75</ele><time>2026-05-02T16:14:26.001Z</time></trkpt><trkpt lat="43.78720677361691" lon="11.62473892710206"><ele>951.0</ele><time>2026-05-02T16:14:27.001Z</time></trkpt><trkpt lat="43.78729157028894" lon="11.624629832843194"><ele>951.0</ele><time>2026-05-02T16:14:28.001Z</time></trkpt><trkpt lat="43.787402691981924" lon="11.624547832231473"><ele>951.0</ele><time>2026-05-02T16:14:29.001Z</time></trkpt><trkpt lat="43.787561105192566" lon="11.624483482000786"><ele>951.0</ele><time>2026-05-02T16:14:30.001Z</time></trkpt><trkpt lat="43.787743989006835" lon="11.624393201472396"><ele>948.0</ele><time>2026-05-02T16:14:31.001Z</time></trkpt><trkpt lat="43.787932720027065" lon="11.624295040575733"><ele>945.0</ele><time>2026-05-02T16:14:32.001Z</time></trkpt><trkpt lat="43.78808802070393" lon="11.624239363654537"><ele>942.0</ele><time>2026-05-02T16:14:33.001Z</time></trkpt><trkpt lat="43.788228532416184" lon="11.624169757649176"><ele>942.0</ele><time>2026-05-02T16:14:34.001Z</time></trkpt><trkpt lat="43.7883337139211" lon="11.624083586346336"><ele>942.0</ele><time>2026-05-02T16:14:35.001Z</time></trkpt><trkpt lat="43.78839034214468" lon="11.623949985254114"><ele>942.0</ele><time>2026-05-02T16:14:36.001Z</time></trkpt><trkpt lat="43.78843281586143" lon="11.623774306758861"><ele>942.0</ele><time>2026-05-02T16:14:37.001Z</time></trkpt><trkpt lat="43.78842669212551" lon="11.623553120577867"><ele>937.6666666666667</ele><time>2026-05-02T16:14:38.001Z</time></trkpt><trkpt lat="43.788376442228035" lon="11.62334373620556"><ele>933.3333333333334</ele><time>2026-05-02T16:14:39Z</time></trkpt><trkpt lat="43.788298890297014" lon="11.623154483065179"><ele>929.0</ele><time>2026-05-02T16:14:40Z</time></trkpt><trkpt lat="43.78822950020026" lon="11.622944933674097"><ele>929.0</ele><time>2026-05-02T16:14:41Z</time></trkpt><trkpt lat="43.78814593504588" lon="11.622689482849552"><ele>929.0</ele><time>2026-05-02T16:14:42Z</time></trkpt><trkpt lat="43.78803617707221" lon="11.622436762815996"><ele>929.0</ele><time>2026-05-02T16:14:43Z</time></trkpt><trkpt lat="43.78788559352116" lon="11.622188575873064"><ele>932.5</ele><time>2026-05-02T16:14:44Z</time></trkpt><trkpt lat="43.787721743109785" lon="11.621933228506482"><ele>936.0</ele><time>2026-05-02T16:14:45Z</time></trkpt><trkpt lat="43.78753560870534" lon="11.621685358041608"><ele>936.0</ele><time>2026-05-02T16:14:46Z</time></trkpt><trkpt lat="43.78734206775255" lon="11.621423155759597"><ele>936.0</ele><time>2026-05-02T16:14:47Z</time></trkpt><trkpt lat="43.787153070994655" lon="11.621152733004468"><ele>937.0</ele><time>2026-05-02T16:14:48Z</time></trkpt><trkpt lat="43.7869613643446" lon="11.620885684365904"><ele>938.0</ele><time>2026-05-02T16:14:49Z</time></trkpt><trkpt lat="43.78678764159196" lon="11.6206389936822"><ele>938.0</ele><time>2026-05-02T16:14:50Z</time></trkpt><trkpt lat="43.786614937019564" lon="11.620404357970436"><ele>938.0</ele><time>2026-05-02T16:14:51Z</time></trkpt><trkpt lat="43.78643143630782" lon="11.620191847813604"><ele>940.6666666666667</ele><time>2026-05-02T16:14:52Z</time></trkpt><trkpt lat="43.78624556177437" lon="11.620011995794423"><ele>943.3333333333333</ele><time>2026-05-02T16:14:53Z</time></trkpt><trkpt lat="43.78604866433943" lon="11.619877330893145"><ele>946.0</ele><time>2026-05-02T16:14:54Z</time></trkpt><trkpt lat="43.78585299382443" lon="11.619744445873229"><ele>946.3333333333333</ele><time>2026-05-02T16:14:55Z</time></trkpt><trkpt lat="43.78566536879686" lon="11.619607313342991"><ele>946.6666666666667</ele><time>2026-05-02T16:14:56Z</time></trkpt><trkpt lat="43.785499158779665" lon="11.619509616120553"><ele>947.0</ele><time>2026-05-02T16:14:57Z</time></trkpt><trkpt lat="43.78535294212236" lon="11.619470479358855"><ele>947.0</ele><time>2026-05-02T16:14:58Z</time></trkpt><trkpt lat="43.785216765036395" lon="11.619507425339183"><ele>947.0</ele><time>2026-05-02T16:14:59Z</time></trkpt><trkpt lat="43.78509003351142" lon="11.619607082229459"><ele>947.0</ele><time>2026-05-02T16:15:00Z</time></trkpt><trkpt lat="43.78496708411604" lon="11.619689992181115"><ele>947.0</ele><time>2026-05-02T16:15:01Z</time></trkpt><trkpt lat="43.78483029455158" lon="11.619703682497342"><ele>948.3333333333334</ele><time>2026-05-02T16:15:02Z</time></trkpt><trkpt lat="43.784679291016694" lon="11.619641148644469"><ele>949.6666666666667</ele><time>2026-05-02T16:15:03Z</time></trkpt><trkpt lat="43.784526551628" lon="11.619528940028701"><ele>951.0</ele><time>2026-05-02T16:15:04Z</time></trkpt><trkpt lat="43.78439724225716" lon="11.619380358349742"><ele>953.25</ele><time>2026-05-02T16:15:05Z</time></trkpt><trkpt lat="43.78430224510609" lon="11.6192739394644"><ele>955.5</ele><time>2026-05-02T16:15:06Z</time></trkpt><trkpt lat="43.78425108089177" lon="11.619117692169324"><ele>957.75</ele><time>2026-05-02T16:15:07Z</time></trkpt><trkpt lat="43.78425268757439" lon="11.618915223238268"><ele>960.0</ele><time>2026-05-02T16:15:08Z</time></trkpt><trkpt lat="43.78428756642261" lon="11.618673877631878"><ele>963.0</ele><time>2026-05-02T16:15:09Z</time></trkpt><trkpt lat="43.78432637159931" lon="11.618407368035406"><ele>966.0</ele><time>2026-05-02T16:15:10Z</time></trkpt><trkpt lat="43.78434469829189" lon="11.618117357388268"><ele>969.0</ele><time>2026-05-02T16:15:11Z</time></trkpt><trkpt lat="43.784344539921776" lon="11.617813092520837"><ele>972.0</ele><time>2026-05-02T16:15:12Z</time></trkpt><trkpt lat="43.78433590556851" lon="11.617499119347848"><ele>975.0</ele><time>2026-05-02T16:15:13Z</time></trkpt><trkpt lat="43.78432097192544" lon="11.617184410348537"><ele>977.3333333333333</ele><time>2026-05-02T16:15:14Z</time></trkpt><trkpt lat="43.7842995087574" lon="11.61689944647398"><ele>979.6666666666666</ele><time>2026-05-02T16:15:15Z</time></trkpt><trkpt lat="43.784291421430446" lon="11.616646001434967"><ele>982.0</ele><time>2026-05-02T16:15:16Z</time></trkpt><trkpt lat="43.784312943159584" lon="11.616397583818273"><ele>985.3333333333333</ele><time>2026-05-02T16:15:17Z</time></trkpt><trkpt lat="43.78436759169326" lon="11.616163661914547"><ele>988.6666666666667</ele><time>2026-05-02T16:15:18Z</time></trkpt><trkpt lat="43.784464052270145" lon="11.61600252509573"><ele>992.0</ele><time>2026-05-02T16:15:19Z</time></trkpt><trkpt lat="43.78458779077725" lon="11.615839112406979"><ele>992.0</ele><time>2026-05-02T16:15:20Z</time></trkpt><trkpt lat="43.78472882526576" lon="11.615649554394835"><ele>992.0</ele><time>2026-05-02T16:15:21Z</time></trkpt><trkpt lat="43.78484718429373" lon="11.615403952221149"><ele>992.0</ele><time>2026-05-02T16:15:22Z</time></trkpt><trkpt lat="43.78494349645245" lon="11.615146340513911"><ele>992.0</ele><time>2026-05-02T16:15:23Z</time></trkpt><trkpt lat="43.78500830173287" lon="11.614848162401268"><ele>992.0</ele><time>2026-05-02T16:15:24Z</time></trkpt><trkpt lat="43.785047708436785" lon="11.61453796466962"><ele>993.0</ele><time>2026-05-02T16:15:25Z</time></trkpt><trkpt lat="43.78507672669734" lon="11.614254743283787"><ele>994.0</ele><time>2026-05-02T16:15:26Z</time></trkpt><trkpt lat="43.78511134440299" lon="11.614012306886776"><ele>995.0</ele><time>2026-05-02T16:15:27Z</time></trkpt><trkpt lat="43.78514867184431" lon="11.613809637604284"><ele>995.4</ele><time>2026-05-02T16:15:28Z</time></trkpt><trkpt lat="43.78518770312765" lon="11.613666824079054"><ele>995.8</ele><time>2026-05-02T16:15:29Z</time></trkpt><trkpt lat="43.78524529169267" lon="11.613568229315172"><ele>996.2</ele><time>2026-05-02T16:15:30Z</time></trkpt><trkpt lat="43.78533443138562" lon="11.61349128662368"><ele>996.6</ele><time>2026-05-02T16:15:31Z</time></trkpt><trkpt lat="43.78546335503971" lon="11.613418003343545"><ele>997.0</ele><time>2026-05-02T16:15:32Z</time></trkpt><trkpt lat="43.78562157239109" lon="11.613362414970101"><ele>996.25</ele><time>2026-05-02T16:15:33Z</time></trkpt><trkpt lat="43.78577653167887" lon="11.613320631573977"><ele>995.5</ele><time>2026-05-02T16:15:34Z</time></trkpt><trkpt lat="43.78590490330918" lon="11.61327807004011"><ele>994.75</ele><time>2026-05-02T16:15:35Z</time></trkpt><trkpt lat="43.78599856533521" lon="11.613207012980604"><ele>994.0</ele><time>2026-05-02T16:15:36Z</time></trkpt><trkpt lat="43.786056135269426" lon="11.613092886667266"><ele>994.0</ele><time>2026-05-02T16:15:37Z</time></trkpt><trkpt lat="43.786082909743" lon="11.612935092121223"><ele>994.0</ele><time>2026-05-02T16:15:38Z</time></trkpt><trkpt lat="43.78606517901133" lon="11.612729277542142"><ele>994.0</ele><time>2026-05-02T16:15:39Z</time></trkpt><trkpt lat="43.786012015175594" lon="11.612510970530606"><ele>994.0</ele><time>2026-05-02T16:15:40Z</time></trkpt><trkpt lat="43.78595220887338" lon="11.612248955544425"><ele>1004.0</ele><time>2026-05-02T16:15:41Z</time></trkpt><trkpt lat="43.78593760588155" lon="11.611973107268984"><ele>1014.0</ele><time>2026-05-02T16:15:42Z</time></trkpt><trkpt lat="43.78592331766167" lon="11.611703700711187"><ele>1024.0</ele><time>2026-05-02T16:15:43Z</time></trkpt><trkpt lat="43.78586686136472" lon="11.611458809680231"><ele>1024.0</ele><time>2026-05-02T16:15:44Z</time></trkpt><trkpt lat="43.785747351815466" lon="11.61120695172182"><ele>1024.0</ele><time>2026-05-02T16:15:45Z</time></trkpt><trkpt lat="43.78560374651685" lon="11.61096625937146"><ele>1024.0</ele><time>2026-05-02T16:15:46Z</time></trkpt><trkpt lat="43.78548493879043" lon="11.610744884175148"><ele>1023.6666666666666</ele><time>2026-05-02T16:15:47Z</time></trkpt><trkpt lat="43.7853998147341" lon="11.610521416313741"><ele>1023.3333333333333</ele><time>2026-05-02T16:15:48Z</time></trkpt><trkpt lat="43.785339864415846" lon="11.610264639678842"><ele>1023.0</ele><time>2026-05-02T16:15:49Z</time></trkpt><trkpt lat="43.785301550885016" lon="11.609954938188723"><ele>1023.0</ele><time>2026-05-02T16:15:50Z</time></trkpt><trkpt lat="43.785259788348554" lon="11.60964860386835"><ele>1023.0</ele><time>2026-05-02T16:15:51Z</time></trkpt><trkpt lat="43.78520752608801" lon="11.609341291899286"><ele>1026.3333333333333</ele><time>2026-05-02T16:15:52Z</time></trkpt><trkpt lat="43.78515396905706" lon="11.609037213754112"><ele>1029.6666666666665</ele><time>2026-05-02T16:15:53Z</time></trkpt><trkpt lat="43.78510250403855" lon="11.608749285004553"><ele>1033.0</ele><time>2026-05-02T16:15:54Z</time></trkpt><trkpt lat="43.78505271607733" lon="11.608471367515781"><ele>1033.0</ele><time>2026-05-02T16:15:55Z</time></trkpt><trkpt lat="43.78500576646524" lon="11.608213211943532"><ele>1033.0</ele><time>2026-05-02T16:15:56Z</time></trkpt><trkpt lat="43.784961642924145" lon="11.607981656029892"><ele>1033.0</ele><time>2026-05-02T16:15:57Z</time></trkpt><trkpt lat="43.78493498163514" lon="11.607755489992757"><ele>1033.75</ele><time>2026-05-02T16:15:58Z</time></trkpt><trkpt lat="43.78489917545042" lon="11.607547879529914"><ele>1034.5</ele><time>2026-05-02T16:15:59Z</time></trkpt><trkpt lat="43.78486834325714" lon="11.607357096786231"><ele>1035.25</ele><time>2026-05-02T16:16:00Z</time></trkpt><trkpt lat="43.784841746089725" lon="11.607181714896344"><ele>1036.0</ele><time>2026-05-02T16:16:01Z</time></trkpt><trkpt lat="43.78482145878364" lon="11.607019778588779"><ele>1037.5</ele><time>2026-05-02T16:16:02Z</time></trkpt><trkpt lat="43.78480812758012" lon="11.606846730328167"><ele>1039.0</ele><time>2026-05-02T16:16:03Z</time></trkpt><trkpt lat="43.78481067041355" lon="11.606660183822205"><ele>1040.5</ele><time>2026-05-02T16:16:04Z</time></trkpt><trkpt lat="43.784835479075916" lon="11.606455745083853"><ele>1042.0</ele><time>2026-05-02T16:16:05Z</time></trkpt><trkpt lat="43.784889055185836" lon="11.606270824608941"><ele>1042.0</ele><time>2026-05-02T16:16:06Z</time></trkpt><trkpt lat="43.78496021561578" lon="11.606094550221973"><ele>1042.0</ele><time>2026-05-02T16:16:07Z</time></trkpt><trkpt lat="43.78503910710693" lon="11.605889934108607"><ele>1042.0</ele><time>2026-05-02T16:16:08Z</time></trkpt><trkpt lat="43.78512457729993" lon="11.605701433396275"><ele>1045.3333333333333</ele><time>2026-05-02T16:16:09Z</time></trkpt><trkpt lat="43.785198275847115" lon="11.605513478488637"><ele>1048.6666666666667</ele><time>2026-05-02T16:16:10Z</time></trkpt><trkpt lat="43.785295948302554" lon="11.605331987993178"><ele>1052.0</ele><time>2026-05-02T16:16:11Z</time></trkpt><trkpt lat="43.78537771494723" lon="11.605147841837603"><ele>1052.75</ele><time>2026-05-02T16:16:12Z</time></trkpt><trkpt lat="43.78543927290281" lon="11.604967289031341"><ele>1053.5</ele><time>2026-05-02T16:16:13Z</time></trkpt><trkpt lat="43.785523223625425" lon="11.604810780317488"><ele>1054.25</ele><time>2026-05-02T16:16:14Z</time></trkpt><trkpt lat="43.78555337393363" lon="11.604652973133698"><ele>1055.0</ele><time>2026-05-02T16:16:15Z</time></trkpt><trkpt lat="43.7855725459463" lon="11.604528553080751"><ele>1056.5</ele><time>2026-05-02T16:16:16Z</time></trkpt><trkpt lat="43.78553424268979" lon="11.604392731884486"><ele>1058.0</ele><time>2026-05-02T16:16:17Z</time></trkpt><trkpt lat="43.785462181373894" lon="11.604295746794426"><ele>1059.5</ele><time>2026-05-02T16:16:18Z</time></trkpt><trkpt lat="43.785361593356576" lon="11.60421303469949"><ele>1061.0</ele><time>2026-05-02T16:16:19Z</time></trkpt><trkpt lat="43.78522394480865" lon="11.604147344585224"><ele>1059.5</ele><time>2026-05-02T16:16:20Z</time></trkpt><trkpt lat="43.78506802759899" lon="11.604087066725489"><ele>1058.0</ele><time>2026-05-02T16:16:21Z</time></trkpt><trkpt lat="43.78493003247244" lon="11.604049216890173"><ele>1056.5</ele><time>2026-05-02T16:16:22Z</time></trkpt><trkpt lat="43.78481008146004" lon="11.604019984963124"><ele>1055.0</ele><time>2026-05-02T16:16:23Z</time></trkpt><trkpt lat="43.78469601245074" lon="11.604008423193505"><ele>1055.0</ele><time>2026-05-02T16:16:24Z</time></trkpt><trkpt lat="43.78457697779521" lon="11.603988085859234"><ele>1055.0</ele><time>2026-05-02T16:16:25Z</time></trkpt><trkpt lat="43.78450096400687" lon="11.60398427127214"><ele>1055.0</ele><time>2026-05-02T16:16:26Z</time></trkpt><trkpt lat="43.78442843053721" lon="11.603931670139252"><ele>1055.0</ele><time>2026-05-02T16:16:27Z</time></trkpt><trkpt lat="43.78434950400649" lon="11.60383691237016"><ele>1055.0</ele><time>2026-05-02T16:16:28Z</time></trkpt><trkpt lat="43.7842612863172" lon="11.60370438630237"><ele>1057.3333333333335</ele><time>2026-05-02T16:16:29Z</time></trkpt><trkpt lat="43.7841936210033" lon="11.603506252453041"><ele>1059.6666666666667</ele><time>2026-05-02T16:16:30Z</time></trkpt><trkpt lat="43.78409098942611" lon="11.603311668884103"><ele>1062.0</ele><time>2026-05-02T16:16:31.001Z</time></trkpt><trkpt lat="43.78397829291366" lon="11.603098003567807"><ele>1062.0</ele><time>2026-05-02T16:16:32.001Z</time></trkpt><trkpt lat="43.783848165147944" lon="11.60285128873375"><ele>1062.0</ele><time>2026-05-02T16:16:33.001Z</time></trkpt><trkpt lat="43.78370766674179" lon="11.60258494011675"><ele>1057.6666666666667</ele><time>2026-05-02T16:16:34.001Z</time></trkpt><trkpt lat="43.78357982040124" lon="11.602363754326733"><ele>1053.3333333333335</ele><time>2026-05-02T16:16:35.001Z</time></trkpt><trkpt lat="43.783491078536635" lon="11.602192841787382"><ele>1049.0</ele><time>2026-05-02T16:16:36.001Z</time></trkpt><trkpt lat="43.78340605446065" lon="11.602106368284362"><ele>1049.0</ele><time>2026-05-02T16:16:37.001Z</time></trkpt><trkpt lat="43.783324663628456" lon="11.602065099104287"><ele>1049.0</ele><time>2026-05-02T16:16:38.001Z</time></trkpt><trkpt lat="43.783242941866426" lon="11.602049355621574"><ele>1049.0</ele><time>2026-05-02T16:16:39.001Z</time></trkpt><trkpt lat="43.78317678314192" lon="11.60199785514814"><ele>1049.0</ele><time>2026-05-02T16:16:40.001Z</time></trkpt><trkpt lat="43.7831172184223" lon="11.601945794529767"><ele>1049.0</ele><time>2026-05-02T16:16:41.001Z</time></trkpt><trkpt lat="43.78306394663434" lon="11.601885559064288"><ele>1049.0</ele><time>2026-05-02T16:16:42.001Z</time></trkpt><trkpt lat="43.78299272578096" lon="11.601780559932475"><ele>1051.8333333333335</ele><time>2026-05-02T16:16:44.001Z</time></trkpt><trkpt lat="43.78296549051165" lon="11.601692265232659"><ele>1054.6666666666667</ele><time>2026-05-02T16:16:46.001Z</time></trkpt><trkpt lat="43.78294826979396" lon="11.601608296568925"><ele>1057.5</ele><time>2026-05-02T16:16:48.001Z</time></trkpt><trkpt lat="43.78294630562534" lon="11.60141948329087"><ele>1060.3333333333333</ele><time>2026-05-02T16:16:50.001Z</time></trkpt><trkpt lat="43.782943774742904" lon="11.60131558654737"><ele>1063.1666666666665</ele><time>2026-05-02T16:16:51.001Z</time></trkpt><trkpt lat="43.78295292564385" lon="11.60120312129416"><ele>1066.0</ele><time>2026-05-02T16:16:52.001Z</time></trkpt><trkpt lat="43.78296681189799" lon="11.60106407012412"><ele>1066.0</ele><time>2026-05-02T16:16:53.001Z</time></trkpt><trkpt lat="43.782985126561236" lon="11.600909152499474"><ele>1066.0</ele><time>2026-05-02T16:16:54.001Z</time></trkpt><trkpt lat="43.78299610555884" lon="11.600731357916976"><ele>1066.0</ele><time>2026-05-02T16:16:55.001Z</time></trkpt><trkpt lat="43.782987872057895" lon="11.60055487838972"><ele>1066.0</ele><time>2026-05-02T16:16:56.001Z</time></trkpt><trkpt lat="43.7829745708665" lon="11.6003500322562"><ele>1062.6666666666665</ele><time>2026-05-02T16:16:57Z</time></trkpt><trkpt lat="43.782967626795845" lon="11.600142873396855"><ele>1059.3333333333333</ele><time>2026-05-02T16:16:58Z</time></trkpt><trkpt lat="43.782962419998356" lon="11.599932117108324"><ele>1056.0</ele><time>2026-05-02T16:16:59Z</time></trkpt><trkpt lat="43.78295090620597" lon="11.599724938484144"><ele>1056.0</ele><time>2026-05-02T16:17:00Z</time></trkpt><trkpt lat="43.78293937926499" lon="11.599509583792694"><ele>1056.0</ele><time>2026-05-02T16:17:01Z</time></trkpt><trkpt lat="43.78292795862462" lon="11.599298207548301"><ele>1056.0</ele><time>2026-05-02T16:17:02Z</time></trkpt><trkpt lat="43.78291242133823" lon="11.599089600326145"><ele>1056.6666666666667</ele><time>2026-05-02T16:17:03Z</time></trkpt><trkpt lat="43.78288017906377" lon="11.598877402021197"><ele>1057.3333333333335</ele><time>2026-05-02T16:17:04Z</time></trkpt><trkpt lat="43.782825854046294" lon="11.598666448325048"><ele>1058.0</ele><time>2026-05-02T16:17:05Z</time></trkpt><trkpt lat="43.78274795542555" lon="11.598471650582656"><ele>1051.3333333333335</ele><time>2026-05-02T16:17:06Z</time></trkpt><trkpt lat="43.78266055229223" lon="11.598285198053537"><ele>1044.6666666666667</ele><time>2026-05-02T16:17:07Z</time></trkpt><trkpt lat="43.782559217816846" lon="11.59811850745534"><ele>1038.0</ele><time>2026-05-02T16:17:08Z</time></trkpt><trkpt lat="43.78243958347641" lon="11.597978804508733"><ele>1038.0</ele><time>2026-05-02T16:17:09Z</time></trkpt><trkpt lat="43.782314947107004" lon="11.597871812070144"><ele>1038.0</ele><time>2026-05-02T16:17:10Z</time></trkpt><trkpt lat="43.78220442121275" lon="11.597804896763655"><ele>1038.0</ele><time>2026-05-02T16:17:11Z</time></trkpt><trkpt lat="43.7820990831705" lon="11.597757854300326"><ele>1038.0</ele><time>2026-05-02T16:17:12Z</time></trkpt><trkpt lat="43.781997650097075" lon="11.597702306610799"><ele>1038.4</ele><time>2026-05-02T16:17:13Z</time></trkpt><trkpt lat="43.78191081559882" lon="11.597653317252368"><ele>1038.8</ele><time>2026-05-02T16:17:14Z</time></trkpt><trkpt lat="43.781819110049206" lon="11.597598988573742"><ele>1039.2</ele><time>2026-05-02T16:17:15Z</time></trkpt><trkpt lat="43.781730763747674" lon="11.597531387334259"><ele>1039.6</ele><time>2026-05-02T16:17:16Z</time></trkpt><trkpt lat="43.78164208477965" lon="11.597455565258505"><ele>1040.0</ele><time>2026-05-02T16:17:17Z</time></trkpt><trkpt lat="43.78155314851284" lon="11.597378404984383"><ele>1036.25</ele><time>2026-05-02T16:17:18Z</time></trkpt><trkpt lat="43.78146024338968" lon="11.597292585605388"><ele>1032.5</ele><time>2026-05-02T16:17:19Z</time></trkpt><trkpt lat="43.78138620415223" lon="11.597179482069409"><ele>1028.75</ele><time>2026-05-02T16:17:20Z</time></trkpt><trkpt lat="43.78130534707018" lon="11.597044933456743"><ele>1025.0</ele><time>2026-05-02T16:17:21Z</time></trkpt><trkpt lat="43.78122321824553" lon="11.596886927482098"><ele>1024.5</ele><time>2026-05-02T16:17:22Z</time></trkpt><trkpt lat="43.781140763139184" lon="11.596755567001495"><ele>1024.0</ele><time>2026-05-02T16:17:23Z</time></trkpt><trkpt lat="43.78109723496601" lon="11.596646693477389"><ele>1023.5</ele><time>2026-05-02T16:17:24Z</time></trkpt><trkpt lat="43.78106391763977" lon="11.596556419769957"><ele>1023.0</ele><time>2026-05-02T16:17:25Z</time></trkpt><trkpt lat="43.781023657181834" lon="11.596489335896841"><ele>1022.5000000000001</ele><time>2026-05-02T16:17:27Z</time></trkpt><trkpt lat="43.78094597110378" lon="11.596413872792686"><ele>1022.0</ele><time>2026-05-02T16:17:30Z</time></trkpt><trkpt lat="43.780863542683214" lon="11.596336194540005"><ele>1022.0</ele><time>2026-05-02T16:17:32Z</time></trkpt><trkpt lat="43.7807813312899" lon="11.59624924893214"><ele>1022.0</ele><time>2026-05-02T16:17:34Z</time></trkpt><trkpt lat="43.78071677314508" lon="11.59617894306057"><ele>1022.0</ele><time>2026-05-02T16:17:35Z</time></trkpt><trkpt lat="43.78063916902786" lon="11.59609271137067"><ele>1022.0</ele><time>2026-05-02T16:17:36Z</time></trkpt><trkpt lat="43.78055807666349" lon="11.595996491662286"><ele>1022.0</ele><time>2026-05-02T16:17:37Z</time></trkpt><trkpt lat="43.78045990453057" lon="11.59589938377073"><ele>1022.75</ele><time>2026-05-02T16:17:38Z</time></trkpt><trkpt lat="43.780362532516214" lon="11.59578020352103"><ele>1023.5</ele><time>2026-05-02T16:17:39Z</time></trkpt><trkpt lat="43.78025119427155" lon="11.595664521163293"><ele>1024.25</ele><time>2026-05-02T16:17:40Z</time></trkpt><trkpt lat="43.7801229672678" lon="11.595542795756632"><ele>1025.0</ele><time>2026-05-02T16:17:41Z</time></trkpt><trkpt lat="43.780005633762016" lon="11.595427168588914"><ele>1023.25</ele><time>2026-05-02T16:17:42Z</time></trkpt><trkpt lat="43.77990344588316" lon="11.595303104747169"><ele>1021.5</ele><time>2026-05-02T16:17:43Z</time></trkpt><trkpt lat="43.7798170423407" lon="11.595162124208056"><ele>1019.75</ele><time>2026-05-02T16:17:44Z</time></trkpt><trkpt lat="43.77974465301771" lon="11.594990100561795"><ele>1018.0</ele><time>2026-05-02T16:17:45Z</time></trkpt><trkpt lat="43.77971239614103" lon="11.594780645417053"><ele>1018.0</ele><time>2026-05-02T16:17:46Z</time></trkpt><trkpt lat="43.77968935804795" lon="11.594568609999309"><ele>1018.0</ele><time>2026-05-02T16:17:47Z</time></trkpt><trkpt lat="43.77966585007287" lon="11.594345792816997"><ele>1018.0</ele><time>2026-05-02T16:17:48Z</time></trkpt><trkpt lat="43.77962727354657" lon="11.594125810317413"><ele>1018.3333333333333</ele><time>2026-05-02T16:17:49Z</time></trkpt><trkpt lat="43.779607832491166" lon="11.593898506710493"><ele>1018.6666666666667</ele><time>2026-05-02T16:17:50Z</time></trkpt><trkpt lat="43.779604848822565" lon="11.593685823664554"><ele>1019.0</ele><time>2026-05-02T16:17:51Z</time></trkpt><trkpt lat="43.77962718606162" lon="11.593500726751575"><ele>1019.0</ele><time>2026-05-02T16:17:52Z</time></trkpt><trkpt lat="43.779648839819686" lon="11.593322962774684"><ele>1019.0</ele><time>2026-05-02T16:17:53Z</time></trkpt><trkpt lat="43.77966858690966" lon="11.593148959362853"><ele>1019.0</ele><time>2026-05-02T16:17:54Z</time></trkpt><trkpt lat="43.7796670579142" lon="11.592959176671588"><ele>1019.0</ele><time>2026-05-02T16:17:55Z</time></trkpt><trkpt lat="43.77962366678493" lon="11.59276062347953"><ele>1018.75</ele><time>2026-05-02T16:17:56Z</time></trkpt><trkpt lat="43.77954537097447" lon="11.59259129860239"><ele>1018.5</ele><time>2026-05-02T16:17:57Z</time></trkpt><trkpt lat="43.77943008389848" lon="11.592476579198703"><ele>1018.25</ele><time>2026-05-02T16:17:58Z</time></trkpt><trkpt lat="43.779297907487084" lon="11.592403678920968"><ele>1018.0</ele><time>2026-05-02T16:17:59Z</time></trkpt><trkpt lat="43.779149127682295" lon="11.59236277681877"><ele>1019.3333333333333</ele><time>2026-05-02T16:18:00Z</time></trkpt><trkpt lat="43.77897948103632" lon="11.592359777954007"><ele>1020.6666666666667</ele><time>2026-05-02T16:18:01Z</time></trkpt><trkpt lat="43.778801731574646" lon="11.592417733499138"><ele>1022.0</ele><time>2026-05-02T16:18:02Z</time></trkpt><trkpt lat="43.77864870846998" lon="11.592519363574342"><ele>1022.5</ele><time>2026-05-02T16:18:03Z</time></trkpt><trkpt lat="43.77850319412237" lon="11.59258883575852"><ele>1023.0</ele><time>2026-05-02T16:18:04Z</time></trkpt><trkpt lat="43.778382930033196" lon="11.592647072373001"><ele>1023.5</ele><time>2026-05-02T16:18:05Z</time></trkpt><trkpt lat="43.77828369378528" lon="11.592664957281293"><ele>1024.0</ele><time>2026-05-02T16:18:06Z</time></trkpt><trkpt lat="43.77821505150172" lon="11.592581010193422"><ele>1024.0</ele><time>2026-05-02T16:18:07Z</time></trkpt><trkpt lat="43.778175582935795" lon="11.592488320725218"><ele>1024.0</ele><time>2026-05-02T16:18:08Z</time></trkpt><trkpt lat="43.778163681377414" lon="11.592353194210851"><ele>1024.0</ele><time>2026-05-02T16:18:09Z</time></trkpt><trkpt lat="43.778193566355085" lon="11.592178337270694"><ele>1024.0</ele><time>2026-05-02T16:18:10Z</time></trkpt><trkpt lat="43.77824701410185" lon="11.591971866009171"><ele>1023.0</ele><time>2026-05-02T16:18:11Z</time></trkpt><trkpt lat="43.77832427882172" lon="11.591735497318878"><ele>1022.0</ele><time>2026-05-02T16:18:12Z</time></trkpt><trkpt lat="43.77836877434637" lon="11.591495788891184"><ele>1021.0</ele><time>2026-05-02T16:18:13Z</time></trkpt><trkpt lat="43.7783599132516" lon="11.591216145951542"><ele>1021.0</ele><time>2026-05-02T16:18:14Z</time></trkpt><trkpt lat="43.778313596929735" lon="11.590941416076246"><ele>1021.0</ele><time>2026-05-02T16:18:15Z</time></trkpt><trkpt lat="43.778262590100404" lon="11.59068951674486"><ele>1021.0</ele><time>2026-05-02T16:18:16Z</time></trkpt><trkpt lat="43.77824335598069" lon="11.590431125775163"><ele>1021.6666666666666</ele><time>2026-05-02T16:18:17Z</time></trkpt><trkpt lat="43.7782493898317" lon="11.590182491482183"><ele>1022.3333333333333</ele><time>2026-05-02T16:18:18Z</time></trkpt><trkpt lat="43.77828385657886" lon="11.589972693377419"><ele>1023.0</ele><time>2026-05-02T16:18:19Z</time></trkpt><trkpt lat="43.7783661423957" lon="11.589765344986372"><ele>1023.0</ele><time>2026-05-02T16:18:20Z</time></trkpt><trkpt lat="43.77846826026641" lon="11.589593999635374"><ele>1023.0</ele><time>2026-05-02T16:18:21Z</time></trkpt><trkpt lat="43.778620798211705" lon="11.589479285329304"><ele>1023.0</ele><time>2026-05-02T16:18:22Z</time></trkpt><trkpt lat="43.778746391841594" lon="11.589287941769111"><ele>1018.6666666666667</ele><time>2026-05-02T16:18:23Z</time></trkpt><trkpt lat="43.778864618233165" lon="11.58908656608249"><ele>1014.3333333333334</ele><time>2026-05-02T16:18:24Z</time></trkpt><trkpt lat="43.778917093663416" lon="11.58885317753649"><ele>1010.0</ele><time>2026-05-02T16:18:25Z</time></trkpt><trkpt lat="43.77896290180742" lon="11.588626223076513"><ele>1010.0</ele><time>2026-05-02T16:18:26Z</time></trkpt><trkpt lat="43.778987610367516" lon="11.588376310423918"><ele>1010.0</ele><time>2026-05-02T16:18:27Z</time></trkpt><trkpt lat="43.778978971711204" lon="11.5880952013667"><ele>1010.0</ele><time>2026-05-02T16:18:28Z</time></trkpt><trkpt lat="43.77895202945955" lon="11.58779443488048"><ele>1011.3333333333334</ele><time>2026-05-02T16:18:29Z</time></trkpt><trkpt lat="43.77894778180732" lon="11.587519929722763"><ele>1012.6666666666667</ele><time>2026-05-02T16:18:30Z</time></trkpt><trkpt lat="43.778991532840706" lon="11.587270098150157"><ele>1014.0</ele><time>2026-05-02T16:18:31Z</time></trkpt><trkpt lat="43.77902303769418" lon="11.587039465102349"><ele>1015.0</ele><time>2026-05-02T16:18:32Z</time></trkpt><trkpt lat="43.779110084257546" lon="11.58683780875915"><ele>1016.0</ele><time>2026-05-02T16:18:33Z</time></trkpt><trkpt lat="43.77922930435473" lon="11.586655131341999"><ele>1017.0</ele><time>2026-05-02T16:18:34Z</time></trkpt><trkpt lat="43.779359718302565" lon="11.586493576693279"><ele>1017.0</ele><time>2026-05-02T16:18:35Z</time></trkpt><trkpt lat="43.77947992386012" lon="11.58634918446638"><ele>1017.0</ele><time>2026-05-02T16:18:36Z</time></trkpt><trkpt lat="43.77957637102362" lon="11.586223761867902"><ele>1017.0</ele><time>2026-05-02T16:18:37.001Z</time></trkpt><trkpt lat="43.77962833844138" lon="11.586066328136745"><ele>1017.0</ele><time>2026-05-02T16:18:38.001Z</time></trkpt><trkpt lat="43.77963554778984" lon="11.585888090300928"><ele>1017.25</ele><time>2026-05-02T16:18:39.001Z</time></trkpt><trkpt lat="43.77962167365745" lon="11.585728031789113"><ele>1017.5</ele><time>2026-05-02T16:18:40.001Z</time></trkpt><trkpt lat="43.779644976189225" lon="11.58559595625776"><ele>1017.75</ele><time>2026-05-02T16:18:41.001Z</time></trkpt><trkpt lat="43.77973453161722" lon="11.58551105541676"><ele>1018.0</ele><time>2026-05-02T16:18:42.001Z</time></trkpt><trkpt lat="43.77985845414692" lon="11.58545382164488"><ele>1018.0</ele><time>2026-05-02T16:18:43.001Z</time></trkpt><trkpt lat="43.78001330960788" lon="11.585347334538762"><ele>1018.0</ele><time>2026-05-02T16:18:44.001Z</time></trkpt><trkpt lat="43.780170018714905" lon="11.585225702288987"><ele>1018.0</ele><time>2026-05-02T16:18:45.001Z</time></trkpt><trkpt lat="43.780291526077974" lon="11.585038058373371"><ele>1014.6666666666666</ele><time>2026-05-02T16:18:46.001Z</time></trkpt><trkpt lat="43.78040225847986" lon="11.584843375244962"><ele>1011.3333333333333</ele><time>2026-05-02T16:18:47.001Z</time></trkpt><trkpt lat="43.780520640388936" lon="11.584660973462155"><ele>1008.0</ele><time>2026-05-02T16:18:48.001Z</time></trkpt><trkpt lat="43.78063477807685" lon="11.584522462797588"><ele>1004.75</ele><time>2026-05-02T16:18:49.001Z</time></trkpt><trkpt lat="43.780751147932634" lon="11.584404220842107"><ele>1001.5</ele><time>2026-05-02T16:18:50.001Z</time></trkpt><trkpt lat="43.78083421444414" lon="11.584258015815418"><ele>998.25</ele><time>2026-05-02T16:18:51.001Z</time></trkpt><trkpt lat="43.78087554139939" lon="11.584086383280981"><ele>995.0</ele><time>2026-05-02T16:18:52.001Z</time></trkpt><trkpt lat="43.78087797702888" lon="11.58390433129222"><ele>995.0</ele><time>2026-05-02T16:18:53.001Z</time></trkpt><trkpt lat="43.78086781176955" lon="11.583749370531438"><ele>995.0</ele><time>2026-05-02T16:18:54.001Z</time></trkpt><trkpt lat="43.78090466825287" lon="11.5836335779197"><ele>995.0</ele><time>2026-05-02T16:18:55.001Z</time></trkpt><trkpt lat="43.78097614921551" lon="11.583541295034948"><ele>995.0</ele><time>2026-05-02T16:18:56.001Z</time></trkpt><trkpt lat="43.78107977287002" lon="11.583535443495263"><ele>995.0</ele><time>2026-05-02T16:18:57.001Z</time></trkpt><trkpt lat="43.7811666253615" lon="11.58351025696596"><ele>996.0</ele><time>2026-05-02T16:18:58.001Z</time></trkpt><trkpt lat="43.781245603967534" lon="11.583477041654403"><ele>997.0</ele><time>2026-05-02T16:18:59.001Z</time></trkpt><trkpt lat="43.7812985065502" lon="11.58337286268727"><ele>998.0</ele><time>2026-05-02T16:19:00.001Z</time></trkpt><trkpt lat="43.78131467497281" lon="11.58320994065641"><ele>999.0</ele><time>2026-05-02T16:19:01.001Z</time></trkpt><trkpt lat="43.7813069822357" lon="11.583003435220293"><ele>1000.0</ele><time>2026-05-02T16:19:02.001Z</time></trkpt><trkpt lat="43.78133582058486" lon="11.582774657566297"><ele>997.25</ele><time>2026-05-02T16:19:03Z</time></trkpt><trkpt lat="43.78133442107399" lon="11.582558309330802"><ele>994.5</ele><time>2026-05-02T16:19:04Z</time></trkpt><trkpt lat="43.78135867617298" lon="11.582369830573125"><ele>991.75</ele><time>2026-05-02T16:19:05Z</time></trkpt><trkpt lat="43.781374522572904" lon="11.582207574379645"><ele>989.0</ele><time>2026-05-02T16:19:06Z</time></trkpt><trkpt lat="43.78142326867057" lon="11.582059246792417"><ele>986.5</ele><time>2026-05-02T16:19:07Z</time></trkpt><trkpt lat="43.78151981319901" lon="11.581956616395825"><ele>984.0</ele><time>2026-05-02T16:19:08Z</time></trkpt><trkpt lat="43.78166996781568" lon="11.581935185283346"><ele>981.5</ele><time>2026-05-02T16:19:09Z</time></trkpt><trkpt lat="43.78183610572915" lon="11.58187902979978"><ele>979.0</ele><time>2026-05-02T16:19:10Z</time></trkpt><trkpt lat="43.782001618343706" lon="11.58179063911221"><ele>979.0</ele><time>2026-05-02T16:19:11Z</time></trkpt><trkpt lat="43.78217007205252" lon="11.581670697868473"><ele>979.0</ele><time>2026-05-02T16:19:12Z</time></trkpt><trkpt lat="43.782320496713716" lon="11.581545781810874"><ele>979.0</ele><time>2026-05-02T16:19:13Z</time></trkpt><trkpt lat="43.78245594003816" lon="11.581368201952715"><ele>977.3333333333333</ele><time>2026-05-02T16:19:14Z</time></trkpt><trkpt lat="43.782579075720435" lon="11.581143076039707"><ele>975.6666666666667</ele><time>2026-05-02T16:19:15Z</time></trkpt><trkpt lat="43.782676702062034" lon="11.580945411805597"><ele>974.0</ele><time>2026-05-02T16:19:16Z</time></trkpt><trkpt lat="43.78277335604763" lon="11.58073471297771"><ele>974.0</ele><time>2026-05-02T16:19:17Z</time></trkpt><trkpt lat="43.78286745286926" lon="11.58051403286873"><ele>974.0</ele><time>2026-05-02T16:19:18Z</time></trkpt><trkpt lat="43.78291286900259" lon="11.58031145947568"><ele>974.0</ele><time>2026-05-02T16:19:19Z</time></trkpt><trkpt lat="43.78297543097902" lon="11.580119124794198"><ele>969.0</ele><time>2026-05-02T16:19:20Z</time></trkpt><trkpt lat="43.783096021773666" lon="11.579959673918747"><ele>964.0</ele><time>2026-05-02T16:19:21Z</time></trkpt><trkpt lat="43.783263194684665" lon="11.579846864196508"><ele>959.0</ele><time>2026-05-02T16:19:22Z</time></trkpt><trkpt lat="43.78342850980704" lon="11.579737338683517"><ele>956.75</ele><time>2026-05-02T16:19:23Z</time></trkpt><trkpt lat="43.78360131992269" lon="11.579655845040215"><ele>954.5</ele><time>2026-05-02T16:19:24Z</time></trkpt><trkpt lat="43.78372083333102" lon="11.579588450262367"><ele>952.25</ele><time>2026-05-02T16:19:25Z</time></trkpt><trkpt lat="43.7838304205401" lon="11.579506244045453"><ele>950.0</ele><time>2026-05-02T16:19:26Z</time></trkpt><trkpt lat="43.7839068474879" lon="11.579377531718643"><ele>950.0</ele><time>2026-05-02T16:19:27Z</time></trkpt><trkpt lat="43.78393975342974" lon="11.579202337636865"><ele>950.0</ele><time>2026-05-02T16:19:28Z</time></trkpt><trkpt lat="43.78397341485376" lon="11.579016520343695"><ele>950.0</ele><time>2026-05-02T16:19:29Z</time></trkpt><trkpt lat="43.78407482487512" lon="11.578824113768366"><ele>950.0</ele><time>2026-05-02T16:19:30Z</time></trkpt><trkpt lat="43.78422658306529" lon="11.578679043147527"><ele>947.0</ele><time>2026-05-02T16:19:31Z</time></trkpt><trkpt lat="43.78438810331556" lon="11.578583296148256"><ele>944.0</ele><time>2026-05-02T16:19:32Z</time></trkpt><trkpt lat="43.784555398630445" lon="11.57853904982974"><ele>941.0</ele><time>2026-05-02T16:19:33Z</time></trkpt><trkpt lat="43.784735646633706" lon="11.578460134906505"><ele>941.0</ele><time>2026-05-02T16:19:34Z</time></trkpt><trkpt lat="43.784893623705926" lon="11.578378295849703"><ele>941.0</ele><time>2026-05-02T16:19:35Z</time></trkpt><trkpt lat="43.785006377627795" lon="11.578235374855497"><ele>941.0</ele><time>2026-05-02T16:19:36Z</time></trkpt><trkpt lat="43.78505574042438" lon="11.578014903938762"><ele>939.0</ele><time>2026-05-02T16:19:37Z</time></trkpt><trkpt lat="43.78509881175914" lon="11.577775399458343"><ele>937.0</ele><time>2026-05-02T16:19:38Z</time></trkpt><trkpt lat="43.78516861202733" lon="11.577463560305004"><ele>935.0</ele><time>2026-05-02T16:19:39Z</time></trkpt><trkpt lat="43.78525100581326" lon="11.57715001738123"><ele>932.0</ele><time>2026-05-02T16:19:40Z</time></trkpt><trkpt lat="43.78531463065261" lon="11.57693004315901"><ele>929.0</ele><time>2026-05-02T16:19:41Z</time></trkpt><trkpt lat="43.78536479225439" lon="11.576690593242327"><ele>926.0</ele><time>2026-05-02T16:19:42Z</time></trkpt><trkpt lat="43.78541712590969" lon="11.576446120819737"><ele>926.0</ele><time>2026-05-02T16:19:43Z</time></trkpt><trkpt lat="43.785440371502425" lon="11.576210072411174"><ele>926.0</ele><time>2026-05-02T16:19:44Z</time></trkpt><trkpt lat="43.78544813046343" lon="11.57601639504301"><ele>926.0</ele><time>2026-05-02T16:19:45Z</time></trkpt><trkpt lat="43.7854713078896" lon="11.57582816271241"><ele>924.0</ele><time>2026-05-02T16:19:46Z</time></trkpt><trkpt lat="43.785518833687384" lon="11.575642974581829"><ele>922.0</ele><time>2026-05-02T16:19:47Z</time></trkpt><trkpt lat="43.78558763952052" lon="11.57546803497467"><ele>920.0</ele><time>2026-05-02T16:19:48Z</time></trkpt><trkpt lat="43.78566251447357" lon="11.575299909929667"><ele>918.0</ele><time>2026-05-02T16:19:49Z</time></trkpt><trkpt lat="43.78574512029809" lon="11.575145752253425"><ele>916.0</ele><time>2026-05-02T16:19:50Z</time></trkpt><trkpt lat="43.78584288760641" lon="11.57500106469701"><ele>914.0</ele><time>2026-05-02T16:19:51Z</time></trkpt><trkpt lat="43.7859692914877" lon="11.574895760522187"><ele>912.0</ele><time>2026-05-02T16:19:52Z</time></trkpt><trkpt lat="43.786096328859784" lon="11.574769422925115"><ele>910.0</ele><time>2026-05-02T16:19:53Z</time></trkpt><trkpt lat="43.78621101048141" lon="11.574630734303918"><ele>907.0</ele><time>2026-05-02T16:19:54Z</time></trkpt><trkpt lat="43.786313852797946" lon="11.574474723745778"><ele>904.0</ele><time>2026-05-02T16:19:55Z</time></trkpt><trkpt lat="43.78640083128292" lon="11.574291598471325"><ele>901.0</ele><time>2026-05-02T16:19:56Z</time></trkpt><trkpt lat="43.78647608267395" lon="11.57410331696904"><ele>901.0</ele><time>2026-05-02T16:19:57Z</time></trkpt><trkpt lat="43.786549428543594" lon="11.573929282059316"><ele>901.0</ele><time>2026-05-02T16:19:58Z</time></trkpt><trkpt lat="43.7866213830224" lon="11.573774525529958"><ele>901.0</ele><time>2026-05-02T16:19:59Z</time></trkpt><trkpt lat="43.78669670163693" lon="11.573620878258902"><ele>901.0</ele><time>2026-05-02T16:20:00Z</time></trkpt><trkpt lat="43.78678303372056" lon="11.57348203423156"><ele>899.5</ele><time>2026-05-02T16:20:01Z</time></trkpt><trkpt lat="43.786876470107096" lon="11.573365075481055"><ele>898.0</ele><time>2026-05-02T16:20:02Z</time></trkpt><trkpt lat="43.786964743797" lon="11.573256020792098"><ele>896.5</ele><time>2026-05-02T16:20:03Z</time></trkpt><trkpt lat="43.787043290255255" lon="11.57314902455762"><ele>895.0</ele><time>2026-05-02T16:20:04Z</time></trkpt><trkpt lat="43.78711731649186" lon="11.57304561632324"><ele>895.0</ele><time>2026-05-02T16:20:05Z</time></trkpt><trkpt lat="43.787174140825684" lon="11.572912512743716"><ele>895.0</ele><time>2026-05-02T16:20:06Z</time></trkpt><trkpt lat="43.7872074383445" lon="11.572733475238953"><ele>895.0</ele><time>2026-05-02T16:20:07Z</time></trkpt><trkpt lat="43.78722792064083" lon="11.572498243688447"><ele>895.0</ele><time>2026-05-02T16:20:08Z</time></trkpt><trkpt lat="43.787255651780285" lon="11.572245056092553"><ele>891.0</ele><time>2026-05-02T16:20:09Z</time></trkpt><trkpt lat="43.787295639639744" lon="11.572022517509737"><ele>887.0</ele><time>2026-05-02T16:20:10Z</time></trkpt><trkpt lat="43.787327612748534" lon="11.571806207423748"><ele>883.0</ele><time>2026-05-02T16:20:11Z</time></trkpt><trkpt lat="43.78736103223409" lon="11.571595321809406"><ele>883.0</ele><time>2026-05-02T16:20:12Z</time></trkpt><trkpt lat="43.787402759457585" lon="11.57139247240497"><ele>883.0</ele><time>2026-05-02T16:20:13Z</time></trkpt><trkpt lat="43.78744852746094" lon="11.57120273622291"><ele>883.0</ele><time>2026-05-02T16:20:14Z</time></trkpt><trkpt lat="43.787507565848635" lon="11.571022623717251"><ele>883.0</ele><time>2026-05-02T16:20:15Z</time></trkpt><trkpt lat="43.78756919585225" lon="11.570834579941256"><ele>884.6666666666666</ele><time>2026-05-02T16:20:16Z</time></trkpt><trkpt lat="43.78764907161875" lon="11.570648386967928"><ele>886.3333333333333</ele><time>2026-05-02T16:20:17Z</time></trkpt><trkpt lat="43.787750998176776" lon="11.570489093435636"><ele>888.0</ele><time>2026-05-02T16:20:18Z</time></trkpt><trkpt lat="43.787866543404384" lon="11.57033085725398"><ele>888.0</ele><time>2026-05-02T16:20:19Z</time></trkpt><trkpt lat="43.78798581762757" lon="11.570169316055505"><ele>888.0</ele><time>2026-05-02T16:20:20Z</time></trkpt><trkpt lat="43.78805950550414" lon="11.569990909285691"><ele>888.0</ele><time>2026-05-02T16:20:21Z</time></trkpt><trkpt lat="43.78809679798745" lon="11.569732513760263"><ele>884.3333333333333</ele><time>2026-05-02T16:20:22Z</time></trkpt><trkpt lat="43.78813201043074" lon="11.569459325764472"><ele>880.6666666666666</ele><time>2026-05-02T16:20:23Z</time></trkpt><trkpt lat="43.78816176855738" lon="11.569202819480335"><ele>877.0</ele><time>2026-05-02T16:20:24Z</time></trkpt><trkpt lat="43.788191678720445" lon="11.568965384824617"><ele>877.0</ele><time>2026-05-02T16:20:25Z</time></trkpt><trkpt lat="43.78822208360873" lon="11.568737207219128"><ele>877.0</ele><time>2026-05-02T16:20:26Z</time></trkpt><trkpt lat="43.78823943427278" lon="11.56851433811146"><ele>877.0</ele><time>2026-05-02T16:20:27Z</time></trkpt><trkpt lat="43.78823780342716" lon="11.568298271086826"><ele>874.5</ele><time>2026-05-02T16:20:28Z</time></trkpt><trkpt lat="43.78823014836488" lon="11.568098609284576"><ele>872.0</ele><time>2026-05-02T16:20:29Z</time></trkpt><trkpt lat="43.788244475581095" lon="11.567921173788354"><ele>869.5</ele><time>2026-05-02T16:20:30Z</time></trkpt><trkpt lat="43.788312724908636" lon="11.567761908340739"><ele>867.0</ele><time>2026-05-02T16:20:31Z</time></trkpt><trkpt lat="43.78841972431524" lon="11.567611371106919"><ele>871.0</ele><time>2026-05-02T16:20:32Z</time></trkpt><trkpt lat="43.78853809002621" lon="11.567422314839176"><ele>875.0</ele><time>2026-05-02T16:20:33Z</time></trkpt><trkpt lat="43.78867762617796" lon="11.567251245326446"><ele>879.0</ele><time>2026-05-02T16:20:34Z</time></trkpt><trkpt lat="43.788799345260436" lon="11.567040589351258"><ele>873.0</ele><time>2026-05-02T16:20:35Z</time></trkpt><trkpt lat="43.78889819098297" lon="11.566798747222746"><ele>867.0</ele><time>2026-05-02T16:20:36Z</time></trkpt><trkpt lat="43.78896528795386" lon="11.566546924837"><ele>861.0</ele><time>2026-05-02T16:20:37Z</time></trkpt><trkpt lat="43.78905131552949" lon="11.566326306085275"><ele>862.0</ele><time>2026-05-02T16:20:38Z</time></trkpt><trkpt lat="43.789163200999674" lon="11.566130951230969"><ele>863.0</ele><time>2026-05-02T16:20:39Z</time></trkpt><trkpt lat="43.78929930983647" lon="11.565947493155273"><ele>864.0</ele><time>2026-05-02T16:20:40Z</time></trkpt><trkpt lat="43.78944938611124" lon="11.565748272673986"><ele>864.0</ele><time>2026-05-02T16:20:41Z</time></trkpt><trkpt lat="43.78960946303875" lon="11.565567740753817"><ele>864.0</ele><time>2026-05-02T16:20:42Z</time></trkpt><trkpt lat="43.78975499892368" lon="11.565391575335106"><ele>864.0</ele><time>2026-05-02T16:20:43.001Z</time></trkpt><trkpt lat="43.78986284617771" lon="11.565211456700005"><ele>857.3333333333333</ele><time>2026-05-02T16:20:44.001Z</time></trkpt><trkpt lat="43.78992769979513" lon="11.564981593910405"><ele>850.6666666666666</ele><time>2026-05-02T16:20:45.001Z</time></trkpt><trkpt lat="43.78997500031024" lon="11.564687879017274"><ele>844.0</ele><time>2026-05-02T16:20:46.001Z</time></trkpt><trkpt lat="43.79002692660113" lon="11.564362564407293"><ele>844.6666666666666</ele><time>2026-05-02T16:20:47.001Z</time></trkpt><trkpt lat="43.79008090892099" lon="11.564051855022296"><ele>845.3333333333333</ele><time>2026-05-02T16:20:48.001Z</time></trkpt><trkpt lat="43.79013941075229" lon="11.56376657661045"><ele>846.0</ele><time>2026-05-02T16:20:49.001Z</time></trkpt><trkpt lat="43.79017543272132" lon="11.563483009430035"><ele>846.0</ele><time>2026-05-02T16:20:50.001Z</time></trkpt><trkpt lat="43.79018584261188" lon="11.563206204034042"><ele>846.0</ele><time>2026-05-02T16:20:51.001Z</time></trkpt><trkpt lat="43.790172725556964" lon="11.562941591363616"><ele>846.0</ele><time>2026-05-02T16:20:52.001Z</time></trkpt><trkpt lat="43.79014399147387" lon="11.56268960603154"><ele>842.0</ele><time>2026-05-02T16:20:53.001Z</time></trkpt><trkpt lat="43.79011150337454" lon="11.562445077542641"><ele>838.0</ele><time>2026-05-02T16:20:54.001Z</time></trkpt><trkpt lat="43.79007575888252" lon="11.562217817747875"><ele>834.0</ele><time>2026-05-02T16:20:55.001Z</time></trkpt><trkpt lat="43.790043107302786" lon="11.56200879987295"><ele>834.0</ele><time>2026-05-02T16:20:56.001Z</time></trkpt><trkpt lat="43.790035800007836" lon="11.561817260710262"><ele>834.0</ele><time>2026-05-02T16:20:57.001Z</time></trkpt><trkpt lat="43.790043397989756" lon="11.561644216902312"><ele>834.0</ele><time>2026-05-02T16:20:58.001Z</time></trkpt><trkpt lat="43.79006232290778" lon="11.561464491285022"><ele>834.0</ele><time>2026-05-02T16:20:59.001Z</time></trkpt><trkpt lat="43.790096102428016" lon="11.56126509315774"><ele>833.6666666666667</ele><time>2026-05-02T16:21:00.001Z</time></trkpt><trkpt lat="43.7901553034016" lon="11.56106289016098"><ele>833.3333333333334</ele><time>2026-05-02T16:21:01Z</time></trkpt><trkpt lat="43.79023304673791" lon="11.560859430945104"><ele>833.0</ele><time>2026-05-02T16:21:02Z</time></trkpt><trkpt lat="43.79031328735449" lon="11.56064025840153"><ele>834.6666666666667</ele><time>2026-05-02T16:21:03Z</time></trkpt><trkpt lat="43.79040303803551" lon="11.560402295907355"><ele>836.3333333333333</ele><time>2026-05-02T16:21:04Z</time></trkpt><trkpt lat="43.79046410542337" lon="11.560131319760604"><ele>838.0</ele><time>2026-05-02T16:21:05Z</time></trkpt><trkpt lat="43.790507767543225" lon="11.559837738226246"><ele>838.0</ele><time>2026-05-02T16:21:06Z</time></trkpt><trkpt lat="43.79053975272373" lon="11.559555170080044"><ele>838.0</ele><time>2026-05-02T16:21:07Z</time></trkpt><trkpt lat="43.7906063024755" lon="11.559304606864357"><ele>838.0</ele><time>2026-05-02T16:21:08Z</time></trkpt><trkpt lat="43.79068280125566" lon="11.559071140435027"><ele>836.3333333333333</ele><time>2026-05-02T16:21:09Z</time></trkpt><trkpt lat="43.79078040435128" lon="11.558875394522886"><ele>834.6666666666667</ele><time>2026-05-02T16:21:10Z</time></trkpt><trkpt lat="43.79090900659564" lon="11.558683745202789"><ele>833.0</ele><time>2026-05-02T16:21:11Z</time></trkpt><trkpt lat="43.79104787426812" lon="11.558485718247498"><ele>830.0</ele><time>2026-05-02T16:21:12Z</time></trkpt><trkpt lat="43.79122583667628" lon="11.55835991377995"><ele>827.0</ele><time>2026-05-02T16:21:13Z</time></trkpt><trkpt lat="43.79139332324089" lon="11.558221907005988"><ele>824.0</ele><time>2026-05-02T16:21:14Z</time></trkpt><trkpt lat="43.791553818610396" lon="11.558108427949714"><ele>824.0</ele><time>2026-05-02T16:21:15Z</time></trkpt><trkpt lat="43.79167353951319" lon="11.557985605131346"><ele>824.0</ele><time>2026-05-02T16:21:16Z</time></trkpt><trkpt lat="43.791751756195076" lon="11.557860818600151"><ele>824.0</ele><time>2026-05-02T16:21:17Z</time></trkpt><trkpt lat="43.791794153024625" lon="11.557707370592071"><ele>824.0</ele><time>2026-05-02T16:21:18Z</time></trkpt><trkpt lat="43.79177845119504" lon="11.557527345096414"><ele>826.25</ele><time>2026-05-02T16:21:19Z</time></trkpt><trkpt lat="43.791732057646335" lon="11.557352670059798"><ele>828.5</ele><time>2026-05-02T16:21:20Z</time></trkpt><trkpt lat="43.79172538865783" lon="11.557193787327796"><ele>830.75</ele><time>2026-05-02T16:21:21Z</time></trkpt><trkpt lat="43.791777932331456" lon="11.557065563483269"><ele>833.0</ele><time>2026-05-02T16:21:22Z</time></trkpt><trkpt lat="43.79188599709684" lon="11.556988919652458"><ele>825.5</ele><time>2026-05-02T16:21:23Z</time></trkpt><trkpt lat="43.79201567080011" lon="11.556894993783635"><ele>818.0</ele><time>2026-05-02T16:21:24Z</time></trkpt><trkpt lat="43.79212929903647" lon="11.556821133706316"><ele>810.5</ele><time>2026-05-02T16:21:25Z</time></trkpt><trkpt lat="43.79219991130158" lon="11.556713835577364"><ele>803.0</ele><time>2026-05-02T16:21:26Z</time></trkpt><trkpt lat="43.792236021500116" lon="11.55657709642964"><ele>803.0</ele><time>2026-05-02T16:21:27Z</time></trkpt><trkpt lat="43.792227697826114" lon="11.556431224072178"><ele>803.0</ele><time>2026-05-02T16:21:28Z</time></trkpt><trkpt lat="43.79219624114241" lon="11.55628735287851"><ele>803.0</ele><time>2026-05-02T16:21:29Z</time></trkpt><trkpt lat="43.792138714126004" lon="11.556150307876717"><ele>803.0</ele><time>2026-05-02T16:21:30Z</time></trkpt><trkpt lat="43.79205484841316" lon="11.556028912011547"><ele>802.25</ele><time>2026-05-02T16:21:31Z</time></trkpt><trkpt lat="43.79195163015049" lon="11.555915566289638"><ele>801.5</ele><time>2026-05-02T16:21:32Z</time></trkpt><trkpt lat="43.79184587103136" lon="11.555808894841116"><ele>800.75</ele><time>2026-05-02T16:21:33Z</time></trkpt><trkpt lat="43.7917610964278" lon="11.555673981468658"><ele>800.0</ele><time>2026-05-02T16:21:34Z</time></trkpt><trkpt lat="43.79170077406709" lon="11.555531179396995"><ele>805.5</ele><time>2026-05-02T16:21:35Z</time></trkpt><trkpt lat="43.79167600611224" lon="11.555375901462273"><ele>811.0</ele><time>2026-05-02T16:21:36Z</time></trkpt><trkpt lat="43.79170080692106" lon="11.55519659136406"><ele>816.5</ele><time>2026-05-02T16:21:37Z</time></trkpt><trkpt lat="43.791734284979825" lon="11.555059067388557"><ele>822.0</ele><time>2026-05-02T16:21:38Z</time></trkpt><trkpt lat="43.791817324203556" lon="11.554924048716984"><ele>817.5</ele><time>2026-05-02T16:21:39Z</time></trkpt><trkpt lat="43.79191801758161" lon="11.554810226371735"><ele>813.0</ele><time>2026-05-02T16:21:40Z</time></trkpt><trkpt lat="43.7920213540095" lon="11.554726578984436"><ele>808.5</ele><time>2026-05-02T16:21:41Z</time></trkpt><trkpt lat="43.79211664291779" lon="11.554653987291122"><ele>804.0</ele><time>2026-05-02T16:21:42Z</time></trkpt><trkpt lat="43.79220041577143" lon="11.554562007760286"><ele>805.25</ele><time>2026-05-02T16:21:43Z</time></trkpt><trkpt lat="43.79227477840425" lon="11.554446576845717"><ele>806.5</ele><time>2026-05-02T16:21:44Z</time></trkpt><trkpt lat="43.79234828697159" lon="11.55431099422227"><ele>807.75</ele><time>2026-05-02T16:21:45Z</time></trkpt><trkpt lat="43.79242281411588" lon="11.55417756937628"><ele>809.0</ele><time>2026-05-02T16:21:46Z</time></trkpt><trkpt lat="43.79249502960507" lon="11.554052138873725"><ele>809.0</ele><time>2026-05-02T16:21:47Z</time></trkpt><trkpt lat="43.79256096220358" lon="11.553927999772702"><ele>809.0</ele><time>2026-05-02T16:21:48Z</time></trkpt><trkpt lat="43.79262414990589" lon="11.553804404745204"><ele>809.0</ele><time>2026-05-02T16:21:49Z</time></trkpt><trkpt lat="43.79269103801707" lon="11.55368430415766"><ele>809.0</ele><time>2026-05-02T16:21:50Z</time></trkpt><trkpt lat="43.79276047013212" lon="11.553565163290127"><ele>809.0</ele><time>2026-05-02T16:21:51Z</time></trkpt><trkpt lat="43.79284136267743" lon="11.553441165922536"><ele>807.6</ele><time>2026-05-02T16:21:52Z</time></trkpt><trkpt lat="43.79292935851683" lon="11.553328314774348"><ele>806.2</ele><time>2026-05-02T16:21:53Z</time></trkpt><trkpt lat="43.793016688429184" lon="11.553230754298326"><ele>804.8000000000001</ele><time>2026-05-02T16:21:54Z</time></trkpt><trkpt lat="43.793092423096226" lon="11.553123545485608"><ele>803.4000000000001</ele><time>2026-05-02T16:21:55Z</time></trkpt><trkpt lat="43.79314833896683" lon="11.55299624043637"><ele>802.0</ele><time>2026-05-02T16:21:56Z</time></trkpt><trkpt lat="43.793180580569505" lon="11.552846763429136"><ele>801.5</ele><time>2026-05-02T16:21:57Z</time></trkpt><trkpt lat="43.793171368021234" lon="11.552684196820401"><ele>801.0</ele><time>2026-05-02T16:21:58Z</time></trkpt><trkpt lat="43.79314771523205" lon="11.552529078070153"><ele>800.5</ele><time>2026-05-02T16:21:59Z</time></trkpt><trkpt lat="43.79311730449708" lon="11.552364611305261"><ele>800.0</ele><time>2026-05-02T16:22:00Z</time></trkpt><trkpt lat="43.793098890989704" lon="11.552188130438555"><ele>797.75</ele><time>2026-05-02T16:22:01Z</time></trkpt><trkpt lat="43.793080826867815" lon="11.552016082085306"><ele>795.5</ele><time>2026-05-02T16:22:02Z</time></trkpt><trkpt lat="43.79306323468513" lon="11.551837417683084"><ele>793.25</ele><time>2026-05-02T16:22:03Z</time></trkpt><trkpt lat="43.79304892466893" lon="11.551657902716839"><ele>791.0</ele><time>2026-05-02T16:22:04Z</time></trkpt><trkpt lat="43.793031065725735" lon="11.551476308577104"><ele>791.0</ele><time>2026-05-02T16:22:05Z</time></trkpt><trkpt lat="43.79301219926489" lon="11.551296124533328"><ele>791.0</ele><time>2026-05-02T16:22:06Z</time></trkpt><trkpt lat="43.79299549623922" lon="11.551116467763832"><ele>791.0</ele><time>2026-05-02T16:22:07Z</time></trkpt><trkpt lat="43.79297791987032" lon="11.550946913952824"><ele>791.0</ele><time>2026-05-02T16:22:08Z</time></trkpt><trkpt lat="43.79296006306446" lon="11.550780011416414"><ele>790.0</ele><time>2026-05-02T16:22:09Z</time></trkpt><trkpt lat="43.7929457405829" lon="11.550615585704069"><ele>789.0</ele><time>2026-05-02T16:22:10Z</time></trkpt><trkpt lat="43.792936913638115" lon="11.550447495177826"><ele>788.0</ele><time>2026-05-02T16:22:11Z</time></trkpt><trkpt lat="43.79293838016386" lon="11.550264885307632"><ele>787.0</ele><time>2026-05-02T16:22:12Z</time></trkpt><trkpt lat="43.792947035472416" lon="11.55006317212298"><ele>784.6666666666666</ele><time>2026-05-02T16:22:13Z</time></trkpt><trkpt lat="43.792954891953364" lon="11.5498294161483"><ele>782.3333333333333</ele><time>2026-05-02T16:22:14Z</time></trkpt><trkpt lat="43.79296345690668" lon="11.549580840976207"><ele>780.0</ele><time>2026-05-02T16:22:15Z</time></trkpt><trkpt lat="43.792983732831686" lon="11.549314780453148"><ele>779.0</ele><time>2026-05-02T16:22:16Z</time></trkpt><trkpt lat="43.793003518930725" lon="11.549040809439257"><ele>778.0</ele><time>2026-05-02T16:22:17Z</time></trkpt><trkpt lat="43.79301505921312" lon="11.548773281031671"><ele>777.0</ele><time>2026-05-02T16:22:18Z</time></trkpt><trkpt lat="43.79302099613527" lon="11.548520509802257"><ele>777.0</ele><time>2026-05-02T16:22:19Z</time></trkpt><trkpt lat="43.79303912636569" lon="11.548281851168765"><ele>777.0</ele><time>2026-05-02T16:22:20Z</time></trkpt><trkpt lat="43.793069595189074" lon="11.548050317295187"><ele>777.0</ele><time>2026-05-02T16:22:21Z</time></trkpt><trkpt lat="43.793124962209184" lon="11.547849749743673"><ele>781.3333333333333</ele><time>2026-05-02T16:22:22Z</time></trkpt><trkpt lat="43.793213038650585" lon="11.54768018586492"><ele>785.6666666666666</ele><time>2026-05-02T16:22:23Z</time></trkpt><trkpt lat="43.79333385201784" lon="11.547555889521151"><ele>790.0</ele><time>2026-05-02T16:22:24Z</time></trkpt><trkpt lat="43.79348478234456" lon="11.54747740853683"><ele>786.6666666666666</ele><time>2026-05-02T16:22:25Z</time></trkpt><trkpt lat="43.793667137584535" lon="11.547432329974415"><ele>783.3333333333333</ele><time>2026-05-02T16:22:26Z</time></trkpt><trkpt lat="43.79387280644282" lon="11.547420919545257"><ele>780.0</ele><time>2026-05-02T16:22:27Z</time></trkpt><trkpt lat="43.79408996873331" lon="11.547445648963484"><ele>780.0</ele><time>2026-05-02T16:22:28Z</time></trkpt><trkpt lat="43.794273039831715" lon="11.547440338428368"><ele>780.0</ele><time>2026-05-02T16:22:29Z</time></trkpt><trkpt lat="43.79443025382549" lon="11.547426652937022"><ele>780.0</ele><time>2026-05-02T16:22:29.999Z</time></trkpt><trkpt lat="43.794567382624706" lon="11.54737759938708"><ele>777.0</ele><time>2026-05-02T16:22:30.999Z</time></trkpt><trkpt lat="43.794672720507734" lon="11.547265609418789"><ele>774.0</ele><time>2026-05-02T16:22:31.999Z</time></trkpt><trkpt lat="43.79474670858223" lon="11.54710845644013"><ele>771.0</ele><time>2026-05-02T16:22:32.999Z</time></trkpt><trkpt lat="43.79476869874932" lon="11.546914723536988"><ele>768.0</ele><time>2026-05-02T16:22:33.999Z</time></trkpt><trkpt lat="43.79473694893312" lon="11.546686463465468"><ele>768.0</ele><time>2026-05-02T16:22:34.999Z</time></trkpt><trkpt lat="43.79469742462438" lon="11.546430165068367"><ele>768.0</ele><time>2026-05-02T16:22:35.999Z</time></trkpt><trkpt lat="43.7947139247732" lon="11.546134019043853"><ele>768.0</ele><time>2026-05-02T16:22:36.999Z</time></trkpt><trkpt lat="43.79475213550339" lon="11.545862900360436"><ele>767.3333333333334</ele><time>2026-05-02T16:22:37.999Z</time></trkpt><trkpt lat="43.794817067711996" lon="11.545584731481062"><ele>766.6666666666667</ele><time>2026-05-02T16:22:38.999Z</time></trkpt><trkpt lat="43.79488962726688" lon="11.545331703124601"><ele>766.0</ele><time>2026-05-02T16:22:39.999Z</time></trkpt><trkpt lat="43.79496342257589" lon="11.545109923461675"><ele>767.3333333333334</ele><time>2026-05-02T16:22:40.999Z</time></trkpt><trkpt lat="43.79502076273643" lon="11.544911477489729"><ele>768.6666666666667</ele><time>2026-05-02T16:22:41.999Z</time></trkpt><trkpt lat="43.79507114278479" lon="11.544697900438415"><ele>770.0</ele><time>2026-05-02T16:22:42.999Z</time></trkpt><trkpt lat="43.79511031917249" lon="11.544446012267976"><ele>770.6666666666667</ele><time>2026-05-02T16:22:43.999Z</time></trkpt><trkpt lat="43.79514708323206" lon="11.544170570774751"><ele>771.3333333333333</ele><time>2026-05-02T16:22:44.999Z</time></trkpt><trkpt lat="43.795192774622144" lon="11.543908815082036"><ele>772.0</ele><time>2026-05-02T16:22:45.999Z</time></trkpt><trkpt lat="43.79523472938012" lon="11.543683103162152"><ele>764.75</ele><time>2026-05-02T16:22:46.999Z</time></trkpt><trkpt lat="43.795265630820914" lon="11.543466637551647"><ele>757.5</ele><time>2026-05-02T16:22:47.999Z</time></trkpt><trkpt lat="43.79529635212484" lon="11.54327132709931"><ele>750.25</ele><time>2026-05-02T16:22:49Z</time></trkpt><trkpt lat="43.7953282780916" lon="11.543095152758303"><ele>743.0</ele><time>2026-05-02T16:22:50Z</time></trkpt><trkpt lat="43.79536014623991" lon="11.542927001724925"><ele>744.25</ele><time>2026-05-02T16:22:51Z</time></trkpt><trkpt lat="43.79538036201175" lon="11.542769888229387"><ele>745.5</ele><time>2026-05-02T16:22:52Z</time></trkpt><trkpt lat="43.79539630900961" lon="11.542618110049032"><ele>746.75</ele><time>2026-05-02T16:22:53Z</time></trkpt><trkpt lat="43.79540624845679" lon="11.542461832162955"><ele>748.0</ele><time>2026-05-02T16:22:54Z</time></trkpt><trkpt lat="43.795383906135896" lon="11.542299840038408"><ele>748.0</ele><time>2026-05-02T16:22:55Z</time></trkpt><trkpt lat="43.795376224617854" lon="11.542142243299791"><ele>748.0</ele><time>2026-05-02T16:22:56Z</time></trkpt><trkpt lat="43.79535745125157" lon="11.541985528690455"><ele>748.0</ele><time>2026-05-02T16:22:57Z</time></trkpt><trkpt lat="43.79533517339363" lon="11.541829725414098"><ele>748.0</ele><time>2026-05-02T16:22:58Z</time></trkpt><trkpt lat="43.79531441851951" lon="11.541669600760398"><ele>747.5</ele><time>2026-05-02T16:22:59Z</time></trkpt><trkpt lat="43.795294565140274" lon="11.54150241746578"><ele>747.0</ele><time>2026-05-02T16:23:00Z</time></trkpt><trkpt lat="43.795275674370224" lon="11.541334660679968"><ele>746.5</ele><time>2026-05-02T16:23:01Z</time></trkpt><trkpt lat="43.7952669352236" lon="11.541165078732618"><ele>746.0</ele><time>2026-05-02T16:23:02Z</time></trkpt><trkpt lat="43.795262753975486" lon="11.540998741580616"><ele>744.0</ele><time>2026-05-02T16:23:03Z</time></trkpt><trkpt lat="43.79529001404322" lon="11.540805084415215"><ele>742.0</ele><time>2026-05-02T16:23:04Z</time></trkpt><trkpt lat="43.79531067041201" lon="11.54058699198121"><ele>740.0</ele><time>2026-05-02T16:23:05Z</time></trkpt><trkpt lat="43.795320425447066" lon="11.540381510091347"><ele>738.0</ele><time>2026-05-02T16:23:06Z</time></trkpt><trkpt lat="43.79534780917008" lon="11.540180516745556"><ele>736.0</ele><time>2026-05-02T16:23:07Z</time></trkpt><trkpt lat="43.79535400632885" lon="11.539965209395415"><ele>734.0</ele><time>2026-05-02T16:23:08Z</time></trkpt><trkpt lat="43.795327166297746" lon="11.539762543113408"><ele>734.0</ele><time>2026-05-02T16:23:09Z</time></trkpt><trkpt lat="43.79527938006048" lon="11.539576984137422"><ele>734.0</ele><time>2026-05-02T16:23:10Z</time></trkpt><trkpt lat="43.795196081438334" lon="11.539419784412534"><ele>734.0</ele><time>2026-05-02T16:23:11Z</time></trkpt><trkpt lat="43.79508050299881" lon="11.539278946054896"><ele>734.0</ele><time>2026-05-02T16:23:12Z</time></trkpt><trkpt lat="43.79494025700377" lon="11.539167157694013"><ele>735.0</ele><time>2026-05-02T16:23:13Z</time></trkpt><trkpt lat="43.79480203160951" lon="11.539079487162866"><ele>736.0</ele><time>2026-05-02T16:23:14Z</time></trkpt><trkpt lat="43.79468047701638" lon="11.538992911117754"><ele>737.0</ele><time>2026-05-02T16:23:15Z</time></trkpt><trkpt lat="43.79456933076334" lon="11.538895755524008"><ele>738.0</ele><time>2026-05-02T16:23:16Z</time></trkpt><trkpt lat="43.79448183755457" lon="11.538769972683914"><ele>738.75</ele><time>2026-05-02T16:23:17Z</time></trkpt><trkpt lat="43.794434894141865" lon="11.538615902202897"><ele>739.5</ele><time>2026-05-02T16:23:18Z</time></trkpt><trkpt lat="43.794425966611634" lon="11.538450460907239"><ele>740.25</ele><time>2026-05-02T16:23:19Z</time></trkpt><trkpt lat="43.79445355701139" lon="11.538266411741803"><ele>741.0</ele><time>2026-05-02T16:23:20Z</time></trkpt><trkpt lat="43.79447760243123" lon="11.538053613438114"><ele>742.6666666666666</ele><time>2026-05-02T16:23:21Z</time></trkpt><trkpt lat="43.7944258016405" lon="11.537796730680007"><ele>744.3333333333333</ele><time>2026-05-02T16:23:22Z</time></trkpt><trkpt lat="43.79431606642967" lon="11.53754766833668"><ele>746.0</ele><time>2026-05-02T16:23:24Z</time></trkpt><trkpt lat="43.7941640885014" lon="11.537385807613077"><ele>747.0</ele><time>2026-05-02T16:23:25Z</time></trkpt><trkpt lat="43.7940080528639" lon="11.537199850999777"><ele>748.0</ele><time>2026-05-02T16:23:26Z</time></trkpt><trkpt lat="43.79389056910231" lon="11.537021191377264"><ele>749.0</ele><time>2026-05-02T16:23:27Z</time></trkpt><trkpt lat="43.79378290978752" lon="11.536785951315665"><ele>749.0</ele><time>2026-05-02T16:23:28Z</time></trkpt><trkpt lat="43.79368515290225" lon="11.536508130670002"><ele>749.0</ele><time>2026-05-02T16:23:29Z</time></trkpt><trkpt lat="43.79358798955363" lon="11.536219892025292"><ele>743.0</ele><time>2026-05-02T16:23:30Z</time></trkpt><trkpt lat="43.79349900988688" lon="11.535939772164785"><ele>737.0</ele><time>2026-05-02T16:23:31Z</time></trkpt><trkpt lat="43.793420489514396" lon="11.535688660184114"><ele>731.0</ele><time>2026-05-02T16:23:32Z</time></trkpt><trkpt lat="43.793341018114305" lon="11.53546933031392"><ele>733.0</ele><time>2026-05-02T16:23:33Z</time></trkpt><trkpt lat="43.79325927409644" lon="11.535238931165468"><ele>735.0</ele><time>2026-05-02T16:23:34Z</time></trkpt><trkpt lat="43.79320329864637" lon="11.534980751826163"><ele>737.0</ele><time>2026-05-02T16:23:35Z</time></trkpt><trkpt lat="43.79313921778359" lon="11.53470509722979"><ele>739.6666666666666</ele><time>2026-05-02T16:23:36Z</time></trkpt><trkpt lat="43.79307428612537" lon="11.534455081168662"><ele>742.3333333333334</ele><time>2026-05-02T16:23:37Z</time></trkpt><trkpt lat="43.7930247409602" lon="11.534227113891848"><ele>745.0</ele><time>2026-05-02T16:23:38Z</time></trkpt><trkpt lat="43.79299305608051" lon="11.533993618439595"><ele>746.0</ele><time>2026-05-02T16:23:39Z</time></trkpt><trkpt lat="43.79300875620331" lon="11.533718789769514"><ele>747.0</ele><time>2026-05-02T16:23:40Z</time></trkpt><trkpt lat="43.79299555249949" lon="11.53342683195546"><ele>748.0</ele><time>2026-05-02T16:23:41Z</time></trkpt><trkpt lat="43.79297621603087" lon="11.533156453301663"><ele>748.0</ele><time>2026-05-02T16:23:42Z</time></trkpt><trkpt lat="43.79295116271624" lon="11.532897418441667"><ele>748.0</ele><time>2026-05-02T16:23:43Z</time></trkpt><trkpt lat="43.79298408270052" lon="11.532609708003719"><ele>748.0</ele><time>2026-05-02T16:23:44Z</time></trkpt><trkpt lat="43.792998543551235" lon="11.532291007217687"><ele>746.0</ele><time>2026-05-02T16:23:45Z</time></trkpt><trkpt lat="43.79302739989331" lon="11.531981131955249"><ele>744.0</ele><time>2026-05-02T16:23:46Z</time></trkpt><trkpt lat="43.793052746896265" lon="11.531703316317241"><ele>742.0</ele><time>2026-05-02T16:23:47Z</time></trkpt><trkpt lat="43.79305339501972" lon="11.531447353291599"><ele>742.0</ele><time>2026-05-02T16:23:48Z</time></trkpt><trkpt lat="43.79307142039335" lon="11.531224963620225"><ele>742.0</ele><time>2026-05-02T16:23:49Z</time></trkpt><trkpt lat="43.79310524619922" lon="11.531027714119622"><ele>742.0</ele><time>2026-05-02T16:23:50Z</time></trkpt><trkpt lat="43.79311411087521" lon="11.530852143689671"><ele>742.0</ele><time>2026-05-02T16:23:51Z</time></trkpt><trkpt lat="43.79312594672926" lon="11.53071793421745"><ele>741.25</ele><time>2026-05-02T16:23:52Z</time></trkpt><trkpt lat="43.793099983996264" lon="11.53059426906205"><ele>740.5</ele><time>2026-05-02T16:23:53Z</time></trkpt><trkpt lat="43.793000322011714" lon="11.530448574588151"><ele>739.75</ele><time>2026-05-02T16:23:54Z</time></trkpt><trkpt lat="43.79286261589122" lon="11.530352608911071"><ele>739.0</ele><time>2026-05-02T16:23:55Z</time></trkpt><trkpt lat="43.79268517219186" lon="11.53026920108218"><ele>732.6666666666667</ele><time>2026-05-02T16:23:56Z</time></trkpt><trkpt lat="43.79251222958066" lon="11.530169431430805"><ele>726.3333333333334</ele><time>2026-05-02T16:23:57Z</time></trkpt><trkpt lat="43.79236229811799" lon="11.530044439474665"><ele>720.0</ele><time>2026-05-02T16:23:58Z</time></trkpt><trkpt lat="43.792225891902106" lon="11.529903945072427"><ele>720.0</ele><time>2026-05-02T16:23:59Z</time></trkpt><trkpt lat="43.79213559433053" lon="11.529761279861539"><ele>720.0</ele><time>2026-05-02T16:24:00Z</time></trkpt><trkpt lat="43.79206683838212" lon="11.529576542375743"><ele>720.0</ele><time>2026-05-02T16:24:01Z</time></trkpt><trkpt lat="43.79203470418215" lon="11.529348474056256"><ele>722.6666666666666</ele><time>2026-05-02T16:24:02Z</time></trkpt><trkpt lat="43.79202343148352" lon="11.529062014079972"><ele>725.3333333333333</ele><time>2026-05-02T16:24:03Z</time></trkpt><trkpt lat="43.79199106740475" lon="11.528776834995696"><ele>728.0</ele><time>2026-05-02T16:24:04Z</time></trkpt><trkpt lat="43.791896805286825" lon="11.528502462388106"><ele>717.6666666666666</ele><time>2026-05-02T16:24:05Z</time></trkpt><trkpt lat="43.79179040206679" lon="11.528263741647969"><ele>707.3333333333334</ele><time>2026-05-02T16:24:06Z</time></trkpt><trkpt lat="43.79170910202536" lon="11.528064467421716"><ele>697.0</ele><time>2026-05-02T16:24:07Z</time></trkpt><trkpt lat="43.791656195445874" lon="11.527894292786542"><ele>696.5</ele><time>2026-05-02T16:24:08Z</time></trkpt><trkpt lat="43.79163700196067" lon="11.527724239933656"><ele>696.0</ele><time>2026-05-02T16:24:09Z</time></trkpt><trkpt lat="43.79167074800914" lon="11.527545841765289"><ele>695.5</ele><time>2026-05-02T16:24:10Z</time></trkpt><trkpt lat="43.79176914365664" lon="11.527376874942725"><ele>695.0</ele><time>2026-05-02T16:24:11Z</time></trkpt><trkpt lat="43.791840319549635" lon="11.52719352396179"><ele>691.6666666666666</ele><time>2026-05-02T16:24:12Z</time></trkpt><trkpt lat="43.791854560687625" lon="11.52701679850507"><ele>688.3333333333334</ele><time>2026-05-02T16:24:13Z</time></trkpt><trkpt lat="43.79184224063311" lon="11.526763840394478"><ele>685.0</ele><time>2026-05-02T16:24:14Z</time></trkpt><trkpt lat="43.79181977387575" lon="11.526535404189564"><ele>685.0</ele><time>2026-05-02T16:24:15Z</time></trkpt><trkpt lat="43.791832487996494" lon="11.52632379283775"><ele>685.0</ele><time>2026-05-02T16:24:16Z</time></trkpt><trkpt lat="43.79190346397085" lon="11.526122168830868"><ele>685.0</ele><time>2026-05-02T16:24:17Z</time></trkpt><trkpt lat="43.79197700413638" lon="11.525852727310879"><ele>686.3333333333334</ele><time>2026-05-02T16:24:18Z</time></trkpt><trkpt lat="43.792056648851705" lon="11.52562104435582"><ele>687.6666666666666</ele><time>2026-05-02T16:24:19Z</time></trkpt><trkpt lat="43.79209335834463" lon="11.525412820276598"><ele>689.0</ele><time>2026-05-02T16:24:20Z</time></trkpt><trkpt lat="43.79209049733759" lon="11.525212020076701"><ele>689.0</ele><time>2026-05-02T16:24:21Z</time></trkpt><trkpt lat="43.792032604551146" lon="11.525028109167087"><ele>689.0</ele><time>2026-05-02T16:24:21.999Z</time></trkpt><trkpt lat="43.79197544328211" lon="11.5248141060915"><ele>689.0</ele><time>2026-05-02T16:24:22.999Z</time></trkpt><trkpt lat="43.791944804258584" lon="11.524662281932912"><ele>689.0</ele><time>2026-05-02T16:24:23.999Z</time></trkpt><trkpt lat="43.79195572682166" lon="11.524528716774471"><ele>686.0</ele><time>2026-05-02T16:24:24.999Z</time></trkpt><trkpt lat="43.792012973586644" lon="11.524431860744048"><ele>683.0</ele><time>2026-05-02T16:24:25.999Z</time></trkpt><trkpt lat="43.79212654346421" lon="11.524357139364895"><ele>680.0</ele><time>2026-05-02T16:24:26.999Z</time></trkpt><trkpt lat="43.79225841131123" lon="11.524228439878671"><ele>677.0</ele><time>2026-05-02T16:24:27.999Z</time></trkpt><trkpt lat="43.79238399711129" lon="11.524045746605156"><ele>677.0</ele><time>2026-05-02T16:24:28.999Z</time></trkpt><trkpt lat="43.79248398309911" lon="11.523793896121205"><ele>677.0</ele><time>2026-05-02T16:24:29.999Z</time></trkpt><trkpt lat="43.79256719408077" lon="11.52348959511292"><ele>677.0</ele><time>2026-05-02T16:24:30.999Z</time></trkpt><trkpt lat="43.79266669155203" lon="11.52323841157845"><ele>678.3333333333333</ele><time>2026-05-02T16:24:31.999Z</time></trkpt><trkpt lat="43.792759306061214" lon="11.522986193627537"><ele>679.6666666666666</ele><time>2026-05-02T16:24:32.999Z</time></trkpt><trkpt lat="43.79279943664545" lon="11.522767586599533"><ele>681.0</ele><time>2026-05-02T16:24:33.999Z</time></trkpt><trkpt lat="43.792799263014366" lon="11.522550145187482"><ele>678.3333333333334</ele><time>2026-05-02T16:24:34.999Z</time></trkpt><trkpt lat="43.792750999283" lon="11.522297561993533"><ele>675.6666666666667</ele><time>2026-05-02T16:24:35.999Z</time></trkpt><trkpt lat="43.79269251497984" lon="11.522004019775839"><ele>673.0</ele><time>2026-05-02T16:24:36.999Z</time></trkpt><trkpt lat="43.79269226775959" lon="11.521688509678707"><ele>670.0</ele><time>2026-05-02T16:24:37.999Z</time></trkpt><trkpt lat="43.79268212043283" lon="11.5213635653143"><ele>667.0</ele><time>2026-05-02T16:24:38.999Z</time></trkpt><trkpt lat="43.792660494564956" lon="11.52103743929141"><ele>657.6666666666667</ele><time>2026-05-02T16:24:39.999Z</time></trkpt><trkpt lat="43.79261050312168" lon="11.520754705498842"><ele>648.3333333333334</ele><time>2026-05-02T16:24:40.999Z</time></trkpt><trkpt lat="43.792603925867716" lon="11.520527394976286"><ele>639.0</ele><time>2026-05-02T16:24:41.999Z</time></trkpt><trkpt lat="43.79261232616482" lon="11.52032555925619"><ele>642.6666666666666</ele><time>2026-05-02T16:24:42.999Z</time></trkpt><trkpt lat="43.79267150143687" lon="11.520129355128509"><ele>646.3333333333333</ele><time>2026-05-02T16:24:43.999Z</time></trkpt><trkpt lat="43.79276729547331" lon="11.519918548636866"><ele>650.0</ele><time>2026-05-02T16:24:44.999Z</time></trkpt><trkpt lat="43.792885541433584" lon="11.519710368938583"><ele>643.3333333333333</ele><time>2026-05-02T16:24:45.999Z</time></trkpt><trkpt lat="43.79303587265863" lon="11.519537370822695"><ele>636.6666666666666</ele><time>2026-05-02T16:24:46.999Z</time></trkpt><trkpt lat="43.7931932155377" lon="11.519378199359894"><ele>630.0</ele><time>2026-05-02T16:24:47.999Z</time></trkpt><trkpt lat="43.79332343650228" lon="11.519213322385022"><ele>630.0</ele><time>2026-05-02T16:24:48.999Z</time></trkpt><trkpt lat="43.79343575326448" lon="11.519058498335633"><ele>630.0</ele><time>2026-05-02T16:24:49.999Z</time></trkpt><trkpt lat="43.79350938798335" lon="11.518901916766868"><ele>630.0</ele><time>2026-05-02T16:24:50.999Z</time></trkpt><trkpt lat="43.7935367911465" lon="11.518732982967528"><ele>630.0</ele><time>2026-05-02T16:24:51.999Z</time></trkpt><trkpt lat="43.79351385530085" lon="11.518579743762414"><ele>628.0</ele><time>2026-05-02T16:24:52.999Z</time></trkpt><trkpt lat="43.79343924253034" lon="11.518439457043007"><ele>626.0</ele><time>2026-05-02T16:24:53.999Z</time></trkpt><trkpt lat="43.79330894626221" lon="11.518270342351332"><ele>624.0</ele><time>2026-05-02T16:24:55Z</time></trkpt><trkpt lat="43.793175817355745" lon="11.518037635979486"><ele>629.5</ele><time>2026-05-02T16:24:56Z</time></trkpt><trkpt lat="43.79301276863561" lon="11.517794904708413"><ele>635.0</ele><time>2026-05-02T16:24:57Z</time></trkpt><trkpt lat="43.79284296331569" lon="11.517542466534497"><ele>620.0</ele><time>2026-05-02T16:24:58Z</time></trkpt><trkpt lat="43.792671837459125" lon="11.517319328630377"><ele>605.0</ele><time>2026-05-02T16:24:59Z</time></trkpt><trkpt lat="43.7925174962123" lon="11.517110471543724"><ele>609.6666666666666</ele><time>2026-05-02T16:25:00Z</time></trkpt><trkpt lat="43.792343821041484" lon="11.516944986876478"><ele>614.3333333333334</ele><time>2026-05-02T16:25:01Z</time></trkpt><trkpt lat="43.792168458307174" lon="11.516818768931048"><ele>619.0</ele><time>2026-05-02T16:25:02Z</time></trkpt><trkpt lat="43.79201738407701" lon="11.516667404431365"><ele>619.0</ele><time>2026-05-02T16:25:03Z</time></trkpt><trkpt lat="43.79187372660641" lon="11.51649845456312"><ele>619.0</ele><time>2026-05-02T16:25:04Z</time></trkpt><trkpt lat="43.791717161946714" lon="11.516292292405483"><ele>619.0</ele><time>2026-05-02T16:25:05Z</time></trkpt><trkpt lat="43.79157496189301" lon="11.516114094020136"><ele>615.0</ele><time>2026-05-02T16:25:06Z</time></trkpt><trkpt lat="43.79145412440195" lon="11.515947187816353"><ele>611.0</ele><time>2026-05-02T16:25:07Z</time></trkpt><trkpt lat="43.79134383704397" lon="11.515806122017327"><ele>607.0</ele><time>2026-05-02T16:25:08Z</time></trkpt><trkpt lat="43.79126785622158" lon="11.515674377823993"><ele>603.0</ele><time>2026-05-02T16:25:09Z</time></trkpt><trkpt lat="43.791182224266464" lon="11.51557539776405"><ele>603.0</ele><time>2026-05-02T16:25:10Z</time></trkpt><trkpt lat="43.79115212308345" lon="11.515433336304932"><ele>603.0</ele><time>2026-05-02T16:25:11Z</time></trkpt><trkpt lat="43.791169554351754" lon="11.51528831822918"><ele>603.0</ele><time>2026-05-02T16:25:12Z</time></trkpt><trkpt lat="43.79124047389567" lon="11.515128896576444"><ele>603.0</ele><time>2026-05-02T16:25:13Z</time></trkpt><trkpt lat="43.791361005718095" lon="11.514968801937089"><ele>601.0</ele><time>2026-05-02T16:25:14Z</time></trkpt><trkpt lat="43.79152813979839" lon="11.51478607752496"><ele>599.0</ele><time>2026-05-02T16:25:15Z</time></trkpt><trkpt lat="43.791710750030134" lon="11.51460913972033"><ele>597.0</ele><time>2026-05-02T16:25:16Z</time></trkpt><trkpt lat="43.79189886141309" lon="11.514467745891208"><ele>593.3333333333334</ele><time>2026-05-02T16:25:17Z</time></trkpt><trkpt lat="43.792098473868904" lon="11.514359806146434"><ele>589.6666666666667</ele><time>2026-05-02T16:25:18Z</time></trkpt><trkpt lat="43.792279052428256" lon="11.514262354197767"><ele>586.0</ele><time>2026-05-02T16:25:19Z</time></trkpt><trkpt lat="43.79241934646415" lon="11.514163308411158"><ele>586.0</ele><time>2026-05-02T16:25:20Z</time></trkpt><trkpt lat="43.79249870409856" lon="11.514029119161284"><ele>586.0</ele><time>2026-05-02T16:25:21Z</time></trkpt><trkpt lat="43.79253929287099" lon="11.513853829858338"><ele>586.0</ele><time>2026-05-02T16:25:22Z</time></trkpt><trkpt lat="43.79254325352282" lon="11.513658782341848"><ele>586.0</ele><time>2026-05-02T16:25:23Z</time></trkpt><trkpt lat="43.792494451682785" lon="11.513468242744054"><ele>581.6666666666667</ele><time>2026-05-02T16:25:24Z</time></trkpt><trkpt lat="43.79240494277197" lon="11.51330848812394"><ele>577.3333333333334</ele><time>2026-05-02T16:25:25Z</time></trkpt><trkpt lat="43.792272106648774" lon="11.513195825054735"><ele>573.0</ele><time>2026-05-02T16:25:26Z</time></trkpt><trkpt lat="43.792103706494295" lon="11.513151783888988"><ele>573.0</ele><time>2026-05-02T16:25:27Z</time></trkpt><trkpt lat="43.79190563280806" lon="11.513115400157858"><ele>573.0</ele><time>2026-05-02T16:25:28Z</time></trkpt><trkpt lat="43.79167261514285" lon="11.513056154396915"><ele>573.0</ele><time>2026-05-02T16:25:29Z</time></trkpt><trkpt lat="43.79145105172552" lon="11.512985819254308"><ele>570.6666666666666</ele><time>2026-05-02T16:25:30Z</time></trkpt><trkpt lat="43.79124643338902" lon="11.512924960157086"><ele>568.3333333333333</ele><time>2026-05-02T16:25:31Z</time></trkpt><trkpt lat="43.79104838789903" lon="11.51288698299142"><ele>566.0</ele><time>2026-05-02T16:25:32Z</time></trkpt><trkpt lat="43.79083957466738" lon="11.51292365305109"><ele>561.0</ele><time>2026-05-02T16:25:33Z</time></trkpt><trkpt lat="43.79062256727685" lon="11.513014637771102"><ele>556.0</ele><time>2026-05-02T16:25:34Z</time></trkpt><trkpt lat="43.790379815156854" lon="11.513096877524669"><ele>550.0</ele><time>2026-05-02T16:25:35Z</time></trkpt><trkpt lat="43.790142196329285" lon="11.513164412153953"><ele>544.0</ele><time>2026-05-02T16:25:36Z</time></trkpt><trkpt lat="43.789917026551436" lon="11.513227066183555"><ele>544.0</ele><time>2026-05-02T16:25:37Z</time></trkpt><trkpt lat="43.78970091962432" lon="11.513282230692559"><ele>544.0</ele><time>2026-05-02T16:25:38Z</time></trkpt><trkpt lat="43.78948799266719" lon="11.513289054987785"><ele>544.0</ele><time>2026-05-02T16:25:39Z</time></trkpt><trkpt lat="43.78927909709473" lon="11.513286890738783"><ele>541.3333333333334</ele><time>2026-05-02T16:25:40Z</time></trkpt><trkpt lat="43.78909017424726" lon="11.51326289909656"><ele>538.6666666666666</ele><time>2026-05-02T16:25:41Z</time></trkpt><trkpt lat="43.7889102342863" lon="11.513183683492674"><ele>536.0</ele><time>2026-05-02T16:25:42Z</time></trkpt><trkpt lat="43.78876283551813" lon="11.513058180109459"><ele>534.0</ele><time>2026-05-02T16:25:43Z</time></trkpt><trkpt lat="43.78859969335045" lon="11.512853961405083"><ele>532.0</ele><time>2026-05-02T16:25:44Z</time></trkpt><trkpt lat="43.788411644215564" lon="11.512605738132839"><ele>530.5</ele><time>2026-05-02T16:25:45Z</time></trkpt><trkpt lat="43.78820524166448" lon="11.51235896625452"><ele>529.0</ele><time>2026-05-02T16:25:46Z</time></trkpt><trkpt lat="43.788006002561126" lon="11.512091890003012"><ele>527.0</ele><time>2026-05-02T16:25:47Z</time></trkpt><trkpt lat="43.78781294303592" lon="11.511845858153169"><ele>525.0</ele><time>2026-05-02T16:25:48Z</time></trkpt><trkpt lat="43.78764918155777" lon="11.511632503256827"><ele>525.0</ele><time>2026-05-02T16:25:49Z</time></trkpt><trkpt lat="43.78750595815511" lon="11.511451277043443"><ele>525.0</ele><time>2026-05-02T16:25:50Z</time></trkpt><trkpt lat="43.78737958521717" lon="11.511288725847653"><ele>525.0</ele><time>2026-05-02T16:25:51Z</time></trkpt><trkpt lat="43.787275623916386" lon="11.511155695864879"><ele>524.25</ele><time>2026-05-02T16:25:52Z</time></trkpt><trkpt lat="43.787185917079846" lon="11.51103977121965"><ele>523.5</ele><time>2026-05-02T16:25:53Z</time></trkpt><trkpt lat="43.787105506810214" lon="11.510937828655575"><ele>522.75</ele><time>2026-05-02T16:25:54Z</time></trkpt><trkpt lat="43.7870232496593" lon="11.510833482142168"><ele>522.0</ele><time>2026-05-02T16:25:55Z</time></trkpt><trkpt lat="43.78694066281333" lon="11.510725303050846"><ele>522.0</ele><time>2026-05-02T16:25:56Z</time></trkpt><trkpt lat="43.78684762452844" lon="11.510608418035444"><ele>522.0</ele><time>2026-05-02T16:25:57Z</time></trkpt><trkpt lat="43.78674321800603" lon="11.510468671412934"><ele>522.0</ele><time>2026-05-02T16:25:58Z</time></trkpt><trkpt lat="43.786626899174095" lon="11.510321910151006"><ele>522.0</ele><time>2026-05-02T16:25:59Z</time></trkpt><trkpt lat="43.78650194685378" lon="11.510165790531163"><ele>520.3333333333334</ele><time>2026-05-02T16:26:00Z</time></trkpt><trkpt lat="43.786383087063065" lon="11.510020861853388"><ele>518.6666666666667</ele><time>2026-05-02T16:26:01Z</time></trkpt><trkpt lat="43.78626110643699" lon="11.509871760005336"><ele>517.0</ele><time>2026-05-02T16:26:02Z</time></trkpt><trkpt lat="43.78613052837892" lon="11.509717152991604"><ele>516.3333333333334</ele><time>2026-05-02T16:26:03Z</time></trkpt><trkpt lat="43.78600318686297" lon="11.509575360434104"><ele>515.6666666666666</ele><time>2026-05-02T16:26:04Z</time></trkpt><trkpt lat="43.78588274648621" lon="11.509431798719584"><ele>515.0</ele><time>2026-05-02T16:26:05Z</time></trkpt><trkpt lat="43.785777659180646" lon="11.509257209166165"><ele>515.0</ele><time>2026-05-02T16:26:06Z</time></trkpt><trkpt lat="43.78568723122625" lon="11.509047466823644"><ele>515.0</ele><time>2026-05-02T16:26:07Z</time></trkpt><trkpt lat="43.78560682522443" lon="11.508827860199403"><ele>515.0</ele><time>2026-05-02T16:26:08Z</time></trkpt><trkpt lat="43.7855285340717" lon="11.508615450004234"><ele>513.0</ele><time>2026-05-02T16:26:09Z</time></trkpt><trkpt lat="43.78545349686071" lon="11.508412652201454"><ele>511.0</ele><time>2026-05-02T16:26:10Z</time></trkpt><trkpt lat="43.785379447281024" lon="11.508203034488748"><ele>509.0</ele><time>2026-05-02T16:26:11Z</time></trkpt><trkpt lat="43.785318200916976" lon="11.507994104981858"><ele>507.0</ele><time>2026-05-02T16:26:12Z</time></trkpt><trkpt lat="43.7852532206011" lon="11.507778163109457"><ele>505.0</ele><time>2026-05-02T16:26:12.999Z</time></trkpt><trkpt lat="43.78519643071364" lon="11.5075687228841"><ele>503.0</ele><time>2026-05-02T16:26:13.999Z</time></trkpt><trkpt lat="43.785150246083695" lon="11.507356643694072"><ele>503.0</ele><time>2026-05-02T16:26:14.999Z</time></trkpt><trkpt lat="43.78511392504671" lon="11.507145646599913"><ele>503.0</ele><time>2026-05-02T16:26:15.999Z</time></trkpt><trkpt lat="43.78507135860853" lon="11.50692672388508"><ele>503.0</ele><time>2026-05-02T16:26:16.999Z</time></trkpt><trkpt lat="43.78502982983168" lon="11.506691590109277"><ele>501.66666666666663</ele><time>2026-05-02T16:26:17.999Z</time></trkpt><trkpt lat="43.78498906497846" lon="11.506447150990576"><ele>500.33333333333337</ele><time>2026-05-02T16:26:18.999Z</time></trkpt><trkpt lat="43.78496078204586" lon="11.50620764415314"><ele>499.0</ele><time>2026-05-02T16:26:19.999Z</time></trkpt><trkpt lat="43.78493831239472" lon="11.505971361117538"><ele>496.6666666666667</ele><time>2026-05-02T16:26:20.999Z</time></trkpt><trkpt lat="43.7849151736141" lon="11.505738114650605"><ele>494.33333333333337</ele><time>2026-05-02T16:26:21.999Z</time></trkpt><trkpt lat="43.784884765998754" lon="11.505488384736392"><ele>492.0</ele><time>2026-05-02T16:26:22.999Z</time></trkpt><trkpt lat="43.78484549110849" lon="11.505249063100328"><ele>491.0</ele><time>2026-05-02T16:26:23.999Z</time></trkpt><trkpt lat="43.784804368968366" lon="11.505017889261337"><ele>490.0</ele><time>2026-05-02T16:26:24.999Z</time></trkpt><trkpt lat="43.78476499527468" lon="11.50480313642833"><ele>489.0</ele><time>2026-05-02T16:26:25.999Z</time></trkpt><trkpt lat="43.78472895166241" lon="11.504611195576546"><ele>487.75</ele><time>2026-05-02T16:26:26.999Z</time></trkpt><trkpt lat="43.78469708020866" lon="11.504420665713301"><ele>486.5</ele><time>2026-05-02T16:26:27.999Z</time></trkpt><trkpt lat="43.78466688471426" lon="11.504232131369436"><ele>485.25</ele><time>2026-05-02T16:26:28.999Z</time></trkpt><trkpt lat="43.78463411604551" lon="11.504049856900254"><ele>484.0</ele><time>2026-05-02T16:26:29.999Z</time></trkpt><trkpt lat="43.78459845522064" lon="11.503865213033095"><ele>484.0</ele><time>2026-05-02T16:26:30.999Z</time></trkpt><trkpt lat="43.78455630795143" lon="11.503684147326897"><ele>484.0</ele><time>2026-05-02T16:26:31.999Z</time></trkpt><trkpt lat="43.784519323803934" lon="11.50350474731447"><ele>484.0</ele><time>2026-05-02T16:26:32.999Z</time></trkpt><trkpt lat="43.7844929417773" lon="11.503319508994732"><ele>484.0</ele><time>2026-05-02T16:26:33.999Z</time></trkpt><trkpt lat="43.78448743701286" lon="11.503134228159793"><ele>484.0</ele><time>2026-05-02T16:26:34.999Z</time></trkpt><trkpt lat="43.78451231152732" lon="11.502931110568017"><ele>484.0</ele><time>2026-05-02T16:26:35.999Z</time></trkpt><trkpt lat="43.784566219328376" lon="11.502720774354614"><ele>484.0</ele><time>2026-05-02T16:26:36.999Z</time></trkpt><trkpt lat="43.78460717703146" lon="11.502514976625504"><ele>483.25</ele><time>2026-05-02T16:26:37.999Z</time></trkpt><trkpt lat="43.78463614955506" lon="11.50233414310002"><ele>482.5</ele><time>2026-05-02T16:26:38.999Z</time></trkpt><trkpt lat="43.784658785037" lon="11.502146005965656"><ele>481.75</ele><time>2026-05-02T16:26:39.999Z</time></trkpt><trkpt lat="43.784655971957086" lon="11.501960872489201"><ele>481.0</ele><time>2026-05-02T16:26:40.999Z</time></trkpt><trkpt lat="43.7846283415364" lon="11.501765442685372"><ele>480.33333333333337</ele><time>2026-05-02T16:26:41.999Z</time></trkpt><trkpt lat="43.78456438033266" lon="11.501559676028032"><ele>479.66666666666663</ele><time>2026-05-02T16:26:42.999Z</time></trkpt><trkpt lat="43.784484641313284" lon="11.501355662263967"><ele>479.0</ele><time>2026-05-02T16:26:43.999Z</time></trkpt><trkpt lat="43.78440169280666" lon="11.50116995654837"><ele>477.5</ele><time>2026-05-02T16:26:44.999Z</time></trkpt><trkpt lat="43.78432890456007" lon="11.50099068915289"><ele>476.0</ele><time>2026-05-02T16:26:45.999Z</time></trkpt><trkpt lat="43.78426973690309" lon="11.500820732604202"><ele>474.5</ele><time>2026-05-02T16:26:46.999Z</time></trkpt><trkpt lat="43.78425962235315" lon="11.500637666790894"><ele>473.0</ele><time>2026-05-02T16:26:47.999Z</time></trkpt><trkpt lat="43.78426122118177" lon="11.5004753125137"><ele>470.66666666666663</ele><time>2026-05-02T16:26:48.999Z</time></trkpt><trkpt lat="43.78429738037484" lon="11.500267615527823"><ele>468.33333333333337</ele><time>2026-05-02T16:26:49.999Z</time></trkpt><trkpt lat="43.784342286236885" lon="11.500049924769352"><ele>466.0</ele><time>2026-05-02T16:26:50.999Z</time></trkpt><trkpt lat="43.78438268104898" lon="11.499811913575664"><ele>465.0</ele><time>2026-05-02T16:26:51.999Z</time></trkpt><trkpt lat="43.784433840592605" lon="11.49958697215041"><ele>464.0</ele><time>2026-05-02T16:26:52.999Z</time></trkpt><trkpt lat="43.78448014642288" lon="11.499364630729909"><ele>463.0</ele><time>2026-05-02T16:26:53.999Z</time></trkpt><trkpt lat="43.78451442975359" lon="11.499149728323278"><ele>462.33333333333337</ele><time>2026-05-02T16:26:54.999Z</time></trkpt><trkpt lat="43.784500377913446" lon="11.498938323986726"><ele>461.66666666666663</ele><time>2026-05-02T16:26:55.999Z</time></trkpt><trkpt lat="43.78445022815641" lon="11.498722112399482"><ele>461.0</ele><time>2026-05-02T16:26:56.999Z</time></trkpt><trkpt lat="43.784350188682666" lon="11.49849795722152"><ele>460.66666666666663</ele><time>2026-05-02T16:26:57.999Z</time></trkpt><trkpt lat="43.78420906269517" lon="11.498261770257509"><ele>460.33333333333337</ele><time>2026-05-02T16:26:58.999Z</time></trkpt><trkpt lat="43.78406836216725" lon="11.498059288808802"><ele>460.0</ele><time>2026-05-02T16:26:59.999Z</time></trkpt><trkpt lat="43.783934220338985" lon="11.497906986308447"><ele>459.25</ele><time>2026-05-02T16:27:01Z</time></trkpt><trkpt lat="43.78381741263834" lon="11.497796201852351"><ele>458.5</ele><time>2026-05-02T16:27:02Z</time></trkpt><trkpt lat="43.78373039492278" lon="11.497672027645685"><ele>457.75</ele><time>2026-05-02T16:27:03Z</time></trkpt><trkpt lat="43.78370791169222" lon="11.497509628411136"><ele>457.0</ele><time>2026-05-02T16:27:04Z</time></trkpt><trkpt lat="43.78374353321678" lon="11.497357189192014"><ele>457.0</ele><time>2026-05-02T16:27:05Z</time></trkpt><trkpt lat="43.783816455673175" lon="11.497202152864524"><ele>457.0</ele><time>2026-05-02T16:27:06Z</time></trkpt><trkpt lat="43.78390610719132" lon="11.496992629887709"><ele>457.0</ele><time>2026-05-02T16:27:07Z</time></trkpt><trkpt lat="43.78397597647472" lon="11.496731881401308"><ele>455.33333333333337</ele><time>2026-05-02T16:27:08Z</time></trkpt><trkpt lat="43.78403501353883" lon="11.496455988080323"><ele>453.66666666666663</ele><time>2026-05-02T16:27:09Z</time></trkpt><trkpt lat="43.78405171667128" lon="11.496192906192626"><ele>452.0</ele><time>2026-05-02T16:27:10Z</time></trkpt><trkpt lat="43.78402704465894" lon="11.495922944827088"><ele>449.66666666666663</ele><time>2026-05-02T16:27:11Z</time></trkpt><trkpt lat="43.78397888725368" lon="11.495626783588486"><ele>447.33333333333337</ele><time>2026-05-02T16:27:12Z</time></trkpt><trkpt lat="43.78390403689809" lon="11.495331539331948"><ele>445.0</ele><time>2026-05-02T16:27:13Z</time></trkpt><trkpt lat="43.78380626334654" lon="11.49505998109314"><ele>443.0</ele><time>2026-05-02T16:27:14Z</time></trkpt><trkpt lat="43.78372299908256" lon="11.494795205618717"><ele>441.0</ele><time>2026-05-02T16:27:15Z</time></trkpt><trkpt lat="43.78369971126197" lon="11.494532265483848"><ele>439.0</ele><time>2026-05-02T16:27:16Z</time></trkpt><trkpt lat="43.78367079918288" lon="11.49430479326134"><ele>437.6666666666667</ele><time>2026-05-02T16:27:17Z</time></trkpt><trkpt lat="43.78360982681092" lon="11.494087760936772"><ele>436.33333333333337</ele><time>2026-05-02T16:27:18Z</time></trkpt><trkpt lat="43.783515753761144" lon="11.493885129858532"><ele>435.0</ele><time>2026-05-02T16:27:19Z</time></trkpt><trkpt lat="43.783373066418385" lon="11.493693816480375"><ele>431.66666666666663</ele><time>2026-05-02T16:27:20Z</time></trkpt><trkpt lat="43.783207965300925" lon="11.493534788816337"><ele>428.3333333333333</ele><time>2026-05-02T16:27:21Z</time></trkpt><trkpt lat="43.78307477124167" lon="11.493407920810235"><ele>425.0</ele><time>2026-05-02T16:27:22Z</time></trkpt><trkpt lat="43.782967720687736" lon="11.493288224673648"><ele>425.0</ele><time>2026-05-02T16:27:23Z</time></trkpt><trkpt lat="43.78287901959223" lon="11.493192737903108"><ele>425.0</ele><time>2026-05-02T16:27:24Z</time></trkpt><trkpt lat="43.78281869512082" lon="11.493075473582017"><ele>425.0</ele><time>2026-05-02T16:27:25Z</time></trkpt><trkpt lat="43.78277418272492" lon="11.492956550943651"><ele>425.0</ele><time>2026-05-02T16:27:26Z</time></trkpt><trkpt lat="43.782766976348405" lon="11.49280252714782"><ele>425.0</ele><time>2026-05-02T16:27:27Z</time></trkpt><trkpt lat="43.78277731539448" lon="11.492615506555497"><ele>424.0</ele><time>2026-05-02T16:27:28Z</time></trkpt><trkpt lat="43.782776810002204" lon="11.492439237392357"><ele>423.0</ele><time>2026-05-02T16:27:29Z</time></trkpt><trkpt lat="43.782780901412295" lon="11.492281648100793"><ele>422.0</ele><time>2026-05-02T16:27:30Z</time></trkpt><trkpt lat="43.782779361758415" lon="11.492115996492219"><ele>421.0</ele><time>2026-05-02T16:27:31Z</time></trkpt><trkpt lat="43.7827662404453" lon="11.491919726185168"><ele>418.6666666666667</ele><time>2026-05-02T16:27:32Z</time></trkpt><trkpt lat="43.782735093140815" lon="11.491702596958776"><ele>416.33333333333337</ele><time>2026-05-02T16:27:33Z</time></trkpt><trkpt lat="43.78268996781058" lon="11.491475633567521"><ele>414.0</ele><time>2026-05-02T16:27:34Z</time></trkpt><trkpt lat="43.78264518864583" lon="11.491232729739655"><ele>409.33333333333337</ele><time>2026-05-02T16:27:35Z</time></trkpt><trkpt lat="43.78259155479128" lon="11.490981631258444"><ele>404.6666666666667</ele><time>2026-05-02T16:27:36Z</time></trkpt><trkpt lat="43.782515140567746" lon="11.490730376663258"><ele>400.0</ele><time>2026-05-02T16:27:37Z</time></trkpt><trkpt lat="43.78242161616059" lon="11.490481600964067"><ele>400.0</ele><time>2026-05-02T16:27:38Z</time></trkpt><trkpt lat="43.7822993720944" lon="11.490266182571117"><ele>400.0</ele><time>2026-05-02T16:27:39Z</time></trkpt><trkpt lat="43.782148885115625" lon="11.490096629632795"><ele>400.0</ele><time>2026-05-02T16:27:40Z</time></trkpt><trkpt lat="43.781972668159874" lon="11.489959622131481"><ele>400.0</ele><time>2026-05-02T16:27:41Z</time></trkpt><trkpt lat="43.78178968690971" lon="11.48982722252962"><ele>400.0</ele><time>2026-05-02T16:27:42Z</time></trkpt><trkpt lat="43.78161965396812" lon="11.489691631862915"><ele>400.0</ele><time>2026-05-02T16:27:43Z</time></trkpt><trkpt lat="43.78146077951491" lon="11.489542480575198"><ele>400.0</ele><time>2026-05-02T16:27:44Z</time></trkpt><trkpt lat="43.781315018051856" lon="11.489383381307913"><ele>400.0</ele><time>2026-05-02T16:27:45Z</time></trkpt><trkpt lat="43.78121372290395" lon="11.489189430952523"><ele>400.0</ele><time>2026-05-02T16:27:46Z</time></trkpt><trkpt lat="43.7811212401994" lon="11.48897538853929"><ele>400.0</ele><time>2026-05-02T16:27:47Z</time></trkpt><trkpt lat="43.78102432314723" lon="11.488782077203139"><ele>400.0</ele><time>2026-05-02T16:27:48Z</time></trkpt><trkpt lat="43.78096943084796" lon="11.488607882625557"><ele>400.0</ele><time>2026-05-02T16:27:49Z</time></trkpt><trkpt lat="43.78093445465598" lon="11.488423506956716"><ele>400.0</ele><time>2026-05-02T16:27:50Z</time></trkpt><trkpt lat="43.780933325673516" lon="11.488223137613828"><ele>395.33333333333337</ele><time>2026-05-02T16:27:51Z</time></trkpt><trkpt lat="43.78097257372458" lon="11.488008194768272"><ele>390.66666666666663</ele><time>2026-05-02T16:27:52Z</time></trkpt><trkpt lat="43.78104625478391" lon="11.487765552783207"><ele>386.0</ele><time>2026-05-02T16:27:53Z</time></trkpt><trkpt lat="43.781116492373066" lon="11.487499771107377"><ele>385.66666666666663</ele><time>2026-05-02T16:27:54Z</time></trkpt><trkpt lat="43.7811588052479" lon="11.487210681107443"><ele>385.33333333333337</ele><time>2026-05-02T16:27:55Z</time></trkpt><trkpt lat="43.7811907337269" lon="11.48691846824725"><ele>385.0</ele><time>2026-05-02T16:27:56Z</time></trkpt><trkpt lat="43.78121691075372" lon="11.48664312588027"><ele>382.6666666666667</ele><time>2026-05-02T16:27:57Z</time></trkpt><trkpt lat="43.78123702318621" lon="11.486383515712848"><ele>380.33333333333337</ele><time>2026-05-02T16:27:58Z</time></trkpt><trkpt lat="43.7812295585503" lon="11.486124655229586"><ele>378.0</ele><time>2026-05-02T16:27:59Z</time></trkpt><trkpt lat="43.78116933051633" lon="11.485871330618417"><ele>377.3333333333333</ele><time>2026-05-02T16:28:00Z</time></trkpt><trkpt lat="43.78106911518344" lon="11.485615741522299"><ele>376.66666666666663</ele><time>2026-05-02T16:28:01Z</time></trkpt><trkpt lat="43.78094766583123" lon="11.485346181018496"><ele>376.0</ele><time>2026-05-02T16:28:02Z</time></trkpt><trkpt lat="43.78083612777806" lon="11.485076722489813"><ele>371.66666666666663</ele><time>2026-05-02T16:28:03Z</time></trkpt><trkpt lat="43.780738795988945" lon="11.484811487313188"><ele>367.3333333333333</ele><time>2026-05-02T16:28:04Z</time></trkpt><trkpt lat="43.780650185135286" lon="11.484556780143063"><ele>363.0</ele><time>2026-05-02T16:28:05Z</time></trkpt><trkpt lat="43.780567783806276" lon="11.484313760640916"><ele>362.3333333333333</ele><time>2026-05-02T16:28:06Z</time></trkpt><trkpt lat="43.78049530976151" lon="11.484077737599552"><ele>361.66666666666663</ele><time>2026-05-02T16:28:07Z</time></trkpt><trkpt lat="43.78044367173413" lon="11.483836508092233"><ele>361.0</ele><time>2026-05-02T16:28:08Z</time></trkpt><trkpt lat="43.78042570338222" lon="11.483582623313962"><ele>359.66666666666663</ele><time>2026-05-02T16:28:09Z</time></trkpt><trkpt lat="43.780428840952666" lon="11.48332930026271"><ele>358.3333333333333</ele><time>2026-05-02T16:28:10Z</time></trkpt><trkpt lat="43.78040076944533" lon="11.483087684297498"><ele>357.0</ele><time>2026-05-02T16:28:10.999Z</time></trkpt><trkpt lat="43.78032588516919" lon="11.48286651549416"><ele>355.6666666666667</ele><time>2026-05-02T16:28:11.999Z</time></trkpt><trkpt lat="43.780202504506406" lon="11.482639800255438"><ele>354.33333333333337</ele><time>2026-05-02T16:28:12.999Z</time></trkpt><trkpt lat="43.78005711989357" lon="11.482415694909392"><ele>353.0</ele><time>2026-05-02T16:28:13.999Z</time></trkpt><trkpt lat="43.779924361804625" lon="11.482191193576236"><ele>349.33333333333337</ele><time>2026-05-02T16:28:14.999Z</time></trkpt><trkpt lat="43.77980126180472" lon="11.481967404161708"><ele>345.6666666666667</ele><time>2026-05-02T16:28:15.999Z</time></trkpt><trkpt lat="43.779679769899246" lon="11.481744771705799"><ele>342.0</ele><time>2026-05-02T16:28:16.999Z</time></trkpt><trkpt lat="43.779558874989235" lon="11.481522623593875"><ele>342.0</ele><time>2026-05-02T16:28:17.999Z</time></trkpt><trkpt lat="43.77944468613831" lon="11.481329729388538"><ele>342.0</ele><time>2026-05-02T16:28:18.999Z</time></trkpt><trkpt lat="43.77932074155255" lon="11.481179721863677"><ele>342.0</ele><time>2026-05-02T16:28:19.999Z</time></trkpt><trkpt lat="43.77917515569499" lon="11.481082052788631"><ele>339.6666666666667</ele><time>2026-05-02T16:28:20.999Z</time></trkpt><trkpt lat="43.77901196251884" lon="11.481020320863564"><ele>337.33333333333337</ele><time>2026-05-02T16:28:21.999Z</time></trkpt><trkpt lat="43.778839858790526" lon="11.480941433784636"><ele>335.0</ele><time>2026-05-02T16:28:22.999Z</time></trkpt><trkpt lat="43.77868460901099" lon="11.48081352477504"><ele>335.0</ele><time>2026-05-02T16:28:23.999Z</time></trkpt><trkpt lat="43.778550549794446" lon="11.48064026385916"><ele>335.0</ele><time>2026-05-02T16:28:24.999Z</time></trkpt><trkpt lat="43.77841131015889" lon="11.480458034512147"><ele>335.0</ele><time>2026-05-02T16:28:25.999Z</time></trkpt><trkpt lat="43.778280554542384" lon="11.480210153904137"><ele>333.6666666666667</ele><time>2026-05-02T16:28:26.999Z</time></trkpt><trkpt lat="43.77816286984558" lon="11.479973640322326"><ele>332.3333333333333</ele><time>2026-05-02T16:28:27.999Z</time></trkpt><trkpt lat="43.77805695453083" lon="11.479749222456148"><ele>331.0</ele><time>2026-05-02T16:28:28.999Z</time></trkpt><trkpt lat="43.77795995765821" lon="11.479549428828179"><ele>331.0</ele><time>2026-05-02T16:28:29.999Z</time></trkpt><trkpt lat="43.777870095558015" lon="11.479388445797216"><ele>331.0</ele><time>2026-05-02T16:28:30.999Z</time></trkpt><trkpt lat="43.77776797128017" lon="11.479273170263001"><ele>331.0</ele><time>2026-05-02T16:28:31.999Z</time></trkpt><trkpt lat="43.77763616687242" lon="11.479198555780103"><ele>331.0</ele><time>2026-05-02T16:28:32.999Z</time></trkpt><trkpt lat="43.77744280754905" lon="11.479178366998601"><ele>326.3333333333333</ele><time>2026-05-02T16:28:33.999Z</time></trkpt><trkpt lat="43.77723086658694" lon="11.479165651921107"><ele>321.6666666666667</ele><time>2026-05-02T16:28:34.999Z</time></trkpt><trkpt lat="43.77703313743513" lon="11.479130627720325"><ele>317.0</ele><time>2026-05-02T16:28:35.999Z</time></trkpt><trkpt lat="43.77686262132877" lon="11.47909014798176"><ele>315.0</ele><time>2026-05-02T16:28:36.999Z</time></trkpt><trkpt lat="43.77672019711904" lon="11.479046205967801"><ele>313.0</ele><time>2026-05-02T16:28:37.999Z</time></trkpt><trkpt lat="43.776602944443326" lon="11.479001013432379"><ele>311.0</ele><time>2026-05-02T16:28:38.999Z</time></trkpt><trkpt lat="43.776509016070094" lon="11.478911087302807"><ele>309.0</ele><time>2026-05-02T16:28:39.999Z</time></trkpt><trkpt lat="43.77644305803945" lon="11.478743627245121"><ele>309.0</ele><time>2026-05-02T16:28:40.999Z</time></trkpt><trkpt lat="43.776399739338714" lon="11.478561175811683"><ele>309.0</ele><time>2026-05-02T16:28:41.999Z</time></trkpt><trkpt lat="43.77636351494416" lon="11.478295106052295"><ele>309.0</ele><time>2026-05-02T16:28:42.999Z</time></trkpt><trkpt lat="43.77630133569683" lon="11.478033151522071"><ele>309.0</ele><time>2026-05-02T16:28:43.999Z</time></trkpt><trkpt lat="43.77620265473295" lon="11.477796322433477"><ele>309.0</ele><time>2026-05-02T16:28:44.999Z</time></trkpt><trkpt lat="43.77605166338293" lon="11.477545833998962"><ele>309.0</ele><time>2026-05-02T16:28:45.999Z</time></trkpt><trkpt lat="43.77587632154757" lon="11.477310953978392"><ele>303.0</ele><time>2026-05-02T16:28:46.999Z</time></trkpt><trkpt lat="43.77568543911062" lon="11.477127404787058"><ele>297.0</ele><time>2026-05-02T16:28:47.999Z</time></trkpt><trkpt lat="43.775476996386075" lon="11.47699598306487"><ele>297.0</ele><time>2026-05-02T16:28:48.999Z</time></trkpt><trkpt lat="43.7752712908272" lon="11.476878535122712"><ele>297.0</ele><time>2026-05-02T16:28:49.999Z</time></trkpt><trkpt lat="43.77507847891127" lon="11.476763793105158"><ele>297.0</ele><time>2026-05-02T16:28:50.999Z</time></trkpt><trkpt lat="43.77490169143349" lon="11.476654388055815"><ele>294.3333333333333</ele><time>2026-05-02T16:28:51.999Z</time></trkpt><trkpt lat="43.774744185046416" lon="11.476554122593143"><ele>291.66666666666663</ele><time>2026-05-02T16:28:52.999Z</time></trkpt><trkpt lat="43.774605096222324" lon="11.476462593602513"><ele>289.0</ele><time>2026-05-02T16:28:53.999Z</time></trkpt><trkpt lat="43.77447529426497" lon="11.476380147362674"><ele>287.75</ele><time>2026-05-02T16:28:54.999Z</time></trkpt><trkpt lat="43.77435043224792" lon="11.47628787992462"><ele>286.5</ele><time>2026-05-02T16:28:55.999Z</time></trkpt><trkpt lat="43.774243340635145" lon="11.476185169755826"><ele>285.25</ele><time>2026-05-02T16:28:56.999Z</time></trkpt><trkpt lat="43.77414703286446" lon="11.47606371263103"><ele>284.0</ele><time>2026-05-02T16:28:57.999Z</time></trkpt><trkpt lat="43.7740501733104" lon="11.475937575253425"><ele>284.0</ele><time>2026-05-02T16:28:58.999Z</time></trkpt><trkpt lat="43.77395039593544" lon="11.475813095835377"><ele>284.0</ele><time>2026-05-02T16:28:59.999Z</time></trkpt><trkpt lat="43.77384834121252" lon="11.475692599547733"><ele>284.0</ele><time>2026-05-02T16:29:00.999Z</time></trkpt><trkpt lat="43.77375835790892" lon="11.475587118882057"><ele>284.0</ele><time>2026-05-02T16:29:01.999Z</time></trkpt><trkpt lat="43.773670994526064" lon="11.475487511999386"><ele>283.75</ele><time>2026-05-02T16:29:02.999Z</time></trkpt><trkpt lat="43.77358237437788" lon="11.47538793315356"><ele>283.5</ele><time>2026-05-02T16:29:03.999Z</time></trkpt><trkpt lat="43.77350095518928" lon="11.475281540966362"><ele>283.25</ele><time>2026-05-02T16:29:04.999Z</time></trkpt><trkpt lat="43.77342677432291" lon="11.475160307423655"><ele>283.0</ele><time>2026-05-02T16:29:05.999Z</time></trkpt><trkpt lat="43.77337325299993" lon="11.475004717778395"><ele>281.0</ele><time>2026-05-02T16:29:07Z</time></trkpt><trkpt lat="43.773344387522506" lon="11.47481152266785"><ele>279.0</ele><time>2026-05-02T16:29:08Z</time></trkpt><trkpt lat="43.77331363149222" lon="11.474605562568883"><ele>277.0</ele><time>2026-05-02T16:29:09Z</time></trkpt><trkpt lat="43.77327653944098" lon="11.474412138010615"><ele>275.0</ele><time>2026-05-02T16:29:10Z</time></trkpt><trkpt lat="43.77323772701145" lon="11.474219454742942"><ele>274.5</ele><time>2026-05-02T16:29:11Z</time></trkpt><trkpt lat="43.77319645860864" lon="11.474027316450846"><ele>274.0</ele><time>2026-05-02T16:29:12Z</time></trkpt><trkpt lat="43.773157786026246" lon="11.473841359021668"><ele>273.5</ele><time>2026-05-02T16:29:13Z</time></trkpt><trkpt lat="43.77310589850231" lon="11.47366767908011"><ele>273.0</ele><time>2026-05-02T16:29:14Z</time></trkpt><trkpt lat="43.7730142391116" lon="11.473495183585595"><ele>272.6666666666667</ele><time>2026-05-02T16:29:15Z</time></trkpt><trkpt lat="43.77288472557609" lon="11.47333106874719"><ele>272.33333333333337</ele><time>2026-05-02T16:29:16Z</time></trkpt><trkpt lat="43.77273447347213" lon="11.473186073439802"><ele>272.0</ele><time>2026-05-02T16:29:17Z</time></trkpt><trkpt lat="43.772593321630694" lon="11.473055538999951"><ele>270.25</ele><time>2026-05-02T16:29:18Z</time></trkpt><trkpt lat="43.77246399032562" lon="11.472933698915709"><ele>268.5</ele><time>2026-05-02T16:29:19Z</time></trkpt><trkpt lat="43.77235424167757" lon="11.472812194226037"><ele>266.75</ele><time>2026-05-02T16:29:20Z</time></trkpt><trkpt lat="43.772248943330574" lon="11.472697962959764"><ele>265.0</ele><time>2026-05-02T16:29:21Z</time></trkpt><trkpt lat="43.772129872369206" lon="11.472607246777038"><ele>265.0</ele><time>2026-05-02T16:29:22Z</time></trkpt><trkpt lat="43.7719966434151" lon="11.472564339587281"><ele>265.0</ele><time>2026-05-02T16:29:23Z</time></trkpt><trkpt lat="43.77185350887236" lon="11.472567856348972"><ele>265.0</ele><time>2026-05-02T16:29:24Z</time></trkpt><trkpt lat="43.77171747745072" lon="11.472595908033071"><ele>265.0</ele><time>2026-05-02T16:29:25Z</time></trkpt><trkpt lat="43.771595038606584" lon="11.472619283791882"><ele>263.0</ele><time>2026-05-02T16:29:26Z</time></trkpt><trkpt lat="43.77148035489157" lon="11.472652427760359"><ele>261.0</ele><time>2026-05-02T16:29:27Z</time></trkpt><trkpt lat="43.77137483988072" lon="11.472698293944743"><ele>259.0</ele><time>2026-05-02T16:29:28Z</time></trkpt><trkpt lat="43.771264944656" lon="11.472716037256884"><ele>257.0</ele><time>2026-05-02T16:29:29Z</time></trkpt><trkpt lat="43.771163765992775" lon="11.472764258369873"><ele>255.0</ele><time>2026-05-02T16:29:30Z</time></trkpt><trkpt lat="43.77106338311185" lon="11.472758853176412"><ele>252.25</ele><time>2026-05-02T16:29:31Z</time></trkpt><trkpt lat="43.77096412015703" lon="11.472691764655382"><ele>249.5</ele><time>2026-05-02T16:29:32Z</time></trkpt><trkpt lat="43.77089430036329" lon="11.472533921637835"><ele>246.75</ele><time>2026-05-02T16:29:33Z</time></trkpt><trkpt lat="43.770789093763426" lon="11.472397290093411"><ele>244.0</ele><time>2026-05-02T16:29:34Z</time></trkpt><trkpt lat="43.77069831083773" lon="11.472263467639573"><ele>244.0</ele><time>2026-05-02T16:29:35Z</time></trkpt><trkpt lat="43.7705820165674" lon="11.47216816757986"><ele>244.0</ele><time>2026-05-02T16:29:36Z</time></trkpt><trkpt lat="43.770457306698816" lon="11.472091817679512"><ele>244.0</ele><time>2026-05-02T16:29:37Z</time></trkpt><trkpt lat="43.77033429466668" lon="11.472023559885523"><ele>244.0</ele><time>2026-05-02T16:29:38Z</time></trkpt><trkpt lat="43.77022407174382" lon="11.471966015489723"><ele>242.25</ele><time>2026-05-02T16:29:39Z</time></trkpt><trkpt lat="43.77011304441101" lon="11.47190668648731"><ele>240.5</ele><time>2026-05-02T16:29:40Z</time></trkpt><trkpt lat="43.77000283934309" lon="11.471841232651178"><ele>238.75</ele><time>2026-05-02T16:29:41Z</time></trkpt><trkpt lat="43.76990837347436" lon="11.471736862950237"><ele>237.0</ele><time>2026-05-02T16:29:42Z</time></trkpt><trkpt lat="43.769820016238455" lon="11.471621947998003"><ele>237.0</ele><time>2026-05-02T16:29:43Z</time></trkpt><trkpt lat="43.76973756164708" lon="11.471517721449965"><ele>237.0</ele><time>2026-05-02T16:29:44Z</time></trkpt><trkpt lat="43.76965746631797" lon="11.471415242105923"><ele>237.0</ele><time>2026-05-02T16:29:45Z</time></trkpt><trkpt lat="43.76958895938546" lon="11.471326469189298"><ele>237.0</ele><time>2026-05-02T16:29:46Z</time></trkpt><trkpt lat="43.76952284188588" lon="11.471236024164162"><ele>237.0</ele><time>2026-05-02T16:29:47Z</time></trkpt><trkpt lat="43.769477089666616" lon="11.471125768263846"><ele>236.0</ele><time>2026-05-02T16:29:48Z</time></trkpt><trkpt lat="43.76945985724906" lon="11.470995299113621"><ele>235.0</ele><time>2026-05-02T16:29:49Z</time></trkpt><trkpt lat="43.769488109249465" lon="11.47086381320905"><ele>234.0</ele><time>2026-05-02T16:29:50Z</time></trkpt><trkpt lat="43.76955635711877" lon="11.470767024267392"><ele>233.0</ele><time>2026-05-02T16:29:51Z</time></trkpt><trkpt lat="43.76965321081252" lon="11.470716446024413"><ele>232.0</ele><time>2026-05-02T16:29:52Z</time></trkpt><trkpt lat="43.76975800095873" lon="11.470704968984812"><ele>231.99999999999997</ele><time>2026-05-02T16:29:53Z</time></trkpt><trkpt lat="43.769853175892415" lon="11.470710207484277"><ele>232.0</ele><time>2026-05-02T16:29:54Z</time></trkpt><trkpt lat="43.76994089690627" lon="11.47071268596936"><ele>232.0</ele><time>2026-05-02T16:29:55Z</time></trkpt><trkpt lat="43.7700244335183" lon="11.470713102793553"><ele>232.0</ele><time>2026-05-02T16:29:56Z</time></trkpt><trkpt lat="43.77010403123053" lon="11.470700194239512"><ele>231.99999999999997</ele><time>2026-05-02T16:29:57Z</time></trkpt><trkpt lat="43.77018228345619" lon="11.470678909624265"><ele>232.0</ele><time>2026-05-02T16:29:58Z</time></trkpt><trkpt lat="43.77025595221976" lon="11.470640757671504"><ele>231.0</ele><time>2026-05-02T16:29:59Z</time></trkpt><trkpt lat="43.770329803010284" lon="11.470566122333821"><ele>230.0</ele><time>2026-05-02T16:30:00Z</time></trkpt><trkpt lat="43.770396120429226" lon="11.47045859802041"><ele>229.0</ele><time>2026-05-02T16:30:01Z</time></trkpt><trkpt lat="43.77043139769526" lon="11.470312788037027"><ele>228.0</ele><time>2026-05-02T16:30:02Z</time></trkpt><trkpt lat="43.77044342616167" lon="11.470157438246728"><ele>227.0</ele><time>2026-05-02T16:30:03Z</time></trkpt><trkpt lat="43.77044038028135" lon="11.469988745443587"><ele>227.0</ele><time>2026-05-02T16:30:04Z</time></trkpt><trkpt lat="43.770443500617766" lon="11.469817730298741"><ele>227.0</ele><time>2026-05-02T16:30:05Z</time></trkpt><trkpt lat="43.77043029782159" lon="11.469685293761271"><ele>227.0</ele><time>2026-05-02T16:30:06Z</time></trkpt><trkpt lat="43.77042307048303" lon="11.46952724813887"><ele>227.0</ele><time>2026-05-02T16:30:07Z</time></trkpt><trkpt lat="43.77041436590226" lon="11.469369555299906"><ele>227.0</ele><time>2026-05-02T16:30:08Z</time></trkpt><trkpt lat="43.77040882016952" lon="11.469207711763582"><ele>225.25</ele><time>2026-05-02T16:30:09Z</time></trkpt><trkpt lat="43.77039695321911" lon="11.46904303773915"><ele>223.5</ele><time>2026-05-02T16:30:10Z</time></trkpt><trkpt lat="43.77038521568171" lon="11.468875103662853"><ele>221.75</ele><time>2026-05-02T16:30:10.999Z</time></trkpt><trkpt lat="43.77037653968622" lon="11.468705572127734"><ele>220.0</ele><time>2026-05-02T16:30:11.999Z</time></trkpt><trkpt lat="43.77037215718914" lon="11.46853023060495"><ele>218.0</ele><time>2026-05-02T16:30:12.999Z</time></trkpt><trkpt lat="43.770352841118374" lon="11.468357530851419"><ele>216.0</ele><time>2026-05-02T16:30:13.999Z</time></trkpt><trkpt lat="43.77033753554877" lon="11.468184890672172"><ele>214.0</ele><time>2026-05-02T16:30:14.999Z</time></trkpt><trkpt lat="43.77032833808806" lon="11.468008814463243"><ele>212.0</ele><time>2026-05-02T16:30:15.999Z</time></trkpt><trkpt lat="43.77031531687804" lon="11.467834441049451"><ele>210.75</ele><time>2026-05-02T16:30:16.999Z</time></trkpt><trkpt lat="43.770301891712585" lon="11.467658598356259"><ele>209.5</ele><time>2026-05-02T16:30:17.999Z</time></trkpt><trkpt lat="43.7702923259227" lon="11.467484327156493"><ele>208.25</ele><time>2026-05-02T16:30:18.999Z</time></trkpt><trkpt lat="43.770291057959845" lon="11.467311168680245"><ele>207.0</ele><time>2026-05-02T16:30:19.999Z</time></trkpt><trkpt lat="43.77029589207547" lon="11.467140368719877"><ele>206.5</ele><time>2026-05-02T16:30:20.999Z</time></trkpt><trkpt lat="43.77030570617314" lon="11.46697087820352"><ele>206.0</ele><time>2026-05-02T16:30:21.999Z</time></trkpt><trkpt lat="43.77031575056238" lon="11.466798068880047"><ele>205.5</ele><time>2026-05-02T16:30:22.999Z</time></trkpt><trkpt lat="43.77032428690438" lon="11.4666112157661"><ele>205.0</ele><time>2026-05-02T16:30:23.999Z</time></trkpt><trkpt lat="43.77033055146496" lon="11.466434028210083"><ele>203.5</ele><time>2026-05-02T16:30:24.999Z</time></trkpt><trkpt lat="43.77034105618409" lon="11.466262690295027"><ele>202.0</ele><time>2026-05-02T16:30:25.999Z</time></trkpt><trkpt lat="43.77036420960196" lon="11.466104359652583"><ele>200.5</ele><time>2026-05-02T16:30:26.999Z</time></trkpt><trkpt lat="43.77041212464858" lon="11.465962528103399"><ele>199.0</ele><time>2026-05-02T16:30:27.999Z</time></trkpt><trkpt lat="43.77045536377534" lon="11.465831500850602"><ele>199.0</ele><time>2026-05-02T16:30:28.999Z</time></trkpt><trkpt lat="43.77045652630733" lon="11.465691989607919"><ele>199.0</ele><time>2026-05-02T16:30:29.999Z</time></trkpt><trkpt lat="43.77045008798456" lon="11.465547956080888"><ele>199.0</ele><time>2026-05-02T16:30:30.999Z</time></trkpt><trkpt lat="43.77046775979907" lon="11.465385997166493"><ele>199.0</ele><time>2026-05-02T16:30:31.999Z</time></trkpt><trkpt lat="43.77052792117202" lon="11.465211610044737"><ele>198.5</ele><time>2026-05-02T16:30:32.999Z</time></trkpt><trkpt lat="43.770582711513" lon="11.465023050071865"><ele>198.0</ele><time>2026-05-02T16:30:33.999Z</time></trkpt><trkpt lat="43.77062956972511" lon="11.464827976720516"><ele>197.5</ele><time>2026-05-02T16:30:34.999Z</time></trkpt><trkpt lat="43.770683901447185" lon="11.464658910925095"><ele>197.0</ele><time>2026-05-02T16:30:35.999Z</time></trkpt><trkpt lat="43.77072984589734" lon="11.464505531048292"><ele>195.75</ele><time>2026-05-02T16:30:36.999Z</time></trkpt><trkpt lat="43.77075838338794" lon="11.464349219520335"><ele>194.5</ele><time>2026-05-02T16:30:37.999Z</time></trkpt><trkpt lat="43.77076894773736" lon="11.464189759649294"><ele>193.25</ele><time>2026-05-02T16:30:38.999Z</time></trkpt><trkpt lat="43.77076394035721" lon="11.464003547445897"><ele>192.0</ele><time>2026-05-02T16:30:39.999Z</time></trkpt><trkpt lat="43.77074926739754" lon="11.46380953879019"><ele>190.66666666666666</ele><time>2026-05-02T16:30:40.999Z</time></trkpt><trkpt lat="43.77073119229268" lon="11.463585682344082"><ele>189.33333333333331</ele><time>2026-05-02T16:30:41.999Z</time></trkpt><trkpt lat="43.77072509700761" lon="11.463319154231964"><ele>188.0</ele><time>2026-05-02T16:30:42.999Z</time></trkpt><trkpt lat="43.770722006911484" lon="11.463084558603885"><ele>186.5</ele><time>2026-05-02T16:30:43.999Z</time></trkpt><trkpt lat="43.770719789989336" lon="11.462918584649213"><ele>185.0</ele><time>2026-05-02T16:30:44.999Z</time></trkpt><trkpt lat="43.77071046048591" lon="11.462750781760217"><ele>183.5</ele><time>2026-05-02T16:30:45.999Z</time></trkpt><trkpt lat="43.77069501948752" lon="11.462583546948968"><ele>182.0</ele><time>2026-05-02T16:30:46.999Z</time></trkpt><trkpt lat="43.770683243551424" lon="11.462428612281181"><ele>182.0</ele><time>2026-05-02T16:30:47.999Z</time></trkpt><trkpt lat="43.77067098689286" lon="11.462289192780613"><ele>182.0</ele><time>2026-05-02T16:30:48.999Z</time></trkpt><trkpt lat="43.77066380927129" lon="11.462165823421879"><ele>182.0</ele><time>2026-05-02T16:30:49.999Z</time></trkpt><trkpt lat="43.77067472990494" lon="11.462062879092143"><ele>182.0</ele><time>2026-05-02T16:30:50.999Z</time></trkpt><trkpt lat="43.770710968461714" lon="11.461984315312977"><ele>182.0</ele><time>2026-05-02T16:30:51.999Z</time></trkpt><trkpt lat="43.770790151949306" lon="11.461963952433099"><ele>182.0</ele><time>2026-05-02T16:30:52.999Z</time></trkpt><trkpt lat="43.77089688961629" lon="11.461881713710765"><ele>181.6</ele><time>2026-05-02T16:30:53.999Z</time></trkpt><trkpt lat="43.770992978061635" lon="11.461820494332345"><ele>181.2</ele><time>2026-05-02T16:30:54.999Z</time></trkpt><trkpt lat="43.77108728844173" lon="11.461760648572197"><ele>180.8</ele><time>2026-05-02T16:30:55.999Z</time></trkpt><trkpt lat="43.77119083506915" lon="11.461685709991027"><ele>180.4</ele><time>2026-05-02T16:30:56.999Z</time></trkpt><trkpt lat="43.77129748959385" lon="11.461617126175893"><ele>180.0</ele><time>2026-05-02T16:30:57.999Z</time></trkpt><trkpt lat="43.77140035623432" lon="11.461551829728062"><ele>180.0</ele><time>2026-05-02T16:30:58.999Z</time></trkpt><trkpt lat="43.771513384034954" lon="11.46148968482901"><ele>180.0</ele><time>2026-05-02T16:30:59.999Z</time></trkpt><trkpt lat="43.77164439472381" lon="11.461448798858058"><ele>180.0</ele><time>2026-05-02T16:31:00.999Z</time></trkpt><trkpt lat="43.77177744900227" lon="11.461392978559083"><ele>180.0</ele><time>2026-05-02T16:31:01.999Z</time></trkpt><trkpt lat="43.77188517031281" lon="11.461332196541056"><ele>180.6</ele><time>2026-05-02T16:31:02.999Z</time></trkpt><trkpt lat="43.771979630886634" lon="11.461305921727707"><ele>181.2</ele><time>2026-05-02T16:31:03.999Z</time></trkpt><trkpt lat="43.77207370642022" lon="11.461280566858209"><ele>181.8</ele><time>2026-05-02T16:31:04.999Z</time></trkpt><trkpt lat="43.772168774100074" lon="11.461250148183503"><ele>182.4</ele><time>2026-05-02T16:31:05.999Z</time></trkpt><trkpt lat="43.77226313506355" lon="11.461218307029077"><ele>183.0</ele><time>2026-05-02T16:31:06.999Z</time></trkpt><trkpt lat="43.772350802070676" lon="11.461174350168514"><ele>178.60000000000002</ele><time>2026-05-02T16:31:07.999Z</time></trkpt><trkpt lat="43.772437512583494" lon="11.461106583505638"><ele>174.20000000000002</ele><time>2026-05-02T16:31:08.999Z</time></trkpt><trkpt lat="43.772518571337926" lon="11.46101406843897"><ele>169.8</ele><time>2026-05-02T16:31:09.999Z</time></trkpt><trkpt lat="43.77258011642835" lon="11.460902822204913"><ele>165.4</ele><time>2026-05-02T16:31:10.999Z</time></trkpt><trkpt lat="43.77261305504901" lon="11.460768688016287"><ele>161.0</ele><time>2026-05-02T16:31:12Z</time></trkpt><trkpt lat="43.77263355585051" lon="11.460622895719728"><ele>161.0</ele><time>2026-05-02T16:31:13Z</time></trkpt><trkpt lat="43.772664272051976" lon="11.460481021102948"><ele>161.0</ele><time>2026-05-02T16:31:14Z</time></trkpt><trkpt lat="43.7726959772357" lon="11.460340386353675"><ele>161.0</ele><time>2026-05-02T16:31:15Z</time></trkpt><trkpt lat="43.77273713944988" lon="11.460201773819273"><ele>161.0</ele><time>2026-05-02T16:31:16Z</time></trkpt><trkpt lat="43.772788027248225" lon="11.460067166425155"><ele>161.0</ele><time>2026-05-02T16:31:17Z</time></trkpt><trkpt lat="43.772842361729225" lon="11.459947010207522"><ele>162.5</ele><time>2026-05-02T16:31:18Z</time></trkpt><trkpt lat="43.77289004717045" lon="11.45981881431323"><ele>164.0</ele><time>2026-05-02T16:31:19Z</time></trkpt><trkpt lat="43.77293689825162" lon="11.459655848657476"><ele>165.5</ele><time>2026-05-02T16:31:20Z</time></trkpt><trkpt lat="43.772926718629186" lon="11.459479717761553"><ele>167.0</ele><time>2026-05-02T16:31:21Z</time></trkpt><trkpt lat="43.77291271058221" lon="11.459321108094732"><ele>167.0</ele><time>2026-05-02T16:31:22Z</time></trkpt><trkpt lat="43.772898600464686" lon="11.459180368305383"><ele>167.0</ele><time>2026-05-02T16:31:23Z</time></trkpt><trkpt lat="43.772898682174485" lon="11.459047974711495"><ele>167.0</ele><time>2026-05-02T16:31:24Z</time></trkpt><trkpt lat="43.77291975486756" lon="11.45890937064955"><ele>167.0</ele><time>2026-05-02T16:31:25Z</time></trkpt><trkpt lat="43.772955636427575" lon="11.458759522370716"><ele>167.0</ele><time>2026-05-02T16:31:26Z</time></trkpt><trkpt lat="43.77300158304901" lon="11.45861997309574"><ele>166.0</ele><time>2026-05-02T16:31:27Z</time></trkpt><trkpt lat="43.773041695171436" lon="11.458488830096925"><ele>165.0</ele><time>2026-05-02T16:31:28Z</time></trkpt><trkpt lat="43.77306767330983" lon="11.458369804771834"><ele>164.0</ele><time>2026-05-02T16:31:29Z</time></trkpt><trkpt lat="43.77307528105" lon="11.458255918048357"><ele>163.0</ele><time>2026-05-02T16:31:30Z</time></trkpt><trkpt lat="43.773049168469576" lon="11.458125458794447"><ele>162.0</ele><time>2026-05-02T16:31:31Z</time></trkpt><trkpt lat="43.77298799380732" lon="11.457974093674615"><ele>162.25</ele><time>2026-05-02T16:31:32Z</time></trkpt><trkpt lat="43.77289961688411" lon="11.457802246135335"><ele>162.5</ele><time>2026-05-02T16:31:33Z</time></trkpt><trkpt lat="43.7728195596581" lon="11.457633739826097"><ele>162.75</ele><time>2026-05-02T16:31:34Z</time></trkpt><trkpt lat="43.7727512124831" lon="11.457481926051805"><ele>163.0</ele><time>2026-05-02T16:31:35Z</time></trkpt><trkpt lat="43.77268791403713" lon="11.45732967857329"><ele>154.75</ele><time>2026-05-02T16:31:36Z</time></trkpt><trkpt lat="43.77265718331456" lon="11.457164396848627"><ele>146.5</ele><time>2026-05-02T16:31:37Z</time></trkpt><trkpt lat="43.77262087282943" lon="11.456992631670383"><ele>138.25</ele><time>2026-05-02T16:31:38Z</time></trkpt><trkpt lat="43.772603133282196" lon="11.45680016232517"><ele>130.0</ele><time>2026-05-02T16:31:39Z</time></trkpt><trkpt lat="43.77257971567801" lon="11.456577836286048"><ele>129.66666666666669</ele><time>2026-05-02T16:31:40Z</time></trkpt><trkpt lat="43.772564089090196" lon="11.456343917121893"><ele>129.33333333333334</ele><time>2026-05-02T16:31:41Z</time></trkpt><trkpt lat="43.772546282063914" lon="11.456122129282074"><ele>129.0</ele><time>2026-05-02T16:31:42Z</time></trkpt><trkpt lat="43.772533877017" lon="11.455922616333746"><ele>128.5</ele><time>2026-05-02T16:31:43Z</time></trkpt><trkpt lat="43.772524551936044" lon="11.45573769981718"><ele>128.0</ele><time>2026-05-02T16:31:44Z</time></trkpt><trkpt lat="43.77253978614315" lon="11.455559377021284"><ele>127.5</ele><time>2026-05-02T16:31:45Z</time></trkpt><trkpt lat="43.77258758794266" lon="11.455398886522937"><ele>127.0</ele><time>2026-05-02T16:31:46Z</time></trkpt><trkpt lat="43.77262893919195" lon="11.455239177760273"><ele>130.66666666666669</ele><time>2026-05-02T16:31:47Z</time></trkpt><trkpt lat="43.772751796972415" lon="11.455089605625458"><ele>134.33333333333334</ele><time>2026-05-02T16:31:48Z</time></trkpt><trkpt lat="43.77284051050534" lon="11.454913906383512"><ele>138.0</ele><time>2026-05-02T16:31:49Z</time></trkpt><trkpt lat="43.77292674011592" lon="11.454728835240893"><ele>134.33333333333334</ele><time>2026-05-02T16:31:50Z</time></trkpt><trkpt lat="43.773000575986266" lon="11.454533880431669"><ele>130.66666666666669</ele><time>2026-05-02T16:31:51Z</time></trkpt><trkpt lat="43.77306255705227" lon="11.454326239469113"><ele>127.0</ele><time>2026-05-02T16:31:52Z</time></trkpt><trkpt lat="43.773108386038295" lon="11.454088665624345"><ele>127.0</ele><time>2026-05-02T16:31:53Z</time></trkpt><trkpt lat="43.77315460676932" lon="11.453838877863978"><ele>127.0</ele><time>2026-05-02T16:31:54Z</time></trkpt><trkpt lat="43.77321305887548" lon="11.45359200973421"><ele>127.0</ele><time>2026-05-02T16:31:55Z</time></trkpt><trkpt lat="43.77328763573113" lon="11.453346800017075"><ele>128.33333333333334</ele><time>2026-05-02T16:31:56Z</time></trkpt><trkpt lat="43.773379496047745" lon="11.453093821849576"><ele>129.66666666666666</ele><time>2026-05-02T16:31:57Z</time></trkpt><trkpt lat="43.77347726834579" lon="11.452853342096196"><ele>131.0</ele><time>2026-05-02T16:31:58Z</time></trkpt><trkpt lat="43.77357233519864" lon="11.452630375120368"><ele>131.0</ele><time>2026-05-02T16:31:59Z</time></trkpt><trkpt lat="43.77366243710037" lon="11.452421393390201"><ele>131.0</ele><time>2026-05-02T16:32:00Z</time></trkpt><trkpt lat="43.77374143365585" lon="11.452221647906514"><ele>131.0</ele><time>2026-05-02T16:32:01Z</time></trkpt><trkpt lat="43.77381987768427" lon="11.452041932484336"><ele>126.5</ele><time>2026-05-02T16:32:02Z</time></trkpt><trkpt lat="43.773885018291196" lon="11.451893390059888"><ele>122.0</ele><time>2026-05-02T16:32:03Z</time></trkpt><trkpt lat="43.77393159804487" lon="11.45177042230295"><ele>117.5</ele><time>2026-05-02T16:32:04Z</time></trkpt><trkpt lat="43.77398346145254" lon="11.451689697945932"><ele>113.0</ele><time>2026-05-02T16:32:05Z</time></trkpt><trkpt lat="43.77389723641224" lon="11.451521269052353"><ele>113.0</ele><time>2026-05-02T16:32:08Z</time></trkpt><trkpt lat="43.773831900468494" lon="11.451463854330791"><ele>113.00000000000001</ele><time>2026-05-02T16:32:11Z</time></trkpt><trkpt lat="43.77377522173075" lon="11.451410165137514"><ele>113.00000000000001</ele><time>2026-05-02T16:32:13.999Z</time></trkpt><trkpt lat="43.77369896912626" lon="11.451380481200403"><ele>113.0</ele><time>2026-05-02T16:32:21.999Z</time></trkpt><trkpt lat="43.77368826045983" lon="11.451195626261812"><ele>113.0</ele><time>2026-05-02T16:32:23.999Z</time></trkpt><trkpt lat="43.77369159588037" lon="11.451064080084823"><ele>110.5</ele><time>2026-05-02T16:32:24.999Z</time></trkpt><trkpt lat="43.77370031195165" lon="11.450901769781428"><ele>108.0</ele><time>2026-05-02T16:32:25.999Z</time></trkpt><trkpt lat="43.77370316059263" lon="11.45073173238066"><ele>105.5</ele><time>2026-05-02T16:32:26.999Z</time></trkpt><trkpt lat="43.77369540343864" lon="11.450550970272738"><ele>103.0</ele><time>2026-05-02T16:32:27.999Z</time></trkpt><trkpt lat="43.77367642317746" lon="11.450369926765543"><ele>102.0</ele><time>2026-05-02T16:32:28.999Z</time></trkpt><trkpt lat="43.773635139929716" lon="11.450192390652925"><ele>101.0</ele><time>2026-05-02T16:32:29.999Z</time></trkpt><trkpt lat="43.77357080961813" lon="11.450033521147672"><ele>100.0</ele><time>2026-05-02T16:32:30.999Z</time></trkpt><trkpt lat="43.77347978241571" lon="11.44987743816142"><ele>99.0</ele><time>2026-05-02T16:32:31.999Z</time></trkpt><trkpt lat="43.773367562851526" lon="11.449730618975025"><ele>96.66666666666667</ele><time>2026-05-02T16:32:32.999Z</time></trkpt><trkpt lat="43.7732372578018" lon="11.44960471710349"><ele>94.33333333333334</ele><time>2026-05-02T16:32:33.999Z</time></trkpt><trkpt lat="43.7730803330912" lon="11.449504587278241"><ele>92.0</ele><time>2026-05-02T16:32:34.999Z</time></trkpt><trkpt lat="43.7729044671882" lon="11.44943688899852"><ele>92.0</ele><time>2026-05-02T16:32:35.999Z</time></trkpt><trkpt lat="43.772719289437404" lon="11.449371491141834"><ele>92.0</ele><time>2026-05-02T16:32:36.999Z</time></trkpt><trkpt lat="43.7725538927064" lon="11.449253186059474"><ele>92.0</ele><time>2026-05-02T16:32:37.999Z</time></trkpt><trkpt lat="43.77241095477435" lon="11.449077484389575"><ele>90.66666666666667</ele><time>2026-05-02T16:32:38.999Z</time></trkpt><trkpt lat="43.77228094017523" lon="11.44885077692683"><ele>89.33333333333333</ele><time>2026-05-02T16:32:39.999Z</time></trkpt><trkpt lat="43.77216446788031" lon="11.44859915102176"><ele>88.0</ele><time>2026-05-02T16:32:40.999Z</time></trkpt><trkpt lat="43.772028899843086" lon="11.448327426244791"><ele>86.5</ele><time>2026-05-02T16:32:41.999Z</time></trkpt><trkpt lat="43.77190927325626" lon="11.448044850698617"><ele>85.0</ele><time>2026-05-02T16:32:42.999Z</time></trkpt><trkpt lat="43.77179845374238" lon="11.447757275453302"><ele>84.5</ele><time>2026-05-02T16:32:43.999Z</time></trkpt><trkpt lat="43.771695372882505" lon="11.447455871182363"><ele>84.0</ele><time>2026-05-02T16:32:44.999Z</time></trkpt><trkpt lat="43.77161036502729" lon="11.44713650739659"><ele>84.0</ele><time>2026-05-02T16:32:45.999Z</time></trkpt><trkpt lat="43.77155239114284" lon="11.446812241672463"><ele>84.0</ele><time>2026-05-02T16:32:46.999Z</time></trkpt><trkpt lat="43.77150928666453" lon="11.446472357445243"><ele>83.0</ele><time>2026-05-02T16:32:47.999Z</time></trkpt><trkpt lat="43.77147639836045" lon="11.446141192729815"><ele>82.0</ele><time>2026-05-02T16:32:48.999Z</time></trkpt><trkpt lat="43.77145331782769" lon="11.445827149027988"><ele>82.0</ele><time>2026-05-02T16:32:49.999Z</time></trkpt><trkpt lat="43.77142983383357" lon="11.445514614643105"><ele>82.0</ele><time>2026-05-02T16:32:50.999Z</time></trkpt><trkpt lat="43.77140634858973" lon="11.445191913789312"><ele>82.5</ele><time>2026-05-02T16:32:51.999Z</time></trkpt><trkpt lat="43.771381977690666" lon="11.444865053331457"><ele>83.0</ele><time>2026-05-02T16:32:52.999Z</time></trkpt><trkpt lat="43.77135727681367" lon="11.444539339441251"><ele>83.0</ele><time>2026-05-02T16:32:53.999Z</time></trkpt><trkpt lat="43.77133218366256" lon="11.444211712005698"><ele>83.0</ele><time>2026-05-02T16:32:54.999Z</time></trkpt><trkpt lat="43.77130533925964" lon="11.44388725341006"><ele>82.0</ele><time>2026-05-02T16:32:55.999Z</time></trkpt><trkpt lat="43.77127687791175" lon="11.443554942220654"><ele>81.0</ele><time>2026-05-02T16:32:56.999Z</time></trkpt><trkpt lat="43.771250417185456" lon="11.443226413018841"><ele>80.5</ele><time>2026-05-02T16:32:57.999Z</time></trkpt><trkpt lat="43.77122284991888" lon="11.442895097486373"><ele>80.0</ele><time>2026-05-02T16:32:58.999Z</time></trkpt><trkpt lat="43.7711905712245" lon="11.442562420304867"><ele>80.0</ele><time>2026-05-02T16:32:59.999Z</time></trkpt><trkpt lat="43.77115156295783" lon="11.442240155814668"><ele>80.0</ele><time>2026-05-02T16:33:00.999Z</time></trkpt><trkpt lat="43.77110000405408" lon="11.441921819240665"><ele>80.0</ele><time>2026-05-02T16:33:01.999Z</time></trkpt><trkpt lat="43.77103399686918" lon="11.441609009560915"><ele>80.0</ele><time>2026-05-02T16:33:02.999Z</time></trkpt><trkpt lat="43.7709519538158" lon="11.441297295834362"><ele>80.0</ele><time>2026-05-02T16:33:03.999Z</time></trkpt><trkpt lat="43.77085622599294" lon="11.44099462189798"><ele>80.0</ele><time>2026-05-02T16:33:04.999Z</time></trkpt><trkpt lat="43.7707526760857" lon="11.44070121009301"><ele>81.0</ele><time>2026-05-02T16:33:05.999Z</time></trkpt><trkpt lat="43.770648089132095" lon="11.44041603534154"><ele>82.0</ele><time>2026-05-02T16:33:06.999Z</time></trkpt><trkpt lat="43.77055040003875" lon="11.44013760882439"><ele>82.0</ele><time>2026-05-02T16:33:07.999Z</time></trkpt><trkpt lat="43.770457146009946" lon="11.43987310354574"><ele>82.0</ele><time>2026-05-02T16:33:08.999Z</time></trkpt><trkpt lat="43.77037027342836" lon="11.43962764922562"><ele>82.0</ele><time>2026-05-02T16:33:09.999Z</time></trkpt><trkpt lat="43.770291675671274" lon="11.4394128365169"><ele>82.25</ele><time>2026-05-02T16:33:10.999Z</time></trkpt><trkpt lat="43.770223117508564" lon="11.439213043894748"><ele>82.5</ele><time>2026-05-02T16:33:11.999Z</time></trkpt><trkpt lat="43.77015624258196" lon="11.439026245944614"><ele>82.75</ele><time>2026-05-02T16:33:12.999Z</time></trkpt><trkpt lat="43.770094944010914" lon="11.438853483777898"><ele>83.0</ele><time>2026-05-02T16:33:13.999Z</time></trkpt><trkpt lat="43.77003565992097" lon="11.438684918185611"><ele>83.0</ele><time>2026-05-02T16:33:14.999Z</time></trkpt><trkpt lat="43.7699759279282" lon="11.438510571831836"><ele>83.0</ele><time>2026-05-02T16:33:15.999Z</time></trkpt><trkpt lat="43.769915612201984" lon="11.438317863815096"><ele>83.0</ele><time>2026-05-02T16:33:16.999Z</time></trkpt><trkpt lat="43.76984962429332" lon="11.43811077591957"><ele>83.0</ele><time>2026-05-02T16:33:18Z</time></trkpt><trkpt lat="43.76977610677993" lon="11.437889416686241"><ele>83.0</ele><time>2026-05-02T16:33:19Z</time></trkpt><trkpt lat="43.76970438579779" lon="11.437654408990621"><ele>83.0</ele><time>2026-05-02T16:33:20Z</time></trkpt><trkpt lat="43.7696341340584" lon="11.437395324182111"><ele>83.0</ele><time>2026-05-02T16:33:21Z</time></trkpt><trkpt lat="43.76957352187416" lon="11.43712313810936"><ele>83.0</ele><time>2026-05-02T16:33:22Z</time></trkpt><trkpt lat="43.76951692161734" lon="11.43683854025984"><ele>83.0</ele><time>2026-05-02T16:33:23Z</time></trkpt><trkpt lat="43.76946253533752" lon="11.43653613227984"><ele>83.5</ele><time>2026-05-02T16:33:24Z</time></trkpt><trkpt lat="43.76941270060577" lon="11.436231326903497"><ele>84.0</ele><time>2026-05-02T16:33:25Z</time></trkpt><trkpt lat="43.7693771794511" lon="11.435923317623883"><ele>84.0</ele><time>2026-05-02T16:33:26Z</time></trkpt><trkpt lat="43.76935925787974" lon="11.435618077703396"><ele>84.0</ele><time>2026-05-02T16:33:27Z</time></trkpt><trkpt lat="43.76935256576645" lon="11.435323779338344"><ele>84.0</ele><time>2026-05-02T16:33:28Z</time></trkpt><trkpt lat="43.769346694684586" lon="11.435044527858848"><ele>83.33333333333333</ele><time>2026-05-02T16:33:29Z</time></trkpt><trkpt lat="43.769344762988254" lon="11.434768242513085"><ele>82.66666666666666</ele><time>2026-05-02T16:33:30Z</time></trkpt><trkpt lat="43.76935550665825" lon="11.434491820507617"><ele>82.0</ele><time>2026-05-02T16:33:31Z</time></trkpt><trkpt lat="43.769382659515706" lon="11.434209776483959"><ele>82.0</ele><time>2026-05-02T16:33:32Z</time></trkpt><trkpt lat="43.76941842240951" lon="11.43393219210813"><ele>82.0</ele><time>2026-05-02T16:33:33Z</time></trkpt><trkpt lat="43.76945632921622" lon="11.433665737941848"><ele>82.0</ele><time>2026-05-02T16:33:34Z</time></trkpt><trkpt lat="43.76950037800141" lon="11.43341849985596"><ele>82.0</ele><time>2026-05-02T16:33:35Z</time></trkpt><trkpt lat="43.76954451846461" lon="11.4331689489656"><ele>82.0</ele><time>2026-05-02T16:33:36Z</time></trkpt><trkpt lat="43.76959919164582" lon="11.432919539057457"><ele>82.0</ele><time>2026-05-02T16:33:37Z</time></trkpt><trkpt lat="43.76966160178858" lon="11.432683503248532"><ele>82.0</ele><time>2026-05-02T16:33:38Z</time></trkpt><trkpt lat="43.76972909893915" lon="11.432435483534595"><ele>82.0</ele><time>2026-05-02T16:33:39Z</time></trkpt><trkpt lat="43.76981458188972" lon="11.432171536141908"><ele>82.0</ele><time>2026-05-02T16:33:40Z</time></trkpt><trkpt lat="43.76991039768587" lon="11.431896907093464"><ele>81.33333333333333</ele><time>2026-05-02T16:33:41Z</time></trkpt><trkpt lat="43.7700056979418" lon="11.431640524351803"><ele>80.66666666666667</ele><time>2026-05-02T16:33:42Z</time></trkpt><trkpt lat="43.770094977587554" lon="11.431404205477252"><ele>80.0</ele><time>2026-05-02T16:33:43Z</time></trkpt><trkpt lat="43.77018269694662" lon="11.431167472358933"><ele>80.66666666666667</ele><time>2026-05-02T16:33:44Z</time></trkpt><trkpt lat="43.770265171816156" lon="11.43094467774656"><ele>81.33333333333333</ele><time>2026-05-02T16:33:45Z</time></trkpt><trkpt lat="43.770341441845275" lon="11.430709453500175"><ele>82.0</ele><time>2026-05-02T16:33:46Z</time></trkpt><trkpt lat="43.77041685326973" lon="11.430488634044895"><ele>81.66666666666666</ele><time>2026-05-02T16:33:47Z</time></trkpt><trkpt lat="43.77049475200333" lon="11.430279655098865"><ele>81.33333333333333</ele><time>2026-05-02T16:33:48Z</time></trkpt><trkpt lat="43.770567838156076" lon="11.430064324838677"><ele>81.0</ele><time>2026-05-02T16:33:49Z</time></trkpt><trkpt lat="43.77064103348627" lon="11.429832561796836"><ele>81.0</ele><time>2026-05-02T16:33:50Z</time></trkpt><trkpt lat="43.77072036000335" lon="11.42958209280385"><ele>81.0</ele><time>2026-05-02T16:33:51Z</time></trkpt><trkpt lat="43.77079050555744" lon="11.429333016005604"><ele>81.0</ele><time>2026-05-02T16:33:52Z</time></trkpt><trkpt lat="43.770867834172286" lon="11.429073036955634"><ele>81.0</ele><time>2026-05-02T16:33:53Z</time></trkpt><trkpt lat="43.7709509293323" lon="11.428806319077"><ele>81.0</ele><time>2026-05-02T16:33:54Z</time></trkpt><trkpt lat="43.77101971477318" lon="11.428548778234097"><ele>81.0</ele><time>2026-05-02T16:33:55Z</time></trkpt><trkpt lat="43.771078529533355" lon="11.428288688378005"><ele>81.33333333333333</ele><time>2026-05-02T16:33:56Z</time></trkpt><trkpt lat="43.77112460163481" lon="11.428026269466827"><ele>81.66666666666666</ele><time>2026-05-02T16:33:57Z</time></trkpt><trkpt lat="43.77118592837686" lon="11.42775700857938"><ele>82.0</ele><time>2026-05-02T16:33:58Z</time></trkpt><trkpt lat="43.7712621067621" lon="11.42749266447628"><ele>82.0</ele><time>2026-05-02T16:33:59Z</time></trkpt><trkpt lat="43.771328860090286" lon="11.427215372607625"><ele>82.0</ele><time>2026-05-02T16:34:00Z</time></trkpt><trkpt lat="43.77138203160598" lon="11.426927093942538"><ele>82.0</ele><time>2026-05-02T16:34:01Z</time></trkpt><trkpt lat="43.7714595134186" lon="11.426643720434726"><ele>81.66666666666666</ele><time>2026-05-02T16:34:02Z</time></trkpt><trkpt lat="43.77153446211902" lon="11.426358423465752"><ele>81.33333333333333</ele><time>2026-05-02T16:34:03Z</time></trkpt><trkpt lat="43.771603717213694" lon="11.426072248004914"><ele>81.0</ele><time>2026-05-02T16:34:04Z</time></trkpt><trkpt lat="43.771673334041786" lon="11.42577793800892"><ele>81.0</ele><time>2026-05-02T16:34:05Z</time></trkpt><trkpt lat="43.77174060395037" lon="11.425485929637356"><ele>81.0</ele><time>2026-05-02T16:34:06Z</time></trkpt><trkpt lat="43.771810449433765" lon="11.425190851526523"><ele>81.0</ele><time>2026-05-02T16:34:07Z</time></trkpt><trkpt lat="43.77188077212873" lon="11.424900222428333"><ele>81.33333333333333</ele><time>2026-05-02T16:34:08Z</time></trkpt><trkpt lat="43.771951570331545" lon="11.42460815914601"><ele>81.66666666666666</ele><time>2026-05-02T16:34:09Z</time></trkpt><trkpt lat="43.77202212552984" lon="11.424316813980429"><ele>82.0</ele><time>2026-05-02T16:34:09.999Z</time></trkpt><trkpt lat="43.772093082554534" lon="11.42402054128984"><ele>82.0</ele><time>2026-05-02T16:34:10.999Z</time></trkpt><trkpt lat="43.77216276177288" lon="11.423724242422319"><ele>82.0</ele><time>2026-05-02T16:34:11.999Z</time></trkpt><trkpt lat="43.77222913807632" lon="11.42344160100899"><ele>82.0</ele><time>2026-05-02T16:34:12.999Z</time></trkpt><trkpt lat="43.7722912083548" lon="11.423175259738574"><ele>81.66666666666666</ele><time>2026-05-02T16:34:13.999Z</time></trkpt><trkpt lat="43.7723542673135" lon="11.42291518845112"><ele>81.33333333333333</ele><time>2026-05-02T16:34:14.999Z</time></trkpt><trkpt lat="43.772408742278905" lon="11.422656200895377"><ele>81.0</ele><time>2026-05-02T16:34:15.999Z</time></trkpt><trkpt lat="43.77246935798121" lon="11.422397430388127"><ele>80.66666666666667</ele><time>2026-05-02T16:34:16.999Z</time></trkpt><trkpt lat="43.77252839350613" lon="11.422134576838966"><ele>80.33333333333334</ele><time>2026-05-02T16:34:17.999Z</time></trkpt><trkpt lat="43.77259075877027" lon="11.421873469215006"><ele>80.0</ele><time>2026-05-02T16:34:18.999Z</time></trkpt><trkpt lat="43.77265527928833" lon="11.421607014768076"><ele>80.33333333333334</ele><time>2026-05-02T16:34:19.999Z</time></trkpt><trkpt lat="43.77271452448496" lon="11.421341281950227"><ele>80.66666666666667</ele><time>2026-05-02T16:34:20.999Z</time></trkpt><trkpt lat="43.77277331586862" lon="11.421069509196357"><ele>81.0</ele><time>2026-05-02T16:34:21.999Z</time></trkpt><trkpt lat="43.77283108239241" lon="11.42079835381636"><ele>81.0</ele><time>2026-05-02T16:34:22.999Z</time></trkpt><trkpt lat="43.772889217508954" lon="11.420515899071212"><ele>81.0</ele><time>2026-05-02T16:34:23.999Z</time></trkpt><trkpt lat="43.77296887825962" lon="11.420243543187812"><ele>81.0</ele><time>2026-05-02T16:34:24.999Z</time></trkpt><trkpt lat="43.773039293014826" lon="11.419942410893707"><ele>81.0</ele><time>2026-05-02T16:34:25.999Z</time></trkpt><trkpt lat="43.77310931091885" lon="11.41964297604912"><ele>81.0</ele><time>2026-05-02T16:34:26.999Z</time></trkpt><trkpt lat="43.77318082346251" lon="11.419337149207019"><ele>81.0</ele><time>2026-05-02T16:34:27.999Z</time></trkpt><trkpt lat="43.77325235349277" lon="11.41903124749727"><ele>81.0</ele><time>2026-05-02T16:34:28.999Z</time></trkpt><trkpt lat="43.773314251604184" lon="11.418712167427344"><ele>80.5</ele><time>2026-05-02T16:34:29.999Z</time></trkpt><trkpt lat="43.77339574510114" lon="11.418401891864868"><ele>80.0</ele><time>2026-05-02T16:34:30.999Z</time></trkpt><trkpt lat="43.77347129754363" lon="11.418110953151707"><ele>80.33333333333334</ele><time>2026-05-02T16:34:31.999Z</time></trkpt><trkpt lat="43.77353271952791" lon="11.417875159459454"><ele>80.66666666666667</ele><time>2026-05-02T16:34:32.999Z</time></trkpt><trkpt lat="43.773599422840086" lon="11.41766733059674"><ele>81.0</ele><time>2026-05-02T16:34:33.999Z</time></trkpt><trkpt lat="43.77368583004132" lon="11.417481281153556"><ele>81.0</ele><time>2026-05-02T16:34:34.999Z</time></trkpt><trkpt lat="43.77379169002128" lon="11.417325857935827"><ele>81.0</ele><time>2026-05-02T16:34:35.999Z</time></trkpt><trkpt lat="43.773897416251984" lon="11.417200040015205"><ele>81.0</ele><time>2026-05-02T16:34:36.999Z</time></trkpt><trkpt lat="43.773997878450075" lon="11.417107907080332"><ele>81.0</ele><time>2026-05-02T16:34:37.999Z</time></trkpt><trkpt lat="43.77408989806927" lon="11.417043701573565"><ele>81.0</ele><time>2026-05-02T16:34:38.999Z</time></trkpt><trkpt lat="43.77416577517636" lon="11.417030742927432"><ele>81.0</ele><time>2026-05-02T16:34:39.999Z</time></trkpt><trkpt lat="43.77426637786055" lon="11.417049313169029"><ele>81.0</ele><time>2026-05-02T16:34:41.999Z</time></trkpt><trkpt lat="43.774362220583356" lon="11.417120466169996"><ele>81.0</ele><time>2026-05-02T16:34:43.999Z</time></trkpt><trkpt lat="43.7744476195998" lon="11.417134500916324"><ele>81.0</ele><time>2026-05-02T16:34:45.999Z</time></trkpt><trkpt lat="43.77452852744774" lon="11.417098479737026"><ele>81.19999999999999</ele><time>2026-05-02T16:41:31.999Z</time></trkpt><trkpt lat="43.77457835568201" lon="11.417036757098275"><ele>81.39999999999999</ele><time>2026-05-02T16:41:32.999Z</time></trkpt><trkpt lat="43.77464180700546" lon="11.416961377231889"><ele>81.6</ele><time>2026-05-02T16:41:33.999Z</time></trkpt><trkpt lat="43.77472564181082" lon="11.416884444885003"><ele>81.8</ele><time>2026-05-02T16:41:34.999Z</time></trkpt><trkpt lat="43.774809587413145" lon="11.416770591570794"><ele>82.0</ele><time>2026-05-02T16:41:35.999Z</time></trkpt><trkpt lat="43.7749104120034" lon="11.416647993026823"><ele>82.0</ele><time>2026-05-02T16:41:36.999Z</time></trkpt><trkpt lat="43.77502156917158" lon="11.416541541400084"><ele>82.0</ele><time>2026-05-02T16:41:37.999Z</time></trkpt><trkpt lat="43.77514600647411" lon="11.416446521339271"><ele>82.0</ele><time>2026-05-02T16:41:38.999Z</time></trkpt><trkpt lat="43.77528277080056" lon="11.416366516499616"><ele>82.0</ele><time>2026-05-02T16:41:39.999Z</time></trkpt><trkpt lat="43.77543108579368" lon="11.416293959382664"><ele>81.33333333333333</ele><time>2026-05-02T16:41:40.999Z</time></trkpt><trkpt lat="43.775598643011065" lon="11.416210435189148"><ele>80.66666666666667</ele><time>2026-05-02T16:41:41.999Z</time></trkpt><trkpt lat="43.775767651137855" lon="11.416117487114002"><ele>80.0</ele><time>2026-05-02T16:41:42.999Z</time></trkpt><trkpt lat="43.7759364624684" lon="11.416014896266068"><ele>81.33333333333334</ele><time>2026-05-02T16:41:43.999Z</time></trkpt><trkpt lat="43.776102571403655" lon="11.41588812121396"><ele>82.66666666666667</ele><time>2026-05-02T16:41:44.999Z</time></trkpt><trkpt lat="43.776265061392664" lon="11.415717520246382"><ele>84.0</ele><time>2026-05-02T16:41:45.999Z</time></trkpt><trkpt lat="43.77642796094004" lon="11.415515033095717"><ele>83.66666666666667</ele><time>2026-05-02T16:41:46.999Z</time></trkpt><trkpt lat="43.77656776859873" lon="11.415288991818938"><ele>83.33333333333334</ele><time>2026-05-02T16:41:47.999Z</time></trkpt><trkpt lat="43.77668844218124" lon="11.415015876292813"><ele>83.0</ele><time>2026-05-02T16:41:48.999Z</time></trkpt><trkpt lat="43.776809097153254" lon="11.414721245926478"><ele>91.0</ele><time>2026-05-02T16:41:49.999Z</time></trkpt><trkpt lat="43.776927140986686" lon="11.414439480171165"><ele>99.0</ele><time>2026-05-02T16:41:50.999Z</time></trkpt><trkpt lat="43.77702239139404" lon="11.414158546249894"><ele>99.0</ele><time>2026-05-02T16:41:51.999Z</time></trkpt><trkpt lat="43.77712708471174" lon="11.413903880947531"><ele>99.0</ele><time>2026-05-02T16:41:52.999Z</time></trkpt><trkpt lat="43.77722866955931" lon="11.41366847327361"><ele>99.0</ele><time>2026-05-02T16:41:53.999Z</time></trkpt><trkpt lat="43.77732405385961" lon="11.413442435397418"><ele>95.33333333333333</ele><time>2026-05-02T16:41:54.999Z</time></trkpt><trkpt lat="43.77741675003785" lon="11.413224636235352"><ele>91.66666666666666</ele><time>2026-05-02T16:41:55.999Z</time></trkpt><trkpt lat="43.77750988014507" lon="11.413012808095159"><ele>88.0</ele><time>2026-05-02T16:41:56.999Z</time></trkpt><trkpt lat="43.7776165830482" lon="11.412790114412887"><ele>86.0</ele><time>2026-05-02T16:41:57.999Z</time></trkpt><trkpt lat="43.77774165193456" lon="11.41256100066359"><ele>84.0</ele><time>2026-05-02T16:41:58.999Z</time></trkpt><trkpt lat="43.77788009217823" lon="11.41231640274729"><ele>82.0</ele><time>2026-05-02T16:41:59.999Z</time></trkpt><trkpt lat="43.77800735476262" lon="11.412090553941622"><ele>82.0</ele><time>2026-05-02T16:42:00.999Z</time></trkpt><trkpt lat="43.778129245127744" lon="11.411879886850578"><ele>82.0</ele><time>2026-05-02T16:42:01.999Z</time></trkpt><trkpt lat="43.778243662314665" lon="11.411676450462458"><ele>82.0</ele><time>2026-05-02T16:42:02.999Z</time></trkpt><trkpt lat="43.77836228466021" lon="11.411464398090507"><ele>82.66666666666666</ele><time>2026-05-02T16:42:03.999Z</time></trkpt><trkpt lat="43.77848216785941" lon="11.411256667660734"><ele>83.33333333333333</ele><time>2026-05-02T16:42:04.999Z</time></trkpt><trkpt lat="43.77860517061477" lon="11.411052512820998"><ele>84.0</ele><time>2026-05-02T16:42:05.999Z</time></trkpt><trkpt lat="43.77873133690969" lon="11.410855183645532"><ele>84.0</ele><time>2026-05-02T16:42:06.999Z</time></trkpt><trkpt lat="43.77884945057207" lon="11.410673770379113"><ele>84.0</ele><time>2026-05-02T16:42:07.999Z</time></trkpt><trkpt lat="43.778966352401284" lon="11.410494459108145"><ele>84.0</ele><time>2026-05-02T16:42:08.999Z</time></trkpt><trkpt lat="43.779082894653804" lon="11.410317375273376"><ele>84.66666666666667</ele><time>2026-05-02T16:42:09.999Z</time></trkpt><trkpt lat="43.77919455745825" lon="11.410131064220446"><ele>85.33333333333334</ele><time>2026-05-02T16:42:10.999Z</time></trkpt><trkpt lat="43.77929672504554" lon="11.409920010287715"><ele>86.0</ele><time>2026-05-02T16:42:11.999Z</time></trkpt><trkpt lat="43.77937730998872" lon="11.409717202419701"><ele>85.5</ele><time>2026-05-02T16:42:12.999Z</time></trkpt><trkpt lat="43.77944236470457" lon="11.40952023816553"><ele>85.0</ele><time>2026-05-02T16:42:13.999Z</time></trkpt><trkpt lat="43.77948829306911" lon="11.409350348486626"><ele>84.5</ele><time>2026-05-02T16:42:14.999Z</time></trkpt><trkpt lat="43.77954479895384" lon="11.40916848735507"><ele>84.0</ele><time>2026-05-02T16:42:15.999Z</time></trkpt><trkpt lat="43.77960244727135" lon="11.408986716628561"><ele>83.0</ele><time>2026-05-02T16:42:16.999Z</time></trkpt><trkpt lat="43.77965509814666" lon="11.408814770586032"><ele>82.0</ele><time>2026-05-02T16:42:17.999Z</time></trkpt><trkpt lat="43.779719996415274" lon="11.40866036304426"><ele>81.0</ele><time>2026-05-02T16:42:18.999Z</time></trkpt><trkpt lat="43.77981097592975" lon="11.408517709268299"><ele>80.0</ele><time>2026-05-02T16:42:19.999Z</time></trkpt><trkpt lat="43.77992419820287" lon="11.408392547719412"><ele>80.0</ele><time>2026-05-02T16:42:20.999Z</time></trkpt><trkpt lat="43.78005240970756" lon="11.408285197465696"><ele>80.0</ele><time>2026-05-02T16:42:21.999Z</time></trkpt><trkpt lat="43.78018415637665" lon="11.408176387286789"><ele>80.0</ele><time>2026-05-02T16:42:22.999Z</time></trkpt><trkpt lat="43.78031335885114" lon="11.408048698264391"><ele>80.75</ele><time>2026-05-02T16:42:23.999Z</time></trkpt><trkpt lat="43.780436904624906" lon="11.407935673049398"><ele>81.5</ele><time>2026-05-02T16:42:24.999Z</time></trkpt><trkpt lat="43.78055065911731" lon="11.407837012330553"><ele>82.25</ele><time>2026-05-02T16:42:25.999Z</time></trkpt><trkpt lat="43.780658460218405" lon="11.407736370813247"><ele>83.0</ele><time>2026-05-02T16:42:26.999Z</time></trkpt><trkpt lat="43.78075758496568" lon="11.407642974585745"><ele>83.0</ele><time>2026-05-02T16:42:27.999Z</time></trkpt><trkpt lat="43.780865145191875" lon="11.407540507382"><ele>83.0</ele><time>2026-05-02T16:42:28.999Z</time></trkpt><trkpt lat="43.78097382802117" lon="11.407438069335972"><ele>83.0</ele><time>2026-05-02T16:42:29.999Z</time></trkpt><trkpt lat="43.781078857743694" lon="11.40734222336578"><ele>83.0</ele><time>2026-05-02T16:42:30.999Z</time></trkpt><trkpt lat="43.78119268493734" lon="11.407234758706968"><ele>83.0</ele><time>2026-05-02T16:42:31.999Z</time></trkpt><trkpt lat="43.78131796382834" lon="11.407122663322273"><ele>83.0</ele><time>2026-05-02T16:42:32.999Z</time></trkpt><trkpt lat="43.781458993099726" lon="11.407008097852948"><ele>83.0</ele><time>2026-05-02T16:42:33.999Z</time></trkpt><trkpt lat="43.781602926390306" lon="11.406903196856637"><ele>83.0</ele><time>2026-05-02T16:42:34.999Z</time></trkpt><trkpt lat="43.781740278014844" lon="11.406819053730455"><ele>83.0</ele><time>2026-05-02T16:42:35.999Z</time></trkpt><trkpt lat="43.78187388125756" lon="11.406733777379259"><ele>83.0</ele><time>2026-05-02T16:42:36.999Z</time></trkpt><trkpt lat="43.78199863231162" lon="11.406660056191297"><ele>83.0</ele><time>2026-05-02T16:42:37.999Z</time></trkpt><trkpt lat="43.78211000012048" lon="11.40658953596453"><ele>83.0</ele><time>2026-05-02T16:42:38.999Z</time></trkpt><trkpt lat="43.78225465973615" lon="11.406498379500722"><ele>83.0</ele><time>2026-05-02T16:42:39.999Z</time></trkpt><trkpt lat="43.782376161947994" lon="11.4063981651746"><ele>83.0</ele><time>2026-05-02T16:42:40.999Z</time></trkpt><trkpt lat="43.782486273674984" lon="11.406251565689809"><ele>82.66666666666667</ele><time>2026-05-02T16:42:41.999Z</time></trkpt><trkpt lat="43.7825897485267" lon="11.40605610829904"><ele>82.33333333333333</ele><time>2026-05-02T16:42:42.999Z</time></trkpt><trkpt lat="43.782696804270756" lon="11.405839050793787"><ele>82.0</ele><time>2026-05-02T16:42:43.999Z</time></trkpt><trkpt lat="43.782809304272284" lon="11.405604315945773"><ele>83.0</ele><time>2026-05-02T16:42:44.999Z</time></trkpt><trkpt lat="43.78293266531023" lon="11.405378018392447"><ele>84.0</ele><time>2026-05-02T16:42:45.999Z</time></trkpt><trkpt lat="43.78304408940588" lon="11.40517256546166"><ele>85.0</ele><time>2026-05-02T16:42:46.999Z</time></trkpt><trkpt lat="43.783140041331485" lon="11.404966200655902"><ele>85.0</ele><time>2026-05-02T16:42:47.999Z</time></trkpt><trkpt lat="43.78322841802859" lon="11.404751559532443"><ele>85.0</ele><time>2026-05-02T16:42:48.999Z</time></trkpt><trkpt lat="43.7833112758796" lon="11.404538825253036"><ele>85.0</ele><time>2026-05-02T16:42:49.999Z</time></trkpt><trkpt lat="43.78339274421126" lon="11.404335983852437"><ele>84.66666666666666</ele><time>2026-05-02T16:42:50.999Z</time></trkpt><trkpt lat="43.78348369519164" lon="11.404141919879951"><ele>84.33333333333333</ele><time>2026-05-02T16:42:51.999Z</time></trkpt><trkpt lat="43.783585120074605" lon="11.403975936357188"><ele>84.0</ele><time>2026-05-02T16:42:52.999Z</time></trkpt><trkpt lat="43.78367139096066" lon="11.403800207104014"><ele>84.0</ele><time>2026-05-02T16:42:53.999Z</time></trkpt><trkpt lat="43.78376604781421" lon="11.403649691889653"><ele>84.0</ele><time>2026-05-02T16:42:54.999Z</time></trkpt><trkpt lat="43.78386542189025" lon="11.403507553906074"><ele>84.0</ele><time>2026-05-02T16:42:55.999Z</time></trkpt><trkpt lat="43.78396491281211" lon="11.403343233324227"><ele>84.0</ele><time>2026-05-02T16:42:56.999Z</time></trkpt><trkpt lat="43.78406363147343" lon="11.403175030473404"><ele>84.0</ele><time>2026-05-02T16:42:57.999Z</time></trkpt><trkpt lat="43.7841578257992" lon="11.40300747645403"><ele>84.0</ele><time>2026-05-02T16:42:58.999Z</time></trkpt><trkpt lat="43.78424230566316" lon="11.402851694939502"><ele>84.0</ele><time>2026-05-02T16:42:59.999Z</time></trkpt><trkpt lat="43.78431884249482" lon="11.402690181584228"><ele>84.0</ele><time>2026-05-02T16:43:00.999Z</time></trkpt><trkpt lat="43.78438930560752" lon="11.402524839945215"><ele>83.80000000000001</ele><time>2026-05-02T16:43:01.999Z</time></trkpt><trkpt lat="43.78445608541327" lon="11.402370947020138"><ele>83.60000000000001</ele><time>2026-05-02T16:43:02.999Z</time></trkpt><trkpt lat="43.784518642432396" lon="11.402225028805102"><ele>83.4</ele><time>2026-05-02T16:43:03.999Z</time></trkpt><trkpt lat="43.78457335855762" lon="11.40210312510512"><ele>83.2</ele><time>2026-05-02T16:43:04.999Z</time></trkpt><trkpt lat="43.78461991175245" lon="11.401997249802102"><ele>83.0</ele><time>2026-05-02T16:43:05.999Z</time></trkpt><trkpt lat="43.78466396401749" lon="11.401897812564114"><ele>83.0</ele><time>2026-05-02T16:43:06.999Z</time></trkpt><trkpt lat="43.78471060657528" lon="11.40178172922662"><ele>83.0</ele><time>2026-05-02T16:43:08.999Z</time></trkpt><trkpt lat="43.78470753927689" lon="11.401693628852955"><ele>83.0</ele><time>2026-05-02T16:43:18.999Z</time></trkpt><trkpt lat="43.78467612084929" lon="11.401610922644501"><ele>83.0</ele><time>2026-05-02T16:43:19.999Z</time></trkpt><trkpt lat="43.784651533760055" lon="11.401519484513855"><ele>83.0</ele><time>2026-05-02T16:43:20.999Z</time></trkpt><trkpt lat="43.784593928229164" lon="11.40146665216788"><ele>83.0</ele><time>2026-05-02T16:43:22.999Z</time></trkpt><trkpt lat="43.78466504735966" lon="11.401365547402486"><ele>83.0</ele><time>2026-05-02T16:43:26.999Z</time></trkpt><trkpt lat="43.784576381529156" lon="11.401342498456463"><ele>83.0</ele><time>2026-05-02T16:45:39.999Z</time></trkpt><trkpt lat="43.784534855753336" lon="11.401416655648669"><ele>83.0</ele><time>2026-05-02T16:45:40.999Z</time></trkpt><trkpt lat="43.78461852312319" lon="11.401365902566408"><ele>83.0</ele><time>2026-05-02T16:46:56Z</time></trkpt><trkpt lat="43.7846624753953" lon="11.401284154898658"><ele>83.0</ele><time>2026-05-02T16:52:06Z</time></trkpt><trkpt lat="43.78470162829966" lon="11.401197157847538"><ele>83.0</ele><time>2026-05-02T16:52:08Z</time></trkpt><trkpt lat="43.78478295449505" lon="11.401174798508471"><ele>83.0</ele><time>2026-05-02T16:52:11Z</time></trkpt><trkpt lat="43.784847157137975" lon="11.40120808648263"><ele>83.0</ele><time>2026-05-02T16:52:13Z</time></trkpt><trkpt lat="43.784992973752686" lon="11.40117857181185"><ele>83.0</ele><time>2026-05-02T16:52:22Z</time></trkpt><trkpt lat="43.78504062273408" lon="11.401077936634545"><ele>83.0</ele><time>2026-05-02T16:52:23Z</time></trkpt><trkpt lat="43.78509851166095" lon="11.40095567457686"><ele>83.0</ele><time>2026-05-02T16:52:24Z</time></trkpt><trkpt lat="43.78516103442843" lon="11.400825419869737"><ele>82.75</ele><time>2026-05-02T16:52:25Z</time></trkpt><trkpt lat="43.78521160765623" lon="11.400667863020148"><ele>82.5</ele><time>2026-05-02T16:52:26Z</time></trkpt><trkpt lat="43.785284506293124" lon="11.40052359656546"><ele>82.25</ele><time>2026-05-02T16:52:27Z</time></trkpt><trkpt lat="43.78535800844007" lon="11.400373690576014"><ele>82.0</ele><time>2026-05-02T16:52:28Z</time></trkpt><trkpt lat="43.785430275833164" lon="11.400219947081826"><ele>82.0</ele><time>2026-05-02T16:52:29Z</time></trkpt><trkpt lat="43.785520742930565" lon="11.400078469380459"><ele>82.0</ele><time>2026-05-02T16:52:30Z</time></trkpt><trkpt lat="43.78559523504554" lon="11.399921717855934"><ele>82.0</ele><time>2026-05-02T16:52:31Z</time></trkpt><trkpt lat="43.78566951458959" lon="11.399764706285433"><ele>82.0</ele><time>2026-05-02T16:52:32Z</time></trkpt><trkpt lat="43.78574412266373" lon="11.399603339651788"><ele>81.25</ele><time>2026-05-02T16:52:33Z</time></trkpt><trkpt lat="43.78580856033288" lon="11.399427175518083"><ele>80.5</ele><time>2026-05-02T16:52:34Z</time></trkpt><trkpt lat="43.78587704750512" lon="11.39927257758136"><ele>79.75</ele><time>2026-05-02T16:52:35Z</time></trkpt><trkpt lat="43.785940267878644" lon="11.39912343425087"><ele>79.0</ele><time>2026-05-02T16:52:36Z</time></trkpt><trkpt lat="43.786004508845515" lon="11.398984324412865"><ele>79.0</ele><time>2026-05-02T16:52:37Z</time></trkpt><trkpt lat="43.78606620506507" lon="11.398853980013252"><ele>79.0</ele><time>2026-05-02T16:52:38Z</time></trkpt><trkpt lat="43.78612828576579" lon="11.39872132121699"><ele>79.0</ele><time>2026-05-02T16:52:39Z</time></trkpt><trkpt lat="43.78618382075838" lon="11.398579509108892"><ele>79.0</ele><time>2026-05-02T16:52:40Z</time></trkpt><trkpt lat="43.7862373521626" lon="11.398435867553191"><ele>79.0</ele><time>2026-05-02T16:52:41Z</time></trkpt><trkpt lat="43.786261097454556" lon="11.39829696846044"><ele>79.0</ele><time>2026-05-02T16:52:42Z</time></trkpt><trkpt lat="43.78630180052842" lon="11.398187939697321"><ele>79.0</ele><time>2026-05-02T16:52:43Z</time></trkpt><trkpt lat="43.78636377342956" lon="11.398072442347205"><ele>79.0</ele><time>2026-05-02T16:52:44Z</time></trkpt><trkpt lat="43.78644547644961" lon="11.397954972673341"><ele>79.0</ele><time>2026-05-02T16:52:45Z</time></trkpt><trkpt lat="43.78649185119274" lon="11.397770412677549"><ele>78.33333333333333</ele><time>2026-05-02T16:52:46Z</time></trkpt><trkpt lat="43.78656298752064" lon="11.397591525319653"><ele>77.66666666666667</ele><time>2026-05-02T16:52:47Z</time></trkpt><trkpt lat="43.78665888193314" lon="11.397421274362532"><ele>77.0</ele><time>2026-05-02T16:52:48Z</time></trkpt><trkpt lat="43.786736870951906" lon="11.397230563590954"><ele>77.25</ele><time>2026-05-02T16:52:49Z</time></trkpt><trkpt lat="43.78680834352938" lon="11.397052043742388"><ele>77.5</ele><time>2026-05-02T16:52:50Z</time></trkpt><trkpt lat="43.78687700582062" lon="11.39688054289186"><ele>77.75</ele><time>2026-05-02T16:52:51Z</time></trkpt><trkpt lat="43.786942102492034" lon="11.396717940674401"><ele>78.0</ele><time>2026-05-02T16:52:52Z</time></trkpt><trkpt lat="43.786991729637776" lon="11.396552603394163"><ele>78.0</ele><time>2026-05-02T16:52:53Z</time></trkpt><trkpt lat="43.787053998023424" lon="11.396397374130537"><ele>78.0</ele><time>2026-05-02T16:52:54Z</time></trkpt><trkpt lat="43.78712110178426" lon="11.396232763834977"><ele>78.0</ele><time>2026-05-02T16:52:55Z</time></trkpt><trkpt lat="43.78719253647606" lon="11.396060238880816"><ele>78.0</ele><time>2026-05-02T16:52:56Z</time></trkpt><trkpt lat="43.78725942340202" lon="11.395892618331146"><ele>78.0</ele><time>2026-05-02T16:52:57Z</time></trkpt><trkpt lat="43.78733664814944" lon="11.395746015091115"><ele>78.0</ele><time>2026-05-02T16:52:58Z</time></trkpt><trkpt lat="43.78739333393919" lon="11.395606294301754"><ele>78.0</ele><time>2026-05-02T16:52:59Z</time></trkpt><trkpt lat="43.78742576371668" lon="11.395484053931735"><ele>78.0</ele><time>2026-05-02T16:53:00Z</time></trkpt><trkpt lat="43.78746578611867" lon="11.395410541428763"><ele>78.0</ele><time>2026-05-02T16:53:01Z</time></trkpt><trkpt lat="43.78752831542983" lon="11.395327372521917"><ele>78.0</ele><time>2026-05-02T16:53:03Z</time></trkpt><trkpt lat="43.78756824962313" lon="11.395207162046146"><ele>78.0</ele><time>2026-05-02T16:53:05Z</time></trkpt><trkpt lat="43.787635412950976" lon="11.395100627466997"><ele>78.0</ele><time>2026-05-02T16:53:08Z</time></trkpt><trkpt lat="43.7877337012491" lon="11.3949916806255"><ele>78.0</ele><time>2026-05-02T16:53:10Z</time></trkpt><trkpt lat="43.78779901681041" lon="11.394942510218407"><ele>78.0</ele><time>2026-05-02T16:53:11Z</time></trkpt><trkpt lat="43.7878734951846" lon="11.394885481814256"><ele>78.0</ele><time>2026-05-02T16:53:12Z</time></trkpt><trkpt lat="43.78795081452581" lon="11.394828033828686"><ele>78.0</ele><time>2026-05-02T16:53:13Z</time></trkpt><trkpt lat="43.78803643789614" lon="11.394767051575977"><ele>78.0</ele><time>2026-05-02T16:53:14Z</time></trkpt><trkpt lat="43.788132392930464" lon="11.394724444078388"><ele>78.0</ele><time>2026-05-02T16:53:15Z</time></trkpt><trkpt lat="43.788219785106584" lon="11.394662542395865"><ele>78.0</ele><time>2026-05-02T16:53:16Z</time></trkpt><trkpt lat="43.78828970094152" lon="11.394612032926373"><ele>78.0</ele><time>2026-05-02T16:53:17Z</time></trkpt><trkpt lat="43.78838519938144" lon="11.394543042300372"><ele>78.0</ele><time>2026-05-02T16:53:18Z</time></trkpt><trkpt lat="43.78849939517983" lon="11.394463259796172"><ele>78.0</ele><time>2026-05-02T16:53:19Z</time></trkpt><trkpt lat="43.78861190116979" lon="11.394383944892477"><ele>78.0</ele><time>2026-05-02T16:53:20Z</time></trkpt><trkpt lat="43.7887020368988" lon="11.394296984871014"><ele>78.0</ele><time>2026-05-02T16:53:21Z</time></trkpt><trkpt lat="43.788794545351664" lon="11.394238533232032"><ele>78.0</ele><time>2026-05-02T16:53:22Z</time></trkpt><trkpt lat="43.78888964263407" lon="11.394176716374819"><ele>78.0</ele><time>2026-05-02T16:53:23Z</time></trkpt><trkpt lat="43.78898772465104" lon="11.394101359578006"><ele>78.0</ele><time>2026-05-02T16:53:24Z</time></trkpt><trkpt lat="43.7890925854424" lon="11.39402261732341"><ele>78.0</ele><time>2026-05-02T16:53:25Z</time></trkpt><trkpt lat="43.78920219176449" lon="11.393940308335376"><ele>78.0</ele><time>2026-05-02T16:53:26Z</time></trkpt><trkpt lat="43.789300604065645" lon="11.393871592934683"><ele>78.0</ele><time>2026-05-02T16:53:27Z</time></trkpt><trkpt lat="43.789383564622284" lon="11.393807379470497"><ele>78.0</ele><time>2026-05-02T16:53:28Z</time></trkpt><trkpt lat="43.78945574475162" lon="11.393751797447093"><ele>78.0</ele><time>2026-05-02T16:53:29Z</time></trkpt><trkpt lat="43.789525141673714" lon="11.393696877122517"><ele>78.0</ele><time>2026-05-02T16:53:30Z</time></trkpt><trkpt lat="43.789588327539555" lon="11.393639341376023"><ele>78.0</ele><time>2026-05-02T16:53:31Z</time></trkpt><trkpt lat="43.78964953790534" lon="11.39359010810803"><ele>78.2</ele><time>2026-05-02T16:53:32Z</time></trkpt><trkpt lat="43.789757623964135" lon="11.393488861151402"><ele>78.4</ele><time>2026-05-02T16:53:34Z</time></trkpt><trkpt lat="43.78982207607261" lon="11.393430626911469"><ele>78.60000000000001</ele><time>2026-05-02T16:53:35Z</time></trkpt><trkpt lat="43.78989364360448" lon="11.393364315195376"><ele>78.8</ele><time>2026-05-02T16:53:36Z</time></trkpt><trkpt lat="43.7899568274205" lon="11.39329648541097"><ele>79.0</ele><time>2026-05-02T16:53:37Z</time></trkpt><trkpt lat="43.790019609157994" lon="11.393218666268211"><ele>79.0</ele><time>2026-05-02T16:53:38Z</time></trkpt><trkpt lat="43.79008577354876" lon="11.393130025685092"><ele>79.0</ele><time>2026-05-02T16:53:39Z</time></trkpt><trkpt lat="43.79015611356118" lon="11.393045452880717"><ele>79.0</ele><time>2026-05-02T16:53:40Z</time></trkpt><trkpt lat="43.79022263761498" lon="11.392973683141486"><ele>79.0</ele><time>2026-05-02T16:53:41Z</time></trkpt><trkpt lat="43.79029722845509" lon="11.3929118965412"><ele>79.0</ele><time>2026-05-02T16:53:42Z</time></trkpt><trkpt lat="43.790374097461" lon="11.392861896054352"><ele>79.0</ele><time>2026-05-02T16:53:43Z</time></trkpt><trkpt lat="43.790450482894265" lon="11.392832417730494"><ele>78.5</ele><time>2026-05-02T16:53:44Z</time></trkpt><trkpt lat="43.79053425716848" lon="11.392810388011057"><ele>78.0</ele><time>2026-05-02T16:53:45Z</time></trkpt><trkpt lat="43.79062213362598" lon="11.392788522491054"><ele>77.5</ele><time>2026-05-02T16:53:46Z</time></trkpt><trkpt lat="43.79070271586116" lon="11.392763197035872"><ele>77.0</ele><time>2026-05-02T16:53:47Z</time></trkpt><trkpt lat="43.790781374329356" lon="11.392738981559042"><ele>76.5</ele><time>2026-05-02T16:53:48Z</time></trkpt><trkpt lat="43.79085955723863" lon="11.392717417697908"><ele>76.0</ele><time>2026-05-02T16:53:49Z</time></trkpt><trkpt lat="43.790956484298995" lon="11.392685487461835"><ele>76.16666666666666</ele><time>2026-05-02T16:53:50Z</time></trkpt><trkpt lat="43.79103608582946" lon="11.392645057612565"><ele>76.33333333333333</ele><time>2026-05-02T16:53:51Z</time></trkpt><trkpt lat="43.791113001360614" lon="11.392596529712986"><ele>76.5</ele><time>2026-05-02T16:53:52Z</time></trkpt><trkpt lat="43.79117979294094" lon="11.392520574823267"><ele>76.66666666666667</ele><time>2026-05-02T16:53:53Z</time></trkpt><trkpt lat="43.79123585302184" lon="11.392423763025558"><ele>76.83333333333334</ele><time>2026-05-02T16:53:54Z</time></trkpt><trkpt lat="43.79127656399653" lon="11.392300389329677"><ele>77.0</ele><time>2026-05-02T16:53:55Z</time></trkpt><trkpt lat="43.79129710652135" lon="11.39216673560313"><ele>77.0</ele><time>2026-05-02T16:53:56Z</time></trkpt><trkpt lat="43.79130247277668" lon="11.392036317689668"><ele>77.0</ele><time>2026-05-02T16:53:57Z</time></trkpt><trkpt lat="43.79130236084004" lon="11.39190889917405"><ele>77.0</ele><time>2026-05-02T16:53:58Z</time></trkpt><trkpt lat="43.791304250000074" lon="11.391783612616651"><ele>77.0</ele><time>2026-05-02T16:53:59Z</time></trkpt><trkpt lat="43.791307921199945" lon="11.391657668857908"><ele>77.0</ele><time>2026-05-02T16:54:00Z</time></trkpt><trkpt lat="43.79131537825308" lon="11.391541269473242"><ele>77.0</ele><time>2026-05-02T16:54:01Z</time></trkpt><trkpt lat="43.79133778918039" lon="11.391421185537851"><ele>77.0</ele><time>2026-05-02T16:54:02Z</time></trkpt><trkpt lat="43.79137718828395" lon="11.391303786316033"><ele>77.0</ele><time>2026-05-02T16:54:03Z</time></trkpt><trkpt lat="43.79143490030432" lon="11.391192454601574"><ele>77.0</ele><time>2026-05-02T16:54:04Z</time></trkpt><trkpt lat="43.79150293375195" lon="11.391083309168843"><ele>77.0</ele><time>2026-05-02T16:54:05Z</time></trkpt><trkpt lat="43.791582464181474" lon="11.390989989787476"><ele>77.25</ele><time>2026-05-02T16:54:06Z</time></trkpt><trkpt lat="43.791663157013545" lon="11.390903105971987"><ele>77.5</ele><time>2026-05-02T16:54:07Z</time></trkpt><trkpt lat="43.79174936618729" lon="11.390801741570275"><ele>77.75</ele><time>2026-05-02T16:54:08Z</time></trkpt><trkpt lat="43.79184254673966" lon="11.39070469300097"><ele>78.0</ele><time>2026-05-02T16:54:09Z</time></trkpt><trkpt lat="43.79194201550827" lon="11.39060502391661"><ele>77.5</ele><time>2026-05-02T16:54:10Z</time></trkpt><trkpt lat="43.79204605755884" lon="11.390498322332098"><ele>77.0</ele><time>2026-05-02T16:54:11Z</time></trkpt><trkpt lat="43.79213802701935" lon="11.390371966624768"><ele>76.5</ele><time>2026-05-02T16:54:12Z</time></trkpt><trkpt lat="43.792223808473416" lon="11.390248571964287"><ele>76.0</ele><time>2026-05-02T16:54:13Z</time></trkpt><trkpt lat="43.79229880812994" lon="11.390126690899637"><ele>76.0</ele><time>2026-05-02T16:54:14Z</time></trkpt><trkpt lat="43.79235654463995" lon="11.390015154057558"><ele>76.0</ele><time>2026-05-02T16:54:15Z</time></trkpt><trkpt lat="43.79242235799971" lon="11.389932026875867"><ele>76.0</ele><time>2026-05-02T16:54:16Z</time></trkpt><trkpt lat="43.79246571858871" lon="11.389840003457518"><ele>76.0</ele><time>2026-05-02T16:54:17Z</time></trkpt><trkpt lat="43.79254179114694" lon="11.389747798979503"><ele>76.0</ele><time>2026-05-02T16:54:19Z</time></trkpt><trkpt lat="43.79261264550279" lon="11.38965591378863"><ele>76.0</ele><time>2026-05-02T16:55:03Z</time></trkpt><trkpt lat="43.79271297752305" lon="11.389596539014605"><ele>76.0</ele><time>2026-05-02T16:55:05Z</time></trkpt><trkpt lat="43.79283136525186" lon="11.389622699807683"><ele>76.0</ele><time>2026-05-02T16:55:07Z</time></trkpt><trkpt lat="43.792916550857385" lon="11.389656822163408"><ele>76.0</ele><time>2026-05-02T16:55:08Z</time></trkpt><trkpt lat="43.79300342951168" lon="11.38967777174784"><ele>76.0</ele><time>2026-05-02T16:55:09Z</time></trkpt><trkpt lat="43.79308857256731" lon="11.38972450932569"><ele>76.0</ele><time>2026-05-02T16:55:10Z</time></trkpt><trkpt lat="43.793167531250525" lon="11.38977384892727"><ele>76.0</ele><time>2026-05-02T16:55:11Z</time></trkpt><trkpt lat="43.79323849004162" lon="11.389815759419994"><ele>76.0</ele><time>2026-05-02T16:55:12Z</time></trkpt><trkpt lat="43.79329951722044" lon="11.389875707491639"><ele>76.0</ele><time>2026-05-02T16:55:13Z</time></trkpt><trkpt lat="43.79338782088621" lon="11.389909821240442"><ele>76.0</ele><time>2026-05-02T16:55:14Z</time></trkpt><trkpt lat="43.793466387096444" lon="11.389986326551359"><ele>76.0</ele><time>2026-05-02T16:55:15Z</time></trkpt><trkpt lat="43.7935460726604" lon="11.390025666998362"><ele>76.16666666666666</ele><time>2026-05-02T16:55:16Z</time></trkpt><trkpt lat="43.79362936531425" lon="11.390083952609398"><ele>76.33333333333333</ele><time>2026-05-02T16:55:17Z</time></trkpt><trkpt lat="43.793714938463225" lon="11.39012907417119"><ele>76.5</ele><time>2026-05-02T16:55:18Z</time></trkpt><trkpt lat="43.79379415241755" lon="11.390143547746566"><ele>76.66666666666667</ele><time>2026-05-02T16:55:19Z</time></trkpt><trkpt lat="43.79386822405799" lon="11.390149499810338"><ele>76.83333333333334</ele><time>2026-05-02T16:55:20Z</time></trkpt><trkpt lat="43.79394556005881" lon="11.390143068866255"><ele>77.0</ele><time>2026-05-02T16:55:21Z</time></trkpt><trkpt lat="43.794030631765494" lon="11.390122003938862"><ele>77.0</ele><time>2026-05-02T16:55:22Z</time></trkpt><trkpt lat="43.794128685827424" lon="11.390093801223754"><ele>77.0</ele><time>2026-05-02T16:55:23Z</time></trkpt><trkpt lat="43.79423226822422" lon="11.39007017098605"><ele>77.0</ele><time>2026-05-02T16:55:24Z</time></trkpt><trkpt lat="43.7943402424175" lon="11.390037199608246"><ele>77.0</ele><time>2026-05-02T16:55:25Z</time></trkpt><trkpt lat="43.79443494239827" lon="11.39000947354388"><ele>77.0</ele><time>2026-05-02T16:55:26Z</time></trkpt><trkpt lat="43.79453712860536" lon="11.389967256916275"><ele>77.0</ele><time>2026-05-02T16:55:27Z</time></trkpt><trkpt lat="43.794670648709676" lon="11.389939468019474"><ele>77.0</ele><time>2026-05-02T16:55:28Z</time></trkpt><trkpt lat="43.79481966260819" lon="11.389887314549394"><ele>77.0</ele><time>2026-05-02T16:55:29Z</time></trkpt><trkpt lat="43.79499033960788" lon="11.389828705031741"><ele>77.0</ele><time>2026-05-02T16:55:30Z</time></trkpt><trkpt lat="43.79513115950678" lon="11.389768828074706"><ele>77.0</ele><time>2026-05-02T16:55:31Z</time></trkpt><trkpt lat="43.79531123344572" lon="11.389730224351695"><ele>77.0</ele><time>2026-05-02T16:55:32Z</time></trkpt><trkpt lat="43.79544169874511" lon="11.38968836439272"><ele>77.2</ele><time>2026-05-02T16:55:33Z</time></trkpt><trkpt lat="43.795561626504586" lon="11.389660441837295"><ele>77.4</ele><time>2026-05-02T16:55:34Z</time></trkpt><trkpt lat="43.795677065457035" lon="11.38963584315742"><ele>77.6</ele><time>2026-05-02T16:55:35Z</time></trkpt><trkpt lat="43.795781648677504" lon="11.389609261694956"><ele>77.8</ele><time>2026-05-02T16:55:36Z</time></trkpt><trkpt lat="43.79586979740821" lon="11.389578483939898"><ele>78.0</ele><time>2026-05-02T16:55:37Z</time></trkpt><trkpt lat="43.79594403590615" lon="11.389583448250512"><ele>78.0</ele><time>2026-05-02T16:55:38Z</time></trkpt><trkpt lat="43.796053476587105" lon="11.389559171457474"><ele>78.0</ele><time>2026-05-02T16:55:40Z</time></trkpt><trkpt lat="43.79613509958135" lon="11.389541251134284"><ele>78.0</ele><time>2026-05-02T16:55:42Z</time></trkpt><trkpt lat="43.796270579076925" lon="11.389529923105432"><ele>78.0</ele><time>2026-05-02T16:55:44Z</time></trkpt><trkpt lat="43.79636669018065" lon="11.389532235893968"><ele>78.0</ele><time>2026-05-02T16:55:45Z</time></trkpt><trkpt lat="43.796463681687214" lon="11.389528090247632"><ele>78.0</ele><time>2026-05-02T16:55:46Z</time></trkpt><trkpt lat="43.796570908903554" lon="11.389524080462692"><ele>78.0</ele><time>2026-05-02T16:55:47Z</time></trkpt><trkpt lat="43.79668446310675" lon="11.389531622308722"><ele>78.0</ele><time>2026-05-02T16:55:48Z</time></trkpt><trkpt lat="43.796804255877255" lon="11.389556617409466"><ele>78.0</ele><time>2026-05-02T16:55:49Z</time></trkpt><trkpt lat="43.79692478064581" lon="11.389601310862618"><ele>78.0</ele><time>2026-05-02T16:55:50Z</time></trkpt><trkpt lat="43.79706341004065" lon="11.389649725588141"><ele>78.0</ele><time>2026-05-02T16:55:51Z</time></trkpt><trkpt lat="43.79722020788158" lon="11.38967844076156"><ele>78.0</ele><time>2026-05-02T16:55:52Z</time></trkpt><trkpt lat="43.7973919535274" lon="11.389706684502773"><ele>79.0</ele><time>2026-05-02T16:55:53Z</time></trkpt><trkpt lat="43.79756044609572" lon="11.38972046121397"><ele>80.0</ele><time>2026-05-02T16:55:54Z</time></trkpt><trkpt lat="43.79772771691324" lon="11.389740764354814"><ele>81.0</ele><time>2026-05-02T16:55:55Z</time></trkpt><trkpt lat="43.797878569557476" lon="11.389766317321113"><ele>81.5</ele><time>2026-05-02T16:55:56Z</time></trkpt><trkpt lat="43.79802135161238" lon="11.389791434126918"><ele>82.0</ele><time>2026-05-02T16:55:57Z</time></trkpt><trkpt lat="43.79815653530041" lon="11.38981457793439"><ele>82.5</ele><time>2026-05-02T16:55:58Z</time></trkpt><trkpt lat="43.79829688078294" lon="11.38985009250264"><ele>83.0</ele><time>2026-05-02T16:55:59Z</time></trkpt><trkpt lat="43.79845506969785" lon="11.389925720380718"><ele>82.66666666666667</ele><time>2026-05-02T16:56:00Z</time></trkpt><trkpt lat="43.7986060998346" lon="11.390036592260987"><ele>82.33333333333333</ele><time>2026-05-02T16:56:01Z</time></trkpt><trkpt lat="43.798754105859146" lon="11.390157881403749"><ele>82.0</ele><time>2026-05-02T16:56:02Z</time></trkpt><trkpt lat="43.798905648667876" lon="11.39026504016017"><ele>82.0</ele><time>2026-05-02T16:56:03Z</time></trkpt><trkpt lat="43.79905795522079" lon="11.390360812506175"><ele>82.0</ele><time>2026-05-02T16:56:04Z</time></trkpt><trkpt lat="43.79921850212827" lon="11.390455581793868"><ele>82.0</ele><time>2026-05-02T16:56:05Z</time></trkpt><trkpt lat="43.799383227821025" lon="11.39053748169968"><ele>87.66666666666666</ele><time>2026-05-02T16:56:06Z</time></trkpt><trkpt lat="43.79955514675109" lon="11.390611908961743"><ele>93.33333333333333</ele><time>2026-05-02T16:56:07Z</time></trkpt><trkpt lat="43.7997388312282" lon="11.390669579791386"><ele>99.0</ele><time>2026-05-02T16:56:08Z</time></trkpt><trkpt lat="43.79994029788976" lon="11.39067997059235"><ele>99.0</ele><time>2026-05-02T16:56:09Z</time></trkpt><trkpt lat="43.800139634825186" lon="11.390659280248455"><ele>99.0</ele><time>2026-05-02T16:56:10Z</time></trkpt><trkpt lat="43.800304920760624" lon="11.390607803599405"><ele>99.0</ele><time>2026-05-02T16:56:11Z</time></trkpt><trkpt lat="43.80045439793542" lon="11.390527872797737"><ele>97.66666666666667</ele><time>2026-05-02T16:56:12Z</time></trkpt><trkpt lat="43.80060059375164" lon="11.39039863520365"><ele>96.33333333333334</ele><time>2026-05-02T16:56:13Z</time></trkpt><trkpt lat="43.80074757036796" lon="11.390233155458143"><ele>95.0</ele><time>2026-05-02T16:56:14Z</time></trkpt><trkpt lat="43.80087319554949" lon="11.390094821297605"><ele>95.0</ele><time>2026-05-02T16:56:15Z</time></trkpt><trkpt lat="43.800988248217394" lon="11.389982693462951"><ele>95.0</ele><time>2026-05-02T16:56:16Z</time></trkpt><trkpt lat="43.80111373286122" lon="11.38993924401947"><ele>95.0</ele><time>2026-05-02T16:56:17Z</time></trkpt><trkpt lat="43.801239001600514" lon="11.389890546849669"><ele>95.0</ele><time>2026-05-02T16:56:18Z</time></trkpt><trkpt lat="43.80134956728324" lon="11.389927811461101"><ele>94.5</ele><time>2026-05-02T16:56:19Z</time></trkpt><trkpt lat="43.80144023065412" lon="11.389994586781997"><ele>94.0</ele><time>2026-05-02T16:56:20Z</time></trkpt><trkpt lat="43.80157304639254" lon="11.39008121296391"><ele>93.5</ele><time>2026-05-02T16:56:21Z</time></trkpt><trkpt lat="43.8017178592346" lon="11.390189302752152"><ele>93.0</ele><time>2026-05-02T16:56:22Z</time></trkpt><trkpt lat="43.801876473862464" lon="11.390314037812217"><ele>92.66666666666667</ele><time>2026-05-02T16:56:23Z</time></trkpt><trkpt lat="43.802029279558724" lon="11.390459943636404"><ele>92.33333333333334</ele><time>2026-05-02T16:56:24Z</time></trkpt><trkpt lat="43.8021602027774" lon="11.390609333833243"><ele>92.0</ele><time>2026-05-02T16:56:25Z</time></trkpt><trkpt lat="43.80227179060798" lon="11.390755910663508"><ele>92.0</ele><time>2026-05-02T16:56:26Z</time></trkpt><trkpt lat="43.80236589375049" lon="11.390880225454522"><ele>92.0</ele><time>2026-05-02T16:56:27Z</time></trkpt><trkpt lat="43.802463729319086" lon="11.39094731202083"><ele>92.0</ele><time>2026-05-02T16:56:28Z</time></trkpt><trkpt lat="43.80257617293409" lon="11.390949640718864"><ele>92.0</ele><time>2026-05-02T16:56:29Z</time></trkpt><trkpt lat="43.8027354453305" lon="11.390904222380787"><ele>91.33333333333334</ele><time>2026-05-02T16:56:30Z</time></trkpt><trkpt lat="43.80289217044592" lon="11.390880958118746"><ele>90.66666666666667</ele><time>2026-05-02T16:56:31Z</time></trkpt><trkpt lat="43.803057572207905" lon="11.390907620747395"><ele>90.0</ele><time>2026-05-02T16:56:32Z</time></trkpt><trkpt lat="43.80320967828711" lon="11.390945276417371"><ele>90.0</ele><time>2026-05-02T16:56:33Z</time></trkpt><trkpt lat="43.80340400476773" lon="11.390981946570964"><ele>90.0</ele><time>2026-05-02T16:56:34Z</time></trkpt><trkpt lat="43.80360859515047" lon="11.391071552140932"><ele>90.0</ele><time>2026-05-02T16:56:35Z</time></trkpt><trkpt lat="43.80380825310279" lon="11.391248368329501"><ele>91.0</ele><time>2026-05-02T16:56:36Z</time></trkpt><trkpt lat="43.80400872751604" lon="11.39141841624551"><ele>92.0</ele><time>2026-05-02T16:56:37Z</time></trkpt><trkpt lat="43.80422565053018" lon="11.3915816402393"><ele>97.5</ele><time>2026-05-02T16:56:38Z</time></trkpt><trkpt lat="43.80443404459884" lon="11.391779642500463"><ele>103.0</ele><time>2026-05-02T16:56:39Z</time></trkpt><trkpt lat="43.80463341570269" lon="11.39196698166934"><ele>103.0</ele><time>2026-05-02T16:56:40Z</time></trkpt><trkpt lat="43.80482551779342" lon="11.392144953395391"><ele>103.0</ele><time>2026-05-02T16:56:41Z</time></trkpt><trkpt lat="43.80502626153491" lon="11.392318751589384"><ele>104.0</ele><time>2026-05-02T16:56:42Z</time></trkpt><trkpt lat="43.805233513717766" lon="11.39248306849673"><ele>105.0</ele><time>2026-05-02T16:56:43Z</time></trkpt><trkpt lat="43.80545426101474" lon="11.39261721259859"><ele>105.0</ele><time>2026-05-02T16:56:44Z</time></trkpt><trkpt lat="43.80568558092031" lon="11.39272232944018"><ele>105.0</ele><time>2026-05-02T16:56:45Z</time></trkpt><trkpt lat="43.80593265204429" lon="11.392789998451944"><ele>109.0</ele><time>2026-05-02T16:56:46Z</time></trkpt><trkpt lat="43.806185445725994" lon="11.392838462347257"><ele>113.0</ele><time>2026-05-02T16:56:47Z</time></trkpt><trkpt lat="43.806412992114886" lon="11.392890189479099"><ele>113.0</ele><time>2026-05-02T16:56:48Z</time></trkpt><trkpt lat="43.80662767244011" lon="11.39295360905027"><ele>113.0</ele><time>2026-05-02T16:56:49Z</time></trkpt><trkpt lat="43.80685006014461" lon="11.392997650838936"><ele>113.0</ele><time>2026-05-02T16:56:50Z</time></trkpt><trkpt lat="43.807079505314505" lon="11.39299855128555"><ele>112.5</ele><time>2026-05-02T16:56:51Z</time></trkpt><trkpt lat="43.80731698959196" lon="11.392971765399043"><ele>112.0</ele><time>2026-05-02T16:56:52Z</time></trkpt><trkpt lat="43.80753860989602" lon="11.392912572491149"><ele>110.66666666666667</ele><time>2026-05-02T16:56:53Z</time></trkpt><trkpt lat="43.80774160011229" lon="11.392904290451071"><ele>109.33333333333334</ele><time>2026-05-02T16:56:54Z</time></trkpt><trkpt lat="43.80792390266072" lon="11.392940434712019"><ele>108.0</ele><time>2026-05-02T16:56:55Z</time></trkpt><trkpt lat="43.808110895062065" lon="11.393027613937765"><ele>105.0</ele><time>2026-05-02T16:56:56Z</time></trkpt><trkpt lat="43.80829329038405" lon="11.39316320549687"><ele>102.0</ele><time>2026-05-02T16:56:57Z</time></trkpt><trkpt lat="43.808480848700185" lon="11.39336585797917"><ele>99.0</ele><time>2026-05-02T16:56:58Z</time></trkpt><trkpt lat="43.80866966967438" lon="11.393587484544863"><ele>102.0</ele><time>2026-05-02T16:56:59Z</time></trkpt><trkpt lat="43.808853301934086" lon="11.393819411724698"><ele>105.0</ele><time>2026-05-02T16:57:00Z</time></trkpt><trkpt lat="43.80902732330629" lon="11.394068946492476"><ele>105.0</ele><time>2026-05-02T16:57:01Z</time></trkpt><trkpt lat="43.80918357675088" lon="11.394342425893273"><ele>105.0</ele><time>2026-05-02T16:57:02Z</time></trkpt><trkpt lat="43.80931687581956" lon="11.39463368486748"><ele>112.5</ele><time>2026-05-02T16:57:03Z</time></trkpt><trkpt lat="43.80942782575029" lon="11.394943785702504"><ele>120.0</ele><time>2026-05-02T16:57:04Z</time></trkpt><trkpt lat="43.80951536582279" lon="11.39526057206211"><ele>116.0</ele><time>2026-05-02T16:57:05Z</time></trkpt><trkpt lat="43.80957651364748" lon="11.395602619959"><ele>112.0</ele><time>2026-05-02T16:57:06Z</time></trkpt><trkpt lat="43.809628431967106" lon="11.39595634157729"><ele>112.0</ele><time>2026-05-02T16:57:07Z</time></trkpt><trkpt lat="43.80968563035204" lon="11.396276971408579"><ele>112.0</ele><time>2026-05-02T16:57:08Z</time></trkpt><trkpt lat="43.809731338650785" lon="11.396597934836457"><ele>110.0</ele><time>2026-05-02T16:57:09Z</time></trkpt><trkpt lat="43.80980384970971" lon="11.396911077559917"><ele>108.0</ele><time>2026-05-02T16:57:10Z</time></trkpt><trkpt lat="43.80991300284349" lon="11.3971825263077"><ele>109.5</ele><time>2026-05-02T16:57:11Z</time></trkpt><trkpt lat="43.81006170293184" lon="11.397427026414439"><ele>111.0</ele><time>2026-05-02T16:57:12Z</time></trkpt><trkpt lat="43.81025608338314" lon="11.397617618267734"><ele>111.0</ele><time>2026-05-02T16:57:13Z</time></trkpt><trkpt lat="43.8104567020935" lon="11.397744458423517"><ele>111.0</ele><time>2026-05-02T16:57:14Z</time></trkpt><trkpt lat="43.81068554830211" lon="11.397816853457414"><ele>111.0</ele><time>2026-05-02T16:57:15Z</time></trkpt><trkpt lat="43.810940083525566" lon="11.397852266410448"><ele>111.0</ele><time>2026-05-02T16:57:16Z</time></trkpt><trkpt lat="43.811209123619314" lon="11.397884743804003"><ele>114.5</ele><time>2026-05-02T16:57:17Z</time></trkpt><trkpt lat="43.81148144678594" lon="11.397912739331316"><ele>118.0</ele><time>2026-05-02T16:57:18Z</time></trkpt><trkpt lat="43.81175523207397" lon="11.397935870167075"><ele>116.0</ele><time>2026-05-02T16:57:19Z</time></trkpt><trkpt lat="43.81200786988374" lon="11.397967886633701"><ele>114.0</ele><time>2026-05-02T16:57:20Z</time></trkpt><trkpt lat="43.8122443171752" lon="11.397960305993555"><ele>114.0</ele><time>2026-05-02T16:57:21Z</time></trkpt><trkpt lat="43.812476578738845" lon="11.39793471920984"><ele>114.0</ele><time>2026-05-02T16:57:22Z</time></trkpt><trkpt lat="43.8127150716742" lon="11.3978645360741"><ele>110.0</ele><time>2026-05-02T16:57:23Z</time></trkpt><trkpt lat="43.81293669850587" lon="11.397752630061186"><ele>106.0</ele><time>2026-05-02T16:57:24Z</time></trkpt><trkpt lat="43.81315436883352" lon="11.397603254671965"><ele>106.0</ele><time>2026-05-02T16:57:25Z</time></trkpt><trkpt lat="43.813356057198206" lon="11.397424477730524"><ele>106.0</ele><time>2026-05-02T16:57:26Z</time></trkpt><trkpt lat="43.81354933152188" lon="11.397215498101001"><ele>108.0</ele><time>2026-05-02T16:57:27Z</time></trkpt><trkpt lat="43.81374856695304" lon="11.397001009186301"><ele>110.0</ele><time>2026-05-02T16:57:28Z</time></trkpt><trkpt lat="43.81394678826102" lon="11.396806133385008"><ele>110.0</ele><time>2026-05-02T16:57:29Z</time></trkpt><trkpt lat="43.81414625389927" lon="11.39660555272456"><ele>110.0</ele><time>2026-05-02T16:57:30Z</time></trkpt><trkpt lat="43.8143482709667" lon="11.396404237543747"><ele>110.5</ele><time>2026-05-02T16:57:31Z</time></trkpt><trkpt lat="43.81454442116483" lon="11.396202161099449"><ele>111.0</ele><time>2026-05-02T16:57:32Z</time></trkpt><trkpt lat="43.81474840055727" lon="11.395995157347196"><ele>111.0</ele><time>2026-05-02T16:57:33Z</time></trkpt><trkpt lat="43.81494955649865" lon="11.395793363931382"><ele>111.0</ele><time>2026-05-02T16:57:34Z</time></trkpt><trkpt lat="43.815148163173326" lon="11.395587761540645"><ele>112.0</ele><time>2026-05-02T16:57:35Z</time></trkpt><trkpt lat="43.815347011015916" lon="11.395382338124458"><ele>113.0</ele><time>2026-05-02T16:57:36Z</time></trkpt><trkpt lat="43.81554087711926" lon="11.39518021253974"><ele>113.0</ele><time>2026-05-02T16:57:37Z</time></trkpt><trkpt lat="43.81572427820728" lon="11.394994348148764"><ele>113.0</ele><time>2026-05-02T16:57:38Z</time></trkpt><trkpt lat="43.81589792869852" lon="11.394818655016314"><ele>113.0</ele><time>2026-05-02T16:57:39Z</time></trkpt><trkpt lat="43.81606627727536" lon="11.394652513388206"><ele>113.66666666666666</ele><time>2026-05-02T16:57:40Z</time></trkpt><trkpt lat="43.81624859938421" lon="11.394510582064475"><ele>114.33333333333334</ele><time>2026-05-02T16:57:41Z</time></trkpt><trkpt lat="43.816427553963564" lon="11.394353746484285"><ele>115.0</ele><time>2026-05-02T16:57:42Z</time></trkpt><trkpt lat="43.816585081918525" lon="11.394194640712225"><ele>115.0</ele><time>2026-05-02T16:57:43Z</time></trkpt><trkpt lat="43.81674647606513" lon="11.394062115951217"><ele>115.0</ele><time>2026-05-02T16:57:44Z</time></trkpt><trkpt lat="43.81690933744046" lon="11.393995455332924"><ele>115.0</ele><time>2026-05-02T16:57:45Z</time></trkpt><trkpt lat="43.81706472311942" lon="11.393968601804229"><ele>115.66666666666667</ele><time>2026-05-02T16:57:46Z</time></trkpt><trkpt lat="43.817238621130784" lon="11.393956026640483"><ele>116.33333333333334</ele><time>2026-05-02T16:57:47Z</time></trkpt><trkpt lat="43.8174274835716" lon="11.393932477630495"><ele>117.0</ele><time>2026-05-02T16:57:48Z</time></trkpt><trkpt lat="43.817622305683365" lon="11.393929702516944"><ele>117.33333333333334</ele><time>2026-05-02T16:57:49Z</time></trkpt><trkpt lat="43.81780454411953" lon="11.393915246504722"><ele>117.66666666666667</ele><time>2026-05-02T16:57:50Z</time></trkpt><trkpt lat="43.817981078936675" lon="11.393878937948497"><ele>118.0</ele><time>2026-05-02T16:57:51Z</time></trkpt><trkpt lat="43.81814357668516" lon="11.393787999997162"><ele>117.33333333333334</ele><time>2026-05-02T16:57:52Z</time></trkpt><trkpt lat="43.81830943569751" lon="11.393630129885786"><ele>116.66666666666666</ele><time>2026-05-02T16:57:53Z</time></trkpt><trkpt lat="43.81847759552776" lon="11.393429321079399"><ele>116.0</ele><time>2026-05-02T16:57:54Z</time></trkpt><trkpt lat="43.818655053203365" lon="11.393221200758342"><ele>116.0</ele><time>2026-05-02T16:57:55Z</time></trkpt><trkpt lat="43.81883081006792" lon="11.39303629718341"><ele>116.0</ele><time>2026-05-02T16:57:56Z</time></trkpt><trkpt lat="43.81900814699797" lon="11.392885877644723"><ele>116.0</ele><time>2026-05-02T16:57:57Z</time></trkpt><trkpt lat="43.81919112205451" lon="11.392747127273294"><ele>115.66666666666666</ele><time>2026-05-02T16:57:58Z</time></trkpt><trkpt lat="43.8193780901448" lon="11.392658641036775"><ele>115.33333333333334</ele><time>2026-05-02T16:57:59Z</time></trkpt><trkpt lat="43.81958973473499" lon="11.392596421703491"><ele>115.0</ele><time>2026-05-02T16:58:00Z</time></trkpt><trkpt lat="43.81981762927374" lon="11.392533840458096"><ele>115.0</ele><time>2026-05-02T16:58:01Z</time></trkpt><trkpt lat="43.8200511200162" lon="11.392501508533371"><ele>115.0</ele><time>2026-05-02T16:58:02Z</time></trkpt><trkpt lat="43.8202957141367" lon="11.392460872340973"><ele>115.33333333333334</ele><time>2026-05-02T16:58:03Z</time></trkpt><trkpt lat="43.82052693742296" lon="11.392426176484413"><ele>115.66666666666666</ele><time>2026-05-02T16:58:04Z</time></trkpt><trkpt lat="43.820738769197035" lon="11.392396885571358"><ele>116.0</ele><time>2026-05-02T16:58:05Z</time></trkpt><trkpt lat="43.82094000533222" lon="11.392381658902556"><ele>116.33333333333333</ele><time>2026-05-02T16:58:06Z</time></trkpt><trkpt lat="43.82114074208548" lon="11.39239426644282"><ele>116.66666666666666</ele><time>2026-05-02T16:58:07Z</time></trkpt><trkpt lat="43.82133715052191" lon="11.392410421800747"><ele>117.0</ele><time>2026-05-02T16:58:08Z</time></trkpt><trkpt lat="43.82153877105476" lon="11.392383010280252"><ele>117.0</ele><time>2026-05-02T16:58:09Z</time></trkpt><trkpt lat="43.821747255163814" lon="11.392296120980843"><ele>117.0</ele><time>2026-05-02T16:58:10Z</time></trkpt><trkpt lat="43.82195642077467" lon="11.392185103859468"><ele>117.0</ele><time>2026-05-02T16:58:11Z</time></trkpt><trkpt lat="43.82216202374509" lon="11.392067465243313"><ele>117.66666666666666</ele><time>2026-05-02T16:58:12Z</time></trkpt><trkpt lat="43.82234596702552" lon="11.391929581043328"><ele>118.33333333333333</ele><time>2026-05-02T16:58:13Z</time></trkpt><trkpt lat="43.82250608080186" lon="11.391773964703772"><ele>119.0</ele><time>2026-05-02T16:58:14Z</time></trkpt><trkpt lat="43.822676016946716" lon="11.391635354598506"><ele>120.33333333333333</ele><time>2026-05-02T16:58:15Z</time></trkpt><trkpt lat="43.822882227150934" lon="11.391564979614111"><ele>121.66666666666666</ele><time>2026-05-02T16:58:16Z</time></trkpt><trkpt lat="43.82309424718907" lon="11.391496903694977"><ele>123.0</ele><time>2026-05-02T16:58:17Z</time></trkpt><trkpt lat="43.82328530740492" lon="11.391424065509698"><ele>124.0</ele><time>2026-05-02T16:58:18Z</time></trkpt><trkpt lat="43.82347282112382" lon="11.391328229975498"><ele>125.0</ele><time>2026-05-02T16:58:19Z</time></trkpt><trkpt lat="43.82365305117176" lon="11.391160633507262"><ele>126.0</ele><time>2026-05-02T16:58:20Z</time></trkpt><trkpt lat="43.82383497429075" lon="11.390935264673644"><ele>127.0</ele><time>2026-05-02T16:58:21Z</time></trkpt><trkpt lat="43.82402395679655" lon="11.390719001907774"><ele>128.0</ele><time>2026-05-02T16:58:22Z</time></trkpt><trkpt lat="43.824211540754206" lon="11.390503569337136"><ele>126.5</ele><time>2026-05-02T16:58:23Z</time></trkpt><trkpt lat="43.82440310210641" lon="11.390297753857046"><ele>125.0</ele><time>2026-05-02T16:58:24Z</time></trkpt><trkpt lat="43.82459084248882" lon="11.390102528480137"><ele>125.0</ele><time>2026-05-02T16:58:25Z</time></trkpt><trkpt lat="43.82476935319998" lon="11.38992200524342"><ele>125.0</ele><time>2026-05-02T16:58:26Z</time></trkpt><trkpt lat="43.82495447200225" lon="11.389735836052104"><ele>125.66666666666666</ele><time>2026-05-02T16:58:27Z</time></trkpt><trkpt lat="43.8251333639776" lon="11.389554973920896"><ele>126.33333333333334</ele><time>2026-05-02T16:58:28Z</time></trkpt><trkpt lat="43.82531037042059" lon="11.38940550748657"><ele>127.0</ele><time>2026-05-02T16:58:29Z</time></trkpt><trkpt lat="43.82547453639108" lon="11.38925511758276"><ele>127.0</ele><time>2026-05-02T16:58:30.001Z</time></trkpt><trkpt lat="43.825617305634516" lon="11.389083061266222"><ele>127.0</ele><time>2026-05-02T16:58:31.001Z</time></trkpt><trkpt lat="43.82574003810078" lon="11.388867341578479"><ele>127.0</ele><time>2026-05-02T16:58:32.001Z</time></trkpt><trkpt lat="43.82586013850231" lon="11.388633093964799"><ele>130.66666666666669</ele><time>2026-05-02T16:58:33.001Z</time></trkpt><trkpt lat="43.8259869559924" lon="11.388390526715602"><ele>134.33333333333334</ele><time>2026-05-02T16:58:34.001Z</time></trkpt><trkpt lat="43.82611812667974" lon="11.388153394095289"><ele>138.0</ele><time>2026-05-02T16:58:35.001Z</time></trkpt><trkpt lat="43.82625479372584" lon="11.387910948530306"><ele>138.0</ele><time>2026-05-02T16:58:36.001Z</time></trkpt><trkpt lat="43.82638719827782" lon="11.387667846769979"><ele>138.0</ele><time>2026-05-02T16:58:37.001Z</time></trkpt><trkpt lat="43.82652139057125" lon="11.387421388599881"><ele>138.0</ele><time>2026-05-02T16:58:38.001Z</time></trkpt><trkpt lat="43.826655766711156" lon="11.387173519424787"><ele>137.0</ele><time>2026-05-02T16:58:39.001Z</time></trkpt><trkpt lat="43.82679754527621" lon="11.386916624067783"><ele>136.0</ele><time>2026-05-02T16:58:40.001Z</time></trkpt><trkpt lat="43.82694919293093" lon="11.386652759220663"><ele>136.5</ele><time>2026-05-02T16:58:41.001Z</time></trkpt><trkpt lat="43.82711318533283" lon="11.386366596446663"><ele>137.0</ele><time>2026-05-02T16:58:42.001Z</time></trkpt><trkpt lat="43.82727766312497" lon="11.386077228802202"><ele>137.0</ele><time>2026-05-02T16:58:43.001Z</time></trkpt><trkpt lat="43.82744567129112" lon="11.385776846493545"><ele>137.0</ele><time>2026-05-02T16:58:44.001Z</time></trkpt><trkpt lat="43.827624031878514" lon="11.385482987034829"><ele>141.0</ele><time>2026-05-02T16:58:45.001Z</time></trkpt><trkpt lat="43.827789621951375" lon="11.385161262356489"><ele>145.0</ele><time>2026-05-02T16:58:46.001Z</time></trkpt><trkpt lat="43.82796564102436" lon="11.384858459543649"><ele>141.5</ele><time>2026-05-02T16:58:47.001Z</time></trkpt><trkpt lat="43.82813506588463" lon="11.384566413353554"><ele>138.0</ele><time>2026-05-02T16:58:48.001Z</time></trkpt><trkpt lat="43.82828970085975" lon="11.384295607623066"><ele>138.0</ele><time>2026-05-02T16:58:49.001Z</time></trkpt><trkpt lat="43.82843216903879" lon="11.384036839914987"><ele>138.0</ele><time>2026-05-02T16:58:50.001Z</time></trkpt><trkpt lat="43.828581461179326" lon="11.383806280652506"><ele>140.0</ele><time>2026-05-02T16:58:51.001Z</time></trkpt><trkpt lat="43.828705575937185" lon="11.3835896117278"><ele>142.0</ele><time>2026-05-02T16:58:52Z</time></trkpt><trkpt lat="43.82883561280695" lon="11.38339778838244"><ele>144.0</ele><time>2026-05-02T16:58:53Z</time></trkpt><trkpt lat="43.82898661955089" lon="11.383226941961572"><ele>144.0</ele><time>2026-05-02T16:58:54Z</time></trkpt><trkpt lat="43.82917882956844" lon="11.383098053161335"><ele>144.0</ele><time>2026-05-02T16:58:55Z</time></trkpt><trkpt lat="43.82940397798695" lon="11.38298408582717"><ele>145.0</ele><time>2026-05-02T16:58:56Z</time></trkpt><trkpt lat="43.82964388540381" lon="11.382874319706922"><ele>146.0</ele><time>2026-05-02T16:58:57Z</time></trkpt><trkpt lat="43.829879749370434" lon="11.382759649323368"><ele>146.0</ele><time>2026-05-02T16:58:58Z</time></trkpt><trkpt lat="43.830124482408685" lon="11.382675171683653"><ele>146.0</ele><time>2026-05-02T16:58:59Z</time></trkpt><trkpt lat="43.830375964944224" lon="11.382585236084548"><ele>147.5</ele><time>2026-05-02T16:59:00Z</time></trkpt><trkpt lat="43.83063080656807" lon="11.38249335058773"><ele>149.0</ele><time>2026-05-02T16:59:01Z</time></trkpt><trkpt lat="43.83088405735857" lon="11.382401536380584"><ele>151.33333333333331</ele><time>2026-05-02T16:59:02Z</time></trkpt><trkpt lat="43.83111955163471" lon="11.382342549049095"><ele>153.66666666666666</ele><time>2026-05-02T16:59:03Z</time></trkpt><trkpt lat="43.831318916506326" lon="11.382269606041636"><ele>156.0</ele><time>2026-05-02T16:59:04Z</time></trkpt><trkpt lat="43.831502837542274" lon="11.382182237091474"><ele>154.33333333333334</ele><time>2026-05-02T16:59:05Z</time></trkpt><trkpt lat="43.83168515771932" lon="11.382115356468654"><ele>152.66666666666669</ele><time>2026-05-02T16:59:06Z</time></trkpt><trkpt lat="43.8318635304863" lon="11.382074125212354"><ele>151.0</ele><time>2026-05-02T16:59:07Z</time></trkpt><trkpt lat="43.83202198408877" lon="11.382020596324944"><ele>151.0</ele><time>2026-05-02T16:59:08Z</time></trkpt><trkpt lat="43.83218405769945" lon="11.381967590068706"><ele>151.0</ele><time>2026-05-02T16:59:09Z</time></trkpt><trkpt lat="43.832354214840805" lon="11.382026924672656"><ele>151.0</ele><time>2026-05-02T16:59:10Z</time></trkpt><trkpt lat="43.83254428352053" lon="11.382113252344258"><ele>155.66666666666669</ele><time>2026-05-02T16:59:11Z</time></trkpt><trkpt lat="43.83275245328886" lon="11.382193918078643"><ele>160.33333333333334</ele><time>2026-05-02T16:59:12Z</time></trkpt><trkpt lat="43.83294999320735" lon="11.382292235434862"><ele>165.0</ele><time>2026-05-02T16:59:13Z</time></trkpt><trkpt lat="43.83313324744962" lon="11.382351463439475"><ele>165.0</ele><time>2026-05-02T16:59:14Z</time></trkpt><trkpt lat="43.8333251075461" lon="11.382355018720547"><ele>165.0</ele><time>2026-05-02T16:59:15Z</time></trkpt><trkpt lat="43.833537042791264" lon="11.382289542488978"><ele>165.0</ele><time>2026-05-02T16:59:16Z</time></trkpt><trkpt lat="43.833750005357714" lon="11.3821937417203"><ele>162.66666666666666</ele><time>2026-05-02T16:59:17Z</time></trkpt><trkpt lat="43.8339521670089" lon="11.382116314775072"><ele>160.33333333333331</ele><time>2026-05-02T16:59:18Z</time></trkpt><trkpt lat="43.83414428346482" lon="11.38204836173311"><ele>158.0</ele><time>2026-05-02T16:59:19Z</time></trkpt><trkpt lat="43.83434314478349" lon="11.381980043692963"><ele>158.0</ele><time>2026-05-02T16:59:20Z</time></trkpt><trkpt lat="43.83454406167268" lon="11.381915273557203"><ele>158.0</ele><time>2026-05-02T16:59:21Z</time></trkpt><trkpt lat="43.83474382853752" lon="11.381852712837755"><ele>158.0</ele><time>2026-05-02T16:59:22Z</time></trkpt><trkpt lat="43.83493166139743" lon="11.38179258903803"><ele>158.0</ele><time>2026-05-02T16:59:23Z</time></trkpt><trkpt lat="43.83511825975598" lon="11.381726110308053"><ele>158.0</ele><time>2026-05-02T16:59:24Z</time></trkpt><trkpt lat="43.835309706659295" lon="11.381646632684312"><ele>158.0</ele><time>2026-05-02T16:59:25Z</time></trkpt><trkpt lat="43.83550242518097" lon="11.381543721155106"><ele>158.33333333333331</ele><time>2026-05-02T16:59:26Z</time></trkpt><trkpt lat="43.835686943826" lon="11.38141080825976"><ele>158.66666666666666</ele><time>2026-05-02T16:59:27Z</time></trkpt><trkpt lat="43.83587526563582" lon="11.38125819966419"><ele>159.0</ele><time>2026-05-02T16:59:28Z</time></trkpt><trkpt lat="43.836068296598164" lon="11.381110882706208"><ele>160.33333333333334</ele><time>2026-05-02T16:59:29Z</time></trkpt><trkpt lat="43.83624519228387" lon="11.38099147486596"><ele>161.66666666666669</ele><time>2026-05-02T16:59:30Z</time></trkpt><trkpt lat="43.83639810702601" lon="11.380884220320912"><ele>163.0</ele><time>2026-05-02T16:59:31Z</time></trkpt><trkpt lat="43.83655265218259" lon="11.380775229358587"><ele>163.0</ele><time>2026-05-02T16:59:32Z</time></trkpt><trkpt lat="43.83670007413774" lon="11.380670580745557"><ele>163.0</ele><time>2026-05-02T16:59:33Z</time></trkpt><trkpt lat="43.836837774350165" lon="11.380571812631228"><ele>163.0</ele><time>2026-05-02T16:59:34Z</time></trkpt><trkpt lat="43.83696522290376" lon="11.380481298690102"><ele>163.25</ele><time>2026-05-02T16:59:35Z</time></trkpt><trkpt lat="43.837087751056124" lon="11.38038953578979"><ele>163.5</ele><time>2026-05-02T16:59:36Z</time></trkpt><trkpt lat="43.8372071490199" lon="11.38031690258449"><ele>163.75</ele><time>2026-05-02T16:59:37Z</time></trkpt><trkpt lat="43.83731165839833" lon="11.38023517253835"><ele>164.0</ele><time>2026-05-02T16:59:38Z</time></trkpt><trkpt lat="43.837411117699126" lon="11.380163787782708"><ele>164.0</ele><time>2026-05-02T16:59:39Z</time></trkpt><trkpt lat="43.83751592028889" lon="11.380088638369017"><ele>164.0</ele><time>2026-05-02T16:59:40Z</time></trkpt><trkpt lat="43.83761754752265" lon="11.38001708180098"><ele>164.0</ele><time>2026-05-02T16:59:41Z</time></trkpt><trkpt lat="43.83771921663677" lon="11.379945359314393"><ele>164.0</ele><time>2026-05-02T16:59:42Z</time></trkpt><trkpt lat="43.83783339061742" lon="11.379855323513475"><ele>165.0</ele><time>2026-05-02T16:59:43Z</time></trkpt><trkpt lat="43.83796427313333" lon="11.379724038004161"><ele>166.0</ele><time>2026-05-02T16:59:44Z</time></trkpt><trkpt lat="43.838098816489044" lon="11.379551474411778"><ele>167.0</ele><time>2026-05-02T16:59:45Z</time></trkpt><trkpt lat="43.83823618587668" lon="11.37935420208827"><ele>167.0</ele><time>2026-05-02T16:59:46Z</time></trkpt><trkpt lat="43.83838034323675" lon="11.3791386270881"><ele>167.0</ele><time>2026-05-02T16:59:47Z</time></trkpt><trkpt lat="43.83853908601783" lon="11.378930095779205"><ele>167.0</ele><time>2026-05-02T16:59:48Z</time></trkpt><trkpt lat="43.8387040689333" lon="11.378719833877431"><ele>168.66666666666666</ele><time>2026-05-02T16:59:49Z</time></trkpt><trkpt lat="43.83886304227273" lon="11.37851701367189"><ele>170.33333333333334</ele><time>2026-05-02T16:59:50Z</time></trkpt><trkpt lat="43.83902188020953" lon="11.378327125067491"><ele>172.0</ele><time>2026-05-02T16:59:51Z</time></trkpt><trkpt lat="43.83920026041834" lon="11.378166490752937"><ele>173.0</ele><time>2026-05-02T16:59:52Z</time></trkpt><trkpt lat="43.83936919428147" lon="11.378040721336141"><ele>174.0</ele><time>2026-05-02T16:59:53Z</time></trkpt><trkpt lat="43.839540286052085" lon="11.377929084574792"><ele>175.0</ele><time>2026-05-02T16:59:54Z</time></trkpt><trkpt lat="43.8397429035581" lon="11.377857374247078"><ele>175.0</ele><time>2026-05-02T16:59:55Z</time></trkpt><trkpt lat="43.83995174801878" lon="11.377813688360781"><ele>175.0</ele><time>2026-05-02T16:59:56Z</time></trkpt><trkpt lat="43.840136259540884" lon="11.377769274160459"><ele>175.0</ele><time>2026-05-02T16:59:57Z</time></trkpt><trkpt lat="43.84029264420558" lon="11.377686840149018"><ele>176.66666666666669</ele><time>2026-05-02T16:59:58Z</time></trkpt><trkpt lat="43.84043090828653" lon="11.377543451751269"><ele>178.33333333333334</ele><time>2026-05-02T16:59:59Z</time></trkpt><trkpt lat="43.84056122594653" lon="11.377332653954015"><ele>180.0</ele><time>2026-05-02T17:00:00Z</time></trkpt><trkpt lat="43.84069834627117" lon="11.377088599698924"><ele>181.0</ele><time>2026-05-02T17:00:01Z</time></trkpt><trkpt lat="43.84084193325972" lon="11.376837119305488"><ele>182.0</ele><time>2026-05-02T17:00:02Z</time></trkpt><trkpt lat="43.84100660669889" lon="11.376591668617516"><ele>185.5</ele><time>2026-05-02T17:00:03Z</time></trkpt><trkpt lat="43.841177402892306" lon="11.37635816707868"><ele>189.0</ele><time>2026-05-02T17:00:04Z</time></trkpt><trkpt lat="43.84135555062819" lon="11.37611358248016"><ele>189.0</ele><time>2026-05-02T17:00:05Z</time></trkpt><trkpt lat="43.841533376832416" lon="11.37586497231428"><ele>189.0</ele><time>2026-05-02T17:00:06Z</time></trkpt><trkpt lat="43.84169899359388" lon="11.375643544410368"><ele>192.33333333333331</ele><time>2026-05-02T17:00:07Z</time></trkpt><trkpt lat="43.841861718341924" lon="11.375444801621457"><ele>195.66666666666666</ele><time>2026-05-02T17:00:08Z</time></trkpt><trkpt lat="43.84203666633692" lon="11.375266860729196"><ele>199.0</ele><time>2026-05-02T17:00:09Z</time></trkpt><trkpt lat="43.842215612653504" lon="11.37511842423282"><ele>199.0</ele><time>2026-05-02T17:00:10Z</time></trkpt><trkpt lat="43.84241452892218" lon="11.374995479325067"><ele>199.0</ele><time>2026-05-02T17:00:11Z</time></trkpt><trkpt lat="43.84264141388642" lon="11.374930447964449"><ele>199.0</ele><time>2026-05-02T17:00:12Z</time></trkpt><trkpt lat="43.8428730014118" lon="11.374833489386488"><ele>202.5</ele><time>2026-05-02T17:00:13Z</time></trkpt><trkpt lat="43.8431126346562" lon="11.374761260715363"><ele>206.0</ele><time>2026-05-02T17:00:14Z</time></trkpt><trkpt lat="43.8433461587095" lon="11.374679397674402"><ele>211.5</ele><time>2026-05-02T17:00:15Z</time></trkpt><trkpt lat="43.84358942103182" lon="11.374619681050795"><ele>217.0</ele><time>2026-05-02T17:00:16Z</time></trkpt><trkpt lat="43.843835866340974" lon="11.374538126728396"><ele>217.0</ele><time>2026-05-02T17:00:17Z</time></trkpt><trkpt lat="43.84408154786317" lon="11.37443609442915"><ele>217.0</ele><time>2026-05-02T17:00:18Z</time></trkpt><trkpt lat="43.844333528558515" lon="11.37435987331359"><ele>222.0</ele><time>2026-05-02T17:00:19Z</time></trkpt><trkpt lat="43.84458137392939" lon="11.374280938205413"><ele>227.0</ele><time>2026-05-02T17:00:20Z</time></trkpt><trkpt lat="43.84480717782536" lon="11.374210644220362"><ele>227.0</ele><time>2026-05-02T17:00:21Z</time></trkpt><trkpt lat="43.84502300465708" lon="11.374143897068167"><ele>227.0</ele><time>2026-05-02T17:00:22Z</time></trkpt><trkpt lat="43.845230175860806" lon="11.374059836784125"><ele>227.0</ele><time>2026-05-02T17:00:23Z</time></trkpt><trkpt lat="43.84543317198427" lon="11.37392270070427"><ele>233.0</ele><time>2026-05-02T17:00:24Z</time></trkpt><trkpt lat="43.845617770492595" lon="11.373745023456802"><ele>239.0</ele><time>2026-05-02T17:00:25Z</time></trkpt><trkpt lat="43.84578162823565" lon="11.373590131793991"><ele>245.0</ele><time>2026-05-02T17:00:26Z</time></trkpt><trkpt lat="43.84595840762043" lon="11.373472690621908"><ele>248.66666666666669</ele><time>2026-05-02T17:00:27Z</time></trkpt><trkpt lat="43.84614184930633" lon="11.373403786280646"><ele>252.33333333333331</ele><time>2026-05-02T17:00:28Z</time></trkpt><trkpt lat="43.84632622948938" lon="11.373391904447955"><ele>256.0</ele><time>2026-05-02T17:00:29Z</time></trkpt><trkpt lat="43.84648894385026" lon="11.373432133667933"><ele>256.0</ele><time>2026-05-02T17:00:30Z</time></trkpt><trkpt lat="43.84659364674999" lon="11.3735386974121"><ele>256.0</ele><time>2026-05-02T17:00:31Z</time></trkpt><trkpt lat="43.84669221810397" lon="11.373682902598908"><ele>256.0</ele><time>2026-05-02T17:00:32Z</time></trkpt><trkpt lat="43.846805128183085" lon="11.373842602196751"><ele>256.0</ele><time>2026-05-02T17:00:33Z</time></trkpt><trkpt lat="43.84695936572416" lon="11.373953999789025"><ele>256.66666666666663</ele><time>2026-05-02T17:00:34Z</time></trkpt><trkpt lat="43.84710187163677" lon="11.374058583170568"><ele>257.3333333333333</ele><time>2026-05-02T17:00:35Z</time></trkpt><trkpt lat="43.847294789558504" lon="11.374099671430061"><ele>258.0</ele><time>2026-05-02T17:00:36.001Z</time></trkpt><trkpt lat="43.84750957757268" lon="11.374100586137642"><ele>259.3333333333333</ele><time>2026-05-02T17:00:37.001Z</time></trkpt><trkpt lat="43.847730682813136" lon="11.374107448312287"><ele>260.66666666666663</ele><time>2026-05-02T17:00:38.001Z</time></trkpt><trkpt lat="43.84791657517667" lon="11.37411208025762"><ele>262.0</ele><time>2026-05-02T17:00:39.001Z</time></trkpt><trkpt lat="43.84805994949848" lon="11.374105099389038"><ele>262.0</ele><time>2026-05-02T17:00:40.001Z</time></trkpt><trkpt lat="43.84817280112478" lon="11.374060097359333"><ele>262.0</ele><time>2026-05-02T17:00:41.001Z</time></trkpt><trkpt lat="43.84826843116994" lon="11.373929404868198"><ele>262.0</ele><time>2026-05-02T17:00:42.001Z</time></trkpt><trkpt lat="43.8483182692848" lon="11.373746350059115"><ele>262.0</ele><time>2026-05-02T17:00:43.001Z</time></trkpt><trkpt lat="43.84831155345762" lon="11.373534530686845"><ele>262.66666666666663</ele><time>2026-05-02T17:00:44.001Z</time></trkpt><trkpt lat="43.84824826902733" lon="11.373333204740605"><ele>263.3333333333333</ele><time>2026-05-02T17:00:45.001Z</time></trkpt><trkpt lat="43.84815386427917" lon="11.373088652142972"><ele>264.0</ele><time>2026-05-02T17:00:46.001Z</time></trkpt><trkpt lat="43.848064681466006" lon="11.372832336895932"><ele>266.3333333333333</ele><time>2026-05-02T17:00:47.001Z</time></trkpt><trkpt lat="43.84802679738222" lon="11.372580511254819"><ele>268.66666666666663</ele><time>2026-05-02T17:00:48.001Z</time></trkpt><trkpt lat="43.84803542401154" lon="11.372328894061418"><ele>271.0</ele><time>2026-05-02T17:00:49.001Z</time></trkpt><trkpt lat="43.84804778211747" lon="11.372018613753154"><ele>274.0</ele><time>2026-05-02T17:00:50.001Z</time></trkpt><trkpt lat="43.84806198936665" lon="11.371697967703668"><ele>277.0</ele><time>2026-05-02T17:00:51.001Z</time></trkpt><trkpt lat="43.84807554760885" lon="11.371420475312764"><ele>280.0</ele><time>2026-05-02T17:00:52.001Z</time></trkpt><trkpt lat="43.848087932735766" lon="11.371178579841835"><ele>281.75</ele><time>2026-05-02T17:00:53.001Z</time></trkpt><trkpt lat="43.84810929522618" lon="11.370964348089093"><ele>283.5</ele><time>2026-05-02T17:00:54.001Z</time></trkpt><trkpt lat="43.8481713140627" lon="11.370795446634538"><ele>285.25</ele><time>2026-05-02T17:00:55.001Z</time></trkpt><trkpt lat="43.848259618885585" lon="11.370639195604072"><ele>287.0</ele><time>2026-05-02T17:00:56.001Z</time></trkpt><trkpt lat="43.848378934168004" lon="11.370456324081012"><ele>290.33333333333337</ele><time>2026-05-02T17:00:57.001Z</time></trkpt><trkpt lat="43.84851179351715" lon="11.370252088914098"><ele>293.6666666666667</ele><time>2026-05-02T17:00:58.001Z</time></trkpt><trkpt lat="43.84865528256772" lon="11.370034841590385"><ele>297.0</ele><time>2026-05-02T17:00:59.001Z</time></trkpt><trkpt lat="43.84878202317955" lon="11.369864028775847"><ele>297.0</ele><time>2026-05-02T17:01:00.001Z</time></trkpt><trkpt lat="43.84892590617695" lon="11.369750294913931"><ele>297.0</ele><time>2026-05-02T17:01:01.001Z</time></trkpt><trkpt lat="43.849101071399396" lon="11.369682307693237"><ele>297.0</ele><time>2026-05-02T17:01:02.001Z</time></trkpt><trkpt lat="43.84930163177981" lon="11.36960667731852"><ele>298.3333333333333</ele><time>2026-05-02T17:01:03.001Z</time></trkpt><trkpt lat="43.84951022323491" lon="11.369528018439135"><ele>299.66666666666663</ele><time>2026-05-02T17:01:04.001Z</time></trkpt><trkpt lat="43.84972903762886" lon="11.369445504580977"><ele>301.0</ele><time>2026-05-02T17:01:05Z</time></trkpt><trkpt lat="43.84995877455131" lon="11.369358871902625"><ele>305.5</ele><time>2026-05-02T17:01:06Z</time></trkpt><trkpt lat="43.85018205023409" lon="11.369275992569111"><ele>310.0</ele><time>2026-05-02T17:01:07Z</time></trkpt><trkpt lat="43.85040965742357" lon="11.369191343428428"><ele>310.0</ele><time>2026-05-02T17:01:08Z</time></trkpt><trkpt lat="43.850615094935485" lon="11.369100526347589"><ele>310.0</ele><time>2026-05-02T17:01:09Z</time></trkpt><trkpt lat="43.85080491654838" lon="11.369031859962712"><ele>310.0</ele><time>2026-05-02T17:01:10Z</time></trkpt><trkpt lat="43.85097173327079" lon="11.36895704127457"><ele>312.0</ele><time>2026-05-02T17:01:11Z</time></trkpt><trkpt lat="43.85109394564793" lon="11.368789569890891"><ele>314.0</ele><time>2026-05-02T17:01:12Z</time></trkpt><trkpt lat="43.85119384850983" lon="11.368578594625472"><ele>316.0</ele><time>2026-05-02T17:01:13Z</time></trkpt><trkpt lat="43.85127385315813" lon="11.368304683142958"><ele>317.0</ele><time>2026-05-02T17:01:14Z</time></trkpt><trkpt lat="43.85135685448159" lon="11.36801188790888"><ele>318.0</ele><time>2026-05-02T17:01:15Z</time></trkpt><trkpt lat="43.85144126214979" lon="11.367731776321722"><ele>319.0</ele><time>2026-05-02T17:01:16Z</time></trkpt><trkpt lat="43.85153257308897" lon="11.367509084851712"><ele>319.0</ele><time>2026-05-02T17:01:17Z</time></trkpt><trkpt lat="43.85161300253079" lon="11.367313811538418"><ele>319.0</ele><time>2026-05-02T17:01:18Z</time></trkpt><trkpt lat="43.85171315664849" lon="11.36717014076904"><ele>319.0</ele><time>2026-05-02T17:01:19Z</time></trkpt><trkpt lat="43.85184365321778" lon="11.367083885650292"><ele>321.66666666666663</ele><time>2026-05-02T17:01:20Z</time></trkpt><trkpt lat="43.85198598407634" lon="11.367061470156083"><ele>324.3333333333333</ele><time>2026-05-02T17:01:21Z</time></trkpt><trkpt lat="43.85213445090723" lon="11.367105889892684"><ele>327.0</ele><time>2026-05-02T17:01:22Z</time></trkpt><trkpt lat="43.85229957685275" lon="11.367200591550414"><ele>327.0</ele><time>2026-05-02T17:01:23Z</time></trkpt><trkpt lat="43.8525037441962" lon="11.36732142647298"><ele>327.0</ele><time>2026-05-02T17:01:24Z</time></trkpt><trkpt lat="43.85270187172637" lon="11.367440843483486"><ele>327.0</ele><time>2026-05-02T17:01:25Z</time></trkpt><trkpt lat="43.85290659244804" lon="11.367551461489063"><ele>331.0</ele><time>2026-05-02T17:01:26Z</time></trkpt><trkpt lat="43.85311113638759" lon="11.367671048779712"><ele>335.0</ele><time>2026-05-02T17:01:27Z</time></trkpt><trkpt lat="43.853316466024815" lon="11.367792155383102"><ele>339.0</ele><time>2026-05-02T17:01:28Z</time></trkpt><trkpt lat="43.85352024455197" lon="11.367910878816454"><ele>341.6666666666667</ele><time>2026-05-02T17:01:29Z</time></trkpt><trkpt lat="43.85370785856004" lon="11.368020863347715"><ele>344.33333333333337</ele><time>2026-05-02T17:01:30Z</time></trkpt><trkpt lat="43.85387736077143" lon="11.368124469650708"><ele>347.0</ele><time>2026-05-02T17:01:31Z</time></trkpt><trkpt lat="43.85402652168541" lon="11.368210648194415"><ele>347.33333333333337</ele><time>2026-05-02T17:01:32Z</time></trkpt><trkpt lat="43.85416967879791" lon="11.368278449855225"><ele>347.6666666666667</ele><time>2026-05-02T17:01:33Z</time></trkpt><trkpt lat="43.8543227722735" lon="11.368323425766002"><ele>348.0</ele><time>2026-05-02T17:01:34Z</time></trkpt><trkpt lat="43.85448410866713" lon="11.368302422128577"><ele>352.6666666666667</ele><time>2026-05-02T17:01:35Z</time></trkpt><trkpt lat="43.85464860724074" lon="11.368244782507395"><ele>357.33333333333337</ele><time>2026-05-02T17:01:36Z</time></trkpt><trkpt lat="43.854828596781275" lon="11.36815208418115"><ele>362.0</ele><time>2026-05-02T17:01:37Z</time></trkpt><trkpt lat="43.85501659274495" lon="11.368070309912195"><ele>366.0</ele><time>2026-05-02T17:01:38Z</time></trkpt><trkpt lat="43.85520491721901" lon="11.36799762736646"><ele>370.0</ele><time>2026-05-02T17:01:39Z</time></trkpt><trkpt lat="43.85539328338989" lon="11.367900210512296"><ele>374.0</ele><time>2026-05-02T17:01:40Z</time></trkpt><trkpt lat="43.85557155553988" lon="11.3677682595692"><ele>374.0</ele><time>2026-05-02T17:01:41Z</time></trkpt><trkpt lat="43.855748746340744" lon="11.367611066955265"><ele>374.0</ele><time>2026-05-02T17:01:42Z</time></trkpt><trkpt lat="43.85592313934391" lon="11.367455438211087"><ele>374.0</ele><time>2026-05-02T17:01:43Z</time></trkpt><trkpt lat="43.85607687731536" lon="11.367319597407818"><ele>381.0</ele><time>2026-05-02T17:01:44Z</time></trkpt><trkpt lat="43.8562024152078" lon="11.36717575225166"><ele>388.0</ele><time>2026-05-02T17:01:45Z</time></trkpt><trkpt lat="43.85629316435555" lon="11.366965978035715"><ele>395.0</ele><time>2026-05-02T17:01:46Z</time></trkpt><trkpt lat="43.85634545601909" lon="11.36672573275506"><ele>395.0</ele><time>2026-05-02T17:01:47Z</time></trkpt><trkpt lat="43.8563371600688" lon="11.36648976558843"><ele>395.0</ele><time>2026-05-02T17:01:48Z</time></trkpt><trkpt lat="43.85628271768907" lon="11.366242614349309"><ele>395.0</ele><time>2026-05-02T17:01:49Z</time></trkpt><trkpt lat="43.85619643464449" lon="11.365976605132072"><ele>395.3333333333333</ele><time>2026-05-02T17:01:50Z</time></trkpt><trkpt lat="43.85612383120728" lon="11.365676292106476"><ele>395.66666666666663</ele><time>2026-05-02T17:01:51Z</time></trkpt><trkpt lat="43.85605158656459" lon="11.365399261704948"><ele>396.0</ele><time>2026-05-02T17:01:52Z</time></trkpt><trkpt lat="43.85599993140373" lon="11.365157470447379"><ele>398.66666666666663</ele><time>2026-05-02T17:01:53Z</time></trkpt><trkpt lat="43.85600289840449" lon="11.364941795573268"><ele>401.3333333333333</ele><time>2026-05-02T17:01:54Z</time></trkpt><trkpt lat="43.85606879529781" lon="11.364772130917013"><ele>404.0</ele><time>2026-05-02T17:01:55Z</time></trkpt><trkpt lat="43.85615452829842" lon="11.364592185365192"><ele>404.0</ele><time>2026-05-02T17:01:56Z</time></trkpt><trkpt lat="43.85626237227499" lon="11.364377359643232"><ele>404.0</ele><time>2026-05-02T17:01:57Z</time></trkpt><trkpt lat="43.85637189768976" lon="11.364136320900363"><ele>404.0</ele><time>2026-05-02T17:01:58Z</time></trkpt><trkpt lat="43.85649299148394" lon="11.363890142700175"><ele>404.0</ele><time>2026-05-02T17:01:59Z</time></trkpt><trkpt lat="43.85661975475953" lon="11.363648289782002"><ele>404.0</ele><time>2026-05-02T17:02:00Z</time></trkpt><trkpt lat="43.856751736312575" lon="11.363400541511595"><ele>404.0</ele><time>2026-05-02T17:02:01Z</time></trkpt><trkpt lat="43.856881454285045" lon="11.363143503022334"><ele>409.5</ele><time>2026-05-02T17:02:02Z</time></trkpt><trkpt lat="43.85701965732683" lon="11.362874077863692"><ele>415.0</ele><time>2026-05-02T17:02:03Z</time></trkpt><trkpt lat="43.85715866805222" lon="11.362602616529353"><ele>415.0</ele><time>2026-05-02T17:02:04Z</time></trkpt><trkpt lat="43.85728732429688" lon="11.362330178166214"><ele>415.0</ele><time>2026-05-02T17:02:05Z</time></trkpt><trkpt lat="43.85739804798642" lon="11.362060460833511"><ele>417.0</ele><time>2026-05-02T17:02:06Z</time></trkpt><trkpt lat="43.85751567011097" lon="11.361769364004626"><ele>419.0</ele><time>2026-05-02T17:02:07Z</time></trkpt><trkpt lat="43.85761891666859" lon="11.361474358573862"><ele>432.5</ele><time>2026-05-02T17:02:08Z</time></trkpt><trkpt lat="43.85772622427329" lon="11.36118362562802"><ele>446.0</ele><time>2026-05-02T17:02:09Z</time></trkpt><trkpt lat="43.85783602897625" lon="11.360900491683742"><ele>446.0</ele><time>2026-05-02T17:02:10Z</time></trkpt><trkpt lat="43.8579441629468" lon="11.360616837277247"><ele>446.0</ele><time>2026-05-02T17:02:11Z</time></trkpt><trkpt lat="43.85804082634339" lon="11.36036323784841"><ele>446.0</ele><time>2026-05-02T17:02:12Z</time></trkpt><trkpt lat="43.858130342594926" lon="11.360136867114544"><ele>443.0</ele><time>2026-05-02T17:02:13Z</time></trkpt><trkpt lat="43.85821150127986" lon="11.359927147976386"><ele>440.0</ele><time>2026-05-02T17:02:14Z</time></trkpt><trkpt lat="43.85825962406817" lon="11.35971653753916"><ele>437.0</ele><time>2026-05-02T17:02:15Z</time></trkpt><trkpt lat="43.858268474147486" lon="11.359489883797213"><ele>437.0</ele><time>2026-05-02T17:02:16Z</time></trkpt><trkpt lat="43.858256914346214" lon="11.35926023689372"><ele>437.0</ele><time>2026-05-02T17:02:17Z</time></trkpt><trkpt lat="43.85824013121235" lon="11.359067098418423"><ele>437.0</ele><time>2026-05-02T17:02:18Z</time></trkpt><trkpt lat="43.85824865957869" lon="11.35889351685567"><ele>437.0</ele><time>2026-05-02T17:02:19Z</time></trkpt><trkpt lat="43.85825099353037" lon="11.358738260415572"><ele>437.75</ele><time>2026-05-02T17:02:20Z</time></trkpt><trkpt lat="43.85827956060997" lon="11.358589149513605"><ele>438.5</ele><time>2026-05-02T17:02:21Z</time></trkpt><trkpt lat="43.85834873295712" lon="11.358410942284712"><ele>439.25</ele><time>2026-05-02T17:02:22Z</time></trkpt><trkpt lat="43.858429789141844" lon="11.358197935914712"><ele>440.0</ele><time>2026-05-02T17:02:23Z</time></trkpt><trkpt lat="43.858502251017605" lon="11.35797591792171"><ele>447.0</ele><time>2026-05-02T17:02:24Z</time></trkpt><trkpt lat="43.858571413715346" lon="11.357791495078187"><ele>454.0</ele><time>2026-05-02T17:02:25Z</time></trkpt><trkpt lat="43.85864904316169" lon="11.357622910760258"><ele>461.0</ele><time>2026-05-02T17:02:26Z</time></trkpt><trkpt lat="43.85877812362117" lon="11.357499747885536"><ele>461.0</ele><time>2026-05-02T17:02:27Z</time></trkpt><trkpt lat="43.858915935713874" lon="11.357354293216801"><ele>461.0</ele><time>2026-05-02T17:02:28Z</time></trkpt><trkpt lat="43.85906170060816" lon="11.357187835966565"><ele>461.0</ele><time>2026-05-02T17:02:29Z</time></trkpt><trkpt lat="43.85921270417532" lon="11.357032220676997"><ele>465.3333333333333</ele><time>2026-05-02T17:02:30Z</time></trkpt><trkpt lat="43.859359590462205" lon="11.35686707722525"><ele>469.66666666666663</ele><time>2026-05-02T17:02:31Z</time></trkpt><trkpt lat="43.859506910804726" lon="11.356680441200195"><ele>474.0</ele><time>2026-05-02T17:02:32Z</time></trkpt><trkpt lat="43.8596317205388" lon="11.356457275937672"><ele>473.33333333333337</ele><time>2026-05-02T17:02:33Z</time></trkpt><trkpt lat="43.859734894721896" lon="11.356209451077948"><ele>472.6666666666667</ele><time>2026-05-02T17:02:34Z</time></trkpt><trkpt lat="43.8598317198095" lon="11.355950350505234"><ele>472.0</ele><time>2026-05-02T17:02:35Z</time></trkpt><trkpt lat="43.85993984509827" lon="11.355688781302256"><ele>471.33333333333337</ele><time>2026-05-02T17:02:36Z</time></trkpt><trkpt lat="43.860051162541815" lon="11.355423030958884"><ele>470.66666666666663</ele><time>2026-05-02T17:02:37Z</time></trkpt><trkpt lat="43.860159686595786" lon="11.355155961128016"><ele>470.0</ele><time>2026-05-02T17:02:38Z</time></trkpt><trkpt lat="43.86026736736132" lon="11.354894794619469"><ele>476.66666666666663</ele><time>2026-05-02T17:02:39Z</time></trkpt><trkpt lat="43.86037640845812" lon="11.35463840031728"><ele>483.33333333333337</ele><time>2026-05-02T17:02:40Z</time></trkpt><trkpt lat="43.86048917910689" lon="11.354385926095079"><ele>490.0</ele><time>2026-05-02T17:02:41Z</time></trkpt><trkpt lat="43.86059249340974" lon="11.354129782879538"><ele>490.0</ele><time>2026-05-02T17:02:42.001Z</time></trkpt><trkpt lat="43.86069991523198" lon="11.353873153097503"><ele>490.0</ele><time>2026-05-02T17:02:43.001Z</time></trkpt><trkpt lat="43.86079879602514" lon="11.353630200705142"><ele>490.0</ele><time>2026-05-02T17:02:44.001Z</time></trkpt><trkpt lat="43.860895265755744" lon="11.353408750033651"><ele>495.0</ele><time>2026-05-02T17:02:45.001Z</time></trkpt><trkpt lat="43.86099688735215" lon="11.353209602488915"><ele>500.0</ele><time>2026-05-02T17:02:46.001Z</time></trkpt><trkpt lat="43.86109909621377" lon="11.353023344005042"><ele>505.0</ele><time>2026-05-02T17:02:47.001Z</time></trkpt><trkpt lat="43.86124247216183" lon="11.352850665686857"><ele>505.0</ele><time>2026-05-02T17:02:48.001Z</time></trkpt><trkpt lat="43.86139943329099" lon="11.352654670169917"><ele>505.0</ele><time>2026-05-02T17:02:49.001Z</time></trkpt><trkpt lat="43.86157545385146" lon="11.352466611127378"><ele>505.0</ele><time>2026-05-02T17:02:50.001Z</time></trkpt><trkpt lat="43.86175841261853" lon="11.352266827432247"><ele>511.5</ele><time>2026-05-02T17:02:51.001Z</time></trkpt><trkpt lat="43.86194704046645" lon="11.352054151141697"><ele>518.0</ele><time>2026-05-02T17:02:52.001Z</time></trkpt><trkpt lat="43.86213356022686" lon="11.351840858566115"><ele>518.0</ele><time>2026-05-02T17:02:53.001Z</time></trkpt><trkpt lat="43.86231032235588" lon="11.351646902960555"><ele>518.0</ele><time>2026-05-02T17:02:54.001Z</time></trkpt><trkpt lat="43.86247105626749" lon="11.3514534597563"><ele>518.0</ele><time>2026-05-02T17:02:55.001Z</time></trkpt><trkpt lat="43.86260170461132" lon="11.351240335138202"><ele>528.0</ele><time>2026-05-02T17:02:56.001Z</time></trkpt><trkpt lat="43.86270020961694" lon="11.35096168593009"><ele>538.0</ele><time>2026-05-02T17:02:57.001Z</time></trkpt><trkpt lat="43.8628026570948" lon="11.350656889075102"><ele>537.5</ele><time>2026-05-02T17:02:58.001Z</time></trkpt><trkpt lat="43.86290131513791" lon="11.350364140188557"><ele>537.0</ele><time>2026-05-02T17:02:59.001Z</time></trkpt><trkpt lat="43.86300102882276" lon="11.35007694257479"><ele>537.0</ele><time>2026-05-02T17:03:00.001Z</time></trkpt><trkpt lat="43.86310011878038" lon="11.349802367539343"><ele>537.0</ele><time>2026-05-02T17:03:01.001Z</time></trkpt><trkpt lat="43.863203539006896" lon="11.349512773851446"><ele>537.5</ele><time>2026-05-02T17:03:02.001Z</time></trkpt><trkpt lat="43.86330856620961" lon="11.349216190030216"><ele>538.0</ele><time>2026-05-02T17:03:03.001Z</time></trkpt><trkpt lat="43.863407328448794" lon="11.348930802273719"><ele>540.0</ele><time>2026-05-02T17:03:04.001Z</time></trkpt><trkpt lat="43.863506246591996" lon="11.348649252243149"><ele>542.0</ele><time>2026-05-02T17:03:05.001Z</time></trkpt><trkpt lat="43.863601418086624" lon="11.348399381884558"><ele>544.0</ele><time>2026-05-02T17:03:06.001Z</time></trkpt><trkpt lat="43.86368957542116" lon="11.348171421035714"><ele>542.6666666666667</ele><time>2026-05-02T17:03:07.001Z</time></trkpt><trkpt lat="43.86375774709097" lon="11.347961849170956"><ele>541.3333333333334</ele><time>2026-05-02T17:03:08Z</time></trkpt><trkpt lat="43.86379177950743" lon="11.347734547252028"><ele>540.0</ele><time>2026-05-02T17:03:09Z</time></trkpt><trkpt lat="43.86382471011247" lon="11.347477672172712"><ele>538.3333333333334</ele><time>2026-05-02T17:03:10Z</time></trkpt><trkpt lat="43.86382772774093" lon="11.34719422890109"><ele>536.6666666666667</ele><time>2026-05-02T17:03:11Z</time></trkpt><trkpt lat="43.86381280136531" lon="11.34690583099615"><ele>535.0</ele><time>2026-05-02T17:03:12Z</time></trkpt><trkpt lat="43.863803761756834" lon="11.346637197093617"><ele>535.0</ele><time>2026-05-02T17:03:13Z</time></trkpt><trkpt lat="43.86379862987598" lon="11.34638789456124"><ele>535.0</ele><time>2026-05-02T17:03:14Z</time></trkpt><trkpt lat="43.86378454289363" lon="11.34616453648968"><ele>535.0</ele><time>2026-05-02T17:03:15Z</time></trkpt><trkpt lat="43.86374792921151" lon="11.345951804714884"><ele>533.6666666666667</ele><time>2026-05-02T17:03:16Z</time></trkpt><trkpt lat="43.86366997245706" lon="11.345735094365102"><ele>532.3333333333334</ele><time>2026-05-02T17:03:17Z</time></trkpt><trkpt lat="43.86354789067593" lon="11.345500699088847"><ele>531.0</ele><time>2026-05-02T17:03:18Z</time></trkpt><trkpt lat="43.86340506710797" lon="11.345255114105287"><ele>531.0</ele><time>2026-05-02T17:03:19Z</time></trkpt><trkpt lat="43.86327660982205" lon="11.345024511269752"><ele>531.0</ele><time>2026-05-02T17:03:20Z</time></trkpt><trkpt lat="43.86316036006724" lon="11.344803810562455"><ele>531.0</ele><time>2026-05-02T17:03:21Z</time></trkpt><trkpt lat="43.863053579748104" lon="11.344590875969836"><ele>529.6666666666666</ele><time>2026-05-02T17:03:22Z</time></trkpt><trkpt lat="43.86295367115204" lon="11.344375934537506"><ele>528.3333333333333</ele><time>2026-05-02T17:03:23Z</time></trkpt><trkpt lat="43.86289799174252" lon="11.344135000394825"><ele>527.0</ele><time>2026-05-02T17:03:24Z</time></trkpt><trkpt lat="43.86283170142751" lon="11.343897291996651"><ele>526.0</ele><time>2026-05-02T17:03:25Z</time></trkpt><trkpt lat="43.86278812158802" lon="11.343648240585795"><ele>525.0</ele><time>2026-05-02T17:03:26Z</time></trkpt><trkpt lat="43.86273928087266" lon="11.343410147302844"><ele>524.0</ele><time>2026-05-02T17:03:27Z</time></trkpt><trkpt lat="43.86268664133505" lon="11.343185287357475"><ele>519.3333333333333</ele><time>2026-05-02T17:03:28Z</time></trkpt><trkpt lat="43.8626131272732" lon="11.342966159193764"><ele>514.6666666666666</ele><time>2026-05-02T17:03:29Z</time></trkpt><trkpt lat="43.86250852959133" lon="11.342764739091656"><ele>510.0</ele><time>2026-05-02T17:03:30Z</time></trkpt><trkpt lat="43.86239498478195" lon="11.342584150674359"><ele>510.0</ele><time>2026-05-02T17:03:31Z</time></trkpt><trkpt lat="43.862279437000694" lon="11.34242107950535"><ele>510.0</ele><time>2026-05-02T17:03:32Z</time></trkpt><trkpt lat="43.86217233544487" lon="11.342264568341553"><ele>510.0</ele><time>2026-05-02T17:03:33Z</time></trkpt><trkpt lat="43.86207520530198" lon="11.342103082852164"><ele>508.0</ele><time>2026-05-02T17:03:34Z</time></trkpt><trkpt lat="43.861988835371086" lon="11.341920444193805"><ele>506.0</ele><time>2026-05-02T17:03:35Z</time></trkpt><trkpt lat="43.86192927941777" lon="11.341723477477748"><ele>504.0</ele><time>2026-05-02T17:03:36Z</time></trkpt><trkpt lat="43.861894820323734" lon="11.341549207895028"><ele>502.0</ele><time>2026-05-02T17:03:37Z</time></trkpt><trkpt lat="43.86188405853866" lon="11.341401965239754"><ele>500.6</ele><time>2026-05-02T17:03:38Z</time></trkpt><trkpt lat="43.861896828878166" lon="11.341280464795089"><ele>499.20000000000005</ele><time>2026-05-02T17:03:39Z</time></trkpt><trkpt lat="43.861940912116985" lon="11.341158985472152"><ele>497.8</ele><time>2026-05-02T17:03:41Z</time></trkpt><trkpt lat="43.862026406537055" lon="11.341095179028198"><ele>496.4</ele><time>2026-05-02T17:03:44Z</time></trkpt><trkpt lat="43.862095114994084" lon="11.341149075255107"><ele>495.0</ele><time>2026-05-02T17:03:45Z</time></trkpt><trkpt lat="43.86218619665717" lon="11.341163172382817"><ele>495.0</ele><time>2026-05-02T17:03:46Z</time></trkpt><trkpt lat="43.86229299811733" lon="11.341154924926643"><ele>495.0</ele><time>2026-05-02T17:03:47Z</time></trkpt><trkpt lat="43.86240844042941" lon="11.341160803094903"><ele>495.0</ele><time>2026-05-02T17:03:48Z</time></trkpt><trkpt lat="43.8625463013423" lon="11.341118801592753"><ele>495.0</ele><time>2026-05-02T17:03:49Z</time></trkpt><trkpt lat="43.86267534262324" lon="11.341024637346436"><ele>497.33333333333337</ele><time>2026-05-02T17:03:50Z</time></trkpt><trkpt lat="43.86279091726481" lon="11.34088570766514"><ele>499.6666666666667</ele><time>2026-05-02T17:03:51Z</time></trkpt><trkpt lat="43.8628951450811" lon="11.340695733025001"><ele>502.0</ele><time>2026-05-02T17:03:52Z</time></trkpt><trkpt lat="43.86298249224832" lon="11.340519967759631"><ele>502.40000000000003</ele><time>2026-05-02T17:03:53Z</time></trkpt><trkpt lat="43.86304925485823" lon="11.340371551104319"><ele>502.80000000000007</ele><time>2026-05-02T17:03:54Z</time></trkpt><trkpt lat="43.86310169058612" lon="11.340254983663547"><ele>503.2</ele><time>2026-05-02T17:03:55Z</time></trkpt><trkpt lat="43.86315157767884" lon="11.3401486052618"><ele>503.6</ele><time>2026-05-02T17:03:56Z</time></trkpt><trkpt lat="43.86317808856015" lon="11.340054323802569"><ele>504.0</ele><time>2026-05-02T17:03:57Z</time></trkpt><trkpt lat="43.8632318637632" lon="11.33997203414869"><ele>504.0</ele><time>2026-05-02T17:03:59Z</time></trkpt><trkpt lat="43.863269575652126" lon="11.339887575194092"><ele>504.0</ele><time>2026-05-02T17:04:02Z</time></trkpt><trkpt lat="43.86333012061417" lon="11.339721311739138"><ele>504.0</ele><time>2026-05-02T17:04:04Z</time></trkpt><trkpt lat="43.86337638253138" lon="11.339599308276718"><ele>504.0</ele><time>2026-05-02T17:04:05Z</time></trkpt><trkpt lat="43.863429650349836" lon="11.339477912586455"><ele>504.0</ele><time>2026-05-02T17:04:06Z</time></trkpt><trkpt lat="43.863485230018526" lon="11.339334288783144"><ele>503.75</ele><time>2026-05-02T17:04:07Z</time></trkpt><trkpt lat="43.8635458486434" lon="11.339177139904537"><ele>503.5</ele><time>2026-05-02T17:04:08Z</time></trkpt><trkpt lat="43.86360885226874" lon="11.339020907994858"><ele>503.25</ele><time>2026-05-02T17:04:09Z</time></trkpt><trkpt lat="43.86368534532214" lon="11.338880468030283"><ele>503.0</ele><time>2026-05-02T17:04:10Z</time></trkpt><trkpt lat="43.86374623608721" lon="11.338729764041169"><ele>503.0</ele><time>2026-05-02T17:04:11Z</time></trkpt><trkpt lat="43.86385036178042" lon="11.338623328377466"><ele>503.0</ele><time>2026-05-02T17:04:12Z</time></trkpt><trkpt lat="43.8639541023092" lon="11.338515552396736"><ele>503.0</ele><time>2026-05-02T17:04:13Z</time></trkpt><trkpt lat="43.8639425424597" lon="11.338318417427763"><ele>503.0</ele><time>2026-05-02T17:04:14Z</time></trkpt><trkpt lat="43.86396675031153" lon="11.338144051185425"><ele>501.0</ele><time>2026-05-02T17:04:15Z</time></trkpt><trkpt lat="43.863954406111176" lon="11.337927956724203"><ele>499.0</ele><time>2026-05-02T17:04:16Z</time></trkpt><trkpt lat="43.86395026336033" lon="11.33771711119506"><ele>497.0</ele><time>2026-05-02T17:04:17Z</time></trkpt><trkpt lat="43.86394829270887" lon="11.337517675833883"><ele>497.0</ele><time>2026-05-02T17:04:18Z</time></trkpt><trkpt lat="43.86395196474587" lon="11.337326697408074"><ele>497.0</ele><time>2026-05-02T17:04:19Z</time></trkpt><trkpt lat="43.863957384413524" lon="11.337148019874682"><ele>497.0</ele><time>2026-05-02T17:04:20Z</time></trkpt><trkpt lat="43.86396856438379" lon="11.336968363331781"><ele>497.0</ele><time>2026-05-02T17:04:21Z</time></trkpt><trkpt lat="43.864019507607956" lon="11.336794783813481"><ele>495.25</ele><time>2026-05-02T17:04:22Z</time></trkpt><trkpt lat="43.86405537756652" lon="11.336592274766051"><ele>493.5</ele><time>2026-05-02T17:04:23Z</time></trkpt><trkpt lat="43.86409999007785" lon="11.336400148443301"><ele>491.75</ele><time>2026-05-02T17:04:24Z</time></trkpt><trkpt lat="43.864133268806455" lon="11.336215757349457"><ele>490.0</ele><time>2026-05-02T17:04:25Z</time></trkpt><trkpt lat="43.864159415422435" lon="11.336027207559361"><ele>490.25</ele><time>2026-05-02T17:04:26Z</time></trkpt><trkpt lat="43.864162379496996" lon="11.335842927283288"><ele>490.5</ele><time>2026-05-02T17:04:27Z</time></trkpt><trkpt lat="43.86414941962298" lon="11.335649085211008"><ele>490.75</ele><time>2026-05-02T17:04:28Z</time></trkpt><trkpt lat="43.864129636295424" lon="11.335436807330582"><ele>491.0</ele><time>2026-05-02T17:04:29Z</time></trkpt><trkpt lat="43.86417216549884" lon="11.335248330719764"><ele>491.0</ele><time>2026-05-02T17:04:30Z</time></trkpt><trkpt lat="43.86419945750337" lon="11.335076136417605"><ele>491.0</ele><time>2026-05-02T17:04:31Z</time></trkpt><trkpt lat="43.86420301559578" lon="11.334914298960438"><ele>491.0</ele><time>2026-05-02T17:04:32Z</time></trkpt><trkpt lat="43.864170924013195" lon="11.334758676468173"><ele>491.0</ele><time>2026-05-02T17:04:33Z</time></trkpt><trkpt lat="43.86409467646421" lon="11.33459410861795"><ele>492.66666666666663</ele><time>2026-05-02T17:04:34Z</time></trkpt><trkpt lat="43.86400025658368" lon="11.334413543935815"><ele>494.33333333333337</ele><time>2026-05-02T17:04:35Z</time></trkpt><trkpt lat="43.863881932477824" lon="11.33424258950287"><ele>496.0</ele><time>2026-05-02T17:04:36Z</time></trkpt><trkpt lat="43.863715954025324" lon="11.334130879717083"><ele>496.0</ele><time>2026-05-02T17:04:37Z</time></trkpt><trkpt lat="43.86362054667024" lon="11.334007984322703"><ele>496.0</ele><time>2026-05-02T17:04:38Z</time></trkpt><trkpt lat="43.86355196390024" lon="11.333838502610186"><ele>496.0</ele><time>2026-05-02T17:04:39Z</time></trkpt><trkpt lat="43.86346033020096" lon="11.333679037133912"><ele>496.0</ele><time>2026-05-02T17:04:40Z</time></trkpt><trkpt lat="43.86339530871" lon="11.333538271082114"><ele>497.0</ele><time>2026-05-02T17:04:41Z</time></trkpt><trkpt lat="43.86332553705042" lon="11.333441313894932"><ele>498.0</ele><time>2026-05-02T17:04:42Z</time></trkpt><trkpt lat="43.86327982214435" lon="11.333364098183207"><ele>499.0</ele><time>2026-05-02T17:04:43Z</time></trkpt><trkpt lat="43.86331537784531" lon="11.33320237735579"><ele>500.0</ele><time>2026-05-02T17:04:45Z</time></trkpt><trkpt lat="43.86339018534652" lon="11.333174233860047"><ele>501.0</ele><time>2026-05-02T17:04:46Z</time></trkpt><trkpt lat="43.863494064459374" lon="11.333246788087"><ele>501.0</ele><time>2026-05-02T17:04:47Z</time></trkpt><trkpt lat="43.86361399823725" lon="11.333260498595324"><ele>501.0</ele><time>2026-05-02T17:04:48.001Z</time></trkpt><trkpt lat="43.86376474488059" lon="11.333290179941791"><ele>501.0</ele><time>2026-05-02T17:04:49.001Z</time></trkpt><trkpt lat="43.86392178922917" lon="11.33330656675874"><ele>501.0</ele><time>2026-05-02T17:04:50.001Z</time></trkpt><trkpt lat="43.86408607123584" lon="11.333336990091254"><ele>501.0</ele><time>2026-05-02T17:04:51.001Z</time></trkpt><trkpt lat="43.864258719546406" lon="11.333372368127629"><ele>501.0</ele><time>2026-05-02T17:04:52.001Z</time></trkpt><trkpt lat="43.86441826400783" lon="11.33340417687743"><ele>501.0</ele><time>2026-05-02T17:04:53.001Z</time></trkpt><trkpt lat="43.864553451045076" lon="11.333420410805335"><ele>502.75</ele><time>2026-05-02T17:04:54.001Z</time></trkpt><trkpt lat="43.86466349585271" lon="11.333411212960176"><ele>504.5</ele><time>2026-05-02T17:04:55.001Z</time></trkpt><trkpt lat="43.86477887754279" lon="11.333339520229849"><ele>506.25</ele><time>2026-05-02T17:04:56.001Z</time></trkpt><trkpt lat="43.864906537637374" lon="11.333234601411295"><ele>508.0</ele><time>2026-05-02T17:04:57.001Z</time></trkpt><trkpt lat="43.86506068666253" lon="11.333193868561636"><ele>511.0</ele><time>2026-05-02T17:04:58.001Z</time></trkpt><trkpt lat="43.86521739922462" lon="11.333175392970345"><ele>514.0</ele><time>2026-05-02T17:04:59.001Z</time></trkpt><trkpt lat="43.86537967918295" lon="11.333164604455305"><ele>517.0</ele><time>2026-05-02T17:05:00.001Z</time></trkpt><trkpt lat="43.865531253083155" lon="11.333155111764073"><ele>517.0</ele><time>2026-05-02T17:05:01.001Z</time></trkpt><trkpt lat="43.86566141549816" lon="11.333145670447355"><ele>517.0</ele><time>2026-05-02T17:05:02.001Z</time></trkpt><trkpt lat="43.865781017723435" lon="11.333141410404107"><ele>517.0</ele><time>2026-05-02T17:05:03.001Z</time></trkpt><trkpt lat="43.86590250370499" lon="11.333159374779433"><ele>517.0</ele><time>2026-05-02T17:05:04.001Z</time></trkpt><trkpt lat="43.86603597846952" lon="11.333224578989816"><ele>516.0</ele><time>2026-05-02T17:05:05.001Z</time></trkpt><trkpt lat="43.8661861299379" lon="11.333311226555177"><ele>515.0</ele><time>2026-05-02T17:05:06Z</time></trkpt><trkpt lat="43.866355794960334" lon="11.333400480338648"><ele>514.0</ele><time>2026-05-02T17:05:07Z</time></trkpt><trkpt lat="43.86652722733653" lon="11.333488958765868"><ele>514.0</ele><time>2026-05-02T17:05:08Z</time></trkpt><trkpt lat="43.86670745937943" lon="11.333581980847784"><ele>514.0</ele><time>2026-05-02T17:05:09Z</time></trkpt><trkpt lat="43.86689306784353" lon="11.333670505025301"><ele>514.0</ele><time>2026-05-02T17:05:10Z</time></trkpt><trkpt lat="43.86708127449305" lon="11.333741230920557"><ele>511.6666666666667</ele><time>2026-05-02T17:05:11Z</time></trkpt><trkpt lat="43.86724950589833" lon="11.333795388829145"><ele>509.33333333333337</ele><time>2026-05-02T17:05:12Z</time></trkpt><trkpt lat="43.8674213126593" lon="11.333850649509092"><ele>507.0</ele><time>2026-05-02T17:05:13Z</time></trkpt><trkpt lat="43.86759865257977" lon="11.333866759387275"><ele>512.3333333333334</ele><time>2026-05-02T17:05:14Z</time></trkpt><trkpt lat="43.86777531921642" lon="11.333908939006214"><ele>517.6666666666667</ele><time>2026-05-02T17:05:15Z</time></trkpt><trkpt lat="43.8679560440945" lon="11.33392848292844"><ele>523.0</ele><time>2026-05-02T17:05:16Z</time></trkpt><trkpt lat="43.86812204295883" lon="11.33395037936728"><ele>523.0</ele><time>2026-05-02T17:05:17Z</time></trkpt><trkpt lat="43.86827383203228" lon="11.333975608163957"><ele>523.0</ele><time>2026-05-02T17:05:18Z</time></trkpt><trkpt lat="43.868414925058026" lon="11.333983129968734"><ele>523.0</ele><time>2026-05-02T17:05:19Z</time></trkpt><trkpt lat="43.86855247092211" lon="11.333941885176879"><ele>523.0</ele><time>2026-05-02T17:05:20Z</time></trkpt><trkpt lat="43.86869102958683" lon="11.333844689358811"><ele>522.75</ele><time>2026-05-02T17:05:21Z</time></trkpt><trkpt lat="43.86881377681555" lon="11.333698720800383"><ele>522.5</ele><time>2026-05-02T17:05:22Z</time></trkpt><trkpt lat="43.86892755415785" lon="11.33358693404951"><ele>522.25</ele><time>2026-05-02T17:05:23Z</time></trkpt><trkpt lat="43.86901160458119" lon="11.33352119788454"><ele>522.0</ele><time>2026-05-02T17:05:24Z</time></trkpt><trkpt lat="43.86910057172753" lon="11.333493128514181"><ele>522.0</ele><time>2026-05-02T17:05:25Z</time></trkpt><trkpt lat="43.86918591189725" lon="11.333520007584049"><ele>522.0</ele><time>2026-05-02T17:05:26Z</time></trkpt><trkpt lat="43.869275568068474" lon="11.333619396358433"><ele>522.0</ele><time>2026-05-02T17:05:27Z</time></trkpt><trkpt lat="43.86940141712393" lon="11.333751087462769"><ele>522.0</ele><time>2026-05-02T17:05:28Z</time></trkpt><trkpt lat="43.86955545533965" lon="11.333869399123085"><ele>527.0</ele><time>2026-05-02T17:05:29Z</time></trkpt><trkpt lat="43.86969685278926" lon="11.333964584206381"><ele>532.0</ele><time>2026-05-02T17:05:30Z</time></trkpt><trkpt lat="43.869857321710434" lon="11.33401417585784"><ele>537.0</ele><time>2026-05-02T17:05:31Z</time></trkpt><trkpt lat="43.870048226314715" lon="11.334058068634418"><ele>539.0</ele><time>2026-05-02T17:05:32Z</time></trkpt><trkpt lat="43.87022160670041" lon="11.334102228108046"><ele>541.0</ele><time>2026-05-02T17:05:33Z</time></trkpt><trkpt lat="43.870367761818414" lon="11.334136320367934"><ele>543.0</ele><time>2026-05-02T17:05:34Z</time></trkpt><trkpt lat="43.87048554714885" lon="11.334147291468847"><ele>545.0</ele><time>2026-05-02T17:05:35Z</time></trkpt><trkpt lat="43.87058635853359" lon="11.334123916546044"><ele>545.0</ele><time>2026-05-02T17:05:36Z</time></trkpt><trkpt lat="43.8706809053718" lon="11.33397789277206"><ele>545.0</ele><time>2026-05-02T17:05:37Z</time></trkpt><trkpt lat="43.87077235731521" lon="11.33381926628596"><ele>545.0</ele><time>2026-05-02T17:05:38Z</time></trkpt><trkpt lat="43.870826450560514" lon="11.3336560347944"><ele>545.0</ele><time>2026-05-02T17:05:39Z</time></trkpt><trkpt lat="43.8708626508765" lon="11.333449386497369"><ele>544.0</ele><time>2026-05-02T17:05:40Z</time></trkpt><trkpt lat="43.870913140501926" lon="11.333255882477355"><ele>543.0</ele><time>2026-05-02T17:05:41Z</time></trkpt><trkpt lat="43.87094770295742" lon="11.333106522865208"><ele>542.0</ele><time>2026-05-02T17:05:42Z</time></trkpt><trkpt lat="43.87099456114007" lon="11.333003428752374"><ele>541.0</ele><time>2026-05-02T17:05:43Z</time></trkpt><trkpt lat="43.871060681987395" lon="11.332964122899329"><ele>540.0</ele><time>2026-05-02T17:05:44Z</time></trkpt><trkpt lat="43.871127727791645" lon="11.332993605213522"><ele>539.25</ele><time>2026-05-02T17:05:45Z</time></trkpt><trkpt lat="43.871216436331196" lon="11.333050036704554"><ele>538.5</ele><time>2026-05-02T17:05:46Z</time></trkpt><trkpt lat="43.87134757227073" lon="11.33310689773548"><ele>537.75</ele><time>2026-05-02T17:05:47Z</time></trkpt><trkpt lat="43.87151155484402" lon="11.333138826574137"><ele>537.0</ele><time>2026-05-02T17:05:48Z</time></trkpt><trkpt lat="43.87168061027468" lon="11.333207365013264"><ele>542.3333333333334</ele><time>2026-05-02T17:05:49Z</time></trkpt><trkpt lat="43.87185706624796" lon="11.33325663293643"><ele>547.6666666666667</ele><time>2026-05-02T17:05:50Z</time></trkpt><trkpt lat="43.872009674811096" lon="11.333336568027123"><ele>553.0</ele><time>2026-05-02T17:05:51Z</time></trkpt><trkpt lat="43.87213667939501" lon="11.333434524740428"><ele>553.0</ele><time>2026-05-02T17:05:52Z</time></trkpt><trkpt lat="43.87226284256581" lon="11.333483910117293"><ele>553.0</ele><time>2026-05-02T17:05:53Z</time></trkpt><trkpt lat="43.872391922927235" lon="11.333487419761047"><ele>553.0</ele><time>2026-05-02T17:05:54Z</time></trkpt><trkpt lat="43.87254383412067" lon="11.333426427446348"><ele>553.0</ele><time>2026-05-02T17:05:55Z</time></trkpt><trkpt lat="43.87269682222068" lon="11.33335796279861"><ele>554.0</ele><time>2026-05-02T17:05:56Z</time></trkpt><trkpt lat="43.87282009263816" lon="11.33326427984718"><ele>555.0</ele><time>2026-05-02T17:05:57Z</time></trkpt><trkpt lat="43.8729191751536" lon="11.333130702611063"><ele>556.0</ele><time>2026-05-02T17:05:58Z</time></trkpt><trkpt lat="43.87299834211298" lon="11.332943441649403"><ele>557.0</ele><time>2026-05-02T17:05:59Z</time></trkpt><trkpt lat="43.87306924759132" lon="11.332722626274661"><ele>557.0</ele><time>2026-05-02T17:06:00Z</time></trkpt><trkpt lat="43.87312636161556" lon="11.332482899704157"><ele>557.0</ele><time>2026-05-02T17:06:01Z</time></trkpt><trkpt lat="43.873168066181044" lon="11.33223410841786"><ele>557.0</ele><time>2026-05-02T17:06:02Z</time></trkpt><trkpt lat="43.87323831787735" lon="11.332014508356117"><ele>557.0</ele><time>2026-05-02T17:06:03Z</time></trkpt><trkpt lat="43.873294267276144" lon="11.33180665842911"><ele>557.0</ele><time>2026-05-02T17:06:04Z</time></trkpt><trkpt lat="43.87333406427964" lon="11.331605359203495"><ele>557.0</ele><time>2026-05-02T17:06:05Z</time></trkpt><trkpt lat="43.87339075085398" lon="11.331404816372949"><ele>559.5</ele><time>2026-05-02T17:06:06Z</time></trkpt><trkpt lat="43.87344394188781" lon="11.331217007581989"><ele>562.0</ele><time>2026-05-02T17:06:07Z</time></trkpt><trkpt lat="43.873498942023396" lon="11.331038031615986"><ele>564.5</ele><time>2026-05-02T17:06:08Z</time></trkpt><trkpt lat="43.873550303774564" lon="11.330875619368525"><ele>567.0</ele><time>2026-05-02T17:06:09Z</time></trkpt><trkpt lat="43.873560656094774" lon="11.330695867959587"><ele>567.6666666666666</ele><time>2026-05-02T17:06:10Z</time></trkpt><trkpt lat="43.873521577094905" lon="11.33050519812541"><ele>568.3333333333333</ele><time>2026-05-02T17:06:11Z</time></trkpt><trkpt lat="43.87343724767322" lon="11.33032103763307"><ele>569.0</ele><time>2026-05-02T17:06:12Z</time></trkpt><trkpt lat="43.873354054273605" lon="11.3301434856034"><ele>567.3333333333333</ele><time>2026-05-02T17:06:13Z</time></trkpt><trkpt lat="43.87332085149467" lon="11.32990814776315"><ele>565.6666666666666</ele><time>2026-05-02T17:06:14Z</time></trkpt><trkpt lat="43.8732457745623" lon="11.329668118181802"><ele>564.0</ele><time>2026-05-02T17:06:15Z</time></trkpt><trkpt lat="43.87316504416911" lon="11.329447359801634"><ele>564.0</ele><time>2026-05-02T17:06:16Z</time></trkpt><trkpt lat="43.87307470004707" lon="11.329267132736607"><ele>564.0</ele><time>2026-05-02T17:06:17Z</time></trkpt><trkpt lat="43.872997181519914" lon="11.329102815490081"><ele>564.0</ele><time>2026-05-02T17:06:18Z</time></trkpt><trkpt lat="43.872960891037096" lon="11.328915879320599"><ele>564.0</ele><time>2026-05-02T17:06:19Z</time></trkpt><trkpt lat="43.872934123037425" lon="11.328709170078245"><ele>565.6666666666666</ele><time>2026-05-02T17:06:20Z</time></trkpt><trkpt lat="43.87287692883484" lon="11.328479500152651"><ele>567.3333333333333</ele><time>2026-05-02T17:06:21Z</time></trkpt><trkpt lat="43.872821598753774" lon="11.328261746266158"><ele>569.0</ele><time>2026-05-02T17:06:22Z</time></trkpt><trkpt lat="43.87279128553232" lon="11.328064968343524"><ele>568.75</ele><time>2026-05-02T17:06:23Z</time></trkpt><trkpt lat="43.87277202461145" lon="11.327879798197916"><ele>568.5</ele><time>2026-05-02T17:06:24Z</time></trkpt><trkpt lat="43.87274489977075" lon="11.327688897298582"><ele>568.25</ele><time>2026-05-02T17:06:25Z</time></trkpt><trkpt lat="43.87273371466322" lon="11.327475761170017"><ele>568.0</ele><time>2026-05-02T17:06:26Z</time></trkpt><trkpt lat="43.872715581022526" lon="11.32727151548287"><ele>567.6</ele><time>2026-05-02T17:06:27Z</time></trkpt><trkpt lat="43.872698799025926" lon="11.327088091260721"><ele>567.1999999999999</ele><time>2026-05-02T17:06:28Z</time></trkpt><trkpt lat="43.87270008248124" lon="11.326925560139419"><ele>566.8</ele><time>2026-05-02T17:06:29Z</time></trkpt><trkpt lat="43.87269298129667" lon="11.326790131468439"><ele>566.4</ele><time>2026-05-02T17:06:30Z</time></trkpt><trkpt lat="43.87267791459946" lon="11.326680434145093"><ele>566.0</ele><time>2026-05-02T17:06:31Z</time></trkpt><trkpt lat="43.87269273733828" lon="11.326570799104301"><ele>566.0</ele><time>2026-05-02T17:06:33Z</time></trkpt><trkpt lat="43.87270628095039" lon="11.326463605855501"><ele>566.0</ele><time>2026-05-02T17:06:35.999Z</time></trkpt><trkpt lat="43.87266985389338" lon="11.326383053584014"><ele>566.0</ele><time>2026-05-02T17:06:37.999Z</time></trkpt><trkpt lat="43.87255536471486" lon="11.326337232321771"><ele>566.0</ele><time>2026-05-02T17:06:39.999Z</time></trkpt><trkpt lat="43.872473092437176" lon="11.326289108666975"><ele>566.0</ele><time>2026-05-02T17:06:40.999Z</time></trkpt><trkpt lat="43.87238145691396" lon="11.326203887716709"><ele>561.75</ele><time>2026-05-02T17:06:41.999Z</time></trkpt><trkpt lat="43.87227731640892" lon="11.326087081067534"><ele>557.5</ele><time>2026-05-02T17:06:42.999Z</time></trkpt><trkpt lat="43.87217680726318" lon="11.325950819883177"><ele>553.25</ele><time>2026-05-02T17:06:43.999Z</time></trkpt><trkpt lat="43.87206429159583" lon="11.325791936795268"><ele>549.0</ele><time>2026-05-02T17:06:44.999Z</time></trkpt><trkpt lat="43.87196420250192" lon="11.32557789424036"><ele>547.0</ele><time>2026-05-02T17:06:45.999Z</time></trkpt><trkpt lat="43.87182906809397" lon="11.325349690161623"><ele>545.0</ele><time>2026-05-02T17:06:46.999Z</time></trkpt><trkpt lat="43.87170835202124" lon="11.325119290859464"><ele>543.0</ele><time>2026-05-02T17:06:47.999Z</time></trkpt><trkpt lat="43.871589013853296" lon="11.324896418423744"><ele>540.6666666666666</ele><time>2026-05-02T17:06:48.999Z</time></trkpt><trkpt lat="43.871469544864" lon="11.324673599023019"><ele>538.3333333333333</ele><time>2026-05-02T17:06:49.999Z</time></trkpt><trkpt lat="43.87134804389086" lon="11.324443607646991"><ele>536.0</ele><time>2026-05-02T17:06:50.999Z</time></trkpt><trkpt lat="43.871228849332304" lon="11.324202665412182"><ele>536.0</ele><time>2026-05-02T17:06:51.999Z</time></trkpt><trkpt lat="43.871114326448264" lon="11.323955150973726"><ele>536.0</ele><time>2026-05-02T17:06:52.999Z</time></trkpt><trkpt lat="43.87100578124131" lon="11.323699980113947"><ele>536.0</ele><time>2026-05-02T17:06:54Z</time></trkpt><trkpt lat="43.87090246288967" lon="11.323438598528927"><ele>534.0</ele><time>2026-05-02T17:06:55Z</time></trkpt><trkpt lat="43.87080207615055" lon="11.323186722640482"><ele>532.0</ele><time>2026-05-02T17:06:56Z</time></trkpt><trkpt lat="43.870706554109795" lon="11.322951115798233"><ele>530.0</ele><time>2026-05-02T17:06:57Z</time></trkpt><trkpt lat="43.870619384483795" lon="11.322726337658276"><ele>528.6666666666666</ele><time>2026-05-02T17:06:58Z</time></trkpt><trkpt lat="43.87053871823385" lon="11.3225022869873"><ele>527.3333333333334</ele><time>2026-05-02T17:06:59Z</time></trkpt><trkpt lat="43.87047383904699" lon="11.322276130463848"><ele>526.0</ele><time>2026-05-02T17:07:00Z</time></trkpt><trkpt lat="43.87041767577475" lon="11.322033211316224"><ele>523.6666666666667</ele><time>2026-05-02T17:07:01Z</time></trkpt><trkpt lat="43.87037056813364" lon="11.321768709580667"><ele>521.3333333333334</ele><time>2026-05-02T17:07:02Z</time></trkpt><trkpt lat="43.87032684834456" lon="11.32149707187398"><ele>519.0</ele><time>2026-05-02T17:07:03Z</time></trkpt><trkpt lat="43.87028072929253" lon="11.321220993532616"><ele>516.0</ele><time>2026-05-02T17:07:04Z</time></trkpt><trkpt lat="43.87023374692824" lon="11.32095350199867"><ele>513.0</ele><time>2026-05-02T17:07:05Z</time></trkpt><trkpt lat="43.87018745817892" lon="11.32068696638612"><ele>510.0</ele><time>2026-05-02T17:07:06Z</time></trkpt><trkpt lat="43.870139198482526" lon="11.320415667806136"><ele>511.66666666666663</ele><time>2026-05-02T17:07:07Z</time></trkpt><trkpt lat="43.87008494042781" lon="11.320146969656662"><ele>513.3333333333333</ele><time>2026-05-02T17:07:08Z</time></trkpt><trkpt lat="43.87002521581507" lon="11.319870611674633"><ele>515.0</ele><time>2026-05-02T17:07:09Z</time></trkpt><trkpt lat="43.86995972243039" lon="11.319594684441629"><ele>515.0</ele><time>2026-05-02T17:07:10Z</time></trkpt><trkpt lat="43.86988911002117" lon="11.319328172420963"><ele>515.0</ele><time>2026-05-02T17:07:11Z</time></trkpt><trkpt lat="43.86980498646835" lon="11.319065515402393"><ele>515.0</ele><time>2026-05-02T17:07:12Z</time></trkpt><trkpt lat="43.86972018649496" lon="11.318818543496755"><ele>513.6666666666666</ele><time>2026-05-02T17:07:13Z</time></trkpt><trkpt lat="43.8696529654423" lon="11.318580473877802"><ele>512.3333333333334</ele><time>2026-05-02T17:07:14Z</time></trkpt><trkpt lat="43.869597052388734" lon="11.318367233979608"><ele>511.0</ele><time>2026-05-02T17:07:15Z</time></trkpt><trkpt lat="43.86953971759995" lon="11.318202349816497"><ele>511.0</ele><time>2026-05-02T17:07:16Z</time></trkpt><trkpt lat="43.869471419251695" lon="11.31809738181521"><ele>511.0</ele><time>2026-05-02T17:07:17Z</time></trkpt><trkpt lat="43.86937817091673" lon="11.318042855582174"><ele>511.0</ele><time>2026-05-02T17:07:18Z</time></trkpt><trkpt lat="43.86924731472767" lon="11.31801848943377"><ele>511.0</ele><time>2026-05-02T17:07:19Z</time></trkpt><trkpt lat="43.8691077302578" lon="11.31802902342059"><ele>511.75</ele><time>2026-05-02T17:07:20Z</time></trkpt><trkpt lat="43.86899723136278" lon="11.317987602672334"><ele>512.5</ele><time>2026-05-02T17:07:21Z</time></trkpt><trkpt lat="43.868896358672266" lon="11.31797432643782"><ele>513.25</ele><time>2026-05-02T17:07:22Z</time></trkpt><trkpt lat="43.86880093487103" lon="11.317870600439138"><ele>514.0</ele><time>2026-05-02T17:07:23Z</time></trkpt><trkpt lat="43.868746041460916" lon="11.317690799342312"><ele>514.0</ele><time>2026-05-02T17:07:24Z</time></trkpt><trkpt lat="43.8687053400227" lon="11.317462994325263"><ele>514.0</ele><time>2026-05-02T17:07:25Z</time></trkpt><trkpt lat="43.86866372598767" lon="11.317246782092015"><ele>514.0</ele><time>2026-05-02T17:07:26Z</time></trkpt><trkpt lat="43.86862159510438" lon="11.317052785018019"><ele>513.25</ele><time>2026-05-02T17:07:27Z</time></trkpt><trkpt lat="43.868593513823996" lon="11.316854107951869"><ele>512.5</ele><time>2026-05-02T17:07:28Z</time></trkpt><trkpt lat="43.86858677789501" lon="11.316651429044986"><ele>511.75</ele><time>2026-05-02T17:07:29Z</time></trkpt><trkpt lat="43.868586169489106" lon="11.316453925749453"><ele>511.0</ele><time>2026-05-02T17:07:30Z</time></trkpt><trkpt lat="43.86858855258372" lon="11.316258424453"><ele>511.0</ele><time>2026-05-02T17:07:31Z</time></trkpt><trkpt lat="43.86858917021473" lon="11.31605562369678"><ele>511.0</ele><time>2026-05-02T17:07:32Z</time></trkpt><trkpt lat="43.86858669760633" lon="11.31585824122324"><ele>511.0</ele><time>2026-05-02T17:07:33Z</time></trkpt><trkpt lat="43.86857327471003" lon="11.315643476006226"><ele>511.0</ele><time>2026-05-02T17:07:34Z</time></trkpt><trkpt lat="43.86853021553232" lon="11.315419110296961"><ele>511.33333333333337</ele><time>2026-05-02T17:07:35Z</time></trkpt><trkpt lat="43.868450734284636" lon="11.315191190895083"><ele>511.66666666666663</ele><time>2026-05-02T17:07:36Z</time></trkpt><trkpt lat="43.868365097445434" lon="11.314966067308823"><ele>512.0</ele><time>2026-05-02T17:07:37Z</time></trkpt><trkpt lat="43.86827284833115" lon="11.31475470773803"><ele>513.0</ele><time>2026-05-02T17:07:38Z</time></trkpt><trkpt lat="43.868195966347514" lon="11.314522021227237"><ele>514.0</ele><time>2026-05-02T17:07:39Z</time></trkpt><trkpt lat="43.86813951227239" lon="11.314282735686392"><ele>515.0</ele><time>2026-05-02T17:07:40Z</time></trkpt><trkpt lat="43.868068383162914" lon="11.314062094459635"><ele>514.0</ele><time>2026-05-02T17:07:41Z</time></trkpt><trkpt lat="43.86805230399795" lon="11.313836080877783"><ele>513.0</ele><time>2026-05-02T17:07:42Z</time></trkpt><trkpt lat="43.86802779132628" lon="11.313607968941412"><ele>512.0</ele><time>2026-05-02T17:07:43Z</time></trkpt><trkpt lat="43.86798389530686" lon="11.31341959828464"><ele>512.0</ele><time>2026-05-02T17:07:44Z</time></trkpt><trkpt lat="43.867951531037406" lon="11.313238004957562"><ele>512.0</ele><time>2026-05-02T17:07:45Z</time></trkpt><trkpt lat="43.86790935109498" lon="11.313065848313467"><ele>512.0</ele><time>2026-05-02T17:07:46Z</time></trkpt><trkpt lat="43.86784639105149" lon="11.31290024950794"><ele>512.0</ele><time>2026-05-02T17:07:47Z</time></trkpt><trkpt lat="43.86774439668409" lon="11.31272593267622"><ele>513.0</ele><time>2026-05-02T17:07:48Z</time></trkpt><trkpt lat="43.867597384681304" lon="11.31255663318805"><ele>514.0</ele><time>2026-05-02T17:07:49Z</time></trkpt><trkpt lat="43.86744566170414" lon="11.312405638592665"><ele>515.0</ele><time>2026-05-02T17:07:50Z</time></trkpt><trkpt lat="43.86728935325549" lon="11.312254910480803"><ele>517.3333333333333</ele><time>2026-05-02T17:07:51Z</time></trkpt><trkpt lat="43.86712944694986" lon="11.312098824828443"><ele>519.6666666666666</ele><time>2026-05-02T17:07:52Z</time></trkpt><trkpt lat="43.86696234298984" lon="11.311932830863313"><ele>522.0</ele><time>2026-05-02T17:07:53Z</time></trkpt><trkpt lat="43.86679448460475" lon="11.311780473929662"><ele>524.3333333333334</ele><time>2026-05-02T17:07:54Z</time></trkpt><trkpt lat="43.86663282786558" lon="11.311670703077429"><ele>526.6666666666667</ele><time>2026-05-02T17:07:55Z</time></trkpt><trkpt lat="43.86648993280211" lon="11.311580941574402"><ele>529.0</ele><time>2026-05-02T17:07:56Z</time></trkpt><trkpt lat="43.86636807377174" lon="11.311501061280643"><ele>529.0</ele><time>2026-05-02T17:07:57Z</time></trkpt><trkpt lat="43.86627300587746" lon="11.311412264421282"><ele>529.0</ele><time>2026-05-02T17:07:58Z</time></trkpt><trkpt lat="43.8661925285294" lon="11.311339837588399"><ele>529.0</ele><time>2026-05-02T17:07:59Z</time></trkpt><trkpt lat="43.866136334641396" lon="11.311246993684442"><ele>529.0</ele><time>2026-05-02T17:08:00Z</time></trkpt><trkpt lat="43.86608676918421" lon="11.31118481753254"><ele>529.0</ele><time>2026-05-02T17:08:01Z</time></trkpt><trkpt lat="43.86603843820825" lon="11.311123710542716"><ele>529.0</ele><time>2026-05-02T17:08:02Z</time></trkpt><trkpt lat="43.86596733788635" lon="11.311038555843009"><ele>529.4</ele><time>2026-05-02T17:08:04Z</time></trkpt><trkpt lat="43.86590622934398" lon="11.310922146986856"><ele>529.8</ele><time>2026-05-02T17:08:06Z</time></trkpt><trkpt lat="43.865874059310535" lon="11.310810357639985"><ele>530.2</ele><time>2026-05-02T17:08:13Z</time></trkpt><trkpt lat="43.86585598645803" lon="11.310722620057575"><ele>530.6</ele><time>2026-05-02T17:08:14Z</time></trkpt><trkpt lat="43.86583518734671" lon="11.310590026337083"><ele>531.0</ele><time>2026-05-02T17:08:15Z</time></trkpt><trkpt lat="43.86582654852551" lon="11.310442993916322"><ele>530.75</ele><time>2026-05-02T17:08:16Z</time></trkpt><trkpt lat="43.865833747228436" lon="11.31025314019498"><ele>530.5</ele><time>2026-05-02T17:08:17Z</time></trkpt><trkpt lat="43.86583567652706" lon="11.3100539968542"><ele>530.25</ele><time>2026-05-02T17:08:18Z</time></trkpt><trkpt lat="43.86580943573991" lon="11.309855570563943"><ele>530.0</ele><time>2026-05-02T17:08:19Z</time></trkpt><trkpt lat="43.865733711816596" lon="11.309638049444178"><ele>530.0</ele><time>2026-05-02T17:08:20Z</time></trkpt><trkpt lat="43.86564279499155" lon="11.30941932240539"><ele>530.0</ele><time>2026-05-02T17:08:21Z</time></trkpt><trkpt lat="43.86556853553416" lon="11.30920293882053"><ele>530.0</ele><time>2026-05-02T17:08:22Z</time></trkpt><trkpt lat="43.86551999250652" lon="11.308973351586012"><ele>529.5</ele><time>2026-05-02T17:08:23Z</time></trkpt><trkpt lat="43.86548492790807" lon="11.308759832638998"><ele>529.0</ele><time>2026-05-02T17:08:24Z</time></trkpt><trkpt lat="43.86544637744644" lon="11.308567738759836"><ele>528.5</ele><time>2026-05-02T17:08:24.999Z</time></trkpt><trkpt lat="43.86541500486348" lon="11.308397788598622"><ele>528.0</ele><time>2026-05-02T17:08:25.999Z</time></trkpt><trkpt lat="43.8653914968706" lon="11.308239340483492"><ele>528.0</ele><time>2026-05-02T17:08:26.999Z</time></trkpt><trkpt lat="43.86538798976475" lon="11.308080615296877"><ele>528.0</ele><time>2026-05-02T17:08:27.999Z</time></trkpt><trkpt lat="43.86542132724303" lon="11.30791515484947"><ele>528.0</ele><time>2026-05-02T17:08:28.999Z</time></trkpt><trkpt lat="43.865476425395805" lon="11.30776875593625"><ele>528.0</ele><time>2026-05-02T17:08:29.999Z</time></trkpt><trkpt lat="43.8655221880398" lon="11.30763586413503"><ele>527.5</ele><time>2026-05-02T17:08:30.999Z</time></trkpt><trkpt lat="43.86554049567983" lon="11.30747159437896"><ele>527.0</ele><time>2026-05-02T17:08:31.999Z</time></trkpt><trkpt lat="43.865539141669366" lon="11.307283440226811"><ele>526.5</ele><time>2026-05-02T17:08:32.999Z</time></trkpt><trkpt lat="43.86552978643847" lon="11.30708422726265"><ele>526.0</ele><time>2026-05-02T17:08:33.999Z</time></trkpt><trkpt lat="43.865523687923776" lon="11.306900836993472"><ele>525.4</ele><time>2026-05-02T17:08:34.999Z</time></trkpt><trkpt lat="43.865528091738945" lon="11.306726918687232"><ele>524.8</ele><time>2026-05-02T17:08:35.999Z</time></trkpt><trkpt lat="43.86554572378645" lon="11.306575837084624"><ele>524.1999999999999</ele><time>2026-05-02T17:08:36.999Z</time></trkpt><trkpt lat="43.865559916813794" lon="11.306428115081905"><ele>523.6</ele><time>2026-05-02T17:08:37.999Z</time></trkpt><trkpt lat="43.86556771002064" lon="11.306283298277323"><ele>523.0</ele><time>2026-05-02T17:08:38.999Z</time></trkpt><trkpt lat="43.86555229748546" lon="11.306135817322808"><ele>521.8</ele><time>2026-05-02T17:08:39.999Z</time></trkpt><trkpt lat="43.86552840881049" lon="11.305994855717946"><ele>520.5999999999999</ele><time>2026-05-02T17:08:40.999Z</time></trkpt><trkpt lat="43.86550439837805" lon="11.305866416508172"><ele>519.4000000000001</ele><time>2026-05-02T17:08:41.999Z</time></trkpt><trkpt lat="43.86547901900447" lon="11.305743079657503"><ele>518.2</ele><time>2026-05-02T17:08:42.999Z</time></trkpt><trkpt lat="43.86544564223748" lon="11.3056384659061"><ele>517.0</ele><time>2026-05-02T17:08:43.999Z</time></trkpt><trkpt lat="43.865392918550974" lon="11.305540655646526"><ele>516.0</ele><time>2026-05-02T17:08:44.999Z</time></trkpt><trkpt lat="43.86531649165245" lon="11.305444679014226"><ele>515.0</ele><time>2026-05-02T17:08:45.999Z</time></trkpt><trkpt lat="43.86523436288036" lon="11.305361525469944"><ele>514.0</ele><time>2026-05-02T17:08:46.999Z</time></trkpt><trkpt lat="43.86515261585779" lon="11.305276908552258"><ele>513.0</ele><time>2026-05-02T17:08:47.999Z</time></trkpt><trkpt lat="43.86507788978964" lon="11.305183158535721"><ele>512.0</ele><time>2026-05-02T17:08:48.999Z</time></trkpt><trkpt lat="43.86501665254324" lon="11.30507026332824"><ele>512.0</ele><time>2026-05-02T17:08:49.999Z</time></trkpt><trkpt lat="43.86497781529924" lon="11.30493281930967"><ele>512.0</ele><time>2026-05-02T17:08:50.999Z</time></trkpt><trkpt lat="43.86495195614069" lon="11.304757112795837"><ele>512.0</ele><time>2026-05-02T17:08:51.999Z</time></trkpt><trkpt lat="43.8649481137923" lon="11.30454540320183"><ele>512.0</ele><time>2026-05-02T17:08:52.999Z</time></trkpt><trkpt lat="43.86492222624082" lon="11.304323580904493"><ele>508.3333333333333</ele><time>2026-05-02T17:08:53.999Z</time></trkpt><trkpt lat="43.86487744239615" lon="11.304086937213064"><ele>504.66666666666663</ele><time>2026-05-02T17:08:54.999Z</time></trkpt><trkpt lat="43.86485169666028" lon="11.303846933394794"><ele>501.0</ele><time>2026-05-02T17:08:55.999Z</time></trkpt><trkpt lat="43.86481171305013" lon="11.303633513072844"><ele>498.0</ele><time>2026-05-02T17:08:56.999Z</time></trkpt><trkpt lat="43.86475639674924" lon="11.303419697246776"><ele>495.0</ele><time>2026-05-02T17:08:57.999Z</time></trkpt><trkpt lat="43.86469889546352" lon="11.303229993473112"><ele>492.0</ele><time>2026-05-02T17:08:58.999Z</time></trkpt><trkpt lat="43.864631943792205" lon="11.303071132821723"><ele>489.0</ele><time>2026-05-02T17:09:00Z</time></trkpt><trkpt lat="43.86454740185931" lon="11.302947432069605"><ele>489.0</ele><time>2026-05-02T17:09:01Z</time></trkpt><trkpt lat="43.864438137470046" lon="11.302877043287422"><ele>489.0</ele><time>2026-05-02T17:09:02Z</time></trkpt><trkpt lat="43.864282391975" lon="11.30285425588802"><ele>489.0</ele><time>2026-05-02T17:09:03Z</time></trkpt><trkpt lat="43.86408705425057" lon="11.30283125393044"><ele>489.0</ele><time>2026-05-02T17:09:04Z</time></trkpt><trkpt lat="43.863891739668965" lon="11.302789094355022"><ele>489.0</ele><time>2026-05-02T17:09:05Z</time></trkpt><trkpt lat="43.86372202412348" lon="11.302732944956725"><ele>489.0</ele><time>2026-05-02T17:09:06Z</time></trkpt><trkpt lat="43.863572126926044" lon="11.302675947911302"><ele>489.0</ele><time>2026-05-02T17:09:07Z</time></trkpt><trkpt lat="43.863449250981716" lon="11.302598819627622"><ele>489.0</ele><time>2026-05-02T17:09:08Z</time></trkpt><trkpt lat="43.863330779553955" lon="11.302552063766605"><ele>489.0</ele><time>2026-05-02T17:09:09Z</time></trkpt><trkpt lat="43.86322459309712" lon="11.302435331395312"><ele>489.0</ele><time>2026-05-02T17:09:10Z</time></trkpt><trkpt lat="43.86314806158503" lon="11.302263969121755"><ele>483.66666666666663</ele><time>2026-05-02T17:09:11Z</time></trkpt><trkpt lat="43.863079909608" lon="11.3020742654134"><ele>478.3333333333333</ele><time>2026-05-02T17:09:12Z</time></trkpt><trkpt lat="43.86300108583219" lon="11.301893816437664"><ele>473.0</ele><time>2026-05-02T17:09:13Z</time></trkpt><trkpt lat="43.862924471846895" lon="11.301723153850306"><ele>473.0</ele><time>2026-05-02T17:09:14Z</time></trkpt><trkpt lat="43.86283567737395" lon="11.301565635081452"><ele>473.0</ele><time>2026-05-02T17:09:15Z</time></trkpt><trkpt lat="43.86275297145763" lon="11.301415222695068"><ele>473.0</ele><time>2026-05-02T17:09:16Z</time></trkpt><trkpt lat="43.86267884806429" lon="11.301286327600453"><ele>473.0</ele><time>2026-05-02T17:09:17Z</time></trkpt><trkpt lat="43.86261770974603" lon="11.30117805167335"><ele>473.2</ele><time>2026-05-02T17:09:18Z</time></trkpt><trkpt lat="43.862581526436095" lon="11.301097652279015"><ele>473.4</ele><time>2026-05-02T17:09:19Z</time></trkpt><trkpt lat="43.862572044237105" lon="11.300985172676265"><ele>473.59999999999997</ele><time>2026-05-02T17:09:21Z</time></trkpt><trkpt lat="43.862546871822666" lon="11.300837754533848"><ele>473.79999999999995</ele><time>2026-05-02T17:09:23Z</time></trkpt><trkpt lat="43.86249435908764" lon="11.30071043080472"><ele>474.0</ele><time>2026-05-02T17:09:24Z</time></trkpt><trkpt lat="43.862432432563956" lon="11.300572079629783"><ele>474.79999999999995</ele><time>2026-05-02T17:09:25Z</time></trkpt><trkpt lat="43.86235655958795" lon="11.300409776944605"><ele>475.59999999999997</ele><time>2026-05-02T17:09:26Z</time></trkpt><trkpt lat="43.86227846310302" lon="11.300272125959472"><ele>476.4</ele><time>2026-05-02T17:09:27Z</time></trkpt><trkpt lat="43.862216488040254" lon="11.300173589148534"><ele>477.2</ele><time>2026-05-02T17:09:28Z</time></trkpt><trkpt lat="43.862180454782276" lon="11.30008254431988"><ele>478.0</ele><time>2026-05-02T17:09:29Z</time></trkpt><trkpt lat="43.86217824855599" lon="11.299981409727712"><ele>478.0</ele><time>2026-05-02T17:09:30Z</time></trkpt><trkpt lat="43.862194937270274" lon="11.299842444232171"><ele>478.0</ele><time>2026-05-02T17:09:31Z</time></trkpt><trkpt lat="43.86220766033943" lon="11.299652265333325"><ele>478.0</ele><time>2026-05-02T17:09:32Z</time></trkpt><trkpt lat="43.862216450097925" lon="11.299462546286037"><ele>478.0</ele><time>2026-05-02T17:09:33Z</time></trkpt><trkpt lat="43.86222213686411" lon="11.29932665545494"><ele>479.0</ele><time>2026-05-02T17:09:34Z</time></trkpt><trkpt lat="43.86222146176792" lon="11.2992223827011"><ele>479.99999999999994</ele><time>2026-05-02T17:09:35Z</time></trkpt><trkpt lat="43.862223656726215" lon="11.299124671733058"><ele>480.99999999999994</ele><time>2026-05-02T17:09:36Z</time></trkpt><trkpt lat="43.86222176153288" lon="11.298980966398355"><ele>482.0</ele><time>2026-05-02T17:09:37Z</time></trkpt><trkpt lat="43.86222502690658" lon="11.29881942871219"><ele>483.0</ele><time>2026-05-02T17:09:38Z</time></trkpt><trkpt lat="43.86222951949453" lon="11.298666607949695"><ele>484.75</ele><time>2026-05-02T17:09:39Z</time></trkpt><trkpt lat="43.86222109332164" lon="11.298546234029105"><ele>486.5</ele><time>2026-05-02T17:09:40Z</time></trkpt><trkpt lat="43.86217897461217" lon="11.2984241703197"><ele>488.25</ele><time>2026-05-02T17:09:41Z</time></trkpt><trkpt lat="43.86211505096846" lon="11.298284145612248"><ele>490.0</ele><time>2026-05-02T17:09:42Z</time></trkpt><trkpt lat="43.862027783242176" lon="11.298116408500517"><ele>489.5</ele><time>2026-05-02T17:09:43Z</time></trkpt><trkpt lat="43.86194776381035" lon="11.297957691300658"><ele>489.0</ele><time>2026-05-02T17:09:44Z</time></trkpt><trkpt lat="43.86188057433975" lon="11.297814588763174"><ele>488.5</ele><time>2026-05-02T17:09:45Z</time></trkpt><trkpt lat="43.861821864692374" lon="11.297686524667402"><ele>488.0</ele><time>2026-05-02T17:09:46Z</time></trkpt><trkpt lat="43.861778344163554" lon="11.297565808146086"><ele>488.0</ele><time>2026-05-02T17:09:47Z</time></trkpt><trkpt lat="43.86174154850606" lon="11.297444118076893"><ele>488.0</ele><time>2026-05-02T17:09:48Z</time></trkpt><trkpt lat="43.86170543428" lon="11.2973002838282"><ele>488.0</ele><time>2026-05-02T17:09:49Z</time></trkpt><trkpt lat="43.861662744417124" lon="11.297131397336265"><ele>488.0</ele><time>2026-05-02T17:09:50Z</time></trkpt><trkpt lat="43.861611676352354" lon="11.296914076637858"><ele>490.3333333333333</ele><time>2026-05-02T17:09:51Z</time></trkpt><trkpt lat="43.861549401960914" lon="11.296648741455343"><ele>492.66666666666663</ele><time>2026-05-02T17:09:52Z</time></trkpt><trkpt lat="43.861477132288655" lon="11.296383712333624"><ele>495.0</ele><time>2026-05-02T17:09:53Z</time></trkpt><trkpt lat="43.86136746219527" lon="11.296118069932476"><ele>498.0</ele><time>2026-05-02T17:09:54Z</time></trkpt><trkpt lat="43.86125186203813" lon="11.295837902850806"><ele>501.0</ele><time>2026-05-02T17:09:55Z</time></trkpt><trkpt lat="43.86113380640302" lon="11.29556389407965"><ele>502.0</ele><time>2026-05-02T17:09:56Z</time></trkpt><trkpt lat="43.86101533383886" lon="11.295297780180569"><ele>503.0</ele><time>2026-05-02T17:09:57Z</time></trkpt><trkpt lat="43.86090149214734" lon="11.295033805806591"><ele>504.0</ele><time>2026-05-02T17:09:58Z</time></trkpt><trkpt lat="43.860793108097766" lon="11.294775637628797"><ele>500.66666666666663</ele><time>2026-05-02T17:09:59Z</time></trkpt><trkpt lat="43.86069353610509" lon="11.294545215462577"><ele>497.3333333333333</ele><time>2026-05-02T17:10:00Z</time></trkpt><trkpt lat="43.860609358927775" lon="11.294340454055897"><ele>494.0</ele><time>2026-05-02T17:10:01Z</time></trkpt><trkpt lat="43.86051198625171" lon="11.294166794932785"><ele>494.0</ele><time>2026-05-02T17:10:02Z</time></trkpt><trkpt lat="43.860415694009" lon="11.294010727640947"><ele>494.0</ele><time>2026-05-02T17:10:03Z</time></trkpt><trkpt lat="43.86029222868938" lon="11.293885424092702"><ele>494.0</ele><time>2026-05-02T17:10:04Z</time></trkpt><trkpt lat="43.8601483408283" lon="11.293783941420246"><ele>493.0</ele><time>2026-05-02T17:10:05Z</time></trkpt><trkpt lat="43.86000268192031" lon="11.29368191497742"><ele>492.0</ele><time>2026-05-02T17:10:06Z</time></trkpt><trkpt lat="43.859849925089364" lon="11.293545133316929"><ele>491.0</ele><time>2026-05-02T17:10:07Z</time></trkpt><trkpt lat="43.85971483305782" lon="11.29341634075794"><ele>491.0</ele><time>2026-05-02T17:10:08Z</time></trkpt><trkpt lat="43.85959392203394" lon="11.293288741699643"><ele>491.0</ele><time>2026-05-02T17:10:09Z</time></trkpt><trkpt lat="43.85947840016404" lon="11.293178776444806"><ele>491.0</ele><time>2026-05-02T17:10:10Z</time></trkpt><trkpt lat="43.85936880016363" lon="11.29307661406908"><ele>491.0</ele><time>2026-05-02T17:10:11Z</time></trkpt><trkpt lat="43.85925963316154" lon="11.292974643388968"><ele>490.75</ele><time>2026-05-02T17:10:12Z</time></trkpt><trkpt lat="43.85914963045983" lon="11.292879307774648"><ele>490.5</ele><time>2026-05-02T17:10:13Z</time></trkpt><trkpt lat="43.85904252369485" lon="11.292779121875604"><ele>490.25</ele><time>2026-05-02T17:10:14Z</time></trkpt><trkpt lat="43.858945924572716" lon="11.29267975201652"><ele>490.0</ele><time>2026-05-02T17:10:15Z</time></trkpt><trkpt lat="43.85885119386651" lon="11.29258254778476"><ele>490.0</ele><time>2026-05-02T17:10:16Z</time></trkpt><trkpt lat="43.858753314121984" lon="11.292511282164728"><ele>490.0</ele><time>2026-05-02T17:10:17Z</time></trkpt><trkpt lat="43.85863672997671" lon="11.292454017726348"><ele>490.0</ele><time>2026-05-02T17:10:18Z</time></trkpt><trkpt lat="43.858510144961485" lon="11.292440920102907"><ele>490.0</ele><time>2026-05-02T17:10:19Z</time></trkpt><trkpt lat="43.85839735372863" lon="11.292419767534895"><ele>491.5</ele><time>2026-05-02T17:10:20Z</time></trkpt><trkpt lat="43.85830248352909" lon="11.29236221562813"><ele>493.0</ele><time>2026-05-02T17:10:20.999Z</time></trkpt><trkpt lat="43.858190120259394" lon="11.29227946417298"><ele>494.5</ele><time>2026-05-02T17:10:21.999Z</time></trkpt><trkpt lat="43.85807917986385" lon="11.292178807026358"><ele>496.0</ele><time>2026-05-02T17:10:22.999Z</time></trkpt><trkpt lat="43.857968957294545" lon="11.292053649817694"><ele>494.25</ele><time>2026-05-02T17:10:23.999Z</time></trkpt><trkpt lat="43.85785932829594" lon="11.29191490857976"><ele>492.5</ele><time>2026-05-02T17:10:24.999Z</time></trkpt><trkpt lat="43.85775770714231" lon="11.29177469799445"><ele>490.75</ele><time>2026-05-02T17:10:25.999Z</time></trkpt><trkpt lat="43.85765305609817" lon="11.291656136204832"><ele>489.0</ele><time>2026-05-02T17:10:26.999Z</time></trkpt><trkpt lat="43.857549568528455" lon="11.291540194821193"><ele>485.33333333333337</ele><time>2026-05-02T17:10:27.999Z</time></trkpt><trkpt lat="43.85743838036332" lon="11.291417460063661"><ele>481.6666666666667</ele><time>2026-05-02T17:10:28.999Z</time></trkpt><trkpt lat="43.85730938607036" lon="11.291300916409803"><ele>478.0</ele><time>2026-05-02T17:10:29.999Z</time></trkpt><trkpt lat="43.857162403966356" lon="11.291189104388442"><ele>478.0</ele><time>2026-05-02T17:10:30.999Z</time></trkpt><trkpt lat="43.85700917871338" lon="11.29106059349771"><ele>478.0</ele><time>2026-05-02T17:10:31.999Z</time></trkpt><trkpt lat="43.85685662229388" lon="11.290948230691056"><ele>478.0</ele><time>2026-05-02T17:10:32.999Z</time></trkpt><trkpt lat="43.85671832866664" lon="11.290829357942435"><ele>480.6666666666667</ele><time>2026-05-02T17:10:33.999Z</time></trkpt><trkpt lat="43.85657925689267" lon="11.290702735400675"><ele>483.33333333333337</ele><time>2026-05-02T17:10:34.999Z</time></trkpt><trkpt lat="43.85645081263184" lon="11.290585174553854"><ele>486.0</ele><time>2026-05-02T17:10:35.999Z</time></trkpt><trkpt lat="43.8563325353676" lon="11.290468520882742"><ele>486.0</ele><time>2026-05-02T17:10:36.999Z</time></trkpt><trkpt lat="43.85622555057627" lon="11.290369195645587"><ele>486.0</ele><time>2026-05-02T17:10:37.999Z</time></trkpt><trkpt lat="43.85611648117895" lon="11.290283709924909"><ele>486.0</ele><time>2026-05-02T17:10:38.999Z</time></trkpt><trkpt lat="43.856013048850954" lon="11.290210516745441"><ele>486.0</ele><time>2026-05-02T17:10:39.999Z</time></trkpt><trkpt lat="43.855944108773734" lon="11.290153099247478"><ele>486.0</ele><time>2026-05-02T17:10:40.999Z</time></trkpt><trkpt lat="43.855892813987225" lon="11.290080482552556"><ele>486.0</ele><time>2026-05-02T17:10:42.999Z</time></trkpt><trkpt lat="43.85595602321121" lon="11.289929294494506"><ele>486.0</ele><time>2026-05-02T17:10:44.999Z</time></trkpt><trkpt lat="43.85597597237039" lon="11.28979155517136"><ele>486.0</ele><time>2026-05-02T17:10:45.999Z</time></trkpt><trkpt lat="43.85599593271196" lon="11.289622870362525"><ele>486.0</ele><time>2026-05-02T17:10:46.999Z</time></trkpt><trkpt lat="43.856011541275045" lon="11.28944488591545"><ele>490.0</ele><time>2026-05-02T17:10:47.999Z</time></trkpt><trkpt lat="43.85600920756716" lon="11.28923752404339"><ele>494.0</ele><time>2026-05-02T17:10:48.999Z</time></trkpt><trkpt lat="43.85602985208286" lon="11.28900562750876"><ele>498.0</ele><time>2026-05-02T17:10:49.999Z</time></trkpt><trkpt lat="43.85604369552838" lon="11.288761018118374"><ele>502.0</ele><time>2026-05-02T17:10:50.999Z</time></trkpt><trkpt lat="43.85605965470615" lon="11.288500480880822"><ele>506.0</ele><time>2026-05-02T17:10:51.999Z</time></trkpt><trkpt lat="43.856072973598195" lon="11.288224207069467"><ele>510.0</ele><time>2026-05-02T17:10:52.999Z</time></trkpt><trkpt lat="43.85607475453184" lon="11.287948924374966"><ele>512.0</ele><time>2026-05-02T17:10:53.999Z</time></trkpt><trkpt lat="43.856057130427075" lon="11.287670465173345"><ele>514.0</ele><time>2026-05-02T17:10:54.999Z</time></trkpt><trkpt lat="43.85600108942961" lon="11.287387145917616"><ele>516.0</ele><time>2026-05-02T17:10:55.999Z</time></trkpt><trkpt lat="43.85592521635441" lon="11.287117953148133"><ele>511.0</ele><time>2026-05-02T17:10:56.999Z</time></trkpt><trkpt lat="43.85588620579701" lon="11.28686947383395"><ele>506.0</ele><time>2026-05-02T17:10:57.999Z</time></trkpt><trkpt lat="43.85588088153293" lon="11.286598957785275"><ele>501.0</ele><time>2026-05-02T17:10:58.999Z</time></trkpt><trkpt lat="43.85589426162846" lon="11.286333609764132"><ele>500.33333333333337</ele><time>2026-05-02T17:10:59.999Z</time></trkpt><trkpt lat="43.855932406907684" lon="11.28609413746705"><ele>499.6666666666667</ele><time>2026-05-02T17:11:00.999Z</time></trkpt><trkpt lat="43.856017873334004" lon="11.285859382496739"><ele>499.0</ele><time>2026-05-02T17:11:01.999Z</time></trkpt><trkpt lat="43.85611221448769" lon="11.285587071755549"><ele>498.6666666666667</ele><time>2026-05-02T17:11:02.999Z</time></trkpt><trkpt lat="43.85621237012375" lon="11.285301713147241"><ele>498.33333333333337</ele><time>2026-05-02T17:11:03.999Z</time></trkpt><trkpt lat="43.85631061388828" lon="11.285028583372736"><ele>498.0</ele><time>2026-05-02T17:11:05Z</time></trkpt><trkpt lat="43.856386262327014" lon="11.284785756830832"><ele>498.66666666666663</ele><time>2026-05-02T17:11:06Z</time></trkpt><trkpt lat="43.856487579462424" lon="11.284548515450947"><ele>499.3333333333333</ele><time>2026-05-02T17:11:07Z</time></trkpt><trkpt lat="43.856589339386275" lon="11.284347675057871"><ele>500.0</ele><time>2026-05-02T17:11:08Z</time></trkpt><trkpt lat="43.856716430326316" lon="11.284190322635935"><ele>499.66666666666663</ele><time>2026-05-02T17:11:09Z</time></trkpt><trkpt lat="43.856877232065145" lon="11.284094949443116"><ele>499.33333333333337</ele><time>2026-05-02T17:11:10Z</time></trkpt><trkpt lat="43.85706999944044" lon="11.284003894552214"><ele>499.0</ele><time>2026-05-02T17:11:11Z</time></trkpt><trkpt lat="43.85728978231628" lon="11.283968674594368"><ele>499.0</ele><time>2026-05-02T17:11:12Z</time></trkpt><trkpt lat="43.857512149096785" lon="11.2839782311153"><ele>499.0</ele><time>2026-05-02T17:11:13Z</time></trkpt><trkpt lat="43.85772057863106" lon="11.284012510361121"><ele>499.0</ele><time>2026-05-02T17:11:14Z</time></trkpt><trkpt lat="43.857910452942846" lon="11.28404689968112"><ele>497.33333333333337</ele><time>2026-05-02T17:11:15Z</time></trkpt><trkpt lat="43.85807356023021" lon="11.284097776739578"><ele>495.66666666666663</ele><time>2026-05-02T17:11:16Z</time></trkpt><trkpt lat="43.85822272194901" lon="11.284083191008957"><ele>494.0</ele><time>2026-05-02T17:11:17Z</time></trkpt><trkpt lat="43.858358445823846" lon="11.2839892284046"><ele>491.66666666666663</ele><time>2026-05-02T17:11:18Z</time></trkpt><trkpt lat="43.85847594012416" lon="11.283840369228571"><ele>489.33333333333337</ele><time>2026-05-02T17:11:19Z</time></trkpt><trkpt lat="43.85856283678824" lon="11.28362432822615"><ele>487.0</ele><time>2026-05-02T17:11:20Z</time></trkpt><trkpt lat="43.85861898203549" lon="11.283349681439432"><ele>492.5</ele><time>2026-05-02T17:11:21Z</time></trkpt><trkpt lat="43.858680270923585" lon="11.283040075585063"><ele>498.0</ele><time>2026-05-02T17:11:22Z</time></trkpt><trkpt lat="43.8587438959877" lon="11.282744325499692"><ele>498.0</ele><time>2026-05-02T17:11:23Z</time></trkpt><trkpt lat="43.85882013333866" lon="11.282479317541759"><ele>498.0</ele><time>2026-05-02T17:11:24Z</time></trkpt><trkpt lat="43.85886722662954" lon="11.28222139801073"><ele>498.0</ele><time>2026-05-02T17:11:25Z</time></trkpt><trkpt lat="43.858928452576805" lon="11.281998801123041"><ele>497.0</ele><time>2026-05-02T17:11:26Z</time></trkpt><trkpt lat="43.85903772091448" lon="11.281833491903049"><ele>496.0</ele><time>2026-05-02T17:11:27Z</time></trkpt><trkpt lat="43.85917191589166" lon="11.281707919067513"><ele>495.0</ele><time>2026-05-02T17:11:28Z</time></trkpt><trkpt lat="43.85935295847469" lon="11.281567003622438"><ele>496.0</ele><time>2026-05-02T17:11:29Z</time></trkpt><trkpt lat="43.859546937977676" lon="11.281424065787482"><ele>497.0</ele><time>2026-05-02T17:11:30Z</time></trkpt><trkpt lat="43.85971516804364" lon="11.281270131967426"><ele>498.0</ele><time>2026-05-02T17:11:31Z</time></trkpt><trkpt lat="43.859864775073035" lon="11.28111395197879"><ele>498.0</ele><time>2026-05-02T17:11:32Z</time></trkpt><trkpt lat="43.85996516730231" lon="11.280896218390232"><ele>498.0</ele><time>2026-05-02T17:11:33Z</time></trkpt><trkpt lat="43.86005050607301" lon="11.280586091388832"><ele>498.0</ele><time>2026-05-02T17:11:34Z</time></trkpt><trkpt lat="43.86014015771116" lon="11.280248522130714"><ele>498.66666666666663</ele><time>2026-05-02T17:11:35Z</time></trkpt><trkpt lat="43.86021927301581" lon="11.27996232786914"><ele>499.3333333333333</ele><time>2026-05-02T17:11:36Z</time></trkpt><trkpt lat="43.86028118347485" lon="11.279665088144178"><ele>500.0</ele><time>2026-05-02T17:11:37Z</time></trkpt><trkpt lat="43.86031691198034" lon="11.279363756923061"><ele>501.3333333333333</ele><time>2026-05-02T17:11:38Z</time></trkpt><trkpt lat="43.860318197012454" lon="11.279072240437685"><ele>502.66666666666663</ele><time>2026-05-02T17:11:39Z</time></trkpt><trkpt lat="43.860281153623035" lon="11.278786832647455"><ele>504.0</ele><time>2026-05-02T17:11:40Z</time></trkpt><trkpt lat="43.86019777868324" lon="11.278518828971784"><ele>507.5</ele><time>2026-05-02T17:11:41Z</time></trkpt><trkpt lat="43.860068652245346" lon="11.278264479179606"><ele>511.0</ele><time>2026-05-02T17:11:42Z</time></trkpt><trkpt lat="43.85990186886114" lon="11.278017885123688"><ele>517.5</ele><time>2026-05-02T17:11:43Z</time></trkpt><trkpt lat="43.85972352708235" lon="11.277785446134473"><ele>524.0</ele><time>2026-05-02T17:11:44Z</time></trkpt><trkpt lat="43.859591104250015" lon="11.277518862530107"><ele>529.0</ele><time>2026-05-02T17:11:45Z</time></trkpt><trkpt lat="43.85947365136083" lon="11.2772104113586"><ele>534.0</ele><time>2026-05-02T17:11:46Z</time></trkpt><trkpt lat="43.85934124331256" lon="11.27689013329234"><ele>535.0</ele><time>2026-05-02T17:11:47Z</time></trkpt><trkpt lat="43.85922933908851" lon="11.276540175933265"><ele>536.0</ele><time>2026-05-02T17:11:48Z</time></trkpt><trkpt lat="43.85910193342394" lon="11.276205261661607"><ele>536.0</ele><time>2026-05-02T17:11:49Z</time></trkpt><trkpt lat="43.85897152468138" lon="11.27587660886449"><ele>536.0</ele><time>2026-05-02T17:11:50Z</time></trkpt><trkpt lat="43.85885133361934" lon="11.27557514517857"><ele>540.6666666666666</ele><time>2026-05-02T17:11:51Z</time></trkpt><trkpt lat="43.858739991379124" lon="11.275295985490832"><ele>545.3333333333334</ele><time>2026-05-02T17:11:52Z</time></trkpt><trkpt lat="43.85863819504771" lon="11.275039405203255"><ele>550.0</ele><time>2026-05-02T17:11:53Z</time></trkpt><trkpt lat="43.85854472168173" lon="11.274794937958653"><ele>551.3333333333334</ele><time>2026-05-02T17:11:54Z</time></trkpt><trkpt lat="43.858461754979956" lon="11.27458922359405"><ele>552.6666666666666</ele><time>2026-05-02T17:11:55Z</time></trkpt><trkpt lat="43.85838931492819" lon="11.274410725600681"><ele>554.0</ele><time>2026-05-02T17:11:56Z</time></trkpt><trkpt lat="43.85833710710363" lon="11.274239594560086"><ele>551.5</ele><time>2026-05-02T17:11:57Z</time></trkpt><trkpt lat="43.8583195246522" lon="11.274069108422136"><ele>549.0</ele><time>2026-05-02T17:11:58Z</time></trkpt><trkpt lat="43.85835242471379" lon="11.273888696885736"><ele>546.5</ele><time>2026-05-02T17:11:59Z</time></trkpt><trkpt lat="43.85843764813783" lon="11.273714598193227"><ele>544.0</ele><time>2026-05-02T17:12:00Z</time></trkpt><trkpt lat="43.85856762630719" lon="11.273535984651428"><ele>544.0</ele><time>2026-05-02T17:12:01Z</time></trkpt><trkpt lat="43.858709249542414" lon="11.273348974101502"><ele>544.0</ele><time>2026-05-02T17:12:02Z</time></trkpt><trkpt lat="43.85883463092972" lon="11.273145511959653"><ele>544.0</ele><time>2026-05-02T17:12:03Z</time></trkpt><trkpt lat="43.858951146283026" lon="11.272957438548746"><ele>545.0</ele><time>2026-05-02T17:12:04Z</time></trkpt><trkpt lat="43.85910319400979" lon="11.272853700891742"><ele>546.0</ele><time>2026-05-02T17:12:05Z</time></trkpt><trkpt lat="43.85927569017068" lon="11.272771440577587"><ele>547.0</ele><time>2026-05-02T17:12:06Z</time></trkpt><trkpt lat="43.85944009431031" lon="11.272686452555266"><ele>547.0</ele><time>2026-05-02T17:12:07Z</time></trkpt><trkpt lat="43.859564691100935" lon="11.272570197965583"><ele>547.0</ele><time>2026-05-02T17:12:08Z</time></trkpt><trkpt lat="43.85964942538399" lon="11.272389018721926"><ele>547.0</ele><time>2026-05-02T17:12:09Z</time></trkpt><trkpt lat="43.8596903802497" lon="11.272176921556667"><ele>549.0</ele><time>2026-05-02T17:12:10Z</time></trkpt><trkpt lat="43.859674559089385" lon="11.271953370691149"><ele>551.0</ele><time>2026-05-02T17:12:11Z</time></trkpt><trkpt lat="43.85960208234693" lon="11.271738593047116"><ele>553.0</ele><time>2026-05-02T17:12:12Z</time></trkpt><trkpt lat="43.85947739389678" lon="11.271528042231395"><ele>554.0</ele><time>2026-05-02T17:12:13Z</time></trkpt><trkpt lat="43.85934775347861" lon="11.271348184219844"><ele>555.0</ele><time>2026-05-02T17:12:14Z</time></trkpt><trkpt lat="43.8592573297309" lon="11.271173877512892"><ele>556.0</ele><time>2026-05-02T17:12:14.999Z</time></trkpt><trkpt lat="43.85921837976109" lon="11.270976429967964"><ele>556.0</ele><time>2026-05-02T17:12:15.999Z</time></trkpt><trkpt lat="43.8592654792796" lon="11.270788260456941"><ele>556.0</ele><time>2026-05-02T17:12:16.999Z</time></trkpt><trkpt lat="43.85932624639145" lon="11.270630430701567"><ele>556.0</ele><time>2026-05-02T17:12:17.999Z</time></trkpt><trkpt lat="43.85941718621978" lon="11.270488394058965"><ele>556.0</ele><time>2026-05-02T17:12:18.999Z</time></trkpt><trkpt lat="43.85956661894842" lon="11.270421107509629"><ele>553.3333333333334</ele><time>2026-05-02T17:12:19.999Z</time></trkpt><trkpt lat="43.85973732506319" lon="11.270326986872004"><ele>550.6666666666666</ele><time>2026-05-02T17:12:20.999Z</time></trkpt><trkpt lat="43.859931755808674" lon="11.270252874118363"><ele>548.0</ele><time>2026-05-02T17:12:21.999Z</time></trkpt><trkpt lat="43.86011247685394" lon="11.270168471682553"><ele>554.0</ele><time>2026-05-02T17:12:22.999Z</time></trkpt><trkpt lat="43.86025254037574" lon="11.270060950461417"><ele>560.0</ele><time>2026-05-02T17:12:23.999Z</time></trkpt><trkpt lat="43.86035468079052" lon="11.269915142281155"><ele>566.0</ele><time>2026-05-02T17:12:24.999Z</time></trkpt><trkpt lat="43.86041223711708" lon="11.26971482572434"><ele>569.3333333333333</ele><time>2026-05-02T17:12:25.999Z</time></trkpt><trkpt lat="43.86041586161409" lon="11.269487170268635"><ele>572.6666666666666</ele><time>2026-05-02T17:12:26.999Z</time></trkpt><trkpt lat="43.86036575975178" lon="11.269235234553463"><ele>576.0</ele><time>2026-05-02T17:12:27.999Z</time></trkpt><trkpt lat="43.860280419605246" lon="11.268965316852444"><ele>580.5</ele><time>2026-05-02T17:12:28.999Z</time></trkpt><trkpt lat="43.86017163482453" lon="11.268683376200007"><ele>585.0</ele><time>2026-05-02T17:12:29.999Z</time></trkpt><trkpt lat="43.860045204732884" lon="11.268426147145762"><ele>579.75</ele><time>2026-05-02T17:12:30.999Z</time></trkpt><trkpt lat="43.85991583174414" lon="11.268231599331894"><ele>574.5</ele><time>2026-05-02T17:12:31.999Z</time></trkpt><trkpt lat="43.85983666886141" lon="11.268073370054326"><ele>569.25</ele><time>2026-05-02T17:12:32.999Z</time></trkpt><trkpt lat="43.85978668508131" lon="11.267963887856613"><ele>564.0</ele><time>2026-05-02T17:12:33.999Z</time></trkpt><trkpt lat="43.85981551539656" lon="11.267838227353137"><ele>564.0</ele><time>2026-05-02T17:12:34.999Z</time></trkpt><trkpt lat="43.8598543157266" lon="11.267675641522096"><ele>564.0</ele><time>2026-05-02T17:12:35.999Z</time></trkpt><trkpt lat="43.85992089870202" lon="11.267481533025691"><ele>564.0</ele><time>2026-05-02T17:12:36.999Z</time></trkpt><trkpt lat="43.85999770252482" lon="11.267261797727317"><ele>563.0</ele><time>2026-05-02T17:12:37.999Z</time></trkpt><trkpt lat="43.86002071853208" lon="11.26699211790576"><ele>562.0</ele><time>2026-05-02T17:12:38.999Z</time></trkpt><trkpt lat="43.8600266824444" lon="11.266742026045174"><ele>561.0</ele><time>2026-05-02T17:12:39.999Z</time></trkpt><trkpt lat="43.86002249255878" lon="11.26651495490166"><ele>564.3333333333334</ele><time>2026-05-02T17:12:40.999Z</time></trkpt><trkpt lat="43.85998750105545" lon="11.266304550516189"><ele>567.6666666666667</ele><time>2026-05-02T17:12:41.999Z</time></trkpt><trkpt lat="43.85989103330977" lon="11.266077855470709"><ele>571.0</ele><time>2026-05-02T17:12:42.999Z</time></trkpt><trkpt lat="43.85975063289507" lon="11.265868949077507"><ele>571.0</ele><time>2026-05-02T17:12:43.999Z</time></trkpt><trkpt lat="43.85958115584065" lon="11.265642532916187"><ele>571.0</ele><time>2026-05-02T17:12:44.999Z</time></trkpt><trkpt lat="43.85942131524755" lon="11.265390106032996"><ele>570.0</ele><time>2026-05-02T17:12:45.999Z</time></trkpt><trkpt lat="43.859290557289064" lon="11.265145194443097"><ele>569.0</ele><time>2026-05-02T17:12:46.999Z</time></trkpt><trkpt lat="43.85914404232147" lon="11.264939867608602"><ele>568.0</ele><time>2026-05-02T17:12:47.999Z</time></trkpt><trkpt lat="43.8590291676758" lon="11.26468157973458"><ele>568.0</ele><time>2026-05-02T17:12:48.999Z</time></trkpt><trkpt lat="43.858948812755244" lon="11.264404458805139"><ele>568.0</ele><time>2026-05-02T17:12:49.999Z</time></trkpt><trkpt lat="43.85888255592266" lon="11.264112889443082"><ele>568.0</ele><time>2026-05-02T17:12:50.999Z</time></trkpt><trkpt lat="43.85882125109075" lon="11.263878375962324"><ele>566.3333333333334</ele><time>2026-05-02T17:12:51.999Z</time></trkpt><trkpt lat="43.85876090957097" lon="11.26366750520756"><ele>564.6666666666666</ele><time>2026-05-02T17:12:52.999Z</time></trkpt><trkpt lat="43.858746598430734" lon="11.26346166570621"><ele>563.0</ele><time>2026-05-02T17:12:53.999Z</time></trkpt><trkpt lat="43.85876969864624" lon="11.263256976159278"><ele>561.75</ele><time>2026-05-02T17:12:54.999Z</time></trkpt><trkpt lat="43.85883975419842" lon="11.26307578681706"><ele>560.5</ele><time>2026-05-02T17:12:55.999Z</time></trkpt><trkpt lat="43.85886312502072" lon="11.262890307014837"><ele>559.25</ele><time>2026-05-02T17:12:56.999Z</time></trkpt><trkpt lat="43.8588517586587" lon="11.262736049015505"><ele>558.0</ele><time>2026-05-02T17:12:57.999Z</time></trkpt><trkpt lat="43.85878767491249" lon="11.262619742594946"><ele>558.0</ele><time>2026-05-02T17:12:58.999Z</time></trkpt><trkpt lat="43.858681378080384" lon="11.262549915590661"><ele>558.0</ele><time>2026-05-02T17:12:59.999Z</time></trkpt><trkpt lat="43.85855328916665" lon="11.262537790930514"><ele>558.0</ele><time>2026-05-02T17:13:00.999Z</time></trkpt><trkpt lat="43.85840708850813" lon="11.26259022063021"><ele>558.0</ele><time>2026-05-02T17:13:01.999Z</time></trkpt><trkpt lat="43.85824334132045" lon="11.262705385225955"><ele>565.0</ele><time>2026-05-02T17:13:02.999Z</time></trkpt><trkpt lat="43.858061068524655" lon="11.26284237989764"><ele>572.0</ele><time>2026-05-02T17:13:03.999Z</time></trkpt><trkpt lat="43.85789668892285" lon="11.262901772082156"><ele>579.0</ele><time>2026-05-02T17:13:04.999Z</time></trkpt><trkpt lat="43.85775772988735" lon="11.26290206372944"><ele>579.0</ele><time>2026-05-02T17:13:05.999Z</time></trkpt><trkpt lat="43.857626534319685" lon="11.262891600861273"><ele>579.0</ele><time>2026-05-02T17:13:06.999Z</time></trkpt><trkpt lat="43.857518270008335" lon="11.262830967173427"><ele>579.0</ele><time>2026-05-02T17:13:07.999Z</time></trkpt><trkpt lat="43.85741036794716" lon="11.2627335820031"><ele>579.0</ele><time>2026-05-02T17:13:08.999Z</time></trkpt><trkpt lat="43.85731555107772" lon="11.262616103534565"><ele>578.75</ele><time>2026-05-02T17:13:09.999Z</time></trkpt><trkpt lat="43.857263837595475" lon="11.262492183904083"><ele>578.5</ele><time>2026-05-02T17:13:11Z</time></trkpt><trkpt lat="43.85724539484392" lon="11.262344688778795"><ele>578.25</ele><time>2026-05-02T17:13:12Z</time></trkpt><trkpt lat="43.85719855171002" lon="11.262151956693982"><ele>578.0</ele><time>2026-05-02T17:13:13Z</time></trkpt><trkpt lat="43.85711459305979" lon="11.261912027995887"><ele>582.6666666666666</ele><time>2026-05-02T17:13:14Z</time></trkpt><trkpt lat="43.85701912950485" lon="11.26170836541854"><ele>587.3333333333334</ele><time>2026-05-02T17:13:15Z</time></trkpt><trkpt lat="43.85688975267412" lon="11.261506136152166"><ele>592.0</ele><time>2026-05-02T17:13:16Z</time></trkpt><trkpt lat="43.85677634510834" lon="11.261279619188329"><ele>592.0</ele><time>2026-05-02T17:13:17Z</time></trkpt><trkpt lat="43.85664449702459" lon="11.26109132069787"><ele>592.0</ele><time>2026-05-02T17:13:18Z</time></trkpt><trkpt lat="43.856504801143174" lon="11.260915042030309"><ele>592.0</ele><time>2026-05-02T17:13:19Z</time></trkpt><trkpt lat="43.85636436075918" lon="11.260769230772192"><ele>598.3333333333334</ele><time>2026-05-02T17:13:20Z</time></trkpt><trkpt lat="43.85625324132726" lon="11.260603181776924"><ele>604.6666666666666</ele><time>2026-05-02T17:13:21Z</time></trkpt><trkpt lat="43.85615784009708" lon="11.260447919724255"><ele>611.0</ele><time>2026-05-02T17:13:22Z</time></trkpt><trkpt lat="43.85609191676579" lon="11.260267854857"><ele>611.0</ele><time>2026-05-02T17:13:23Z</time></trkpt><trkpt lat="43.85603680158411" lon="11.260058858537727"><ele>611.0</ele><time>2026-05-02T17:13:24Z</time></trkpt><trkpt lat="43.855983488251205" lon="11.259812592008409"><ele>611.0</ele><time>2026-05-02T17:13:25Z</time></trkpt><trkpt lat="43.85592157993418" lon="11.259572383187855"><ele>608.0</ele><time>2026-05-02T17:13:26Z</time></trkpt><trkpt lat="43.855879653834535" lon="11.259353530374286"><ele>605.0</ele><time>2026-05-02T17:13:27Z</time></trkpt><trkpt lat="43.85583947720853" lon="11.259146918982843"><ele>602.0</ele><time>2026-05-02T17:13:28Z</time></trkpt><trkpt lat="43.85573587067339" lon="11.258931997000385"><ele>602.0</ele><time>2026-05-02T17:13:29Z</time></trkpt><trkpt lat="43.85563242424654" lon="11.25872363504174"><ele>602.0</ele><time>2026-05-02T17:13:30Z</time></trkpt><trkpt lat="43.8555672158881" lon="11.25847429006509"><ele>602.0</ele><time>2026-05-02T17:13:31Z</time></trkpt><trkpt lat="43.855477126312245" lon="11.258284521870113"><ele>602.0</ele><time>2026-05-02T17:13:32Z</time></trkpt><trkpt lat="43.855358691688764" lon="11.258130963496434"><ele>602.0</ele><time>2026-05-02T17:13:33Z</time></trkpt><trkpt lat="43.85526571691178" lon="11.258002991116156"><ele>602.0</ele><time>2026-05-02T17:13:34Z</time></trkpt><trkpt lat="43.855236596475564" lon="11.257842907140574"><ele>602.0</ele><time>2026-05-02T17:13:35Z</time></trkpt><trkpt lat="43.855244830465274" lon="11.257663672596774"><ele>598.6666666666666</ele><time>2026-05-02T17:13:36Z</time></trkpt><trkpt lat="43.85522425322704" lon="11.257457092085078"><ele>595.3333333333334</ele><time>2026-05-02T17:13:37Z</time></trkpt><trkpt lat="43.85517640608481" lon="11.257245495233354"><ele>592.0</ele><time>2026-05-02T17:13:38Z</time></trkpt><trkpt lat="43.855065210486046" lon="11.257076491021204"><ele>592.0</ele><time>2026-05-02T17:13:39Z</time></trkpt><trkpt lat="43.85492136761863" lon="11.256917603442435"><ele>592.0</ele><time>2026-05-02T17:13:40Z</time></trkpt><trkpt lat="43.85476493208975" lon="11.256763148834587"><ele>592.0</ele><time>2026-05-02T17:13:41Z</time></trkpt><trkpt lat="43.85463674449022" lon="11.25660713898464"><ele>597.3333333333334</ele><time>2026-05-02T17:13:42Z</time></trkpt><trkpt lat="43.85452045957513" lon="11.256451367403667"><ele>602.6666666666666</ele><time>2026-05-02T17:13:43Z</time></trkpt><trkpt lat="43.854393797297554" lon="11.256337467331395"><ele>608.0</ele><time>2026-05-02T17:13:44Z</time></trkpt><trkpt lat="43.85423837796175" lon="11.256299023956544"><ele>608.0</ele><time>2026-05-02T17:13:45Z</time></trkpt><trkpt lat="43.85408310725357" lon="11.256311627347522"><ele>608.0</ele><time>2026-05-02T17:13:46Z</time></trkpt><trkpt lat="43.85397937894503" lon="11.25633632282298"><ele>608.0</ele><time>2026-05-02T17:13:47Z</time></trkpt><trkpt lat="43.85388049422348" lon="11.256292698657507"><ele>608.0</ele><time>2026-05-02T17:13:48Z</time></trkpt><trkpt lat="43.85378205945818" lon="11.256200371988207"><ele>608.0</ele><time>2026-05-02T17:13:49Z</time></trkpt><trkpt lat="43.85368583156665" lon="11.25608994287579"><ele>608.0</ele><time>2026-05-02T17:13:50Z</time></trkpt><trkpt lat="43.8535867445991" lon="11.25600123490066"><ele>608.0</ele><time>2026-05-02T17:13:51Z</time></trkpt><trkpt lat="43.85327278126287" lon="11.255714857709926"><ele>615.0</ele><time>2026-05-02T17:13:52Z</time></trkpt><trkpt lat="43.85304996906597" lon="11.255565954864885"><ele>622.0</ele><time>2026-05-02T17:13:53Z</time></trkpt><trkpt lat="43.852877060151265" lon="11.25541500957928"><ele>622.0</ele><time>2026-05-02T17:13:54Z</time></trkpt><trkpt lat="43.852680561750375" lon="11.255258093789424"><ele>622.0</ele><time>2026-05-02T17:13:55Z</time></trkpt><trkpt lat="43.852476117969914" lon="11.255097222940504"><ele>617.0</ele><time>2026-05-02T17:13:56Z</time></trkpt><trkpt lat="43.85227408692378" lon="11.254949736911922"><ele>612.0</ele><time>2026-05-02T17:13:57Z</time></trkpt><trkpt lat="43.85209449310925" lon="11.254802880091429"><ele>607.0</ele><time>2026-05-02T17:13:58Z</time></trkpt><trkpt lat="43.85192981835479" lon="11.254667298368613"><ele>600.3333333333334</ele><time>2026-05-02T17:13:59Z</time></trkpt><trkpt lat="43.85176095479453" lon="11.254527996643809"><ele>593.6666666666666</ele><time>2026-05-02T17:14:00Z</time></trkpt><trkpt lat="43.85158476895247" lon="11.254394939619424"><ele>587.0</ele><time>2026-05-02T17:14:01Z</time></trkpt><trkpt lat="43.85138967506928" lon="11.254282161767946"><ele>587.0</ele><time>2026-05-02T17:14:02Z</time></trkpt><trkpt lat="43.85117872106539" lon="11.254188175826087"><ele>587.0</ele><time>2026-05-02T17:14:03Z</time></trkpt><trkpt lat="43.85098996265063" lon="11.25409730437911"><ele>587.0</ele><time>2026-05-02T17:14:04Z</time></trkpt><trkpt lat="43.85081964104336" lon="11.254002803649927"><ele>593.3333333333333</ele><time>2026-05-02T17:14:05Z</time></trkpt><trkpt lat="43.85067393000078" lon="11.253868925432748"><ele>599.6666666666666</ele><time>2026-05-02T17:14:06Z</time></trkpt><trkpt lat="43.850519631160516" lon="11.253755603084631"><ele>606.0</ele><time>2026-05-02T17:14:07Z</time></trkpt><trkpt lat="43.85038318637511" lon="11.253640064477304"><ele>606.0</ele><time>2026-05-02T17:14:08Z</time></trkpt><trkpt lat="43.850241914672885" lon="11.25353457405205"><ele>606.0</ele><time>2026-05-02T17:14:09Z</time></trkpt><trkpt lat="43.850074921801536" lon="11.253459838305893"><ele>606.0</ele><time>2026-05-02T17:14:10Z</time></trkpt><trkpt lat="43.84988827373908" lon="11.25342918323035"><ele>606.6666666666666</ele><time>2026-05-02T17:14:11Z</time></trkpt><trkpt lat="43.8496962155436" lon="11.253424236249131"><ele>607.3333333333333</ele><time>2026-05-02T17:14:12Z</time></trkpt><trkpt lat="43.84952621932829" lon="11.253441845730634"><ele>608.0</ele><time>2026-05-02T17:14:12.999Z</time></trkpt><trkpt lat="43.84935342367132" lon="11.253518085768835"><ele>608.6666666666666</ele><time>2026-05-02T17:14:13.999Z</time></trkpt><trkpt lat="43.84920270251351" lon="11.253567744872175"><ele>609.3333333333334</ele><time>2026-05-02T17:14:14.999Z</time></trkpt><trkpt lat="43.849055583433504" lon="11.25360132564378"><ele>610.0</ele><time>2026-05-02T17:14:15.999Z</time></trkpt><trkpt lat="43.84890165662064" lon="11.253614176756898"><ele>610.0</ele><time>2026-05-02T17:14:16.999Z</time></trkpt><trkpt lat="43.84872921128403" lon="11.253590591306821"><ele>610.0</ele><time>2026-05-02T17:14:17.999Z</time></trkpt><trkpt lat="43.84854265814328" lon="11.253556704298376"><ele>610.0</ele><time>2026-05-02T17:14:18.999Z</time></trkpt><trkpt lat="43.84835991022129" lon="11.253537269399363"><ele>608.6666666666667</ele><time>2026-05-02T17:14:19.999Z</time></trkpt><trkpt lat="43.848188495408166" lon="11.253522093556654"><ele>607.3333333333334</ele><time>2026-05-02T17:14:20.999Z</time></trkpt><trkpt lat="43.84803119358977" lon="11.2535108193062"><ele>606.0</ele><time>2026-05-02T17:14:21.999Z</time></trkpt><trkpt lat="43.84787917733577" lon="11.253484911785533"><ele>606.0</ele><time>2026-05-02T17:14:22.999Z</time></trkpt><trkpt lat="43.847733108629534" lon="11.253420336471606"><ele>606.0</ele><time>2026-05-02T17:14:23.999Z</time></trkpt><trkpt lat="43.84760373472026" lon="11.253353142546414"><ele>606.0</ele><time>2026-05-02T17:14:24.999Z</time></trkpt><trkpt lat="43.84750044040148" lon="11.253200380785973"><ele>606.0</ele><time>2026-05-02T17:14:25.999Z</time></trkpt><trkpt lat="43.847360926818034" lon="11.253044239267668"><ele>608.0</ele><time>2026-05-02T17:14:26.999Z</time></trkpt><trkpt lat="43.847222525395" lon="11.25284718190791"><ele>610.0</ele><time>2026-05-02T17:14:27.999Z</time></trkpt><trkpt lat="43.84708386601917" lon="11.252662036628028"><ele>612.0</ele><time>2026-05-02T17:14:28.999Z</time></trkpt><trkpt lat="43.846957385910606" lon="11.252487655049261"><ele>612.0</ele><time>2026-05-02T17:14:29.999Z</time></trkpt><trkpt lat="43.846848644233425" lon="11.252313896060425"><ele>612.0</ele><time>2026-05-02T17:14:30.999Z</time></trkpt><trkpt lat="43.846786280393786" lon="11.252108205478788"><ele>612.0</ele><time>2026-05-02T17:14:31.999Z</time></trkpt><trkpt lat="43.84673848988273" lon="11.251894923190784"><ele>612.75</ele><time>2026-05-02T17:14:32.999Z</time></trkpt><trkpt lat="43.846723697056575" lon="11.251673223971665"><ele>613.5</ele><time>2026-05-02T17:14:33.999Z</time></trkpt><trkpt lat="43.84668114618176" lon="11.251482032236266"><ele>614.25</ele><time>2026-05-02T17:14:34.999Z</time></trkpt><trkpt lat="43.84661435115535" lon="11.251312601149598"><ele>615.0</ele><time>2026-05-02T17:14:35.999Z</time></trkpt><trkpt lat="43.84648698110117" lon="11.251170506611293"><ele>615.0</ele><time>2026-05-02T17:14:36.999Z</time></trkpt><trkpt lat="43.84633190750321" lon="11.25101329597263"><ele>615.0</ele><time>2026-05-02T17:14:37.999Z</time></trkpt><trkpt lat="43.846228906023555" lon="11.250807968761233"><ele>615.0</ele><time>2026-05-02T17:14:38.999Z</time></trkpt><trkpt lat="43.84614022779809" lon="11.250607372928194"><ele>616.6666666666666</ele><time>2026-05-02T17:14:39.999Z</time></trkpt><trkpt lat="43.84601575132631" lon="11.250433186760226"><ele>618.3333333333333</ele><time>2026-05-02T17:14:40.999Z</time></trkpt><trkpt lat="43.845880535459294" lon="11.250287225499267"><ele>620.0</ele><time>2026-05-02T17:14:41.999Z</time></trkpt><trkpt lat="43.84573751445531" lon="11.250183580704169"><ele>620.0</ele><time>2026-05-02T17:14:42.999Z</time></trkpt><trkpt lat="43.84556354890768" lon="11.250096805589099"><ele>620.0</ele><time>2026-05-02T17:14:43.999Z</time></trkpt><trkpt lat="43.845362012624946" lon="11.250048540171552"><ele>620.0</ele><time>2026-05-02T17:14:44.999Z</time></trkpt><trkpt lat="43.84518205640464" lon="11.250034724718429"><ele>619.3333333333333</ele><time>2026-05-02T17:14:45.999Z</time></trkpt><trkpt lat="43.84502623691763" lon="11.250057578323927"><ele>618.6666666666666</ele><time>2026-05-02T17:14:46.999Z</time></trkpt><trkpt lat="43.84489691241731" lon="11.250148334278329"><ele>618.0</ele><time>2026-05-02T17:14:47.999Z</time></trkpt><trkpt lat="43.84478112450578" lon="11.25028726789942"><ele>618.0</ele><time>2026-05-02T17:14:48.999Z</time></trkpt><trkpt lat="43.844679134935376" lon="11.25040833040786"><ele>618.0</ele><time>2026-05-02T17:14:49.999Z</time></trkpt><trkpt lat="43.84454882202758" lon="11.250437473380131"><ele>618.0</ele><time>2026-05-02T17:14:50.999Z</time></trkpt><trkpt lat="43.84442189011911" lon="11.250441817978157"><ele>618.0</ele><time>2026-05-02T17:14:51.999Z</time></trkpt><trkpt lat="43.84430053344629" lon="11.25040530694592"><ele>616.3333333333334</ele><time>2026-05-02T17:14:52.999Z</time></trkpt><trkpt lat="43.84418132421464" lon="11.250307277294903"><ele>614.6666666666667</ele><time>2026-05-02T17:14:53.999Z</time></trkpt><trkpt lat="43.84404320906498" lon="11.250180550795891"><ele>613.0</ele><time>2026-05-02T17:14:54.999Z</time></trkpt><trkpt lat="43.843897361614516" lon="11.250038409420643"><ele>613.0</ele><time>2026-05-02T17:14:55.999Z</time></trkpt><trkpt lat="43.84373651586582" lon="11.249897670603303"><ele>613.0</ele><time>2026-05-02T17:14:56.999Z</time></trkpt><trkpt lat="43.843599537279054" lon="11.249712054592232"><ele>613.0</ele><time>2026-05-02T17:14:57.999Z</time></trkpt><trkpt lat="43.84345253899726" lon="11.24952286567017"><ele>612.0</ele><time>2026-05-02T17:14:58.999Z</time></trkpt><trkpt lat="43.84330692991782" lon="11.249319604761835"><ele>611.0</ele><time>2026-05-02T17:14:59.999Z</time></trkpt><trkpt lat="43.84315630939523" lon="11.249090214582145"><ele>610.0</ele><time>2026-05-02T17:15:00.999Z</time></trkpt><trkpt lat="43.84299710397541" lon="11.248864848296268"><ele>614.6666666666667</ele><time>2026-05-02T17:15:01.999Z</time></trkpt><trkpt lat="43.84287822117768" lon="11.248641808962978"><ele>619.3333333333334</ele><time>2026-05-02T17:15:02.999Z</time></trkpt><trkpt lat="43.842782593449385" lon="11.248420542324057"><ele>624.0</ele><time>2026-05-02T17:15:03.999Z</time></trkpt><trkpt lat="43.842682037023145" lon="11.248240617975407"><ele>617.75</ele><time>2026-05-02T17:15:04.999Z</time></trkpt><trkpt lat="43.84261898095087" lon="11.248060408886849"><ele>611.5</ele><time>2026-05-02T17:15:05.999Z</time></trkpt><trkpt lat="43.84258437864027" lon="11.247875871213697"><ele>605.25</ele><time>2026-05-02T17:15:06.999Z</time></trkpt><trkpt lat="43.842529355891" lon="11.247721705530692"><ele>599.0</ele><time>2026-05-02T17:15:07.999Z</time></trkpt><trkpt lat="43.84250304349556" lon="11.247583686627516"><ele>599.0</ele><time>2026-05-02T17:15:08.999Z</time></trkpt><trkpt lat="43.84247788024418" lon="11.247457598442047"><ele>599.0</ele><time>2026-05-02T17:15:09.999Z</time></trkpt><trkpt lat="43.84246175414898" lon="11.247336922609001"><ele>599.0</ele><time>2026-05-02T17:15:10.999Z</time></trkpt><trkpt lat="43.84246516836555" lon="11.247220972731943"><ele>599.0</ele><time>2026-05-02T17:15:11.999Z</time></trkpt><trkpt lat="43.84247802895804" lon="11.247112250705774"><ele>599.0</ele><time>2026-05-02T17:15:12.999Z</time></trkpt><trkpt lat="43.842494718850425" lon="11.24702039285642"><ele>599.0</ele><time>2026-05-02T17:15:13.999Z</time></trkpt><trkpt lat="43.84254385120568" lon="11.246887702834464"><ele>600.0</ele><time>2026-05-02T17:15:15.999Z</time></trkpt><trkpt lat="43.84259510744758" lon="11.246756870366342"><ele>601.0</ele><time>2026-05-02T17:15:18Z</time></trkpt><trkpt lat="43.84264467360737" lon="11.246660796811003"><ele>602.0</ele><time>2026-05-02T17:15:21Z</time></trkpt><trkpt lat="43.842686391499065" lon="11.246592361260735"><ele>603.0</ele><time>2026-05-02T17:15:24Z</time></trkpt><trkpt lat="43.842732747696004" lon="11.246522736341054"><ele>604.0</ele><time>2026-05-02T17:15:27Z</time></trkpt><trkpt lat="43.842787634274316" lon="11.246456506180365"><ele>605.0</ele><time>2026-05-02T17:15:31Z</time></trkpt><trkpt lat="43.84274569707769" lon="11.246304101084107"><ele>601.5</ele><time>2026-05-02T17:19:36Z</time></trkpt><trkpt lat="43.84277485790789" lon="11.246402958534782"><ele>598.0</ele><time>2026-05-02T17:22:42.999Z</time></trkpt><trkpt lat="43.84289047505255" lon="11.246361571978502"><ele>594.5</ele><time>2026-05-02T17:22:44.999Z</time></trkpt><trkpt lat="43.842953176565686" lon="11.246321874958207"><ele>591.0</ele><time>2026-05-02T17:22:45.999Z</time></trkpt><trkpt lat="43.843034892963544" lon="11.246256559280917"><ele>587.5</ele><time>2026-05-02T17:22:46.999Z</time></trkpt><trkpt lat="43.84311140979885" lon="11.246215972878137"><ele>584.0</ele><time>2026-05-02T17:22:47.999Z</time></trkpt><trkpt lat="43.8432027202724" lon="11.246238841265962"><ele>584.0</ele><time>2026-05-02T17:22:48.999Z</time></trkpt><trkpt lat="43.84329914202497" lon="11.246242926935869"><ele>584.0</ele><time>2026-05-02T17:22:49.999Z</time></trkpt><trkpt lat="43.84340458825304" lon="11.246247719097427"><ele>584.0</ele><time>2026-05-02T17:22:50.999Z</time></trkpt><trkpt lat="43.84351705897789" lon="11.24623958328157"><ele>584.0</ele><time>2026-05-02T17:22:51.999Z</time></trkpt><trkpt lat="43.843642371938365" lon="11.246249281941388"><ele>584.0</ele><time>2026-05-02T17:22:52.999Z</time></trkpt><trkpt lat="43.843785280563274" lon="11.246255755979735"><ele>585.0</ele><time>2026-05-02T17:22:53.999Z</time></trkpt><trkpt lat="43.84393223488799" lon="11.246263038076318"><ele>586.0</ele><time>2026-05-02T17:22:54.999Z</time></trkpt><trkpt lat="43.84408394690164" lon="11.24626960566758"><ele>587.0</ele><time>2026-05-02T17:22:55.999Z</time></trkpt><trkpt lat="43.84424851310774" lon="11.246276104142224"><ele>588.6666666666666</ele><time>2026-05-02T17:22:56.999Z</time></trkpt><trkpt lat="43.844410856728295" lon="11.246286726124271"><ele>590.3333333333334</ele><time>2026-05-02T17:22:57.999Z</time></trkpt><trkpt lat="43.84457929303222" lon="11.246292338412488"><ele>592.0</ele><time>2026-05-02T17:22:58.999Z</time></trkpt><trkpt lat="43.84475484192787" lon="11.246292174477537"><ele>592.0</ele><time>2026-05-02T17:22:59.999Z</time></trkpt><trkpt lat="43.84492882155796" lon="11.246278494939194"><ele>592.0</ele><time>2026-05-02T17:23:00.999Z</time></trkpt><trkpt lat="43.845104953084785" lon="11.246236260530816"><ele>592.0</ele><time>2026-05-02T17:23:01.999Z</time></trkpt><trkpt lat="43.84527977934505" lon="11.246179481918611"><ele>591.3333333333334</ele><time>2026-05-02T17:23:02.999Z</time></trkpt><trkpt lat="43.84544510292967" lon="11.24611584958411"><ele>590.6666666666666</ele><time>2026-05-02T17:23:03.999Z</time></trkpt><trkpt lat="43.84561298149783" lon="11.246065663425796"><ele>590.0</ele><time>2026-05-02T17:23:04.999Z</time></trkpt><trkpt lat="43.84578328312154" lon="11.246048712656073"><ele>590.0</ele><time>2026-05-02T17:23:05.999Z</time></trkpt><trkpt lat="43.84593465245381" lon="11.246049772777106"><ele>590.0</ele><time>2026-05-02T17:23:06.999Z</time></trkpt><trkpt lat="43.84607253104301" lon="11.24609902937367"><ele>590.0</ele><time>2026-05-02T17:23:07.999Z</time></trkpt><trkpt lat="43.846212082418205" lon="11.246178409817116"><ele>590.0</ele><time>2026-05-02T17:23:08.999Z</time></trkpt><trkpt lat="43.84633547707771" lon="11.246310779479842"><ele>596.6666666666666</ele><time>2026-05-02T17:23:09.999Z</time></trkpt><trkpt lat="43.84646926026225" lon="11.246471388878007"><ele>603.3333333333334</ele><time>2026-05-02T17:23:10.999Z</time></trkpt><trkpt lat="43.84662083511131" lon="11.24662927776105"><ele>610.0</ele><time>2026-05-02T17:23:11.999Z</time></trkpt><trkpt lat="43.84679018837461" lon="11.246756353454474"><ele>606.3333333333334</ele><time>2026-05-02T17:23:12.999Z</time></trkpt><trkpt lat="43.84696908998734" lon="11.246880916711017"><ele>602.6666666666666</ele><time>2026-05-02T17:23:13.999Z</time></trkpt><trkpt lat="43.8471366747131" lon="11.246972897693498"><ele>599.0</ele><time>2026-05-02T17:23:14.999Z</time></trkpt><trkpt lat="43.84729068640583" lon="11.247060746421479"><ele>599.0</ele><time>2026-05-02T17:23:15.999Z</time></trkpt><trkpt lat="43.84743647634187" lon="11.247132297464074"><ele>599.0</ele><time>2026-05-02T17:23:16.999Z</time></trkpt><trkpt lat="43.84758757094666" lon="11.247156084713755"><ele>599.0</ele><time>2026-05-02T17:23:17.999Z</time></trkpt><trkpt lat="43.847744897166365" lon="11.24713613968688"><ele>600.3333333333333</ele><time>2026-05-02T17:23:18.999Z</time></trkpt><trkpt lat="43.847894002972474" lon="11.24707045709553"><ele>601.6666666666666</ele><time>2026-05-02T17:23:19.999Z</time></trkpt><trkpt lat="43.848032239691115" lon="11.246968869733918"><ele>603.0</ele><time>2026-05-02T17:23:20.999Z</time></trkpt><trkpt lat="43.848166800367615" lon="11.246842880523152"><ele>603.0</ele><time>2026-05-02T17:23:21.999Z</time></trkpt><trkpt lat="43.84830724537712" lon="11.246797231044118"><ele>603.0</ele><time>2026-05-02T17:23:22.999Z</time></trkpt><trkpt lat="43.84844102662606" lon="11.246826514229973"><ele>603.0</ele><time>2026-05-02T17:23:23.999Z</time></trkpt><trkpt lat="43.84859080653587" lon="11.246871986429866"><ele>603.0</ele><time>2026-05-02T17:23:24.999Z</time></trkpt><trkpt lat="43.84875869086576" lon="11.246915661039539"><ele>604.3333333333334</ele><time>2026-05-02T17:23:25.999Z</time></trkpt><trkpt lat="43.84893688756036" lon="11.246930964051325"><ele>605.6666666666667</ele><time>2026-05-02T17:23:26.999Z</time></trkpt><trkpt lat="43.84909634929727" lon="11.246954177920706"><ele>607.0</ele><time>2026-05-02T17:23:27.999Z</time></trkpt><trkpt lat="43.849241842289175" lon="11.24691989535401"><ele>607.0</ele><time>2026-05-02T17:23:28.999Z</time></trkpt><trkpt lat="43.849377829104675" lon="11.246865110554431"><ele>607.0</ele><time>2026-05-02T17:23:29.999Z</time></trkpt><trkpt lat="43.849497158113294" lon="11.246755961742526"><ele>607.0</ele><time>2026-05-02T17:23:30.999Z</time></trkpt><trkpt lat="43.84960591999133" lon="11.246602739650271"><ele>607.0</ele><time>2026-05-02T17:23:31.999Z</time></trkpt><trkpt lat="43.849725814840774" lon="11.246435637485005"><ele>607.0</ele><time>2026-05-02T17:23:32.999Z</time></trkpt><trkpt lat="43.84985991567706" lon="11.246274319280005"><ele>607.0</ele><time>2026-05-02T17:23:33.999Z</time></trkpt><trkpt lat="43.84997829149676" lon="11.246128138049288"><ele>607.0</ele><time>2026-05-02T17:23:34.999Z</time></trkpt><trkpt lat="43.85007840413973" lon="11.245978757154491"><ele>613.6666666666667</ele><time>2026-05-02T17:23:35.999Z</time></trkpt><trkpt lat="43.85015577876072" lon="11.245801319455941"><ele>620.3333333333334</ele><time>2026-05-02T17:23:36.999Z</time></trkpt><trkpt lat="43.8502205928607" lon="11.24560072970464"><ele>627.0</ele><time>2026-05-02T17:23:37.999Z</time></trkpt><trkpt lat="43.85028567981056" lon="11.24541936945937"><ele>627.0</ele><time>2026-05-02T17:23:39Z</time></trkpt><trkpt lat="43.850367103235854" lon="11.245276991429012"><ele>627.0</ele><time>2026-05-02T17:23:40Z</time></trkpt><trkpt lat="43.85039861380844" lon="11.245108026202358"><ele>627.0</ele><time>2026-05-02T17:23:41Z</time></trkpt><trkpt lat="43.850443501913034" lon="11.24494471286705"><ele>627.0</ele><time>2026-05-02T17:23:42Z</time></trkpt><trkpt lat="43.85044138447896" lon="11.244756703784372"><ele>624.6666666666666</ele><time>2026-05-02T17:23:43Z</time></trkpt><trkpt lat="43.85044920103983" lon="11.244556404778953"><ele>622.3333333333333</ele><time>2026-05-02T17:23:44Z</time></trkpt><trkpt lat="43.85050103994138" lon="11.244349029180974"><ele>620.0</ele><time>2026-05-02T17:23:45Z</time></trkpt><trkpt lat="43.85055084499581" lon="11.244127616175406"><ele>618.6666666666666</ele><time>2026-05-02T17:23:46Z</time></trkpt><trkpt lat="43.85059841769357" lon="11.24389623116788"><ele>617.3333333333334</ele><time>2026-05-02T17:23:47Z</time></trkpt><trkpt lat="43.850624008613856" lon="11.24364926184645"><ele>616.0</ele><time>2026-05-02T17:23:48Z</time></trkpt><trkpt lat="43.85065895951333" lon="11.243403983584805"><ele>616.0</ele><time>2026-05-02T17:23:49Z</time></trkpt><trkpt lat="43.85069023678733" lon="11.24315234892155"><ele>616.0</ele><time>2026-05-02T17:23:50Z</time></trkpt><trkpt lat="43.85071822477795" lon="11.242901222970596"><ele>616.0</ele><time>2026-05-02T17:23:51Z</time></trkpt><trkpt lat="43.85074638081231" lon="11.242646191534801"><ele>614.6666666666667</ele><time>2026-05-02T17:23:52Z</time></trkpt><trkpt lat="43.85077726315176" lon="11.24238554789765"><ele>613.3333333333334</ele><time>2026-05-02T17:23:53Z</time></trkpt><trkpt lat="43.85080685634411" lon="11.242134515799478"><ele>612.0</ele><time>2026-05-02T17:23:54Z</time></trkpt><trkpt lat="43.85083399925346" lon="11.241901784063273"><ele>609.3333333333334</ele><time>2026-05-02T17:23:55Z</time></trkpt><trkpt lat="43.85085982108471" lon="11.241675518537008"><ele>606.6666666666667</ele><time>2026-05-02T17:23:56Z</time></trkpt><trkpt lat="43.85087826465123" lon="11.241450121163"><ele>604.0</ele><time>2026-05-02T17:23:57Z</time></trkpt><trkpt lat="43.850883926151454" lon="11.241220121295262"><ele>603.0</ele><time>2026-05-02T17:23:58Z</time></trkpt><trkpt lat="43.8508631668824" lon="11.240997136089522"><ele>602.0</ele><time>2026-05-02T17:23:59Z</time></trkpt><trkpt lat="43.85082926307835" lon="11.240777490990855"><ele>601.0</ele><time>2026-05-02T17:24:00Z</time></trkpt><trkpt lat="43.850826632577146" lon="11.240554100996336"><ele>600.0</ele><time>2026-05-02T17:24:01Z</time></trkpt><trkpt lat="43.85082818481541" lon="11.240322257255169"><ele>599.0</ele><time>2026-05-02T17:24:02Z</time></trkpt><trkpt lat="43.85085811671813" lon="11.240094006243245"><ele>598.0</ele><time>2026-05-02T17:24:03Z</time></trkpt><trkpt lat="43.85090218618314" lon="11.239851706432065"><ele>596.0</ele><time>2026-05-02T17:24:04Z</time></trkpt><trkpt lat="43.850943074848686" lon="11.2395966586608"><ele>594.0</ele><time>2026-05-02T17:24:05Z</time></trkpt><trkpt lat="43.85099144490998" lon="11.239351930879234"><ele>592.0</ele><time>2026-05-02T17:24:06Z</time></trkpt><trkpt lat="43.85103455588475" lon="11.239117278076156"><ele>592.3333333333334</ele><time>2026-05-02T17:24:07Z</time></trkpt><trkpt lat="43.85107783041693" lon="11.238891421911086"><ele>592.6666666666666</ele><time>2026-05-02T17:24:08Z</time></trkpt><trkpt lat="43.8511096961102" lon="11.238680404364345"><ele>593.0</ele><time>2026-05-02T17:24:09Z</time></trkpt><trkpt lat="43.851108466530576" lon="11.238478851901913"><ele>593.0</ele><time>2026-05-02T17:24:10Z</time></trkpt><trkpt lat="43.85106731221318" lon="11.238288332128908"><ele>593.0</ele><time>2026-05-02T17:24:11Z</time></trkpt><trkpt lat="43.8509935229143" lon="11.238101203167037"><ele>593.0</ele><time>2026-05-02T17:24:12Z</time></trkpt><trkpt lat="43.85089563002586" lon="11.23794794035912"><ele>593.0</ele><time>2026-05-02T17:24:13Z</time></trkpt><trkpt lat="43.85077298082552" lon="11.237826119743708"><ele>591.6666666666666</ele><time>2026-05-02T17:24:14Z</time></trkpt><trkpt lat="43.850635610649" lon="11.237717358804222"><ele>590.3333333333334</ele><time>2026-05-02T17:24:15Z</time></trkpt><trkpt lat="43.85048959176428" lon="11.237619369218997"><ele>589.0</ele><time>2026-05-02T17:24:16Z</time></trkpt><trkpt lat="43.85033916436455" lon="11.237511362938058"><ele>589.0</ele><time>2026-05-02T17:24:17Z</time></trkpt><trkpt lat="43.850191760842776" lon="11.237389841614144"><ele>589.0</ele><time>2026-05-02T17:24:18Z</time></trkpt><trkpt lat="43.85005906491107" lon="11.237254490001584"><ele>589.0</ele><time>2026-05-02T17:24:19Z</time></trkpt><trkpt lat="43.84994061354321" lon="11.237099390162518"><ele>590.3333333333334</ele><time>2026-05-02T17:24:20Z</time></trkpt><trkpt lat="43.84985523294351" lon="11.236896345551687"><ele>591.6666666666666</ele><time>2026-05-02T17:24:21Z</time></trkpt><trkpt lat="43.849751616308026" lon="11.236689145367869"><ele>593.0</ele><time>2026-05-02T17:24:22Z</time></trkpt><trkpt lat="43.849665239324736" lon="11.236450224076842"><ele>595.3333333333333</ele><time>2026-05-02T17:24:23Z</time></trkpt><trkpt lat="43.84956811673144" lon="11.236201806439439"><ele>597.6666666666666</ele><time>2026-05-02T17:24:24Z</time></trkpt><trkpt lat="43.84945874605422" lon="11.235941890390198"><ele>600.0</ele><time>2026-05-02T17:24:25Z</time></trkpt><trkpt lat="43.849344937536685" lon="11.235666583164411"><ele>595.0</ele><time>2026-05-02T17:24:26Z</time></trkpt><trkpt lat="43.8492290177271" lon="11.235384618719623"><ele>590.0</ele><time>2026-05-02T17:24:27Z</time></trkpt><trkpt lat="43.849107476964846" lon="11.23508330595228"><ele>594.0</ele><time>2026-05-02T17:24:28Z</time></trkpt><trkpt lat="43.84897782022381" lon="11.234765832718155"><ele>598.0</ele><time>2026-05-02T17:24:29Z</time></trkpt><trkpt lat="43.84884117192267" lon="11.23443935323451"><ele>598.0</ele><time>2026-05-02T17:24:30Z</time></trkpt><trkpt lat="43.84871636527844" lon="11.234141584197774"><ele>598.0</ele><time>2026-05-02T17:24:31Z</time></trkpt><trkpt lat="43.848596796444916" lon="11.233867238107738"><ele>600.0</ele><time>2026-05-02T17:24:32Z</time></trkpt><trkpt lat="43.84847728777518" lon="11.23360845257575"><ele>602.0</ele><time>2026-05-02T17:24:33Z</time></trkpt><trkpt lat="43.8483491892775" lon="11.233371612008106"><ele>604.0</ele><time>2026-05-02T17:24:34Z</time></trkpt><trkpt lat="43.84823664097001" lon="11.233113335715677"><ele>600.0</ele><time>2026-05-02T17:24:35Z</time></trkpt><trkpt lat="43.84812065894014" lon="11.2328660694342"><ele>596.0</ele><time>2026-05-02T17:24:36Z</time></trkpt><trkpt lat="43.84801478520405" lon="11.232639928536267"><ele>592.0</ele><time>2026-05-02T17:24:37Z</time></trkpt><trkpt lat="43.847928476304084" lon="11.232432202763649"><ele>591.0</ele><time>2026-05-02T17:24:38Z</time></trkpt><trkpt lat="43.84786402169081" lon="11.232228638182022"><ele>590.0</ele><time>2026-05-02T17:24:39Z</time></trkpt><trkpt lat="43.847831023987645" lon="11.232018110028749"><ele>589.0</ele><time>2026-05-02T17:24:40Z</time></trkpt><trkpt lat="43.84783286929813" lon="11.231826333848177"><ele>589.0</ele><time>2026-05-02T17:24:41Z</time></trkpt><trkpt lat="43.84787465300245" lon="11.231658856723044"><ele>589.0</ele><time>2026-05-02T17:24:42Z</time></trkpt><trkpt lat="43.84796206885653" lon="11.231536201238836"><ele>589.0</ele><time>2026-05-02T17:24:43Z</time></trkpt><trkpt lat="43.8480546271081" lon="11.231427834778588"><ele>589.0</ele><time>2026-05-02T17:24:44Z</time></trkpt><trkpt lat="43.84817337079919" lon="11.231312072227949"><ele>584.0</ele><time>2026-05-02T17:24:45Z</time></trkpt><trkpt lat="43.848316761407396" lon="11.231211964871683"><ele>579.0</ele><time>2026-05-02T17:24:46Z</time></trkpt><trkpt lat="43.84847882794805" lon="11.231144794247996"><ele>574.0</ele><time>2026-05-02T17:24:47Z</time></trkpt><trkpt lat="43.84865649751762" lon="11.231126160150197"><ele>573.6666666666667</ele><time>2026-05-02T17:24:47.999Z</time></trkpt><trkpt lat="43.84883586848676" lon="11.231099802087599"><ele>573.3333333333334</ele><time>2026-05-02T17:24:48.999Z</time></trkpt><trkpt lat="43.84900175404239" lon="11.231132391031739"><ele>573.0</ele><time>2026-05-02T17:24:49.999Z</time></trkpt><trkpt lat="43.849152436242456" lon="11.23118150342127"><ele>572.0</ele><time>2026-05-02T17:24:50.999Z</time></trkpt><trkpt lat="43.8492972688873" lon="11.231257649265654"><ele>571.0</ele><time>2026-05-02T17:24:51.999Z</time></trkpt><trkpt lat="43.849407306171635" lon="11.231432061170489"><ele>570.0</ele><time>2026-05-02T17:24:52.999Z</time></trkpt><trkpt lat="43.84952098133269" lon="11.231620975135044"><ele>570.0</ele><time>2026-05-02T17:24:53.999Z</time></trkpt><trkpt lat="43.849639233950704" lon="11.23183927230105"><ele>570.0</ele><time>2026-05-02T17:24:54.999Z</time></trkpt><trkpt lat="43.8497676209753" lon="11.23205531667701"><ele>570.0</ele><time>2026-05-02T17:24:55.999Z</time></trkpt><trkpt lat="43.84988453147377" lon="11.232287802532134"><ele>573.0</ele><time>2026-05-02T17:24:56.999Z</time></trkpt><trkpt lat="43.85000425717089" lon="11.232511965900828"><ele>576.0</ele><time>2026-05-02T17:24:57.999Z</time></trkpt><trkpt lat="43.850120778539875" lon="11.232721039808558"><ele>579.0</ele><time>2026-05-02T17:24:58.999Z</time></trkpt><trkpt lat="43.85022802097906" lon="11.232926001099417"><ele>571.6666666666666</ele><time>2026-05-02T17:24:59.999Z</time></trkpt><trkpt lat="43.85032328124991" lon="11.233132297344401"><ele>564.3333333333333</ele><time>2026-05-02T17:25:00.999Z</time></trkpt><trkpt lat="43.85041684089381" lon="11.233352946278522"><ele>557.0</ele><time>2026-05-02T17:25:01.999Z</time></trkpt><trkpt lat="43.85049877086372" lon="11.233588319130684"><ele>557.0</ele><time>2026-05-02T17:25:02.999Z</time></trkpt><trkpt lat="43.85057612577035" lon="11.233833281419809"><ele>557.0</ele><time>2026-05-02T17:25:03.999Z</time></trkpt><trkpt lat="43.85062227211346" lon="11.234104786974477"><ele>557.0</ele><time>2026-05-02T17:25:04.999Z</time></trkpt><trkpt lat="43.85067962744842" lon="11.234389705658407"><ele>562.5</ele><time>2026-05-02T17:25:05.999Z</time></trkpt><trkpt lat="43.85073811720116" lon="11.234693033768533"><ele>568.0</ele><time>2026-05-02T17:25:06.999Z</time></trkpt><trkpt lat="43.85080022937394" lon="11.2350098159873"><ele>570.3333333333334</ele><time>2026-05-02T17:25:07.999Z</time></trkpt><trkpt lat="43.85086732931317" lon="11.23531932456926"><ele>572.6666666666666</ele><time>2026-05-02T17:25:08.999Z</time></trkpt><trkpt lat="43.85092194838486" lon="11.235606016730571"><ele>575.0</ele><time>2026-05-02T17:25:09.999Z</time></trkpt><trkpt lat="43.8509753424801" lon="11.235865981756243"><ele>570.6666666666666</ele><time>2026-05-02T17:25:10.999Z</time></trkpt><trkpt lat="43.85102968536354" lon="11.236119865671927"><ele>566.3333333333334</ele><time>2026-05-02T17:25:11.999Z</time></trkpt><trkpt lat="43.85107454089069" lon="11.23636317041701"><ele>562.0</ele><time>2026-05-02T17:25:12.999Z</time></trkpt><trkpt lat="43.85112029219836" lon="11.236588227293176"><ele>562.0</ele><time>2026-05-02T17:25:13.999Z</time></trkpt><trkpt lat="43.851183643652675" lon="11.23677789509662"><ele>562.0</ele><time>2026-05-02T17:25:14.999Z</time></trkpt><trkpt lat="43.85127360577281" lon="11.236942390238632"><ele>562.0</ele><time>2026-05-02T17:25:15.999Z</time></trkpt><trkpt lat="43.851375358257485" lon="11.237063544107544"><ele>562.0</ele><time>2026-05-02T17:25:16.999Z</time></trkpt><trkpt lat="43.85148723384674" lon="11.237130595522279"><ele>562.0</ele><time>2026-05-02T17:25:17.999Z</time></trkpt><trkpt lat="43.85160427773774" lon="11.237129956167006"><ele>562.0</ele><time>2026-05-02T17:25:18.999Z</time></trkpt><trkpt lat="43.85172320772689" lon="11.237057873499294"><ele>562.0</ele><time>2026-05-02T17:25:19.999Z</time></trkpt><trkpt lat="43.851845744753135" lon="11.236925863094168"><ele>562.0</ele><time>2026-05-02T17:25:20.999Z</time></trkpt><trkpt lat="43.851988955198365" lon="11.23675380199452"><ele>565.0</ele><time>2026-05-02T17:25:21.999Z</time></trkpt><trkpt lat="43.85216281159338" lon="11.236611253502247"><ele>568.0</ele><time>2026-05-02T17:25:22.999Z</time></trkpt><trkpt lat="43.852332952066234" lon="11.236455253289998"><ele>571.0</ele><time>2026-05-02T17:25:23.999Z</time></trkpt><trkpt lat="43.852499162703346" lon="11.236328963806473"><ele>562.6666666666667</ele><time>2026-05-02T17:25:24.999Z</time></trkpt><trkpt lat="43.85267657336521" lon="11.23622605829505"><ele>554.3333333333334</ele><time>2026-05-02T17:25:25.999Z</time></trkpt><trkpt lat="43.852877196657744" lon="11.236145093861412"><ele>546.0</ele><time>2026-05-02T17:25:26.999Z</time></trkpt><trkpt lat="43.85309660082238" lon="11.236078592519798"><ele>546.0</ele><time>2026-05-02T17:25:27.999Z</time></trkpt><trkpt lat="43.853328107947455" lon="11.236007791775979"><ele>546.0</ele><time>2026-05-02T17:25:28.999Z</time></trkpt><trkpt lat="43.85356215496752" lon="11.235938204771417"><ele>548.5</ele><time>2026-05-02T17:25:29.999Z</time></trkpt><trkpt lat="43.85379302837458" lon="11.235871098525633"><ele>551.0</ele><time>2026-05-02T17:25:30.999Z</time></trkpt><trkpt lat="43.854002482064445" lon="11.235808709998102"><ele>551.0</ele><time>2026-05-02T17:25:31.999Z</time></trkpt><trkpt lat="43.85421028295596" lon="11.235781235606133"><ele>551.0</ele><time>2026-05-02T17:25:32.999Z</time></trkpt><trkpt lat="43.854396581572175" lon="11.235839013964037"><ele>551.0</ele><time>2026-05-02T17:25:33.999Z</time></trkpt><trkpt lat="43.85458010675365" lon="11.235937506305017"><ele>548.6666666666666</ele><time>2026-05-02T17:25:34.999Z</time></trkpt><trkpt lat="43.854785486991304" lon="11.23597769806838"><ele>546.3333333333334</ele><time>2026-05-02T17:25:35.999Z</time></trkpt><trkpt lat="43.85499837777374" lon="11.235957330856596"><ele>544.0</ele><time>2026-05-02T17:25:36.999Z</time></trkpt><trkpt lat="43.855232767145296" lon="11.235909270942049"><ele>544.0</ele><time>2026-05-02T17:25:37.999Z</time></trkpt><trkpt lat="43.855475959063085" lon="11.235846470039572"><ele>544.0</ele><time>2026-05-02T17:25:38.999Z</time></trkpt><trkpt lat="43.85572597693177" lon="11.23579048593636"><ele>547.5</ele><time>2026-05-02T17:25:39.999Z</time></trkpt><trkpt lat="43.85596949122783" lon="11.23571886648548"><ele>551.0</ele><time>2026-05-02T17:25:40.999Z</time></trkpt><trkpt lat="43.856207395646656" lon="11.235624076324308"><ele>539.5</ele><time>2026-05-02T17:25:41.999Z</time></trkpt><trkpt lat="43.856444213562" lon="11.235508785016613"><ele>528.0</ele><time>2026-05-02T17:25:42.999Z</time></trkpt><trkpt lat="43.85666755522958" lon="11.235375344702536"><ele>535.5</ele><time>2026-05-02T17:25:43.999Z</time></trkpt><trkpt lat="43.85689278353088" lon="11.235249942243687"><ele>543.0</ele><time>2026-05-02T17:25:45Z</time></trkpt><trkpt lat="43.85710630644989" lon="11.23513515969874"><ele>543.0</ele><time>2026-05-02T17:25:46Z</time></trkpt><trkpt lat="43.857313971330576" lon="11.235024261317893"><ele>543.0</ele><time>2026-05-02T17:25:47Z</time></trkpt><trkpt lat="43.857510793848846" lon="11.234904566629591"><ele>543.0</ele><time>2026-05-02T17:25:48Z</time></trkpt><trkpt lat="43.8576937831265" lon="11.234754930948377"><ele>542.6666666666666</ele><time>2026-05-02T17:25:49Z</time></trkpt><trkpt lat="43.85786999592011" lon="11.234567591257678"><ele>542.3333333333333</ele><time>2026-05-02T17:25:50Z</time></trkpt><trkpt lat="43.858046079139946" lon="11.234368039607226"><ele>542.0</ele><time>2026-05-02T17:25:51Z</time></trkpt><trkpt lat="43.858212978545566" lon="11.234175627792379"><ele>542.0</ele><time>2026-05-02T17:25:52Z</time></trkpt><trkpt lat="43.85838379571028" lon="11.234012780713467"><ele>542.0</ele><time>2026-05-02T17:25:53Z</time></trkpt><trkpt lat="43.85855459260202" lon="11.233848258018833"><ele>542.0</ele><time>2026-05-02T17:25:54Z</time></trkpt><trkpt lat="43.85874035802159" lon="11.23372076154462"><ele>537.3333333333333</ele><time>2026-05-02T17:25:55Z</time></trkpt><trkpt lat="43.85893591136399" lon="11.233641122671756"><ele>532.6666666666666</ele><time>2026-05-02T17:25:56Z</time></trkpt><trkpt lat="43.8591474285008" lon="11.233608969591266"><ele>528.0</ele><time>2026-05-02T17:25:57Z</time></trkpt><trkpt lat="43.85936840770259" lon="11.23360701961538"><ele>525.0</ele><time>2026-05-02T17:25:58Z</time></trkpt><trkpt lat="43.859596537187144" lon="11.233632531542373"><ele>522.0</ele><time>2026-05-02T17:25:59Z</time></trkpt><trkpt lat="43.859824778352205" lon="11.233644029838532"><ele>522.0</ele><time>2026-05-02T17:26:00Z</time></trkpt><trkpt lat="43.86003949410787" lon="11.233680312209804"><ele>522.0</ele><time>2026-05-02T17:26:01Z</time></trkpt><trkpt lat="43.86024079480533" lon="11.233731962630886"><ele>522.0</ele><time>2026-05-02T17:26:02Z</time></trkpt><trkpt lat="43.860438561540285" lon="11.233763154669195"><ele>519.0</ele><time>2026-05-02T17:26:03Z</time></trkpt><trkpt lat="43.860624137872094" lon="11.233806560257921"><ele>516.0</ele><time>2026-05-02T17:26:04Z</time></trkpt><trkpt lat="43.86079627090559" lon="11.233898939948062"><ele>513.0</ele><time>2026-05-02T17:26:05Z</time></trkpt><trkpt lat="43.86096867617625" lon="11.234021282611446"><ele>512.6666666666666</ele><time>2026-05-02T17:26:06Z</time></trkpt><trkpt lat="43.861115304066445" lon="11.23422999801172"><ele>512.3333333333333</ele><time>2026-05-02T17:26:07Z</time></trkpt><trkpt lat="43.86126475489076" lon="11.234435630370513"><ele>512.0</ele><time>2026-05-02T17:26:08Z</time></trkpt><trkpt lat="43.861397519931835" lon="11.234637992656534"><ele>512.0</ele><time>2026-05-02T17:26:09Z</time></trkpt><trkpt lat="43.86154676344154" lon="11.234794381270275"><ele>512.0</ele><time>2026-05-02T17:26:10Z</time></trkpt><trkpt lat="43.86171369962748" lon="11.234898321235882"><ele>512.0</ele><time>2026-05-02T17:26:11Z</time></trkpt><trkpt lat="43.861901166812466" lon="11.234945617330176"><ele>514.0</ele><time>2026-05-02T17:26:12Z</time></trkpt><trkpt lat="43.86209706948629" lon="11.23494327449688"><ele>516.0</ele><time>2026-05-02T17:26:13Z</time></trkpt><trkpt lat="43.86229415793765" lon="11.234894876251355"><ele>518.0</ele><time>2026-05-02T17:26:14Z</time></trkpt><trkpt lat="43.86249241983958" lon="11.234787885647776"><ele>507.0</ele><time>2026-05-02T17:26:15Z</time></trkpt><trkpt lat="43.86269544769091" lon="11.234656548012294"><ele>496.0</ele><time>2026-05-02T17:26:16Z</time></trkpt><trkpt lat="43.862915914061794" lon="11.234533673225354"><ele>496.0</ele><time>2026-05-02T17:26:17Z</time></trkpt><trkpt lat="43.863127939001416" lon="11.23441765733532"><ele>496.0</ele><time>2026-05-02T17:26:18Z</time></trkpt><trkpt lat="43.85689278353088" lon="11.235249942243687"><ele>519.5</ele><time>2026-05-02T17:25:45Z</time></trkpt><trkpt lat="43.85710630644989" lon="11.23513515969874"><ele>543.0</ele><time>2026-05-02T17:25:46Z</time></trkpt><trkpt lat="43.857313971330576" lon="11.235024261317893"><ele>543.0</ele><time>2026-05-02T17:25:47Z</time></trkpt><trkpt lat="43.857510793848846" lon="11.234904566629591"><ele>543.0</ele><time>2026-05-02T17:25:48Z</time></trkpt><trkpt lat="43.8576937831265" lon="11.234754930948377"><ele>543.0</ele><time>2026-05-02T17:25:49Z</time></trkpt><trkpt lat="43.85786999592011" lon="11.234567591257678"><ele>542.6666666666666</ele><time>2026-05-02T17:25:50Z</time></trkpt><trkpt lat="43.858046079139946" lon="11.234368039607226"><ele>542.3333333333333</ele><time>2026-05-02T17:25:51Z</time></trkpt><trkpt lat="43.858212978545566" lon="11.234175627792379"><ele>542.0</ele><time>2026-05-02T17:25:52Z</time></trkpt><trkpt lat="43.85838379571028" lon="11.234012780713467"><ele>537.3333333333333</ele><time>2026-05-02T17:25:53Z</time></trkpt><trkpt lat="43.85855459260202" lon="11.233848258018833"><ele>532.6666666666666</ele><time>2026-05-02T17:25:54Z</time></trkpt><trkpt lat="43.85874035802159" lon="11.23372076154462"><ele>528.0</ele><time>2026-05-02T17:25:55Z</time></trkpt><trkpt lat="43.85893591136399" lon="11.233641122671756"><ele>528.0</ele><time>2026-05-02T17:25:56Z</time></trkpt><trkpt lat="43.8591474285008" lon="11.233608969591266"><ele>528.0</ele><time>2026-05-02T17:25:57Z</time></trkpt><trkpt lat="43.85936840770259" lon="11.23360701961538"><ele>528.0</ele><time>2026-05-02T17:25:58Z</time></trkpt><trkpt lat="43.859596537187144" lon="11.233632531542373"><ele>526.0</ele><time>2026-05-02T17:25:59Z</time></trkpt><trkpt lat="43.859824778352205" lon="11.233644029838532"><ele>524.0</ele><time>2026-05-02T17:26:00Z</time></trkpt><trkpt lat="43.86003949410787" lon="11.233680312209804"><ele>522.0</ele><time>2026-05-02T17:26:01Z</time></trkpt><trkpt lat="43.86024079480533" lon="11.233731962630886"><ele>519.0</ele><time>2026-05-02T17:26:02Z</time></trkpt><trkpt lat="43.860438561540285" lon="11.233763154669195"><ele>516.0</ele><time>2026-05-02T17:26:03Z</time></trkpt><trkpt lat="43.860624137872094" lon="11.233806560257921"><ele>513.0</ele><time>2026-05-02T17:26:04Z</time></trkpt><trkpt lat="43.86079627090559" lon="11.233898939948062"><ele>512.6666666666666</ele><time>2026-05-02T17:26:05Z</time></trkpt><trkpt lat="43.86096867617625" lon="11.234021282611446"><ele>512.3333333333333</ele><time>2026-05-02T17:26:06Z</time></trkpt><trkpt lat="43.861115304066445" lon="11.23422999801172"><ele>512.0</ele><time>2026-05-02T17:26:07Z</time></trkpt><trkpt lat="43.86126475489076" lon="11.234435630370513"><ele>512.0</ele><time>2026-05-02T17:26:08Z</time></trkpt><trkpt lat="43.861397519931835" lon="11.234637992656534"><ele>512.0</ele><time>2026-05-02T17:26:09Z</time></trkpt><trkpt lat="43.86154676344154" lon="11.234794381270275"><ele>512.0</ele><time>2026-05-02T17:26:10Z</time></trkpt><trkpt lat="43.86171369962748" lon="11.234898321235882"><ele>514.0</ele><time>2026-05-02T17:26:11Z</time></trkpt><trkpt lat="43.861901166812466" lon="11.234945617330176"><ele>516.0</ele><time>2026-05-02T17:26:12Z</time></trkpt><trkpt lat="43.86209706948629" lon="11.23494327449688"><ele>518.0</ele><time>2026-05-02T17:26:13Z</time></trkpt><trkpt lat="43.86229415793765" lon="11.234894876251355"><ele>511.66666666666663</ele><time>2026-05-02T17:26:14Z</time></trkpt><trkpt lat="43.86249241983958" lon="11.234787885647776"><ele>505.33333333333337</ele><time>2026-05-02T17:26:15Z</time></trkpt><trkpt lat="43.86269544769091" lon="11.234656548012294"><ele>499.0</ele><time>2026-05-02T17:26:16Z</time></trkpt><trkpt lat="43.862915914061794" lon="11.234533673225354"><ele>497.5</ele><time>2026-05-02T17:26:17Z</time></trkpt><trkpt lat="43.863127939001416" lon="11.23441765733532"><ele>496.0</ele><time>2026-05-02T17:26:18Z</time></trkpt><trkpt lat="43.86332606907913" lon="11.2342746142706"><ele>499.0</ele><time>2026-05-02T17:26:19Z</time></trkpt><trkpt lat="43.86351737873026" lon="11.234106614266176"><ele>502.0</ele><time>2026-05-02T17:26:20Z</time></trkpt><trkpt lat="43.86370121471549" lon="11.233929137788916"><ele>496.0</ele><time>2026-05-02T17:26:21Z</time></trkpt><trkpt lat="43.86388666112599" lon="11.233791501795878"><ele>490.0</ele><time>2026-05-02T17:26:22Z</time></trkpt><trkpt lat="43.864057655372385" lon="11.233660351071643"><ele>484.0</ele><time>2026-05-02T17:26:23Z</time></trkpt><trkpt lat="43.86423543574917" lon="11.233567843590224"><ele>484.0</ele><time>2026-05-02T17:26:24Z</time></trkpt><trkpt lat="43.864423117796115" lon="11.23351086387563"><ele>484.0</ele><time>2026-05-02T17:26:25Z</time></trkpt><trkpt lat="43.86463003620364" lon="11.233476784142377"><ele>484.0</ele><time>2026-05-02T17:26:26Z</time></trkpt><trkpt lat="43.86483829086001" lon="11.23342926341856"><ele>484.0</ele><time>2026-05-02T17:26:27Z</time></trkpt><trkpt lat="43.86503692203222" lon="11.233406187333479"><ele>484.0</ele><time>2026-05-02T17:26:28Z</time></trkpt><trkpt lat="43.86522367871472" lon="11.233373221542458"><ele>484.0</ele><time>2026-05-02T17:26:29Z</time></trkpt><trkpt lat="43.86539531301752" lon="11.233340827846941"><ele>484.0</ele><time>2026-05-02T17:26:30Z</time></trkpt><trkpt lat="43.86555300471401" lon="11.233315039052195"><ele>484.0</ele><time>2026-05-02T17:26:31Z</time></trkpt><trkpt lat="43.86569858471028" lon="11.233290569199161"><ele>484.0</ele><time>2026-05-02T17:26:32Z</time></trkpt><trkpt lat="43.86581484676852" lon="11.233259211760215"><ele>484.0</ele><time>2026-05-02T17:26:33Z</time></trkpt><trkpt lat="43.865922884017806" lon="11.23321690117712"><ele>486.79999999999995</ele><time>2026-05-02T17:26:34Z</time></trkpt><trkpt lat="43.86601129251123" lon="11.233161851236998"><ele>489.59999999999997</ele><time>2026-05-02T17:26:35Z</time></trkpt><trkpt lat="43.866097266426934" lon="11.233123609068784"><ele>492.4</ele><time>2026-05-02T17:26:36Z</time></trkpt><trkpt lat="43.86617133208035" lon="11.233052498857635"><ele>495.2</ele><time>2026-05-02T17:26:37Z</time></trkpt><trkpt lat="43.86623732801972" lon="11.23297456607419"><ele>498.0</ele><time>2026-05-02T17:26:38Z</time></trkpt><trkpt lat="43.86629841030495" lon="11.232878155873825"><ele>498.0</ele><time>2026-05-02T17:26:39Z</time></trkpt><trkpt lat="43.86634455222702" lon="11.232781395222132"><ele>497.99999999999994</ele><time>2026-05-02T17:26:40Z</time></trkpt><trkpt lat="43.86638350474561" lon="11.232679018066202"><ele>497.99999999999994</ele><time>2026-05-02T17:26:41Z</time></trkpt><trkpt lat="43.866410164452205" lon="11.23255286971234"><ele>498.0</ele><time>2026-05-02T17:26:42Z</time></trkpt><trkpt lat="43.86642332497667" lon="11.23242481222066"><ele>498.0</ele><time>2026-05-02T17:26:43Z</time></trkpt><trkpt lat="43.86642133028309" lon="11.232287218904975"><ele>497.79999999999995</ele><time>2026-05-02T17:26:44Z</time></trkpt><trkpt lat="43.866399854799496" lon="11.232142150762366"><ele>497.59999999999997</ele><time>2026-05-02T17:26:45Z</time></trkpt><trkpt lat="43.86636773170508" lon="11.231995879145646"><ele>497.40000000000003</ele><time>2026-05-02T17:26:46Z</time></trkpt><trkpt lat="43.866332885052536" lon="11.231855691577126"><ele>497.20000000000005</ele><time>2026-05-02T17:26:47Z</time></trkpt><trkpt lat="43.866299476920155" lon="11.23172561247613"><ele>497.0</ele><time>2026-05-02T17:26:48Z</time></trkpt><trkpt lat="43.866267765308685" lon="11.231602138825302"><ele>497.0</ele><time>2026-05-02T17:26:49Z</time></trkpt><trkpt lat="43.86623912948769" lon="11.231477907516425"><ele>497.00000000000006</ele><time>2026-05-02T17:26:50Z</time></trkpt><trkpt lat="43.86622527762992" lon="11.231344027812296"><ele>497.00000000000006</ele><time>2026-05-02T17:26:51Z</time></trkpt><trkpt lat="43.86622622014731" lon="11.23119716462021"><ele>497.0</ele><time>2026-05-02T17:26:52Z</time></trkpt><trkpt lat="43.86623632702476" lon="11.231040260593813"><ele>497.0</ele><time>2026-05-02T17:26:53Z</time></trkpt><trkpt lat="43.86624535944745" lon="11.230884683687593"><ele>497.0</ele><time>2026-05-02T17:26:54Z</time></trkpt><trkpt lat="43.866251086430765" lon="11.230737658214242"><ele>497.00000000000006</ele><time>2026-05-02T17:26:55Z</time></trkpt><trkpt lat="43.866253475996515" lon="11.23059194186644"><ele>497.00000000000006</ele><time>2026-05-02T17:26:55.999Z</time></trkpt><trkpt lat="43.86624753017896" lon="11.230466506478354"><ele>497.0</ele><time>2026-05-02T17:26:56.999Z</time></trkpt><trkpt lat="43.86623500305424" lon="11.230344372761987"><ele>497.0</ele><time>2026-05-02T17:26:58.999Z</time></trkpt><trkpt lat="43.8662136604823" lon="11.230190355432702"><ele>496.25</ele><time>2026-05-02T17:27:06.999Z</time></trkpt><trkpt lat="43.86619137650603" lon="11.230059827696842"><ele>495.5</ele><time>2026-05-02T17:27:07.999Z</time></trkpt><trkpt lat="43.86616660742351" lon="11.229916351815806"><ele>494.75</ele><time>2026-05-02T17:27:08.999Z</time></trkpt><trkpt lat="43.8661370046167" lon="11.229745557377425"><ele>494.0</ele><time>2026-05-02T17:27:09.999Z</time></trkpt><trkpt lat="43.86610480568525" lon="11.229559784477987"><ele>496.5</ele><time>2026-05-02T17:27:10.999Z</time></trkpt><trkpt lat="43.86607006545306" lon="11.22935934953788"><ele>499.0</ele><time>2026-05-02T17:27:11.999Z</time></trkpt><trkpt lat="43.866035725660886" lon="11.229163109952957"><ele>501.5</ele><time>2026-05-02T17:27:12.999Z</time></trkpt><trkpt lat="43.86600217438603" lon="11.228970125753532"><ele>504.0</ele><time>2026-05-02T17:27:13.999Z</time></trkpt><trkpt lat="43.86596890101157" lon="11.228771435482821"><ele>486.0</ele><time>2026-05-02T17:27:14.999Z</time></trkpt><trkpt lat="43.86593242980616" lon="11.228574155016588"><ele>468.0</ele><time>2026-05-02T17:27:15.999Z</time></trkpt><trkpt lat="43.8658898657976" lon="11.228373519092894"><ele>450.0</ele><time>2026-05-02T17:27:16.999Z</time></trkpt><trkpt lat="43.86583913161" lon="11.22816479470906"><ele>453.33333333333337</ele><time>2026-05-02T17:27:17.999Z</time></trkpt><trkpt lat="43.8657833265607" lon="11.227955191356058"><ele>456.6666666666667</ele><time>2026-05-02T17:27:18.999Z</time></trkpt><trkpt lat="43.865728107959264" lon="11.227747981306445"><ele>460.0</ele><time>2026-05-02T17:27:19.999Z</time></trkpt><trkpt lat="43.86567320725587" lon="11.227544049609406"><ele>460.0</ele><time>2026-05-02T17:27:20.999Z</time></trkpt><trkpt lat="43.865617693787705" lon="11.22734186227623"><ele>460.0</ele><time>2026-05-02T17:27:21.999Z</time></trkpt><trkpt lat="43.86556228747883" lon="11.22714006515107"><ele>460.0</ele><time>2026-05-02T17:27:22.999Z</time></trkpt><trkpt lat="43.865503584332956" lon="11.226932480137727"><ele>464.0</ele><time>2026-05-02T17:27:23.999Z</time></trkpt><trkpt lat="43.865442448832724" lon="11.226722152183322"><ele>468.0</ele><time>2026-05-02T17:27:24.999Z</time></trkpt><trkpt lat="43.86537948236864" lon="11.226512342353864"><ele>472.0</ele><time>2026-05-02T17:27:25.999Z</time></trkpt><trkpt lat="43.86531579788421" lon="11.226301251034881"><ele>472.33333333333337</ele><time>2026-05-02T17:27:26.999Z</time></trkpt><trkpt lat="43.865229221302656" lon="11.226103649748675"><ele>472.66666666666663</ele><time>2026-05-02T17:27:27.999Z</time></trkpt><trkpt lat="43.86514155688082" lon="11.225905426269644"><ele>473.0</ele><time>2026-05-02T17:27:28.999Z</time></trkpt><trkpt lat="43.865033039829555" lon="11.225727321005353"><ele>461.0</ele><time>2026-05-02T17:27:29.999Z</time></trkpt><trkpt lat="43.864916551083795" lon="11.225550580948015"><ele>449.0</ele><time>2026-05-02T17:27:30.999Z</time></trkpt><trkpt lat="43.864793838054275" lon="11.225390427946001"><ele>437.0</ele><time>2026-05-02T17:27:31.999Z</time></trkpt><trkpt lat="43.864661325279556" lon="11.225255521003335"><ele>437.0</ele><time>2026-05-02T17:27:32.999Z</time></trkpt><trkpt lat="43.86451503905176" lon="11.225147916278853"><ele>437.0</ele><time>2026-05-02T17:27:33.999Z</time></trkpt><trkpt lat="43.864351817808945" lon="11.225068382757975"><ele>437.0</ele><time>2026-05-02T17:27:34.999Z</time></trkpt><trkpt lat="43.86418750622124" lon="11.225012978997805"><ele>431.3333333333333</ele><time>2026-05-02T17:27:35.999Z</time></trkpt><trkpt lat="43.86401994993763" lon="11.224968666264248"><ele>425.66666666666663</ele><time>2026-05-02T17:27:36.999Z</time></trkpt><trkpt lat="43.86385837355198" lon="11.224919248027126"><ele>420.0</ele><time>2026-05-02T17:27:37.999Z</time></trkpt><trkpt lat="43.86371523877732" lon="11.224835689116071"><ele>417.0</ele><time>2026-05-02T17:27:38.999Z</time></trkpt><trkpt lat="43.86360974033739" lon="11.2246805371747"><ele>414.0</ele><time>2026-05-02T17:27:39.999Z</time></trkpt><trkpt lat="43.863473414670324" lon="11.22456818698515"><ele>411.0</ele><time>2026-05-02T17:27:40.999Z</time></trkpt><trkpt lat="43.86334220412095" lon="11.224443066254905"><ele>410.5</ele><time>2026-05-02T17:27:41.999Z</time></trkpt><trkpt lat="43.86322198621645" lon="11.224317866920655"><ele>410.0</ele><time>2026-05-02T17:27:42.999Z</time></trkpt><trkpt lat="43.863115976472436" lon="11.224174632868621"><ele>409.5</ele><time>2026-05-02T17:27:43.999Z</time></trkpt><trkpt lat="43.863036860997774" lon="11.224021049424335"><ele>409.0</ele><time>2026-05-02T17:27:44.999Z</time></trkpt><trkpt lat="43.86297345714255" lon="11.223851516213644"><ele>405.75</ele><time>2026-05-02T17:27:45.999Z</time></trkpt><trkpt lat="43.862933501594384" lon="11.223673013287572"><ele>402.5</ele><time>2026-05-02T17:27:46.999Z</time></trkpt><trkpt lat="43.8629589340176" lon="11.223478031860212"><ele>399.25</ele><time>2026-05-02T17:27:47.999Z</time></trkpt><trkpt lat="43.8629436974708" lon="11.223258734612164"><ele>396.0</ele><time>2026-05-02T17:27:48.999Z</time></trkpt><trkpt lat="43.862911573744846" lon="11.223030997088076"><ele>390.6666666666667</ele><time>2026-05-02T17:27:49.999Z</time></trkpt><trkpt lat="43.86288097255797" lon="11.222807438232206"><ele>385.33333333333337</ele><time>2026-05-02T17:27:51Z</time></trkpt><trkpt lat="43.86285182209105" lon="11.222605894987367"><ele>380.0</ele><time>2026-05-02T17:27:52Z</time></trkpt><trkpt lat="43.86281085304149" lon="11.222411072891983"><ele>376.33333333333337</ele><time>2026-05-02T17:27:53Z</time></trkpt><trkpt lat="43.862726435229305" lon="11.222225671744205"><ele>372.6666666666667</ele><time>2026-05-02T17:27:54Z</time></trkpt><trkpt lat="43.862616049478" lon="11.222037255436652"><ele>369.0</ele><time>2026-05-02T17:27:55Z</time></trkpt><trkpt lat="43.86253168471509" lon="11.221814636814075"><ele>369.0</ele><time>2026-05-02T17:27:56Z</time></trkpt><trkpt lat="43.862472124923826" lon="11.22157955246042"><ele>369.0</ele><time>2026-05-02T17:27:57Z</time></trkpt><trkpt lat="43.8624181068791" lon="11.221328057506987"><ele>369.0</ele><time>2026-05-02T17:27:58Z</time></trkpt><trkpt lat="43.86235560212763" lon="11.22108503903642"><ele>364.6666666666667</ele><time>2026-05-02T17:27:59Z</time></trkpt><trkpt lat="43.862288693548" lon="11.220853566790616"><ele>360.33333333333337</ele><time>2026-05-02T17:28:00Z</time></trkpt><trkpt lat="43.86219054458852" lon="11.220641740815953"><ele>356.0</ele><time>2026-05-02T17:28:01Z</time></trkpt><trkpt lat="43.86207355761719" lon="11.220438886485573"><ele>352.33333333333337</ele><time>2026-05-02T17:28:02Z</time></trkpt><trkpt lat="43.86194754473621" lon="11.220236847767735"><ele>348.6666666666667</ele><time>2026-05-02T17:28:03Z</time></trkpt><trkpt lat="43.86182637468839" lon="11.220029725958003"><ele>345.0</ele><time>2026-05-02T17:28:04Z</time></trkpt><trkpt lat="43.861708087888395" lon="11.21982238830789"><ele>342.3333333333333</ele><time>2026-05-02T17:28:05Z</time></trkpt><trkpt lat="43.861594007429396" lon="11.219619865787745"><ele>339.66666666666663</ele><time>2026-05-02T17:28:06Z</time></trkpt><trkpt lat="43.861489386920404" lon="11.219427613786134"><ele>337.0</ele><time>2026-05-02T17:28:07Z</time></trkpt><trkpt lat="43.861402733676606" lon="11.219243145380357"><ele>337.0</ele><time>2026-05-02T17:28:08Z</time></trkpt><trkpt lat="43.86136830683143" lon="11.21905143379334"><ele>337.0</ele><time>2026-05-02T17:28:09Z</time></trkpt><trkpt lat="43.86134138603268" lon="11.21886397619923"><ele>337.0</ele><time>2026-05-02T17:28:10Z</time></trkpt><trkpt lat="43.86132399893768" lon="11.218652174689439"><ele>337.0</ele><time>2026-05-02T17:28:11Z</time></trkpt><trkpt lat="43.86130673954916" lon="11.21842698308717"><ele>335.5</ele><time>2026-05-02T17:28:12Z</time></trkpt><trkpt lat="43.8612745921255" lon="11.218217455620978"><ele>334.0</ele><time>2026-05-02T17:28:13Z</time></trkpt><trkpt lat="43.861248058357276" lon="11.21801900629444"><ele>332.5</ele><time>2026-05-02T17:28:14Z</time></trkpt><trkpt lat="43.861240499302355" lon="11.217823222560947"><ele>331.0</ele><time>2026-05-02T17:28:15Z</time></trkpt><trkpt lat="43.86122066957013" lon="11.217661642189103"><ele>330.20000000000005</ele><time>2026-05-02T17:28:16Z</time></trkpt><trkpt lat="43.861188753387424" lon="11.217535121119443"><ele>329.40000000000003</ele><time>2026-05-02T17:28:17Z</time></trkpt><trkpt lat="43.86113699595141" lon="11.217450968824327"><ele>328.6</ele><time>2026-05-02T17:28:18Z</time></trkpt><trkpt lat="43.86106957224258" lon="11.21740981378622"><ele>327.8</ele><time>2026-05-02T17:28:19Z</time></trkpt><trkpt lat="43.86097967661516" lon="11.217413717198081"><ele>327.0</ele><time>2026-05-02T17:28:20Z</time></trkpt><trkpt lat="43.860881156915895" lon="11.217480592023472"><ele>326.8</ele><time>2026-05-02T17:28:21Z</time></trkpt><trkpt lat="43.86081075730134" lon="11.21747428282143"><ele>326.6</ele><time>2026-05-02T17:28:22Z</time></trkpt><trkpt lat="43.860765251923226" lon="11.217378739626403"><ele>326.40000000000003</ele><time>2026-05-02T17:28:23Z</time></trkpt><trkpt lat="43.86068213821433" lon="11.217281967712003"><ele>326.20000000000005</ele><time>2026-05-02T17:28:24Z</time></trkpt><trkpt lat="43.8606064106504" lon="11.217160817566215"><ele>326.0</ele><time>2026-05-02T17:28:25Z</time></trkpt><trkpt lat="43.860517442775844" lon="11.217056256854196"><ele>327.0</ele><time>2026-05-02T17:28:26Z</time></trkpt><trkpt lat="43.86039391223046" lon="11.216976232171518"><ele>328.0</ele><time>2026-05-02T17:28:27Z</time></trkpt><trkpt lat="43.86024734277215" lon="11.216903189190894"><ele>329.0</ele><time>2026-05-02T17:28:28Z</time></trkpt><trkpt lat="43.86009273116366" lon="11.2168302531939"><ele>324.0</ele><time>2026-05-02T17:28:29Z</time></trkpt><trkpt lat="43.85992656445881" lon="11.216741445971119"><ele>319.0</ele><time>2026-05-02T17:28:30Z</time></trkpt><trkpt lat="43.85974913977381" lon="11.21665284849716"><ele>314.0</ele><time>2026-05-02T17:28:31Z</time></trkpt><trkpt lat="43.859566660470314" lon="11.216538942964553"><ele>312.6666666666667</ele><time>2026-05-02T17:28:32Z</time></trkpt><trkpt lat="43.859388257630904" lon="11.21640065472789"><ele>311.3333333333333</ele><time>2026-05-02T17:28:33Z</time></trkpt><trkpt lat="43.859207473384465" lon="11.216245966405655"><ele>310.0</ele><time>2026-05-02T17:28:34Z</time></trkpt><trkpt lat="43.85903388686585" lon="11.216105647331297"><ele>310.0</ele><time>2026-05-02T17:28:35Z</time></trkpt><trkpt lat="43.85886374790759" lon="11.215974461013108"><ele>310.0</ele><time>2026-05-02T17:28:36Z</time></trkpt><trkpt lat="43.85870779303965" lon="11.215847609703422"><ele>310.0</ele><time>2026-05-02T17:28:37Z</time></trkpt><trkpt lat="43.85856247073336" lon="11.215724365381874"><ele>308.75</ele><time>2026-05-02T17:28:38Z</time></trkpt><trkpt lat="43.85843717411779" lon="11.215600217208209"><ele>307.5</ele><time>2026-05-02T17:28:39Z</time></trkpt><trkpt lat="43.85833034753873" lon="11.215489550152826"><ele>306.25</ele><time>2026-05-02T17:28:40Z</time></trkpt><trkpt lat="43.85822990996038" lon="11.215364844412582"><ele>305.0</ele><time>2026-05-02T17:28:41Z</time></trkpt><trkpt lat="43.858115846536506" lon="11.215256288354462"><ele>305.0</ele><time>2026-05-02T17:28:42Z</time></trkpt><trkpt lat="43.8579943616134" lon="11.21515796616291"><ele>305.0</ele><time>2026-05-02T17:28:43Z</time></trkpt><trkpt lat="43.85786885608328" lon="11.215063929821511"><ele>305.0</ele><time>2026-05-02T17:28:44Z</time></trkpt><trkpt lat="43.857734047303204" lon="11.214977882138935"><ele>305.0</ele><time>2026-05-02T17:28:45Z</time></trkpt><trkpt lat="43.85760103458842" lon="11.21490237417733"><ele>304.0</ele><time>2026-05-02T17:28:46Z</time></trkpt><trkpt lat="43.85746564742077" lon="11.214827864411932"><ele>303.0</ele><time>2026-05-02T17:28:47Z</time></trkpt><trkpt lat="43.85735133054446" lon="11.214725323697012"><ele>302.0</ele><time>2026-05-02T17:28:48Z</time></trkpt><trkpt lat="43.857230491337496" lon="11.214594687247523"><ele>301.0</ele><time>2026-05-02T17:28:49Z</time></trkpt><trkpt lat="43.85710718832586" lon="11.21445991643602"><ele>301.0</ele><time>2026-05-02T17:28:50Z</time></trkpt><trkpt lat="43.85698771641379" lon="11.214344124727633"><ele>301.0</ele><time>2026-05-02T17:28:51Z</time></trkpt><trkpt lat="43.85691293360115" lon="11.214160411789955"><ele>301.0</ele><time>2026-05-02T17:28:52Z</time></trkpt><trkpt lat="43.85682421849609" lon="11.213979311161202"><ele>296.5</ele><time>2026-05-02T17:28:53Z</time></trkpt><trkpt lat="43.85672664396367" lon="11.213814356159501"><ele>292.0</ele><time>2026-05-02T17:28:54Z</time></trkpt><trkpt lat="43.856608726198374" lon="11.213720033138376"><ele>287.5</ele><time>2026-05-02T17:28:55Z</time></trkpt><trkpt lat="43.85649071117406" lon="11.213606852546034"><ele>283.0</ele><time>2026-05-02T17:28:56Z</time></trkpt><trkpt lat="43.85639452797177" lon="11.213507897957948"><ele>283.0</ele><time>2026-05-02T17:28:57Z</time></trkpt><trkpt lat="43.85630733491917" lon="11.21343898454069"><ele>283.0</ele><time>2026-05-02T17:28:58Z</time></trkpt><trkpt lat="43.85624057294364" lon="11.213397829983915"><ele>283.0</ele><time>2026-05-02T17:28:59Z</time></trkpt><trkpt lat="43.856137763514006" lon="11.213412680498092"><ele>283.0</ele><time>2026-05-02T17:29:01Z</time></trkpt><trkpt lat="43.85615949136198" lon="11.213603515460251"><ele>283.0</ele><time>2026-05-02T17:29:03Z</time></trkpt><trkpt lat="43.856222611658396" lon="11.2137032500192"><ele>283.0</ele><time>2026-05-02T17:29:04Z</time></trkpt><trkpt lat="43.856293001841514" lon="11.21381465155451"><ele>283.0</ele><time>2026-05-02T17:29:05Z</time></trkpt><trkpt lat="43.856344049253856" lon="11.213942279193725"><ele>283.0</ele><time>2026-05-02T17:29:06Z</time></trkpt><trkpt lat="43.85640406411895" lon="11.214034685028716"><ele>283.0</ele><time>2026-05-02T17:29:07Z</time></trkpt><trkpt lat="43.85642244516374" lon="11.214118236902387"><ele>283.0</ele><time>2026-05-02T17:29:07.999Z</time></trkpt><trkpt lat="43.85640643437964" lon="11.2142178018221"><ele>283.0</ele><time>2026-05-02T17:29:09.999Z</time></trkpt><trkpt lat="43.85628038159984" lon="11.214171803179406"><ele>283.0</ele><time>2026-05-02T17:29:11.999Z</time></trkpt><trkpt lat="43.85618442495234" lon="11.214046581519835"><ele>283.0</ele><time>2026-05-02T17:29:12.999Z</time></trkpt><trkpt lat="43.856051893059245" lon="11.213965762015413"><ele>283.0</ele><time>2026-05-02T17:29:13.999Z</time></trkpt><trkpt lat="43.85594809597629" lon="11.213859840627578"><ele>283.0</ele><time>2026-05-02T17:29:14.999Z</time></trkpt><trkpt lat="43.855860834301716" lon="11.213776369352699"><ele>279.16666666666663</ele><time>2026-05-02T17:29:15.999Z</time></trkpt><trkpt lat="43.85578276914753" lon="11.213723955185634"><ele>275.3333333333333</ele><time>2026-05-02T17:29:16.999Z</time></trkpt><trkpt lat="43.855734494294595" lon="11.213660713417955"><ele>271.5</ele><time>2026-05-02T17:29:17.999Z</time></trkpt><trkpt lat="43.855639478591954" lon="11.213725602484086"><ele>267.6666666666667</ele><time>2026-05-02T17:29:19.999Z</time></trkpt><trkpt lat="43.855642726738374" lon="11.213828030855895"><ele>263.83333333333337</ele><time>2026-05-02T17:29:20.999Z</time></trkpt><trkpt lat="43.85569070560141" lon="11.213937353769973"><ele>260.0</ele><time>2026-05-02T17:29:21.999Z</time></trkpt><trkpt lat="43.855784970991444" lon="11.21403951176117"><ele>260.0</ele><time>2026-05-02T17:29:22.999Z</time></trkpt><trkpt lat="43.85585035811639" lon="11.214154820372594"><ele>260.0</ele><time>2026-05-02T17:29:23.999Z</time></trkpt><trkpt lat="43.855897696155644" lon="11.214235615766002"><ele>260.0</ele><time>2026-05-02T17:29:24.999Z</time></trkpt><trkpt lat="43.85590575038918" lon="11.21437983366071"><ele>260.0</ele><time>2026-05-02T17:29:26.999Z</time></trkpt><trkpt lat="43.855787243601995" lon="11.214413259779535"><ele>260.0</ele><time>2026-05-02T17:29:28.999Z</time></trkpt><trkpt lat="43.85568157661313" lon="11.214451730652458"><ele>260.0</ele><time>2026-05-02T17:29:29.999Z</time></trkpt><trkpt lat="43.85555180296831" lon="11.214507175766995"><ele>260.0</ele><time>2026-05-02T17:29:30.999Z</time></trkpt><trkpt lat="43.85544651219561" lon="11.21455416853695"><ele>260.0</ele><time>2026-05-02T17:29:31.999Z</time></trkpt><trkpt lat="43.85529727438462" lon="11.21462808395474"><ele>260.0</ele><time>2026-05-02T17:29:32.999Z</time></trkpt><trkpt lat="43.85516893811307" lon="11.214725641902817"><ele>255.25</ele><time>2026-05-02T17:29:33.999Z</time></trkpt><trkpt lat="43.855045746290365" lon="11.214835304076383"><ele>250.5</ele><time>2026-05-02T17:29:34.999Z</time></trkpt><trkpt lat="43.85495059029673" lon="11.214936927155986"><ele>245.75</ele><time>2026-05-02T17:29:35.999Z</time></trkpt><trkpt lat="43.85488864577465" lon="11.215070336634117"><ele>241.0</ele><time>2026-05-02T17:29:36.999Z</time></trkpt><trkpt lat="43.854833815959516" lon="11.215226901474374"><ele>241.0</ele><time>2026-05-02T17:29:37.999Z</time></trkpt><trkpt lat="43.85478773436407" lon="11.215375337303131"><ele>241.0</ele><time>2026-05-02T17:29:38.999Z</time></trkpt><trkpt lat="43.85476311517617" lon="11.2155291476299"><ele>241.0</ele><time>2026-05-02T17:29:39.999Z</time></trkpt><trkpt lat="43.85474876842284" lon="11.215701008277954"><ele>241.0</ele><time>2026-05-02T17:29:40.999Z</time></trkpt><trkpt lat="43.854744514899586" lon="11.215869082799674"><ele>241.60000000000002</ele><time>2026-05-02T17:29:41.999Z</time></trkpt><trkpt lat="43.85474516247344" lon="11.216039529417387"><ele>242.20000000000002</ele><time>2026-05-02T17:29:42.999Z</time></trkpt><trkpt lat="43.85477659135457" lon="11.216162142422842"><ele>242.79999999999998</ele><time>2026-05-02T17:29:43.999Z</time></trkpt><trkpt lat="43.85483505673577" lon="11.216246500759397"><ele>243.39999999999998</ele><time>2026-05-02T17:29:44.999Z</time></trkpt><trkpt lat="43.85486212753415" lon="11.21635419545754"><ele>244.0</ele><time>2026-05-02T17:29:46.999Z</time></trkpt><trkpt lat="43.85476079206253" lon="11.216320201953533"><ele>244.0</ele><time>2026-05-02T17:29:48.999Z</time></trkpt><trkpt lat="43.854669010905326" lon="11.216103989704964"><ele>244.0</ele><time>2026-05-02T17:29:50.999Z</time></trkpt><trkpt lat="43.85458575674545" lon="11.215930876534978"><ele>244.0</ele><time>2026-05-02T17:29:51.999Z</time></trkpt><trkpt lat="43.85452213689057" lon="11.215774419494693"><ele>243.25</ele><time>2026-05-02T17:29:52.999Z</time></trkpt><trkpt lat="43.854473885958576" lon="11.215596453876435"><ele>242.5</ele><time>2026-05-02T17:29:53.999Z</time></trkpt><trkpt lat="43.854428556094696" lon="11.215425237221284"><ele>241.75</ele><time>2026-05-02T17:29:54.999Z</time></trkpt><trkpt lat="43.854405225101054" lon="11.215249493446247"><ele>241.0</ele><time>2026-05-02T17:29:55.999Z</time></trkpt><trkpt lat="43.85437281008435" lon="11.215035785539946"><ele>241.0</ele><time>2026-05-02T17:29:57Z</time></trkpt><trkpt lat="43.85437265896462" lon="11.214890609489942"><ele>241.00000000000003</ele><time>2026-05-02T17:29:58Z</time></trkpt><trkpt lat="43.85436619585543" lon="11.214738523412775"><ele>241.00000000000003</ele><time>2026-05-02T17:29:59Z</time></trkpt><trkpt lat="43.85432609138295" lon="11.214596669806875"><ele>241.0</ele><time>2026-05-02T17:30:00Z</time></trkpt><trkpt lat="43.854252131619" lon="11.214485314418194"><ele>241.0</ele><time>2026-05-02T17:30:01Z</time></trkpt><trkpt lat="43.854201056558125" lon="11.21439082773131"><ele>235.83333333333331</ele><time>2026-05-02T17:30:02Z</time></trkpt><trkpt lat="43.85420500567461" lon="11.214279022726869"><ele>230.66666666666666</ele><time>2026-05-02T17:30:03Z</time></trkpt><trkpt lat="43.854203068189975" lon="11.214177527389978"><ele>225.5</ele><time>2026-05-02T17:30:04Z</time></trkpt><trkpt lat="43.854187696738286" lon="11.214086295936024"><ele>220.33333333333331</ele><time>2026-05-02T17:30:05Z</time></trkpt><trkpt lat="43.854096595609676" lon="11.214056912670802"><ele>215.16666666666666</ele><time>2026-05-02T17:30:07Z</time></trkpt><trkpt lat="43.85403010193958" lon="11.214167839851903"><ele>210.0</ele><time>2026-05-02T17:30:08Z</time></trkpt><trkpt lat="43.853984276365004" lon="11.214281289667404"><ele>210.0</ele><time>2026-05-02T17:30:09Z</time></trkpt><trkpt lat="43.853940955493925" lon="11.214387919083359"><ele>210.0</ele><time>2026-05-02T17:30:10Z</time></trkpt><trkpt lat="43.85389148447367" lon="11.214462236931277"><ele>210.0</ele><time>2026-05-02T17:30:11Z</time></trkpt><trkpt lat="43.85380768366961" lon="11.214482122409027"><ele>210.0</ele><time>2026-05-02T17:30:12Z</time></trkpt><trkpt lat="43.85371071134977" lon="11.214512074502048"><ele>210.0</ele><time>2026-05-02T17:30:13Z</time></trkpt><trkpt lat="43.85358932586727" lon="11.214561738348824"><ele>210.0</ele><time>2026-05-02T17:30:14Z</time></trkpt><trkpt lat="43.853455529684496" lon="11.21460963812168"><ele>210.0</ele><time>2026-05-02T17:30:15Z</time></trkpt><trkpt lat="43.85332190953419" lon="11.214687378311536"><ele>210.0</ele><time>2026-05-02T17:30:16Z</time></trkpt><trkpt lat="43.85318322430201" lon="11.214729936219616"><ele>210.0</ele><time>2026-05-02T17:30:17Z</time></trkpt><trkpt lat="43.85305154980743" lon="11.214817116838379"><ele>204.0</ele><time>2026-05-02T17:30:18Z</time></trkpt><trkpt lat="43.85290946283541" lon="11.214880614662778"><ele>198.0</ele><time>2026-05-02T17:30:19Z</time></trkpt><trkpt lat="43.85276020803759" lon="11.214912308860459"><ele>192.0</ele><time>2026-05-02T17:30:20Z</time></trkpt><trkpt lat="43.85262826432717" lon="11.214974310313465"><ele>186.0</ele><time>2026-05-02T17:30:21Z</time></trkpt><trkpt lat="43.85249484679011" lon="11.215019577289697"><ele>183.0</ele><time>2026-05-02T17:30:22Z</time></trkpt><trkpt lat="43.85234953000079" lon="11.215040829733024"><ele>180.0</ele><time>2026-05-02T17:30:23Z</time></trkpt><trkpt lat="43.85222324140866" lon="11.215054468424015"><ele>177.0</ele><time>2026-05-02T17:30:24Z</time></trkpt><trkpt lat="43.85209367627583" lon="11.215042876759066"><ele>174.0</ele><time>2026-05-02T17:30:25Z</time></trkpt><trkpt lat="43.851970638004666" lon="11.215020458856062"><ele>174.0</ele><time>2026-05-02T17:30:26Z</time></trkpt><trkpt lat="43.85186956077135" lon="11.21500322059237"><ele>174.0</ele><time>2026-05-02T17:30:27Z</time></trkpt><trkpt lat="43.8517853494002" lon="11.214988771817273"><ele>174.0</ele><time>2026-05-02T17:30:28Z</time></trkpt><trkpt lat="43.85169493770991" lon="11.214973527700595"><ele>174.0</ele><time>2026-05-02T17:30:29Z</time></trkpt><trkpt lat="43.851580634789755" lon="11.2149752649502"><ele>174.0</ele><time>2026-05-02T17:30:30Z</time></trkpt><trkpt lat="43.851432783944794" lon="11.21496852014024"><ele>169.33333333333334</ele><time>2026-05-02T17:30:31Z</time></trkpt><trkpt lat="43.85125167814055" lon="11.21495162895835"><ele>164.66666666666669</ele><time>2026-05-02T17:30:32Z</time></trkpt><trkpt lat="43.85107073904282" lon="11.214927873636457"><ele>160.0</ele><time>2026-05-02T17:30:33Z</time></trkpt><trkpt lat="43.85087452330002" lon="11.214902849410477"><ele>157.66666666666669</ele><time>2026-05-02T17:30:34Z</time></trkpt><trkpt lat="43.85067652274458" lon="11.214881244688769"><ele>155.33333333333334</ele><time>2026-05-02T17:30:35Z</time></trkpt><trkpt lat="43.850464627808975" lon="11.214855903226102"><ele>153.0</ele><time>2026-05-02T17:30:36Z</time></trkpt><trkpt lat="43.85024770322585" lon="11.214831659471429"><ele>150.66666666666666</ele><time>2026-05-02T17:30:37Z</time></trkpt><trkpt lat="43.85002737937583" lon="11.214807872170768"><ele>148.33333333333331</ele><time>2026-05-02T17:30:38Z</time></trkpt><trkpt lat="43.84981362654985" lon="11.214784854366018"><ele>146.0</ele><time>2026-05-02T17:30:39Z</time></trkpt><trkpt lat="43.84961517302078" lon="11.21476262455457"><ele>146.0</ele><time>2026-05-02T17:30:40Z</time></trkpt><trkpt lat="43.84942594024744" lon="11.214749797626796"><ele>146.0</ele><time>2026-05-02T17:30:41Z</time></trkpt><trkpt lat="43.849248024499154" lon="11.214738670697376"><ele>146.0</ele><time>2026-05-02T17:30:42Z</time></trkpt><trkpt lat="43.8490667550796" lon="11.214720195934117"><ele>146.0</ele><time>2026-05-02T17:30:43Z</time></trkpt><trkpt lat="43.84888723341845" lon="11.214692177020126"><ele>146.0</ele><time>2026-05-02T17:30:44Z</time></trkpt><trkpt lat="43.8487127061099" lon="11.214643691233766"><ele>146.0</ele><time>2026-05-02T17:30:45Z</time></trkpt><trkpt lat="43.84855319028635" lon="11.21452988630744"><ele>147.0</ele><time>2026-05-02T17:30:46Z</time></trkpt><trkpt lat="43.84837210983437" lon="11.214418111571534"><ele>148.0</ele><time>2026-05-02T17:30:47Z</time></trkpt><trkpt lat="43.84819315573852" lon="11.214264928073959"><ele>149.0</ele><time>2026-05-02T17:30:48Z</time></trkpt><trkpt lat="43.84799893086584" lon="11.214122220446335"><ele>149.0</ele><time>2026-05-02T17:30:49Z</time></trkpt><trkpt lat="43.84779868952731" lon="11.213997818334256"><ele>149.0</ele><time>2026-05-02T17:30:50Z</time></trkpt><trkpt lat="43.84758545224684" lon="11.213911683874517"><ele>149.0</ele><time>2026-05-02T17:30:51Z</time></trkpt><trkpt lat="43.84737012821269" lon="11.213843410092483"><ele>144.33333333333331</ele><time>2026-05-02T17:30:52Z</time></trkpt><trkpt lat="43.84715692994229" lon="11.213786389447797"><ele>139.66666666666666</ele><time>2026-05-02T17:30:53Z</time></trkpt><trkpt lat="43.84694200325364" lon="11.213728029597425"><ele>135.0</ele><time>2026-05-02T17:30:54Z</time></trkpt><trkpt lat="43.8467403622065" lon="11.213674741861364"><ele>135.0</ele><time>2026-05-02T17:30:55Z</time></trkpt><trkpt lat="43.8465450304662" lon="11.213619937499868"><ele>135.0</ele><time>2026-05-02T17:30:56Z</time></trkpt><trkpt lat="43.846356869637944" lon="11.213562683524678"><ele>135.0</ele><time>2026-05-02T17:30:57Z</time></trkpt><trkpt lat="43.846164866788484" lon="11.213497894837879"><ele>135.0</ele><time>2026-05-02T17:30:58Z</time></trkpt><trkpt lat="43.84596607304149" lon="11.213444193632258"><ele>135.0</ele><time>2026-05-02T17:30:59Z</time></trkpt><trkpt lat="43.84575812198016" lon="11.213410972072143"><ele>135.0</ele><time>2026-05-02T17:31:00Z</time></trkpt><trkpt lat="43.84555491260263" lon="11.213428417604398"><ele>135.66666666666666</ele><time>2026-05-02T17:31:01Z</time></trkpt><trkpt lat="43.8453581445201" lon="11.213476477404262"><ele>136.33333333333331</ele><time>2026-05-02T17:31:02Z</time></trkpt><trkpt lat="43.84516640083501" lon="11.213494456178513"><ele>137.0</ele><time>2026-05-02T17:31:03Z</time></trkpt><trkpt lat="43.844972271095656" lon="11.213476468620176"><ele>135.66666666666666</ele><time>2026-05-02T17:31:04Z</time></trkpt><trkpt lat="43.84478214178887" lon="11.21338653567367"><ele>134.33333333333334</ele><time>2026-05-02T17:31:05Z</time></trkpt><trkpt lat="43.84457688581448" lon="11.213318461894264"><ele>133.0</ele><time>2026-05-02T17:31:06Z</time></trkpt><trkpt lat="43.84437638252823" lon="11.213252529570978"><ele>132.33333333333334</ele><time>2026-05-02T17:31:07Z</time></trkpt><trkpt lat="43.84416846304925" lon="11.213240821984446"><ele>131.66666666666666</ele><time>2026-05-02T17:31:08Z</time></trkpt><trkpt lat="43.84395724075731" lon="11.213264335742979"><ele>131.0</ele><time>2026-05-02T17:31:09Z</time></trkpt><trkpt lat="43.84375965213235" lon="11.213295779085279"><ele>131.0</ele><time>2026-05-02T17:31:10Z</time></trkpt><trkpt lat="43.843585413681076" lon="11.213359040244566"><ele>131.0</ele><time>2026-05-02T17:31:11Z</time></trkpt><trkpt lat="43.84339729868263" lon="11.213417268192083"><ele>131.0</ele><time>2026-05-02T17:31:12Z</time></trkpt><trkpt lat="43.84322654044081" lon="11.213532600559505"><ele>128.66666666666666</ele><time>2026-05-02T17:31:12.999Z</time></trkpt><trkpt lat="43.84305977156281" lon="11.213686295345966"><ele>126.33333333333334</ele><time>2026-05-02T17:31:13.999Z</time></trkpt><trkpt lat="43.84290002694837" lon="11.213842371730392"><ele>124.0</ele><time>2026-05-02T17:31:14.999Z</time></trkpt><trkpt lat="43.84273620387904" lon="11.213963867891874"><ele>125.0</ele><time>2026-05-02T17:31:15.999Z</time></trkpt><trkpt lat="43.84255083625023" lon="11.214032108111104"><ele>126.0</ele><time>2026-05-02T17:31:16.999Z</time></trkpt><trkpt lat="43.84235489701951" lon="11.214020202839807"><ele>127.0</ele><time>2026-05-02T17:31:17.999Z</time></trkpt><trkpt lat="43.84217172969542" lon="11.213968127250945"><ele>124.33333333333334</ele><time>2026-05-02T17:31:18.999Z</time></trkpt><trkpt lat="43.841977018467546" lon="11.213915871228807"><ele>121.66666666666666</ele><time>2026-05-02T17:31:19.999Z</time></trkpt><trkpt lat="43.84177008838941" lon="11.21382424417988"><ele>119.0</ele><time>2026-05-02T17:31:20.999Z</time></trkpt><trkpt lat="43.84156884073208" lon="11.213748906807279"><ele>118.0</ele><time>2026-05-02T17:31:21.999Z</time></trkpt><trkpt lat="43.84138566678792" lon="11.213691123460592"><ele>117.0</ele><time>2026-05-02T17:31:22.999Z</time></trkpt><trkpt lat="43.84121795070379" lon="11.213635173031218"><ele>116.0</ele><time>2026-05-02T17:31:23.999Z</time></trkpt><trkpt lat="43.841059903401074" lon="11.213581213168903"><ele>114.5</ele><time>2026-05-02T17:31:24.999Z</time></trkpt><trkpt lat="43.840925826133784" lon="11.213535585478189"><ele>113.0</ele><time>2026-05-02T17:31:25.999Z</time></trkpt><trkpt lat="43.840812748536706" lon="11.21350494069342"><ele>111.5</ele><time>2026-05-02T17:31:26.999Z</time></trkpt><trkpt lat="43.8407151572124" lon="11.213519448324606"><ele>110.0</ele><time>2026-05-02T17:31:27.999Z</time></trkpt><trkpt lat="43.84061660518504" lon="11.213589436721271"><ele>110.0</ele><time>2026-05-02T17:31:28.999Z</time></trkpt><trkpt lat="43.8405347090771" lon="11.213726858479733"><ele>110.0</ele><time>2026-05-02T17:31:29.999Z</time></trkpt><trkpt lat="43.840445136049" lon="11.213810501218095"><ele>110.0</ele><time>2026-05-02T17:31:30.999Z</time></trkpt><trkpt lat="43.8403723087774" lon="11.213908583445486"><ele>110.0</ele><time>2026-05-02T17:31:31.999Z</time></trkpt><trkpt lat="43.84029173261128" lon="11.214028349192166"><ele>110.5</ele><time>2026-05-02T17:31:32.999Z</time></trkpt><trkpt lat="43.840187479573984" lon="11.214155002358766"><ele>111.0</ele><time>2026-05-02T17:31:33.999Z</time></trkpt><trkpt lat="43.840091024313914" lon="11.214278611041781"><ele>111.5</ele><time>2026-05-02T17:31:34.999Z</time></trkpt><trkpt lat="43.839998735415534" lon="11.214380519465848"><ele>112.0</ele><time>2026-05-02T17:31:35.999Z</time></trkpt><trkpt lat="43.839915330644075" lon="11.21448041973167"><ele>112.0</ele><time>2026-05-02T17:31:36.999Z</time></trkpt><trkpt lat="43.83982391950606" lon="11.214597903111288"><ele>112.0</ele><time>2026-05-02T17:31:37.999Z</time></trkpt><trkpt lat="43.83973033954576" lon="11.214710555827187"><ele>112.0</ele><time>2026-05-02T17:31:38.999Z</time></trkpt><trkpt lat="43.83963700542077" lon="11.214789635728208"><ele>112.0</ele><time>2026-05-02T17:31:39.999Z</time></trkpt><trkpt lat="43.83953887128872" lon="11.214850142271834"><ele>112.25</ele><time>2026-05-02T17:31:40.999Z</time></trkpt><trkpt lat="43.83942177076983" lon="11.214897364609918"><ele>112.5</ele><time>2026-05-02T17:31:41.999Z</time></trkpt><trkpt lat="43.83929200110702" lon="11.214950436658967"><ele>112.75</ele><time>2026-05-02T17:31:42.999Z</time></trkpt><trkpt lat="43.83916456641863" lon="11.215000671803914"><ele>113.0</ele><time>2026-05-02T17:31:43.999Z</time></trkpt><trkpt lat="43.83905204139137" lon="11.215054281776057"><ele>113.0</ele><time>2026-05-02T17:31:44.999Z</time></trkpt><trkpt lat="43.838931748721194" lon="11.21508831688195"><ele>113.0</ele><time>2026-05-02T17:31:45.999Z</time></trkpt><trkpt lat="43.838819190599374" lon="11.215116720076534"><ele>113.0</ele><time>2026-05-02T17:31:46.999Z</time></trkpt><trkpt lat="43.8387196244444" lon="11.21516078617669"><ele>113.0</ele><time>2026-05-02T17:31:47.999Z</time></trkpt><trkpt lat="43.8386131547189" lon="11.215195948522412"><ele>113.0</ele><time>2026-05-02T17:31:48.999Z</time></trkpt><trkpt lat="43.838487642759816" lon="11.215246258910508"><ele>113.0</ele><time>2026-05-02T17:31:49.999Z</time></trkpt><trkpt lat="43.83837121366357" lon="11.215325246699631"><ele>113.0</ele><time>2026-05-02T17:31:50.999Z</time></trkpt><trkpt lat="43.83826281885669" lon="11.215447706392538"><ele>113.0</ele><time>2026-05-02T17:31:51.999Z</time></trkpt><trkpt lat="43.83813724813931" lon="11.21561096714245"><ele>113.0</ele><time>2026-05-02T17:31:52.999Z</time></trkpt><trkpt lat="43.83799284364423" lon="11.215784394687912"><ele>113.0</ele><time>2026-05-02T17:31:53.999Z</time></trkpt><trkpt lat="43.83783908043671" lon="11.215957144506795"><ele>113.0</ele><time>2026-05-02T17:31:54.999Z</time></trkpt><trkpt lat="43.837686351033014" lon="11.216141152837466"><ele>112.0</ele><time>2026-05-02T17:31:55.999Z</time></trkpt><trkpt lat="43.8375390652184" lon="11.216308925163489"><ele>111.0</ele><time>2026-05-02T17:31:56.999Z</time></trkpt><trkpt lat="43.83740201307706" lon="11.216469706039591"><ele>110.0</ele><time>2026-05-02T17:31:57.999Z</time></trkpt><trkpt lat="43.83728886791404" lon="11.21663914755762"><ele>110.0</ele><time>2026-05-02T17:31:58.999Z</time></trkpt><trkpt lat="43.837180461413425" lon="11.216770883071833"><ele>110.0</ele><time>2026-05-02T17:31:59.999Z</time></trkpt><trkpt lat="43.837093642107746" lon="11.216870994678507"><ele>110.0</ele><time>2026-05-02T17:32:00.999Z</time></trkpt><trkpt lat="43.83699942277102" lon="11.21692650061827"><ele>110.0</ele><time>2026-05-02T17:32:01.999Z</time></trkpt><trkpt lat="43.836903297384644" lon="11.216909541701298"><ele>110.0</ele><time>2026-05-02T17:32:03Z</time></trkpt><trkpt lat="43.83680925333932" lon="11.216861903829331"><ele>110.0</ele><time>2026-05-02T17:32:04Z</time></trkpt><trkpt lat="43.83670203945001" lon="11.216773129675376"><ele>110.0</ele><time>2026-05-02T17:32:05Z</time></trkpt><trkpt lat="43.83657843841652" lon="11.216632422346436"><ele>110.0</ele><time>2026-05-02T17:32:06Z</time></trkpt><trkpt lat="43.83643995653613" lon="11.216487191789238"><ele>107.66666666666666</ele><time>2026-05-02T17:32:07Z</time></trkpt><trkpt lat="43.8362942906034" lon="11.216346811869036"><ele>105.33333333333334</ele><time>2026-05-02T17:32:08Z</time></trkpt><trkpt lat="43.836164639863995" lon="11.216225869512934"><ele>103.0</ele><time>2026-05-02T17:32:09Z</time></trkpt><trkpt lat="43.83604870870019" lon="11.216120472345276"><ele>102.5</ele><time>2026-05-02T17:32:10Z</time></trkpt><trkpt lat="43.83595233287929" lon="11.216010329863101"><ele>102.0</ele><time>2026-05-02T17:32:11Z</time></trkpt><trkpt lat="43.8358565256469" lon="11.215918086219009"><ele>101.5</ele><time>2026-05-02T17:32:12Z</time></trkpt><trkpt lat="43.83586864773856" lon="11.215753188018871"><ele>101.0</ele><time>2026-05-02T17:32:13Z</time></trkpt><trkpt lat="43.83586242987944" lon="11.215624738546506"><ele>100.42857142857143</ele><time>2026-05-02T17:32:14Z</time></trkpt><trkpt lat="43.83588146473418" lon="11.215532530262616"><ele>99.85714285714286</ele><time>2026-05-02T17:32:15Z</time></trkpt><trkpt lat="43.835908290444976" lon="11.215445568602556"><ele>99.28571428571428</ele><time>2026-05-02T17:32:16Z</time></trkpt><trkpt lat="43.835934825724344" lon="11.215346620750346"><ele>98.71428571428572</ele><time>2026-05-02T17:32:17Z</time></trkpt><trkpt lat="43.835978763224574" lon="11.215267484811573"><ele>98.14285714285715</ele><time>2026-05-02T17:32:18Z</time></trkpt><trkpt lat="43.83603918790155" lon="11.21519873409244"><ele>97.57142857142857</ele><time>2026-05-02T17:32:19Z</time></trkpt><trkpt lat="43.83608726583059" lon="11.215116143930436"><ele>97.0</ele><time>2026-05-02T17:32:20Z</time></trkpt><trkpt lat="43.83613217673309" lon="11.215040011121575"><ele>97.00000000000001</ele><time>2026-05-02T17:32:21Z</time></trkpt><trkpt lat="43.83617575151462" lon="11.214966143438444"><ele>97.0</ele><time>2026-05-02T17:32:22Z</time></trkpt><trkpt lat="43.83623285589565" lon="11.21484386280453"><ele>97.0</ele><time>2026-05-02T17:32:24Z</time></trkpt><trkpt lat="43.83628015250704" lon="11.214771287622069"><ele>97.0</ele><time>2026-05-02T17:32:26Z</time></trkpt><trkpt lat="43.83634437202953" lon="11.21469951650236"><ele>97.00000000000001</ele><time>2026-05-02T17:32:28Z</time></trkpt><trkpt lat="43.83641139208297" lon="11.214662085600843"><ele>97.0</ele><time>2026-05-02T17:32:29Z</time></trkpt><trkpt lat="43.836487818931005" lon="11.214567755905989"><ele>96.75</ele><time>2026-05-02T17:32:30Z</time></trkpt><trkpt lat="43.83656021615174" lon="11.214474617873618"><ele>96.5</ele><time>2026-05-02T17:32:31Z</time></trkpt><trkpt lat="43.836653681364375" lon="11.214358135240245"><ele>96.25</ele><time>2026-05-02T17:32:32Z</time></trkpt><trkpt lat="43.83675821974147" lon="11.214205245378944"><ele>96.0</ele><time>2026-05-02T17:32:33Z</time></trkpt><trkpt lat="43.836879520895685" lon="11.21406504147923"><ele>96.0</ele><time>2026-05-02T17:32:34Z</time></trkpt><trkpt lat="43.837012982215555" lon="11.213925903529995"><ele>96.0</ele><time>2026-05-02T17:32:35Z</time></trkpt><trkpt lat="43.83716144923896" lon="11.213791681381773"><ele>96.0</ele><time>2026-05-02T17:32:36Z</time></trkpt><trkpt lat="43.83729622385264" lon="11.213653369502891"><ele>96.0</ele><time>2026-05-02T17:32:37Z</time></trkpt><trkpt lat="43.83741587857237" lon="11.21351567169343"><ele>96.0</ele><time>2026-05-02T17:32:38Z</time></trkpt><trkpt lat="43.837529777691024" lon="11.213363640124847"><ele>96.0</ele><time>2026-05-02T17:32:39Z</time></trkpt><trkpt lat="43.83762840119914" lon="11.213200782880829"><ele>96.0</ele><time>2026-05-02T17:32:40Z</time></trkpt><trkpt lat="43.837715970560375" lon="11.21305337630939"><ele>96.0</ele><time>2026-05-02T17:32:41Z</time></trkpt><trkpt lat="43.83778990902016" lon="11.212915269934392"><ele>96.0</ele><time>2026-05-02T17:32:42Z</time></trkpt><trkpt lat="43.83785589980017" lon="11.212808487425644"><ele>96.0</ele><time>2026-05-02T17:32:43Z</time></trkpt><trkpt lat="43.83791225728881" lon="11.212723214082656"><ele>96.0</ele><time>2026-05-02T17:32:44Z</time></trkpt><trkpt lat="43.8379573794932" lon="11.212645823976509"><ele>96.0</ele><time>2026-05-02T17:32:45Z</time></trkpt><trkpt lat="43.83801261369963" lon="11.212590511323993"><ele>96.0</ele><time>2026-05-02T17:32:46Z</time></trkpt><trkpt lat="43.8380862936095" lon="11.212483723471793"><ele>96.0</ele><time>2026-05-02T17:32:48Z</time></trkpt><trkpt lat="43.8379964610413" lon="11.212325766383133"><ele>96.0</ele><time>2026-05-02T17:32:50Z</time></trkpt><trkpt lat="43.837912796515944" lon="11.212256171093296"><ele>96.0</ele><time>2026-05-02T17:32:51Z</time></trkpt><trkpt lat="43.83782980453797" lon="11.212173969592365"><ele>95.19999999999999</ele><time>2026-05-02T17:32:52Z</time></trkpt><trkpt lat="43.83773660164698" lon="11.21207413892442"><ele>94.39999999999999</ele><time>2026-05-02T17:32:53Z</time></trkpt><trkpt lat="43.83764579378823" lon="11.211979709523613"><ele>93.6</ele><time>2026-05-02T17:32:54Z</time></trkpt><trkpt lat="43.83756154318048" lon="11.211896261492564"><ele>92.8</ele><time>2026-05-02T17:32:55Z</time></trkpt><trkpt lat="43.837488915027215" lon="11.211818879106033"><ele>92.0</ele><time>2026-05-02T17:32:56Z</time></trkpt><trkpt lat="43.837432474706695" lon="11.211751454423577"><ele>91.39999999999999</ele><time>2026-05-02T17:32:57Z</time></trkpt><trkpt lat="43.83736918584813" lon="11.211605743354887"><ele>90.8</ele><time>2026-05-02T17:32:59Z</time></trkpt><trkpt lat="43.837390552294174" lon="11.2115227802715"><ele>90.2</ele><time>2026-05-02T17:33:00Z</time></trkpt><trkpt lat="43.83743522551358" lon="11.211419083310568"><ele>89.6</ele><time>2026-05-02T17:33:01Z</time></trkpt><trkpt lat="43.83749964781859" lon="11.211285414938713"><ele>89.0</ele><time>2026-05-02T17:33:02Z</time></trkpt><trkpt lat="43.83757087029085" lon="11.211119136841088"><ele>88.75</ele><time>2026-05-02T17:33:03Z</time></trkpt><trkpt lat="43.83764855782169" lon="11.210938580121553"><ele>88.5</ele><time>2026-05-02T17:33:04Z</time></trkpt><trkpt lat="43.837719130907125" lon="11.210763645121645"><ele>88.25</ele><time>2026-05-02T17:33:05Z</time></trkpt><trkpt lat="43.83778759374825" lon="11.210591517305932"><ele>88.0</ele><time>2026-05-02T17:33:06Z</time></trkpt><trkpt lat="43.83784413128152" lon="11.210444989267794"><ele>87.80000000000001</ele><time>2026-05-02T17:33:07Z</time></trkpt><trkpt lat="43.837895677176995" lon="11.210318747009916"><ele>87.6</ele><time>2026-05-02T17:33:08Z</time></trkpt><trkpt lat="43.83794088278409" lon="11.210208490043268"><ele>87.4</ele><time>2026-05-02T17:33:09Z</time></trkpt><trkpt lat="43.837978637305326" lon="11.210114128100404"><ele>87.19999999999999</ele><time>2026-05-02T17:33:10Z</time></trkpt><trkpt lat="43.838035360043236" lon="11.210000234899983"><ele>87.0</ele><time>2026-05-02T17:33:12Z</time></trkpt><trkpt lat="43.838087418087476" lon="11.209904876216617"><ele>86.39999999999999</ele><time>2026-05-02T17:33:15Z</time></trkpt><trkpt lat="43.837978019752" lon="11.209734744151469"><ele>85.8</ele><time>2026-05-02T17:33:18Z</time></trkpt><trkpt lat="43.83791747464303" lon="11.209683568898093"><ele>85.2</ele><time>2026-05-02T17:33:18.999Z</time></trkpt><trkpt lat="43.83785034731875" lon="11.209618058894874"><ele>84.6</ele><time>2026-05-02T17:33:19.999Z</time></trkpt><trkpt lat="43.83778905627449" lon="11.209553194807665"><ele>84.0</ele><time>2026-05-02T17:33:20.999Z</time></trkpt><trkpt lat="43.83771863160409" lon="11.209490792804214"><ele>84.0</ele><time>2026-05-02T17:33:21.999Z</time></trkpt><trkpt lat="43.83764765336286" lon="11.209413090232825"><ele>84.0</ele><time>2026-05-02T17:33:22.999Z</time></trkpt><trkpt lat="43.83757960329517" lon="11.209324204066906"><ele>84.0</ele><time>2026-05-02T17:33:23.999Z</time></trkpt><trkpt lat="43.83750918234115" lon="11.209234001586527"><ele>84.0</ele><time>2026-05-02T17:33:24.999Z</time></trkpt><trkpt lat="43.837449049479716" lon="11.209147173710672"><ele>84.0</ele><time>2026-05-02T17:33:25.999Z</time></trkpt><trkpt lat="43.83738409572982" lon="11.209074001397134"><ele>83.66666666666667</ele><time>2026-05-02T17:33:26.999Z</time></trkpt><trkpt lat="43.83732566085261" lon="11.209002593359806"><ele>83.33333333333333</ele><time>2026-05-02T17:33:27.999Z</time></trkpt><trkpt lat="43.83726413892765" lon="11.208926775099949"><ele>83.0</ele><time>2026-05-02T17:33:28.999Z</time></trkpt><trkpt lat="43.83720271966235" lon="11.208848652198398"><ele>82.66666666666666</ele><time>2026-05-02T17:33:29.999Z</time></trkpt><trkpt lat="43.83714547812076" lon="11.208770932277044"><ele>82.33333333333333</ele><time>2026-05-02T17:33:30.999Z</time></trkpt><trkpt lat="43.83709017747091" lon="11.208704623841529"><ele>82.0</ele><time>2026-05-02T17:33:31.999Z</time></trkpt><trkpt lat="43.837042637794404" lon="11.208637556863877"><ele>81.6</ele><time>2026-05-02T17:33:32.999Z</time></trkpt><trkpt lat="43.836953651376625" lon="11.208517121754372"><ele>81.19999999999999</ele><time>2026-05-02T17:33:34.999Z</time></trkpt><trkpt lat="43.83690202520624" lon="11.208445972448677"><ele>80.8</ele><time>2026-05-02T17:33:35.999Z</time></trkpt><trkpt lat="43.83681910626983" lon="11.20837226964325"><ele>80.4</ele><time>2026-05-02T17:33:36.999Z</time></trkpt><trkpt lat="43.8367430764884" lon="11.20829862267273"><ele>80.0</ele><time>2026-05-02T17:33:37.999Z</time></trkpt><trkpt lat="43.836690234695205" lon="11.208238697914918"><ele>79.8</ele><time>2026-05-02T17:33:38.999Z</time></trkpt><trkpt lat="43.83661638637507" lon="11.208161588252265"><ele>79.6</ele><time>2026-05-02T17:33:40.999Z</time></trkpt><trkpt lat="43.83655703712968" lon="11.20806539715074"><ele>79.4</ele><time>2026-05-02T17:33:43.999Z</time></trkpt><trkpt lat="43.83661539065134" lon="11.20793138736542"><ele>79.2</ele><time>2026-05-02T17:33:44.999Z</time></trkpt><trkpt lat="43.83666901811324" lon="11.207841066221413"><ele>79.0</ele><time>2026-05-02T17:33:45.999Z</time></trkpt><trkpt lat="43.83673632658502" lon="11.20774560174853"><ele>79.16666666666666</ele><time>2026-05-02T17:33:46.999Z</time></trkpt><trkpt lat="43.83680323086998" lon="11.207637065276993"><ele>79.33333333333333</ele><time>2026-05-02T17:33:47.999Z</time></trkpt><trkpt lat="43.83686824460449" lon="11.207523469378266"><ele>79.5</ele><time>2026-05-02T17:33:48.999Z</time></trkpt><trkpt lat="43.83692239061921" lon="11.207426979691286"><ele>79.66666666666667</ele><time>2026-05-02T17:33:49.999Z</time></trkpt><trkpt lat="43.83696500637734" lon="11.207340840371613"><ele>79.83333333333334</ele><time>2026-05-02T17:33:50.999Z</time></trkpt><trkpt lat="43.837007021646706" lon="11.207272899876578"><ele>80.0</ele><time>2026-05-02T17:33:51.999Z</time></trkpt><trkpt lat="43.83708111362621" lon="11.207148467917895"><ele>80.0</ele><time>2026-05-02T17:33:53.999Z</time></trkpt><trkpt lat="43.83712474492971" lon="11.207078272859953"><ele>80.0</ele><time>2026-05-02T17:33:54.999Z</time></trkpt><trkpt lat="43.83720476922527" lon="11.206957081284932"><ele>80.0</ele><time>2026-05-02T17:33:56.999Z</time></trkpt><trkpt lat="43.83724849103895" lon="11.20689040778533"><ele>80.0</ele><time>2026-05-02T17:33:57.999Z</time></trkpt><trkpt lat="43.83730009798425" lon="11.206803690448869"><ele>80.0</ele><time>2026-05-02T17:33:58.999Z</time></trkpt><trkpt lat="43.83735031700483" lon="11.206697637123352"><ele>80.0</ele><time>2026-05-02T17:33:59.999Z</time></trkpt><trkpt lat="43.837407885415324" lon="11.206582578724692"><ele>80.2</ele><time>2026-05-02T17:34:00.999Z</time></trkpt><trkpt lat="43.83747450939975" lon="11.206470623600364"><ele>80.4</ele><time>2026-05-02T17:34:01.999Z</time></trkpt><trkpt lat="43.83754688747453" lon="11.206354914378824"><ele>80.6</ele><time>2026-05-02T17:34:02.999Z</time></trkpt><trkpt lat="43.83761285292771" lon="11.206241189167155"><ele>80.8</ele><time>2026-05-02T17:34:03.999Z</time></trkpt><trkpt lat="43.8376745420888" lon="11.206132234145427"><ele>81.0</ele><time>2026-05-02T17:34:04.999Z</time></trkpt><trkpt lat="43.8377359095938" lon="11.206025660690418"><ele>81.0</ele><time>2026-05-02T17:34:05.999Z</time></trkpt><trkpt lat="43.837799800197054" lon="11.205913522195052"><ele>81.0</ele><time>2026-05-02T17:34:06.999Z</time></trkpt><trkpt lat="43.8378591650072" lon="11.205810800964919"><ele>81.0</ele><time>2026-05-02T17:34:07.999Z</time></trkpt><trkpt lat="43.837908153513034" lon="11.205695944390435"><ele>81.0</ele><time>2026-05-02T17:34:09Z</time></trkpt><trkpt lat="43.837956410798924" lon="11.205570560798268"><ele>81.0</ele><time>2026-05-02T17:34:10Z</time></trkpt><trkpt lat="43.838001620714174" lon="11.20543697262514"><ele>81.25</ele><time>2026-05-02T17:34:11Z</time></trkpt><trkpt lat="43.838069650235745" lon="11.205335588249596"><ele>81.5</ele><time>2026-05-02T17:34:12Z</time></trkpt><trkpt lat="43.838130486199404" lon="11.205220129692766"><ele>81.75</ele><time>2026-05-02T17:34:13Z</time></trkpt><trkpt lat="43.83820753421516" lon="11.205076111085457"><ele>82.0</ele><time>2026-05-02T17:34:14Z</time></trkpt><trkpt lat="43.83829540021695" lon="11.204911871200057"><ele>81.75</ele><time>2026-05-02T17:34:15Z</time></trkpt><trkpt lat="43.83837441691053" lon="11.204764172706044"><ele>81.5</ele><time>2026-05-02T17:34:16Z</time></trkpt><trkpt lat="43.83844752636208" lon="11.204631217743836"><ele>81.25</ele><time>2026-05-02T17:34:17Z</time></trkpt><trkpt lat="43.83851883034459" lon="11.20450444780787"><ele>81.0</ele><time>2026-05-02T17:34:18Z</time></trkpt><trkpt lat="43.83859566764727" lon="11.20437186955787"><ele>81.0</ele><time>2026-05-02T17:34:19Z</time></trkpt><trkpt lat="43.83867546456304" lon="11.204208178641496"><ele>81.0</ele><time>2026-05-02T17:34:20Z</time></trkpt><trkpt lat="43.838754048301055" lon="11.204039756969804"><ele>81.0</ele><time>2026-05-02T17:34:21Z</time></trkpt><trkpt lat="43.83880616354711" lon="11.20387479265812"><ele>81.0</ele><time>2026-05-02T17:34:22Z</time></trkpt><trkpt lat="43.838862610954706" lon="11.203748489001015"><ele>80.8</ele><time>2026-05-02T17:34:23Z</time></trkpt><trkpt lat="43.838914532372684" lon="11.203632536182104"><ele>80.6</ele><time>2026-05-02T17:34:24Z</time></trkpt><trkpt lat="43.83896522585606" lon="11.20352494027583"><ele>80.4</ele><time>2026-05-02T17:34:25Z</time></trkpt><trkpt lat="43.83900970269567" lon="11.203419468761298"><ele>80.2</ele><time>2026-05-02T17:34:26Z</time></trkpt><trkpt lat="43.83906419140406" lon="11.20332038371551"><ele>80.0</ele><time>2026-05-02T17:34:27Z</time></trkpt><trkpt lat="43.839084001234575" lon="11.203177329033801"><ele>79.6</ele><time>2026-05-02T17:34:28Z</time></trkpt><trkpt lat="43.83912692304764" lon="11.203030982588519"><ele>79.2</ele><time>2026-05-02T17:34:29Z</time></trkpt><trkpt lat="43.83916664031156" lon="11.202877929390402"><ele>78.8</ele><time>2026-05-02T17:34:30Z</time></trkpt><trkpt lat="43.83920422248369" lon="11.20275702781131"><ele>78.4</ele><time>2026-05-02T17:34:31Z</time></trkpt><trkpt lat="43.83924114966741" lon="11.202631902208804"><ele>78.0</ele><time>2026-05-02T17:34:32Z</time></trkpt><trkpt lat="43.83929789300448" lon="11.202522834769503"><ele>77.8</ele><time>2026-05-02T17:34:33Z</time></trkpt><trkpt lat="43.83934436358762" lon="11.202400421426"><ele>77.6</ele><time>2026-05-02T17:34:34Z</time></trkpt><trkpt lat="43.83938500623087" lon="11.20225167529598"><ele>77.4</ele><time>2026-05-02T17:34:35Z</time></trkpt><trkpt lat="43.839445082748924" lon="11.202119034196096"><ele>77.2</ele><time>2026-05-02T17:34:36Z</time></trkpt><trkpt lat="43.83951822649284" lon="11.202010091915069"><ele>77.0</ele><time>2026-05-02T17:34:37Z</time></trkpt><trkpt lat="43.83957549520187" lon="11.201895522082287"><ele>77.0</ele><time>2026-05-02T17:34:38Z</time></trkpt><trkpt lat="43.83961195350721" lon="11.20176642657347"><ele>77.0</ele><time>2026-05-02T17:34:39Z</time></trkpt><trkpt lat="43.8396611521472" lon="11.201658125764784"><ele>77.0</ele><time>2026-05-02T17:34:40Z</time></trkpt><trkpt lat="43.83971725735232" lon="11.201559955553318"><ele>77.0</ele><time>2026-05-02T17:34:41Z</time></trkpt><trkpt lat="43.83976683091446" lon="11.201461589697566"><ele>77.0</ele><time>2026-05-02T17:34:42Z</time></trkpt><trkpt lat="43.83981808509511" lon="11.201354991520779"><ele>76.83333333333334</ele><time>2026-05-02T17:34:43Z</time></trkpt><trkpt lat="43.839876830192466" lon="11.201239518658307"><ele>76.66666666666667</ele><time>2026-05-02T17:34:44Z</time></trkpt><trkpt lat="43.839926263052206" lon="11.201135067910156"><ele>76.5</ele><time>2026-05-02T17:34:45Z</time></trkpt><trkpt lat="43.839971542430455" lon="11.20103565232046"><ele>76.33333333333333</ele><time>2026-05-02T17:34:46Z</time></trkpt><trkpt lat="43.84001090172122" lon="11.200946357470837"><ele>76.16666666666666</ele><time>2026-05-02T17:34:47Z</time></trkpt><trkpt lat="43.84005354087983" lon="11.200858667626337"><ele>76.0</ele><time>2026-05-02T17:34:48Z</time></trkpt><trkpt lat="43.84009303133782" lon="11.200775429891884"><ele>75.5</ele><time>2026-05-02T17:34:49Z</time></trkpt><trkpt lat="43.84014865665367" lon="11.200665049118644"><ele>75.0</ele><time>2026-05-02T17:34:50Z</time></trkpt><trkpt lat="43.84024551224998" lon="11.200539045215"><ele>74.5</ele><time>2026-05-02T17:34:51Z</time></trkpt><trkpt lat="43.84031996741899" lon="11.200356528269483"><ele>74.0</ele><time>2026-05-02T17:34:52Z</time></trkpt><trkpt lat="43.84040977760473" lon="11.200174631512127"><ele>74.0</ele><time>2026-05-02T17:34:53Z</time></trkpt><trkpt lat="43.84049877184395" lon="11.19998687747124"><ele>74.0</ele><time>2026-05-02T17:34:54Z</time></trkpt><trkpt lat="43.84057623323548" lon="11.199817696330687"><ele>74.0</ele><time>2026-05-02T17:34:55Z</time></trkpt><trkpt lat="43.84066430310241" lon="11.19966981041081"><ele>74.0</ele><time>2026-05-02T17:34:56Z</time></trkpt><trkpt lat="43.84074458672631" lon="11.19950187872674"><ele>73.5</ele><time>2026-05-02T17:34:57Z</time></trkpt><trkpt lat="43.840828971084264" lon="11.199321766481372"><ele>73.0</ele><time>2026-05-02T17:34:58Z</time></trkpt><trkpt lat="43.84089823351982" lon="11.199135077428773"><ele>72.5</ele><time>2026-05-02T17:34:59Z</time></trkpt><trkpt lat="43.84097206710279" lon="11.198969766950976"><ele>72.0</ele><time>2026-05-02T17:35:00Z</time></trkpt><trkpt lat="43.841041077256264" lon="11.198817665818607"><ele>71.6</ele><time>2026-05-02T17:35:01Z</time></trkpt><trkpt lat="43.84109458595692" lon="11.198672265116072"><ele>71.2</ele><time>2026-05-02T17:35:02Z</time></trkpt><trkpt lat="43.84114602268408" lon="11.198549671984907"><ele>70.8</ele><time>2026-05-02T17:35:03Z</time></trkpt><trkpt lat="43.84118649236737" lon="11.198439634097067"><ele>70.4</ele><time>2026-05-02T17:35:04Z</time></trkpt><trkpt lat="43.8412168709788" lon="11.198337541158958"><ele>70.0</ele><time>2026-05-02T17:35:05Z</time></trkpt><trkpt lat="43.84125867303709" lon="11.198224208582053"><ele>70.0</ele><time>2026-05-02T17:35:06Z</time></trkpt><trkpt lat="43.8413299822939" lon="11.198080084891666"><ele>70.0</ele><time>2026-05-02T17:35:07Z</time></trkpt><trkpt lat="43.84141406830779" lon="11.197902469687985"><ele>70.0</ele><time>2026-05-02T17:35:08Z</time></trkpt><trkpt lat="43.84149660456156" lon="11.19770391041505"><ele>70.0</ele><time>2026-05-02T17:35:09Z</time></trkpt><trkpt lat="43.84157161923623" lon="11.19752805233044"><ele>70.0</ele><time>2026-05-02T17:35:10Z</time></trkpt><trkpt lat="43.84163980349625" lon="11.197361259600518"><ele>70.0</ele><time>2026-05-02T17:35:11Z</time></trkpt><trkpt lat="43.84172887605432" lon="11.197198692448014"><ele>70.0</ele><time>2026-05-02T17:35:12Z</time></trkpt><trkpt lat="43.841815578256806" lon="11.197000938745838"><ele>70.0</ele><time>2026-05-02T17:35:12.999Z</time></trkpt><trkpt lat="43.841900778974704" lon="11.196806609698497"><ele>70.0</ele><time>2026-05-02T17:35:13.999Z</time></trkpt><trkpt lat="43.841986001365264" lon="11.196612231356426"><ele>70.0</ele><time>2026-05-02T17:35:14.999Z</time></trkpt><trkpt lat="43.84206652074822" lon="11.196431545441301"><ele>69.5</ele><time>2026-05-02T17:35:15.999Z</time></trkpt><trkpt lat="43.84214651281488" lon="11.196252872580434"><ele>69.0</ele><time>2026-05-02T17:35:16.999Z</time></trkpt><trkpt lat="43.84222043995266" lon="11.196085014447448"><ele>68.5</ele><time>2026-05-02T17:35:17.999Z</time></trkpt><trkpt lat="43.8422908383964" lon="11.195929057045777"><ele>68.0</ele><time>2026-05-02T17:35:18.999Z</time></trkpt><trkpt lat="43.84234811482017" lon="11.195744695461682"><ele>67.0</ele><time>2026-05-02T17:35:19.999Z</time></trkpt><trkpt lat="43.84243596002262" lon="11.195552967481005"><ele>66.0</ele><time>2026-05-02T17:35:20.999Z</time></trkpt><trkpt lat="43.84251436546432" lon="11.195341990656372"><ele>65.0</ele><time>2026-05-02T17:35:21.999Z</time></trkpt><trkpt lat="43.842567169122574" lon="11.19511564403885"><ele>65.0</ele><time>2026-05-02T17:35:22.999Z</time></trkpt><trkpt lat="43.84260419421485" lon="11.194868169358141"><ele>65.0</ele><time>2026-05-02T17:35:23.999Z</time></trkpt><trkpt lat="43.84263476461654" lon="11.194639959741808"><ele>65.0</ele><time>2026-05-02T17:35:24.999Z</time></trkpt><trkpt lat="43.8426815101927" lon="11.194431667983316"><ele>64.66666666666667</ele><time>2026-05-02T17:35:25.999Z</time></trkpt><trkpt lat="43.84271474888902" lon="11.194233239773324"><ele>64.33333333333333</ele><time>2026-05-02T17:35:26.999Z</time></trkpt><trkpt lat="43.84274808332188" lon="11.194031458786167"><ele>64.0</ele><time>2026-05-02T17:35:27.999Z</time></trkpt><trkpt lat="43.84278461333124" lon="11.19380521368817"><ele>64.0</ele><time>2026-05-02T17:35:28.999Z</time></trkpt><trkpt lat="43.84280713938051" lon="11.193575156997381"><ele>64.0</ele><time>2026-05-02T17:35:29.999Z</time></trkpt><trkpt lat="43.84284379128464" lon="11.193365100652567"><ele>64.0</ele><time>2026-05-02T17:35:30.999Z</time></trkpt><trkpt lat="43.84288397943384" lon="11.193177540980411"><ele>63.75</ele><time>2026-05-02T17:35:31.999Z</time></trkpt><trkpt lat="43.842953473846485" lon="11.19300271237296"><ele>63.5</ele><time>2026-05-02T17:35:32.999Z</time></trkpt><trkpt lat="43.843019286465186" lon="11.19283086383426"><ele>63.25</ele><time>2026-05-02T17:35:33.999Z</time></trkpt><trkpt lat="43.843091163583814" lon="11.19266819511294"><ele>63.0</ele><time>2026-05-02T17:35:34.999Z</time></trkpt><trkpt lat="43.84316814639259" lon="11.192495024649531"><ele>62.33333333333333</ele><time>2026-05-02T17:35:35.999Z</time></trkpt><trkpt lat="43.843245745233084" lon="11.192317696987633"><ele>61.666666666666664</ele><time>2026-05-02T17:35:36.999Z</time></trkpt><trkpt lat="43.843336048908206" lon="11.192111336005782"><ele>61.0</ele><time>2026-05-02T17:35:37.999Z</time></trkpt><trkpt lat="43.84342403118817" lon="11.191910280469203"><ele>61.75</ele><time>2026-05-02T17:35:38.999Z</time></trkpt><trkpt lat="43.84349030566738" lon="11.191721362744978"><ele>62.5</ele><time>2026-05-02T17:35:39.999Z</time></trkpt><trkpt lat="43.84356111107007" lon="11.191568677510116"><ele>63.25</ele><time>2026-05-02T17:35:40.999Z</time></trkpt><trkpt lat="43.843625256313466" lon="11.191426544920464"><ele>64.0</ele><time>2026-05-02T17:35:41.999Z</time></trkpt><trkpt lat="43.84368138520442" lon="11.1912861857317"><ele>64.0</ele><time>2026-05-02T17:35:42.999Z</time></trkpt><trkpt lat="43.84372215434818" lon="11.191142603736065"><ele>64.0</ele><time>2026-05-02T17:35:43.999Z</time></trkpt><trkpt lat="43.84375256686506" lon="11.190994862242164"><ele>64.0</ele><time>2026-05-02T17:35:44.999Z</time></trkpt><trkpt lat="43.84378378249557" lon="11.190850900900562"><ele>64.0</ele><time>2026-05-02T17:35:45.999Z</time></trkpt><trkpt lat="43.843786029096606" lon="11.1907010394499"><ele>64.0</ele><time>2026-05-02T17:35:46.999Z</time></trkpt><trkpt lat="43.84377968353399" lon="11.190538649738805"><ele>63.5</ele><time>2026-05-02T17:35:47.999Z</time></trkpt><trkpt lat="43.84375216654456" lon="11.190342613450344"><ele>63.0</ele><time>2026-05-02T17:35:48.999Z</time></trkpt><trkpt lat="43.843718183336954" lon="11.190142545896576"><ele>62.5</ele><time>2026-05-02T17:35:49.999Z</time></trkpt><trkpt lat="43.843684102795144" lon="11.189943411837861"><ele>62.0</ele><time>2026-05-02T17:35:50.999Z</time></trkpt><trkpt lat="43.843641080524975" lon="11.189698237864794"><ele>61.333333333333336</ele><time>2026-05-02T17:35:51.999Z</time></trkpt><trkpt lat="43.843597812572106" lon="11.189451664296286"><ele>60.66666666666667</ele><time>2026-05-02T17:35:52.999Z</time></trkpt><trkpt lat="43.84354682759992" lon="11.189236118381189"><ele>60.0</ele><time>2026-05-02T17:35:53.999Z</time></trkpt><trkpt lat="43.843522904890975" lon="11.189021278385344"><ele>58.75</ele><time>2026-05-02T17:35:54.999Z</time></trkpt><trkpt lat="43.84348904255018" lon="11.188830646069437"><ele>57.5</ele><time>2026-05-02T17:35:55.999Z</time></trkpt><trkpt lat="43.84345916842879" lon="11.188662466114256"><ele>56.25</ele><time>2026-05-02T17:35:56.999Z</time></trkpt><trkpt lat="43.84343272266497" lon="11.188515976406658"><ele>55.0</ele><time>2026-05-02T17:35:57.999Z</time></trkpt><trkpt lat="43.84340967937069" lon="11.188385261213428"><ele>54.75</ele><time>2026-05-02T17:35:58.999Z</time></trkpt><trkpt lat="43.84338402874085" lon="11.188235740691068"><ele>54.5</ele><time>2026-05-02T17:35:59.999Z</time></trkpt><trkpt lat="43.843358054613226" lon="11.188073663690194"><ele>54.25</ele><time>2026-05-02T17:36:00.999Z</time></trkpt><trkpt lat="43.843331982849044" lon="11.187902884145966"><ele>54.0</ele><time>2026-05-02T17:36:01.999Z</time></trkpt><trkpt lat="43.843303456135565" lon="11.187716376712027"><ele>54.0</ele><time>2026-05-02T17:36:02.999Z</time></trkpt><trkpt lat="43.8432653843205" lon="11.187507232168265"><ele>54.0</ele><time>2026-05-02T17:36:03.999Z</time></trkpt><trkpt lat="43.843208328238354" lon="11.187276207984342"><ele>54.0</ele><time>2026-05-02T17:36:04.999Z</time></trkpt><trkpt lat="43.84313805839301" lon="11.186992047084988"><ele>53.5</ele><time>2026-05-02T17:36:05.999Z</time></trkpt><trkpt lat="43.84303681072816" lon="11.186672145794713"><ele>53.0</ele><time>2026-05-02T17:36:06.999Z</time></trkpt><trkpt lat="43.84295318380729" lon="11.186332462877614"><ele>52.333333333333336</ele><time>2026-05-02T17:36:07.999Z</time></trkpt><trkpt lat="43.8428737336002" lon="11.18602076373758"><ele>51.66666666666667</ele><time>2026-05-02T17:36:08.999Z</time></trkpt><trkpt lat="43.84280960349906" lon="11.185756387792445"><ele>51.0</ele><time>2026-05-02T17:36:09.999Z</time></trkpt><trkpt lat="43.842770305578284" lon="11.185532735529252"><ele>51.0</ele><time>2026-05-02T17:36:10.999Z</time></trkpt><trkpt lat="43.84270458607958" lon="11.185361737154448"><ele>51.0</ele><time>2026-05-02T17:36:11.999Z</time></trkpt><trkpt lat="43.8426614596684" lon="11.185213612998785"><ele>51.0</ele><time>2026-05-02T17:36:12.999Z</time></trkpt><trkpt lat="43.84261164684307" lon="11.185098291300175"><ele>51.0</ele><time>2026-05-02T17:36:13.999Z</time></trkpt><trkpt lat="43.84256454463986" lon="11.185007904006042"><ele>51.0</ele><time>2026-05-02T17:36:15Z</time></trkpt><trkpt lat="43.84252866177855" lon="11.184926514679958"><ele>50.75</ele><time>2026-05-02T17:36:16Z</time></trkpt><trkpt lat="43.84251775777046" lon="11.18483321243151"><ele>50.5</ele><time>2026-05-02T17:36:17Z</time></trkpt><trkpt lat="43.84260810332317" lon="11.1846753302266"><ele>50.25</ele><time>2026-05-02T17:36:19Z</time></trkpt><trkpt lat="43.842661233354065" lon="11.18454389464206"><ele>50.0</ele><time>2026-05-02T17:36:20Z</time></trkpt><trkpt lat="43.842741071792716" lon="11.184395007321132"><ele>50.0</ele><time>2026-05-02T17:36:21Z</time></trkpt><trkpt lat="43.842801508800484" lon="11.184267177808554"><ele>50.0</ele><time>2026-05-02T17:36:22Z</time></trkpt><trkpt lat="43.84284580955041" lon="11.184173005485135"><ele>50.0</ele><time>2026-05-02T17:36:23Z</time></trkpt><trkpt lat="43.84288438188028" lon="11.184082732048996"><ele>50.0</ele><time>2026-05-02T17:36:24Z</time></trkpt><trkpt lat="43.84292165918812" lon="11.184011434764603"><ele>50.0</ele><time>2026-05-02T17:36:25Z</time></trkpt><trkpt lat="43.842846920120195" lon="11.183842633994852"><ele>50.2</ele><time>2026-05-02T17:36:27Z</time></trkpt><trkpt lat="43.84277295420371" lon="11.183787084296686"><ele>50.4</ele><time>2026-05-02T17:36:28Z</time></trkpt><trkpt lat="43.8426558224182" lon="11.183723630859506"><ele>50.599999999999994</ele><time>2026-05-02T17:36:29Z</time></trkpt><trkpt lat="43.84256880059555" lon="11.183639338672942"><ele>50.8</ele><time>2026-05-02T17:36:30Z</time></trkpt><trkpt lat="43.842490127573576" lon="11.18356398623283"><ele>51.0</ele><time>2026-05-02T17:36:31Z</time></trkpt><trkpt lat="43.842418739718205" lon="11.183505104715376"><ele>50.666666666666664</ele><time>2026-05-02T17:36:32Z</time></trkpt><trkpt lat="43.84235444348726" lon="11.183451418801985"><ele>50.33333333333333</ele><time>2026-05-02T17:36:33Z</time></trkpt><trkpt lat="43.84229890093482" lon="11.183401504440821"><ele>50.0</ele><time>2026-05-02T17:36:34Z</time></trkpt><trkpt lat="43.84222405479153" lon="11.183331686448248"><ele>49.666666666666664</ele><time>2026-05-02T17:36:36Z</time></trkpt><trkpt lat="43.84216905309839" lon="11.183288026585652"><ele>49.33333333333333</ele><time>2026-05-02T17:36:39Z</time></trkpt><trkpt lat="43.84211224037058" lon="11.183413403388013"><ele>49.0</ele><time>2026-05-02T17:36:43Z</time></trkpt><trkpt lat="43.84208270623055" lon="11.183509830149745"><ele>49.0</ele><time>2026-05-02T17:36:46Z</time></trkpt><trkpt lat="43.842110746909384" lon="11.18359594287669"><ele>49.0</ele><time>2026-05-02T17:36:49Z</time></trkpt></trkseg></trk></gpx>